<?xml version='1.0' encoding='UTF-8'?><gpx version="1.1" creator="JPX - https://github.com/jenetics/jpx" xmlns="http://www.topografix.com/GPX/1/1"><trk><trkseg><trkpt lat="45.65622267211739" lon="9.891458929229387"><ele>470.0</ele><time>2026-04-26T07:23:03.999Z</time></trkpt><trkpt lat="45.65627785696331" lon="9.89127782473825"><ele>470.0</ele><time>2026-04-26T07:23:20.999Z</time></trkpt><trkpt lat="45.656295857731834" lon="9.891160067994035"><ele>470.0</ele><time>2026-04-26T07:23:35.999Z</time></trkpt><trkpt lat="45.65630340786006" lon="9.891062238609738"><ele>470.0</ele><time>2026-04-26T07:23:45.998Z</time></trkpt><trkpt lat="45.656284265931006" lon="9.891316989775923"><ele>470.0</ele><time>2026-04-26T07:24:39Z</time></trkpt><trkpt lat="45.65626553376358" lon="9.891095354020026"><ele>470.0</ele><time>2026-04-26T07:24:40Z</time></trkpt><trkpt lat="45.65636954304448" lon="9.89118518622831"><ele>470.0</ele><time>2026-04-26T07:26:51Z</time></trkpt><trkpt lat="45.65636035878212" lon="9.891286398265672"><ele>470.0</ele><time>2026-04-26T07:26:56Z</time></trkpt><trkpt lat="45.65633552171466" lon="9.891382494986363"><ele>470.0</ele><time>2026-04-26T07:26:57.999Z</time></trkpt><trkpt lat="45.656213013504825" lon="9.891502368575502"><ele>470.0</ele><time>2026-04-26T07:27:25.999Z</time></trkpt><trkpt lat="45.65643319687508" lon="9.891304391758254"><ele>470.0</ele><time>2026-04-26T07:27:46.999Z</time></trkpt><trkpt lat="45.656327634699835" lon="9.891369727222214"><ele>470.0</ele><time>2026-04-26T07:28:01.998Z</time></trkpt><trkpt lat="45.656290716661616" lon="9.891286396430692"><ele>470.0</ele><time>2026-04-26T07:28:15.998Z</time></trkpt><trkpt lat="45.656339125698146" lon="9.891205794671308"><ele>470.0</ele><time>2026-04-26T07:28:26Z</time></trkpt><trkpt lat="45.65629208183842" lon="9.891110390419206"><ele>469.99999999999994</ele><time>2026-04-26T07:29:00Z</time></trkpt><trkpt lat="45.656244276181646" lon="9.891032837637136"><ele>470.0</ele><time>2026-04-26T07:29:09.999Z</time></trkpt><trkpt lat="45.65630531655449" lon="9.891069255243103"><ele>470.0</ele><time>2026-04-26T07:29:34.999Z</time></trkpt><trkpt lat="45.65630315897174" lon="9.89119341906636"><ele>469.99999999999994</ele><time>2026-04-26T07:29:50.999Z</time></trkpt><trkpt lat="45.65637015261327" lon="9.891155863797014"><ele>470.0</ele><time>2026-04-26T07:29:53.999Z</time></trkpt><trkpt lat="45.6564170060479" lon="9.891087033226853"><ele>470.0</ele><time>2026-04-26T07:29:57.999Z</time></trkpt><trkpt lat="45.65649879423204" lon="9.890938347788948"><ele>472.0</ele><time>2026-04-26T07:30:55Z</time></trkpt><trkpt lat="45.65654602025988" lon="9.890841900509807"><ele>474.0</ele><time>2026-04-26T07:30:56Z</time></trkpt><trkpt lat="45.65659831714398" lon="9.890730759808195"><ele>476.0</ele><time>2026-04-26T07:30:57Z</time></trkpt><trkpt lat="45.6566615742488" lon="9.890590573636798"><ele>478.0</ele><time>2026-04-26T07:30:58Z</time></trkpt><trkpt lat="45.656733309624585" lon="9.890439008954298"><ele>480.0</ele><time>2026-04-26T07:30:59Z</time></trkpt><trkpt lat="45.65681030152559" lon="9.890290145880256"><ele>480.0</ele><time>2026-04-26T07:31:00Z</time></trkpt><trkpt lat="45.656881928807486" lon="9.890152459504066"><ele>480.0</ele><time>2026-04-26T07:31:01Z</time></trkpt><trkpt lat="45.656944951239815" lon="9.890023816005163"><ele>480.0</ele><time>2026-04-26T07:31:02Z</time></trkpt><trkpt lat="45.65701366417895" lon="9.889903766321362"><ele>480.0</ele><time>2026-04-26T07:31:03Z</time></trkpt><trkpt lat="45.65707579706455" lon="9.889791712304776"><ele>480.0</ele><time>2026-04-26T07:31:04Z</time></trkpt><trkpt lat="45.65714547428971" lon="9.88970706695305"><ele>477.25</ele><time>2026-04-26T07:31:05Z</time></trkpt><trkpt lat="45.65722582746985" lon="9.889626861225162"><ele>474.5</ele><time>2026-04-26T07:31:06Z</time></trkpt><trkpt lat="45.657313873413564" lon="9.889554897207875"><ele>471.75</ele><time>2026-04-26T07:31:07Z</time></trkpt><trkpt lat="45.65742846810876" lon="9.889458549219551"><ele>469.0</ele><time>2026-04-26T07:31:08Z</time></trkpt><trkpt lat="45.657545532653764" lon="9.889353753239595"><ele>468.75</ele><time>2026-04-26T07:31:09Z</time></trkpt><trkpt lat="45.65765456462959" lon="9.889232727135958"><ele>468.5</ele><time>2026-04-26T07:31:09.999Z</time></trkpt><trkpt lat="45.65775052652179" lon="9.889121647297046"><ele>468.25</ele><time>2026-04-26T07:31:10.999Z</time></trkpt><trkpt lat="45.65783582660636" lon="9.889011854308098"><ele>468.0</ele><time>2026-04-26T07:31:11.999Z</time></trkpt><trkpt lat="45.65791140621252" lon="9.8888939675762"><ele>468.0</ele><time>2026-04-26T07:31:12.999Z</time></trkpt><trkpt lat="45.65798161753041" lon="9.888786191018507"><ele>467.99999999999994</ele><time>2026-04-26T07:31:13.999Z</time></trkpt><trkpt lat="45.658052593291785" lon="9.888678925996688"><ele>467.99999999999994</ele><time>2026-04-26T07:31:14.999Z</time></trkpt><trkpt lat="45.65813015490481" lon="9.888580216893612"><ele>468.0</ele><time>2026-04-26T07:31:15.999Z</time></trkpt><trkpt lat="45.65822563041812" lon="9.88846726178607"><ele>468.0</ele><time>2026-04-26T07:31:16.999Z</time></trkpt><trkpt lat="45.65835554616807" lon="9.888375586730067"><ele>469.5</ele><time>2026-04-26T07:31:17.999Z</time></trkpt><trkpt lat="45.65848788939802" lon="9.888324328102609"><ele>471.0</ele><time>2026-04-26T07:31:18.999Z</time></trkpt><trkpt lat="45.65863520892548" lon="9.888346543358649"><ele>472.5</ele><time>2026-04-26T07:31:19.999Z</time></trkpt><trkpt lat="45.65879257794617" lon="9.888379446279599"><ele>474.0</ele><time>2026-04-26T07:31:20.999Z</time></trkpt><trkpt lat="45.658940354459745" lon="9.88841007364589"><ele>474.0</ele><time>2026-04-26T07:31:21.999Z</time></trkpt><trkpt lat="45.659070577667144" lon="9.888400046151125"><ele>474.0</ele><time>2026-04-26T07:31:22.999Z</time></trkpt><trkpt lat="45.659197096469924" lon="9.888343715718758"><ele>474.0</ele><time>2026-04-26T07:31:23.999Z</time></trkpt><trkpt lat="45.659322851802514" lon="9.888250888979758"><ele>474.0</ele><time>2026-04-26T07:31:24.999Z</time></trkpt><trkpt lat="45.6594379775743" lon="9.888160691693543"><ele>472.25</ele><time>2026-04-26T07:31:25.999Z</time></trkpt><trkpt lat="45.65954977151391" lon="9.888099213739364"><ele>470.5</ele><time>2026-04-26T07:31:26.999Z</time></trkpt><trkpt lat="45.65965218752614" lon="9.888044414679609"><ele>468.75</ele><time>2026-04-26T07:31:27.999Z</time></trkpt><trkpt lat="45.65976554691954" lon="9.888024686611082"><ele>467.0</ele><time>2026-04-26T07:31:28.999Z</time></trkpt><trkpt lat="45.65990660959922" lon="9.88799088591967"><ele>467.0</ele><time>2026-04-26T07:31:29.999Z</time></trkpt><trkpt lat="45.66004454838553" lon="9.887906778743858"><ele>467.0</ele><time>2026-04-26T07:31:30.999Z</time></trkpt><trkpt lat="45.66019300952241" lon="9.887829522295224"><ele>467.0</ele><time>2026-04-26T07:31:31.999Z</time></trkpt><trkpt lat="45.660356680406174" lon="9.887771521113226"><ele>462.66666666666663</ele><time>2026-04-26T07:31:32.999Z</time></trkpt><trkpt lat="45.66053016402457" lon="9.887718764686133"><ele>458.33333333333337</ele><time>2026-04-26T07:31:33.999Z</time></trkpt><trkpt lat="45.660713296280825" lon="9.887676712251286"><ele>454.0</ele><time>2026-04-26T07:31:34.999Z</time></trkpt><trkpt lat="45.66088835508781" lon="9.887609433738023"><ele>463.6666666666667</ele><time>2026-04-26T07:31:35.999Z</time></trkpt><trkpt lat="45.66106749000221" lon="9.887561538199769"><ele>473.33333333333337</ele><time>2026-04-26T07:31:36.999Z</time></trkpt><trkpt lat="45.66124488427659" lon="9.887557027708317"><ele>483.0</ele><time>2026-04-26T07:31:37.999Z</time></trkpt><trkpt lat="45.6614129763757" lon="9.887536955802032"><ele>483.0</ele><time>2026-04-26T07:31:38.999Z</time></trkpt><trkpt lat="45.66159450400506" lon="9.887515240709185"><ele>483.0</ele><time>2026-04-26T07:31:39.999Z</time></trkpt><trkpt lat="45.66178668721681" lon="9.887466801053503"><ele>483.0</ele><time>2026-04-26T07:31:40.999Z</time></trkpt><trkpt lat="45.661956572909624" lon="9.887436939239524"><ele>483.5</ele><time>2026-04-26T07:31:41.999Z</time></trkpt><trkpt lat="45.66210075022319" lon="9.88739104874602"><ele>484.0</ele><time>2026-04-26T07:31:42.999Z</time></trkpt><trkpt lat="45.66223290851641" lon="9.887338539045968"><ele>484.5</ele><time>2026-04-26T07:31:43.999Z</time></trkpt><trkpt lat="45.66235653987023" lon="9.887288782783695"><ele>485.0</ele><time>2026-04-26T07:31:44.999Z</time></trkpt><trkpt lat="45.66247370052869" lon="9.88724934557538"><ele>485.0</ele><time>2026-04-26T07:31:45.999Z</time></trkpt><trkpt lat="45.66258423235623" lon="9.887248454308494"><ele>485.0</ele><time>2026-04-26T07:31:46.999Z</time></trkpt><trkpt lat="45.66270667292404" lon="9.887298085604389"><ele>485.0</ele><time>2026-04-26T07:31:47.999Z</time></trkpt><trkpt lat="45.662820350778794" lon="9.887361518942196"><ele>485.0</ele><time>2026-04-26T07:31:48.999Z</time></trkpt><trkpt lat="45.66290859942933" lon="9.887392060784679"><ele>484.0</ele><time>2026-04-26T07:31:49.999Z</time></trkpt><trkpt lat="45.6629852442131" lon="9.887353890241508"><ele>483.0</ele><time>2026-04-26T07:31:50.999Z</time></trkpt><trkpt lat="45.66307921528977" lon="9.887255974257481"><ele>482.0</ele><time>2026-04-26T07:31:51.999Z</time></trkpt><trkpt lat="45.663200296351235" lon="9.887153699237759"><ele>481.0</ele><time>2026-04-26T07:31:52.999Z</time></trkpt><trkpt lat="45.66333375857982" lon="9.887008720555373"><ele>481.0</ele><time>2026-04-26T07:31:53.999Z</time></trkpt><trkpt lat="45.663441624725664" lon="9.88681504777344"><ele>481.0</ele><time>2026-04-26T07:31:54.999Z</time></trkpt><trkpt lat="45.66355071948938" lon="9.886612707314665"><ele>481.0</ele><time>2026-04-26T07:31:55.999Z</time></trkpt><trkpt lat="45.663649689427345" lon="9.886405857939183"><ele>479.75</ele><time>2026-04-26T07:31:56.999Z</time></trkpt><trkpt lat="45.66373304360738" lon="9.886231941784168"><ele>478.5</ele><time>2026-04-26T07:31:57.999Z</time></trkpt><trkpt lat="45.663796036646566" lon="9.886065279610389"><ele>477.25</ele><time>2026-04-26T07:31:58.999Z</time></trkpt><trkpt lat="45.66384528020492" lon="9.885910711730633"><ele>476.0</ele><time>2026-04-26T07:31:59.999Z</time></trkpt><trkpt lat="45.6639224976134" lon="9.885819749429292"><ele>477.0</ele><time>2026-04-26T07:32:00.999Z</time></trkpt><trkpt lat="45.664035099184346" lon="9.885769309454693"><ele>478.0</ele><time>2026-04-26T07:32:01.999Z</time></trkpt><trkpt lat="45.66417901407166" lon="9.885671509903187"><ele>479.0</ele><time>2026-04-26T07:32:02.999Z</time></trkpt><trkpt lat="45.66431943493538" lon="9.885534796049354"><ele>480.0</ele><time>2026-04-26T07:32:03.999Z</time></trkpt><trkpt lat="45.664475514620925" lon="9.885412844486853"><ele>480.0</ele><time>2026-04-26T07:32:04.999Z</time></trkpt><trkpt lat="45.66463037047207" lon="9.885287033820525"><ele>480.0</ele><time>2026-04-26T07:32:05.999Z</time></trkpt><trkpt lat="45.66477174692478" lon="9.885173134939397"><ele>480.0</ele><time>2026-04-26T07:32:06.999Z</time></trkpt><trkpt lat="45.66489234167013" lon="9.88506930831193"><ele>484.75</ele><time>2026-04-26T07:32:07.999Z</time></trkpt><trkpt lat="45.6649986689625" lon="9.885007716039823"><ele>489.5</ele><time>2026-04-26T07:32:08.998Z</time></trkpt><trkpt lat="45.665104907926406" lon="9.88502292073267"><ele>494.25</ele><time>2026-04-26T07:32:09.998Z</time></trkpt><trkpt lat="45.66522639743186" lon="9.885025407875558"><ele>499.0</ele><time>2026-04-26T07:32:10.998Z</time></trkpt><trkpt lat="45.665330939290676" lon="9.884982981797103"><ele>499.0</ele><time>2026-04-26T07:32:11.998Z</time></trkpt><trkpt lat="45.66542357340676" lon="9.884923283590927"><ele>499.0</ele><time>2026-04-26T07:32:12.998Z</time></trkpt><trkpt lat="45.66551308471057" lon="9.88495549715059"><ele>499.0</ele><time>2026-04-26T07:32:13.998Z</time></trkpt><trkpt lat="45.66561006935129" lon="9.88499883392713"><ele>499.0</ele><time>2026-04-26T07:32:14.998Z</time></trkpt><trkpt lat="45.66569999193011" lon="9.885017203267791"><ele>499.0</ele><time>2026-04-26T07:32:15.998Z</time></trkpt><trkpt lat="45.66580231343166" lon="9.884949277236508"><ele>499.0</ele><time>2026-04-26T07:32:16.998Z</time></trkpt><trkpt lat="45.66592725418036" lon="9.884871510282402"><ele>499.0</ele><time>2026-04-26T07:32:17.998Z</time></trkpt><trkpt lat="45.66605739464294" lon="9.884872784153911"><ele>499.0</ele><time>2026-04-26T07:32:18.998Z</time></trkpt><trkpt lat="45.66619966289762" lon="9.88489151393535"><ele>499.0</ele><time>2026-04-26T07:32:19.998Z</time></trkpt><trkpt lat="45.66635125530878" lon="9.884835997168237"><ele>496.6666666666667</ele><time>2026-04-26T07:32:20.998Z</time></trkpt><trkpt lat="45.666527873030745" lon="9.88476527732957"><ele>494.33333333333337</ele><time>2026-04-26T07:32:21.998Z</time></trkpt><trkpt lat="45.66672759512003" lon="9.88473096613548"><ele>492.0</ele><time>2026-04-26T07:32:22.998Z</time></trkpt><trkpt lat="45.666932774802845" lon="9.884725747469874"><ele>494.66666666666663</ele><time>2026-04-26T07:32:23.998Z</time></trkpt><trkpt lat="45.66710785102975" lon="9.884689041771935"><ele>497.3333333333333</ele><time>2026-04-26T07:32:24.998Z</time></trkpt><trkpt lat="45.66725709134756" lon="9.884627972398809"><ele>500.0</ele><time>2026-04-26T07:32:25.998Z</time></trkpt><trkpt lat="45.667391313665775" lon="9.884647007351155"><ele>500.0</ele><time>2026-04-26T07:32:26.998Z</time></trkpt><trkpt lat="45.66748553298269" lon="9.884703198439345"><ele>500.0</ele><time>2026-04-26T07:32:27.998Z</time></trkpt><trkpt lat="45.66759782059411" lon="9.884771890712132"><ele>500.0</ele><time>2026-04-26T07:32:28.998Z</time></trkpt><trkpt lat="45.66769997126888" lon="9.884808400309412"><ele>500.0</ele><time>2026-04-26T07:32:29.998Z</time></trkpt><trkpt lat="45.66779599809285" lon="9.884791754039359"><ele>500.0</ele><time>2026-04-26T07:32:30.998Z</time></trkpt><trkpt lat="45.667909641536546" lon="9.884808919093626"><ele>499.0</ele><time>2026-04-26T07:32:31.998Z</time></trkpt><trkpt lat="45.6680167118879" lon="9.884791923798959"><ele>498.0</ele><time>2026-04-26T07:32:33Z</time></trkpt><trkpt lat="45.66813038963945" lon="9.884758139118542"><ele>497.0</ele><time>2026-04-26T07:32:34Z</time></trkpt><trkpt lat="45.668260187902916" lon="9.884699423470433"><ele>496.0</ele><time>2026-04-26T07:32:35Z</time></trkpt><trkpt lat="45.66838130034452" lon="9.884634914845911"><ele>496.0</ele><time>2026-04-26T07:32:36Z</time></trkpt><trkpt lat="45.6684825012012" lon="9.884573085918202"><ele>496.0</ele><time>2026-04-26T07:32:37Z</time></trkpt><trkpt lat="45.6685560554665" lon="9.884507181721089"><ele>496.0</ele><time>2026-04-26T07:32:38Z</time></trkpt><trkpt lat="45.668675378203865" lon="9.884550631033184"><ele>496.0</ele><time>2026-04-26T07:32:40Z</time></trkpt><trkpt lat="45.66875122970595" lon="9.88462402907585"><ele>496.0</ele><time>2026-04-26T07:32:41Z</time></trkpt><trkpt lat="45.66881527571396" lon="9.884660454064173"><ele>496.4</ele><time>2026-04-26T07:32:42Z</time></trkpt><trkpt lat="45.6688258667762" lon="9.88484524549951"><ele>496.8</ele><time>2026-04-26T07:32:44Z</time></trkpt><trkpt lat="45.668853275633936" lon="9.884957802136913"><ele>497.19999999999993</ele><time>2026-04-26T07:32:45Z</time></trkpt><trkpt lat="45.66888592093259" lon="9.885069777142736"><ele>497.59999999999997</ele><time>2026-04-26T07:32:46Z</time></trkpt><trkpt lat="45.66892197494056" lon="9.885186856744518"><ele>498.0</ele><time>2026-04-26T07:32:47Z</time></trkpt><trkpt lat="45.6689517737126" lon="9.88535128841523"><ele>496.59999999999997</ele><time>2026-04-26T07:32:48Z</time></trkpt><trkpt lat="45.66899933400941" lon="9.885475563111353"><ele>495.19999999999993</ele><time>2026-04-26T07:32:49Z</time></trkpt><trkpt lat="45.66902375203217" lon="9.885585578575288"><ele>493.8</ele><time>2026-04-26T07:32:50Z</time></trkpt><trkpt lat="45.66902590357732" lon="9.885722509125063"><ele>492.4</ele><time>2026-04-26T07:32:51Z</time></trkpt><trkpt lat="45.66903389749995" lon="9.885853235239166"><ele>491.0</ele><time>2026-04-26T07:32:52Z</time></trkpt><trkpt lat="45.66905666977758" lon="9.885984989617826"><ele>490.0</ele><time>2026-04-26T07:32:53Z</time></trkpt><trkpt lat="45.66909711516813" lon="9.886118427098426"><ele>489.0</ele><time>2026-04-26T07:32:54Z</time></trkpt><trkpt lat="45.6691587706803" lon="9.886274629187975"><ele>488.0</ele><time>2026-04-26T07:32:55Z</time></trkpt><trkpt lat="45.66919791632355" lon="9.886408749081113"><ele>487.0</ele><time>2026-04-26T07:32:56Z</time></trkpt><trkpt lat="45.66923428241044" lon="9.88649928312769"><ele>486.0</ele><time>2026-04-26T07:32:57Z</time></trkpt><trkpt lat="45.669276589096725" lon="9.886580529231"><ele>486.0</ele><time>2026-04-26T07:32:58Z</time></trkpt><trkpt lat="45.66928372303585" lon="9.886735433654458"><ele>486.0</ele><time>2026-04-26T07:33:00Z</time></trkpt><trkpt lat="45.66929227541672" lon="9.886849012660136"><ele>486.0</ele><time>2026-04-26T07:33:01Z</time></trkpt><trkpt lat="45.66931291001796" lon="9.886959581223186"><ele>486.0</ele><time>2026-04-26T07:33:02Z</time></trkpt><trkpt lat="45.669349395028824" lon="9.887124557366814"><ele>486.0</ele><time>2026-04-26T07:33:04Z</time></trkpt><trkpt lat="45.66938386567671" lon="9.88725091756266"><ele>489.8</ele><time>2026-04-26T07:33:06Z</time></trkpt><trkpt lat="45.6694631459952" lon="9.887332031373017"><ele>493.6</ele><time>2026-04-26T07:33:08Z</time></trkpt><trkpt lat="45.66953802828465" lon="9.887471313498647"><ele>497.4</ele><time>2026-04-26T07:33:10Z</time></trkpt><trkpt lat="45.669578128172205" lon="9.887567127650376"><ele>501.2</ele><time>2026-04-26T07:33:11Z</time></trkpt><trkpt lat="45.669608553336175" lon="9.887676488428495"><ele>505.0</ele><time>2026-04-26T07:33:12Z</time></trkpt><trkpt lat="45.669651124883735" lon="9.887792278279214"><ele>505.6</ele><time>2026-04-26T07:33:13Z</time></trkpt><trkpt lat="45.669702467094446" lon="9.887888656593182"><ele>506.2</ele><time>2026-04-26T07:33:13.999Z</time></trkpt><trkpt lat="45.66974265502516" lon="9.887971283722843"><ele>506.79999999999995</ele><time>2026-04-26T07:33:14.999Z</time></trkpt><trkpt lat="45.66979605896092" lon="9.888104305294986"><ele>507.4</ele><time>2026-04-26T07:33:16.999Z</time></trkpt><trkpt lat="45.669858104343504" lon="9.888238255861985"><ele>508.0</ele><time>2026-04-26T07:33:19.999Z</time></trkpt><trkpt lat="45.669923150341646" lon="9.888366527206378"><ele>508.5</ele><time>2026-04-26T07:33:21.999Z</time></trkpt><trkpt lat="45.6700391769379" lon="9.888466962612279"><ele>509.0</ele><time>2026-04-26T07:33:23.999Z</time></trkpt><trkpt lat="45.670100051943955" lon="9.888497361116341"><ele>509.5</ele><time>2026-04-26T07:33:24.999Z</time></trkpt><trkpt lat="45.67013617976949" lon="9.888652678620796"><ele>510.0</ele><time>2026-04-26T07:33:26.999Z</time></trkpt><trkpt lat="45.67022205118797" lon="9.888896508301444"><ele>510.5</ele><time>2026-04-26T07:33:28.999Z</time></trkpt><trkpt lat="45.67027576760848" lon="9.888991150888712"><ele>511.0</ele><time>2026-04-26T07:33:29.999Z</time></trkpt><trkpt lat="45.67035383647455" lon="9.889030103233152"><ele>511.5</ele><time>2026-04-26T07:33:30.999Z</time></trkpt><trkpt lat="45.670421772698504" lon="9.889050128739834"><ele>512.0</ele><time>2026-04-26T07:33:31.999Z</time></trkpt><trkpt lat="45.67050275439979" lon="9.889134706215316"><ele>512.5</ele><time>2026-04-26T07:33:33.999Z</time></trkpt><trkpt lat="45.67057971184556" lon="9.889203324104903"><ele>513.0</ele><time>2026-04-26T07:33:34.999Z</time></trkpt><trkpt lat="45.67064062767171" lon="9.889276588250766"><ele>516.5</ele><time>2026-04-26T07:33:36.999Z</time></trkpt><trkpt lat="45.67070685619898" lon="9.889293761726192"><ele>520.0</ele><time>2026-04-26T07:33:38.999Z</time></trkpt><trkpt lat="45.670744527484274" lon="9.889380190778207"><ele>523.5</ele><time>2026-04-26T07:33:40.999Z</time></trkpt><trkpt lat="45.67079952658236" lon="9.889443775060265"><ele>527.0</ele><time>2026-04-26T07:33:41.999Z</time></trkpt><trkpt lat="45.67088699836506" lon="9.889479376485284"><ele>530.5</ele><time>2026-04-26T07:33:42.999Z</time></trkpt><trkpt lat="45.67098128063095" lon="9.88960698427334"><ele>534.0</ele><time>2026-04-26T07:33:44.999Z</time></trkpt><trkpt lat="45.67105335892322" lon="9.889669492891867"><ele>534.0000000000001</ele><time>2026-04-26T07:33:46.999Z</time></trkpt><trkpt lat="45.67102973182966" lon="9.889766500306832"><ele>534.0</ele><time>2026-04-26T07:33:48.999Z</time></trkpt><trkpt lat="45.671026260175715" lon="9.88986532922555"><ele>534.0</ele><time>2026-04-26T07:33:49.999Z</time></trkpt><trkpt lat="45.67099948234033" lon="9.889974922946625"><ele>534.0</ele><time>2026-04-26T07:33:50.999Z</time></trkpt><trkpt lat="45.67099775406156" lon="9.890067513604404"><ele>534.0</ele><time>2026-04-26T07:33:51.999Z</time></trkpt><trkpt lat="45.67101387644163" lon="9.890155292125039"><ele>534.0000000000001</ele><time>2026-04-26T07:33:52.999Z</time></trkpt><trkpt lat="45.67108181102919" lon="9.890227739136492"><ele>534.0</ele><time>2026-04-26T07:33:53.999Z</time></trkpt><trkpt lat="45.67113163434358" lon="9.890302014669496"><ele>528.6666666666666</ele><time>2026-04-26T07:33:54.999Z</time></trkpt><trkpt lat="45.67119164450701" lon="9.890333910896377"><ele>523.3333333333334</ele><time>2026-04-26T07:33:55.999Z</time></trkpt><trkpt lat="45.671248333036985" lon="9.890377935160028"><ele>518.0</ele><time>2026-04-26T07:33:56.999Z</time></trkpt><trkpt lat="45.67131167615345" lon="9.890428684386979"><ele>512.6666666666667</ele><time>2026-04-26T07:33:57.999Z</time></trkpt><trkpt lat="45.671385287503" lon="9.890520329510936"><ele>507.33333333333337</ele><time>2026-04-26T07:33:59.999Z</time></trkpt><trkpt lat="45.67142255305424" lon="9.890657940799638"><ele>502.0</ele><time>2026-04-26T07:34:01.999Z</time></trkpt><trkpt lat="45.67143435182076" lon="9.890790873391222"><ele>504.6</ele><time>2026-04-26T07:34:03.999Z</time></trkpt><trkpt lat="45.67141045942241" lon="9.890975168221063"><ele>507.20000000000005</ele><time>2026-04-26T07:34:05.999Z</time></trkpt><trkpt lat="45.67142700177117" lon="9.891126101324756"><ele>509.8</ele><time>2026-04-26T07:34:07.999Z</time></trkpt><trkpt lat="45.67145401462813" lon="9.891262788004552"><ele>512.4</ele><time>2026-04-26T07:34:09.999Z</time></trkpt><trkpt lat="45.67150982008151" lon="9.891340685666542"><ele>515.0</ele><time>2026-04-26T07:34:10.999Z</time></trkpt><trkpt lat="45.67157846544958" lon="9.891421239940179"><ele>515.0</ele><time>2026-04-26T07:34:11.999Z</time></trkpt><trkpt lat="45.671653316642534" lon="9.89150217453957"><ele>515.0</ele><time>2026-04-26T07:34:12.999Z</time></trkpt><trkpt lat="45.671728864654426" lon="9.891577859696874"><ele>515.0</ele><time>2026-04-26T07:34:13.998Z</time></trkpt><trkpt lat="45.67179594372338" lon="9.891617102201936"><ele>515.0</ele><time>2026-04-26T07:34:14.998Z</time></trkpt><trkpt lat="45.671842434683" lon="9.89168950370052"><ele>515.0</ele><time>2026-04-26T07:34:15.998Z</time></trkpt><trkpt lat="45.67188615666909" lon="9.891762942341591"><ele>515.0</ele><time>2026-04-26T07:34:16.998Z</time></trkpt><trkpt lat="45.67202589351426" lon="9.891872365705616"><ele>511.6</ele><time>2026-04-26T07:34:18.998Z</time></trkpt><trkpt lat="45.67212772401381" lon="9.891956140363382"><ele>508.2</ele><time>2026-04-26T07:34:19.998Z</time></trkpt><trkpt lat="45.67221467942565" lon="9.892070275522013"><ele>504.79999999999995</ele><time>2026-04-26T07:34:20.998Z</time></trkpt><trkpt lat="45.67228631583192" lon="9.892134761408462"><ele>501.4</ele><time>2026-04-26T07:34:21.998Z</time></trkpt><trkpt lat="45.67235748530239" lon="9.892179969187513"><ele>498.0</ele><time>2026-04-26T07:34:22.998Z</time></trkpt><trkpt lat="45.67243206616193" lon="9.892197170202625"><ele>498.0</ele><time>2026-04-26T07:34:23.998Z</time></trkpt><trkpt lat="45.67253899708985" lon="9.892237745771558"><ele>497.99999999999994</ele><time>2026-04-26T07:34:25.998Z</time></trkpt><trkpt lat="45.672611783672394" lon="9.892335712734448"><ele>497.99999999999994</ele><time>2026-04-26T07:34:27.998Z</time></trkpt><trkpt lat="45.672669163869486" lon="9.892417301535836"><ele>498.0</ele><time>2026-04-26T07:34:29.998Z</time></trkpt><trkpt lat="45.6727013096842" lon="9.892545923080364"><ele>498.0</ele><time>2026-04-26T07:34:31.998Z</time></trkpt><trkpt lat="45.6727944000911" lon="9.892634490345234"><ele>501.0</ele><time>2026-04-26T07:34:34.998Z</time></trkpt><trkpt lat="45.6728633686728" lon="9.892747557732712"><ele>503.99999999999994</ele><time>2026-04-26T07:34:36.998Z</time></trkpt><trkpt lat="45.672938843399045" lon="9.892876925520564"><ele>506.99999999999994</ele><time>2026-04-26T07:34:39Z</time></trkpt><trkpt lat="45.67301590582548" lon="9.893010237027642"><ele>510.0</ele><time>2026-04-26T07:34:41Z</time></trkpt><trkpt lat="45.67307350387789" lon="9.893085533389929"><ele>513.0</ele><time>2026-04-26T07:34:42Z</time></trkpt><trkpt lat="45.67313875808551" lon="9.893160946340592"><ele>513.0</ele><time>2026-04-26T07:34:44Z</time></trkpt><trkpt lat="45.673231319486405" lon="9.89317792352525"><ele>513.0</ele><time>2026-04-26T07:34:46Z</time></trkpt><trkpt lat="45.67327294697367" lon="9.893249463456206"><ele>513.0</ele><time>2026-04-26T07:34:47Z</time></trkpt><trkpt lat="45.67332465470213" lon="9.893327374892086"><ele>513.0</ele><time>2026-04-26T07:34:48Z</time></trkpt><trkpt lat="45.67337182128185" lon="9.89340223266938"><ele>513.0</ele><time>2026-04-26T07:34:49Z</time></trkpt><trkpt lat="45.67339043214361" lon="9.893495465788932"><ele>513.0</ele><time>2026-04-26T07:34:50Z</time></trkpt><trkpt lat="45.67341943330177" lon="9.893629470174435"><ele>511.5</ele><time>2026-04-26T07:34:51Z</time></trkpt><trkpt lat="45.67344458539259" lon="9.89375098037704"><ele>510.0</ele><time>2026-04-26T07:34:52Z</time></trkpt><trkpt lat="45.67347377147577" lon="9.893833649877013"><ele>508.5</ele><time>2026-04-26T07:34:53Z</time></trkpt><trkpt lat="45.67350648335376" lon="9.89391579122289"><ele>507.0</ele><time>2026-04-26T07:34:54Z</time></trkpt><trkpt lat="45.67352540314276" lon="9.89406276456825"><ele>505.5</ele><time>2026-04-26T07:34:56Z</time></trkpt><trkpt lat="45.673527653264465" lon="9.894201299553266"><ele>504.0</ele><time>2026-04-26T07:34:58Z</time></trkpt><trkpt lat="45.673542188556496" lon="9.894363739171814"><ele>502.3333333333333</ele><time>2026-04-26T07:35:00Z</time></trkpt><trkpt lat="45.67358814013489" lon="9.894441497075722"><ele>500.66666666666663</ele><time>2026-04-26T07:35:02Z</time></trkpt><trkpt lat="45.673612510878854" lon="9.894592755229477"><ele>499.0</ele><time>2026-04-26T07:35:05Z</time></trkpt><trkpt lat="45.67363651864873" lon="9.894722651516702"><ele>497.3333333333333</ele><time>2026-04-26T07:35:06Z</time></trkpt><trkpt lat="45.6736748975648" lon="9.894847038664524"><ele>495.66666666666663</ele><time>2026-04-26T07:35:07Z</time></trkpt><trkpt lat="45.673703630466875" lon="9.89495325156751"><ele>494.0</ele><time>2026-04-26T07:35:08Z</time></trkpt><trkpt lat="45.673740434322404" lon="9.895045491128247"><ele>499.3333333333333</ele><time>2026-04-26T07:35:09Z</time></trkpt><trkpt lat="45.67377806634986" lon="9.895141294249354"><ele>504.66666666666663</ele><time>2026-04-26T07:35:10Z</time></trkpt><trkpt lat="45.6738385469301" lon="9.895237365164018"><ele>510.0</ele><time>2026-04-26T07:35:11Z</time></trkpt><trkpt lat="45.673885352373645" lon="9.895339931038343"><ele>515.3333333333334</ele><time>2026-04-26T07:35:12Z</time></trkpt><trkpt lat="45.673917171133574" lon="9.89547433884869"><ele>520.6666666666667</ele><time>2026-04-26T07:35:13Z</time></trkpt><trkpt lat="45.67394382208411" lon="9.895593229800768"><ele>526.0</ele><time>2026-04-26T07:35:14Z</time></trkpt><trkpt lat="45.67397332075683" lon="9.895680276383434"><ele>526.0</ele><time>2026-04-26T07:35:15Z</time></trkpt><trkpt lat="45.674005607475664" lon="9.895773163033095"><ele>526.0</ele><time>2026-04-26T07:35:16Z</time></trkpt><trkpt lat="45.67403912623992" lon="9.895871140391485"><ele>526.0</ele><time>2026-04-26T07:35:17Z</time></trkpt><trkpt lat="45.6740713739974" lon="9.895973548027797"><ele>526.0</ele><time>2026-04-26T07:35:18Z</time></trkpt><trkpt lat="45.674097776028006" lon="9.896089774992857"><ele>526.0</ele><time>2026-04-26T07:35:19Z</time></trkpt><trkpt lat="45.674128856895244" lon="9.896197018945378"><ele>526.0</ele><time>2026-04-26T07:35:20Z</time></trkpt><trkpt lat="45.67416309157919" lon="9.896301133755447"><ele>523.8</ele><time>2026-04-26T07:35:21Z</time></trkpt><trkpt lat="45.67422522617694" lon="9.896434585778483"><ele>521.6</ele><time>2026-04-26T07:35:22.999Z</time></trkpt><trkpt lat="45.6742754823869" lon="9.896588715261865"><ele>519.4</ele><time>2026-04-26T07:35:24.999Z</time></trkpt><trkpt lat="45.67430945607068" lon="9.896693384900013"><ele>517.2</ele><time>2026-04-26T07:35:25.999Z</time></trkpt><trkpt lat="45.67436127579636" lon="9.896818477028704"><ele>515.0</ele><time>2026-04-26T07:35:27.999Z</time></trkpt><trkpt lat="45.67440511011936" lon="9.896972686990228"><ele>515.0</ele><time>2026-04-26T07:35:29.999Z</time></trkpt><trkpt lat="45.67443834050545" lon="9.897110843592198"><ele>515.0</ele><time>2026-04-26T07:35:31.999Z</time></trkpt><trkpt lat="45.67445959359922" lon="9.897231616081609"><ele>515.0</ele><time>2026-04-26T07:35:33.999Z</time></trkpt><trkpt lat="45.67445477931351" lon="9.897369027083133"><ele>515.0</ele><time>2026-04-26T07:35:35.999Z</time></trkpt><trkpt lat="45.674450864166694" lon="9.897508029322296"><ele>515.0</ele><time>2026-04-26T07:35:37.999Z</time></trkpt><trkpt lat="45.67448840471446" lon="9.897593597945512"><ele>516.4</ele><time>2026-04-26T07:35:38.999Z</time></trkpt><trkpt lat="45.67450803060991" lon="9.897764827213276"><ele>517.8</ele><time>2026-04-26T07:35:40.999Z</time></trkpt><trkpt lat="45.674526865829165" lon="9.897854739771098"><ele>519.2</ele><time>2026-04-26T07:35:41.999Z</time></trkpt><trkpt lat="45.67459435856391" lon="9.898010113165792"><ele>520.6</ele><time>2026-04-26T07:35:43.999Z</time></trkpt><trkpt lat="45.67463232716565" lon="9.898156215854305"><ele>522.0</ele><time>2026-04-26T07:35:45.999Z</time></trkpt><trkpt lat="45.674644042737654" lon="9.89824784285842"><ele>522.0</ele><time>2026-04-26T07:35:46.999Z</time></trkpt><trkpt lat="45.674660141477055" lon="9.898362151690748"><ele>522.0</ele><time>2026-04-26T07:35:47.999Z</time></trkpt><trkpt lat="45.674667282439835" lon="9.898483744722105"><ele>522.0</ele><time>2026-04-26T07:35:48.999Z</time></trkpt><trkpt lat="45.67467433709623" lon="9.898668439629553"><ele>522.0</ele><time>2026-04-26T07:35:50.999Z</time></trkpt><trkpt lat="45.67468431434461" lon="9.898765120497945"><ele>522.0</ele><time>2026-04-26T07:35:51.999Z</time></trkpt><trkpt lat="45.67470233740107" lon="9.898852481253357"><ele>522.0</ele><time>2026-04-26T07:35:52.999Z</time></trkpt><trkpt lat="45.67473115891693" lon="9.898992949157392"><ele>521.8000000000001</ele><time>2026-04-26T07:35:54.999Z</time></trkpt><trkpt lat="45.674749099167265" lon="9.89912457899353"><ele>521.6</ele><time>2026-04-26T07:35:56.999Z</time></trkpt><trkpt lat="45.6747948134885" lon="9.899238946176363"><ele>521.4000000000001</ele><time>2026-04-26T07:35:58.999Z</time></trkpt><trkpt lat="45.674903133938486" lon="9.899342556565317"><ele>521.2</ele><time>2026-04-26T07:36:00.999Z</time></trkpt><trkpt lat="45.674972445548825" lon="9.89941183847741"><ele>521.0</ele><time>2026-04-26T07:36:01.999Z</time></trkpt><trkpt lat="45.67503526119148" lon="9.899494181067082"><ele>521.0</ele><time>2026-04-26T07:36:02.999Z</time></trkpt><trkpt lat="45.67509087329313" lon="9.899614061185009"><ele>521.0</ele><time>2026-04-26T07:36:03.999Z</time></trkpt><trkpt lat="45.675152045738805" lon="9.899759573218825"><ele>521.0</ele><time>2026-04-26T07:36:04.999Z</time></trkpt><trkpt lat="45.675211558117155" lon="9.899899627230738"><ele>521.0</ele><time>2026-04-26T07:36:05.999Z</time></trkpt><trkpt lat="45.675247559535954" lon="9.90001105123766"><ele>521.0</ele><time>2026-04-26T07:36:06.999Z</time></trkpt><trkpt lat="45.67527342732581" lon="9.90012079864969"><ele>521.5</ele><time>2026-04-26T07:36:07.999Z</time></trkpt><trkpt lat="45.67531488179424" lon="9.900188892619012"><ele>522.0</ele><time>2026-04-26T07:36:08.999Z</time></trkpt><trkpt lat="45.67533757491584" lon="9.90032684778828"><ele>522.5</ele><time>2026-04-26T07:36:10.999Z</time></trkpt><trkpt lat="45.67535573600168" lon="9.900433374745512"><ele>523.0</ele><time>2026-04-26T07:36:11.999Z</time></trkpt><trkpt lat="45.67538769971829" lon="9.90061455335456"><ele>523.5</ele><time>2026-04-26T07:36:13.999Z</time></trkpt><trkpt lat="45.67540437522574" lon="9.900724932970544"><ele>524.0</ele><time>2026-04-26T07:36:14.999Z</time></trkpt><trkpt lat="45.675433841525816" lon="9.900813549598544"><ele>525.0</ele><time>2026-04-26T07:36:15.999Z</time></trkpt><trkpt lat="45.67553934553188" lon="9.900927838224325"><ele>526.0</ele><time>2026-04-26T07:36:17.999Z</time></trkpt><trkpt lat="45.675628230917965" lon="9.901016504585435"><ele>527.0</ele><time>2026-04-26T07:36:18.999Z</time></trkpt><trkpt lat="45.67571724177065" lon="9.901147721490474"><ele>528.0</ele><time>2026-04-26T07:36:19.999Z</time></trkpt><trkpt lat="45.675797591790875" lon="9.901303125720506"><ele>528.0</ele><time>2026-04-26T07:36:20.999Z</time></trkpt><trkpt lat="45.675845038822054" lon="9.901465557783812"><ele>528.0</ele><time>2026-04-26T07:36:21.999Z</time></trkpt><trkpt lat="45.67590578424446" lon="9.901598474471458"><ele>528.0</ele><time>2026-04-26T07:36:22.999Z</time></trkpt><trkpt lat="45.67597207136174" lon="9.901709724148986"><ele>528.0</ele><time>2026-04-26T07:36:23.998Z</time></trkpt><trkpt lat="45.676018461085924" lon="9.901823488384624"><ele>528.0</ele><time>2026-04-26T07:36:24.998Z</time></trkpt><trkpt lat="45.67605604350612" lon="9.901922901719114"><ele>527.1999999999999</ele><time>2026-04-26T07:36:25.998Z</time></trkpt><trkpt lat="45.67607722035604" lon="9.902015074835763"><ele>526.4</ele><time>2026-04-26T07:36:26.998Z</time></trkpt><trkpt lat="45.67606139766272" lon="9.902124438601053"><ele>525.5999999999999</ele><time>2026-04-26T07:36:27.998Z</time></trkpt><trkpt lat="45.676060650785274" lon="9.9022242353652"><ele>524.8</ele><time>2026-04-26T07:36:28.998Z</time></trkpt><trkpt lat="45.67611504177284" lon="9.90241679709507"><ele>524.0</ele><time>2026-04-26T07:36:30.998Z</time></trkpt><trkpt lat="45.67619201876285" lon="9.902548201324626"><ele>527.25</ele><time>2026-04-26T07:36:31.998Z</time></trkpt><trkpt lat="45.67627383572657" lon="9.90269051095276"><ele>530.5</ele><time>2026-04-26T07:36:32.998Z</time></trkpt><trkpt lat="45.67635373891775" lon="9.902817899638588"><ele>533.75</ele><time>2026-04-26T07:36:33.998Z</time></trkpt><trkpt lat="45.67643246138746" lon="9.90293244478255"><ele>537.0</ele><time>2026-04-26T07:36:34.998Z</time></trkpt><trkpt lat="45.6765098211925" lon="9.903042418393596"><ele>537.0</ele><time>2026-04-26T07:36:35.998Z</time></trkpt><trkpt lat="45.67657496569992" lon="9.903140346129858"><ele>537.0</ele><time>2026-04-26T07:36:36.998Z</time></trkpt><trkpt lat="45.67662401632063" lon="9.903209931212166"><ele>537.0</ele><time>2026-04-26T07:36:37.998Z</time></trkpt><trkpt lat="45.676708317906645" lon="9.903204506293685"><ele>537.0</ele><time>2026-04-26T07:36:39.998Z</time></trkpt><trkpt lat="45.67683058746999" lon="9.90327975172128"><ele>537.0</ele><time>2026-04-26T07:36:41.998Z</time></trkpt><trkpt lat="45.67690043768567" lon="9.903319022899948"><ele>535.0</ele><time>2026-04-26T07:36:42.998Z</time></trkpt><trkpt lat="45.67698313405092" lon="9.903369936424093"><ele>533.0</ele><time>2026-04-26T07:36:43.998Z</time></trkpt><trkpt lat="45.67705031620069" lon="9.903424020117587"><ele>531.0</ele><time>2026-04-26T07:36:45Z</time></trkpt><trkpt lat="45.67710877259797" lon="9.903466491540856"><ele>529.0</ele><time>2026-04-26T07:36:46Z</time></trkpt><trkpt lat="45.67722148172286" lon="9.90353519757605"><ele>527.0</ele><time>2026-04-26T07:36:48Z</time></trkpt><trkpt lat="45.67727568769005" lon="9.903586850802167"><ele>525.0</ele><time>2026-04-26T07:36:49Z</time></trkpt><trkpt lat="45.67733745016768" lon="9.903623153209937"><ele>526.3333333333334</ele><time>2026-04-26T07:36:50Z</time></trkpt><trkpt lat="45.677402555645905" lon="9.903683718871877"><ele>527.6666666666666</ele><time>2026-04-26T07:36:51Z</time></trkpt><trkpt lat="45.677466191748735" lon="9.90375098113978"><ele>529.0</ele><time>2026-04-26T07:36:52Z</time></trkpt><trkpt lat="45.67757635740765" lon="9.903848409414495"><ele>530.3333333333333</ele><time>2026-04-26T07:36:54Z</time></trkpt><trkpt lat="45.6776243878733" lon="9.903919565354487"><ele>531.6666666666666</ele><time>2026-04-26T07:36:55Z</time></trkpt><trkpt lat="45.6777005757048" lon="9.903973221733004"><ele>533.0</ele><time>2026-04-26T07:36:56Z</time></trkpt><trkpt lat="45.67777486941865" lon="9.904033328107932"><ele>533.0</ele><time>2026-04-26T07:36:57Z</time></trkpt><trkpt lat="45.6778355296986" lon="9.904085850071183"><ele>533.0</ele><time>2026-04-26T07:36:58Z</time></trkpt><trkpt lat="45.67789034034536" lon="9.904137058495067"><ele>533.0</ele><time>2026-04-26T07:36:59Z</time></trkpt><trkpt lat="45.67800066650536" lon="9.90425368295033"><ele>533.0</ele><time>2026-04-26T07:37:01Z</time></trkpt><trkpt lat="45.67809075818541" lon="9.904341666495364"><ele>533.0</ele><time>2026-04-26T07:37:03Z</time></trkpt><trkpt lat="45.67819209890309" lon="9.904401920393232"><ele>539.0</ele><time>2026-04-26T07:37:05Z</time></trkpt><trkpt lat="45.67829223036245" lon="9.904443316811502"><ele>545.0</ele><time>2026-04-26T07:37:07Z</time></trkpt><trkpt lat="45.67834742629186" lon="9.904534269946705"><ele>551.0</ele><time>2026-04-26T07:37:09Z</time></trkpt><trkpt lat="45.678368144630504" lon="9.904667992307822"><ele>557.0</ele><time>2026-04-26T07:37:11Z</time></trkpt><trkpt lat="45.678437781384034" lon="9.904676432428133"><ele>563.0</ele><time>2026-04-26T07:37:14Z</time></trkpt><trkpt lat="45.67853523298427" lon="9.904637941313437"><ele>560.4</ele><time>2026-04-26T07:37:16Z</time></trkpt><trkpt lat="45.678624773523204" lon="9.904644304500227"><ele>557.8</ele><time>2026-04-26T07:37:17Z</time></trkpt><trkpt lat="45.67877175175079" lon="9.904693929741502"><ele>555.2</ele><time>2026-04-26T07:37:19Z</time></trkpt><trkpt lat="45.678842998452694" lon="9.904733905621093"><ele>552.6</ele><time>2026-04-26T07:37:20Z</time></trkpt><trkpt lat="45.678932945441176" lon="9.904746589189351"><ele>550.0</ele><time>2026-04-26T07:37:21Z</time></trkpt><trkpt lat="45.679014300828534" lon="9.904763330781185"><ele>550.0</ele><time>2026-04-26T07:37:22Z</time></trkpt><trkpt lat="45.67908095772958" lon="9.904801677396565"><ele>550.0</ele><time>2026-04-26T07:37:23Z</time></trkpt><trkpt lat="45.67917150794521" lon="9.904851146971566"><ele>550.0</ele><time>2026-04-26T07:37:25Z</time></trkpt><trkpt lat="45.67928993651117" lon="9.904905472970984"><ele>550.0</ele><time>2026-04-26T07:37:28.999Z</time></trkpt><trkpt lat="45.67938513576457" lon="9.904885546908975"><ele>550.0</ele><time>2026-04-26T07:37:31.999Z</time></trkpt><trkpt lat="45.67948924594015" lon="9.904790008703763"><ele>550.5</ele><time>2026-04-26T07:37:33.999Z</time></trkpt><trkpt lat="45.67956266556314" lon="9.904768038016352"><ele>551.0</ele><time>2026-04-26T07:37:34.999Z</time></trkpt><trkpt lat="45.67962719099773" lon="9.904752225727547"><ele>551.5</ele><time>2026-04-26T07:37:35.999Z</time></trkpt><trkpt lat="45.679691485835825" lon="9.904733107472909"><ele>552.0</ele><time>2026-04-26T07:37:36.999Z</time></trkpt><trkpt lat="45.679753573567744" lon="9.904696399067317"><ele>552.5</ele><time>2026-04-26T07:37:37.999Z</time></trkpt><trkpt lat="45.67981515175767" lon="9.904677289242475"><ele>553.0</ele><time>2026-04-26T07:37:38.999Z</time></trkpt><trkpt lat="45.679932334287585" lon="9.904639920245545"><ele>553.0</ele><time>2026-04-26T07:37:40.999Z</time></trkpt><trkpt lat="45.6800423981686" lon="9.904676240125509"><ele>553.0</ele><time>2026-04-26T07:37:42.999Z</time></trkpt><trkpt lat="45.68012270604779" lon="9.90469590984431"><ele>553.0</ele><time>2026-04-26T07:37:44.999Z</time></trkpt><trkpt lat="45.68018794850382" lon="9.904577292254297"><ele>553.0</ele><time>2026-04-26T07:37:47.999Z</time></trkpt><trkpt lat="45.68024439042022" lon="9.904518406275395"><ele>553.0</ele><time>2026-04-26T07:37:48.999Z</time></trkpt><trkpt lat="45.680321947105874" lon="9.904397459148413"><ele>553.6666666666667</ele><time>2026-04-26T07:37:50.999Z</time></trkpt><trkpt lat="45.68039254612855" lon="9.904349524020208"><ele>554.3333333333334</ele><time>2026-04-26T07:37:51.999Z</time></trkpt><trkpt lat="45.680458933913805" lon="9.904320304536062"><ele>555.0</ele><time>2026-04-26T07:37:52.999Z</time></trkpt><trkpt lat="45.68057147815026" lon="9.904284347406419"><ele>555.6666666666666</ele><time>2026-04-26T07:37:54.999Z</time></trkpt><trkpt lat="45.68063822148003" lon="9.90429678958535"><ele>556.3333333333333</ele><time>2026-04-26T07:37:55.999Z</time></trkpt><trkpt lat="45.6807265828914" lon="9.904323930384347"><ele>557.0</ele><time>2026-04-26T07:37:56.999Z</time></trkpt><trkpt lat="45.68082432986686" lon="9.90430783510255"><ele>554.1666666666666</ele><time>2026-04-26T07:37:58.999Z</time></trkpt><trkpt lat="45.68085712982273" lon="9.904221909226884"><ele>551.3333333333333</ele><time>2026-04-26T07:37:59.999Z</time></trkpt><trkpt lat="45.68091986997495" lon="9.904132243412896"><ele>548.5</ele><time>2026-04-26T07:38:00.999Z</time></trkpt><trkpt lat="45.68099400210978" lon="9.904065142730596"><ele>545.6666666666666</ele><time>2026-04-26T07:38:01.999Z</time></trkpt><trkpt lat="45.68106300350445" lon="9.90401320823852"><ele>542.8333333333334</ele><time>2026-04-26T07:38:02.999Z</time></trkpt><trkpt lat="45.68112566090414" lon="9.9039453421212"><ele>540.0</ele><time>2026-04-26T07:38:03.999Z</time></trkpt><trkpt lat="45.68119007944868" lon="9.90387427644841"><ele>540.0</ele><time>2026-04-26T07:38:04.999Z</time></trkpt><trkpt lat="45.68126575304297" lon="9.903826071279275"><ele>540.0</ele><time>2026-04-26T07:38:05.999Z</time></trkpt><trkpt lat="45.68135628339996" lon="9.903764866143684"><ele>540.0</ele><time>2026-04-26T07:38:06.999Z</time></trkpt><trkpt lat="45.6814212273341" lon="9.90372040628126"><ele>540.0</ele><time>2026-04-26T07:38:07.999Z</time></trkpt><trkpt lat="45.681474948434015" lon="9.903668921673987"><ele>540.0</ele><time>2026-04-26T07:38:08.999Z</time></trkpt><trkpt lat="45.68153464833191" lon="9.90360663797705"><ele>540.0</ele><time>2026-04-26T07:38:09.999Z</time></trkpt><trkpt lat="45.681607072608514" lon="9.903557138663865"><ele>540.0</ele><time>2026-04-26T07:38:10.999Z</time></trkpt><trkpt lat="45.681683642682735" lon="9.903479562295809"><ele>540.0</ele><time>2026-04-26T07:38:12.999Z</time></trkpt><trkpt lat="45.681818207067295" lon="9.903385866187213"><ele>540.0</ele><time>2026-04-26T07:38:14.999Z</time></trkpt><trkpt lat="45.68191446428255" lon="9.903311332500579"><ele>540.0</ele><time>2026-04-26T07:38:15.999Z</time></trkpt><trkpt lat="45.68206686366614" lon="9.903363010735912"><ele>535.1666666666666</ele><time>2026-04-26T07:38:16.999Z</time></trkpt><trkpt lat="45.682149673638165" lon="9.903310419476341"><ele>530.3333333333334</ele><time>2026-04-26T07:38:17.999Z</time></trkpt><trkpt lat="45.682219960920065" lon="9.903247731901596"><ele>525.5</ele><time>2026-04-26T07:38:18.999Z</time></trkpt><trkpt lat="45.682275182369565" lon="9.903195457905657"><ele>520.6666666666667</ele><time>2026-04-26T07:38:19.999Z</time></trkpt><trkpt lat="45.682324402740505" lon="9.903134300250413"><ele>515.8333333333334</ele><time>2026-04-26T07:38:21.999Z</time></trkpt><trkpt lat="45.682373047461056" lon="9.902971536449362"><ele>511.0</ele><time>2026-04-26T07:38:23.999Z</time></trkpt><trkpt lat="45.68241345711403" lon="9.902841212611714"><ele>511.0</ele><time>2026-04-26T07:38:24.999Z</time></trkpt><trkpt lat="45.68245605770467" lon="9.902696148214945"><ele>511.0</ele><time>2026-04-26T07:38:25.998Z</time></trkpt><trkpt lat="45.68251527346589" lon="9.902563572376447"><ele>511.0</ele><time>2026-04-26T07:38:26.998Z</time></trkpt><trkpt lat="45.68258141728666" lon="9.90245906462188"><ele>511.0</ele><time>2026-04-26T07:38:27.998Z</time></trkpt><trkpt lat="45.68275634334611" lon="9.902341397558398"><ele>508.5</ele><time>2026-04-26T07:38:29.998Z</time></trkpt><trkpt lat="45.682896167680376" lon="9.90233695736303"><ele>506.0</ele><time>2026-04-26T07:38:30.998Z</time></trkpt><trkpt lat="45.68303137405812" lon="9.902321465863523"><ele>503.5</ele><time>2026-04-26T07:38:31.998Z</time></trkpt><trkpt lat="45.68315915783051" lon="9.902265754843734"><ele>501.0</ele><time>2026-04-26T07:38:32.998Z</time></trkpt><trkpt lat="45.68326618238352" lon="9.902161088197659"><ele>501.0</ele><time>2026-04-26T07:38:33.998Z</time></trkpt><trkpt lat="45.68336843308155" lon="9.902067723271639"><ele>501.0</ele><time>2026-04-26T07:38:34.998Z</time></trkpt><trkpt lat="45.683445181674976" lon="9.901991209674796"><ele>501.0</ele><time>2026-04-26T07:38:35.998Z</time></trkpt><trkpt lat="45.6834960443711" lon="9.901919693930909"><ele>501.0</ele><time>2026-04-26T07:38:36.998Z</time></trkpt><trkpt lat="45.68356440554305" lon="9.901870955978936"><ele>501.0</ele><time>2026-04-26T07:38:38.998Z</time></trkpt><trkpt lat="45.68363533504546" lon="9.901816855453227"><ele>501.0</ele><time>2026-04-26T07:40:33.998Z</time></trkpt><trkpt lat="45.68370386935167" lon="9.901778133864017"><ele>501.75</ele><time>2026-04-26T07:40:34.998Z</time></trkpt><trkpt lat="45.68378548693332" lon="9.90170167042463"><ele>502.5</ele><time>2026-04-26T07:40:35.998Z</time></trkpt><trkpt lat="45.68388908407557" lon="9.901605920573234"><ele>503.25</ele><time>2026-04-26T07:40:36.998Z</time></trkpt><trkpt lat="45.684009653850865" lon="9.90155064497849"><ele>504.0</ele><time>2026-04-26T07:40:37.998Z</time></trkpt><trkpt lat="45.68411192386546" lon="9.90148373551986"><ele>504.0</ele><time>2026-04-26T07:40:38.998Z</time></trkpt><trkpt lat="45.68419900265961" lon="9.901358998538445"><ele>504.0</ele><time>2026-04-26T07:40:39.998Z</time></trkpt><trkpt lat="45.684285291282414" lon="9.901227737973223"><ele>504.0</ele><time>2026-04-26T07:40:40.998Z</time></trkpt><trkpt lat="45.68438283455227" lon="9.9010586129545"><ele>504.0</ele><time>2026-04-26T07:40:41.998Z</time></trkpt><trkpt lat="45.6845082443503" lon="9.900917288278595"><ele>507.79999999999995</ele><time>2026-04-26T07:40:42.998Z</time></trkpt><trkpt lat="45.68456175016929" lon="9.90077601388076"><ele>511.59999999999997</ele><time>2026-04-26T07:40:43.998Z</time></trkpt><trkpt lat="45.68461656492515" lon="9.900662257620217"><ele>515.4</ele><time>2026-04-26T07:40:44.998Z</time></trkpt><trkpt lat="45.68466909415143" lon="9.900572723938065"><ele>519.1999999999999</ele><time>2026-04-26T07:40:45.998Z</time></trkpt><trkpt lat="45.68474044372713" lon="9.900483855332354"><ele>523.0</ele><time>2026-04-26T07:40:46.998Z</time></trkpt><trkpt lat="45.68486620973078" lon="9.90045101815519"><ele>523.0</ele><time>2026-04-26T07:40:47.998Z</time></trkpt><trkpt lat="45.684980520131795" lon="9.90039232512788"><ele>523.0</ele><time>2026-04-26T07:40:48.998Z</time></trkpt><trkpt lat="45.68507230639635" lon="9.900345197188408"><ele>523.0</ele><time>2026-04-26T07:40:49.998Z</time></trkpt><trkpt lat="45.68514714629552" lon="9.900306770410852"><ele>523.0</ele><time>2026-04-26T07:40:50.998Z</time></trkpt><trkpt lat="45.68520482744923" lon="9.900191244230742"><ele>523.0</ele><time>2026-04-26T07:40:51.998Z</time></trkpt><trkpt lat="45.685262613210284" lon="9.900090117732322"><ele>528.4</ele><time>2026-04-26T07:40:52.998Z</time></trkpt><trkpt lat="45.68530129389897" lon="9.899960897357122"><ele>533.8</ele><time>2026-04-26T07:40:53.998Z</time></trkpt><trkpt lat="45.68535614734967" lon="9.89988045143416"><ele>539.2</ele><time>2026-04-26T07:40:54.998Z</time></trkpt><trkpt lat="45.68546302167495" lon="9.899817257850344"><ele>544.6</ele><time>2026-04-26T07:40:56Z</time></trkpt><trkpt lat="45.68557615255921" lon="9.899778381646776"><ele>550.0</ele><time>2026-04-26T07:40:57Z</time></trkpt><trkpt lat="45.68567030097684" lon="9.899750082778839"><ele>550.0</ele><time>2026-04-26T07:40:58Z</time></trkpt><trkpt lat="45.685745397399366" lon="9.899728462187973"><ele>550.0</ele><time>2026-04-26T07:40:59Z</time></trkpt><trkpt lat="45.68582920970347" lon="9.899742573854477"><ele>550.0</ele><time>2026-04-26T07:41:00Z</time></trkpt><trkpt lat="45.68591770738933" lon="9.899726554675157"><ele>550.0</ele><time>2026-04-26T07:41:01Z</time></trkpt><trkpt lat="45.686002296757245" lon="9.899642791663846"><ele>550.0</ele><time>2026-04-26T07:41:02Z</time></trkpt><trkpt lat="45.686078970367305" lon="9.899496985439612"><ele>551.4</ele><time>2026-04-26T07:41:03Z</time></trkpt><trkpt lat="45.68611423377032" lon="9.899341442855057"><ele>552.8</ele><time>2026-04-26T07:41:04Z</time></trkpt><trkpt lat="45.68612216808058" lon="9.899166507774357"><ele>554.2</ele><time>2026-04-26T07:41:05Z</time></trkpt><trkpt lat="45.686120900788126" lon="9.899018087434744"><ele>555.6</ele><time>2026-04-26T07:41:06Z</time></trkpt><trkpt lat="45.686113127020775" lon="9.898904271489494"><ele>557.0</ele><time>2026-04-26T07:41:07Z</time></trkpt><trkpt lat="45.6861045105471" lon="9.89879102478837"><ele>557.0</ele><time>2026-04-26T07:41:08Z</time></trkpt><trkpt lat="45.68614418895958" lon="9.898670684727925"><ele>557.0</ele><time>2026-04-26T07:41:10Z</time></trkpt><trkpt lat="45.6862274356455" lon="9.898669774484189"><ele>557.0</ele><time>2026-04-26T07:41:11Z</time></trkpt><trkpt lat="45.68632081465485" lon="9.898649105840295"><ele>557.0</ele><time>2026-04-26T07:41:12Z</time></trkpt><trkpt lat="45.68638993404906" lon="9.898575354414252"><ele>557.0</ele><time>2026-04-26T07:41:13Z</time></trkpt><trkpt lat="45.68648970188238" lon="9.898475074863216"><ele>557.6</ele><time>2026-04-26T07:41:14Z</time></trkpt><trkpt lat="45.686588921553124" lon="9.898397111943297"><ele>558.2</ele><time>2026-04-26T07:41:15Z</time></trkpt><trkpt lat="45.68666389354099" lon="9.898370546489273"><ele>558.8</ele><time>2026-04-26T07:41:16Z</time></trkpt><trkpt lat="45.68678706507733" lon="9.898373804812898"><ele>559.4</ele><time>2026-04-26T07:41:18Z</time></trkpt><trkpt lat="45.686864664452216" lon="9.898392225999743"><ele>560.0</ele><time>2026-04-26T07:41:19Z</time></trkpt><trkpt lat="45.68697984151293" lon="9.898390979244198"><ele>561.0</ele><time>2026-04-26T07:41:21Z</time></trkpt><trkpt lat="45.68703803859464" lon="9.898341926916506"><ele>562.0</ele><time>2026-04-26T07:41:22Z</time></trkpt><trkpt lat="45.687091069842204" lon="9.898266850635238"><ele>563.0</ele><time>2026-04-26T07:41:23Z</time></trkpt><trkpt lat="45.687211871977986" lon="9.898219908247269"><ele>564.0</ele><time>2026-04-26T07:41:25Z</time></trkpt><trkpt lat="45.68727477134223" lon="9.898244594887823"><ele>565.0</ele><time>2026-04-26T07:41:26Z</time></trkpt><trkpt lat="45.687393977979454" lon="9.898176260364087"><ele>565.0</ele><time>2026-04-26T07:41:28Z</time></trkpt><trkpt lat="45.68744754234302" lon="9.898082370947035"><ele>565.0</ele><time>2026-04-26T07:41:29Z</time></trkpt><trkpt lat="45.687497576745855" lon="9.897969296414061"><ele>565.0</ele><time>2026-04-26T07:41:30Z</time></trkpt><trkpt lat="45.68753229348495" lon="9.89785471463092"><ele>565.0</ele><time>2026-04-26T07:41:31Z</time></trkpt><trkpt lat="45.68754660093112" lon="9.897723569785496"><ele>565.0</ele><time>2026-04-26T07:41:32Z</time></trkpt><trkpt lat="45.687566087104905" lon="9.897569937361611"><ele>565.1666666666667</ele><time>2026-04-26T07:41:33Z</time></trkpt><trkpt lat="45.687585490738584" lon="9.8974660849401"><ele>565.3333333333334</ele><time>2026-04-26T07:41:34Z</time></trkpt><trkpt lat="45.68758858593969" lon="9.89737054796756"><ele>565.5</ele><time>2026-04-26T07:41:35Z</time></trkpt><trkpt lat="45.68761545655817" lon="9.897281060413217"><ele>565.6666666666666</ele><time>2026-04-26T07:41:36Z</time></trkpt><trkpt lat="45.6876794734494" lon="9.897205302120362"><ele>565.8333333333333</ele><time>2026-04-26T07:41:37Z</time></trkpt><trkpt lat="45.687775627534684" lon="9.897087878135338"><ele>566.0</ele><time>2026-04-26T07:41:38Z</time></trkpt><trkpt lat="45.68785558339488" lon="9.896970324892067"><ele>566.0</ele><time>2026-04-26T07:41:39Z</time></trkpt><trkpt lat="45.6879318687279" lon="9.896893315622142"><ele>566.0</ele><time>2026-04-26T07:41:39.999Z</time></trkpt><trkpt lat="45.6879915980549" lon="9.896837168938962"><ele>566.0</ele><time>2026-04-26T07:41:40.999Z</time></trkpt><trkpt lat="45.688124265909" lon="9.896837151564267"><ele>566.0</ele><time>2026-04-26T07:41:42.999Z</time></trkpt><trkpt lat="45.688196640815086" lon="9.896793593516842"><ele>566.0</ele><time>2026-04-26T07:41:43.999Z</time></trkpt><trkpt lat="45.68824714316475" lon="9.89671875659273"><ele>566.0</ele><time>2026-04-26T07:41:44.999Z</time></trkpt><trkpt lat="45.68835105046102" lon="9.896653273868926"><ele>566.0</ele><time>2026-04-26T07:41:46.999Z</time></trkpt><trkpt lat="45.68840386866176" lon="9.896721253848748"><ele>566.0</ele><time>2026-04-26T07:41:47.999Z</time></trkpt><trkpt lat="45.68847080788991" lon="9.896801309525316"><ele>566.0</ele><time>2026-04-26T07:41:48.999Z</time></trkpt><trkpt lat="45.688558716229615" lon="9.896827573034473"><ele>566.0</ele><time>2026-04-26T07:41:49.999Z</time></trkpt><trkpt lat="45.688638564173296" lon="9.896810778565762"><ele>566.0</ele><time>2026-04-26T07:41:50.999Z</time></trkpt><trkpt lat="45.68871386497283" lon="9.896804030792847"><ele>566.0</ele><time>2026-04-26T07:41:51.999Z</time></trkpt><trkpt lat="45.68880347782358" lon="9.896784337801282"><ele>566.6</ele><time>2026-04-26T07:41:53.999Z</time></trkpt><trkpt lat="45.688834428754994" lon="9.896663608948675"><ele>567.2</ele><time>2026-04-26T07:41:54.999Z</time></trkpt><trkpt lat="45.68886476969919" lon="9.896520355855728"><ele>567.8</ele><time>2026-04-26T07:41:55.999Z</time></trkpt><trkpt lat="45.68891268303632" lon="9.896413774251913"><ele>568.4</ele><time>2026-04-26T07:41:56.999Z</time></trkpt><trkpt lat="45.68898618563838" lon="9.896315686728821"><ele>569.0</ele><time>2026-04-26T07:41:57.999Z</time></trkpt><trkpt lat="45.68909916801898" lon="9.896209727108394"><ele>569.0</ele><time>2026-04-26T07:41:58.999Z</time></trkpt><trkpt lat="45.68920802444714" lon="9.896113500642686"><ele>569.0</ele><time>2026-04-26T07:41:59.999Z</time></trkpt><trkpt lat="45.68930227342843" lon="9.896016854563966"><ele>569.0</ele><time>2026-04-26T07:42:00.999Z</time></trkpt><trkpt lat="45.68940145737731" lon="9.895911773357868"><ele>569.0</ele><time>2026-04-26T07:42:01.999Z</time></trkpt><trkpt lat="45.689514849421975" lon="9.89579293016102"><ele>568.6</ele><time>2026-04-26T07:42:02.999Z</time></trkpt><trkpt lat="45.68961268634233" lon="9.895705537306018"><ele>568.2</ele><time>2026-04-26T07:42:03.999Z</time></trkpt><trkpt lat="45.68970015872675" lon="9.895625226180357"><ele>567.8000000000001</ele><time>2026-04-26T07:42:04.999Z</time></trkpt><trkpt lat="45.689780340702754" lon="9.895567757073298"><ele>567.4</ele><time>2026-04-26T07:42:05.999Z</time></trkpt><trkpt lat="45.68987462476442" lon="9.895554058051738"><ele>567.0</ele><time>2026-04-26T07:42:06.999Z</time></trkpt><trkpt lat="45.68997243179693" lon="9.895537465611493"><ele>567.0</ele><time>2026-04-26T07:42:07.999Z</time></trkpt><trkpt lat="45.69006604727382" lon="9.895490752842207"><ele>567.0</ele><time>2026-04-26T07:42:08.999Z</time></trkpt><trkpt lat="45.690157495121305" lon="9.89542423846874"><ele>567.0</ele><time>2026-04-26T07:42:09.999Z</time></trkpt><trkpt lat="45.690264024580564" lon="9.895354445597597"><ele>567.0</ele><time>2026-04-26T07:42:10.999Z</time></trkpt><trkpt lat="45.69038126952879" lon="9.895302679067578"><ele>567.0</ele><time>2026-04-26T07:42:11.999Z</time></trkpt><trkpt lat="45.69049608473876" lon="9.895256688675365"><ele>567.75</ele><time>2026-04-26T07:42:12.999Z</time></trkpt><trkpt lat="45.6906116460831" lon="9.895204713563126"><ele>568.5</ele><time>2026-04-26T07:42:13.999Z</time></trkpt><trkpt lat="45.69072371967417" lon="9.895146562660644"><ele>569.25</ele><time>2026-04-26T07:42:14.999Z</time></trkpt><trkpt lat="45.69082999567324" lon="9.895094233774103"><ele>570.0</ele><time>2026-04-26T07:42:15.999Z</time></trkpt><trkpt lat="45.690948540116246" lon="9.895058172126799"><ele>570.0</ele><time>2026-04-26T07:42:16.999Z</time></trkpt><trkpt lat="45.69105969741562" lon="9.895020662323082"><ele>570.0</ele><time>2026-04-26T07:42:17.999Z</time></trkpt><trkpt lat="45.69116612962434" lon="9.894979921734388"><ele>570.0</ele><time>2026-04-26T07:42:18.999Z</time></trkpt><trkpt lat="45.69126735974504" lon="9.89495487162096"><ele>570.0</ele><time>2026-04-26T07:42:19.999Z</time></trkpt><trkpt lat="45.69136538342174" lon="9.894942931004621"><ele>570.0</ele><time>2026-04-26T07:42:20.999Z</time></trkpt><trkpt lat="45.69145041415545" lon="9.894931081694805"><ele>564.75</ele><time>2026-04-26T07:42:21.999Z</time></trkpt><trkpt lat="45.691560326617456" lon="9.894829176963622"><ele>559.5</ele><time>2026-04-26T07:42:23.999Z</time></trkpt><trkpt lat="45.69162604784815" lon="9.894717335646108"><ele>554.25</ele><time>2026-04-26T07:42:24.999Z</time></trkpt><trkpt lat="45.691719215632354" lon="9.894601386194324"><ele>549.0</ele><time>2026-04-26T07:42:25.999Z</time></trkpt><trkpt lat="45.691829201612656" lon="9.894507627381564"><ele>548.75</ele><time>2026-04-26T07:42:26.999Z</time></trkpt><trkpt lat="45.69194489411525" lon="9.894421392845157"><ele>548.5</ele><time>2026-04-26T07:42:27.999Z</time></trkpt><trkpt lat="45.692049196301426" lon="9.894345689695239"><ele>548.25</ele><time>2026-04-26T07:42:28.999Z</time></trkpt><trkpt lat="45.692152376621046" lon="9.894281761924862"><ele>548.0</ele><time>2026-04-26T07:42:29.999Z</time></trkpt><trkpt lat="45.69224039740019" lon="9.894244403762611"><ele>548.0</ele><time>2026-04-26T07:42:30.999Z</time></trkpt><trkpt lat="45.69234590868876" lon="9.89423636712735"><ele>548.0</ele><time>2026-04-26T07:42:31.999Z</time></trkpt><trkpt lat="45.692474063031966" lon="9.894239061213572"><ele>548.0</ele><time>2026-04-26T07:42:32.999Z</time></trkpt><trkpt lat="45.692590452689984" lon="9.894234184913298"><ele>548.0</ele><time>2026-04-26T07:42:33.999Z</time></trkpt><trkpt lat="45.6926995897903" lon="9.894214365647114"><ele>545.0</ele><time>2026-04-26T07:42:34.999Z</time></trkpt><trkpt lat="45.69280386547824" lon="9.894201636333383"><ele>542.0</ele><time>2026-04-26T07:42:35.999Z</time></trkpt><trkpt lat="45.69289866650668" lon="9.894203073247615"><ele>539.0</ele><time>2026-04-26T07:42:36.999Z</time></trkpt><trkpt lat="45.69300355638358" lon="9.89417817868195"><ele>536.0</ele><time>2026-04-26T07:42:37.999Z</time></trkpt><trkpt lat="45.69310013156176" lon="9.894121038263862"><ele>533.0</ele><time>2026-04-26T07:42:38.999Z</time></trkpt><trkpt lat="45.69319815223129" lon="9.894052616178383"><ele>533.0</ele><time>2026-04-26T07:42:39.999Z</time></trkpt><trkpt lat="45.693306520139664" lon="9.893988586771258"><ele>533.0</ele><time>2026-04-26T07:42:40.999Z</time></trkpt><trkpt lat="45.693393801546044" lon="9.893905128196577"><ele>533.0</ele><time>2026-04-26T07:42:41.998Z</time></trkpt><trkpt lat="45.69346957836907" lon="9.893799369648384"><ele>533.0</ele><time>2026-04-26T07:42:42.998Z</time></trkpt><trkpt lat="45.69353770740845" lon="9.893678436315499"><ele>533.0</ele><time>2026-04-26T07:42:43.998Z</time></trkpt><trkpt lat="45.693599849160364" lon="9.893545196450496"><ele>535.0</ele><time>2026-04-26T07:42:44.998Z</time></trkpt><trkpt lat="45.69364639224559" lon="9.89342425974826"><ele>537.0</ele><time>2026-04-26T07:42:45.998Z</time></trkpt><trkpt lat="45.69369498413287" lon="9.89334521230174"><ele>539.0</ele><time>2026-04-26T07:42:46.998Z</time></trkpt><trkpt lat="45.69379978337029" lon="9.893271872578193"><ele>541.0</ele><time>2026-04-26T07:42:48.998Z</time></trkpt><trkpt lat="45.69391376519743" lon="9.893271292800776"><ele>543.0</ele><time>2026-04-26T07:42:49.998Z</time></trkpt><trkpt lat="45.694048787897934" lon="9.893286039017376"><ele>543.0</ele><time>2026-04-26T07:42:50.998Z</time></trkpt><trkpt lat="45.694161178040304" lon="9.893310669191045"><ele>543.0</ele><time>2026-04-26T07:42:51.998Z</time></trkpt><trkpt lat="45.694246938060736" lon="9.893348370980544"><ele>543.0</ele><time>2026-04-26T07:42:52.998Z</time></trkpt><trkpt lat="45.694339161607054" lon="9.893452462452546"><ele>543.0</ele><time>2026-04-26T07:42:53.998Z</time></trkpt><trkpt lat="45.69443083554112" lon="9.89356679608738"><ele>543.0</ele><time>2026-04-26T07:42:54.998Z</time></trkpt><trkpt lat="45.69452277363861" lon="9.893661273980136"><ele>537.4</ele><time>2026-04-26T07:42:55.998Z</time></trkpt><trkpt lat="45.69460288428158" lon="9.89377580343677"><ele>531.8</ele><time>2026-04-26T07:42:56.998Z</time></trkpt><trkpt lat="45.69467573416252" lon="9.893869240767708"><ele>526.2</ele><time>2026-04-26T07:42:57.998Z</time></trkpt><trkpt lat="45.69478073106595" lon="9.893908073323956"><ele>520.6</ele><time>2026-04-26T07:42:58.998Z</time></trkpt><trkpt lat="45.69487961332092" lon="9.893940254799274"><ele>515.0</ele><time>2026-04-26T07:42:59.998Z</time></trkpt><trkpt lat="45.69499089350181" lon="9.893949976964139"><ele>515.0</ele><time>2026-04-26T07:43:00.998Z</time></trkpt><trkpt lat="45.695115947129494" lon="9.893929249208973"><ele>515.0</ele><time>2026-04-26T07:43:02Z</time></trkpt><trkpt lat="45.69524480468908" lon="9.893900608916127"><ele>515.0</ele><time>2026-04-26T07:43:03Z</time></trkpt><trkpt lat="45.69535018804226" lon="9.893855000018803"><ele>515.0</ele><time>2026-04-26T07:43:04Z</time></trkpt><trkpt lat="45.695429229807445" lon="9.893807848241758"><ele>514.2</ele><time>2026-04-26T07:43:05Z</time></trkpt><trkpt lat="45.69547765407246" lon="9.893749412411509"><ele>513.4</ele><time>2026-04-26T07:43:06Z</time></trkpt><trkpt lat="45.695514080013545" lon="9.893660633031553"><ele>512.6</ele><time>2026-04-26T07:43:07Z</time></trkpt><trkpt lat="45.69554981775259" lon="9.89351076480536"><ele>511.8</ele><time>2026-04-26T07:43:08Z</time></trkpt><trkpt lat="45.695612598389495" lon="9.893359246308624"><ele>511.0</ele><time>2026-04-26T07:43:09Z</time></trkpt><trkpt lat="45.69568473881027" lon="9.893262347500924"><ele>516.4</ele><time>2026-04-26T07:43:11Z</time></trkpt><trkpt lat="45.69576364253101" lon="9.893273330993539"><ele>521.8</ele><time>2026-04-26T07:43:12Z</time></trkpt><trkpt lat="45.695879804610776" lon="9.893276421736056"><ele>527.1999999999999</ele><time>2026-04-26T07:43:13Z</time></trkpt><trkpt lat="45.696020316103926" lon="9.893281978251329"><ele>532.6</ele><time>2026-04-26T07:43:14Z</time></trkpt><trkpt lat="45.696129378725956" lon="9.893270957961258"><ele>538.0</ele><time>2026-04-26T07:43:15Z</time></trkpt><trkpt lat="45.69620920278384" lon="9.893236600778007"><ele>538.0</ele><time>2026-04-26T07:43:16Z</time></trkpt><trkpt lat="45.69628290161422" lon="9.893232804666455"><ele>538.0</ele><time>2026-04-26T07:43:17Z</time></trkpt><trkpt lat="45.69635360381735" lon="9.89319781385974"><ele>538.0</ele><time>2026-04-26T07:43:18Z</time></trkpt><trkpt lat="45.69642716775211" lon="9.89317477291531"><ele>538.0</ele><time>2026-04-26T07:43:19Z</time></trkpt><trkpt lat="45.69651082989622" lon="9.893149232601461"><ele>538.0</ele><time>2026-04-26T07:43:20Z</time></trkpt><trkpt lat="45.69659418956095" lon="9.893125878400118"><ele>538.0</ele><time>2026-04-26T07:43:21Z</time></trkpt><trkpt lat="45.69666276978524" lon="9.893121476568307"><ele>538.0</ele><time>2026-04-26T07:43:22Z</time></trkpt><trkpt lat="45.6967538694089" lon="9.89326651934037"><ele>538.0</ele><time>2026-04-26T07:43:24Z</time></trkpt><trkpt lat="45.69678480924266" lon="9.89335682410172"><ele>538.0</ele><time>2026-04-26T07:43:25Z</time></trkpt><trkpt lat="45.696833066444654" lon="9.893477477463396"><ele>538.0</ele><time>2026-04-26T07:43:26Z</time></trkpt><trkpt lat="45.696899382140664" lon="9.893590884119975"><ele>538.0</ele><time>2026-04-26T07:43:27Z</time></trkpt><trkpt lat="45.6969708185545" lon="9.893701539955083"><ele>533.4</ele><time>2026-04-26T07:43:28Z</time></trkpt><trkpt lat="45.6970496435594" lon="9.893800724564743"><ele>528.8</ele><time>2026-04-26T07:43:29Z</time></trkpt><trkpt lat="45.69713458242515" lon="9.893887700254606"><ele>524.2</ele><time>2026-04-26T07:43:30Z</time></trkpt><trkpt lat="45.697223612694614" lon="9.893977458952723"><ele>519.6</ele><time>2026-04-26T07:43:31Z</time></trkpt><trkpt lat="45.69732749098219" lon="9.894051998781155"><ele>515.0</ele><time>2026-04-26T07:43:32Z</time></trkpt><trkpt lat="45.69742332861201" lon="9.89413090830002"><ele>515.0</ele><time>2026-04-26T07:43:33Z</time></trkpt><trkpt lat="45.69751298528899" lon="9.894212472816186"><ele>515.0</ele><time>2026-04-26T07:43:34Z</time></trkpt><trkpt lat="45.69760384240267" lon="9.894297131928008"><ele>515.0</ele><time>2026-04-26T07:43:35Z</time></trkpt><trkpt lat="45.697693017899454" lon="9.894383965134486"><ele>515.0</ele><time>2026-04-26T07:43:36Z</time></trkpt><trkpt lat="45.697781321779864" lon="9.894477724656365"><ele>515.0</ele><time>2026-04-26T07:43:37Z</time></trkpt><trkpt lat="45.69785665313369" lon="9.894576143150118"><ele>512.8</ele><time>2026-04-26T07:43:38Z</time></trkpt><trkpt lat="45.69793376744717" lon="9.894679376068408"><ele>510.6</ele><time>2026-04-26T07:43:39Z</time></trkpt><trkpt lat="45.698018080821534" lon="9.894769013145021"><ele>508.4</ele><time>2026-04-26T07:43:40Z</time></trkpt><trkpt lat="45.69812016834144" lon="9.894852189840764"><ele>506.2</ele><time>2026-04-26T07:43:41Z</time></trkpt><trkpt lat="45.698215871815734" lon="9.894953454477342"><ele>504.0</ele><time>2026-04-26T07:43:42Z</time></trkpt><trkpt lat="45.698306274975394" lon="9.895080497077952"><ele>505.0</ele><time>2026-04-26T07:43:43Z</time></trkpt><trkpt lat="45.69838822293464" lon="9.895266453215257"><ele>506.0</ele><time>2026-04-26T07:43:44Z</time></trkpt><trkpt lat="45.69846470517885" lon="9.89545321236395"><ele>507.0</ele><time>2026-04-26T07:43:45Z</time></trkpt><trkpt lat="45.698546147725196" lon="9.895612164079592"><ele>508.0</ele><time>2026-04-26T07:43:46Z</time></trkpt><trkpt lat="45.69862313471709" lon="9.89576436395535"><ele>508.0</ele><time>2026-04-26T07:43:46.999Z</time></trkpt><trkpt lat="45.69868766976734" lon="9.895892383137681"><ele>507.99999999999994</ele><time>2026-04-26T07:43:47.999Z</time></trkpt><trkpt lat="45.69874366837173" lon="9.896008606981175"><ele>507.99999999999994</ele><time>2026-04-26T07:43:48.999Z</time></trkpt><trkpt lat="45.69878918304544" lon="9.89610747563052"><ele>508.0</ele><time>2026-04-26T07:43:49.999Z</time></trkpt><trkpt lat="45.69882191169894" lon="9.896192403198068"><ele>508.0</ele><time>2026-04-26T07:43:50.999Z</time></trkpt><trkpt lat="45.698814535026344" lon="9.896346791842115"><ele>506.2</ele><time>2026-04-26T07:43:52.999Z</time></trkpt><trkpt lat="45.698748748884256" lon="9.896374596597095"><ele>504.4</ele><time>2026-04-26T07:43:53.999Z</time></trkpt><trkpt lat="45.69861006411816" lon="9.89622409845416"><ele>502.59999999999997</ele><time>2026-04-26T07:43:55.999Z</time></trkpt><trkpt lat="45.698541763167555" lon="9.896119944198489"><ele>500.79999999999995</ele><time>2026-04-26T07:43:56.999Z</time></trkpt><trkpt lat="45.69847455119823" lon="9.896044804776563"><ele>499.0</ele><time>2026-04-26T07:43:57.999Z</time></trkpt><trkpt lat="45.698415283090036" lon="9.896007365628295"><ele>493.5</ele><time>2026-04-26T07:43:58.999Z</time></trkpt><trkpt lat="45.69831386275915" lon="9.896101788385435"><ele>488.0</ele><time>2026-04-26T07:44:00.999Z</time></trkpt><trkpt lat="45.69829290105645" lon="9.896244575109412"><ele>482.5</ele><time>2026-04-26T07:44:01.999Z</time></trkpt><trkpt lat="45.698355060173164" lon="9.896412812348212"><ele>477.0</ele><time>2026-04-26T07:44:02.999Z</time></trkpt><trkpt lat="45.6984067040229" lon="9.896612610868267"><ele>474.5</ele><time>2026-04-26T07:44:03.999Z</time></trkpt><trkpt lat="45.69844677407013" lon="9.896792776030878"><ele>472.0</ele><time>2026-04-26T07:44:04.999Z</time></trkpt><trkpt lat="45.69847463290733" lon="9.896954202800258"><ele>469.5</ele><time>2026-04-26T07:44:05.999Z</time></trkpt><trkpt lat="45.69849103107709" lon="9.897115879641593"><ele>467.0</ele><time>2026-04-26T07:44:06.999Z</time></trkpt><trkpt lat="45.698510043372615" lon="9.897268572090201"><ele>467.0</ele><time>2026-04-26T07:44:07.999Z</time></trkpt><trkpt lat="45.69853693049485" lon="9.897413880672875"><ele>467.00000000000006</ele><time>2026-04-26T07:44:08.999Z</time></trkpt><trkpt lat="45.69856457137694" lon="9.897539120302703"><ele>467.00000000000006</ele><time>2026-04-26T07:44:09.999Z</time></trkpt><trkpt lat="45.69857490616294" lon="9.897637608109667"><ele>467.0</ele><time>2026-04-26T07:44:10.999Z</time></trkpt><trkpt lat="45.69862386419064" lon="9.897741577101518"><ele>467.0</ele><time>2026-04-26T07:44:12.999Z</time></trkpt><trkpt lat="45.69872284231123" lon="9.897736494784942"><ele>470.16666666666663</ele><time>2026-04-26T07:44:14.999Z</time></trkpt><trkpt lat="45.698787949400376" lon="9.897707539579777"><ele>473.3333333333333</ele><time>2026-04-26T07:44:15.999Z</time></trkpt><trkpt lat="45.69885622574567" lon="9.897727449837893"><ele>476.5</ele><time>2026-04-26T07:44:16.999Z</time></trkpt><trkpt lat="45.69892040881316" lon="9.897792675245167"><ele>479.66666666666663</ele><time>2026-04-26T07:44:17.999Z</time></trkpt><trkpt lat="45.69898056868143" lon="9.897871690632453"><ele>482.8333333333333</ele><time>2026-04-26T07:44:18.999Z</time></trkpt><trkpt lat="45.699057015285796" lon="9.897914000651257"><ele>486.0</ele><time>2026-04-26T07:44:19.999Z</time></trkpt><trkpt lat="45.69913809408652" lon="9.897895597166993"><ele>486.0</ele><time>2026-04-26T07:44:20.999Z</time></trkpt><trkpt lat="45.699230392575096" lon="9.897868324796342"><ele>486.0</ele><time>2026-04-26T07:44:21.999Z</time></trkpt><trkpt lat="45.69932381581818" lon="9.897834349485581"><ele>486.0</ele><time>2026-04-26T07:44:22.999Z</time></trkpt><trkpt lat="45.69942153531478" lon="9.897794342700402"><ele>486.0</ele><time>2026-04-26T07:44:23.999Z</time></trkpt><trkpt lat="45.69951562100986" lon="9.897743668783567"><ele>486.0</ele><time>2026-04-26T07:44:24.999Z</time></trkpt><trkpt lat="45.6995927937566" lon="9.897703506208707"><ele>492.6666666666667</ele><time>2026-04-26T07:44:25.999Z</time></trkpt><trkpt lat="45.69966941611474" lon="9.897679757914378"><ele>499.33333333333337</ele><time>2026-04-26T07:44:27.999Z</time></trkpt><trkpt lat="45.69966865553452" lon="9.897827362675322"><ele>506.0</ele><time>2026-04-26T07:44:29.999Z</time></trkpt><trkpt lat="45.6996278133237" lon="9.89793309457276"><ele>512.6666666666667</ele><time>2026-04-26T07:44:30.999Z</time></trkpt><trkpt lat="45.69961731864772" lon="9.89803330906048"><ele>519.3333333333334</ele><time>2026-04-26T07:44:31.999Z</time></trkpt><trkpt lat="45.69963767889089" lon="9.898149380246462"><ele>526.0</ele><time>2026-04-26T07:44:32.999Z</time></trkpt><trkpt lat="45.699679202347376" lon="9.898296045281135"><ele>526.5</ele><time>2026-04-26T07:44:33.999Z</time></trkpt><trkpt lat="45.69971560363802" lon="9.898453677013238"><ele>527.0</ele><time>2026-04-26T07:44:34.999Z</time></trkpt><trkpt lat="45.699739307534045" lon="9.8986526801945"><ele>527.5</ele><time>2026-04-26T07:44:35.999Z</time></trkpt><trkpt lat="45.69975817533919" lon="9.898837864521285"><ele>528.0</ele><time>2026-04-26T07:44:36.999Z</time></trkpt><trkpt lat="45.69977520219461" lon="9.898996842071801"><ele>528.0</ele><time>2026-04-26T07:44:37.999Z</time></trkpt><trkpt lat="45.69979332983535" lon="9.899132892392782"><ele>528.0</ele><time>2026-04-26T07:44:38.999Z</time></trkpt><trkpt lat="45.699812863410855" lon="9.899252752996569"><ele>528.0</ele><time>2026-04-26T07:44:39.999Z</time></trkpt><trkpt lat="45.69985004101975" lon="9.899357832483528"><ele>528.0</ele><time>2026-04-26T07:44:40.999Z</time></trkpt><trkpt lat="45.699906758201635" lon="9.899467427419353"><ele>528.0</ele><time>2026-04-26T07:44:41.999Z</time></trkpt><trkpt lat="45.69998068408792" lon="9.899589362145319"><ele>526.0</ele><time>2026-04-26T07:44:42.999Z</time></trkpt><trkpt lat="45.70007032883095" lon="9.899694639409597"><ele>524.0</ele><time>2026-04-26T07:44:43.999Z</time></trkpt><trkpt lat="45.70013890595948" lon="9.899793758510953"><ele>522.0</ele><time>2026-04-26T07:44:44.999Z</time></trkpt><trkpt lat="45.70018343864076" lon="9.89991587150989"><ele>520.0</ele><time>2026-04-26T07:44:45.999Z</time></trkpt><trkpt lat="45.700209107786144" lon="9.900017127348363"><ele>518.0</ele><time>2026-04-26T07:44:46.999Z</time></trkpt><trkpt lat="45.70029997046046" lon="9.900105145666897"><ele>522.3333333333333</ele><time>2026-04-26T07:44:48.998Z</time></trkpt><trkpt lat="45.70036711774404" lon="9.90010892501885"><ele>526.6666666666666</ele><time>2026-04-26T07:44:49.998Z</time></trkpt><trkpt lat="45.70044261658609" lon="9.900192651934399"><ele>531.0</ele><time>2026-04-26T07:44:51.998Z</time></trkpt><trkpt lat="45.70045936468452" lon="9.900284035559217"><ele>535.3333333333334</ele><time>2026-04-26T07:44:52.998Z</time></trkpt><trkpt lat="45.70047872912283" lon="9.900397788102971"><ele>539.6666666666667</ele><time>2026-04-26T07:44:53.998Z</time></trkpt><trkpt lat="45.70049062146146" lon="9.90052994468336"><ele>544.0</ele><time>2026-04-26T07:44:54.998Z</time></trkpt><trkpt lat="45.70050041554779" lon="9.90065595488916"><ele>544.0</ele><time>2026-04-26T07:44:55.998Z</time></trkpt><trkpt lat="45.70050885735063" lon="9.90075818578684"><ele>544.0</ele><time>2026-04-26T07:44:56.998Z</time></trkpt><trkpt lat="45.70050620027256" lon="9.900856921297805"><ele>544.0</ele><time>2026-04-26T07:44:57.998Z</time></trkpt><trkpt lat="45.70052890512459" lon="9.90097464706696"><ele>544.0</ele><time>2026-04-26T07:44:58.998Z</time></trkpt><trkpt lat="45.700580074806155" lon="9.901094073747158"><ele>544.0</ele><time>2026-04-26T07:44:59.998Z</time></trkpt><trkpt lat="45.70062537048486" lon="9.901205567413024"><ele>544.0</ele><time>2026-04-26T07:45:00.998Z</time></trkpt><trkpt lat="45.70070339237621" lon="9.901326340021889"><ele>542.8</ele><time>2026-04-26T07:45:01.998Z</time></trkpt><trkpt lat="45.70077651303857" lon="9.901439747266467"><ele>541.5999999999999</ele><time>2026-04-26T07:45:02.998Z</time></trkpt><trkpt lat="45.70081491449016" lon="9.901563107888355"><ele>540.4</ele><time>2026-04-26T07:45:03.998Z</time></trkpt><trkpt lat="45.700844104644204" lon="9.90170960110781"><ele>539.1999999999999</ele><time>2026-04-26T07:45:04.998Z</time></trkpt><trkpt lat="45.70085179873508" lon="9.901861426756104"><ele>538.0</ele><time>2026-04-26T07:45:05.998Z</time></trkpt><trkpt lat="45.70086831958329" lon="9.901972566909603"><ele>537.6</ele><time>2026-04-26T07:45:06.998Z</time></trkpt><trkpt lat="45.700910811078565" lon="9.902052923365993"><ele>537.1999999999999</ele><time>2026-04-26T07:45:08Z</time></trkpt><trkpt lat="45.70092331186222" lon="9.9021513476456"><ele>536.8</ele><time>2026-04-26T07:45:09Z</time></trkpt><trkpt lat="45.700987243915556" lon="9.902239759711144"><ele>536.4</ele><time>2026-04-26T07:45:10Z</time></trkpt><trkpt lat="45.70099759632675" lon="9.902426552904803"><ele>536.0</ele><time>2026-04-26T07:45:11Z</time></trkpt><trkpt lat="45.70085328721826" lon="9.902673379266028"><ele>537.5</ele><time>2026-04-26T07:45:12Z</time></trkpt><trkpt lat="45.70083074205773" lon="9.902849729115333"><ele>539.0</ele><time>2026-04-26T07:45:13Z</time></trkpt><trkpt lat="45.7007990222696" lon="9.903026167546185"><ele>540.5</ele><time>2026-04-26T07:45:14Z</time></trkpt><trkpt lat="45.70076802366106" lon="9.903176467769704"><ele>542.0</ele><time>2026-04-26T07:45:15Z</time></trkpt><trkpt lat="45.70073989058177" lon="9.903324575185154"><ele>541.6</ele><time>2026-04-26T07:45:16Z</time></trkpt><trkpt lat="45.70073294223126" lon="9.903464131040012"><ele>541.2</ele><time>2026-04-26T07:45:17Z</time></trkpt><trkpt lat="45.700706778133984" lon="9.903598625024614"><ele>540.8</ele><time>2026-04-26T07:45:18Z</time></trkpt><trkpt lat="45.700695443981466" lon="9.903727695403052"><ele>540.4</ele><time>2026-04-26T07:45:20Z</time></trkpt><trkpt lat="45.700688992615184" lon="9.903842728903854"><ele>540.0</ele><time>2026-04-26T07:45:21Z</time></trkpt><trkpt lat="45.70075674365931" lon="9.903963500201254"><ele>540.0</ele><time>2026-04-26T07:45:22Z</time></trkpt><trkpt lat="45.700818504620734" lon="9.904078609127854"><ele>540.0</ele><time>2026-04-26T07:45:23Z</time></trkpt><trkpt lat="45.70086767064917" lon="9.904183960659504"><ele>540.0</ele><time>2026-04-26T07:45:24Z</time></trkpt><trkpt lat="45.70091409491216" lon="9.90426449363733"><ele>540.0</ele><time>2026-04-26T07:45:25Z</time></trkpt><trkpt lat="45.700974248791965" lon="9.904311447880108"><ele>540.0</ele><time>2026-04-26T07:45:26Z</time></trkpt><trkpt lat="45.70104156994732" lon="9.904309223977803"><ele>540.0</ele><time>2026-04-26T07:45:27Z</time></trkpt><trkpt lat="45.701126692017446" lon="9.904291464666267"><ele>543.5</ele><time>2026-04-26T07:45:28Z</time></trkpt><trkpt lat="45.701211857811096" lon="9.904261328791833"><ele>547.0</ele><time>2026-04-26T07:45:29Z</time></trkpt><trkpt lat="45.7013009209624" lon="9.904243634452055"><ele>550.5</ele><time>2026-04-26T07:45:30Z</time></trkpt><trkpt lat="45.70138756730322" lon="9.904272877403557"><ele>554.0</ele><time>2026-04-26T07:45:31Z</time></trkpt><trkpt lat="45.701465900601434" lon="9.90432195304945"><ele>557.5</ele><time>2026-04-26T07:45:32Z</time></trkpt><trkpt lat="45.701551688184395" lon="9.90434586571772"><ele>561.0</ele><time>2026-04-26T07:45:33Z</time></trkpt><trkpt lat="45.70162141067821" lon="9.904471916757343"><ele>561.0</ele><time>2026-04-26T07:45:35Z</time></trkpt><trkpt lat="45.701653173752725" lon="9.904571245698872"><ele>561.0</ele><time>2026-04-26T07:45:36Z</time></trkpt><trkpt lat="45.70172360546742" lon="9.904711706481178"><ele>561.0</ele><time>2026-04-26T07:45:38Z</time></trkpt><trkpt lat="45.70178930821657" lon="9.90484159946949"><ele>561.0</ele><time>2026-04-26T07:45:40Z</time></trkpt><trkpt lat="45.70183921994751" lon="9.90494534227849"><ele>561.0</ele><time>2026-04-26T07:45:42Z</time></trkpt><trkpt lat="45.701882562644144" lon="9.905025911112505"><ele>569.4</ele><time>2026-04-26T07:45:44Z</time></trkpt><trkpt lat="45.70191625038302" lon="9.905192977564004"><ele>577.8</ele><time>2026-04-26T07:45:47Z</time></trkpt><trkpt lat="45.701917461429105" lon="9.905382146363175"><ele>586.1999999999999</ele><time>2026-04-26T07:45:49Z</time></trkpt><trkpt lat="45.70192466743741" lon="9.905493645297845"><ele>594.6</ele><time>2026-04-26T07:45:50Z</time></trkpt><trkpt lat="45.70193404479155" lon="9.905634175903279"><ele>603.0</ele><time>2026-04-26T07:45:52Z</time></trkpt><trkpt lat="45.70197655454745" lon="9.905739554740563"><ele>603.0</ele><time>2026-04-26T07:45:53.999Z</time></trkpt><trkpt lat="45.70200678255668" lon="9.905852098118336"><ele>603.0</ele><time>2026-04-26T07:45:55.999Z</time></trkpt><trkpt lat="45.702032890354154" lon="9.905945539250956"><ele>603.0</ele><time>2026-04-26T07:45:57.999Z</time></trkpt><trkpt lat="45.70207205450913" lon="9.906078727349906"><ele>603.0</ele><time>2026-04-26T07:46:00.999Z</time></trkpt><trkpt lat="45.70210020597457" lon="9.906174046357213"><ele>603.0</ele><time>2026-04-26T07:46:02.999Z</time></trkpt><trkpt lat="45.70214236697011" lon="9.906297996916347"><ele>603.0</ele><time>2026-04-26T07:46:05.999Z</time></trkpt><trkpt lat="45.70197195285207" lon="9.906548631756456"><ele>602.0</ele><time>2026-04-26T07:46:07.999Z</time></trkpt><trkpt lat="45.702032919307385" lon="9.906594077934393"><ele>601.0</ele><time>2026-04-26T07:46:09.999Z</time></trkpt><trkpt lat="45.70210759526214" lon="9.906635004201663"><ele>600.0</ele><time>2026-04-26T07:46:11.999Z</time></trkpt><trkpt lat="45.70218606420968" lon="9.90661887998745"><ele>599.0</ele><time>2026-04-26T07:46:12.999Z</time></trkpt><trkpt lat="45.70225012995651" lon="9.906614681173384"><ele>598.0</ele><time>2026-04-26T07:46:13.999Z</time></trkpt><trkpt lat="45.70230069513283" lon="9.906675260341098"><ele>597.0</ele><time>2026-04-26T07:46:14.999Z</time></trkpt><trkpt lat="45.70234052441782" lon="9.90679079714252"><ele>596.0</ele><time>2026-04-26T07:46:16.999Z</time></trkpt><trkpt lat="45.702430410201856" lon="9.906847842830883"><ele>593.8</ele><time>2026-04-26T07:46:19.999Z</time></trkpt><trkpt lat="45.70248467343138" lon="9.906967558026047"><ele>591.6</ele><time>2026-04-26T07:46:21.999Z</time></trkpt><trkpt lat="45.70252539948404" lon="9.907144608256324"><ele>589.4</ele><time>2026-04-26T07:46:23.999Z</time></trkpt><trkpt lat="45.70253376244076" lon="9.907273549171146"><ele>587.2</ele><time>2026-04-26T07:46:25.999Z</time></trkpt><trkpt lat="45.70255367816171" lon="9.90743432074167"><ele>585.0</ele><time>2026-04-26T07:46:27.999Z</time></trkpt><trkpt lat="45.70258684826976" lon="9.907537167384287"><ele>585.0</ele><time>2026-04-26T07:46:28.999Z</time></trkpt><trkpt lat="45.70262961178248" lon="9.907623669737482"><ele>585.0</ele><time>2026-04-26T07:46:29.999Z</time></trkpt><trkpt lat="45.70264451666009" lon="9.907715989881414"><ele>585.0</ele><time>2026-04-26T07:46:30.999Z</time></trkpt><trkpt lat="45.70263743987876" lon="9.907876055370451"><ele>585.0</ele><time>2026-04-26T07:46:32.999Z</time></trkpt><trkpt lat="45.702628319281345" lon="9.908017572667848"><ele>585.0</ele><time>2026-04-26T07:46:34.999Z</time></trkpt><trkpt lat="45.70266281283077" lon="9.908093065825826"><ele>585.0</ele><time>2026-04-26T07:46:38.999Z</time></trkpt><trkpt lat="45.702645558370925" lon="9.908211645037145"><ele>585.0</ele><time>2026-04-26T07:46:41.999Z</time></trkpt><trkpt lat="45.70268900147072" lon="9.908297670332031"><ele>585.0</ele><time>2026-04-26T07:46:43.999Z</time></trkpt><trkpt lat="45.7026749515199" lon="9.908409792355789"><ele>585.0</ele><time>2026-04-26T07:46:45.999Z</time></trkpt><trkpt lat="45.70268999106364" lon="9.90854301512107"><ele>585.0</ele><time>2026-04-26T07:46:47.999Z</time></trkpt><trkpt lat="45.702694410914134" lon="9.908655129976843"><ele>585.0</ele><time>2026-04-26T07:47:01.998Z</time></trkpt><trkpt lat="45.70269643822104" lon="9.908804200240242"><ele>585.0</ele><time>2026-04-26T07:47:03.998Z</time></trkpt><trkpt lat="45.70269460779876" lon="9.90889843534118"><ele>585.8333333333334</ele><time>2026-04-26T07:47:04.998Z</time></trkpt><trkpt lat="45.702685221435004" lon="9.909026408472426"><ele>586.6666666666666</ele><time>2026-04-26T07:47:06.998Z</time></trkpt><trkpt lat="45.702724355867204" lon="9.90912028055946"><ele>587.5</ele><time>2026-04-26T07:47:08.998Z</time></trkpt><trkpt lat="45.70272328266424" lon="9.909236649883303"><ele>588.3333333333333</ele><time>2026-04-26T07:47:11.998Z</time></trkpt><trkpt lat="45.70270565431785" lon="9.909341032844473"><ele>589.1666666666666</ele><time>2026-04-26T07:47:14Z</time></trkpt><trkpt lat="45.702656371972104" lon="9.9094304370425"><ele>590.0</ele><time>2026-04-26T07:47:18Z</time></trkpt><trkpt lat="45.70262867792188" lon="9.909534805244832"><ele>592.3333333333333</ele><time>2026-04-26T07:47:20Z</time></trkpt><trkpt lat="45.70261626093427" lon="9.909660834309221"><ele>594.6666666666666</ele><time>2026-04-26T07:47:22Z</time></trkpt><trkpt lat="45.7026242091009" lon="9.909773109048922"><ele>597.0</ele><time>2026-04-26T07:47:24Z</time></trkpt><trkpt lat="45.70261012264067" lon="9.909882875877132"><ele>599.3333333333334</ele><time>2026-04-26T07:47:26Z</time></trkpt><trkpt lat="45.702597784435596" lon="9.9100037632498"><ele>601.6666666666667</ele><time>2026-04-26T07:47:28Z</time></trkpt><trkpt lat="45.70262555721888" lon="9.910090811303748"><ele>604.0</ele><time>2026-04-26T07:47:29Z</time></trkpt><trkpt lat="45.70265860525951" lon="9.910176500262398"><ele>604.5</ele><time>2026-04-26T07:47:31Z</time></trkpt><trkpt lat="45.70265836674749" lon="9.910270938248736"><ele>605.0</ele><time>2026-04-26T07:47:32Z</time></trkpt><trkpt lat="45.702676686638576" lon="9.910392732582014"><ele>605.5</ele><time>2026-04-26T07:47:34Z</time></trkpt><trkpt lat="45.70271968748614" lon="9.910460614535166"><ele>606.0</ele><time>2026-04-26T07:47:36Z</time></trkpt><trkpt lat="45.702720695868464" lon="9.91056571917087"><ele>606.5</ele><time>2026-04-26T07:47:38Z</time></trkpt><trkpt lat="45.70277288069346" lon="9.910652596310252"><ele>607.0</ele><time>2026-04-26T07:47:39Z</time></trkpt><trkpt lat="45.70281748791762" lon="9.910765301169194"><ele>610.8000000000001</ele><time>2026-04-26T07:47:41Z</time></trkpt><trkpt lat="45.70282860893947" lon="9.910912419959969"><ele>614.6</ele><time>2026-04-26T07:47:44Z</time></trkpt><trkpt lat="45.70285697137962" lon="9.9110368263226"><ele>618.4000000000001</ele><time>2026-04-26T07:47:47Z</time></trkpt><trkpt lat="45.70295720899124" lon="9.91124110178396"><ele>622.2</ele><time>2026-04-26T07:47:49Z</time></trkpt><trkpt lat="45.703036321369126" lon="9.911232447723041"><ele>626.0</ele><time>2026-04-26T07:47:51Z</time></trkpt><trkpt lat="45.70304578787609" lon="9.911367246197736"><ele>626.0</ele><time>2026-04-26T07:48:48.999Z</time></trkpt><trkpt lat="45.70308920290988" lon="9.9115504103366"><ele>626.0</ele><time>2026-04-26T07:49:26Z</time></trkpt><trkpt lat="45.70310698253574" lon="9.911693148906991"><ele>626.0</ele><time>2026-04-26T07:49:27Z</time></trkpt><trkpt lat="45.703118198538256" lon="9.911805218600326"><ele>626.0</ele><time>2026-04-26T07:49:28Z</time></trkpt><trkpt lat="45.70316905115326" lon="9.911921942373608"><ele>626.0</ele><time>2026-04-26T07:49:30Z</time></trkpt><trkpt lat="45.70321457430314" lon="9.911994168469471"><ele>627.5</ele><time>2026-04-26T07:49:32Z</time></trkpt><trkpt lat="45.703196375924556" lon="9.912095487431154"><ele>629.0</ele><time>2026-04-26T07:49:48Z</time></trkpt><trkpt lat="45.70315447636427" lon="9.912209841444275"><ele>630.5</ele><time>2026-04-26T07:49:50Z</time></trkpt><trkpt lat="45.70312662611777" lon="9.91230286333207"><ele>632.0</ele><time>2026-04-26T07:49:51Z</time></trkpt><trkpt lat="45.70309681617586" lon="9.912385230954452"><ele>633.5</ele><time>2026-04-26T07:49:52Z</time></trkpt><trkpt lat="45.70308631519839" lon="9.912485981069876"><ele>635.0</ele><time>2026-04-26T07:49:53Z</time></trkpt><trkpt lat="45.703047853228554" lon="9.912652546923173"><ele>637.5</ele><time>2026-04-26T07:49:55Z</time></trkpt><trkpt lat="45.70299603034418" lon="9.912835498178849"><ele>640.0</ele><time>2026-04-26T07:49:57Z</time></trkpt><trkpt lat="45.70297411503717" lon="9.91292922110581"><ele>642.5</ele><time>2026-04-26T07:49:58Z</time></trkpt><trkpt lat="45.70294737427004" lon="9.913042030434188"><ele>645.0</ele><time>2026-04-26T07:49:59Z</time></trkpt><trkpt lat="45.70294155586189" lon="9.913137032054829"><ele>647.5</ele><time>2026-04-26T07:50:00Z</time></trkpt><trkpt lat="45.702947528978065" lon="9.913249056960415"><ele>650.0</ele><time>2026-04-26T07:50:01Z</time></trkpt><trkpt lat="45.702963816135394" lon="9.913358368043012"><ele>649.5</ele><time>2026-04-26T07:50:02Z</time></trkpt><trkpt lat="45.70298324392265" lon="9.913457864684322"><ele>649.0</ele><time>2026-04-26T07:50:03Z</time></trkpt><trkpt lat="45.703000135498634" lon="9.913562582875798"><ele>648.5</ele><time>2026-04-26T07:50:04Z</time></trkpt><trkpt lat="45.703017434731606" lon="9.913655730919503"><ele>648.0</ele><time>2026-04-26T07:50:05Z</time></trkpt><trkpt lat="45.70306800719109" lon="9.91379999114223"><ele>647.5</ele><time>2026-04-26T07:50:06.999Z</time></trkpt><trkpt lat="45.70312574217669" lon="9.913896674219774"><ele>647.0</ele><time>2026-04-26T07:50:08.999Z</time></trkpt><trkpt lat="45.70325016837806" lon="9.913960516287299"><ele>647.0</ele><time>2026-04-26T07:50:10.999Z</time></trkpt><trkpt lat="45.7033349993801" lon="9.914002860070129"><ele>647.0</ele><time>2026-04-26T07:50:11.999Z</time></trkpt><trkpt lat="45.70340704490538" lon="9.914052084364581"><ele>647.0</ele><time>2026-04-26T07:50:12.999Z</time></trkpt><trkpt lat="45.70348258057151" lon="9.91409349458748"><ele>647.0</ele><time>2026-04-26T07:50:13.999Z</time></trkpt><trkpt lat="45.70354681715472" lon="9.914136010781062"><ele>647.0</ele><time>2026-04-26T07:50:14.999Z</time></trkpt><trkpt lat="45.70360861755948" lon="9.914189500970771"><ele>647.0</ele><time>2026-04-26T07:50:15.999Z</time></trkpt><trkpt lat="45.70367272391133" lon="9.914246521977214"><ele>650.6</ele><time>2026-04-26T07:50:16.999Z</time></trkpt><trkpt lat="45.703697594051825" lon="9.91442577662562"><ele>654.2</ele><time>2026-04-26T07:50:18.999Z</time></trkpt><trkpt lat="45.70371145071728" lon="9.914576204422728"><ele>657.8</ele><time>2026-04-26T07:50:19.999Z</time></trkpt><trkpt lat="45.703731674986855" lon="9.914726982288785"><ele>661.4</ele><time>2026-04-26T07:50:20.999Z</time></trkpt><trkpt lat="45.703737074160195" lon="9.914858288252363"><ele>665.0</ele><time>2026-04-26T07:50:21.999Z</time></trkpt><trkpt lat="45.70374206045707" lon="9.91496705962491"><ele>665.0</ele><time>2026-04-26T07:50:22.999Z</time></trkpt><trkpt lat="45.70374987318322" lon="9.91506628363411"><ele>665.0</ele><time>2026-04-26T07:50:23.999Z</time></trkpt><trkpt lat="45.703811983046194" lon="9.915204039852322"><ele>665.0</ele><time>2026-04-26T07:50:25.999Z</time></trkpt><trkpt lat="45.703869896308326" lon="9.91528084049297"><ele>665.0</ele><time>2026-04-26T07:50:26.999Z</time></trkpt><trkpt lat="45.70395321636746" lon="9.91536630344377"><ele>665.0</ele><time>2026-04-26T07:50:28.999Z</time></trkpt><trkpt lat="45.704082211032684" lon="9.915291173961554"><ele>667.5</ele><time>2026-04-26T07:50:30.999Z</time></trkpt><trkpt lat="45.70418339992954" lon="9.915272483577107"><ele>670.0</ele><time>2026-04-26T07:50:31.999Z</time></trkpt><trkpt lat="45.70426056450962" lon="9.915291063765626"><ele>672.5</ele><time>2026-04-26T07:50:32.999Z</time></trkpt><trkpt lat="45.70431540585237" lon="9.915365214230325"><ele>675.0</ele><time>2026-04-26T07:50:33.999Z</time></trkpt><trkpt lat="45.70438089655977" lon="9.915450589451424"><ele>677.5</ele><time>2026-04-26T07:50:34.999Z</time></trkpt><trkpt lat="45.704438361985616" lon="9.915508503218012"><ele>680.0</ele><time>2026-04-26T07:50:35.999Z</time></trkpt><trkpt lat="45.70443576597586" lon="9.915613693553551"><ele>680.0</ele><time>2026-04-26T07:50:37.999Z</time></trkpt><trkpt lat="45.70441783675231" lon="9.91571826189891"><ele>680.0</ele><time>2026-04-26T07:50:38.999Z</time></trkpt><trkpt lat="45.70442371921537" lon="9.915896518845592"><ele>680.0</ele><time>2026-04-26T07:50:39.999Z</time></trkpt><trkpt lat="45.704423393436876" lon="9.91601411813001"><ele>680.0</ele><time>2026-04-26T07:50:40.999Z</time></trkpt><trkpt lat="45.704437169062324" lon="9.916128106170438"><ele>680.0</ele><time>2026-04-26T07:50:41.999Z</time></trkpt><trkpt lat="45.704434866271356" lon="9.916223290380078"><ele>680.0</ele><time>2026-04-26T07:50:42.999Z</time></trkpt><trkpt lat="45.70438499651483" lon="9.91640094775363"><ele>675.3333333333333</ele><time>2026-04-26T07:50:44.999Z</time></trkpt><trkpt lat="45.70438129779475" lon="9.916528553360848"><ele>670.6666666666666</ele><time>2026-04-26T07:50:45.999Z</time></trkpt><trkpt lat="45.704370206178844" lon="9.9166413021431"><ele>666.0</ele><time>2026-04-26T07:50:46.999Z</time></trkpt><trkpt lat="45.70435977200744" lon="9.916760009579981"><ele>661.3333333333334</ele><time>2026-04-26T07:50:47.999Z</time></trkpt><trkpt lat="45.70432401095572" lon="9.91691307791281"><ele>656.6666666666667</ele><time>2026-04-26T07:50:48.999Z</time></trkpt><trkpt lat="45.70431233601645" lon="9.917028414014018"><ele>652.0</ele><time>2026-04-26T07:50:49.999Z</time></trkpt><trkpt lat="45.7043003659094" lon="9.917127255031724"><ele>652.0</ele><time>2026-04-26T07:50:50.999Z</time></trkpt><trkpt lat="45.704262639235914" lon="9.917285988574315"><ele>652.0</ele><time>2026-04-26T07:50:52.999Z</time></trkpt><trkpt lat="45.70427758981898" lon="9.917471540527966"><ele>652.0</ele><time>2026-04-26T07:50:54.999Z</time></trkpt><trkpt lat="45.70429440529367" lon="9.917570794624798"><ele>652.0</ele><time>2026-04-26T07:50:55.999Z</time></trkpt><trkpt lat="45.704311536097144" lon="9.917691507925278"><ele>652.0</ele><time>2026-04-26T07:50:57.999Z</time></trkpt><trkpt lat="45.70438989579236" lon="9.917777499857005"><ele>653.6</ele><time>2026-04-26T07:51:01.999Z</time></trkpt><trkpt lat="45.70438682556967" lon="9.917934873456705"><ele>655.2</ele><time>2026-04-26T07:51:03.999Z</time></trkpt><trkpt lat="45.704366796088486" lon="9.91804685090765"><ele>656.8</ele><time>2026-04-26T07:51:06.999Z</time></trkpt><trkpt lat="45.704398330787335" lon="9.918138243478788"><ele>658.4</ele><time>2026-04-26T07:51:08.998Z</time></trkpt><trkpt lat="45.70437150036975" lon="9.918262133929307"><ele>660.0</ele><time>2026-04-26T07:51:11.998Z</time></trkpt><trkpt lat="45.70433261689535" lon="9.918413104269357"><ele>662.0</ele><time>2026-04-26T07:51:13.998Z</time></trkpt><trkpt lat="45.70430795104" lon="9.918564305069046"><ele>664.0</ele><time>2026-04-26T07:51:14.998Z</time></trkpt><trkpt lat="45.704304835300825" lon="9.918709874145485"><ele>666.0</ele><time>2026-04-26T07:51:15.998Z</time></trkpt><trkpt lat="45.7042842012551" lon="9.91881287542104"><ele>668.0</ele><time>2026-04-26T07:51:16.998Z</time></trkpt><trkpt lat="45.70425986904903" lon="9.918918707912233"><ele>670.0</ele><time>2026-04-26T07:51:17.998Z</time></trkpt><trkpt lat="45.70422970290879" lon="9.919016641997679"><ele>672.0</ele><time>2026-04-26T07:51:18.998Z</time></trkpt><trkpt lat="45.70420171801149" lon="9.919131489459204"><ele>672.0</ele><time>2026-04-26T07:51:19.998Z</time></trkpt><trkpt lat="45.7042064425652" lon="9.919231933227703"><ele>672.0</ele><time>2026-04-26T07:51:21.998Z</time></trkpt><trkpt lat="45.70419044733633" lon="9.919383890305392"><ele>672.0</ele><time>2026-04-26T07:51:23.998Z</time></trkpt><trkpt lat="45.70411331682357" lon="9.919460927925874"><ele>672.0</ele><time>2026-04-26T07:51:26Z</time></trkpt><trkpt lat="45.7040817454076" lon="9.919554452093996"><ele>672.0</ele><time>2026-04-26T07:51:28Z</time></trkpt><trkpt lat="45.70409768071906" lon="9.919824375236304"><ele>671.6666666666666</ele><time>2026-04-26T07:51:30Z</time></trkpt><trkpt lat="45.70410780977112" lon="9.919935326075931"><ele>671.3333333333334</ele><time>2026-04-26T07:51:31Z</time></trkpt><trkpt lat="45.70417714501515" lon="9.920005941073043"><ele>671.0</ele><time>2026-04-26T07:51:33Z</time></trkpt><trkpt lat="45.704248211399644" lon="9.919983103882155"><ele>670.6666666666667</ele><time>2026-04-26T07:51:34Z</time></trkpt><trkpt lat="45.704310829782806" lon="9.92002921896752"><ele>670.3333333333334</ele><time>2026-04-26T07:51:35Z</time></trkpt><trkpt lat="45.70439683629771" lon="9.920044356847104"><ele>670.0</ele><time>2026-04-26T07:51:36Z</time></trkpt><trkpt lat="45.704460804166985" lon="9.920068289804046"><ele>668.4</ele><time>2026-04-26T07:51:37Z</time></trkpt><trkpt lat="45.704529510907896" lon="9.920061548259197"><ele>666.8</ele><time>2026-04-26T07:51:38Z</time></trkpt><trkpt lat="45.70463368893994" lon="9.920088882494372"><ele>665.2</ele><time>2026-04-26T07:51:39Z</time></trkpt><trkpt lat="45.704765237759645" lon="9.92011309881336"><ele>663.6</ele><time>2026-04-26T07:51:40Z</time></trkpt><trkpt lat="45.70488272356933" lon="9.92014578304714"><ele>662.0</ele><time>2026-04-26T07:51:41Z</time></trkpt><trkpt lat="45.7049898812076" lon="9.920151480869785"><ele>662.0</ele><time>2026-04-26T07:51:42Z</time></trkpt><trkpt lat="45.70507917938794" lon="9.920192100718742"><ele>662.0</ele><time>2026-04-26T07:51:43Z</time></trkpt><trkpt lat="45.70516455816346" lon="9.920237697715171"><ele>662.0</ele><time>2026-04-26T07:51:44Z</time></trkpt><trkpt lat="45.705248838852384" lon="9.920291249469045"><ele>662.0</ele><time>2026-04-26T07:51:45Z</time></trkpt><trkpt lat="45.70532628230753" lon="9.920332516630017"><ele>662.0</ele><time>2026-04-26T07:51:46Z</time></trkpt><trkpt lat="45.705386970915576" lon="9.920408186164037"><ele>662.0</ele><time>2026-04-26T07:51:47Z</time></trkpt><trkpt lat="45.70541712703156" lon="9.920549392473053"><ele>664.6666666666666</ele><time>2026-04-26T07:51:48Z</time></trkpt><trkpt lat="45.70545489131167" lon="9.92062537918497"><ele>667.3333333333333</ele><time>2026-04-26T07:51:49Z</time></trkpt><trkpt lat="45.70549581367129" lon="9.920729737046294"><ele>670.0</ele><time>2026-04-26T07:51:50Z</time></trkpt><trkpt lat="45.7055289393491" lon="9.920833205011837"><ele>672.6666666666666</ele><time>2026-04-26T07:51:51Z</time></trkpt><trkpt lat="45.705553213722126" lon="9.920942277522332"><ele>675.3333333333334</ele><time>2026-04-26T07:51:52Z</time></trkpt><trkpt lat="45.7055853662646" lon="9.921072138362021"><ele>678.0</ele><time>2026-04-26T07:51:53Z</time></trkpt><trkpt lat="45.70559431650705" lon="9.921229772138842"><ele>678.0</ele><time>2026-04-26T07:51:54Z</time></trkpt><trkpt lat="45.70560800526142" lon="9.921391139673153"><ele>678.0</ele><time>2026-04-26T07:51:55Z</time></trkpt><trkpt lat="45.70560804714228" lon="9.921540830655573"><ele>678.0</ele><time>2026-04-26T07:51:56Z</time></trkpt><trkpt lat="45.7055969492544" lon="9.921680819079652"><ele>678.0</ele><time>2026-04-26T07:51:57Z</time></trkpt><trkpt lat="45.70559113779585" lon="9.921813092581525"><ele>678.0</ele><time>2026-04-26T07:51:58Z</time></trkpt><trkpt lat="45.70558330992172" lon="9.921946163438186"><ele>678.1666666666666</ele><time>2026-04-26T07:51:59Z</time></trkpt><trkpt lat="45.705581129179194" lon="9.922086012552962"><ele>678.3333333333334</ele><time>2026-04-26T07:52:00Z</time></trkpt><trkpt lat="45.70559487731525" lon="9.922211572068662"><ele>678.5</ele><time>2026-04-26T07:52:01Z</time></trkpt><trkpt lat="45.705610207965" lon="9.922338432301702"><ele>678.6666666666667</ele><time>2026-04-26T07:52:02Z</time></trkpt><trkpt lat="45.7056233998536" lon="9.922434154330965"><ele>678.8333333333334</ele><time>2026-04-26T07:52:03Z</time></trkpt><trkpt lat="45.7056135796802" lon="9.922525659428938"><ele>679.0</ele><time>2026-04-26T07:52:04Z</time></trkpt><trkpt lat="45.70560669714049" lon="9.922625801760052"><ele>680.8333333333334</ele><time>2026-04-26T07:52:05Z</time></trkpt><trkpt lat="45.70560001914752" lon="9.92274185779933"><ele>682.6666666666667</ele><time>2026-04-26T07:52:06Z</time></trkpt><trkpt lat="45.705586367101155" lon="9.92286277773356"><ele>684.5</ele><time>2026-04-26T07:52:07Z</time></trkpt><trkpt lat="45.705573249388834" lon="9.922967085021988"><ele>686.3333333333334</ele><time>2026-04-26T07:52:08Z</time></trkpt><trkpt lat="45.70555285725296" lon="9.923141868442155"><ele>688.1666666666666</ele><time>2026-04-26T07:52:10Z</time></trkpt><trkpt lat="45.705550601532856" lon="9.923241671863067"><ele>690.0</ele><time>2026-04-26T07:52:10.999Z</time></trkpt><trkpt lat="45.70553719210049" lon="9.92334868995157"><ele>691.7142857142858</ele><time>2026-04-26T07:52:11.999Z</time></trkpt><trkpt lat="45.70552289315386" lon="9.92344545223458"><ele>693.4285714285714</ele><time>2026-04-26T07:52:12.999Z</time></trkpt><trkpt lat="45.705525932024514" lon="9.92355702008332"><ele>695.1428571428571</ele><time>2026-04-26T07:52:13.999Z</time></trkpt><trkpt lat="45.70553170464419" lon="9.923661807026395"><ele>696.8571428571429</ele><time>2026-04-26T07:52:14.999Z</time></trkpt><trkpt lat="45.70552979127548" lon="9.923755080027176"><ele>698.5714285714286</ele><time>2026-04-26T07:52:15.999Z</time></trkpt><trkpt lat="45.70551593411236" lon="9.92384653476351"><ele>700.2857142857143</ele><time>2026-04-26T07:52:16.999Z</time></trkpt><trkpt lat="45.705523709181136" lon="9.923940249625856"><ele>702.0</ele><time>2026-04-26T07:52:17.999Z</time></trkpt><trkpt lat="45.70553685390193" lon="9.924029412940312"><ele>702.0</ele><time>2026-04-26T07:52:18.999Z</time></trkpt><trkpt lat="45.705503232740135" lon="9.924202816470425"><ele>702.0</ele><time>2026-04-26T07:52:20.999Z</time></trkpt><trkpt lat="45.70550427198822" lon="9.924298032392176"><ele>702.0</ele><time>2026-04-26T07:52:21.999Z</time></trkpt><trkpt lat="45.70550576965953" lon="9.924393870108627"><ele>702.0</ele><time>2026-04-26T07:52:22.999Z</time></trkpt><trkpt lat="45.70550756723442" lon="9.924517472537962"><ele>702.0</ele><time>2026-04-26T07:52:24.999Z</time></trkpt><trkpt lat="45.70554347342047" lon="9.924682993185588"><ele>702.5</ele><time>2026-04-26T07:52:26.999Z</time></trkpt><trkpt lat="45.70554944415707" lon="9.924781175361547"><ele>703.0</ele><time>2026-04-26T07:52:27.999Z</time></trkpt><trkpt lat="45.70555365580373" lon="9.924873691887903"><ele>703.5</ele><time>2026-04-26T07:52:28.999Z</time></trkpt><trkpt lat="45.70554030311708" lon="9.92496909204248"><ele>704.0</ele><time>2026-04-26T07:52:29.999Z</time></trkpt><trkpt lat="45.70554192705915" lon="9.925148116165005"><ele>704.5</ele><time>2026-04-26T07:52:31.999Z</time></trkpt><trkpt lat="45.70556029319455" lon="9.92524241420941"><ele>705.0</ele><time>2026-04-26T07:52:32.999Z</time></trkpt><trkpt lat="45.70558998318078" lon="9.9253350336757"><ele>705.0</ele><time>2026-04-26T07:52:33.999Z</time></trkpt><trkpt lat="45.70561515751725" lon="9.925421320375005"><ele>705.0</ele><time>2026-04-26T07:52:34.999Z</time></trkpt><trkpt lat="45.705625212878815" lon="9.925515818067016"><ele>705.0</ele><time>2026-04-26T07:52:35.999Z</time></trkpt><trkpt lat="45.70564499494206" lon="9.92566563287516"><ele>705.0</ele><time>2026-04-26T07:52:37.999Z</time></trkpt><trkpt lat="45.70565356951594" lon="9.925782371166898"><ele>705.0</ele><time>2026-04-26T07:52:39.999Z</time></trkpt><trkpt lat="45.70567323075517" lon="9.925898010179589"><ele>705.0</ele><time>2026-04-26T07:52:41.999Z</time></trkpt><trkpt lat="45.70571074769536" lon="9.925986221546474"><ele>703.0</ele><time>2026-04-26T07:52:42.999Z</time></trkpt><trkpt lat="45.705754914111175" lon="9.926088184615736"><ele>701.0</ele><time>2026-04-26T07:52:43.999Z</time></trkpt><trkpt lat="45.705785735576065" lon="9.926258734125604"><ele>699.0</ele><time>2026-04-26T07:52:45.999Z</time></trkpt><trkpt lat="45.7058507534487" lon="9.926429214618805"><ele>697.0</ele><time>2026-04-26T07:52:47.999Z</time></trkpt><trkpt lat="45.70585521782947" lon="9.92653124433985"><ele>695.0</ele><time>2026-04-26T07:52:48.999Z</time></trkpt><trkpt lat="45.70591089697667" lon="9.926654564457328"><ele>693.2</ele><time>2026-04-26T07:52:50.999Z</time></trkpt><trkpt lat="45.70590905272466" lon="9.92678102249735"><ele>691.4</ele><time>2026-04-26T07:52:52.999Z</time></trkpt><trkpt lat="45.70592259580322" lon="9.926934960300454"><ele>689.5999999999999</ele><time>2026-04-26T07:52:54.999Z</time></trkpt><trkpt lat="45.705936227220164" lon="9.927029511474753"><ele>687.8</ele><time>2026-04-26T07:52:56.999Z</time></trkpt><trkpt lat="45.70600913698516" lon="9.927241930727503"><ele>686.0</ele><time>2026-04-26T07:52:58.999Z</time></trkpt><trkpt lat="45.706080267955514" lon="9.927323215166922"><ele>686.0</ele><time>2026-04-26T07:53:00.999Z</time></trkpt><trkpt lat="45.70610527036371" lon="9.927431997040664"><ele>686.0</ele><time>2026-04-26T07:53:02.999Z</time></trkpt><trkpt lat="45.70619525879604" lon="9.92757526496338"><ele>686.0</ele><time>2026-04-26T07:53:04.999Z</time></trkpt><trkpt lat="45.706268204405596" lon="9.927665248426974"><ele>686.0</ele><time>2026-04-26T07:53:05.999Z</time></trkpt><trkpt lat="45.706310896350075" lon="9.927765520126503"><ele>686.0</ele><time>2026-04-26T07:53:06.999Z</time></trkpt><trkpt lat="45.7063534957084" lon="9.927872680064684"><ele>686.1999999999999</ele><time>2026-04-26T07:53:07.999Z</time></trkpt><trkpt lat="45.706396340271965" lon="9.927978144099667"><ele>686.4</ele><time>2026-04-26T07:53:08.999Z</time></trkpt><trkpt lat="45.70644409903859" lon="9.928082387717915"><ele>686.6</ele><time>2026-04-26T07:53:09.999Z</time></trkpt><trkpt lat="45.70649379356703" lon="9.928215590447534"><ele>686.8</ele><time>2026-04-26T07:53:10.999Z</time></trkpt><trkpt lat="45.70654613610587" lon="9.92832049107632"><ele>687.0</ele><time>2026-04-26T07:53:11.998Z</time></trkpt><trkpt lat="45.706603846363464" lon="9.928427551294497"><ele>685.2</ele><time>2026-04-26T07:53:12.998Z</time></trkpt><trkpt lat="45.706670722612635" lon="9.928516812697959"><ele>683.4000000000001</ele><time>2026-04-26T07:53:13.998Z</time></trkpt><trkpt lat="45.706728049541894" lon="9.928618308692203"><ele>681.5999999999999</ele><time>2026-04-26T07:53:14.998Z</time></trkpt><trkpt lat="45.70677887403773" lon="9.928734907998416"><ele>679.8</ele><time>2026-04-26T07:53:15.998Z</time></trkpt><trkpt lat="45.70682223346369" lon="9.92884731034514"><ele>678.0</ele><time>2026-04-26T07:53:16.998Z</time></trkpt><trkpt lat="45.706860402006946" lon="9.928951154549747"><ele>678.0</ele><time>2026-04-26T07:53:17.998Z</time></trkpt><trkpt lat="45.706910221687316" lon="9.929050329001733"><ele>678.0</ele><time>2026-04-26T07:53:18.998Z</time></trkpt><trkpt lat="45.706947741166374" lon="9.929157935836278"><ele>678.0</ele><time>2026-04-26T07:53:19.998Z</time></trkpt><trkpt lat="45.70698847511158" lon="9.929244639061558"><ele>678.0</ele><time>2026-04-26T07:53:20.998Z</time></trkpt><trkpt lat="45.70703757035886" lon="9.92933917851424"><ele>678.0</ele><time>2026-04-26T07:53:22.998Z</time></trkpt><trkpt lat="45.707021404494114" lon="9.929446915020606"><ele>678.0</ele><time>2026-04-26T07:53:25.998Z</time></trkpt><trkpt lat="45.70705179260523" lon="9.929539757175766"><ele>676.5999999999999</ele><time>2026-04-26T07:53:52Z</time></trkpt><trkpt lat="45.70713535796051" lon="9.929591298279687"><ele>675.1999999999999</ele><time>2026-04-26T07:53:55Z</time></trkpt><trkpt lat="45.70725705796897" lon="9.929642481416186"><ele>673.8</ele><time>2026-04-26T07:53:57Z</time></trkpt><trkpt lat="45.7073324733872" lon="9.929717369088701"><ele>672.4</ele><time>2026-04-26T07:53:59Z</time></trkpt><trkpt lat="45.70744701797563" lon="9.92973076597562"><ele>671.0</ele><time>2026-04-26T07:54:01Z</time></trkpt><trkpt lat="45.70752765238773" lon="9.929675464093238"><ele>671.0</ele><time>2026-04-26T07:54:02Z</time></trkpt><trkpt lat="45.70762024177321" lon="9.929686054246517"><ele>671.0</ele><time>2026-04-26T07:54:03Z</time></trkpt><trkpt lat="45.70771669006093" lon="9.929695233917638"><ele>671.0</ele><time>2026-04-26T07:54:04Z</time></trkpt><trkpt lat="45.70781950691669" lon="9.9296604305001"><ele>671.0</ele><time>2026-04-26T07:54:05Z</time></trkpt><trkpt lat="45.70792381398432" lon="9.929643261207591"><ele>671.0</ele><time>2026-04-26T07:54:06Z</time></trkpt><trkpt lat="45.7080264690799" lon="9.92961734031973"><ele>676.1999999999999</ele><time>2026-04-26T07:54:07Z</time></trkpt><trkpt lat="45.70812386523034" lon="9.929596750404455"><ele>681.4</ele><time>2026-04-26T07:54:08Z</time></trkpt><trkpt lat="45.70821384797895" lon="9.929579449900517"><ele>686.6</ele><time>2026-04-26T07:54:09Z</time></trkpt><trkpt lat="45.708300788457365" lon="9.929543457423392"><ele>691.8</ele><time>2026-04-26T07:54:10Z</time></trkpt><trkpt lat="45.70837309440707" lon="9.929475966188152"><ele>697.0</ele><time>2026-04-26T07:54:11Z</time></trkpt><trkpt lat="45.70844894634476" lon="9.92938701860278"><ele>697.0</ele><time>2026-04-26T07:54:12Z</time></trkpt><trkpt lat="45.708534274233024" lon="9.929268953876047"><ele>697.0</ele><time>2026-04-26T07:54:13Z</time></trkpt><trkpt lat="45.70859958039865" lon="9.929183028455757"><ele>697.0</ele><time>2026-04-26T07:54:14Z</time></trkpt><trkpt lat="45.708679349303246" lon="9.929091610803368"><ele>697.0</ele><time>2026-04-26T07:54:15Z</time></trkpt><trkpt lat="45.70875503944956" lon="9.928994431576879"><ele>697.0</ele><time>2026-04-26T07:54:16Z</time></trkpt><trkpt lat="45.70884322307471" lon="9.928903434017803"><ele>706.5</ele><time>2026-04-26T07:54:17Z</time></trkpt><trkpt lat="45.708935838790495" lon="9.928822503068936"><ele>716.0</ele><time>2026-04-26T07:54:17.999Z</time></trkpt><trkpt lat="45.70905723765183" lon="9.92876351620424"><ele>725.5</ele><time>2026-04-26T07:54:18.999Z</time></trkpt><trkpt lat="45.70917856908657" lon="9.928691293891626"><ele>735.0</ele><time>2026-04-26T07:54:19.999Z</time></trkpt><trkpt lat="45.70930359221037" lon="9.92861957334305"><ele>736.25</ele><time>2026-04-26T07:54:20.999Z</time></trkpt><trkpt lat="45.70942632724883" lon="9.928542831003549"><ele>737.5</ele><time>2026-04-26T07:54:21.999Z</time></trkpt><trkpt lat="45.709548459755545" lon="9.928447194698693"><ele>738.75</ele><time>2026-04-26T07:54:22.999Z</time></trkpt><trkpt lat="45.70967471112323" lon="9.92832493148036"><ele>740.0</ele><time>2026-04-26T07:54:23.999Z</time></trkpt><trkpt lat="45.70979724719423" lon="9.92819645116994"><ele>740.0</ele><time>2026-04-26T07:54:24.999Z</time></trkpt><trkpt lat="45.709922718090866" lon="9.928075419254482"><ele>740.0</ele><time>2026-04-26T07:54:25.999Z</time></trkpt><trkpt lat="45.71003093531872" lon="9.927979098456076"><ele>740.0</ele><time>2026-04-26T07:54:26.999Z</time></trkpt><trkpt lat="45.71011395385505" lon="9.927904913100848"><ele>740.0</ele><time>2026-04-26T07:54:27.999Z</time></trkpt><trkpt lat="45.71019700982408" lon="9.927854546017842"><ele>740.0</ele><time>2026-04-26T07:54:28.999Z</time></trkpt><trkpt lat="45.710269240024765" lon="9.927902936664301"><ele>740.0</ele><time>2026-04-26T07:54:30.999Z</time></trkpt><trkpt lat="45.710258198682105" lon="9.927995352942586"><ele>740.0</ele><time>2026-04-26T07:54:32.999Z</time></trkpt><trkpt lat="45.710157174663216" lon="9.928126579631497"><ele>740.0</ele><time>2026-04-26T07:54:33.999Z</time></trkpt><trkpt lat="45.71010327243165" lon="9.92824772246341"><ele>740.0</ele><time>2026-04-26T07:54:34.999Z</time></trkpt><trkpt lat="45.71004982716497" lon="9.928404933237994"><ele>745.0</ele><time>2026-04-26T07:54:35.999Z</time></trkpt><trkpt lat="45.71000753952093" lon="9.928570609614617"><ele>750.0</ele><time>2026-04-26T07:54:36.999Z</time></trkpt><trkpt lat="45.7100246720253" lon="9.928694501099192"><ele>755.0</ele><time>2026-04-26T07:54:37.999Z</time></trkpt><trkpt lat="45.710058164945266" lon="9.92880741130017"><ele>760.0</ele><time>2026-04-26T07:54:38.999Z</time></trkpt><trkpt lat="45.710109936929726" lon="9.928937926691246"><ele>765.0</ele><time>2026-04-26T07:54:39.999Z</time></trkpt><trkpt lat="45.71018639533199" lon="9.929055428733514"><ele>767.0</ele><time>2026-04-26T07:54:40.999Z</time></trkpt><trkpt lat="45.71026414606048" lon="9.929173810969596"><ele>769.0</ele><time>2026-04-26T07:54:41.999Z</time></trkpt><trkpt lat="45.71035483470856" lon="9.929293520876719"><ele>771.0</ele><time>2026-04-26T07:54:42.999Z</time></trkpt><trkpt lat="45.71045832408463" lon="9.929376143719722"><ele>773.0</ele><time>2026-04-26T07:54:43.999Z</time></trkpt><trkpt lat="45.710573604693" lon="9.929410434566677"><ele>773.0</ele><time>2026-04-26T07:54:44.999Z</time></trkpt><trkpt lat="45.71066752402153" lon="9.929376864234571"><ele>773.0</ele><time>2026-04-26T07:54:45.999Z</time></trkpt><trkpt lat="45.710745318402005" lon="9.929323249587604"><ele>773.0</ele><time>2026-04-26T07:54:46.999Z</time></trkpt><trkpt lat="45.71086279019411" lon="9.929274471821167"><ele>773.0</ele><time>2026-04-26T07:54:47.999Z</time></trkpt><trkpt lat="45.71095557677456" lon="9.929227162225827"><ele>773.0</ele><time>2026-04-26T07:54:48.999Z</time></trkpt><trkpt lat="45.711049343315814" lon="9.92919643104608"><ele>784.5</ele><time>2026-04-26T07:54:49.999Z</time></trkpt><trkpt lat="45.711167721824225" lon="9.929235326217604"><ele>796.0</ele><time>2026-04-26T07:54:50.999Z</time></trkpt><trkpt lat="45.71129342175731" lon="9.929320338780013"><ele>807.5</ele><time>2026-04-26T07:54:51.999Z</time></trkpt><trkpt lat="45.71139423876638" lon="9.92931784252203"><ele>819.0</ele><time>2026-04-26T07:54:52.999Z</time></trkpt><trkpt lat="45.71149941316926" lon="9.929273800586321"><ele>820.25</ele><time>2026-04-26T07:54:53.999Z</time></trkpt><trkpt lat="45.71163025693088" lon="9.929194376486855"><ele>821.5</ele><time>2026-04-26T07:54:54.999Z</time></trkpt><trkpt lat="45.711739679933906" lon="9.929095665611595"><ele>822.75</ele><time>2026-04-26T07:54:55.999Z</time></trkpt><trkpt lat="45.711813732672816" lon="9.928972815482654"><ele>824.0</ele><time>2026-04-26T07:54:56.999Z</time></trkpt><trkpt lat="45.71191429518023" lon="9.928839553708142"><ele>824.0</ele><time>2026-04-26T07:54:57.999Z</time></trkpt><trkpt lat="45.71202114484942" lon="9.928731732903138"><ele>824.0</ele><time>2026-04-26T07:54:58.999Z</time></trkpt><trkpt lat="45.71211769309838" lon="9.928635458417567"><ele>824.0</ele><time>2026-04-26T07:54:59.999Z</time></trkpt><trkpt lat="45.712217589103815" lon="9.92852796389111"><ele>824.0</ele><time>2026-04-26T07:55:00.999Z</time></trkpt><trkpt lat="45.712303929885906" lon="9.928415130237594"><ele>818.5</ele><time>2026-04-26T07:55:01.999Z</time></trkpt><trkpt lat="45.71236422551317" lon="9.92830844391079"><ele>813.0</ele><time>2026-04-26T07:55:02.999Z</time></trkpt><trkpt lat="45.71241638184332" lon="9.928152377039345"><ele>807.5</ele><time>2026-04-26T07:55:03.999Z</time></trkpt><trkpt lat="45.712454604036076" lon="9.927959290087083"><ele>802.0</ele><time>2026-04-26T07:55:04.999Z</time></trkpt><trkpt lat="45.71248408298409" lon="9.927746332305722"><ele>802.0</ele><time>2026-04-26T07:55:05.999Z</time></trkpt><trkpt lat="45.7125489479205" lon="9.927572533036589"><ele>802.0</ele><time>2026-04-26T07:55:06.999Z</time></trkpt><trkpt lat="45.7126058530856" lon="9.927448370268943"><ele>802.0</ele><time>2026-04-26T07:55:07.999Z</time></trkpt><trkpt lat="45.71266630025956" lon="9.927331084305148"><ele>802.0</ele><time>2026-04-26T07:55:08.999Z</time></trkpt><trkpt lat="45.712728828886576" lon="9.927228841878067"><ele>802.0</ele><time>2026-04-26T07:55:09.999Z</time></trkpt><trkpt lat="45.71279978474528" lon="9.9271225059076"><ele>802.0</ele><time>2026-04-26T07:55:10.999Z</time></trkpt><trkpt lat="45.71288527471143" lon="9.92700788220451"><ele>802.0</ele><time>2026-04-26T07:55:11.999Z</time></trkpt><trkpt lat="45.71298436009855" lon="9.926882968006426"><ele>802.0</ele><time>2026-04-26T07:55:12.999Z</time></trkpt><trkpt lat="45.71309444932664" lon="9.926801533385753"><ele>802.0</ele><time>2026-04-26T07:55:13.999Z</time></trkpt><trkpt lat="45.71319533684531" lon="9.926723805275971"><ele>802.0</ele><time>2026-04-26T07:55:14.999Z</time></trkpt><trkpt lat="45.71329601391923" lon="9.926678149747575"><ele>802.0</ele><time>2026-04-26T07:55:15.999Z</time></trkpt><trkpt lat="45.713376580087086" lon="9.926659067333125"><ele>802.0</ele><time>2026-04-26T07:55:16.999Z</time></trkpt><trkpt lat="45.71349609069681" lon="9.92663938969487"><ele>802.0</ele><time>2026-04-26T07:55:17.999Z</time></trkpt><trkpt lat="45.7136370239996" lon="9.926618835720129"><ele>802.0</ele><time>2026-04-26T07:55:18.998Z</time></trkpt><trkpt lat="45.7137832180234" lon="9.926549756561295"><ele>810.6666666666666</ele><time>2026-04-26T07:55:19.998Z</time></trkpt><trkpt lat="45.7139220431951" lon="9.926489724045487"><ele>819.3333333333333</ele><time>2026-04-26T07:55:20.998Z</time></trkpt><trkpt lat="45.71407531120638" lon="9.92645004016742"><ele>828.0</ele><time>2026-04-26T07:55:21.998Z</time></trkpt><trkpt lat="45.71423584695631" lon="9.926381831807705"><ele>828.0</ele><time>2026-04-26T07:55:22.998Z</time></trkpt><trkpt lat="45.714377922645866" lon="9.926302464485362"><ele>828.0</ele><time>2026-04-26T07:55:23.998Z</time></trkpt><trkpt lat="45.714492217067175" lon="9.926192289818351"><ele>828.0</ele><time>2026-04-26T07:55:24.998Z</time></trkpt><trkpt lat="45.7145819681788" lon="9.926074336005518"><ele>828.0</ele><time>2026-04-26T07:55:25.998Z</time></trkpt><trkpt lat="45.71467422189143" lon="9.925982420860496"><ele>829.25</ele><time>2026-04-26T07:55:26.998Z</time></trkpt><trkpt lat="45.71478395211699" lon="9.925955389887104"><ele>830.5</ele><time>2026-04-26T07:55:27.998Z</time></trkpt><trkpt lat="45.71493585592149" lon="9.92593020777692"><ele>831.75</ele><time>2026-04-26T07:55:28.998Z</time></trkpt><trkpt lat="45.715073645551506" lon="9.925850014233617"><ele>833.0</ele><time>2026-04-26T07:55:29.998Z</time></trkpt><trkpt lat="45.71522701588758" lon="9.925825094024358"><ele>837.4</ele><time>2026-04-26T07:55:30.998Z</time></trkpt><trkpt lat="45.71536550073247" lon="9.92580255948952"><ele>841.8</ele><time>2026-04-26T07:55:31.998Z</time></trkpt><trkpt lat="45.715484420907416" lon="9.92577695977232"><ele>846.2</ele><time>2026-04-26T07:55:32.998Z</time></trkpt><trkpt lat="45.71556245454455" lon="9.92572928683728"><ele>850.6</ele><time>2026-04-26T07:55:33.998Z</time></trkpt><trkpt lat="45.71561608244856" lon="9.925654732068638"><ele>855.0</ele><time>2026-04-26T07:55:34.998Z</time></trkpt><trkpt lat="45.71566378878211" lon="9.92559075269358"><ele>855.0</ele><time>2026-04-26T07:55:35.998Z</time></trkpt><trkpt lat="45.71571277670746" lon="9.92553188667354"><ele>855.0</ele><time>2026-04-26T07:55:36.998Z</time></trkpt><trkpt lat="45.71576347338653" lon="9.925470944671261"><ele>855.0</ele><time>2026-04-26T07:55:38Z</time></trkpt><trkpt lat="45.715843239735015" lon="9.925376238302626"><ele>855.0</ele><time>2026-04-26T07:55:39Z</time></trkpt><trkpt lat="45.715905451157674" lon="9.925336590584116"><ele>855.0</ele><time>2026-04-26T07:55:40Z</time></trkpt><trkpt lat="45.71597883593855" lon="9.925369751678309"><ele>855.0</ele><time>2026-04-26T07:55:41Z</time></trkpt><trkpt lat="45.71607922625027" lon="9.925426156012916"><ele>855.0</ele><time>2026-04-26T07:55:42Z</time></trkpt><trkpt lat="45.716161984446764" lon="9.925489868602781"><ele>855.0</ele><time>2026-04-26T07:55:43Z</time></trkpt><trkpt lat="45.716222224387295" lon="9.925572144508834"><ele>855.0</ele><time>2026-04-26T07:55:44Z</time></trkpt><trkpt lat="45.716275449173544" lon="9.925658829020747"><ele>855.0</ele><time>2026-04-26T07:55:45Z</time></trkpt><trkpt lat="45.71632135917086" lon="9.9257628107896"><ele>855.0</ele><time>2026-04-26T07:55:46Z</time></trkpt><trkpt lat="45.7163629186978" lon="9.925882109887366"><ele>855.0</ele><time>2026-04-26T07:55:47Z</time></trkpt><trkpt lat="45.71640775948719" lon="9.926026429582377"><ele>857.8</ele><time>2026-04-26T07:55:48Z</time></trkpt><trkpt lat="45.716463136003455" lon="9.926092567493809"><ele>860.6</ele><time>2026-04-26T07:55:49Z</time></trkpt><trkpt lat="45.716561146549786" lon="9.926201408624872"><ele>863.4000000000001</ele><time>2026-04-26T07:55:51Z</time></trkpt><trkpt lat="45.716656492176114" lon="9.926288090929285"><ele>866.2</ele><time>2026-04-26T07:55:52Z</time></trkpt><trkpt lat="45.71674664751944" lon="9.926379468189321"><ele>869.0</ele><time>2026-04-26T07:55:53Z</time></trkpt><trkpt lat="45.716802705985806" lon="9.926439771132042"><ele>869.0</ele><time>2026-04-26T07:55:54Z</time></trkpt><trkpt lat="45.716850586595676" lon="9.926578593734884"><ele>869.0</ele><time>2026-04-26T07:55:55Z</time></trkpt><trkpt lat="45.71693578260844" lon="9.926701871175357"><ele>869.0</ele><time>2026-04-26T07:55:56Z</time></trkpt><trkpt lat="45.71699588775355" lon="9.926857015605243"><ele>869.0</ele><time>2026-04-26T07:55:57Z</time></trkpt><trkpt lat="45.71704381861986" lon="9.92698531896692"><ele>868.0000000000001</ele><time>2026-04-26T07:55:58Z</time></trkpt><trkpt lat="45.717097594719604" lon="9.927089557651687"><ele>867.0</ele><time>2026-04-26T07:55:59Z</time></trkpt><trkpt lat="45.71713997445959" lon="9.927188474521273"><ele>866.0</ele><time>2026-04-26T07:56:00Z</time></trkpt><trkpt lat="45.717166889393795" lon="9.927286898543452"><ele>865.0</ele><time>2026-04-26T07:56:01Z</time></trkpt><trkpt lat="45.717203229773986" lon="9.927427506013627"><ele>864.0000000000001</ele><time>2026-04-26T07:56:03Z</time></trkpt><trkpt lat="45.71725801805245" lon="9.927518224395035"><ele>863.0</ele><time>2026-04-26T07:56:05Z</time></trkpt><trkpt lat="45.717333925321135" lon="9.927629334195247"><ele>865.8</ele><time>2026-04-26T07:56:07Z</time></trkpt><trkpt lat="45.71737153340695" lon="9.92774091872729"><ele>868.5999999999999</ele><time>2026-04-26T07:56:09Z</time></trkpt><trkpt lat="45.71740082962322" lon="9.92789552502916"><ele>871.4000000000001</ele><time>2026-04-26T07:56:10Z</time></trkpt><trkpt lat="45.71743183116022" lon="9.928054722055458"><ele>874.2</ele><time>2026-04-26T07:56:11Z</time></trkpt><trkpt lat="45.71748117458664" lon="9.92817361633691"><ele>877.0</ele><time>2026-04-26T07:56:12Z</time></trkpt><trkpt lat="45.7175353925546" lon="9.928229384603396"><ele>877.0</ele><time>2026-04-26T07:56:13Z</time></trkpt><trkpt lat="45.71764408671415" lon="9.92827806586583"><ele>877.0</ele><time>2026-04-26T07:56:15Z</time></trkpt><trkpt lat="45.7177532078776" lon="9.92835076459072"><ele>877.0</ele><time>2026-04-26T07:56:17Z</time></trkpt><trkpt lat="45.71782070085629" lon="9.928437353703208"><ele>877.0</ele><time>2026-04-26T07:56:18Z</time></trkpt><trkpt lat="45.71785551389136" lon="9.928554765868748"><ele>877.0</ele><time>2026-04-26T07:56:18.999Z</time></trkpt><trkpt lat="45.71791885114726" lon="9.928662731496734"><ele>878.8333333333333</ele><time>2026-04-26T07:56:20.999Z</time></trkpt><trkpt lat="45.71798219794113" lon="9.928686799837445"><ele>880.6666666666666</ele><time>2026-04-26T07:56:21.999Z</time></trkpt><trkpt lat="45.718060458188845" lon="9.928707592915025"><ele>882.5</ele><time>2026-04-26T07:56:22.999Z</time></trkpt><trkpt lat="45.71812765901621" lon="9.928765611484863"><ele>884.3333333333333</ele><time>2026-04-26T07:56:23.999Z</time></trkpt><trkpt lat="45.71819483218083" lon="9.92881284137818"><ele>886.1666666666666</ele><time>2026-04-26T07:56:24.999Z</time></trkpt><trkpt lat="45.71826676766486" lon="9.928810502395363"><ele>888.0</ele><time>2026-04-26T07:56:25.999Z</time></trkpt><trkpt lat="45.7183848457678" lon="9.928887131415113"><ele>888.0</ele><time>2026-04-26T07:56:27.999Z</time></trkpt><trkpt lat="45.718457197385916" lon="9.928946855647272"><ele>888.0</ele><time>2026-04-26T07:56:28.999Z</time></trkpt><trkpt lat="45.718564866966055" lon="9.928923576409762"><ele>888.0</ele><time>2026-04-26T07:56:30.999Z</time></trkpt><trkpt lat="45.718647716269494" lon="9.928891966758204"><ele>888.0</ele><time>2026-04-26T07:56:32.999Z</time></trkpt><trkpt lat="45.71872885242477" lon="9.928922124031171"><ele>888.0</ele><time>2026-04-26T07:56:34.999Z</time></trkpt><trkpt lat="45.71881671951267" lon="9.928912554087365"><ele>890.0</ele><time>2026-04-26T07:56:36.999Z</time></trkpt><trkpt lat="45.718897471687896" lon="9.928999567681739"><ele>892.0</ele><time>2026-04-26T07:56:38.999Z</time></trkpt><trkpt lat="45.718922357770815" lon="9.929092521325018"><ele>894.0</ele><time>2026-04-26T07:56:39.999Z</time></trkpt><trkpt lat="45.71899210019597" lon="9.929247717054194"><ele>896.0</ele><time>2026-04-26T07:56:41.999Z</time></trkpt><trkpt lat="45.71904196701338" lon="9.929328272720147"><ele>898.0</ele><time>2026-04-26T07:56:42.999Z</time></trkpt><trkpt lat="45.71910746596374" lon="9.929451096520191"><ele>898.0</ele><time>2026-04-26T07:56:44.999Z</time></trkpt><trkpt lat="45.71915967897057" lon="9.929581195269625"><ele>898.0</ele><time>2026-04-26T07:56:48.999Z</time></trkpt><trkpt lat="45.71928599389489" lon="9.929784594151535"><ele>898.0</ele><time>2026-04-26T07:56:49.999Z</time></trkpt><trkpt lat="45.71934803110289" lon="9.92989509890115"><ele>898.0</ele><time>2026-04-26T07:56:52.999Z</time></trkpt><trkpt lat="45.71942729984199" lon="9.929961714625449"><ele>895.6666666666666</ele><time>2026-04-26T07:56:54.999Z</time></trkpt><trkpt lat="45.71949140277775" lon="9.930003874975595"><ele>893.3333333333333</ele><time>2026-04-26T07:56:56.999Z</time></trkpt><trkpt lat="45.71954022773368" lon="9.930070533618354"><ele>891.0</ele><time>2026-04-26T07:57:08.999Z</time></trkpt><trkpt lat="45.7195880361332" lon="9.930185206856256"><ele>888.6666666666667</ele><time>2026-04-26T07:57:10.999Z</time></trkpt><trkpt lat="45.719626463747524" lon="9.930281231588982"><ele>886.3333333333334</ele><time>2026-04-26T07:57:19.998Z</time></trkpt><trkpt lat="45.71965271649385" lon="9.930369288757507"><ele>884.0</ele><time>2026-04-26T07:57:26.998Z</time></trkpt><trkpt lat="45.719671122415036" lon="9.930483056554348"><ele>884.0</ele><time>2026-04-26T07:57:28.998Z</time></trkpt><trkpt lat="45.719710851614636" lon="9.930589030496737"><ele>884.0000000000001</ele><time>2026-04-26T07:57:33.998Z</time></trkpt><trkpt lat="45.71973151788424" lon="9.930705486092902"><ele>884.0000000000001</ele><time>2026-04-26T07:57:36.998Z</time></trkpt><trkpt lat="45.71977124273715" lon="9.930843248784011"><ele>884.0</ele><time>2026-04-26T07:57:38.998Z</time></trkpt><trkpt lat="45.71977677582568" lon="9.930950923628172"><ele>884.0</ele><time>2026-04-26T07:57:40.998Z</time></trkpt><trkpt lat="45.71980568433332" lon="9.931101928570307"><ele>885.1666666666667</ele><time>2026-04-26T07:57:42.998Z</time></trkpt><trkpt lat="45.719823536073385" lon="9.931220539979087"><ele>886.3333333333334</ele><time>2026-04-26T07:57:46Z</time></trkpt><trkpt lat="45.71983454614706" lon="9.931344792193386"><ele>887.5</ele><time>2026-04-26T07:57:48Z</time></trkpt><trkpt lat="45.71984119849387" lon="9.931456069377102"><ele>888.6666666666667</ele><time>2026-04-26T07:57:51Z</time></trkpt><trkpt lat="45.7198501676229" lon="9.931551658137021"><ele>889.8333333333334</ele><time>2026-04-26T07:57:55Z</time></trkpt><trkpt lat="45.719874035150035" lon="9.931635681134326"><ele>891.0</ele><time>2026-04-26T07:57:57Z</time></trkpt><trkpt lat="45.71986966155406" lon="9.931745245353435"><ele>895.0</ele><time>2026-04-26T07:58:00Z</time></trkpt><trkpt lat="45.71988414250285" lon="9.931861082604783"><ele>898.9999999999999</ele><time>2026-04-26T07:58:07Z</time></trkpt><trkpt lat="45.71991072137107" lon="9.932009412585975"><ele>902.9999999999999</ele><time>2026-04-26T07:58:09Z</time></trkpt><trkpt lat="45.71996221435002" lon="9.932102870910166"><ele>907.0</ele><time>2026-04-26T07:58:10Z</time></trkpt><trkpt lat="45.72005087996598" lon="9.93212409539437"><ele>911.0</ele><time>2026-04-26T07:58:12Z</time></trkpt><trkpt lat="45.720134178360475" lon="9.932200700998182"><ele>911.0000000000001</ele><time>2026-04-26T07:58:15Z</time></trkpt><trkpt lat="45.720207187663675" lon="9.932265015658743"><ele>911.0</ele><time>2026-04-26T07:58:17Z</time></trkpt><trkpt lat="45.72026661803162" lon="9.932317676710129"><ele>911.0</ele><time>2026-04-26T07:58:19Z</time></trkpt><trkpt lat="45.72032974413887" lon="9.93236467332297"><ele>911.0</ele><time>2026-04-26T07:58:22Z</time></trkpt><trkpt lat="45.72037511465683" lon="9.932292255208194"><ele>911.0000000000001</ele><time>2026-04-26T07:58:33.999Z</time></trkpt><trkpt lat="45.720492351570414" lon="9.93236758216455"><ele>911.0</ele><time>2026-04-26T07:58:35.999Z</time></trkpt><trkpt lat="45.72054451815839" lon="9.932419991145087"><ele>912.0000000000001</ele><time>2026-04-26T07:58:36.999Z</time></trkpt><trkpt lat="45.720623037213514" lon="9.93250815524193"><ele>913.0</ele><time>2026-04-26T07:58:38.999Z</time></trkpt><trkpt lat="45.72071242502773" lon="9.932589204065183"><ele>914.0</ele><time>2026-04-26T07:58:40.999Z</time></trkpt><trkpt lat="45.72076809778291" lon="9.932631593585834"><ele>915.0</ele><time>2026-04-26T07:58:41.999Z</time></trkpt><trkpt lat="45.72081431094619" lon="9.93270538135132"><ele>916.0000000000001</ele><time>2026-04-26T07:58:42.999Z</time></trkpt><trkpt lat="45.72085696716528" lon="9.932785759421032"><ele>917.0</ele><time>2026-04-26T07:58:43.999Z</time></trkpt><trkpt lat="45.720894282832504" lon="9.932861917358107"><ele>917.0000000000001</ele><time>2026-04-26T07:58:44.999Z</time></trkpt><trkpt lat="45.72093040259001" lon="9.932957184934683"><ele>917.0</ele><time>2026-04-26T07:58:45.999Z</time></trkpt><trkpt lat="45.7209667668781" lon="9.933059292311686"><ele>917.0</ele><time>2026-04-26T07:58:46.999Z</time></trkpt><trkpt lat="45.7210137771398" lon="9.933177009928837"><ele>917.0</ele><time>2026-04-26T07:58:47.999Z</time></trkpt><trkpt lat="45.72105018480154" lon="9.933296207829752"><ele>917.0000000000001</ele><time>2026-04-26T07:58:48.999Z</time></trkpt><trkpt lat="45.721082436434834" lon="9.933406249748508"><ele>917.0</ele><time>2026-04-26T07:58:49.999Z</time></trkpt><trkpt lat="45.7211738633493" lon="9.933463555548617"><ele>918.8</ele><time>2026-04-26T07:58:51.999Z</time></trkpt><trkpt lat="45.72127100119349" lon="9.933456602573385"><ele>920.6</ele><time>2026-04-26T07:58:52.999Z</time></trkpt><trkpt lat="45.72136394447175" lon="9.933476783204648"><ele>922.3999999999999</ele><time>2026-04-26T07:58:53.999Z</time></trkpt><trkpt lat="45.72144808716586" lon="9.933509332193175"><ele>924.1999999999999</ele><time>2026-04-26T07:58:54.999Z</time></trkpt><trkpt lat="45.721542533044435" lon="9.933538849409878"><ele>926.0</ele><time>2026-04-26T07:58:55.999Z</time></trkpt><trkpt lat="45.72162191378316" lon="9.9335813696294"><ele>926.0</ele><time>2026-04-26T07:58:56.999Z</time></trkpt><trkpt lat="45.72170002477432" lon="9.933631667375332"><ele>925.9999999999999</ele><time>2026-04-26T07:58:57.999Z</time></trkpt><trkpt lat="45.72182916411419" lon="9.933699319709346"><ele>925.9999999999999</ele><time>2026-04-26T07:58:59.999Z</time></trkpt><trkpt lat="45.72190157606426" lon="9.933821798703445"><ele>926.0</ele><time>2026-04-26T07:59:01.999Z</time></trkpt><trkpt lat="45.72194882608472" lon="9.933893794220626"><ele>926.0</ele><time>2026-04-26T07:59:02.999Z</time></trkpt><trkpt lat="45.72200692304084" lon="9.933948738415697"><ele>924.6666666666667</ele><time>2026-04-26T07:59:03.999Z</time></trkpt><trkpt lat="45.72206131720323" lon="9.934037705732681"><ele>923.3333333333334</ele><time>2026-04-26T07:59:04.999Z</time></trkpt><trkpt lat="45.7221080253238" lon="9.93413997806923"><ele>922.0</ele><time>2026-04-26T07:59:05.999Z</time></trkpt><trkpt lat="45.7221635825962" lon="9.93423175205164"><ele>920.6666666666667</ele><time>2026-04-26T07:59:06.999Z</time></trkpt><trkpt lat="45.72223237609852" lon="9.93429712682086"><ele>919.3333333333334</ele><time>2026-04-26T07:59:07.999Z</time></trkpt><trkpt lat="45.722274853191045" lon="9.934364187633406"><ele>918.0</ele><time>2026-04-26T07:59:08.999Z</time></trkpt><trkpt lat="45.72231482348059" lon="9.934442983305743"><ele>918.0</ele><time>2026-04-26T07:59:09.999Z</time></trkpt><trkpt lat="45.72237791926028" lon="9.93453516940051"><ele>918.0</ele><time>2026-04-26T07:59:10.999Z</time></trkpt><trkpt lat="45.72240042395986" lon="9.934651770190582"><ele>918.0</ele><time>2026-04-26T07:59:11.999Z</time></trkpt><trkpt lat="45.72244071774785" lon="9.934780620150628"><ele>918.0</ele><time>2026-04-26T07:59:12.999Z</time></trkpt><trkpt lat="45.722457185833434" lon="9.934887313459802"><ele>918.0</ele><time>2026-04-26T07:59:13.999Z</time></trkpt><trkpt lat="45.722511855349545" lon="9.935014673800431"><ele>920.5999999999999</ele><time>2026-04-26T07:59:15.999Z</time></trkpt><trkpt lat="45.72253262223969" lon="9.93512526150335"><ele>923.1999999999999</ele><time>2026-04-26T07:59:17.999Z</time></trkpt><trkpt lat="45.72255207055818" lon="9.935266828698088"><ele>925.8</ele><time>2026-04-26T07:59:19.999Z</time></trkpt><trkpt lat="45.72257405797903" lon="9.935446346352453"><ele>928.4</ele><time>2026-04-26T07:59:21.999Z</time></trkpt><trkpt lat="45.722593383779476" lon="9.935549910347582"><ele>931.0</ele><time>2026-04-26T07:59:22.999Z</time></trkpt><trkpt lat="45.72258664975075" lon="9.93565588967423"><ele>930.9999999999999</ele><time>2026-04-26T07:59:23.999Z</time></trkpt><trkpt lat="45.72257360923372" lon="9.935773918545047"><ele>931.0</ele><time>2026-04-26T07:59:24.999Z</time></trkpt><trkpt lat="45.72258717562296" lon="9.935882259232903"><ele>931.0</ele><time>2026-04-26T07:59:25.999Z</time></trkpt><trkpt lat="45.722607790941616" lon="9.936015972095483"><ele>931.0</ele><time>2026-04-26T07:59:26.999Z</time></trkpt><trkpt lat="45.722619578140865" lon="9.936125119749317"><ele>930.9999999999999</ele><time>2026-04-26T07:59:27.998Z</time></trkpt><trkpt lat="45.72261299661624" lon="9.936265194909524"><ele>931.0</ele><time>2026-04-26T07:59:29.998Z</time></trkpt><trkpt lat="45.722617188246836" lon="9.936411396266971"><ele>931.4</ele><time>2026-04-26T07:59:31.998Z</time></trkpt><trkpt lat="45.72260852180243" lon="9.936503529086728"><ele>931.8</ele><time>2026-04-26T07:59:32.998Z</time></trkpt><trkpt lat="45.72263172323217" lon="9.936650254691994"><ele>932.1999999999999</ele><time>2026-04-26T07:59:34.998Z</time></trkpt><trkpt lat="45.72263429678629" lon="9.936802649808616"><ele>932.5999999999999</ele><time>2026-04-26T07:59:36.998Z</time></trkpt><trkpt lat="45.72272646695569" lon="9.936922832730799"><ele>933.0</ele><time>2026-04-26T07:59:38.998Z</time></trkpt><trkpt lat="45.72277386152064" lon="9.937013280838176"><ele>933.0</ele><time>2026-04-26T07:59:39.998Z</time></trkpt><trkpt lat="45.72281272924647" lon="9.937122181450617"><ele>933.0</ele><time>2026-04-26T07:59:41.998Z</time></trkpt><trkpt lat="45.72286590304692" lon="9.937171406402271"><ele>933.0</ele><time>2026-04-26T07:59:43.998Z</time></trkpt><trkpt lat="45.72290812617864" lon="9.937270164111252"><ele>933.0</ele><time>2026-04-26T07:59:46.998Z</time></trkpt><trkpt lat="45.72304752597657" lon="9.937304413139636"><ele>933.0</ele><time>2026-04-26T07:59:48.998Z</time></trkpt><trkpt lat="45.723152262721555" lon="9.937309796064794"><ele>933.0</ele><time>2026-04-26T07:59:50Z</time></trkpt><trkpt lat="45.72322789396131" lon="9.937280807307486"><ele>933.0</ele><time>2026-04-26T07:59:51Z</time></trkpt><trkpt lat="45.723322503457936" lon="9.937315856513052"><ele>933.0</ele><time>2026-04-26T07:59:53Z</time></trkpt><trkpt lat="45.72339406041934" lon="9.937344902822158"><ele>933.0</ele><time>2026-04-26T07:59:54Z</time></trkpt><trkpt lat="45.72350951981579" lon="9.937370218133283"><ele>933.0</ele><time>2026-04-26T07:59:56Z</time></trkpt><trkpt lat="45.72357966727032" lon="9.937388102426238"><ele>933.0</ele><time>2026-04-26T07:59:57Z</time></trkpt><trkpt lat="45.72365228031162" lon="9.937420339964643"><ele>930.5</ele><time>2026-04-26T07:59:58Z</time></trkpt><trkpt lat="45.72372598736112" lon="9.937437746970513"><ele>928.0</ele><time>2026-04-26T07:59:59Z</time></trkpt><trkpt lat="45.72381825510687" lon="9.937508000615459"><ele>925.5</ele><time>2026-04-26T08:00:01Z</time></trkpt><trkpt lat="45.72389188173555" lon="9.937578552788562"><ele>923.0</ele><time>2026-04-26T08:00:03Z</time></trkpt><trkpt lat="45.72395851181439" lon="9.93763848252936"><ele>920.5</ele><time>2026-04-26T08:00:05Z</time></trkpt><trkpt lat="45.72399489671245" lon="9.937714179676336"><ele>918.0</ele><time>2026-04-26T08:00:07Z</time></trkpt><trkpt lat="45.724058355853586" lon="9.93773837616632"><ele>918.8</ele><time>2026-04-26T08:00:10Z</time></trkpt><trkpt lat="45.72411643551314" lon="9.937779795313938"><ele>919.5999999999999</ele><time>2026-04-26T08:00:11Z</time></trkpt><trkpt lat="45.72420092552054" lon="9.937869870013236"><ele>920.4000000000001</ele><time>2026-04-26T08:00:13Z</time></trkpt><trkpt lat="45.72428051286708" lon="9.937946574169942"><ele>921.2</ele><time>2026-04-26T08:00:15Z</time></trkpt><trkpt lat="45.724414058658596" lon="9.938011088183325"><ele>922.0</ele><time>2026-04-26T08:00:17Z</time></trkpt><trkpt lat="45.72452749452106" lon="9.93807325403535"><ele>922.0</ele><time>2026-04-26T08:00:19Z</time></trkpt><trkpt lat="45.72459526776026" lon="9.938106273062056"><ele>922.0000000000001</ele><time>2026-04-26T08:00:20Z</time></trkpt><trkpt lat="45.724662289787915" lon="9.938159786002926"><ele>922.0</ele><time>2026-04-26T08:00:21Z</time></trkpt><trkpt lat="45.724710552552544" lon="9.938222858189059"><ele>922.0</ele><time>2026-04-26T08:00:22Z</time></trkpt><trkpt lat="45.724780650384176" lon="9.938277791548852"><ele>922.0000000000001</ele><time>2026-04-26T08:00:23Z</time></trkpt><trkpt lat="45.724834314389454" lon="9.938335673865607"><ele>922.0</ele><time>2026-04-26T08:00:24Z</time></trkpt><trkpt lat="45.724872867787894" lon="9.938416348771486"><ele>922.0</ele><time>2026-04-26T08:00:25Z</time></trkpt><trkpt lat="45.72493129059128" lon="9.938535927104745"><ele>918.8</ele><time>2026-04-26T08:00:27Z</time></trkpt><trkpt lat="45.724996323811546" lon="9.938589480874692"><ele>915.6</ele><time>2026-04-26T08:00:29Z</time></trkpt><trkpt lat="45.72508024181139" lon="9.938676267365498"><ele>912.3999999999999</ele><time>2026-04-26T08:00:31Z</time></trkpt><trkpt lat="45.72512161666328" lon="9.938750064433389"><ele>909.1999999999999</ele><time>2026-04-26T08:00:32Z</time></trkpt><trkpt lat="45.72520844047869" lon="9.938925209151716"><ele>906.0</ele><time>2026-04-26T08:00:33.999Z</time></trkpt><trkpt lat="45.72526938008859" lon="9.939031319312877"><ele>906.0</ele><time>2026-04-26T08:00:34.999Z</time></trkpt><trkpt lat="45.72532488822505" lon="9.939126139438425"><ele>906.0</ele><time>2026-04-26T08:00:35.999Z</time></trkpt><trkpt lat="45.725364829956014" lon="9.939227585557925"><ele>906.0</ele><time>2026-04-26T08:00:36.999Z</time></trkpt><trkpt lat="45.72541113011294" lon="9.939324285330636"><ele>906.0</ele><time>2026-04-26T08:00:37.999Z</time></trkpt><trkpt lat="45.72544923200551" lon="9.939421585004391"><ele>906.0</ele><time>2026-04-26T08:00:38.999Z</time></trkpt><trkpt lat="45.72547960554404" lon="9.939544507797242"><ele>906.0</ele><time>2026-04-26T08:00:39.999Z</time></trkpt><trkpt lat="45.725503120051414" lon="9.939654048572388"><ele>909.4</ele><time>2026-04-26T08:00:40.999Z</time></trkpt><trkpt lat="45.72553289682946" lon="9.93974758839006"><ele>912.8</ele><time>2026-04-26T08:00:41.999Z</time></trkpt><trkpt lat="45.725638087117446" lon="9.939873683123693"><ele>916.1999999999999</ele><time>2026-04-26T08:00:42.999Z</time></trkpt><trkpt lat="45.72572894841678" lon="9.93996986977587"><ele>919.5999999999999</ele><time>2026-04-26T08:00:43.999Z</time></trkpt><trkpt lat="45.7257995256002" lon="9.940054858258256"><ele>923.0</ele><time>2026-04-26T08:00:44.999Z</time></trkpt><trkpt lat="45.72585799691272" lon="9.940182470591022"><ele>925.8</ele><time>2026-04-26T08:00:45.999Z</time></trkpt><trkpt lat="45.72592087790528" lon="9.940309141020835"><ele>928.5999999999999</ele><time>2026-04-26T08:00:46.999Z</time></trkpt><trkpt lat="45.7259811370808" lon="9.940433365375926"><ele>931.4000000000001</ele><time>2026-04-26T08:00:47.999Z</time></trkpt><trkpt lat="45.72601466016417" lon="9.940597771507067"><ele>934.2</ele><time>2026-04-26T08:00:48.999Z</time></trkpt><trkpt lat="45.7260685601174" lon="9.94071260513718"><ele>937.0</ele><time>2026-04-26T08:00:49.999Z</time></trkpt><trkpt lat="45.726082716871154" lon="9.940834436677276"><ele>937.4000000000001</ele><time>2026-04-26T08:00:50.999Z</time></trkpt><trkpt lat="45.726089690887584" lon="9.940984569026135"><ele>937.8000000000001</ele><time>2026-04-26T08:00:51.999Z</time></trkpt><trkpt lat="45.72611224013377" lon="9.9411227166845"><ele>938.2</ele><time>2026-04-26T08:00:52.999Z</time></trkpt><trkpt lat="45.7261337300873" lon="9.941259658851177"><ele>938.6</ele><time>2026-04-26T08:00:53.999Z</time></trkpt><trkpt lat="45.72609119391991" lon="9.941375702024928"><ele>939.0</ele><time>2026-04-26T08:00:54.999Z</time></trkpt><trkpt lat="45.726054962296516" lon="9.941524490892515"><ele>939.0</ele><time>2026-04-26T08:00:55.999Z</time></trkpt><trkpt lat="45.72599439356306" lon="9.941701164357143"><ele>939.0</ele><time>2026-04-26T08:00:56.999Z</time></trkpt><trkpt lat="45.72597950855354" lon="9.941857050683161"><ele>939.0</ele><time>2026-04-26T08:00:57.999Z</time></trkpt><trkpt lat="45.725937290548124" lon="9.942034968388064"><ele>939.0</ele><time>2026-04-26T08:00:58.999Z</time></trkpt><trkpt lat="45.72592137177793" lon="9.942178219630934"><ele>939.8000000000001</ele><time>2026-04-26T08:00:59.999Z</time></trkpt><trkpt lat="45.725895880281485" lon="9.942355335262333"><ele>940.6000000000001</ele><time>2026-04-26T08:01:00.999Z</time></trkpt><trkpt lat="45.72586097049077" lon="9.942493821863334"><ele>941.4</ele><time>2026-04-26T08:01:01.999Z</time></trkpt><trkpt lat="45.725857740896664" lon="9.942632611695876"><ele>942.2</ele><time>2026-04-26T08:01:02.999Z</time></trkpt><trkpt lat="45.72584187054233" lon="9.94274464046949"><ele>943.0</ele><time>2026-04-26T08:01:03.999Z</time></trkpt><trkpt lat="45.72585587744245" lon="9.942846559252455"><ele>945.75</ele><time>2026-04-26T08:01:04.999Z</time></trkpt><trkpt lat="45.72587197723294" lon="9.942994185125384"><ele>948.5</ele><time>2026-04-26T08:01:05.999Z</time></trkpt><trkpt lat="45.72585080472432" lon="9.943171583002457"><ele>951.25</ele><time>2026-04-26T08:01:06.999Z</time></trkpt><trkpt lat="45.725845997781924" lon="9.943338733350183"><ele>954.0</ele><time>2026-04-26T08:01:07.999Z</time></trkpt><trkpt lat="45.72586059238528" lon="9.943508894875514"><ele>956.75</ele><time>2026-04-26T08:01:08.999Z</time></trkpt><trkpt lat="45.72587703657297" lon="9.943677842597717"><ele>959.5</ele><time>2026-04-26T08:01:09.999Z</time></trkpt><trkpt lat="45.72587572964555" lon="9.943855151225058"><ele>962.25</ele><time>2026-04-26T08:01:10.999Z</time></trkpt><trkpt lat="45.72588555487573" lon="9.944086327510913"><ele>965.0</ele><time>2026-04-26T08:01:11.999Z</time></trkpt><trkpt lat="45.7258637856619" lon="9.944315058866437"><ele>968.0</ele><time>2026-04-26T08:01:12.999Z</time></trkpt><trkpt lat="45.72586647088789" lon="9.944505301849324"><ele>971.0</ele><time>2026-04-26T08:01:13.999Z</time></trkpt><trkpt lat="45.72588588902346" lon="9.944651803930679"><ele>974.0</ele><time>2026-04-26T08:01:14.999Z</time></trkpt><trkpt lat="45.72591440452174" lon="9.944789245174574"><ele>977.0</ele><time>2026-04-26T08:01:15.999Z</time></trkpt><trkpt lat="45.72593519534965" lon="9.944892450743078"><ele>980.0</ele><time>2026-04-26T08:01:16.999Z</time></trkpt><trkpt lat="45.725978881046736" lon="9.945038341968123"><ele>983.0</ele><time>2026-04-26T08:01:17.999Z</time></trkpt><trkpt lat="45.72600952686689" lon="9.945219337316308"><ele>986.0</ele><time>2026-04-26T08:01:18.999Z</time></trkpt><trkpt lat="45.72602865649426" lon="9.94537219562361"><ele>989.0</ele><time>2026-04-26T08:01:19.999Z</time></trkpt><trkpt lat="45.726042625783116" lon="9.945528901609356"><ele>992.0</ele><time>2026-04-26T08:01:20.999Z</time></trkpt><trkpt lat="45.72606508055472" lon="9.94564995968331"><ele>995.0</ele><time>2026-04-26T08:01:21.999Z</time></trkpt><trkpt lat="45.72607533509918" lon="9.945763365886972"><ele>989.6</ele><time>2026-04-26T08:01:22.999Z</time></trkpt><trkpt lat="45.726101792956904" lon="9.945858332513275"><ele>984.2</ele><time>2026-04-26T08:01:23.999Z</time></trkpt><trkpt lat="45.72614941525429" lon="9.946013101679338"><ele>978.8</ele><time>2026-04-26T08:01:25.999Z</time></trkpt><trkpt lat="45.72619075948788" lon="9.946191925835791"><ele>973.4</ele><time>2026-04-26T08:01:27.999Z</time></trkpt><trkpt lat="45.72621979387071" lon="9.946275555331088"><ele>968.0</ele><time>2026-04-26T08:01:28.999Z</time></trkpt><trkpt lat="45.72626713819162" lon="9.946454440015518"><ele>968.0</ele><time>2026-04-26T08:01:30.999Z</time></trkpt><trkpt lat="45.726315090296566" lon="9.9466265148858"><ele>968.0</ele><time>2026-04-26T08:01:32.998Z</time></trkpt><trkpt lat="45.72634752654163" lon="9.946757120764806"><ele>968.0</ele><time>2026-04-26T08:01:34.998Z</time></trkpt><trkpt lat="45.7263790747092" lon="9.946918261579507"><ele>968.0</ele><time>2026-04-26T08:01:36.998Z</time></trkpt><trkpt lat="45.72639004756723" lon="9.947113260867305"><ele>967.8</ele><time>2026-04-26T08:01:38.998Z</time></trkpt><trkpt lat="45.7264093712148" lon="9.947234328943505"><ele>967.5999999999999</ele><time>2026-04-26T08:01:39.998Z</time></trkpt><trkpt lat="45.72643713579392" lon="9.94735647421612"><ele>967.4000000000001</ele><time>2026-04-26T08:01:40.998Z</time></trkpt><trkpt lat="45.726468018045914" lon="9.947480078627887"><ele>967.2</ele><time>2026-04-26T08:01:41.998Z</time></trkpt><trkpt lat="45.72650825907241" lon="9.947607787487346"><ele>967.0</ele><time>2026-04-26T08:01:42.998Z</time></trkpt><trkpt lat="45.72654687648932" lon="9.947725327873028"><ele>966.9999999999999</ele><time>2026-04-26T08:01:43.998Z</time></trkpt><trkpt lat="45.72659056647794" lon="9.947835550534668"><ele>967.0</ele><time>2026-04-26T08:01:44.998Z</time></trkpt><trkpt lat="45.72662646619321" lon="9.947940777714205"><ele>967.0</ele><time>2026-04-26T08:01:45.998Z</time></trkpt><trkpt lat="45.72666164674617" lon="9.948035308083897"><ele>967.0</ele><time>2026-04-26T08:01:46.998Z</time></trkpt><trkpt lat="45.7267089362204" lon="9.94811050573167"><ele>966.9999999999999</ele><time>2026-04-26T08:01:47.998Z</time></trkpt><trkpt lat="45.72676161723035" lon="9.948166623988424"><ele>967.0</ele><time>2026-04-26T08:01:48.998Z</time></trkpt><trkpt lat="45.72681420086725" lon="9.94827823283777"><ele>966.4999999999999</ele><time>2026-04-26T08:01:50.998Z</time></trkpt><trkpt lat="45.72682851126928" lon="9.948385207403152"><ele>966.0</ele><time>2026-04-26T08:01:51.998Z</time></trkpt><trkpt lat="45.726849276772214" lon="9.948478325171726"><ele>965.5</ele><time>2026-04-26T08:01:52.998Z</time></trkpt><trkpt lat="45.72687373585916" lon="9.948570956651082"><ele>965.0</ele><time>2026-04-26T08:01:53.998Z</time></trkpt><trkpt lat="45.726898876154664" lon="9.948657292669356"><ele>964.4999999999999</ele><time>2026-04-26T08:01:54.998Z</time></trkpt><trkpt lat="45.72699334684938" lon="9.948791984463043"><ele>964.0</ele><time>2026-04-26T08:01:57Z</time></trkpt><trkpt lat="45.72708499972585" lon="9.94887855923774"><ele>964.0</ele><time>2026-04-26T08:01:58Z</time></trkpt><trkpt lat="45.727156287946634" lon="9.948971143612939"><ele>964.0000000000001</ele><time>2026-04-26T08:01:59Z</time></trkpt><trkpt lat="45.72721204391573" lon="9.94905386415343"><ele>964.0000000000001</ele><time>2026-04-26T08:02:00Z</time></trkpt><trkpt lat="45.72726777033953" lon="9.949172420419478"><ele>964.0</ele><time>2026-04-26T08:02:01Z</time></trkpt><trkpt lat="45.727328902513676" lon="9.949322363883473"><ele>964.0</ele><time>2026-04-26T08:02:02Z</time></trkpt><trkpt lat="45.72738946904841" lon="9.949478367908956"><ele>963.25</ele><time>2026-04-26T08:02:03Z</time></trkpt><trkpt lat="45.72745488025741" lon="9.949648274461087"><ele>962.5</ele><time>2026-04-26T08:02:04Z</time></trkpt><trkpt lat="45.72750728608021" lon="9.949803596527682"><ele>961.75</ele><time>2026-04-26T08:02:05Z</time></trkpt><trkpt lat="45.72755110630243" lon="9.949970667707563"><ele>961.0</ele><time>2026-04-26T08:02:06Z</time></trkpt><trkpt lat="45.72759527937723" lon="9.950165417949272"><ele>961.0</ele><time>2026-04-26T08:02:07Z</time></trkpt><trkpt lat="45.727639109386175" lon="9.950352844909952"><ele>961.0</ele><time>2026-04-26T08:02:08Z</time></trkpt><trkpt lat="45.72769235986894" lon="9.950542383504388"><ele>961.0</ele><time>2026-04-26T08:02:09Z</time></trkpt><trkpt lat="45.72774889547331" lon="9.950715574381128"><ele>961.0</ele><time>2026-04-26T08:02:10Z</time></trkpt><trkpt lat="45.72779859108672" lon="9.950877063706724"><ele>961.5</ele><time>2026-04-26T08:02:11Z</time></trkpt><trkpt lat="45.727861266515106" lon="9.951039634777397"><ele>962.0</ele><time>2026-04-26T08:02:12Z</time></trkpt><trkpt lat="45.727934848046694" lon="9.951184008379807"><ele>962.5</ele><time>2026-04-26T08:02:13Z</time></trkpt><trkpt lat="45.72800804269098" lon="9.951302813257108"><ele>963.0</ele><time>2026-04-26T08:02:14Z</time></trkpt><trkpt lat="45.72808897389439" lon="9.951406588472876"><ele>963.0</ele><time>2026-04-26T08:02:15Z</time></trkpt><trkpt lat="45.728164301914425" lon="9.9515104819245"><ele>963.0</ele><time>2026-04-26T08:02:16Z</time></trkpt><trkpt lat="45.72822468408724" lon="9.951656785398185"><ele>963.0</ele><time>2026-04-26T08:02:17Z</time></trkpt><trkpt lat="45.7282932417714" lon="9.951833367751163"><ele>963.0</ele><time>2026-04-26T08:02:18Z</time></trkpt><trkpt lat="45.72837694015302" lon="9.951977186119109"><ele>965.6666666666667</ele><time>2026-04-26T08:02:19Z</time></trkpt><trkpt lat="45.72847891095937" lon="9.952107003488157"><ele>968.3333333333334</ele><time>2026-04-26T08:02:20Z</time></trkpt><trkpt lat="45.72858572555605" lon="9.952266328149"><ele>971.0</ele><time>2026-04-26T08:02:21Z</time></trkpt><trkpt lat="45.728688530569606" lon="9.952461360624563"><ele>972.25</ele><time>2026-04-26T08:02:22Z</time></trkpt><trkpt lat="45.728778896246396" lon="9.952638937476479"><ele>973.5</ele><time>2026-04-26T08:02:23Z</time></trkpt><trkpt lat="45.72885568251926" lon="9.952794442495616"><ele>974.75</ele><time>2026-04-26T08:02:24Z</time></trkpt><trkpt lat="45.728945712914" lon="9.952931721560848"><ele>976.0</ele><time>2026-04-26T08:02:25Z</time></trkpt><trkpt lat="45.72901875289578" lon="9.953088936497794"><ele>976.0</ele><time>2026-04-26T08:02:26Z</time></trkpt><trkpt lat="45.72908827934983" lon="9.953264358736234"><ele>976.0</ele><time>2026-04-26T08:02:27Z</time></trkpt><trkpt lat="45.729156149898095" lon="9.953414957719282"><ele>976.0</ele><time>2026-04-26T08:02:28Z</time></trkpt><trkpt lat="45.72922390415658" lon="9.953552368499075"><ele>976.0</ele><time>2026-04-26T08:02:29Z</time></trkpt><trkpt lat="45.72929179458727" lon="9.953692517517075"><ele>974.25</ele><time>2026-04-26T08:02:30Z</time></trkpt><trkpt lat="45.72936748231422" lon="9.953857570474298"><ele>972.5</ele><time>2026-04-26T08:02:31Z</time></trkpt><trkpt lat="45.72945844820843" lon="9.954034383156705"><ele>970.75</ele><time>2026-04-26T08:02:32Z</time></trkpt><trkpt lat="45.72954719457038" lon="9.954190530377131"><ele>969.0</ele><time>2026-04-26T08:02:33Z</time></trkpt><trkpt lat="45.72963050952957" lon="9.954339757730668"><ele>973.8000000000001</ele><time>2026-04-26T08:02:34Z</time></trkpt><trkpt lat="45.72970024676775" lon="9.954478889046962"><ele>978.6000000000001</ele><time>2026-04-26T08:02:35Z</time></trkpt><trkpt lat="45.72977495242067" lon="9.954605252534234"><ele>983.4</ele><time>2026-04-26T08:02:36Z</time></trkpt><trkpt lat="45.72983421237157" lon="9.95470120980492"><ele>988.2</ele><time>2026-04-26T08:02:37Z</time></trkpt><trkpt lat="45.72990868129815" lon="9.954759118259338"><ele>993.0</ele><time>2026-04-26T08:02:39Z</time></trkpt><trkpt lat="45.72997045870363" lon="9.954676015446237"><ele>993.0</ele><time>2026-04-26T08:02:41Z</time></trkpt><trkpt lat="45.73003106955059" lon="9.954618989408225"><ele>993.0</ele><time>2026-04-26T08:02:41.999Z</time></trkpt><trkpt lat="45.73013704542797" lon="9.95457327519198"><ele>993.0</ele><time>2026-04-26T08:02:42.999Z</time></trkpt><trkpt lat="45.73026825046619" lon="9.954518514432674"><ele>993.0</ele><time>2026-04-26T08:02:43.999Z</time></trkpt><trkpt lat="45.73034345963457" lon="9.954451376207055"><ele>993.0</ele><time>2026-04-26T08:02:44.999Z</time></trkpt><trkpt lat="45.730415470517855" lon="9.9543737599735"><ele>994.4</ele><time>2026-04-26T08:02:45.999Z</time></trkpt><trkpt lat="45.73048813041419" lon="9.954343452297344"><ele>995.8</ele><time>2026-04-26T08:02:46.999Z</time></trkpt><trkpt lat="45.73056799301821" lon="9.954330784479966"><ele>997.2</ele><time>2026-04-26T08:02:47.999Z</time></trkpt><trkpt lat="45.73064161240019" lon="9.95430191262808"><ele>998.6</ele><time>2026-04-26T08:02:48.999Z</time></trkpt><trkpt lat="45.73075942648996" lon="9.954328713154005"><ele>1000.0</ele><time>2026-04-26T08:02:50.999Z</time></trkpt><trkpt lat="45.73081398121186" lon="9.954181658871681"><ele>1000.0</ele><time>2026-04-26T08:02:52.999Z</time></trkpt><trkpt lat="45.73085513423946" lon="9.954073707635379"><ele>1000.0</ele><time>2026-04-26T08:02:53.999Z</time></trkpt><trkpt lat="45.730964673934004" lon="9.953908960917598"><ele>1000.0</ele><time>2026-04-26T08:02:54.999Z</time></trkpt><trkpt lat="45.7310344111449" lon="9.9538274152866"><ele>1000.0</ele><time>2026-04-26T08:02:55.999Z</time></trkpt><trkpt lat="45.73113730812867" lon="9.953785764625868"><ele>1000.0</ele><time>2026-04-26T08:02:57.999Z</time></trkpt><trkpt lat="45.7312152118975" lon="9.953792375951434"><ele>1000.2</ele><time>2026-04-26T08:02:58.999Z</time></trkpt><trkpt lat="45.73127635308813" lon="9.953749733557324"><ele>1000.4</ele><time>2026-04-26T08:02:59.999Z</time></trkpt><trkpt lat="45.7312943490704" lon="9.953636515101866"><ele>1000.5999999999999</ele><time>2026-04-26T08:03:00.999Z</time></trkpt><trkpt lat="45.731333213267476" lon="9.953530642133114"><ele>1000.8</ele><time>2026-04-26T08:03:01.999Z</time></trkpt><trkpt lat="45.731349710028155" lon="9.953349588220522"><ele>1001.0</ele><time>2026-04-26T08:03:02.999Z</time></trkpt><trkpt lat="45.73139385165942" lon="9.953164912847296"><ele>1001.0</ele><time>2026-04-26T08:03:03.999Z</time></trkpt><trkpt lat="45.731478113141534" lon="9.953003793029685"><ele>1001.0</ele><time>2026-04-26T08:03:04.999Z</time></trkpt><trkpt lat="45.73158329724769" lon="9.952854771243128"><ele>1001.0</ele><time>2026-04-26T08:03:05.999Z</time></trkpt><trkpt lat="45.7317094391998" lon="9.952739631856035"><ele>1001.0</ele><time>2026-04-26T08:03:06.999Z</time></trkpt><trkpt lat="45.731858955771806" lon="9.952657172857752"><ele>1002.0</ele><time>2026-04-26T08:03:07.999Z</time></trkpt><trkpt lat="45.73199200098439" lon="9.95258066559923"><ele>1003.0</ele><time>2026-04-26T08:03:08.999Z</time></trkpt><trkpt lat="45.73208424854695" lon="9.952472358140323"><ele>1004.0</ele><time>2026-04-26T08:03:09.999Z</time></trkpt><trkpt lat="45.73208118826392" lon="9.952271831597928"><ele>1005.0</ele><time>2026-04-26T08:03:10.999Z</time></trkpt><trkpt lat="45.73212853979546" lon="9.95213679844383"><ele>1005.0</ele><time>2026-04-26T08:03:11.999Z</time></trkpt><trkpt lat="45.732147703095045" lon="9.952009267868334"><ele>1005.0</ele><time>2026-04-26T08:03:12.999Z</time></trkpt><trkpt lat="45.73223976804937" lon="9.951978943059311"><ele>1005.0</ele><time>2026-04-26T08:03:13.999Z</time></trkpt><trkpt lat="45.732341405061526" lon="9.9519325870007"><ele>1005.0</ele><time>2026-04-26T08:03:14.999Z</time></trkpt><trkpt lat="45.73243379984972" lon="9.951942236585174"><ele>1005.0</ele><time>2026-04-26T08:03:15.999Z</time></trkpt><trkpt lat="45.73248976636851" lon="9.951987785354353"><ele>1005.0</ele><time>2026-04-26T08:03:16.999Z</time></trkpt><trkpt lat="45.73242735874354" lon="9.952173825925827"><ele>1005.0</ele><time>2026-04-26T08:03:18.999Z</time></trkpt><trkpt lat="45.73238187517517" lon="9.952331448209492"><ele>1005.0</ele><time>2026-04-26T08:03:19.999Z</time></trkpt><trkpt lat="45.732368071950624" lon="9.952506441453671"><ele>1005.0</ele><time>2026-04-26T08:03:20.999Z</time></trkpt><trkpt lat="45.73238289126097" lon="9.952692439737502"><ele>1005.0</ele><time>2026-04-26T08:03:21.999Z</time></trkpt><trkpt lat="45.732424485307746" lon="9.952901398499044"><ele>1007.8</ele><time>2026-04-26T08:03:22.999Z</time></trkpt><trkpt lat="45.732467863303086" lon="9.953093215387298"><ele>1010.6</ele><time>2026-04-26T08:03:23.999Z</time></trkpt><trkpt lat="45.73247791513058" lon="9.953243137549965"><ele>1013.4000000000001</ele><time>2026-04-26T08:03:24.999Z</time></trkpt><trkpt lat="45.73244551334542" lon="9.953357338564631"><ele>1016.2</ele><time>2026-04-26T08:03:25.999Z</time></trkpt><trkpt lat="45.73238841750281" lon="9.953411415066277"><ele>1019.0</ele><time>2026-04-26T08:03:26.999Z</time></trkpt><trkpt lat="45.73230447059731" lon="9.953382705878957"><ele>1022.2</ele><time>2026-04-26T08:03:27.999Z</time></trkpt><trkpt lat="45.73219529619715" lon="9.953376236972861"><ele>1025.4</ele><time>2026-04-26T08:03:28.999Z</time></trkpt><trkpt lat="45.7320814229534" lon="9.953382808676263"><ele>1028.6</ele><time>2026-04-26T08:03:29.999Z</time></trkpt><trkpt lat="45.731995904800335" lon="9.953395994664652"><ele>1031.8</ele><time>2026-04-26T08:03:30.999Z</time></trkpt><trkpt lat="45.731937451388234" lon="9.95345991872254"><ele>1035.0</ele><time>2026-04-26T08:03:31.999Z</time></trkpt><trkpt lat="45.73194876943196" lon="9.953597105421334"><ele>1035.0</ele><time>2026-04-26T08:03:32.999Z</time></trkpt><trkpt lat="45.732015710130696" lon="9.953676427251887"><ele>1035.0</ele><time>2026-04-26T08:03:33.999Z</time></trkpt><trkpt lat="45.73210910486431" lon="9.953683538386478"><ele>1035.0</ele><time>2026-04-26T08:03:34.999Z</time></trkpt><trkpt lat="45.73221377062459" lon="9.953639601081974"><ele>1035.0</ele><time>2026-04-26T08:03:35.999Z</time></trkpt><trkpt lat="45.73233973656241" lon="9.9536087020704"><ele>1035.0</ele><time>2026-04-26T08:03:36.999Z</time></trkpt><trkpt lat="45.732473269696406" lon="9.95365047485566"><ele>1035.0</ele><time>2026-04-26T08:03:37.999Z</time></trkpt><trkpt lat="45.732576352536654" lon="9.953681574548877"><ele>1035.0</ele><time>2026-04-26T08:03:38.999Z</time></trkpt><trkpt lat="45.73266653404696" lon="9.953617520798895"><ele>1035.0</ele><time>2026-04-26T08:03:39.999Z</time></trkpt><trkpt lat="45.73273791752866" lon="9.953480962490067"><ele>1035.0</ele><time>2026-04-26T08:03:40.999Z</time></trkpt><trkpt lat="45.73277367680781" lon="9.953293081601183"><ele>1036.6</ele><time>2026-04-26T08:03:41.998Z</time></trkpt><trkpt lat="45.73281132035435" lon="9.953098389450231"><ele>1038.2</ele><time>2026-04-26T08:03:42.998Z</time></trkpt><trkpt lat="45.7328716255011" lon="9.952954731462562"><ele>1039.8</ele><time>2026-04-26T08:03:43.998Z</time></trkpt><trkpt lat="45.73293593238014" lon="9.952866472401514"><ele>1041.4</ele><time>2026-04-26T08:03:44.998Z</time></trkpt><trkpt lat="45.733000125806065" lon="9.952845543207113"><ele>1043.0</ele><time>2026-04-26T08:03:45.998Z</time></trkpt><trkpt lat="45.73305102252236" lon="9.952899513968815"><ele>1043.0</ele><time>2026-04-26T08:03:46.998Z</time></trkpt><trkpt lat="45.73305839071617" lon="9.95301147065469"><ele>1043.0</ele><time>2026-04-26T08:03:47.998Z</time></trkpt><trkpt lat="45.73298440320749" lon="9.953130002844663"><ele>1043.0</ele><time>2026-04-26T08:03:48.998Z</time></trkpt><trkpt lat="45.7329475022433" lon="9.953297924160516"><ele>1043.0</ele><time>2026-04-26T08:03:49.998Z</time></trkpt><trkpt lat="45.732888132547025" lon="9.953486199164859"><ele>1041.0</ele><time>2026-04-26T08:03:50.998Z</time></trkpt><trkpt lat="45.732840212883374" lon="9.953701818407826"><ele>1039.0</ele><time>2026-04-26T08:03:51.998Z</time></trkpt><trkpt lat="45.73278534704423" lon="9.953879824003767"><ele>1037.0</ele><time>2026-04-26T08:03:52.998Z</time></trkpt><trkpt lat="45.732703247867924" lon="9.95402102388198"><ele>1035.0</ele><time>2026-04-26T08:03:53.998Z</time></trkpt><trkpt lat="45.73260299537401" lon="9.954131840450756"><ele>1037.6666666666667</ele><time>2026-04-26T08:03:54.998Z</time></trkpt><trkpt lat="45.732496466696006" lon="9.954229817490079"><ele>1040.3333333333333</ele><time>2026-04-26T08:03:55.998Z</time></trkpt><trkpt lat="45.73240634681759" lon="9.954291698884845"><ele>1043.0</ele><time>2026-04-26T08:03:56.998Z</time></trkpt><trkpt lat="45.73236056826856" lon="9.954357618723975"><ele>1045.6666666666665</ele><time>2026-04-26T08:03:57.998Z</time></trkpt><trkpt lat="45.73237660527216" lon="9.954448157740371"><ele>1048.3333333333333</ele><time>2026-04-26T08:03:58.998Z</time></trkpt><trkpt lat="45.7324202426901" lon="9.954529943812586"><ele>1051.0</ele><time>2026-04-26T08:03:59.998Z</time></trkpt><trkpt lat="45.7325246518631" lon="9.954552038758054"><ele>1051.0</ele><time>2026-04-26T08:04:00.998Z</time></trkpt><trkpt lat="45.73262852456473" lon="9.954419437448472"><ele>1051.0</ele><time>2026-04-26T08:04:02Z</time></trkpt><trkpt lat="45.73273929277636" lon="9.954278175790487"><ele>1051.0</ele><time>2026-04-26T08:04:03Z</time></trkpt><trkpt lat="45.73286698628512" lon="9.954149934081263"><ele>1051.0</ele><time>2026-04-26T08:04:04Z</time></trkpt><trkpt lat="45.73300687444807" lon="9.954010577684182"><ele>1052.0</ele><time>2026-04-26T08:04:05Z</time></trkpt><trkpt lat="45.733134878576" lon="9.953848881425827"><ele>1053.0</ele><time>2026-04-26T08:04:06Z</time></trkpt><trkpt lat="45.733236404724295" lon="9.953710439055392"><ele>1054.0</ele><time>2026-04-26T08:04:07Z</time></trkpt><trkpt lat="45.73333942728691" lon="9.953585857898624"><ele>1055.0</ele><time>2026-04-26T08:04:08Z</time></trkpt><trkpt lat="45.7334377005537" lon="9.953480109856864"><ele>1055.0</ele><time>2026-04-26T08:04:09Z</time></trkpt><trkpt lat="45.73352643508835" lon="9.953405688502999"><ele>1055.0</ele><time>2026-04-26T08:04:10Z</time></trkpt><trkpt lat="45.733599383330024" lon="9.953373088139061"><ele>1055.0</ele><time>2026-04-26T08:04:11Z</time></trkpt><trkpt lat="45.73367049402102" lon="9.95350783427104"><ele>1055.0</ele><time>2026-04-26T08:04:13Z</time></trkpt><trkpt lat="45.73364958800671" lon="9.953627638473892"><ele>1055.0</ele><time>2026-04-26T08:04:14Z</time></trkpt><trkpt lat="45.73357139197052" lon="9.95374678535655"><ele>1055.0</ele><time>2026-04-26T08:04:15Z</time></trkpt><trkpt lat="45.73351642153934" lon="9.953894629147388"><ele>1055.0</ele><time>2026-04-26T08:04:16Z</time></trkpt><trkpt lat="45.73344537573034" lon="9.954044395867209"><ele>1055.0</ele><time>2026-04-26T08:04:17Z</time></trkpt><trkpt lat="45.73336735678524" lon="9.954215077085708"><ele>1055.0</ele><time>2026-04-26T08:04:18Z</time></trkpt><trkpt lat="45.73328913327181" lon="9.954391346290317"><ele>1057.75</ele><time>2026-04-26T08:04:19Z</time></trkpt><trkpt lat="45.73320844596741" lon="9.954553708586856"><ele>1060.5</ele><time>2026-04-26T08:04:20Z</time></trkpt><trkpt lat="45.73310797277644" lon="9.954670788028888"><ele>1063.25</ele><time>2026-04-26T08:04:21Z</time></trkpt><trkpt lat="45.73302288869171" lon="9.95478225716654"><ele>1066.0</ele><time>2026-04-26T08:04:22Z</time></trkpt><trkpt lat="45.732944767832585" lon="9.954878577145552"><ele>1066.0</ele><time>2026-04-26T08:04:23Z</time></trkpt><trkpt lat="45.73291029964862" lon="9.955023397124334"><ele>1066.0</ele><time>2026-04-26T08:04:24Z</time></trkpt><trkpt lat="45.732924643999624" lon="9.955183899016523"><ele>1066.0</ele><time>2026-04-26T08:04:25Z</time></trkpt><trkpt lat="45.73297698950974" lon="9.955305601306895"><ele>1066.0</ele><time>2026-04-26T08:04:26Z</time></trkpt><trkpt lat="45.73304894944775" lon="9.955352672436799"><ele>1066.0</ele><time>2026-04-26T08:04:27Z</time></trkpt><trkpt lat="45.733149747365644" lon="9.955390035599791"><ele>1064.0</ele><time>2026-04-26T08:04:29Z</time></trkpt><trkpt lat="45.733257482245534" lon="9.95529749703852"><ele>1062.0</ele><time>2026-04-26T08:04:30Z</time></trkpt><trkpt lat="45.73333108388847" lon="9.955221805991386"><ele>1060.0</ele><time>2026-04-26T08:04:31Z</time></trkpt><trkpt lat="45.733433409888725" lon="9.955204057019024"><ele>1058.0</ele><time>2026-04-26T08:04:32Z</time></trkpt><trkpt lat="45.733558579131866" lon="9.955192789373383"><ele>1056.0</ele><time>2026-04-26T08:04:33Z</time></trkpt><trkpt lat="45.73367700994079" lon="9.955152308958683"><ele>1056.0</ele><time>2026-04-26T08:04:34Z</time></trkpt><trkpt lat="45.733791476521766" lon="9.955111397327064"><ele>1056.0</ele><time>2026-04-26T08:04:35Z</time></trkpt><trkpt lat="45.7338977254993" lon="9.95506904648221"><ele>1056.0</ele><time>2026-04-26T08:04:36Z</time></trkpt><trkpt lat="45.733996404789515" lon="9.95502577421523"><ele>1056.0</ele><time>2026-04-26T08:04:37Z</time></trkpt><trkpt lat="45.73411247597048" lon="9.954993933160628"><ele>1061.2</ele><time>2026-04-26T08:04:38Z</time></trkpt><trkpt lat="45.73423833175168" lon="9.954933115077143"><ele>1066.3999999999999</ele><time>2026-04-26T08:04:39Z</time></trkpt><trkpt lat="45.73435183984209" lon="9.954868629197067"><ele>1071.6</ele><time>2026-04-26T08:04:40Z</time></trkpt><trkpt lat="45.734431784825986" lon="9.954817235713017"><ele>1076.8</ele><time>2026-04-26T08:04:41Z</time></trkpt><trkpt lat="45.73450958594127" lon="9.954736476623145"><ele>1082.0</ele><time>2026-04-26T08:04:42Z</time></trkpt><trkpt lat="45.73459848157153" lon="9.954663110352904"><ele>1082.8333333333335</ele><time>2026-04-26T08:04:43Z</time></trkpt><trkpt lat="45.73468466882284" lon="9.954616975330733"><ele>1083.6666666666667</ele><time>2026-04-26T08:04:43.999Z</time></trkpt><trkpt lat="45.734743321666336" lon="9.954538551236345"><ele>1084.5</ele><time>2026-04-26T08:04:44.999Z</time></trkpt><trkpt lat="45.73480002757361" lon="9.9544894624557"><ele>1085.3333333333333</ele><time>2026-04-26T08:04:45.999Z</time></trkpt><trkpt lat="45.73487973134372" lon="9.954425765267619"><ele>1086.1666666666665</ele><time>2026-04-26T08:04:47.999Z</time></trkpt><trkpt lat="45.73493642409322" lon="9.954364955122264"><ele>1087.0</ele><time>2026-04-26T08:04:48.999Z</time></trkpt><trkpt lat="45.73500584744451" lon="9.95430262458177"><ele>1087.0</ele><time>2026-04-26T08:04:49.999Z</time></trkpt><trkpt lat="45.73506901078791" lon="9.954221919419663"><ele>1087.0</ele><time>2026-04-26T08:04:50.999Z</time></trkpt><trkpt lat="45.735149802097766" lon="9.954165118335354"><ele>1087.0</ele><time>2026-04-26T08:04:51.999Z</time></trkpt><trkpt lat="45.73522164441813" lon="9.954108270115237"><ele>1087.0</ele><time>2026-04-26T08:04:52.999Z</time></trkpt><trkpt lat="45.73533269309788" lon="9.9541431409286"><ele>1087.0</ele><time>2026-04-26T08:04:53.999Z</time></trkpt><trkpt lat="45.73545810248709" lon="9.954096847874219"><ele>1091.25</ele><time>2026-04-26T08:04:54.999Z</time></trkpt><trkpt lat="45.73558691494343" lon="9.954057307467917"><ele>1095.5</ele><time>2026-04-26T08:04:55.999Z</time></trkpt><trkpt lat="45.73573111143544" lon="9.954028364688373"><ele>1099.75</ele><time>2026-04-26T08:04:56.999Z</time></trkpt><trkpt lat="45.73588257375685" lon="9.953988915995227"><ele>1104.0</ele><time>2026-04-26T08:04:57.999Z</time></trkpt><trkpt lat="45.736041634234546" lon="9.953933062339786"><ele>1104.25</ele><time>2026-04-26T08:04:58.999Z</time></trkpt><trkpt lat="45.73619496079786" lon="9.953942477598428"><ele>1104.5</ele><time>2026-04-26T08:04:59.999Z</time></trkpt><trkpt lat="45.7363391225057" lon="9.953939170936241"><ele>1104.75</ele><time>2026-04-26T08:05:00.999Z</time></trkpt><trkpt lat="45.736473896451045" lon="9.953933551744088"><ele>1105.0</ele><time>2026-04-26T08:05:01.999Z</time></trkpt><trkpt lat="45.73659763633726" lon="9.953927376287762"><ele>1105.0</ele><time>2026-04-26T08:05:02.999Z</time></trkpt><trkpt lat="45.73670141038852" lon="9.953926764710504"><ele>1105.0</ele><time>2026-04-26T08:05:03.999Z</time></trkpt><trkpt lat="45.73680341530183" lon="9.953930278488892"><ele>1105.0</ele><time>2026-04-26T08:05:04.999Z</time></trkpt><trkpt lat="45.73687662437277" lon="9.953912822403622"><ele>1105.0</ele><time>2026-04-26T08:05:05.999Z</time></trkpt><trkpt lat="45.736975187276315" lon="9.953941316341739"><ele>1105.0</ele><time>2026-04-26T08:05:07.999Z</time></trkpt><trkpt lat="45.73705108884801" lon="9.953953979269697"><ele>1109.4</ele><time>2026-04-26T08:05:09.999Z</time></trkpt><trkpt lat="45.737152216149276" lon="9.953976536007929"><ele>1113.8</ele><time>2026-04-26T08:05:11.999Z</time></trkpt><trkpt lat="45.73722742708968" lon="9.954008926756142"><ele>1118.2</ele><time>2026-04-26T08:05:12.999Z</time></trkpt><trkpt lat="45.737325536298826" lon="9.9540466561627"><ele>1122.6</ele><time>2026-04-26T08:05:13.999Z</time></trkpt><trkpt lat="45.73743872945152" lon="9.954089110168855"><ele>1127.0</ele><time>2026-04-26T08:05:14.999Z</time></trkpt><trkpt lat="45.73755979979953" lon="9.954174256820941"><ele>1124.0</ele><time>2026-04-26T08:05:15.999Z</time></trkpt><trkpt lat="45.73768713325901" lon="9.954245059258467"><ele>1121.0</ele><time>2026-04-26T08:05:16.999Z</time></trkpt><trkpt lat="45.737829824040496" lon="9.954330218605875"><ele>1118.0</ele><time>2026-04-26T08:05:17.999Z</time></trkpt><trkpt lat="45.737964206251476" lon="9.954415232304079"><ele>1115.0</ele><time>2026-04-26T08:05:18.999Z</time></trkpt><trkpt lat="45.73809665761858" lon="9.954489580475137"><ele>1115.0</ele><time>2026-04-26T08:05:19.999Z</time></trkpt><trkpt lat="45.738239631321015" lon="9.954583632120332"><ele>1115.0</ele><time>2026-04-26T08:05:20.999Z</time></trkpt><trkpt lat="45.738392727149346" lon="9.954673500859048"><ele>1115.0</ele><time>2026-04-26T08:05:21.999Z</time></trkpt><trkpt lat="45.73853797586816" lon="9.954765683534722"><ele>1109.6666666666667</ele><time>2026-04-26T08:05:22.999Z</time></trkpt><trkpt lat="45.738691649343416" lon="9.954860232850127"><ele>1104.3333333333333</ele><time>2026-04-26T08:05:23.999Z</time></trkpt><trkpt lat="45.738863903849904" lon="9.954963641073416"><ele>1099.0</ele><time>2026-04-26T08:05:24.999Z</time></trkpt><trkpt lat="45.7390533312181" lon="9.955039247234689"><ele>1099.0</ele><time>2026-04-26T08:05:25.999Z</time></trkpt><trkpt lat="45.739249682325465" lon="9.955100559911388"><ele>1099.0</ele><time>2026-04-26T08:05:26.999Z</time></trkpt><trkpt lat="45.73942440870402" lon="9.955178117286136"><ele>1099.0</ele><time>2026-04-26T08:05:27.999Z</time></trkpt><trkpt lat="45.739581959163786" lon="9.955251703767305"><ele>1107.6666666666665</ele><time>2026-04-26T08:05:28.999Z</time></trkpt><trkpt lat="45.73973986285221" lon="9.95533546165704"><ele>1116.3333333333333</ele><time>2026-04-26T08:05:29.999Z</time></trkpt><trkpt lat="45.739900977193535" lon="9.95540617448802"><ele>1125.0</ele><time>2026-04-26T08:05:30.999Z</time></trkpt><trkpt lat="45.74006354495974" lon="9.955488660137393"><ele>1131.5</ele><time>2026-04-26T08:05:31.999Z</time></trkpt><trkpt lat="45.74021665079733" lon="9.955533200194207"><ele>1138.0</ele><time>2026-04-26T08:05:32.999Z</time></trkpt><trkpt lat="45.74036088297766" lon="9.95556642125415"><ele>1144.5</ele><time>2026-04-26T08:05:33.999Z</time></trkpt><trkpt lat="45.74047182839065" lon="9.955607722226494"><ele>1151.0</ele><time>2026-04-26T08:05:34.999Z</time></trkpt><trkpt lat="45.74055668918979" lon="9.955658076074442"><ele>1151.0</ele><time>2026-04-26T08:05:35.999Z</time></trkpt><trkpt lat="45.74059619287188" lon="9.955779288917679"><ele>1151.0</ele><time>2026-04-26T08:05:36.999Z</time></trkpt><trkpt lat="45.740679508673246" lon="9.955884361253554"><ele>1151.0</ele><time>2026-04-26T08:05:37.999Z</time></trkpt><trkpt lat="45.740773144660174" lon="9.956022623611444"><ele>1151.0</ele><time>2026-04-26T08:05:38.999Z</time></trkpt><trkpt lat="45.74090714506539" lon="9.956152133274797"><ele>1149.0</ele><time>2026-04-26T08:05:39.999Z</time></trkpt><trkpt lat="45.74105157269808" lon="9.956269367351162"><ele>1147.0</ele><time>2026-04-26T08:05:40.999Z</time></trkpt><trkpt lat="45.741197289619855" lon="9.95637808183005"><ele>1145.0</ele><time>2026-04-26T08:05:41.999Z</time></trkpt><trkpt lat="45.74135837515631" lon="9.956468959991712"><ele>1145.0</ele><time>2026-04-26T08:05:42.999Z</time></trkpt><trkpt lat="45.74150587607911" lon="9.956542849099"><ele>1145.0</ele><time>2026-04-26T08:05:43.998Z</time></trkpt><trkpt lat="45.74165019240507" lon="9.956627008123217"><ele>1145.0</ele><time>2026-04-26T08:05:44.998Z</time></trkpt><trkpt lat="45.741785741524886" lon="9.95677471017893"><ele>1149.0</ele><time>2026-04-26T08:05:45.998Z</time></trkpt><trkpt lat="45.74194319607925" lon="9.956932931480617"><ele>1153.0</ele><time>2026-04-26T08:05:46.998Z</time></trkpt><trkpt lat="45.74209556484344" lon="9.95713060203915"><ele>1157.0</ele><time>2026-04-26T08:05:47.998Z</time></trkpt><trkpt lat="45.74225421460216" lon="9.957331888647746"><ele>1152.6666666666667</ele><time>2026-04-26T08:05:48.998Z</time></trkpt><trkpt lat="45.742415674721" lon="9.957536258240006"><ele>1148.3333333333333</ele><time>2026-04-26T08:05:49.998Z</time></trkpt><trkpt lat="45.742551997911434" lon="9.957734335736447"><ele>1144.0</ele><time>2026-04-26T08:05:50.998Z</time></trkpt><trkpt lat="45.742671824296636" lon="9.95793899857825"><ele>1152.3333333333333</ele><time>2026-04-26T08:05:51.998Z</time></trkpt><trkpt lat="45.74275803421467" lon="9.95816591731151"><ele>1160.6666666666667</ele><time>2026-04-26T08:05:52.998Z</time></trkpt><trkpt lat="45.74284932465742" lon="9.958401043219332"><ele>1169.0</ele><time>2026-04-26T08:05:53.998Z</time></trkpt><trkpt lat="45.74296280614165" lon="9.958627174056058"><ele>1169.0</ele><time>2026-04-26T08:05:54.998Z</time></trkpt><trkpt lat="45.74308902055637" lon="9.95883920077217"><ele>1169.0</ele><time>2026-04-26T08:05:55.998Z</time></trkpt><trkpt lat="45.74321569047206" lon="9.959056753607491"><ele>1169.0</ele><time>2026-04-26T08:05:56.998Z</time></trkpt><trkpt lat="45.74329743798512" lon="9.959285840219835"><ele>1168.0</ele><time>2026-04-26T08:05:57.998Z</time></trkpt><trkpt lat="45.743373134478404" lon="9.959483241878315"><ele>1167.0</ele><time>2026-04-26T08:05:58.998Z</time></trkpt><trkpt lat="45.74342085802876" lon="9.959710211804786"><ele>1166.0</ele><time>2026-04-26T08:05:59.998Z</time></trkpt><trkpt lat="45.74346724511474" lon="9.959953786087471"><ele>1168.0</ele><time>2026-04-26T08:06:00.998Z</time></trkpt><trkpt lat="45.743539165354036" lon="9.960184160069925"><ele>1170.0</ele><time>2026-04-26T08:06:01.998Z</time></trkpt><trkpt lat="45.74361199076892" lon="9.960417897564305"><ele>1172.0</ele><time>2026-04-26T08:06:02.998Z</time></trkpt><trkpt lat="45.74367592575984" lon="9.960633522831284"><ele>1175.0</ele><time>2026-04-26T08:06:03.998Z</time></trkpt><trkpt lat="45.74373805281451" lon="9.960822769876268"><ele>1178.0</ele><time>2026-04-26T08:06:04.998Z</time></trkpt><trkpt lat="45.743789188977885" lon="9.960996040051526"><ele>1181.0</ele><time>2026-04-26T08:06:05.998Z</time></trkpt><trkpt lat="45.74386825342496" lon="9.961162878742623"><ele>1184.0</ele><time>2026-04-26T08:06:06.998Z</time></trkpt><trkpt lat="45.74392208140473" lon="9.961358221692254"><ele>1184.0</ele><time>2026-04-26T08:06:08Z</time></trkpt><trkpt lat="45.74404191218365" lon="9.961547869934636"><ele>1184.0</ele><time>2026-04-26T08:06:09Z</time></trkpt><trkpt lat="45.74409106676683" lon="9.961787261883055"><ele>1184.0</ele><time>2026-04-26T08:06:10Z</time></trkpt><trkpt lat="45.74415782969588" lon="9.961995747441097"><ele>1182.3333333333335</ele><time>2026-04-26T08:06:11Z</time></trkpt><trkpt lat="45.74424208172469" lon="9.962155825152632"><ele>1180.6666666666667</ele><time>2026-04-26T08:06:12Z</time></trkpt><trkpt lat="45.74435382016368" lon="9.962300680139855"><ele>1179.0</ele><time>2026-04-26T08:06:13Z</time></trkpt><trkpt lat="45.74451766666609" lon="9.962415689966676"><ele>1176.6666666666667</ele><time>2026-04-26T08:06:14Z</time></trkpt><trkpt lat="45.744679861963185" lon="9.962562430126724"><ele>1174.3333333333335</ele><time>2026-04-26T08:06:15Z</time></trkpt><trkpt lat="45.74484855655815" lon="9.962762463563216"><ele>1172.0</ele><time>2026-04-26T08:06:16Z</time></trkpt><trkpt lat="45.745037111983656" lon="9.962902163806497"><ele>1172.0</ele><time>2026-04-26T08:06:17Z</time></trkpt><trkpt lat="45.745211150941394" lon="9.963044033145973"><ele>1172.0</ele><time>2026-04-26T08:06:18Z</time></trkpt><trkpt lat="45.745378083555075" lon="9.963153116071165"><ele>1172.0</ele><time>2026-04-26T08:06:19Z</time></trkpt><trkpt lat="45.74552957762371" lon="9.963227916283076"><ele>1179.3333333333335</ele><time>2026-04-26T08:06:20Z</time></trkpt><trkpt lat="45.745676949349445" lon="9.963287750649735"><ele>1186.6666666666667</ele><time>2026-04-26T08:06:21Z</time></trkpt><trkpt lat="45.745845834643106" lon="9.963318743710694"><ele>1194.0</ele><time>2026-04-26T08:06:22Z</time></trkpt><trkpt lat="45.746031250765746" lon="9.963344855031458"><ele>1187.3333333333333</ele><time>2026-04-26T08:06:23Z</time></trkpt><trkpt lat="45.74622899201134" lon="9.963410262971056"><ele>1180.6666666666665</ele><time>2026-04-26T08:06:24Z</time></trkpt><trkpt lat="45.746431777504974" lon="9.963451743053183"><ele>1174.0</ele><time>2026-04-26T08:06:25Z</time></trkpt><trkpt lat="45.74664881351298" lon="9.963473976492715"><ele>1174.0</ele><time>2026-04-26T08:06:26Z</time></trkpt><trkpt lat="45.74686145725161" lon="9.963449739974319"><ele>1174.0</ele><time>2026-04-26T08:06:27Z</time></trkpt><trkpt lat="45.74707555186281" lon="9.963462365332061"><ele>1174.0</ele><time>2026-04-26T08:06:28Z</time></trkpt><trkpt lat="45.74727765023266" lon="9.963458709601877"><ele>1175.6666666666665</ele><time>2026-04-26T08:06:29Z</time></trkpt><trkpt lat="45.747467990718754" lon="9.963414344056522"><ele>1177.3333333333333</ele><time>2026-04-26T08:06:30Z</time></trkpt><trkpt lat="45.74764810709107" lon="9.963435387046212"><ele>1179.0</ele><time>2026-04-26T08:06:31Z</time></trkpt><trkpt lat="45.74782402302232" lon="9.963428215608753"><ele>1180.3333333333333</ele><time>2026-04-26T08:06:32Z</time></trkpt><trkpt lat="45.74799869991595" lon="9.963393461805675"><ele>1181.6666666666665</ele><time>2026-04-26T08:06:33Z</time></trkpt><trkpt lat="45.74815116719247" lon="9.963368089894603"><ele>1183.0</ele><time>2026-04-26T08:06:34Z</time></trkpt><trkpt lat="45.748281475316965" lon="9.963380610451052"><ele>1183.0</ele><time>2026-04-26T08:06:35Z</time></trkpt><trkpt lat="45.748428754966746" lon="9.96341014388799"><ele>1183.0</ele><time>2026-04-26T08:06:36Z</time></trkpt><trkpt lat="45.74856826004796" lon="9.96352286861861"><ele>1183.0</ele><time>2026-04-26T08:06:37Z</time></trkpt><trkpt lat="45.74872299328524" lon="9.963624916104429"><ele>1188.6666666666665</ele><time>2026-04-26T08:06:38Z</time></trkpt><trkpt lat="45.74888424696045" lon="9.963715208000844"><ele>1194.3333333333333</ele><time>2026-04-26T08:06:39Z</time></trkpt><trkpt lat="45.74905813229104" lon="9.963798514502084"><ele>1200.0</ele><time>2026-04-26T08:06:40Z</time></trkpt><trkpt lat="45.74923323155819" lon="9.963861832965373"><ele>1205.6666666666667</ele><time>2026-04-26T08:06:41Z</time></trkpt><trkpt lat="45.74942494214167" lon="9.963899978720129"><ele>1211.3333333333335</ele><time>2026-04-26T08:06:42Z</time></trkpt><trkpt lat="45.74963061762303" lon="9.963922254407588"><ele>1217.0</ele><time>2026-04-26T08:06:43Z</time></trkpt><trkpt lat="45.749833873922334" lon="9.963958088027173"><ele>1217.0</ele><time>2026-04-26T08:06:44Z</time></trkpt><trkpt lat="45.75003011268792" lon="9.964006118640997"><ele>1217.0</ele><time>2026-04-26T08:06:45Z</time></trkpt><trkpt lat="45.75020697418507" lon="9.964042953449258"><ele>1217.0</ele><time>2026-04-26T08:06:46Z</time></trkpt><trkpt lat="45.750381776058774" lon="9.96413113950098"><ele>1216.3333333333335</ele><time>2026-04-26T08:06:47Z</time></trkpt><trkpt lat="45.7505558413798" lon="9.964269289173373"><ele>1215.6666666666667</ele><time>2026-04-26T08:06:48Z</time></trkpt><trkpt lat="45.75073467151133" lon="9.964413035229034"><ele>1215.0</ele><time>2026-04-26T08:06:49Z</time></trkpt><trkpt lat="45.750915986532846" lon="9.964573757622013"><ele>1222.6666666666667</ele><time>2026-04-26T08:06:50Z</time></trkpt><trkpt lat="45.75109001269239" lon="9.964729770200526"><ele>1230.3333333333335</ele><time>2026-04-26T08:06:51Z</time></trkpt><trkpt lat="45.75124839125403" lon="9.964867188858232"><ele>1238.0</ele><time>2026-04-26T08:06:51.999Z</time></trkpt><trkpt lat="45.75139587421752" lon="9.964993236637214"><ele>1234.75</ele><time>2026-04-26T08:06:52.999Z</time></trkpt><trkpt lat="45.75153237944863" lon="9.965105316372036"><ele>1231.5</ele><time>2026-04-26T08:06:53.999Z</time></trkpt><trkpt lat="45.751657381057605" lon="9.965209036695311"><ele>1228.25</ele><time>2026-04-26T08:06:54.999Z</time></trkpt><trkpt lat="45.75176819644884" lon="9.965305165333733"><ele>1225.0</ele><time>2026-04-26T08:06:55.999Z</time></trkpt><trkpt lat="45.751866883072175" lon="9.965393891340918"><ele>1228.0</ele><time>2026-04-26T08:06:56.999Z</time></trkpt><trkpt lat="45.75195365899175" lon="9.965460345810461"><ele>1231.0</ele><time>2026-04-26T08:06:57.999Z</time></trkpt><trkpt lat="45.75201143764169" lon="9.96553847584643"><ele>1234.0</ele><time>2026-04-26T08:06:58.999Z</time></trkpt><trkpt lat="45.75206216206141" lon="9.965641846645148"><ele>1237.0</ele><time>2026-04-26T08:07:00.999Z</time></trkpt><trkpt lat="45.75214419029589" lon="9.965601014797926"><ele>1240.0</ele><time>2026-04-26T08:11:04.999Z</time></trkpt><trkpt lat="45.75222498765224" lon="9.965594916262946"><ele>1243.0</ele><time>2026-04-26T08:11:06.999Z</time></trkpt><trkpt lat="45.75231638416781" lon="9.965585364300377"><ele>1243.0</ele><time>2026-04-26T08:11:08.999Z</time></trkpt><trkpt lat="45.75238438570124" lon="9.965575742399814"><ele>1243.0</ele><time>2026-04-26T08:11:09.999Z</time></trkpt><trkpt lat="45.75247422022435" lon="9.965571303278445"><ele>1243.0</ele><time>2026-04-26T08:11:10.999Z</time></trkpt><trkpt lat="45.7525527913588" lon="9.965561181808615"><ele>1243.0</ele><time>2026-04-26T08:11:11.999Z</time></trkpt><trkpt lat="45.752631583826606" lon="9.96555838526944"><ele>1243.0</ele><time>2026-04-26T08:11:12.999Z</time></trkpt><trkpt lat="45.752712630103076" lon="9.965553984156587"><ele>1243.0</ele><time>2026-04-26T08:11:13.999Z</time></trkpt><trkpt lat="45.75279551157247" lon="9.965545972769144"><ele>1242.5</ele><time>2026-04-26T08:11:14.999Z</time></trkpt><trkpt lat="45.75287583437241" lon="9.965526706079837"><ele>1242.0</ele><time>2026-04-26T08:11:15.999Z</time></trkpt><trkpt lat="45.75295890334556" lon="9.965515796690667"><ele>1241.5</ele><time>2026-04-26T08:11:16.999Z</time></trkpt><trkpt lat="45.75305130780029" lon="9.96549425441566"><ele>1241.0</ele><time>2026-04-26T08:11:17.999Z</time></trkpt><trkpt lat="45.753145305835986" lon="9.965472850504087"><ele>1240.5</ele><time>2026-04-26T08:11:18.999Z</time></trkpt><trkpt lat="45.75323732119564" lon="9.96545225941535"><ele>1240.0</ele><time>2026-04-26T08:11:19.999Z</time></trkpt><trkpt lat="45.75333291237979" lon="9.965440094946702"><ele>1240.0</ele><time>2026-04-26T08:11:20.999Z</time></trkpt><trkpt lat="45.75342573489259" lon="9.965435594704017"><ele>1240.0</ele><time>2026-04-26T08:11:21.999Z</time></trkpt><trkpt lat="45.753517974885106" lon="9.96543261525906"><ele>1240.0</ele><time>2026-04-26T08:11:22.999Z</time></trkpt><trkpt lat="45.753596003110324" lon="9.965434335797017"><ele>1240.0</ele><time>2026-04-26T08:11:23.999Z</time></trkpt><trkpt lat="45.75367539259952" lon="9.965417595562743"><ele>1240.0</ele><time>2026-04-26T08:11:24.999Z</time></trkpt><trkpt lat="45.753754202835125" lon="9.965389189731397"><ele>1240.0</ele><time>2026-04-26T08:11:25.999Z</time></trkpt><trkpt lat="45.753814442345316" lon="9.965354703987732"><ele>1241.4</ele><time>2026-04-26T08:11:26.999Z</time></trkpt><trkpt lat="45.75388705859306" lon="9.965304315544898"><ele>1242.8</ele><time>2026-04-26T08:11:27.999Z</time></trkpt><trkpt lat="45.75396161486921" lon="9.965241016470769"><ele>1244.2</ele><time>2026-04-26T08:11:28.999Z</time></trkpt><trkpt lat="45.754055591429605" lon="9.965172499097632"><ele>1245.6</ele><time>2026-04-26T08:11:29.999Z</time></trkpt><trkpt lat="45.75415459761038" lon="9.965087749653364"><ele>1247.0</ele><time>2026-04-26T08:11:30.999Z</time></trkpt><trkpt lat="45.75424489908534" lon="9.964986603161673"><ele>1245.5</ele><time>2026-04-26T08:11:31.999Z</time></trkpt><trkpt lat="45.75433308977446" lon="9.964872750901451"><ele>1244.0</ele><time>2026-04-26T08:11:32.999Z</time></trkpt><trkpt lat="45.754418549645656" lon="9.96475013985249"><ele>1242.5</ele><time>2026-04-26T08:11:33.999Z</time></trkpt><trkpt lat="45.75450522202185" lon="9.964623420416453"><ele>1241.0</ele><time>2026-04-26T08:11:34.999Z</time></trkpt><trkpt lat="45.75459820668369" lon="9.96449489911963"><ele>1241.0</ele><time>2026-04-26T08:11:35.999Z</time></trkpt><trkpt lat="45.754685450824276" lon="9.964360172092027"><ele>1241.0</ele><time>2026-04-26T08:11:36.999Z</time></trkpt><trkpt lat="45.75476731469271" lon="9.96421931406995"><ele>1241.0</ele><time>2026-04-26T08:11:37.999Z</time></trkpt><trkpt lat="45.754846741095065" lon="9.964090248525924"><ele>1241.0</ele><time>2026-04-26T08:11:38.999Z</time></trkpt><trkpt lat="45.75493080460865" lon="9.963979753447896"><ele>1246.5</ele><time>2026-04-26T08:11:39.999Z</time></trkpt><trkpt lat="45.75501633180586" lon="9.963873007067491"><ele>1252.0</ele><time>2026-04-26T08:11:40.999Z</time></trkpt><trkpt lat="45.755109475090755" lon="9.963759722564985"><ele>1257.5</ele><time>2026-04-26T08:11:41.999Z</time></trkpt><trkpt lat="45.7551911445917" lon="9.963635302882462"><ele>1263.0</ele><time>2026-04-26T08:11:42.999Z</time></trkpt><trkpt lat="45.75526783770075" lon="9.963513911902883"><ele>1263.0</ele><time>2026-04-26T08:11:43.999Z</time></trkpt><trkpt lat="45.75532408191887" lon="9.963375833263607"><ele>1263.0</ele><time>2026-04-26T08:11:44.999Z</time></trkpt><trkpt lat="45.755381719698626" lon="9.96324494923286"><ele>1263.0</ele><time>2026-04-26T08:11:45.999Z</time></trkpt><trkpt lat="45.755390031173874" lon="9.963073670498556"><ele>1263.0</ele><time>2026-04-26T08:11:46.999Z</time></trkpt><trkpt lat="45.75542556796928" lon="9.9629107597664"><ele>1257.75</ele><time>2026-04-26T08:11:47.999Z</time></trkpt><trkpt lat="45.75544589047043" lon="9.962737589069993"><ele>1252.5</ele><time>2026-04-26T08:11:48.999Z</time></trkpt><trkpt lat="45.75543401460158" lon="9.962529167072676"><ele>1247.25</ele><time>2026-04-26T08:11:49.999Z</time></trkpt><trkpt lat="45.755408933363135" lon="9.962366075453922"><ele>1242.0</ele><time>2026-04-26T08:11:50.999Z</time></trkpt><trkpt lat="45.755411649472194" lon="9.96217036267073"><ele>1239.0</ele><time>2026-04-26T08:11:51.999Z</time></trkpt><trkpt lat="45.75543177011618" lon="9.96199597056891"><ele>1236.0</ele><time>2026-04-26T08:11:52.999Z</time></trkpt><trkpt lat="45.75543664826694" lon="9.961816814570723"><ele>1233.0</ele><time>2026-04-26T08:11:53.999Z</time></trkpt><trkpt lat="45.755443579906625" lon="9.961650402218202"><ele>1230.0</ele><time>2026-04-26T08:11:54.999Z</time></trkpt><trkpt lat="45.755437640468394" lon="9.9614808286363"><ele>1226.25</ele><time>2026-04-26T08:11:55.999Z</time></trkpt><trkpt lat="45.75545471417116" lon="9.96130579046209"><ele>1222.5</ele><time>2026-04-26T08:11:56.999Z</time></trkpt><trkpt lat="45.75548311688513" lon="9.961136074198224"><ele>1218.75</ele><time>2026-04-26T08:11:57.999Z</time></trkpt><trkpt lat="45.75554670606175" lon="9.960994555509549"><ele>1215.0</ele><time>2026-04-26T08:11:58.999Z</time></trkpt><trkpt lat="45.75558274454124" lon="9.96082077599997"><ele>1211.5</ele><time>2026-04-26T08:11:59.999Z</time></trkpt><trkpt lat="45.75558192245063" lon="9.960660944998732"><ele>1208.0</ele><time>2026-04-26T08:12:00.999Z</time></trkpt><trkpt lat="45.75556969290476" lon="9.96049269347736"><ele>1204.5</ele><time>2026-04-26T08:12:01.998Z</time></trkpt><trkpt lat="45.755527432084776" lon="9.96031187069891"><ele>1201.0</ele><time>2026-04-26T08:12:02.998Z</time></trkpt><trkpt lat="45.755487211904" lon="9.960125464157809"><ele>1201.25</ele><time>2026-04-26T08:12:03.998Z</time></trkpt><trkpt lat="45.755464071036116" lon="9.959951793900458"><ele>1201.5</ele><time>2026-04-26T08:12:04.998Z</time></trkpt><trkpt lat="45.75542765034521" lon="9.959763147338771"><ele>1201.75</ele><time>2026-04-26T08:12:05.998Z</time></trkpt><trkpt lat="45.755413729244005" lon="9.959575385054583"><ele>1202.0</ele><time>2026-04-26T08:12:06.998Z</time></trkpt><trkpt lat="45.7553905707134" lon="9.95938502281576"><ele>1200.5</ele><time>2026-04-26T08:12:07.998Z</time></trkpt><trkpt lat="45.75537900755623" lon="9.959169997713017"><ele>1199.0</ele><time>2026-04-26T08:12:08.998Z</time></trkpt><trkpt lat="45.755361513296215" lon="9.958976481553577"><ele>1197.5</ele><time>2026-04-26T08:12:09.998Z</time></trkpt><trkpt lat="45.75534136625479" lon="9.958784128243686"><ele>1196.0</ele><time>2026-04-26T08:12:10.998Z</time></trkpt><trkpt lat="45.75532048445432" lon="9.958589313483069"><ele>1196.0</ele><time>2026-04-26T08:12:11.998Z</time></trkpt><trkpt lat="45.75530636076302" lon="9.958414472860618"><ele>1196.0</ele><time>2026-04-26T08:12:12.998Z</time></trkpt><trkpt lat="45.755294587438016" lon="9.958259346339307"><ele>1196.0</ele><time>2026-04-26T08:12:13.998Z</time></trkpt><trkpt lat="45.75529462548529" lon="9.95814113645063"><ele>1196.0</ele><time>2026-04-26T08:12:14.998Z</time></trkpt><trkpt lat="45.755302170896876" lon="9.958039740100473"><ele>1196.0</ele><time>2026-04-26T08:12:15.998Z</time></trkpt><trkpt lat="45.7553040633178" lon="9.957934049323992"><ele>1184.8</ele><time>2026-04-26T08:12:17.998Z</time></trkpt><trkpt lat="45.75519381587647" lon="9.958051808186704"><ele>1173.6</ele><time>2026-04-26T08:12:22.998Z</time></trkpt><trkpt lat="45.755172432881984" lon="9.958160120306063"><ele>1162.4</ele><time>2026-04-26T08:12:23.998Z</time></trkpt><trkpt lat="45.75512198545943" lon="9.958271564495515"><ele>1151.2</ele><time>2026-04-26T08:12:24.998Z</time></trkpt><trkpt lat="45.755061676120924" lon="9.958448753041631"><ele>1140.0</ele><time>2026-04-26T08:12:26Z</time></trkpt><trkpt lat="45.755032139509865" lon="9.95858402387379"><ele>1140.0</ele><time>2026-04-26T08:12:27Z</time></trkpt><trkpt lat="45.75499505685381" lon="9.958720478819608"><ele>1140.0</ele><time>2026-04-26T08:12:28Z</time></trkpt><trkpt lat="45.75494663411082" lon="9.958869212551079"><ele>1140.0</ele><time>2026-04-26T08:12:29Z</time></trkpt><trkpt lat="45.75490514753194" lon="9.959031700145456"><ele>1140.0</ele><time>2026-04-26T08:12:30Z</time></trkpt><trkpt lat="45.754865062322885" lon="9.959190328282691"><ele>1140.6</ele><time>2026-04-26T08:12:31Z</time></trkpt><trkpt lat="45.75482551174814" lon="9.959349078151993"><ele>1141.2</ele><time>2026-04-26T08:12:32Z</time></trkpt><trkpt lat="45.754795008320286" lon="9.959501191095793"><ele>1141.8</ele><time>2026-04-26T08:12:33Z</time></trkpt><trkpt lat="45.75478787387879" lon="9.959628638289624"><ele>1142.4</ele><time>2026-04-26T08:12:34Z</time></trkpt><trkpt lat="45.75475784359085" lon="9.959762737979942"><ele>1143.0</ele><time>2026-04-26T08:12:35Z</time></trkpt><trkpt lat="45.7547559582741" lon="9.95988302209924"><ele>1143.0</ele><time>2026-04-26T08:12:36Z</time></trkpt><trkpt lat="45.75476573800161" lon="9.959975310846392"><ele>1143.0</ele><time>2026-04-26T08:12:37Z</time></trkpt><trkpt lat="45.75474827372544" lon="9.960089116748792"><ele>1143.0</ele><time>2026-04-26T08:12:42Z</time></trkpt><trkpt lat="45.7547579278163" lon="9.960194866618627"><ele>1143.0</ele><time>2026-04-26T08:12:44Z</time></trkpt><trkpt lat="45.75476355932434" lon="9.96034206424419"><ele>1143.0</ele><time>2026-04-26T08:12:46Z</time></trkpt><trkpt lat="45.7547587600138" lon="9.960474270798699"><ele>1143.0</ele><time>2026-04-26T08:12:48Z</time></trkpt><trkpt lat="45.75470646367928" lon="9.960526643601334"><ele>1144.6666666666667</ele><time>2026-04-26T08:12:50Z</time></trkpt><trkpt lat="45.75463071833401" lon="9.960586553133728"><ele>1146.3333333333333</ele><time>2026-04-26T08:12:52Z</time></trkpt><trkpt lat="45.75457506851205" lon="9.960660722024567"><ele>1148.0</ele><time>2026-04-26T08:12:53Z</time></trkpt><trkpt lat="45.754518237175745" lon="9.960727232186738"><ele>1149.6666666666665</ele><time>2026-04-26T08:12:54Z</time></trkpt><trkpt lat="45.754465211884344" lon="9.960783369998722"><ele>1151.3333333333333</ele><time>2026-04-26T08:12:55Z</time></trkpt><trkpt lat="45.7544204957011" lon="9.960849482074766"><ele>1153.0</ele><time>2026-04-26T08:12:56Z</time></trkpt><trkpt lat="45.75437922867137" lon="9.960962636174754"><ele>1147.1666666666665</ele><time>2026-04-26T08:12:57Z</time></trkpt><trkpt lat="45.754340999126846" lon="9.961057966224274"><ele>1141.3333333333333</ele><time>2026-04-26T08:12:58Z</time></trkpt><trkpt lat="45.75430836086323" lon="9.961151784867797"><ele>1135.5</ele><time>2026-04-26T08:12:59Z</time></trkpt><trkpt lat="45.754270121354295" lon="9.961264279850354"><ele>1129.6666666666667</ele><time>2026-04-26T08:13:00Z</time></trkpt><trkpt lat="45.75423985163166" lon="9.961344489495064"><ele>1123.8333333333335</ele><time>2026-04-26T08:13:01Z</time></trkpt><trkpt lat="45.754168048481645" lon="9.96140183365699"><ele>1118.0</ele><time>2026-04-26T08:13:03Z</time></trkpt><trkpt lat="45.7541122717201" lon="9.961502218259724"><ele>1118.0</ele><time>2026-04-26T08:13:04Z</time></trkpt><trkpt lat="45.754060749266074" lon="9.961628180267079"><ele>1118.0</ele><time>2026-04-26T08:13:05Z</time></trkpt><trkpt lat="45.75403185341172" lon="9.961743433176805"><ele>1118.0</ele><time>2026-04-26T08:13:06Z</time></trkpt><trkpt lat="45.75401319916215" lon="9.96183189549867"><ele>1118.0</ele><time>2026-04-26T08:13:07Z</time></trkpt><trkpt lat="45.754014070077595" lon="9.961923626664577"><ele>1118.0</ele><time>2026-04-26T08:13:08Z</time></trkpt><trkpt lat="45.75400519665542" lon="9.962054536400439"><ele>1118.0</ele><time>2026-04-26T08:13:09.999Z</time></trkpt><trkpt lat="45.754015323911084" lon="9.962208356470414"><ele>1120.6</ele><time>2026-04-26T08:13:11.999Z</time></trkpt><trkpt lat="45.75395090178214" lon="9.962251812185226"><ele>1123.1999999999998</ele><time>2026-04-26T08:13:14.999Z</time></trkpt><trkpt lat="45.753877871004335" lon="9.962303305485257"><ele>1125.8</ele><time>2026-04-26T08:13:15.999Z</time></trkpt><trkpt lat="45.753811704858784" lon="9.962363637880175"><ele>1128.3999999999999</ele><time>2026-04-26T08:13:16.999Z</time></trkpt><trkpt lat="45.753737044346" lon="9.962516903054732"><ele>1131.0</ele><time>2026-04-26T08:13:18.999Z</time></trkpt><trkpt lat="45.753683087364074" lon="9.962622274561216"><ele>1132.1428571428573</ele><time>2026-04-26T08:13:20.999Z</time></trkpt><trkpt lat="45.753606952254415" lon="9.962639415848018"><ele>1133.2857142857142</ele><time>2026-04-26T08:16:05.999Z</time></trkpt><trkpt lat="45.75354477000878" lon="9.962710176521288"><ele>1134.4285714285716</ele><time>2026-04-26T08:16:07.999Z</time></trkpt><trkpt lat="45.75348962882788" lon="9.962758284586778"><ele>1135.5714285714287</ele><time>2026-04-26T08:16:10.999Z</time></trkpt><trkpt lat="45.75342659988264" lon="9.962779202657693"><ele>1136.7142857142858</ele><time>2026-04-26T08:16:12.999Z</time></trkpt><trkpt lat="45.753367976830226" lon="9.962730391805897"><ele>1137.857142857143</ele><time>2026-04-26T08:16:16.998Z</time></trkpt><trkpt lat="45.75337358849436" lon="9.962632231616515"><ele>1139.0</ele><time>2026-04-26T08:16:24.998Z</time></trkpt><trkpt lat="45.753417891440414" lon="9.962549026392281"><ele>1136.0</ele><time>2026-04-26T08:16:27.998Z</time></trkpt><trkpt lat="45.7534502398582" lon="9.962436758084138"><ele>1133.0</ele><time>2026-04-26T08:16:30.998Z</time></trkpt><trkpt lat="45.753465590152985" lon="9.962328393132305"><ele>1130.0</ele><time>2026-04-26T08:16:33.998Z</time></trkpt><trkpt lat="45.75347866825212" lon="9.962235089593973"><ele>1127.0</ele><time>2026-04-26T08:16:35.998Z</time></trkpt><trkpt lat="45.75348986131888" lon="9.962140508078674"><ele>1124.0</ele><time>2026-04-26T08:16:40Z</time></trkpt><trkpt lat="45.75351060363516" lon="9.962044936667926"><ele>1121.0</ele><time>2026-04-26T08:16:44Z</time></trkpt><trkpt lat="45.7535184993208" lon="9.961933366871332"><ele>1118.0</ele><time>2026-04-26T08:16:47Z</time></trkpt><trkpt lat="45.75349753099853" lon="9.96184812701561"><ele>1118.0</ele><time>2026-04-26T08:16:50Z</time></trkpt><trkpt lat="45.753501926065745" lon="9.961726731496876"><ele>1118.0</ele><time>2026-04-26T08:16:53Z</time></trkpt><trkpt lat="45.753499388450166" lon="9.961603200612773"><ele>1118.0</ele><time>2026-04-26T08:16:56Z</time></trkpt><trkpt lat="45.75351499962158" lon="9.961425037445988"><ele>1118.0</ele><time>2026-04-26T08:16:59Z</time></trkpt><trkpt lat="45.75351186983582" lon="9.961313772079471"><ele>1118.0</ele><time>2026-04-26T08:17:01Z</time></trkpt><trkpt lat="45.75351215863914" lon="9.961200294547625"><ele>1118.0</ele><time>2026-04-26T08:17:03Z</time></trkpt><trkpt lat="45.75354208076372" lon="9.96106890742387"><ele>1118.0</ele><time>2026-04-26T08:17:05Z</time></trkpt><trkpt lat="45.75353063808208" lon="9.960970823038302"><ele>1118.0</ele><time>2026-04-26T08:17:07Z</time></trkpt><trkpt lat="45.753521221694676" lon="9.960841158052274"><ele>1118.0</ele><time>2026-04-26T08:17:09Z</time></trkpt><trkpt lat="45.75351786242883" lon="9.96074352772996"><ele>1118.0</ele><time>2026-04-26T08:17:11Z</time></trkpt><trkpt lat="45.75352226003815" lon="9.960587705720192"><ele>1118.0</ele><time>2026-04-26T08:17:13Z</time></trkpt><trkpt lat="45.753502829031774" lon="9.96045412317111"><ele>1115.6666666666667</ele><time>2026-04-26T08:17:15Z</time></trkpt><trkpt lat="45.75352720736636" lon="9.960310943844735"><ele>1113.3333333333335</ele><time>2026-04-26T08:17:18Z</time></trkpt><trkpt lat="45.75355917269783" lon="9.960221187651944"><ele>1111.0</ele><time>2026-04-26T08:17:19.999Z</time></trkpt><trkpt lat="45.7535720948259" lon="9.960096200658745"><ele>1108.6666666666667</ele><time>2026-04-26T08:17:22.999Z</time></trkpt><trkpt lat="45.75354083041028" lon="9.959976371495582"><ele>1106.3333333333333</ele><time>2026-04-26T08:17:25.999Z</time></trkpt><trkpt lat="45.75349124451957" lon="9.959905914361912"><ele>1104.0</ele><time>2026-04-26T08:17:27.999Z</time></trkpt><trkpt lat="45.75340216552796" lon="9.959837477092751"><ele>1095.1666666666667</ele><time>2026-04-26T08:17:30.999Z</time></trkpt><trkpt lat="45.75333126398023" lon="9.959776850167017"><ele>1086.3333333333333</ele><time>2026-04-26T08:17:33.999Z</time></trkpt><trkpt lat="45.75329207516354" lon="9.9596818726022"><ele>1077.5</ele><time>2026-04-26T08:17:36.999Z</time></trkpt><trkpt lat="45.75327841483922" lon="9.9595791992264"><ele>1068.6666666666665</ele><time>2026-04-26T08:17:38.999Z</time></trkpt><trkpt lat="45.75326026247778" lon="9.959465158550879"><ele>1059.8333333333333</ele><time>2026-04-26T08:17:40.999Z</time></trkpt><trkpt lat="45.7532521034735" lon="9.959314953656307"><ele>1051.0</ele><time>2026-04-26T08:17:42.999Z</time></trkpt><trkpt lat="45.7532554334021" lon="9.95918518741679"><ele>1048.0</ele><time>2026-04-26T08:17:44.999Z</time></trkpt><trkpt lat="45.75324767366098" lon="9.95908389398909"><ele>1045.0</ele><time>2026-04-26T08:17:45.999Z</time></trkpt><trkpt lat="45.75324673102843" lon="9.958954336668697"><ele>1042.0</ele><time>2026-04-26T08:17:47.999Z</time></trkpt><trkpt lat="45.75322376352558" lon="9.95881950822016"><ele>1039.0</ele><time>2026-04-26T08:17:49.999Z</time></trkpt><trkpt lat="45.75318487558948" lon="9.958694552550126"><ele>1036.0</ele><time>2026-04-26T08:17:51.999Z</time></trkpt><trkpt lat="45.753184283242064" lon="9.958536215763322"><ele>1036.0</ele><time>2026-04-26T08:17:53.999Z</time></trkpt><trkpt lat="45.75317735624662" lon="9.958393946544707"><ele>1036.0</ele><time>2026-04-26T08:17:55.999Z</time></trkpt><trkpt lat="45.7531641251028" lon="9.958276783511876"><ele>1036.0</ele><time>2026-04-26T08:17:57.999Z</time></trkpt><trkpt lat="45.753138892574945" lon="9.958177767883269"><ele>1036.0</ele><time>2026-04-26T08:17:59.999Z</time></trkpt><trkpt lat="45.753116685680986" lon="9.958082790977878"><ele>1036.0</ele><time>2026-04-26T08:18:27.998Z</time></trkpt><trkpt lat="45.75307694335496" lon="9.958005413933735"><ele>1036.0</ele><time>2026-04-26T08:18:32.998Z</time></trkpt><trkpt lat="45.75304753812196" lon="9.957893470770607"><ele>1034.8333333333333</ele><time>2026-04-26T08:18:54Z</time></trkpt><trkpt lat="45.7530575925189" lon="9.957790605391576"><ele>1033.6666666666665</ele><time>2026-04-26T08:19:00Z</time></trkpt><trkpt lat="45.7530548767369" lon="9.957696756413418"><ele>1032.5</ele><time>2026-04-26T08:19:09Z</time></trkpt><trkpt lat="45.75299200401568" lon="9.957625448520345"><ele>1031.3333333333333</ele><time>2026-04-26T08:19:12Z</time></trkpt><trkpt lat="45.752973003032054" lon="9.957507618078989"><ele>1030.1666666666667</ele><time>2026-04-26T08:19:49.999Z</time></trkpt><trkpt lat="45.75297774289215" lon="9.957391423681186"><ele>1029.0</ele><time>2026-04-26T08:19:53.999Z</time></trkpt><trkpt lat="45.75293890469971" lon="9.957275803345578"><ele>1027.4285714285713</ele><time>2026-04-26T08:19:57.999Z</time></trkpt><trkpt lat="45.75290520621029" lon="9.957171910749514"><ele>1025.857142857143</ele><time>2026-04-26T08:20:01.999Z</time></trkpt><trkpt lat="45.75287213703194" lon="9.957075612343573"><ele>1024.2857142857142</ele><time>2026-04-26T08:20:05.999Z</time></trkpt><trkpt lat="45.7528488137369" lon="9.956964956742292"><ele>1022.7142857142857</ele><time>2026-04-26T08:20:09.999Z</time></trkpt><trkpt lat="45.75283946431123" lon="9.956871811213803"><ele>1021.1428571428571</ele><time>2026-04-26T08:20:12.999Z</time></trkpt><trkpt lat="45.75282616291973" lon="9.956780508257614"><ele>1019.5714285714284</ele><time>2026-04-26T08:20:15.999Z</time></trkpt><trkpt lat="45.75279227662118" lon="9.956701357941375"><ele>1017.9999999999999</ele><time>2026-04-26T08:20:18.999Z</time></trkpt><trkpt lat="45.75274623419404" lon="9.956782688810483"><ele>1012.7142857142856</ele><time>2026-04-26T08:20:21.999Z</time></trkpt><trkpt lat="45.75270576308539" lon="9.956861767521454"><ele>1007.4285714285713</ele><time>2026-04-26T08:20:24.999Z</time></trkpt><trkpt lat="45.752647001216076" lon="9.956912703737336"><ele>1002.1428571428571</ele><time>2026-04-26T08:20:28.999Z</time></trkpt><trkpt lat="45.752600613766745" lon="9.956983797908348"><ele>996.8571428571428</ele><time>2026-04-26T08:20:31.998Z</time></trkpt><trkpt lat="45.75258340434147" lon="9.956881614759812"><ele>991.5714285714284</ele><time>2026-04-26T08:20:36.998Z</time></trkpt><trkpt lat="45.752584330796424" lon="9.956784513253806"><ele>986.2857142857143</ele><time>2026-04-26T08:20:38.998Z</time></trkpt><trkpt lat="45.752572226051726" lon="9.956658378718249"><ele>981.0</ele><time>2026-04-26T08:20:41.998Z</time></trkpt><trkpt lat="45.75255829087776" lon="9.956544950893008"><ele>977.8333333333334</ele><time>2026-04-26T08:20:43.998Z</time></trkpt><trkpt lat="45.75253678358476" lon="9.956408014995516"><ele>974.6666666666667</ele><time>2026-04-26T08:20:46.998Z</time></trkpt><trkpt lat="45.752507019480255" lon="9.956310378528233"><ele>971.5</ele><time>2026-04-26T08:20:50Z</time></trkpt><trkpt lat="45.75249858573431" lon="9.956209896597198"><ele>968.3333333333334</ele><time>2026-04-26T08:20:52Z</time></trkpt><trkpt lat="45.752514498075556" lon="9.956103494434094"><ele>965.1666666666667</ele><time>2026-04-26T08:20:54Z</time></trkpt><trkpt lat="45.75247880019127" lon="9.955998856161235"><ele>962.0</ele><time>2026-04-26T08:20:56Z</time></trkpt><trkpt lat="45.752450591938384" lon="9.95589481874158"><ele>960.0000000000001</ele><time>2026-04-26T08:20:58Z</time></trkpt><trkpt lat="45.752412906753456" lon="9.955782890454254"><ele>958.0</ele><time>2026-04-26T08:21:01Z</time></trkpt><trkpt lat="45.75239842488339" lon="9.955658882437433"><ele>956.0</ele><time>2026-04-26T08:21:04Z</time></trkpt><trkpt lat="45.752390950706136" lon="9.955543532957716"><ele>954.0</ele><time>2026-04-26T08:21:06Z</time></trkpt><trkpt lat="45.75239829074768" lon="9.955418635741365"><ele>952.0000000000001</ele><time>2026-04-26T08:21:09Z</time></trkpt><trkpt lat="45.752403128314114" lon="9.955322925676066"><ele>950.0</ele><time>2026-04-26T08:21:13Z</time></trkpt><trkpt lat="45.75241463599754" lon="9.955231038669405"><ele>950.0</ele><time>2026-04-26T08:21:20Z</time></trkpt><trkpt lat="45.7524488270217" lon="9.95512657054365"><ele>950.0000000000001</ele><time>2026-04-26T08:21:31Z</time></trkpt><trkpt lat="45.75244923652919" lon="9.955034138496012"><ele>950.0</ele><time>2026-04-26T08:21:39.999Z</time></trkpt><trkpt lat="45.75246747544053" lon="9.954930807906964"><ele>950.0</ele><time>2026-04-26T08:21:49.999Z</time></trkpt><trkpt lat="45.752484703177615" lon="9.954832153704919"><ele>950.0000000000001</ele><time>2026-04-26T08:21:52.999Z</time></trkpt><trkpt lat="45.752459748087944" lon="9.954738368876459"><ele>950.0</ele><time>2026-04-26T08:22:00.999Z</time></trkpt><trkpt lat="45.752459022536435" lon="9.954632999443643"><ele>950.0</ele><time>2026-04-26T08:22:04.999Z</time></trkpt><trkpt lat="45.752460530904116" lon="9.954522156593477"><ele>947.3333333333334</ele><time>2026-04-26T08:22:09.999Z</time></trkpt><trkpt lat="45.75246227252218" lon="9.954398331225896"><ele>944.6666666666667</ele><time>2026-04-26T08:22:14.999Z</time></trkpt><trkpt lat="45.752473333447014" lon="9.954284353102699"><ele>942.0</ele><time>2026-04-26T08:22:17.999Z</time></trkpt><trkpt lat="45.752482328300964" lon="9.954189775992003"><ele>939.3333333333333</ele><time>2026-04-26T08:22:19.999Z</time></trkpt><trkpt lat="45.75245573556157" lon="9.954076475158466"><ele>936.6666666666666</ele><time>2026-04-26T08:22:22.999Z</time></trkpt><trkpt lat="45.7524586910447" lon="9.953953763042968"><ele>934.0</ele><time>2026-04-26T08:22:25.999Z</time></trkpt><trkpt lat="45.752443067251" lon="9.953840434034829"><ele>932.2857142857142</ele><time>2026-04-26T08:22:27.999Z</time></trkpt><trkpt lat="45.75241959783519" lon="9.953740438734089"><ele>930.5714285714286</ele><time>2026-04-26T08:22:30.999Z</time></trkpt><trkpt lat="45.75241129351197" lon="9.953649688545385"><ele>928.8571428571429</ele><time>2026-04-26T08:22:33.999Z</time></trkpt><trkpt lat="45.752395264295515" lon="9.953538647513815"><ele>927.1428571428571</ele><time>2026-04-26T08:22:45.998Z</time></trkpt><trkpt lat="45.75238065833628" lon="9.953420645465307"><ele>925.4285714285716</ele><time>2026-04-26T08:22:49.998Z</time></trkpt><trkpt lat="45.75236659415615" lon="9.953323719576586"><ele>923.7142857142858</ele><time>2026-04-26T08:22:53.998Z</time></trkpt><trkpt lat="45.75236075056317" lon="9.953223932234023"><ele>922.0</ele><time>2026-04-26T08:22:58Z</time></trkpt><trkpt lat="45.75237021642269" lon="9.953108850845291"><ele>919.3333333333333</ele><time>2026-04-26T08:23:01Z</time></trkpt><trkpt lat="45.75235571634121" lon="9.952972985284909"><ele>916.6666666666666</ele><time>2026-04-26T08:23:04Z</time></trkpt><trkpt lat="45.75239331256273" lon="9.952843160069555"><ele>914.0</ele><time>2026-04-26T08:23:06Z</time></trkpt><trkpt lat="45.75240569398923" lon="9.95273732792235"><ele>911.3333333333333</ele><time>2026-04-26T08:23:08Z</time></trkpt><trkpt lat="45.752418953030265" lon="9.952634286672879"><ele>908.6666666666666</ele><time>2026-04-26T08:23:10Z</time></trkpt><trkpt lat="45.75244934209182" lon="9.952496624563826"><ele>906.0</ele><time>2026-04-26T08:23:13Z</time></trkpt><trkpt lat="45.75245971359324" lon="9.952351019763634"><ele>902.0</ele><time>2026-04-26T08:23:15Z</time></trkpt><trkpt lat="45.75248918787705" lon="9.952181299282962"><ele>897.9999999999999</ele><time>2026-04-26T08:23:17Z</time></trkpt><trkpt lat="45.752514534136665" lon="9.952058397538806"><ele>893.9999999999999</ele><time>2026-04-26T08:23:19Z</time></trkpt><trkpt lat="45.752551988646" lon="9.951938751291665"><ele>890.0</ele><time>2026-04-26T08:23:21Z</time></trkpt><trkpt lat="45.75256753596253" lon="9.951839282145778"><ele>886.0</ele><time>2026-04-26T08:23:24Z</time></trkpt><trkpt lat="45.75259942994675" lon="9.951731264654216"><ele>885.9999999999999</ele><time>2026-04-26T08:23:27Z</time></trkpt><trkpt lat="45.75263906299676" lon="9.95162851265296"><ele>886.0</ele><time>2026-04-26T08:23:29Z</time></trkpt><trkpt lat="45.75266525722723" lon="9.951528189622254"><ele>886.0</ele><time>2026-04-26T08:23:31Z</time></trkpt><trkpt lat="45.75269226186536" lon="9.951441378704962"><ele>886.0</ele><time>2026-04-26T08:23:32Z</time></trkpt><trkpt lat="45.75272668817331" lon="9.951276954048234"><ele>885.9999999999999</ele><time>2026-04-26T08:23:34Z</time></trkpt><trkpt lat="45.752767866198795" lon="9.951136462972743"><ele>886.0</ele><time>2026-04-26T08:23:36Z</time></trkpt><trkpt lat="45.75281748246216" lon="9.950989220255027"><ele>880.6666666666666</ele><time>2026-04-26T08:23:38Z</time></trkpt><trkpt lat="45.752845001505875" lon="9.95086846280573"><ele>875.3333333333333</ele><time>2026-04-26T08:23:40Z</time></trkpt><trkpt lat="45.75286720397882" lon="9.95077701665498"><ele>870.0</ele><time>2026-04-26T08:23:40.999Z</time></trkpt><trkpt lat="45.75292389006859" lon="9.950731972894408"><ele>864.6666666666667</ele><time>2026-04-26T08:23:42.999Z</time></trkpt><trkpt lat="45.75301443613317" lon="9.950813391895872"><ele>859.3333333333334</ele><time>2026-04-26T08:23:44.999Z</time></trkpt><trkpt lat="45.75304342008824" lon="9.950698804138046"><ele>854.0</ele><time>2026-04-26T08:23:47.999Z</time></trkpt><trkpt lat="45.75301351975784" lon="9.950610040633604"><ele>854.0000000000001</ele><time>2026-04-26T08:23:49.999Z</time></trkpt><trkpt lat="45.75304362808302" lon="9.950513014259194"><ele>854.0</ele><time>2026-04-26T08:23:52.999Z</time></trkpt><trkpt lat="45.753070485104075" lon="9.950428685371888"><ele>854.0</ele><time>2026-04-26T08:23:54.999Z</time></trkpt><trkpt lat="45.7530612672925" lon="9.950285865407627"><ele>854.0</ele><time>2026-04-26T08:23:56.999Z</time></trkpt><trkpt lat="45.75302889238146" lon="9.950206099623811"><ele>854.0000000000001</ele><time>2026-04-26T08:24:02.999Z</time></trkpt><trkpt lat="45.752970556632725" lon="9.950121730627764"><ele>854.0</ele><time>2026-04-26T08:24:05.999Z</time></trkpt><trkpt lat="45.75292484043691" lon="9.95005464591722"><ele>852.4000000000001</ele><time>2026-04-26T08:24:06.999Z</time></trkpt><trkpt lat="45.75286878152538" lon="9.949994494577378"><ele>850.8000000000001</ele><time>2026-04-26T08:24:07.999Z</time></trkpt><trkpt lat="45.75278308703726" lon="9.949934486727152"><ele>849.2</ele><time>2026-04-26T08:24:09.999Z</time></trkpt><trkpt lat="45.752672513706386" lon="9.949909790700774"><ele>847.5999999999999</ele><time>2026-04-26T08:24:11.999Z</time></trkpt><trkpt lat="45.752630660764716" lon="9.94980316769422"><ele>846.0</ele><time>2026-04-26T08:24:13.999Z</time></trkpt><trkpt lat="45.75266049270657" lon="9.94962812924821"><ele>846.0</ele><time>2026-04-26T08:24:15.999Z</time></trkpt><trkpt lat="45.75269743448917" lon="9.949546895703504"><ele>846.0</ele><time>2026-04-26T08:24:16.999Z</time></trkpt><trkpt lat="45.75274749981177" lon="9.949486864097068"><ele>846.0</ele><time>2026-04-26T08:24:17.999Z</time></trkpt><trkpt lat="45.75282730119048" lon="9.949318972531273"><ele>846.0</ele><time>2026-04-26T08:24:19.999Z</time></trkpt><trkpt lat="45.752851790645394" lon="9.949225912994505"><ele>846.0</ele><time>2026-04-26T08:24:20.999Z</time></trkpt><trkpt lat="45.752930846447505" lon="9.949194614414417"><ele>846.0</ele><time>2026-04-26T08:24:23.999Z</time></trkpt><trkpt lat="45.75301879767171" lon="9.949193213784547"><ele>838.4</ele><time>2026-04-26T08:24:25.999Z</time></trkpt><trkpt lat="45.753075792868906" lon="9.949123812251402"><ele>830.8</ele><time>2026-04-26T08:24:27.999Z</time></trkpt><trkpt lat="45.75308565279804" lon="9.949007631673183"><ele>823.1999999999999</ele><time>2026-04-26T08:24:29.999Z</time></trkpt><trkpt lat="45.75317542696446" lon="9.949070437114251"><ele>815.5999999999999</ele><time>2026-04-26T08:24:33.999Z</time></trkpt><trkpt lat="45.753267549609355" lon="9.949141712684026"><ele>808.0</ele><time>2026-04-26T08:24:35.999Z</time></trkpt><trkpt lat="45.75336857440965" lon="9.949169147276725"><ele>807.9999999999999</ele><time>2026-04-26T08:24:37.999Z</time></trkpt><trkpt lat="45.75343589758152" lon="9.949104625119972"><ele>808.0</ele><time>2026-04-26T08:24:40.999Z</time></trkpt><trkpt lat="45.753501951256254" lon="9.949014372314718"><ele>808.0</ele><time>2026-04-26T08:24:42.999Z</time></trkpt><trkpt lat="45.75353929462847" lon="9.94891528361598"><ele>808.0</ele><time>2026-04-26T08:24:44.998Z</time></trkpt><trkpt lat="45.753593011410054" lon="9.948851790119921"><ele>807.9999999999999</ele><time>2026-04-26T08:24:46.998Z</time></trkpt><trkpt lat="45.753702700636836" lon="9.948878978223567"><ele>808.0</ele><time>2026-04-26T08:25:29Z</time></trkpt><trkpt lat="45.75376760662953" lon="9.94893810951484"><ele>807.1666666666666</ele><time>2026-04-26T08:25:30Z</time></trkpt><trkpt lat="45.75381943118386" lon="9.948999623758803"><ele>806.3333333333333</ele><time>2026-04-26T08:25:31Z</time></trkpt><trkpt lat="45.75387975916003" lon="9.949087009231166"><ele>805.5</ele><time>2026-04-26T08:25:33Z</time></trkpt><trkpt lat="45.75392189572506" lon="9.94901985100343"><ele>804.6666666666667</ele><time>2026-04-26T08:25:35Z</time></trkpt><trkpt lat="45.75392218476509" lon="9.948875745917876"><ele>803.8333333333334</ele><time>2026-04-26T08:25:37Z</time></trkpt><trkpt lat="45.75391796458225" lon="9.948715400093185"><ele>803.0</ele><time>2026-04-26T08:25:39Z</time></trkpt><trkpt lat="45.753877255645456" lon="9.948565716071483"><ele>803.0</ele><time>2026-04-26T08:25:40.999Z</time></trkpt><trkpt lat="45.753841649938146" lon="9.948411065495648"><ele>803.0</ele><time>2026-04-26T08:25:42.999Z</time></trkpt><trkpt lat="45.75380163493909" lon="9.948243028204526"><ele>803.0</ele><time>2026-04-26T08:25:44.999Z</time></trkpt><trkpt lat="45.753778723774495" lon="9.948140582535755"><ele>803.0</ele><time>2026-04-26T08:25:46.999Z</time></trkpt><trkpt lat="45.75388437138263" lon="9.948185777059695"><ele>803.0</ele><time>2026-04-26T08:25:50.999Z</time></trkpt><trkpt lat="45.75398656437739" lon="9.948269440272101"><ele>796.8333333333334</ele><time>2026-04-26T08:25:52.999Z</time></trkpt><trkpt lat="45.75405567107957" lon="9.948271321857105"><ele>790.6666666666667</ele><time>2026-04-26T08:25:54.999Z</time></trkpt><trkpt lat="45.75411044821739" lon="9.948183467805988"><ele>784.5</ele><time>2026-04-26T08:25:57.999Z</time></trkpt><trkpt lat="45.7541785950637" lon="9.948113912763699"><ele>778.3333333333334</ele><time>2026-04-26T08:25:59.999Z</time></trkpt><trkpt lat="45.75419188571316" lon="9.94800070763894"><ele>772.1666666666667</ele><time>2026-04-26T08:26:01.999Z</time></trkpt><trkpt lat="45.75420688554483" lon="9.947878507069731"><ele>766.0</ele><time>2026-04-26T08:26:03.999Z</time></trkpt><trkpt lat="45.754264165488884" lon="9.947791350222028"><ele>766.0</ele><time>2026-04-26T08:26:05.999Z</time></trkpt><trkpt lat="45.75432972776023" lon="9.947806082636873"><ele>766.0</ele><time>2026-04-26T08:26:06.999Z</time></trkpt><trkpt lat="45.75440192174963" lon="9.947807772822586"><ele>766.0</ele><time>2026-04-26T08:26:07.999Z</time></trkpt><trkpt lat="45.754464154059846" lon="9.947904561945329"><ele>766.0</ele><time>2026-04-26T08:26:55.998Z</time></trkpt><trkpt lat="45.75454646803034" lon="9.947971826726745"><ele>766.0</ele><time>2026-04-26T08:26:57.998Z</time></trkpt><trkpt lat="45.75462834511546" lon="9.94792303531544"><ele>766.0</ele><time>2026-04-26T08:26:59.998Z</time></trkpt><trkpt lat="45.75462147068554" lon="9.947801391693634"><ele>769.1666666666667</ele><time>2026-04-26T08:27:01.998Z</time></trkpt><trkpt lat="45.75456839767236" lon="9.947635428887821"><ele>772.3333333333334</ele><time>2026-04-26T08:27:03.998Z</time></trkpt><trkpt lat="45.75450651427742" lon="9.947542554907324"><ele>775.5</ele><time>2026-04-26T08:27:04.998Z</time></trkpt><trkpt lat="45.75446626147308" lon="9.947442321527856"><ele>778.6666666666667</ele><time>2026-04-26T08:27:05.998Z</time></trkpt><trkpt lat="45.75442286313546" lon="9.947360166836425"><ele>781.8333333333334</ele><time>2026-04-26T08:27:07Z</time></trkpt><trkpt lat="45.7543954901372" lon="9.947277617377777"><ele>785.0</ele><time>2026-04-26T08:27:08Z</time></trkpt><trkpt lat="45.75438317657731" lon="9.94711568664752"><ele>774.0</ele><time>2026-04-26T08:27:10Z</time></trkpt><trkpt lat="45.75440236418326" lon="9.946997071436538"><ele>763.0</ele><time>2026-04-26T08:27:11Z</time></trkpt><trkpt lat="45.75442321688569" lon="9.946858217486078"><ele>752.0</ele><time>2026-04-26T08:27:12Z</time></trkpt><trkpt lat="45.75443756169639" lon="9.946735924687339"><ele>741.0</ele><time>2026-04-26T08:27:13Z</time></trkpt><trkpt lat="45.7544637749066" lon="9.946615814757804"><ele>730.0</ele><time>2026-04-26T08:27:15Z</time></trkpt><trkpt lat="45.75454741815062" lon="9.94667720691381"><ele>730.0000000000001</ele><time>2026-04-26T08:27:18Z</time></trkpt><trkpt lat="45.75457690649162" lon="9.946757150153362"><ele>730.0</ele><time>2026-04-26T08:27:19Z</time></trkpt><trkpt lat="45.75461990271518" lon="9.94683500390958"><ele>730.0</ele><time>2026-04-26T08:27:20Z</time></trkpt><trkpt lat="45.75468681768767" lon="9.946865364519299"><ele>730.0</ele><time>2026-04-26T08:27:21Z</time></trkpt><trkpt lat="45.754759773049535" lon="9.946868756772796"><ele>730.0</ele><time>2026-04-26T08:27:22Z</time></trkpt><trkpt lat="45.754845050693326" lon="9.946848293931435"><ele>730.0000000000001</ele><time>2026-04-26T08:27:23Z</time></trkpt><trkpt lat="45.7549277962793" lon="9.9468325093823"><ele>730.0</ele><time>2026-04-26T08:27:24Z</time></trkpt><trkpt lat="45.75501232869915" lon="9.946826903132362"><ele>730.0</ele><time>2026-04-26T08:27:25Z</time></trkpt><trkpt lat="45.755085898224685" lon="9.946827912012557"><ele>730.0</ele><time>2026-04-26T08:27:26Z</time></trkpt><trkpt lat="45.755186057840014" lon="9.946823637805652"><ele>730.0</ele><time>2026-04-26T08:27:28Z</time></trkpt><trkpt lat="45.755224216650255" lon="9.946721243228298"><ele>730.0</ele><time>2026-04-26T08:27:30Z</time></trkpt><trkpt lat="45.755260545776565" lon="9.946624373995933"><ele>730.0</ele><time>2026-04-26T08:27:31Z</time></trkpt><trkpt lat="45.75531081790154" lon="9.946521531282304"><ele>730.0</ele><time>2026-04-26T08:27:32Z</time></trkpt><trkpt lat="45.75536216112348" lon="9.94642447848913"><ele>725.0</ele><time>2026-04-26T08:27:33Z</time></trkpt><trkpt lat="45.75541888894779" lon="9.94630811252614"><ele>720.0</ele><time>2026-04-26T08:27:34Z</time></trkpt><trkpt lat="45.755484233344575" lon="9.946189416030238"><ele>715.0</ele><time>2026-04-26T08:27:35Z</time></trkpt><trkpt lat="45.75552626809132" lon="9.94609214906106"><ele>710.0</ele><time>2026-04-26T08:27:36Z</time></trkpt><trkpt lat="45.75558065448795" lon="9.945993512733677"><ele>705.0</ele><time>2026-04-26T08:27:37Z</time></trkpt><trkpt lat="45.755634191676606" lon="9.945890897518295"><ele>699.3333333333334</ele><time>2026-04-26T08:27:38Z</time></trkpt><trkpt lat="45.755675253152724" lon="9.94578112957432"><ele>693.6666666666666</ele><time>2026-04-26T08:27:39Z</time></trkpt><trkpt lat="45.75572542441724" lon="9.945699308721874"><ele>688.0</ele><time>2026-04-26T08:27:40Z</time></trkpt><trkpt lat="45.755770591987854" lon="9.945604662847234"><ele>682.3333333333333</ele><time>2026-04-26T08:27:41Z</time></trkpt><trkpt lat="45.75581837973575" lon="9.945502272061319"><ele>676.6666666666666</ele><time>2026-04-26T08:27:42Z</time></trkpt><trkpt lat="45.75587128776286" lon="9.945397356212984"><ele>671.0</ele><time>2026-04-26T08:27:43Z</time></trkpt><trkpt lat="45.7559178690383" lon="9.945308388284268"><ele>671.0</ele><time>2026-04-26T08:27:44Z</time></trkpt><trkpt lat="45.75596710379544" lon="9.945211998308428"><ele>671.0</ele><time>2026-04-26T08:27:45Z</time></trkpt><trkpt lat="45.75602169789974" lon="9.945103671738744"><ele>671.0</ele><time>2026-04-26T08:27:46Z</time></trkpt><trkpt lat="45.756073210623036" lon="9.945012117513407"><ele>671.0</ele><time>2026-04-26T08:27:47Z</time></trkpt><trkpt lat="45.75612652231998" lon="9.94493152528487"><ele>671.0</ele><time>2026-04-26T08:27:48Z</time></trkpt><trkpt lat="45.75617175223106" lon="9.944843922615265"><ele>671.0</ele><time>2026-04-26T08:27:49Z</time></trkpt><trkpt lat="45.75621794382718" lon="9.944769483291294"><ele>668.5999999999999</ele><time>2026-04-26T08:27:50Z</time></trkpt><trkpt lat="45.7562654514945" lon="9.944697542216351"><ele>666.2</ele><time>2026-04-26T08:27:51Z</time></trkpt><trkpt lat="45.75634447919921" lon="9.94456163183408"><ele>663.8</ele><time>2026-04-26T08:27:52.999Z</time></trkpt><trkpt lat="45.756408755394254" lon="9.944448249882518"><ele>661.4000000000001</ele><time>2026-04-26T08:27:54.999Z</time></trkpt><trkpt lat="45.75638431807975" lon="9.944343040098984"><ele>659.0</ele><time>2026-04-26T08:27:56.999Z</time></trkpt><trkpt lat="45.75637737742187" lon="9.944196701086508"><ele>653.0</ele><time>2026-04-26T08:27:58.999Z</time></trkpt><trkpt lat="45.75644029771106" lon="9.944043330050558"><ele>647.0</ele><time>2026-04-26T08:28:00.999Z</time></trkpt><trkpt lat="45.75651168886677" lon="9.94396942931602"><ele>641.0</ele><time>2026-04-26T08:28:01.999Z</time></trkpt><trkpt lat="45.7565727720655" lon="9.943881150181157"><ele>635.0</ele><time>2026-04-26T08:28:02.999Z</time></trkpt><trkpt lat="45.756643269359" lon="9.943782764105134"><ele>629.0</ele><time>2026-04-26T08:28:03.999Z</time></trkpt><trkpt lat="45.75670438551631" lon="9.943683792411125"><ele>629.0</ele><time>2026-04-26T08:28:04.999Z</time></trkpt><trkpt lat="45.75677136900975" lon="9.943570796079406"><ele>629.0</ele><time>2026-04-26T08:28:05.999Z</time></trkpt><trkpt lat="45.756830459092" lon="9.943492383369577"><ele>629.0</ele><time>2026-04-26T08:28:06.999Z</time></trkpt><trkpt lat="45.756891124363506" lon="9.943406342197274"><ele>629.0</ele><time>2026-04-26T08:28:07.999Z</time></trkpt><trkpt lat="45.75694218353455" lon="9.94332609413531"><ele>629.0</ele><time>2026-04-26T08:28:08.999Z</time></trkpt><trkpt lat="45.75698557925933" lon="9.943252467347955"><ele>629.0</ele><time>2026-04-26T08:28:09.999Z</time></trkpt><trkpt lat="45.75703469505742" lon="9.943183152101149"><ele>625.8</ele><time>2026-04-26T08:28:10.999Z</time></trkpt><trkpt lat="45.75713644253506" lon="9.943055255291524"><ele>622.5999999999999</ele><time>2026-04-26T08:28:12.999Z</time></trkpt><trkpt lat="45.75720476748425" lon="9.942984438584652"><ele>619.4</ele><time>2026-04-26T08:28:13.999Z</time></trkpt><trkpt lat="45.75726680693849" lon="9.942911491094378"><ele>616.1999999999999</ele><time>2026-04-26T08:28:14.999Z</time></trkpt><trkpt lat="45.757333825492175" lon="9.942838350085424"><ele>613.0</ele><time>2026-04-26T08:28:15.999Z</time></trkpt><trkpt lat="45.757385583762854" lon="9.942761789931735"><ele>613.0</ele><time>2026-04-26T08:28:16.999Z</time></trkpt><trkpt lat="45.75742247484219" lon="9.942659625528048"><ele>613.0</ele><time>2026-04-26T08:28:17.999Z</time></trkpt><trkpt lat="45.757443332943986" lon="9.942524024802752"><ele>613.0</ele><time>2026-04-26T08:28:18.999Z</time></trkpt><trkpt lat="45.75746520981655" lon="9.942389882731222"><ele>613.0</ele><time>2026-04-26T08:28:19.999Z</time></trkpt><trkpt lat="45.757480953802975" lon="9.942295043999374"><ele>613.0</ele><time>2026-04-26T08:28:20.999Z</time></trkpt><trkpt lat="45.75751000702082" lon="9.942204811379979"><ele>613.0</ele><time>2026-04-26T08:28:21.999Z</time></trkpt><trkpt lat="45.7575460341777" lon="9.94212176556694"><ele>611.1666666666667</ele><time>2026-04-26T08:28:22.999Z</time></trkpt><trkpt lat="45.757656278270396" lon="9.942017389255069"><ele>609.3333333333334</ele><time>2026-04-26T08:28:24.999Z</time></trkpt><trkpt lat="45.75773849146349" lon="9.941984903416728"><ele>607.5</ele><time>2026-04-26T08:28:25.999Z</time></trkpt><trkpt lat="45.7578102717855" lon="9.941953268148014"><ele>605.6666666666666</ele><time>2026-04-26T08:28:26.999Z</time></trkpt><trkpt lat="45.75787186816273" lon="9.941900708815393"><ele>603.8333333333333</ele><time>2026-04-26T08:28:27.999Z</time></trkpt><trkpt lat="45.757918446927825" lon="9.941813759946172"><ele>602.0</ele><time>2026-04-26T08:28:28.999Z</time></trkpt><trkpt lat="45.757971023433626" lon="9.941713839508859"><ele>596.1666666666666</ele><time>2026-04-26T08:28:29.999Z</time></trkpt><trkpt lat="45.758027620148965" lon="9.941627306000612"><ele>590.3333333333333</ele><time>2026-04-26T08:28:30.999Z</time></trkpt><trkpt lat="45.758091925381834" lon="9.94153893686694"><ele>584.5</ele><time>2026-04-26T08:28:31.999Z</time></trkpt><trkpt lat="45.758166384842305" lon="9.941459255566759"><ele>578.6666666666666</ele><time>2026-04-26T08:28:32.999Z</time></trkpt><trkpt lat="45.7582365239175" lon="9.94138304407376"><ele>572.8333333333334</ele><time>2026-04-26T08:28:33.999Z</time></trkpt><trkpt lat="45.75830761143423" lon="9.94130384896806"><ele>567.0</ele><time>2026-04-26T08:28:34.999Z</time></trkpt><trkpt lat="45.7583961637076" lon="9.941221863648135"><ele>567.0</ele><time>2026-04-26T08:28:35.999Z</time></trkpt><trkpt lat="45.75848066575453" lon="9.941149215600234"><ele>567.0</ele><time>2026-04-26T08:28:36.999Z</time></trkpt><trkpt lat="45.75855258206715" lon="9.941043602610739"><ele>567.0</ele><time>2026-04-26T08:28:37.999Z</time></trkpt><trkpt lat="45.75864814569568" lon="9.940949469565348"><ele>567.0</ele><time>2026-04-26T08:28:38.999Z</time></trkpt><trkpt lat="45.7587134060141" lon="9.940869346311747"><ele>567.0</ele><time>2026-04-26T08:28:39.999Z</time></trkpt><trkpt lat="45.7587800688556" lon="9.94080054771605"><ele>563.6</ele><time>2026-04-26T08:28:40.999Z</time></trkpt><trkpt lat="45.75883913004276" lon="9.940724017412375"><ele>560.2</ele><time>2026-04-26T08:28:41.999Z</time></trkpt><trkpt lat="45.75891789350808" lon="9.9406391921738"><ele>556.8</ele><time>2026-04-26T08:28:42.999Z</time></trkpt><trkpt lat="45.75899166625984" lon="9.940564863488252"><ele>553.4</ele><time>2026-04-26T08:28:43.999Z</time></trkpt><trkpt lat="45.7590832639585" lon="9.940488235176463"><ele>550.0</ele><time>2026-04-26T08:28:44.999Z</time></trkpt><trkpt lat="45.75917781527355" lon="9.940401708467373"><ele>550.0</ele><time>2026-04-26T08:28:45.999Z</time></trkpt><trkpt lat="45.75926872906489" lon="9.940320776978162"><ele>550.0</ele><time>2026-04-26T08:28:46.999Z</time></trkpt><trkpt lat="45.75935595064836" lon="9.940239679207018"><ele>550.0</ele><time>2026-04-26T08:28:47.999Z</time></trkpt><trkpt lat="45.75944018719353" lon="9.940151140318545"><ele>550.0</ele><time>2026-04-26T08:28:48.999Z</time></trkpt><trkpt lat="45.75951986196612" lon="9.940057842469002"><ele>550.0</ele><time>2026-04-26T08:28:49.999Z</time></trkpt><trkpt lat="45.75960153969032" lon="9.939966810770514"><ele>547.6</ele><time>2026-04-26T08:28:50.999Z</time></trkpt><trkpt lat="45.75967219218365" lon="9.939855414508799"><ele>545.2</ele><time>2026-04-26T08:28:51.999Z</time></trkpt><trkpt lat="45.759757150546974" lon="9.939760166507321"><ele>542.8</ele><time>2026-04-26T08:28:52.999Z</time></trkpt><trkpt lat="45.759849646245186" lon="9.939659003419921"><ele>540.4</ele><time>2026-04-26T08:28:53.999Z</time></trkpt><trkpt lat="45.759931523316766" lon="9.939568316076238"><ele>538.0</ele><time>2026-04-26T08:28:54.999Z</time></trkpt><trkpt lat="45.76000905645895" lon="9.939495885457893"><ele>538.0</ele><time>2026-04-26T08:28:55.998Z</time></trkpt><trkpt lat="45.76009173825795" lon="9.939440125742346"><ele>538.0</ele><time>2026-04-26T08:28:56.998Z</time></trkpt><trkpt lat="45.76016207006599" lon="9.939353169726477"><ele>538.0</ele><time>2026-04-26T08:28:57.998Z</time></trkpt><trkpt lat="45.76023188309945" lon="9.939295316832931"><ele>538.0</ele><time>2026-04-26T08:28:58.998Z</time></trkpt><trkpt lat="45.76032877249029" lon="9.939343175422863"><ele>538.0</ele><time>2026-04-26T08:28:59.998Z</time></trkpt><trkpt lat="45.7603836815799" lon="9.939290414326967"><ele>538.0</ele><time>2026-04-26T08:29:00.998Z</time></trkpt><trkpt lat="45.76043762244979" lon="9.93921208518523"><ele>531.5</ele><time>2026-04-26T08:29:02.998Z</time></trkpt><trkpt lat="45.760296993881326" lon="9.939161904222502"><ele>525.0</ele><time>2026-04-26T08:29:07.998Z</time></trkpt><trkpt lat="45.76022595022729" lon="9.939156593581032"><ele>518.5</ele><time>2026-04-26T08:29:09.998Z</time></trkpt><trkpt lat="45.76005831794651" lon="9.939187992654519"><ele>512.0</ele><time>2026-04-26T08:29:10.998Z</time></trkpt><trkpt lat="45.75994593638812" lon="9.939217337313284"><ele>510.40000000000003</ele><time>2026-04-26T08:29:11.998Z</time></trkpt><trkpt lat="45.7598404687316" lon="9.939232840750595"><ele>508.80000000000007</ele><time>2026-04-26T08:29:13Z</time></trkpt><trkpt lat="45.759733215198544" lon="9.939220595157066"><ele>507.2</ele><time>2026-04-26T08:29:14Z</time></trkpt><trkpt lat="45.75965483483809" lon="9.939215615885894"><ele>505.6</ele><time>2026-04-26T08:29:15Z</time></trkpt><trkpt lat="45.759565707359975" lon="9.939210884325123"><ele>504.0</ele><time>2026-04-26T08:29:16Z</time></trkpt><trkpt lat="45.75948139175763" lon="9.93919165128929"><ele>504.0</ele><time>2026-04-26T08:29:17Z</time></trkpt><trkpt lat="45.75941728986222" lon="9.93907977818763"><ele>504.0</ele><time>2026-04-26T08:29:19Z</time></trkpt><trkpt lat="45.759492206263694" lon="9.9389019620194"><ele>504.0</ele><time>2026-04-26T08:29:21Z</time></trkpt><trkpt lat="45.759586174250686" lon="9.938782594335565"><ele>504.0</ele><time>2026-04-26T08:29:22Z</time></trkpt><trkpt lat="45.75967130575829" lon="9.938655901340724"><ele>504.0</ele><time>2026-04-26T08:29:23Z</time></trkpt><trkpt lat="45.75976607292559" lon="9.938516723744403"><ele>504.0</ele><time>2026-04-26T08:29:24Z</time></trkpt><trkpt lat="45.75986860660204" lon="9.938392705222732"><ele>504.0</ele><time>2026-04-26T08:29:25Z</time></trkpt><trkpt lat="45.75995493307251" lon="9.938260601205156"><ele>504.0</ele><time>2026-04-26T08:29:26Z</time></trkpt><trkpt lat="45.76002050266699" lon="9.938087101995547"><ele>497.0</ele><time>2026-04-26T08:29:27Z</time></trkpt><trkpt lat="45.7600881467901" lon="9.937894368080462"><ele>490.0</ele><time>2026-04-26T08:29:28Z</time></trkpt><trkpt lat="45.76015933259999" lon="9.937702856478243"><ele>483.0</ele><time>2026-04-26T08:29:29Z</time></trkpt><trkpt lat="45.76022555142289" lon="9.937535804927185"><ele>476.0</ele><time>2026-04-26T08:29:30Z</time></trkpt><trkpt lat="45.760287869998095" lon="9.937401458529548"><ele>474.8</ele><time>2026-04-26T08:29:31Z</time></trkpt><trkpt lat="45.76036311042572" lon="9.93730050868924"><ele>473.6</ele><time>2026-04-26T08:29:32Z</time></trkpt><trkpt lat="45.760426894515966" lon="9.937210907222084"><ele>472.4</ele><time>2026-04-26T08:29:33Z</time></trkpt><trkpt lat="45.76051049054288" lon="9.937090721862138"><ele>471.2</ele><time>2026-04-26T08:29:34Z</time></trkpt><trkpt lat="45.760598661069096" lon="9.93703908991158"><ele>470.0</ele><time>2026-04-26T08:29:35Z</time></trkpt><trkpt lat="45.760692235569984" lon="9.936969336567303"><ele>470.0</ele><time>2026-04-26T08:29:36Z</time></trkpt><trkpt lat="45.760812700880294" lon="9.936925209308132"><ele>470.0</ele><time>2026-04-26T08:29:37Z</time></trkpt><trkpt lat="45.76092029570529" lon="9.936847754278476"><ele>470.0</ele><time>2026-04-26T08:29:38Z</time></trkpt><trkpt lat="45.76101407951684" lon="9.936750948577474"><ele>470.0</ele><time>2026-04-26T08:29:39Z</time></trkpt><trkpt lat="45.76109091703177" lon="9.936669485697271"><ele>465.8</ele><time>2026-04-26T08:29:40Z</time></trkpt><trkpt lat="45.76115063413772" lon="9.936619033953699"><ele>461.6</ele><time>2026-04-26T08:29:41Z</time></trkpt><trkpt lat="45.76127083818998" lon="9.936548150565162"><ele>457.4</ele><time>2026-04-26T08:29:43Z</time></trkpt><trkpt lat="45.76135530973286" lon="9.93650782476622"><ele>453.2</ele><time>2026-04-26T08:29:44Z</time></trkpt><trkpt lat="45.761460493022554" lon="9.936437542138444"><ele>449.0</ele><time>2026-04-26T08:29:46Z</time></trkpt><trkpt lat="45.761449502108" lon="9.93630602118534"><ele>448.99999999999994</ele><time>2026-04-26T08:29:47Z</time></trkpt><trkpt lat="45.761395951592164" lon="9.936155652198595"><ele>449.0</ele><time>2026-04-26T08:29:49Z</time></trkpt><trkpt lat="45.761396761254524" lon="9.936046685747792"><ele>449.0</ele><time>2026-04-26T08:29:51Z</time></trkpt><trkpt lat="45.76150597060466" lon="9.9359972182446"><ele>449.0</ele><time>2026-04-26T08:29:52Z</time></trkpt><trkpt lat="45.761573734418164" lon="9.935986386971688"><ele>448.99999999999994</ele><time>2026-04-26T08:29:53Z</time></trkpt><trkpt lat="45.76164123235532" lon="9.935963886936452"><ele>449.0</ele><time>2026-04-26T08:29:54Z</time></trkpt><trkpt lat="45.76171466016098" lon="9.935929837603966"><ele>445.16666666666663</ele><time>2026-04-26T08:29:55Z</time></trkpt><trkpt lat="45.761766608667116" lon="9.935858937779038"><ele>441.3333333333333</ele><time>2026-04-26T08:29:56.999Z</time></trkpt><trkpt lat="45.76169073764828" lon="9.935816836715196"><ele>437.5</ele><time>2026-04-26T08:29:59.999Z</time></trkpt><trkpt lat="45.76159346518309" lon="9.93579526919664"><ele>433.66666666666663</ele><time>2026-04-26T08:30:01.999Z</time></trkpt><trkpt lat="45.76151940726327" lon="9.93570973433111"><ele>429.8333333333333</ele><time>2026-04-26T08:30:04.999Z</time></trkpt><trkpt lat="45.76148373310269" lon="9.935572501129446"><ele>426.0</ele><time>2026-04-26T08:30:06.999Z</time></trkpt><trkpt lat="45.76153037287594" lon="9.935499014391189"><ele>426.0</ele><time>2026-04-26T08:31:00.998Z</time></trkpt><trkpt lat="45.76155353881359" lon="9.935407139163168"><ele>426.0</ele><time>2026-04-26T08:31:02.998Z</time></trkpt><trkpt lat="45.76158152872226" lon="9.93531013161703"><ele>426.0</ele><time>2026-04-26T08:31:04.998Z</time></trkpt><trkpt lat="45.76163156573704" lon="9.935150714820184"><ele>426.0</ele><time>2026-04-26T08:31:06.998Z</time></trkpt><trkpt lat="45.76165799822489" lon="9.935024010000202"><ele>426.0</ele><time>2026-04-26T08:31:07.998Z</time></trkpt><trkpt lat="45.76169778152525" lon="9.934925659946446"><ele>426.0</ele><time>2026-04-26T08:31:08.998Z</time></trkpt><trkpt lat="45.76172054280655" lon="9.934813161604716"><ele>423.3333333333333</ele><time>2026-04-26T08:31:09.998Z</time></trkpt><trkpt lat="45.761735204746344" lon="9.934687395222138"><ele>420.66666666666663</ele><time>2026-04-26T08:31:10.998Z</time></trkpt><trkpt lat="45.76172859851545" lon="9.934583673818853"><ele>418.0</ele><time>2026-04-26T08:31:11.998Z</time></trkpt><trkpt lat="45.761719848824605" lon="9.934431933662296"><ele>415.3333333333333</ele><time>2026-04-26T08:31:13.998Z</time></trkpt><trkpt lat="45.76175789947516" lon="9.93434609268099"><ele>412.66666666666663</ele><time>2026-04-26T08:31:15.998Z</time></trkpt><trkpt lat="45.76181739540134" lon="9.934404272683283"><ele>410.0</ele><time>2026-04-26T08:31:17.998Z</time></trkpt><trkpt lat="45.76189050105706" lon="9.934398337571334"><ele>407.99999999999994</ele><time>2026-04-26T08:31:20Z</time></trkpt><trkpt lat="45.7619485543099" lon="9.934318024147016"><ele>406.0</ele><time>2026-04-26T08:31:22Z</time></trkpt><trkpt lat="45.761925799133884" lon="9.934220767828196"><ele>404.0</ele><time>2026-04-26T08:31:23Z</time></trkpt><trkpt lat="45.76185810000502" lon="9.934153245111377"><ele>402.0</ele><time>2026-04-26T08:31:24Z</time></trkpt><trkpt lat="45.76178155061568" lon="9.934054588560256"><ele>399.99999999999994</ele><time>2026-04-26T08:31:26Z</time></trkpt><trkpt lat="45.7617255933446" lon="9.9339458852513"><ele>398.0</ele><time>2026-04-26T08:31:28Z</time></trkpt><trkpt lat="45.76165090010475" lon="9.933918169158042"><ele>397.99999999999994</ele><time>2026-04-26T08:31:30Z</time></trkpt><trkpt lat="45.761692638175134" lon="9.933839503189914"><ele>398.0</ele><time>2026-04-26T08:32:28.999Z</time></trkpt><trkpt lat="45.76163796456301" lon="9.933702213158531"><ele>398.0</ele><time>2026-04-26T08:32:32.999Z</time></trkpt><trkpt lat="45.76163131435259" lon="9.933612047167049"><ele>398.0</ele><time>2026-04-26T08:32:33.999Z</time></trkpt><trkpt lat="45.7615913118727" lon="9.933510613490226"><ele>397.99999999999994</ele><time>2026-04-26T08:32:34.999Z</time></trkpt><trkpt lat="45.7615693041047" lon="9.933424788920018"><ele>398.0</ele><time>2026-04-26T08:32:35.999Z</time></trkpt><trkpt lat="45.761522623905435" lon="9.933348354018168"><ele>394.2</ele><time>2026-04-26T08:32:36.999Z</time></trkpt><trkpt lat="45.76149979467168" lon="9.933263323587278"><ele>390.4</ele><time>2026-04-26T08:32:37.999Z</time></trkpt><trkpt lat="45.76147192378086" lon="9.933087208875946"><ele>386.59999999999997</ele><time>2026-04-26T08:32:39.999Z</time></trkpt><trkpt lat="45.76146770361553" lon="9.932992871321865"><ele>382.79999999999995</ele><time>2026-04-26T08:32:40.999Z</time></trkpt><trkpt lat="45.76146675036216" lon="9.932820781740794"><ele>379.0</ele><time>2026-04-26T08:32:42.999Z</time></trkpt><trkpt lat="45.761420628644245" lon="9.932690434712535"><ele>379.0</ele><time>2026-04-26T08:32:44.999Z</time></trkpt><trkpt lat="45.76140543837404" lon="9.932572091006408"><ele>379.0</ele><time>2026-04-26T08:32:46.999Z</time></trkpt><trkpt lat="45.761410877259436" lon="9.932459914604477"><ele>379.0</ele><time>2026-04-26T08:32:52.999Z</time></trkpt><trkpt lat="45.76136996301561" lon="9.932329804630761"><ele>379.0</ele><time>2026-04-26T08:32:54.999Z</time></trkpt><trkpt lat="45.76129650749541" lon="9.93223383034412"><ele>379.0</ele><time>2026-04-26T08:32:56.999Z</time></trkpt><trkpt lat="45.76124882787273" lon="9.932165293448502"><ele>379.0</ele><time>2026-04-26T08:32:58.999Z</time></trkpt><trkpt lat="45.76120265388327" lon="9.932101028056486"><ele>379.6</ele><time>2026-04-26T08:33:00.999Z</time></trkpt><trkpt lat="45.76114274969599" lon="9.932025194856363"><ele>380.2</ele><time>2026-04-26T08:33:02.999Z</time></trkpt><trkpt lat="45.761107821406014" lon="9.931944351944583"><ele>380.8</ele><time>2026-04-26T08:33:04.999Z</time></trkpt><trkpt lat="45.76104982007118" lon="9.931829936716154"><ele>381.40000000000003</ele><time>2026-04-26T08:33:18.998Z</time></trkpt><trkpt lat="45.76095534811888" lon="9.931698740178236"><ele>382.0</ele><time>2026-04-26T08:33:20.998Z</time></trkpt><trkpt lat="45.76088672062905" lon="9.93162028132392"><ele>382.0</ele><time>2026-04-26T08:33:21.998Z</time></trkpt><trkpt lat="45.76080721846213" lon="9.931522126491743"><ele>382.0</ele><time>2026-04-26T08:33:22.998Z</time></trkpt><trkpt lat="45.760732521130784" lon="9.931402053815845"><ele>382.0</ele><time>2026-04-26T08:33:23.998Z</time></trkpt><trkpt lat="45.760646967237484" lon="9.931271253211827"><ele>382.0</ele><time>2026-04-26T08:33:25Z</time></trkpt><trkpt lat="45.760553730864004" lon="9.931139315407977"><ele>382.0</ele><time>2026-04-26T08:33:26Z</time></trkpt><trkpt lat="45.760472234584256" lon="9.931017485759195"><ele>382.0</ele><time>2026-04-26T08:33:27Z</time></trkpt><trkpt lat="45.76039747943068" lon="9.930897330080095"><ele>382.0</ele><time>2026-04-26T08:33:28Z</time></trkpt><trkpt lat="45.760318661034255" lon="9.930775581941015"><ele>382.0</ele><time>2026-04-26T08:33:29Z</time></trkpt><trkpt lat="45.76023057805346" lon="9.930640403876971"><ele>383.25</ele><time>2026-04-26T08:33:30Z</time></trkpt><trkpt lat="45.76014094319024" lon="9.930506214255013"><ele>384.5</ele><time>2026-04-26T08:33:31Z</time></trkpt><trkpt lat="45.76005158544808" lon="9.930363078236132"><ele>385.75</ele><time>2026-04-26T08:33:32Z</time></trkpt><trkpt lat="45.75996578044795" lon="9.930205071684313"><ele>387.0</ele><time>2026-04-26T08:33:33Z</time></trkpt><trkpt lat="45.759890318568544" lon="9.930033652197302"><ele>380.0</ele><time>2026-04-26T08:33:34Z</time></trkpt><trkpt lat="45.75981453836937" lon="9.929845690349039"><ele>373.0</ele><time>2026-04-26T08:33:35Z</time></trkpt><trkpt lat="45.75974293387364" lon="9.929647465318489"><ele>366.0</ele><time>2026-04-26T08:33:36Z</time></trkpt><trkpt lat="45.75967461231669" lon="9.92943792614309"><ele>366.0</ele><time>2026-04-26T08:33:37Z</time></trkpt><trkpt lat="45.75960673595235" lon="9.929227436192742"><ele>366.0</ele><time>2026-04-26T08:33:38Z</time></trkpt><trkpt lat="45.75953656665341" lon="9.929011617333654"><ele>366.0</ele><time>2026-04-26T08:33:39Z</time></trkpt><trkpt lat="45.759465972813885" lon="9.928798650567552"><ele>365.0</ele><time>2026-04-26T08:33:40Z</time></trkpt><trkpt lat="45.75940463099835" lon="9.928590408296861"><ele>364.0</ele><time>2026-04-26T08:33:41Z</time></trkpt><trkpt lat="45.75933656393302" lon="9.92839442721726"><ele>363.0</ele><time>2026-04-26T08:33:42Z</time></trkpt><trkpt lat="45.75926943954465" lon="9.928206227489106"><ele>363.0</ele><time>2026-04-26T08:33:43Z</time></trkpt><trkpt lat="45.75921134744172" lon="9.928014978341043"><ele>363.0</ele><time>2026-04-26T08:33:44Z</time></trkpt><trkpt lat="45.759156794152105" lon="9.927832822886254"><ele>363.0</ele><time>2026-04-26T08:33:45Z</time></trkpt><trkpt lat="45.759090718783426" lon="9.927638748668931"><ele>363.0</ele><time>2026-04-26T08:33:46Z</time></trkpt><trkpt lat="45.75902969822231" lon="9.927447258260289"><ele>359.5</ele><time>2026-04-26T08:33:47Z</time></trkpt><trkpt lat="45.758963234832734" lon="9.92725302722741"><ele>356.0</ele><time>2026-04-26T08:33:48Z</time></trkpt><trkpt lat="45.758902531373444" lon="9.927057611103185"><ele>352.5</ele><time>2026-04-26T08:33:49Z</time></trkpt><trkpt lat="45.75884772593139" lon="9.926864657024291"><ele>349.0</ele><time>2026-04-26T08:33:50Z</time></trkpt><trkpt lat="45.75879741775146" lon="9.92667808051462"><ele>346.75</ele><time>2026-04-26T08:33:51Z</time></trkpt><trkpt lat="45.758747287629504" lon="9.92648479952264"><ele>344.5</ele><time>2026-04-26T08:33:52Z</time></trkpt><trkpt lat="45.75869868075064" lon="9.92630121190481"><ele>342.25</ele><time>2026-04-26T08:33:53Z</time></trkpt><trkpt lat="45.75865503821167" lon="9.926116494988449"><ele>340.0</ele><time>2026-04-26T08:33:54Z</time></trkpt><trkpt lat="45.75860636168962" lon="9.925927999129806"><ele>338.5</ele><time>2026-04-26T08:33:55Z</time></trkpt><trkpt lat="45.758557592519956" lon="9.92573558672932"><ele>337.0</ele><time>2026-04-26T08:33:56Z</time></trkpt><trkpt lat="45.75851565932398" lon="9.925538479235437"><ele>335.5</ele><time>2026-04-26T08:33:57Z</time></trkpt><trkpt lat="45.75847698675039" lon="9.925331063088523"><ele>334.0</ele><time>2026-04-26T08:33:58Z</time></trkpt><trkpt lat="45.75844660159704" lon="9.925113427380772"><ele>337.3333333333333</ele><time>2026-04-26T08:33:59Z</time></trkpt><trkpt lat="45.758426263413774" lon="9.92488869592297"><ele>340.6666666666667</ele><time>2026-04-26T08:34:00Z</time></trkpt><trkpt lat="45.758407220979315" lon="9.92466170686867"><ele>344.0</ele><time>2026-04-26T08:34:01Z</time></trkpt><trkpt lat="45.75838633230011" lon="9.924453482230012"><ele>344.0</ele><time>2026-04-26T08:34:02Z</time></trkpt><trkpt lat="45.758361534611716" lon="9.92426539597988"><ele>344.0</ele><time>2026-04-26T08:34:03Z</time></trkpt><trkpt lat="45.758312276425556" lon="9.924082319609827"><ele>344.0</ele><time>2026-04-26T08:34:04Z</time></trkpt><trkpt lat="45.758244265814845" lon="9.923882285901998"><ele>344.0</ele><time>2026-04-26T08:34:05Z</time></trkpt><trkpt lat="45.758179497243475" lon="9.923686764028506"><ele>343.6666666666667</ele><time>2026-04-26T08:34:06Z</time></trkpt><trkpt lat="45.75811084372454" lon="9.923482858601986"><ele>343.3333333333333</ele><time>2026-04-26T08:34:07Z</time></trkpt><trkpt lat="45.75802771907485" lon="9.92332159482151"><ele>343.0</ele><time>2026-04-26T08:34:08Z</time></trkpt><trkpt lat="45.75790584635629" lon="9.92318639103007"><ele>342.3333333333333</ele><time>2026-04-26T08:34:09Z</time></trkpt><trkpt lat="45.75776997779906" lon="9.923063414150231"><ele>341.6666666666667</ele><time>2026-04-26T08:34:10Z</time></trkpt><trkpt lat="45.75764047040166" lon="9.922927132523466"><ele>341.0</ele><time>2026-04-26T08:34:10.999Z</time></trkpt><trkpt lat="45.75753567316048" lon="9.922785576742442"><ele>343.0</ele><time>2026-04-26T08:34:11.999Z</time></trkpt><trkpt lat="45.75744600559695" lon="9.922623646920231"><ele>345.0</ele><time>2026-04-26T08:34:12.999Z</time></trkpt><trkpt lat="45.75737124851616" lon="9.922430231840528"><ele>347.0</ele><time>2026-04-26T08:34:13.999Z</time></trkpt><trkpt lat="45.757311284667566" lon="9.922211892240142"><ele>347.0</ele><time>2026-04-26T08:34:14.999Z</time></trkpt><trkpt lat="45.757245432595774" lon="9.92199131958147"><ele>347.0</ele><time>2026-04-26T08:34:15.999Z</time></trkpt><trkpt lat="45.75717810539311" lon="9.921769318311638"><ele>347.0</ele><time>2026-04-26T08:34:16.999Z</time></trkpt><trkpt lat="45.75711060870483" lon="9.921544347185698"><ele>347.0</ele><time>2026-04-26T08:34:17.999Z</time></trkpt><trkpt lat="45.75703829696301" lon="9.921321869021797"><ele>347.0</ele><time>2026-04-26T08:34:18.999Z</time></trkpt><trkpt lat="45.756979404609595" lon="9.921107972997254"><ele>347.0</ele><time>2026-04-26T08:34:19.999Z</time></trkpt><trkpt lat="45.75693418730552" lon="9.920893832174952"><ele>347.0</ele><time>2026-04-26T08:34:20.999Z</time></trkpt><trkpt lat="45.756909074091766" lon="9.920680878980365"><ele>347.0</ele><time>2026-04-26T08:34:21.999Z</time></trkpt><trkpt lat="45.75693892744109" lon="9.920452853469207"><ele>347.0</ele><time>2026-04-26T08:34:22.999Z</time></trkpt><trkpt lat="45.756962838819085" lon="9.920200385397576"><ele>346.0</ele><time>2026-04-26T08:34:23.999Z</time></trkpt><trkpt lat="45.756995765514034" lon="9.919954436625337"><ele>345.0</ele><time>2026-04-26T08:34:24.999Z</time></trkpt><trkpt lat="45.75703422343718" lon="9.919716398113426"><ele>344.0</ele><time>2026-04-26T08:34:25.999Z</time></trkpt><trkpt lat="45.75706775272626" lon="9.91949443076122"><ele>344.0</ele><time>2026-04-26T08:34:26.999Z</time></trkpt><trkpt lat="45.75710324353642" lon="9.919282256480193"><ele>344.0</ele><time>2026-04-26T08:34:27.999Z</time></trkpt><trkpt lat="45.757089261703854" lon="9.919048993947118"><ele>344.0</ele><time>2026-04-26T08:34:28.999Z</time></trkpt><trkpt lat="45.75703175178981" lon="9.918829099851468"><ele>344.0</ele><time>2026-04-26T08:34:29.999Z</time></trkpt><trkpt lat="45.75695742784371" lon="9.91860170900694"><ele>344.0</ele><time>2026-04-26T08:34:30.999Z</time></trkpt><trkpt lat="45.756871402636634" lon="9.91837372085943"><ele>344.0</ele><time>2026-04-26T08:34:31.999Z</time></trkpt><trkpt lat="45.75678028214952" lon="9.918161364033946"><ele>342.6666666666667</ele><time>2026-04-26T08:34:32.999Z</time></trkpt><trkpt lat="45.756687262952866" lon="9.9179444589178"><ele>341.3333333333333</ele><time>2026-04-26T08:34:33.999Z</time></trkpt><trkpt lat="45.75660137083831" lon="9.917729382829677"><ele>340.0</ele><time>2026-04-26T08:34:34.999Z</time></trkpt><trkpt lat="45.75651267133166" lon="9.917519070539388"><ele>339.3333333333333</ele><time>2026-04-26T08:34:35.999Z</time></trkpt><trkpt lat="45.756420287224" lon="9.91731397356484"><ele>338.6666666666667</ele><time>2026-04-26T08:34:36.999Z</time></trkpt><trkpt lat="45.75634171061077" lon="9.917108683522361"><ele>338.0</ele><time>2026-04-26T08:34:37.999Z</time></trkpt><trkpt lat="45.756270344269396" lon="9.916890425254213"><ele>338.0</ele><time>2026-04-26T08:34:38.999Z</time></trkpt><trkpt lat="45.756204364568895" lon="9.916663015566488"><ele>338.0</ele><time>2026-04-26T08:34:39.999Z</time></trkpt><trkpt lat="45.75613512580799" lon="9.916430346414597"><ele>338.0</ele><time>2026-04-26T08:34:40.999Z</time></trkpt><trkpt lat="45.756064381179854" lon="9.916205861752587"><ele>337.6666666666667</ele><time>2026-04-26T08:34:41.999Z</time></trkpt><trkpt lat="45.755992031862846" lon="9.915985375916126"><ele>337.3333333333333</ele><time>2026-04-26T08:34:42.999Z</time></trkpt><trkpt lat="45.755915023099426" lon="9.915768970031056"><ele>337.0</ele><time>2026-04-26T08:34:43.999Z</time></trkpt><trkpt lat="45.755837376694295" lon="9.915563796187365"><ele>337.0</ele><time>2026-04-26T08:34:44.999Z</time></trkpt><trkpt lat="45.75576479377303" lon="9.915380555684527"><ele>337.0</ele><time>2026-04-26T08:34:45.999Z</time></trkpt><trkpt lat="45.75569781099864" lon="9.915207468728763"><ele>337.0</ele><time>2026-04-26T08:34:46.999Z</time></trkpt><trkpt lat="45.755636577611774" lon="9.915040327613452"><ele>337.0</ele><time>2026-04-26T08:34:47.999Z</time></trkpt><trkpt lat="45.75557590461449" lon="9.914882181646204"><ele>337.0</ele><time>2026-04-26T08:34:48.999Z</time></trkpt><trkpt lat="45.755511412336915" lon="9.91472554596617"><ele>337.0</ele><time>2026-04-26T08:34:49.999Z</time></trkpt><trkpt lat="45.7554470751557" lon="9.914576587249684"><ele>337.0</ele><time>2026-04-26T08:34:50.999Z</time></trkpt><trkpt lat="45.75539096787546" lon="9.91444486895947"><ele>337.0</ele><time>2026-04-26T08:34:51.999Z</time></trkpt><trkpt lat="45.755344713435754" lon="9.914345662381415"><ele>337.0</ele><time>2026-04-26T08:34:52.999Z</time></trkpt><trkpt lat="45.75529821228041" lon="9.91423898076059"><ele>337.0</ele><time>2026-04-26T08:34:53.999Z</time></trkpt><trkpt lat="45.755246871752576" lon="9.9141140242954"><ele>337.0</ele><time>2026-04-26T08:34:54.999Z</time></trkpt><trkpt lat="45.75519232684924" lon="9.913977511826598"><ele>337.0</ele><time>2026-04-26T08:34:55.999Z</time></trkpt><trkpt lat="45.75513642057353" lon="9.913832067616314"><ele>337.0</ele><time>2026-04-26T08:34:56.999Z</time></trkpt><trkpt lat="45.75508407330673" lon="9.913676984887847"><ele>337.0</ele><time>2026-04-26T08:34:57.999Z</time></trkpt><trkpt lat="45.755040777598914" lon="9.913529732373176"><ele>337.16666666666663</ele><time>2026-04-26T08:34:58.999Z</time></trkpt><trkpt lat="45.755005781811626" lon="9.913391432770355"><ele>337.3333333333333</ele><time>2026-04-26T08:34:59.999Z</time></trkpt><trkpt lat="45.754974847409606" lon="9.913261089720963"><ele>337.5</ele><time>2026-04-26T08:35:00.999Z</time></trkpt><trkpt lat="45.754950738174564" lon="9.913141902452692"><ele>337.6666666666667</ele><time>2026-04-26T08:35:01.999Z</time></trkpt><trkpt lat="45.75492605032526" lon="9.913029454307505"><ele>337.83333333333337</ele><time>2026-04-26T08:35:02.999Z</time></trkpt><trkpt lat="45.75489899721562" lon="9.912924176145031"><ele>338.0</ele><time>2026-04-26T08:35:03.999Z</time></trkpt><trkpt lat="45.75487363494242" lon="9.912820787411688"><ele>338.0</ele><time>2026-04-26T08:35:04.999Z</time></trkpt><trkpt lat="45.75484979788181" lon="9.912720295918216"><ele>338.0</ele><time>2026-04-26T08:35:05.999Z</time></trkpt><trkpt lat="45.75482755814988" lon="9.912629521441087"><ele>338.0</ele><time>2026-04-26T08:35:06.999Z</time></trkpt><trkpt lat="45.75478550827442" lon="9.91246173345159"><ele>338.0</ele><time>2026-04-26T08:35:08.999Z</time></trkpt><trkpt lat="45.7547416843111" lon="9.912304135525916"><ele>338.0</ele><time>2026-04-26T08:35:10.999Z</time></trkpt><trkpt lat="45.75471653076499" lon="9.912181386829342"><ele>337.59999999999997</ele><time>2026-04-26T08:35:12.999Z</time></trkpt><trkpt lat="45.754697522002544" lon="9.91207759237802"><ele>337.2</ele><time>2026-04-26T08:35:14.998Z</time></trkpt><trkpt lat="45.75468122788533" lon="9.91194368937195"><ele>336.8</ele><time>2026-04-26T08:35:16.998Z</time></trkpt><trkpt lat="45.7548377235857" lon="9.9119200527854"><ele>336.4</ele><time>2026-04-26T08:35:21.998Z</time></trkpt><trkpt lat="45.754908883401676" lon="9.911985481077126"><ele>336.0</ele><time>2026-04-26T08:35:23.998Z</time></trkpt><trkpt lat="45.754967136781595" lon="9.912025830947172"><ele>336.0</ele><time>2026-04-26T08:35:36Z</time></trkpt><trkpt lat="45.75496523454204" lon="9.912125477241517"><ele>336.0</ele><time>2026-04-26T08:44:40.999Z</time></trkpt><trkpt lat="45.755032898088444" lon="9.912144490006286"><ele>336.0</ele><time>2026-04-26T08:44:45.999Z</time></trkpt><trkpt lat="45.755147646799365" lon="9.912146936283524"><ele>336.0</ele><time>2026-04-26T08:45:07.999Z</time></trkpt><trkpt lat="45.75518522406137" lon="9.912050197940797"><ele>336.0</ele><time>2026-04-26T08:45:11.999Z</time></trkpt><trkpt lat="45.755134658582804" lon="9.911925277737101"><ele>336.0</ele><time>2026-04-26T08:45:13.999Z</time></trkpt><trkpt lat="45.75506004602695" lon="9.911868768186356"><ele>336.0</ele><time>2026-04-26T08:45:14.999Z</time></trkpt><trkpt lat="45.75494996833643" lon="9.911802019884338"><ele>336.0</ele><time>2026-04-26T08:45:15.999Z</time></trkpt><trkpt lat="45.75480803395823" lon="9.911692151740693"><ele>336.0</ele><time>2026-04-26T08:45:16.999Z</time></trkpt><trkpt lat="45.754694905527195" lon="9.911587465473305"><ele>336.0</ele><time>2026-04-26T08:45:17.999Z</time></trkpt><trkpt lat="45.754606114171374" lon="9.911484755857849"><ele>335.75</ele><time>2026-04-26T08:45:18.999Z</time></trkpt><trkpt lat="45.75450428755323" lon="9.91136922012956"><ele>335.5</ele><time>2026-04-26T08:45:19.999Z</time></trkpt><trkpt lat="45.754395042967474" lon="9.911251075739612"><ele>335.25</ele><time>2026-04-26T08:45:20.999Z</time></trkpt><trkpt lat="45.75428245366572" lon="9.911128715236114"><ele>335.0</ele><time>2026-04-26T08:45:21.999Z</time></trkpt><trkpt lat="45.75416598976409" lon="9.910997679663813"><ele>335.6666666666667</ele><time>2026-04-26T08:45:22.999Z</time></trkpt><trkpt lat="45.75404223525631" lon="9.910867699447822"><ele>336.3333333333333</ele><time>2026-04-26T08:45:23.999Z</time></trkpt><trkpt lat="45.75392125540048" lon="9.910722796007866"><ele>337.0</ele><time>2026-04-26T08:45:24.999Z</time></trkpt><trkpt lat="45.753794824153395" lon="9.910579743231118"><ele>337.0</ele><time>2026-04-26T08:45:25.999Z</time></trkpt><trkpt lat="45.75366698547639" lon="9.910434864856391"><ele>337.0</ele><time>2026-04-26T08:45:26.999Z</time></trkpt><trkpt lat="45.75354948810355" lon="9.91030701212701"><ele>337.0</ele><time>2026-04-26T08:45:27.999Z</time></trkpt><trkpt lat="45.75344048554903" lon="9.910192301536894"><ele>337.0</ele><time>2026-04-26T08:45:28.999Z</time></trkpt><trkpt lat="45.75334641677507" lon="9.910096115970005"><ele>336.6</ele><time>2026-04-26T08:45:29.999Z</time></trkpt><trkpt lat="45.753279623297004" lon="9.91000335002673"><ele>336.20000000000005</ele><time>2026-04-26T08:45:30.999Z</time></trkpt><trkpt lat="45.75323551399306" lon="9.909901768607915"><ele>335.8</ele><time>2026-04-26T08:45:31.999Z</time></trkpt><trkpt lat="45.753218372397484" lon="9.909744923473736"><ele>335.4</ele><time>2026-04-26T08:45:32.999Z</time></trkpt><trkpt lat="45.75315758037037" lon="9.909571576289396"><ele>335.0</ele><time>2026-04-26T08:45:33.999Z</time></trkpt><trkpt lat="45.75309703342686" lon="9.909366154921841"><ele>335.0</ele><time>2026-04-26T08:45:34.999Z</time></trkpt><trkpt lat="45.75303160162803" lon="9.909148781908096"><ele>335.0</ele><time>2026-04-26T08:45:35.999Z</time></trkpt><trkpt lat="45.7529676992491" lon="9.908926398467338"><ele>335.0</ele><time>2026-04-26T08:45:36.999Z</time></trkpt><trkpt lat="45.75291485701516" lon="9.908719614398107"><ele>335.0</ele><time>2026-04-26T08:45:37.999Z</time></trkpt><trkpt lat="45.75289419394307" lon="9.908533040655106"><ele>335.0</ele><time>2026-04-26T08:45:38.999Z</time></trkpt><trkpt lat="45.75288158346312" lon="9.908402573720576"><ele>335.0</ele><time>2026-04-26T08:45:39.999Z</time></trkpt><trkpt lat="45.75286622290187" lon="9.908311269722724"><ele>335.0</ele><time>2026-04-26T08:45:40.999Z</time></trkpt><trkpt lat="45.75289108760431" lon="9.9081804184317"><ele>335.0</ele><time>2026-04-26T08:45:42.998Z</time></trkpt><trkpt lat="45.75311716752537" lon="9.908122171529563"><ele>335.33333333333337</ele><time>2026-04-26T08:45:44.998Z</time></trkpt><trkpt lat="45.75326301646407" lon="9.908078100543255"><ele>335.6666666666667</ele><time>2026-04-26T08:45:45.998Z</time></trkpt><trkpt lat="45.75341979183721" lon="9.908009207828941"><ele>336.0</ele><time>2026-04-26T08:45:46.998Z</time></trkpt><trkpt lat="45.75358556361689" lon="9.907956083394621"><ele>336.3333333333333</ele><time>2026-04-26T08:45:47.998Z</time></trkpt><trkpt lat="45.753741825713625" lon="9.907908454771054"><ele>336.66666666666663</ele><time>2026-04-26T08:45:48.998Z</time></trkpt><trkpt lat="45.753890378181396" lon="9.907863022018235"><ele>337.0</ele><time>2026-04-26T08:45:49.998Z</time></trkpt><trkpt lat="45.754043204661926" lon="9.907814389528532"><ele>337.0</ele><time>2026-04-26T08:45:50.998Z</time></trkpt><trkpt lat="45.75418415289334" lon="9.90777104951749"><ele>337.0</ele><time>2026-04-26T08:45:51.998Z</time></trkpt><trkpt lat="45.754295976104856" lon="9.90773736783088"><ele>337.0</ele><time>2026-04-26T08:45:52.998Z</time></trkpt><trkpt lat="45.75438108964315" lon="9.907715173477879"><ele>337.0</ele><time>2026-04-26T08:45:53.998Z</time></trkpt><trkpt lat="45.75444311471385" lon="9.907695391055794"><ele>337.0</ele><time>2026-04-26T08:45:54.998Z</time></trkpt><trkpt lat="45.7545187846678" lon="9.907669721195093"><ele>337.0</ele><time>2026-04-26T08:45:56.998Z</time></trkpt><trkpt lat="45.75461996115823" lon="9.907676577248091"><ele>337.0</ele><time>2026-04-26T08:45:59.998Z</time></trkpt><trkpt lat="45.754584918062854" lon="9.907815994958305"><ele>337.0</ele><time>2026-04-26T08:46:05Z</time></trkpt><trkpt lat="45.754508986080566" lon="9.907830475494713"><ele>337.0</ele><time>2026-04-26T08:46:07Z</time></trkpt><trkpt lat="45.754439676822365" lon="9.9078141345713"><ele>337.0</ele><time>2026-04-26T08:46:09Z</time></trkpt><trkpt lat="45.7543737033895" lon="9.90779662712811"><ele>337.0</ele><time>2026-04-26T08:46:14Z</time></trkpt><trkpt lat="45.754335663114375" lon="9.907707408488566"><ele>337.0</ele><time>2026-04-26T08:46:20Z</time></trkpt><trkpt lat="45.75432248745798" lon="9.907579997943422"><ele>337.0</ele><time>2026-04-26T08:46:22Z</time></trkpt><trkpt lat="45.75426803262363" lon="9.907479573232655"><ele>337.0</ele><time>2026-04-26T08:46:24Z</time></trkpt><trkpt lat="45.75422074366681" lon="9.907406088375012"><ele>337.0</ele><time>2026-04-26T08:46:26Z</time></trkpt><trkpt lat="45.75426194207652" lon="9.907490907232582"><ele>337.0</ele><time>2026-04-26T08:50:56.999Z</time></trkpt><trkpt lat="45.75433099502375" lon="9.907555081062766"><ele>337.0</ele><time>2026-04-26T08:50:57.999Z</time></trkpt><trkpt lat="45.754434547308634" lon="9.90760848505566"><ele>337.5</ele><time>2026-04-26T08:50:58.999Z</time></trkpt><trkpt lat="45.75456620358003" lon="9.907638599114241"><ele>338.0</ele><time>2026-04-26T08:50:59.999Z</time></trkpt><trkpt lat="45.75471842844448" lon="9.907647184098096"><ele>338.5</ele><time>2026-04-26T08:51:00.999Z</time></trkpt><trkpt lat="45.754869276665126" lon="9.90767037095369"><ele>339.0</ele><time>2026-04-26T08:51:01.999Z</time></trkpt><trkpt lat="45.75500631122481" lon="9.907718474467123"><ele>339.0</ele><time>2026-04-26T08:51:02.999Z</time></trkpt><trkpt lat="45.75512036009127" lon="9.907787253860805"><ele>339.0</ele><time>2026-04-26T08:51:03.999Z</time></trkpt><trkpt lat="45.75523756081799" lon="9.907863153964794"><ele>339.0</ele><time>2026-04-26T08:51:04.999Z</time></trkpt><trkpt lat="45.75535228936406" lon="9.907954912226451"><ele>339.0</ele><time>2026-04-26T08:51:05.999Z</time></trkpt><trkpt lat="45.755486557781815" lon="9.908062461139695"><ele>339.3333333333333</ele><time>2026-04-26T08:51:06.999Z</time></trkpt><trkpt lat="45.75562369564559" lon="9.908172084974833"><ele>339.66666666666663</ele><time>2026-04-26T08:51:07.999Z</time></trkpt><trkpt lat="45.75575175030812" lon="9.908283225036845"><ele>340.0</ele><time>2026-04-26T08:51:08.999Z</time></trkpt><trkpt lat="45.755900536528074" lon="9.908411203845285"><ele>340.0</ele><time>2026-04-26T08:51:09.999Z</time></trkpt><trkpt lat="45.756050056835335" lon="9.908536044932662"><ele>340.0</ele><time>2026-04-26T08:51:10.999Z</time></trkpt><trkpt lat="45.7561966322615" lon="9.908656559519502"><ele>340.0</ele><time>2026-04-26T08:51:11.999Z</time></trkpt><trkpt lat="45.75632793850481" lon="9.90876870870019"><ele>340.0</ele><time>2026-04-26T08:51:12.999Z</time></trkpt><trkpt lat="45.75646499498167" lon="9.908881840281746"><ele>340.0</ele><time>2026-04-26T08:51:13.999Z</time></trkpt><trkpt lat="45.75659677456511" lon="9.908989478048646"><ele>340.0</ele><time>2026-04-26T08:51:14.999Z</time></trkpt><trkpt lat="45.756726886028254" lon="9.909075281168978"><ele>340.0</ele><time>2026-04-26T08:51:15.999Z</time></trkpt><trkpt lat="45.75686842183393" lon="9.909139314840278"><ele>340.0</ele><time>2026-04-26T08:51:16.999Z</time></trkpt><trkpt lat="45.757023798233845" lon="9.909170114515582"><ele>340.0</ele><time>2026-04-26T08:51:17.999Z</time></trkpt><trkpt lat="45.7571839677462" lon="9.90919915460229"><ele>339.0</ele><time>2026-04-26T08:51:18.999Z</time></trkpt><trkpt lat="45.75734208226232" lon="9.90926552774151"><ele>338.0</ele><time>2026-04-26T08:51:19.999Z</time></trkpt><trkpt lat="45.75750090587218" lon="9.909366076559754"><ele>337.0</ele><time>2026-04-26T08:51:20.999Z</time></trkpt><trkpt lat="45.757655925144775" lon="9.909484516006156"><ele>337.66666666666663</ele><time>2026-04-26T08:51:21.999Z</time></trkpt><trkpt lat="45.75780293284824" lon="9.909599506131832"><ele>338.3333333333333</ele><time>2026-04-26T08:51:22.999Z</time></trkpt><trkpt lat="45.757946876947024" lon="9.909702111869803"><ele>339.0</ele><time>2026-04-26T08:51:23.999Z</time></trkpt><trkpt lat="45.75808229499437" lon="9.909788338176593"><ele>339.0</ele><time>2026-04-26T08:51:24.999Z</time></trkpt><trkpt lat="45.75820295980552" lon="9.909887400486665"><ele>339.0</ele><time>2026-04-26T08:51:25.999Z</time></trkpt><trkpt lat="45.758312089247276" lon="9.910025869409425"><ele>339.0</ele><time>2026-04-26T08:51:26.999Z</time></trkpt><trkpt lat="45.75840970946263" lon="9.91022152241257"><ele>338.6666666666667</ele><time>2026-04-26T08:51:27.999Z</time></trkpt><trkpt lat="45.75850611677352" lon="9.910438520745176"><ele>338.33333333333337</ele><time>2026-04-26T08:51:28.999Z</time></trkpt><trkpt lat="45.75861202453857" lon="9.91066015693131"><ele>338.0</ele><time>2026-04-26T08:51:29.999Z</time></trkpt><trkpt lat="45.75872916499885" lon="9.91085746486366"><ele>339.0</ele><time>2026-04-26T08:51:30.999Z</time></trkpt><trkpt lat="45.75883311563272" lon="9.911049584503802"><ele>340.0</ele><time>2026-04-26T08:51:31.999Z</time></trkpt><trkpt lat="45.75893908437109" lon="9.911242616233713"><ele>341.0</ele><time>2026-04-26T08:51:32.999Z</time></trkpt><trkpt lat="45.759049183131694" lon="9.911434383544519"><ele>341.0</ele><time>2026-04-26T08:51:33.999Z</time></trkpt><trkpt lat="45.759149601337874" lon="9.911622226788879"><ele>341.0</ele><time>2026-04-26T08:51:34.999Z</time></trkpt><trkpt lat="45.759243309922276" lon="9.911804747352209"><ele>341.0</ele><time>2026-04-26T08:51:35.999Z</time></trkpt><trkpt lat="45.759324901168405" lon="9.911964240296113"><ele>341.25</ele><time>2026-04-26T08:51:36.999Z</time></trkpt><trkpt lat="45.75940258507864" lon="9.91210152335896"><ele>341.5</ele><time>2026-04-26T08:51:37.999Z</time></trkpt><trkpt lat="45.75947404776948" lon="9.912236227288043"><ele>341.75</ele><time>2026-04-26T08:51:38.999Z</time></trkpt><trkpt lat="45.75953610504624" lon="9.912399156023154"><ele>342.0</ele><time>2026-04-26T08:51:39.999Z</time></trkpt><trkpt lat="45.75959641936215" lon="9.912609066981899"><ele>342.0</ele><time>2026-04-26T08:51:40.999Z</time></trkpt><trkpt lat="45.759670781174314" lon="9.912856930849008"><ele>342.0</ele><time>2026-04-26T08:51:41.999Z</time></trkpt><trkpt lat="45.75974592376952" lon="9.913132326307226"><ele>342.0</ele><time>2026-04-26T08:51:42.999Z</time></trkpt><trkpt lat="45.759819381748216" lon="9.913389184822355"><ele>342.3333333333333</ele><time>2026-04-26T08:51:43.999Z</time></trkpt><trkpt lat="45.75989345815853" lon="9.913618175604714"><ele>342.66666666666663</ele><time>2026-04-26T08:51:44.999Z</time></trkpt><trkpt lat="45.75993257153008" lon="9.913843529204676"><ele>343.0</ele><time>2026-04-26T08:51:45.999Z</time></trkpt><trkpt lat="45.759982440703034" lon="9.914044365467216"><ele>343.0</ele><time>2026-04-26T08:51:46.999Z</time></trkpt><trkpt lat="45.76002692832064" lon="9.914220007039166"><ele>343.0</ele><time>2026-04-26T08:51:47.999Z</time></trkpt><trkpt lat="45.760063786349896" lon="9.914362320126854"><ele>343.0</ele><time>2026-04-26T08:51:48.999Z</time></trkpt><trkpt lat="45.76009729600708" lon="9.91449214237404"><ele>343.0</ele><time>2026-04-26T08:51:49.999Z</time></trkpt><trkpt lat="45.76012659402831" lon="9.914615331619324"><ele>343.0</ele><time>2026-04-26T08:51:50.999Z</time></trkpt><trkpt lat="45.76015409875662" lon="9.91472788043816"><ele>343.0</ele><time>2026-04-26T08:51:51.999Z</time></trkpt><trkpt lat="45.760183161792945" lon="9.914846220508501"><ele>343.0</ele><time>2026-04-26T08:51:52.999Z</time></trkpt><trkpt lat="45.76022398338996" lon="9.914998776001736"><ele>343.0</ele><time>2026-04-26T08:51:53.999Z</time></trkpt><trkpt lat="45.76028594875352" lon="9.915190248954705"><ele>343.0</ele><time>2026-04-26T08:51:54.999Z</time></trkpt><trkpt lat="45.76033788989255" lon="9.915418218506899"><ele>343.75</ele><time>2026-04-26T08:51:55.999Z</time></trkpt><trkpt lat="45.76037123613476" lon="9.915623923189314"><ele>344.5</ele><time>2026-04-26T08:51:56.998Z</time></trkpt><trkpt lat="45.76040287805086" lon="9.915822262743784"><ele>345.25</ele><time>2026-04-26T08:51:57.998Z</time></trkpt><trkpt lat="45.76044047392225" lon="9.916012282307397"><ele>346.0</ele><time>2026-04-26T08:51:58.998Z</time></trkpt><trkpt lat="45.76047507177301" lon="9.916166986520102"><ele>346.0</ele><time>2026-04-26T08:51:59.998Z</time></trkpt><trkpt lat="45.76050639587079" lon="9.916305269847662"><ele>346.0</ele><time>2026-04-26T08:52:00.998Z</time></trkpt><trkpt lat="45.76053961698396" lon="9.916425239514139"><ele>346.0</ele><time>2026-04-26T08:52:01.998Z</time></trkpt><trkpt lat="45.76057133961399" lon="9.916557971220533"><ele>346.0</ele><time>2026-04-26T08:52:02.998Z</time></trkpt><trkpt lat="45.7606389423177" lon="9.91673636492012"><ele>346.0</ele><time>2026-04-26T08:52:03.998Z</time></trkpt><trkpt lat="45.76072814669309" lon="9.916938678958974"><ele>345.25</ele><time>2026-04-26T08:52:04.998Z</time></trkpt><trkpt lat="45.76080582617005" lon="9.917137565837473"><ele>344.5</ele><time>2026-04-26T08:52:05.998Z</time></trkpt><trkpt lat="45.76087595725804" lon="9.917299810686313"><ele>343.75</ele><time>2026-04-26T08:52:06.998Z</time></trkpt><trkpt lat="45.76094807014973" lon="9.917439648256995"><ele>343.0</ele><time>2026-04-26T08:52:07.998Z</time></trkpt><trkpt lat="45.76100787441931" lon="9.91754297237656"><ele>342.79999999999995</ele><time>2026-04-26T08:52:08.998Z</time></trkpt><trkpt lat="45.76104061489665" lon="9.917662015772638"><ele>342.6</ele><time>2026-04-26T08:52:10.998Z</time></trkpt><trkpt lat="45.760945877778575" lon="9.917831715684791"><ele>342.4</ele><time>2026-04-26T08:52:11.998Z</time></trkpt><trkpt lat="45.76089978340482" lon="9.91795753449418"><ele>342.20000000000005</ele><time>2026-04-26T08:52:12.998Z</time></trkpt><trkpt lat="45.76087335605898" lon="9.918059224854288"><ele>342.0</ele><time>2026-04-26T08:52:13.998Z</time></trkpt><trkpt lat="45.760888140896064" lon="9.918155804798198"><ele>342.0</ele><time>2026-04-26T08:52:15.998Z</time></trkpt><trkpt lat="45.760844097307846" lon="9.918231499511492"><ele>342.0</ele><time>2026-04-26T08:52:21Z</time></trkpt><trkpt lat="45.76082372916112" lon="9.918343418303198"><ele>342.0</ele><time>2026-04-26T08:52:22Z</time></trkpt><trkpt lat="45.76083365935284" lon="9.918446063276514"><ele>342.0</ele><time>2026-04-26T08:52:23Z</time></trkpt><trkpt lat="45.76088470297648" lon="9.918528929210936"><ele>342.0</ele><time>2026-04-26T08:52:24Z</time></trkpt><trkpt lat="45.76095999841659" lon="9.918559968314815"><ele>342.0</ele><time>2026-04-26T08:52:25Z</time></trkpt><trkpt lat="45.761056024234854" lon="9.918545256067688"><ele>342.25</ele><time>2026-04-26T08:52:26Z</time></trkpt><trkpt lat="45.76115501544758" lon="9.91853295575253"><ele>342.5</ele><time>2026-04-26T08:52:27Z</time></trkpt><trkpt lat="45.76126434327771" lon="9.918566127347102"><ele>342.75</ele><time>2026-04-26T08:52:28Z</time></trkpt><trkpt lat="45.76138819718953" lon="9.918655170040157"><ele>343.0</ele><time>2026-04-26T08:52:29Z</time></trkpt><trkpt lat="45.7615127304965" lon="9.918777937789082"><ele>343.0</ele><time>2026-04-26T08:52:30Z</time></trkpt><trkpt lat="45.761649267844916" lon="9.918943595903391"><ele>343.0</ele><time>2026-04-26T08:52:31Z</time></trkpt><trkpt lat="45.76177171666792" lon="9.91911410544386"><ele>343.0</ele><time>2026-04-26T08:52:32Z</time></trkpt><trkpt lat="45.76186674760914" lon="9.91930259725417"><ele>343.66666666666663</ele><time>2026-04-26T08:52:33Z</time></trkpt><trkpt lat="45.76196968975339" lon="9.919506702501566"><ele>344.3333333333333</ele><time>2026-04-26T08:52:34Z</time></trkpt><trkpt lat="45.762078512429326" lon="9.919730598859926"><ele>345.0</ele><time>2026-04-26T08:52:35Z</time></trkpt><trkpt lat="45.762170859981325" lon="9.919953820085658"><ele>344.3333333333333</ele><time>2026-04-26T08:52:36Z</time></trkpt><trkpt lat="45.76225825173763" lon="9.920152961225554"><ele>343.66666666666663</ele><time>2026-04-26T08:52:37Z</time></trkpt><trkpt lat="45.762359467237715" lon="9.92034420257421"><ele>343.0</ele><time>2026-04-26T08:52:38Z</time></trkpt><trkpt lat="45.76246870005458" lon="9.920556109958577"><ele>343.0</ele><time>2026-04-26T08:52:39Z</time></trkpt><trkpt lat="45.76256313863994" lon="9.920760340403318"><ele>343.0</ele><time>2026-04-26T08:52:40Z</time></trkpt><trkpt lat="45.762663617980245" lon="9.920938294734965"><ele>343.0</ele><time>2026-04-26T08:52:41Z</time></trkpt><trkpt lat="45.76277096059818" lon="9.921088949471411"><ele>342.66666666666663</ele><time>2026-04-26T08:52:42Z</time></trkpt><trkpt lat="45.76288046358383" lon="9.921226046342662"><ele>342.3333333333333</ele><time>2026-04-26T08:52:43Z</time></trkpt><trkpt lat="45.76301686055453" lon="9.921394664089796"><ele>342.0</ele><time>2026-04-26T08:52:44Z</time></trkpt><trkpt lat="45.763133491509734" lon="9.921582502343439"><ele>341.0</ele><time>2026-04-26T08:52:45Z</time></trkpt><trkpt lat="45.76327380199788" lon="9.921744091820067"><ele>340.0</ele><time>2026-04-26T08:52:46Z</time></trkpt><trkpt lat="45.76338351571979" lon="9.9218999350665"><ele>339.0</ele><time>2026-04-26T08:52:47Z</time></trkpt><trkpt lat="45.763485389010334" lon="9.922041717980182"><ele>339.0</ele><time>2026-04-26T08:52:48Z</time></trkpt><trkpt lat="45.763593232046624" lon="9.922181614397708"><ele>339.0</ele><time>2026-04-26T08:52:49Z</time></trkpt><trkpt lat="45.76370231537832" lon="9.922326225915334"><ele>339.0</ele><time>2026-04-26T08:52:50Z</time></trkpt><trkpt lat="45.76380562635405" lon="9.922465221075178"><ele>339.0</ele><time>2026-04-26T08:52:51Z</time></trkpt><trkpt lat="45.763905816017456" lon="9.922597834521092"><ele>339.0</ele><time>2026-04-26T08:52:52Z</time></trkpt><trkpt lat="45.76400378621487" lon="9.922726743386763"><ele>339.0</ele><time>2026-04-26T08:52:53Z</time></trkpt><trkpt lat="45.76410587703489" lon="9.922861937594353"><ele>339.0</ele><time>2026-04-26T08:52:54Z</time></trkpt><trkpt lat="45.76421598127599" lon="9.92301388422947"><ele>339.0</ele><time>2026-04-26T08:52:55Z</time></trkpt><trkpt lat="45.76432131602492" lon="9.92316638832758"><ele>339.3333333333333</ele><time>2026-04-26T08:52:56Z</time></trkpt><trkpt lat="45.76443922747066" lon="9.923317452284595"><ele>339.66666666666663</ele><time>2026-04-26T08:52:57Z</time></trkpt><trkpt lat="45.76456706381704" lon="9.923480468017331"><ele>340.0</ele><time>2026-04-26T08:52:58Z</time></trkpt><trkpt lat="45.76470527686516" lon="9.923659523613818"><ele>338.66666666666663</ele><time>2026-04-26T08:52:59Z</time></trkpt><trkpt lat="45.76484438053517" lon="9.923839512243038"><ele>337.3333333333333</ele><time>2026-04-26T08:53:00Z</time></trkpt><trkpt lat="45.764982750009736" lon="9.924020038231957"><ele>336.0</ele><time>2026-04-26T08:53:00.999Z</time></trkpt><trkpt lat="45.76512662135323" lon="9.924207087526558"><ele>337.6666666666667</ele><time>2026-04-26T08:53:01.999Z</time></trkpt><trkpt lat="45.76526323268737" lon="9.924389405483565"><ele>339.33333333333337</ele><time>2026-04-26T08:53:02.999Z</time></trkpt><trkpt lat="45.76539000371162" lon="9.924574295444202"><ele>341.0</ele><time>2026-04-26T08:53:03.999Z</time></trkpt><trkpt lat="45.7654975522011" lon="9.924786283446803"><ele>341.0</ele><time>2026-04-26T08:53:04.999Z</time></trkpt><trkpt lat="45.76558073435098" lon="9.925021945325774"><ele>341.0</ele><time>2026-04-26T08:53:05.999Z</time></trkpt><trkpt lat="45.7656307369074" lon="9.92524948925104"><ele>341.0</ele><time>2026-04-26T08:53:06.999Z</time></trkpt><trkpt lat="45.76567571222711" lon="9.92545482212682"><ele>340.5</ele><time>2026-04-26T08:53:07.999Z</time></trkpt><trkpt lat="45.76572770800646" lon="9.925651513408535"><ele>340.0</ele><time>2026-04-26T08:53:08.999Z</time></trkpt><trkpt lat="45.76579352890062" lon="9.925846920352294"><ele>339.5</ele><time>2026-04-26T08:53:09.999Z</time></trkpt><trkpt lat="45.76587087471978" lon="9.92602411983634"><ele>339.0</ele><time>2026-04-26T08:53:10.999Z</time></trkpt><trkpt lat="45.76595848500347" lon="9.926160134175662"><ele>339.3333333333333</ele><time>2026-04-26T08:53:11.999Z</time></trkpt><trkpt lat="45.7660576203052" lon="9.926273990973794"><ele>339.66666666666663</ele><time>2026-04-26T08:53:12.999Z</time></trkpt><trkpt lat="45.76617439210632" lon="9.926395347622078"><ele>340.0</ele><time>2026-04-26T08:53:13.999Z</time></trkpt><trkpt lat="45.76634531562479" lon="9.92652261820814"><ele>340.0</ele><time>2026-04-26T08:53:14.999Z</time></trkpt><trkpt lat="45.76655525654523" lon="9.926627713477155"><ele>340.0</ele><time>2026-04-26T08:53:15.999Z</time></trkpt><trkpt lat="45.766775220135266" lon="9.926758496976898"><ele>339.0</ele><time>2026-04-26T08:53:16.999Z</time></trkpt><trkpt lat="45.76701721644114" lon="9.926902084752339"><ele>338.0</ele><time>2026-04-26T08:53:17.999Z</time></trkpt><trkpt lat="45.76725667281704" lon="9.92703620768647"><ele>338.0</ele><time>2026-04-26T08:53:18.999Z</time></trkpt><trkpt lat="45.767469435305046" lon="9.927155027602158"><ele>338.0</ele><time>2026-04-26T08:53:19.999Z</time></trkpt><trkpt lat="45.767669043238385" lon="9.927244107300677"><ele>338.0</ele><time>2026-04-26T08:53:20.999Z</time></trkpt><trkpt lat="45.767845458793076" lon="9.927360509639271"><ele>337.0</ele><time>2026-04-26T08:53:21.999Z</time></trkpt><trkpt lat="45.76800929988407" lon="9.927465591249165"><ele>336.0</ele><time>2026-04-26T08:53:22.999Z</time></trkpt><trkpt lat="45.76816317988771" lon="9.92759817661915"><ele>335.0</ele><time>2026-04-26T08:53:23.999Z</time></trkpt><trkpt lat="45.768307127003546" lon="9.927735379311876"><ele>335.0</ele><time>2026-04-26T08:53:24.999Z</time></trkpt><trkpt lat="45.768458985276666" lon="9.92792095708748"><ele>335.0</ele><time>2026-04-26T08:53:25.999Z</time></trkpt><trkpt lat="45.768610606357676" lon="9.928168101914501"><ele>335.0</ele><time>2026-04-26T08:53:26.999Z</time></trkpt><trkpt lat="45.76877875780457" lon="9.928394436137108"><ele>336.0</ele><time>2026-04-26T08:53:27.999Z</time></trkpt><trkpt lat="45.76889922461272" lon="9.92862244389546"><ele>337.0</ele><time>2026-04-26T08:53:28.999Z</time></trkpt><trkpt lat="45.769021533001734" lon="9.928814965766946"><ele>338.0</ele><time>2026-04-26T08:53:29.999Z</time></trkpt><trkpt lat="45.769138567069334" lon="9.928999819887068"><ele>338.0</ele><time>2026-04-26T08:53:30.999Z</time></trkpt><trkpt lat="45.769247979308" lon="9.929170133117626"><ele>338.0</ele><time>2026-04-26T08:53:31.999Z</time></trkpt><trkpt lat="45.76935063885883" lon="9.929324515981119"><ele>338.0</ele><time>2026-04-26T08:53:32.999Z</time></trkpt><trkpt lat="45.7694434970649" lon="9.929471238976275"><ele>338.0</ele><time>2026-04-26T08:53:33.999Z</time></trkpt><trkpt lat="45.76953300783752" lon="9.929615873798914"><ele>339.0</ele><time>2026-04-26T08:53:34.999Z</time></trkpt><trkpt lat="45.76961217136858" lon="9.929786328576329"><ele>340.0</ele><time>2026-04-26T08:53:35.999Z</time></trkpt><trkpt lat="45.76979544934624" lon="9.929903031181079"><ele>341.0</ele><time>2026-04-26T08:53:36.999Z</time></trkpt><trkpt lat="45.769925864212055" lon="9.930050452456895"><ele>340.0</ele><time>2026-04-26T08:53:37.999Z</time></trkpt><trkpt lat="45.77004605745362" lon="9.930191348028583"><ele>339.0</ele><time>2026-04-26T08:53:38.999Z</time></trkpt><trkpt lat="45.77019105274216" lon="9.930322090489065"><ele>338.0</ele><time>2026-04-26T08:53:39.999Z</time></trkpt><trkpt lat="45.77035049115416" lon="9.930442899293004"><ele>340.33333333333337</ele><time>2026-04-26T08:53:40.999Z</time></trkpt><trkpt lat="45.77049268146096" lon="9.930548990542055"><ele>342.6666666666667</ele><time>2026-04-26T08:53:41.999Z</time></trkpt><trkpt lat="45.770631049533094" lon="9.930654526394001"><ele>345.0</ele><time>2026-04-26T08:53:42.999Z</time></trkpt><trkpt lat="45.77076899003538" lon="9.930773922163635"><ele>343.6666666666667</ele><time>2026-04-26T08:53:43.999Z</time></trkpt><trkpt lat="45.770921321799136" lon="9.930910096571516"><ele>342.33333333333337</ele><time>2026-04-26T08:53:44.999Z</time></trkpt><trkpt lat="45.77108276925832" lon="9.931049953153908"><ele>341.0</ele><time>2026-04-26T08:53:45.999Z</time></trkpt><trkpt lat="45.77124354171575" lon="9.931188533600467"><ele>344.33333333333337</ele><time>2026-04-26T08:53:46.999Z</time></trkpt><trkpt lat="45.77139543446821" lon="9.931318801377532"><ele>347.6666666666667</ele><time>2026-04-26T08:53:47.999Z</time></trkpt><trkpt lat="45.77155096675742" lon="9.93144512420177"><ele>351.0</ele><time>2026-04-26T08:53:48.999Z</time></trkpt><trkpt lat="45.77172388693368" lon="9.931577658272392"><ele>349.3333333333333</ele><time>2026-04-26T08:53:49.999Z</time></trkpt><trkpt lat="45.771893216910534" lon="9.93171235783122"><ele>347.66666666666663</ele><time>2026-04-26T08:53:50.999Z</time></trkpt><trkpt lat="45.77203875441978" lon="9.931832297476243"><ele>346.0</ele><time>2026-04-26T08:53:51.999Z</time></trkpt><trkpt lat="45.77219351289621" lon="9.931936968027747"><ele>346.0</ele><time>2026-04-26T08:53:52.999Z</time></trkpt><trkpt lat="45.77235932636118" lon="9.932007983969914"><ele>346.0</ele><time>2026-04-26T08:53:53.999Z</time></trkpt><trkpt lat="45.77253520189805" lon="9.932038374978847"><ele>346.0</ele><time>2026-04-26T08:53:54.999Z</time></trkpt><trkpt lat="45.772720376283836" lon="9.932030173774647"><ele>347.66666666666663</ele><time>2026-04-26T08:53:55.999Z</time></trkpt><trkpt lat="45.77292447707033" lon="9.931987866064956"><ele>349.3333333333333</ele><time>2026-04-26T08:53:56.999Z</time></trkpt><trkpt lat="45.77315107868054" lon="9.93195064905574"><ele>351.0</ele><time>2026-04-26T08:53:57.999Z</time></trkpt><trkpt lat="45.77337270230785" lon="9.931915713806921"><ele>351.6666666666667</ele><time>2026-04-26T08:53:58.999Z</time></trkpt><trkpt lat="45.77357634231632" lon="9.931901647521736"><ele>352.33333333333337</ele><time>2026-04-26T08:53:59.999Z</time></trkpt><trkpt lat="45.773763161229795" lon="9.931900432081747"><ele>353.0</ele><time>2026-04-26T08:54:00.999Z</time></trkpt><trkpt lat="45.77393879932278" lon="9.931902780657735"><ele>353.0</ele><time>2026-04-26T08:54:01.998Z</time></trkpt><trkpt lat="45.77411364560039" lon="9.931905086551295"><ele>353.0</ele><time>2026-04-26T08:54:02.998Z</time></trkpt><trkpt lat="45.77430101077216" lon="9.931907471087513"><ele>353.0</ele><time>2026-04-26T08:54:03.998Z</time></trkpt><trkpt lat="45.77449379709248" lon="9.931919288088316"><ele>355.33333333333337</ele><time>2026-04-26T08:54:04.998Z</time></trkpt><trkpt lat="45.77467091798827" lon="9.931969662949367"><ele>357.6666666666667</ele><time>2026-04-26T08:54:05.998Z</time></trkpt><trkpt lat="45.77484732441436" lon="9.932077713532308"><ele>360.0</ele><time>2026-04-26T08:54:06.998Z</time></trkpt><trkpt lat="45.77503560795851" lon="9.932238392682738"><ele>360.3333333333333</ele><time>2026-04-26T08:54:07.998Z</time></trkpt><trkpt lat="45.77523491220807" lon="9.932396732875416"><ele>360.66666666666663</ele><time>2026-04-26T08:54:08.998Z</time></trkpt><trkpt lat="45.775400660643136" lon="9.932567909771848"><ele>361.0</ele><time>2026-04-26T08:54:09.998Z</time></trkpt><trkpt lat="45.775540834356" lon="9.932727083798662"><ele>361.0</ele><time>2026-04-26T08:54:10.998Z</time></trkpt><trkpt lat="45.77566091502657" lon="9.932885442649944"><ele>361.0</ele><time>2026-04-26T08:54:11.998Z</time></trkpt><trkpt lat="45.77576619235173" lon="9.93304034021333"><ele>361.0</ele><time>2026-04-26T08:54:12.998Z</time></trkpt><trkpt lat="45.775870160866084" lon="9.933185116195288"><ele>361.0</ele><time>2026-04-26T08:54:13.998Z</time></trkpt><trkpt lat="45.77597449001358" lon="9.93331597838682"><ele>361.0</ele><time>2026-04-26T08:54:14.998Z</time></trkpt><trkpt lat="45.77607998498604" lon="9.933404342509066"><ele>361.0</ele><time>2026-04-26T08:54:15.998Z</time></trkpt><trkpt lat="45.77617172729573" lon="9.933415496192387"><ele>361.0</ele><time>2026-04-26T08:54:16.998Z</time></trkpt><trkpt lat="45.77624376744845" lon="9.933364863927679"><ele>361.0</ele><time>2026-04-26T08:54:17.998Z</time></trkpt><trkpt lat="45.77629988488981" lon="9.933280191601655"><ele>364.0</ele><time>2026-04-26T08:54:18.998Z</time></trkpt><trkpt lat="45.77630023622955" lon="9.933106470049797"><ele>367.0</ele><time>2026-04-26T08:54:19.998Z</time></trkpt><trkpt lat="45.7762187843725" lon="9.932931095096777"><ele>370.0</ele><time>2026-04-26T08:54:20.998Z</time></trkpt><trkpt lat="45.77617446455371" lon="9.932719582615265"><ele>373.0</ele><time>2026-04-26T08:54:21.998Z</time></trkpt><trkpt lat="45.77614639749419" lon="9.93252510377957"><ele>375.8333333333333</ele><time>2026-04-26T08:54:22.998Z</time></trkpt><trkpt lat="45.77612504178331" lon="9.932369057094283"><ele>378.66666666666663</ele><time>2026-04-26T08:54:23.998Z</time></trkpt><trkpt lat="45.77611105170919" lon="9.93226682964929"><ele>381.5</ele><time>2026-04-26T08:54:25Z</time></trkpt><trkpt lat="45.77615995140477" lon="9.932196386546188"><ele>384.3333333333333</ele><time>2026-04-26T08:54:27Z</time></trkpt><trkpt lat="45.776218721117104" lon="9.932244066085724"><ele>387.1666666666667</ele><time>2026-04-26T08:54:28Z</time></trkpt><trkpt lat="45.776270809612654" lon="9.932331805631113"><ele>390.0</ele><time>2026-04-26T08:54:32Z</time></trkpt><trkpt lat="45.77634999207613" lon="9.93235695421816"><ele>390.0</ele><time>2026-04-26T08:54:34Z</time></trkpt><trkpt lat="45.776374179377534" lon="9.932257487147666"><ele>390.0</ele><time>2026-04-26T08:54:38Z</time></trkpt><trkpt lat="45.776341679629255" lon="9.932169201039818"><ele>390.0</ele><time>2026-04-26T08:54:40Z</time></trkpt><trkpt lat="45.776291297085514" lon="9.932059179089158"><ele>390.0</ele><time>2026-04-26T08:54:42Z</time></trkpt><trkpt lat="45.77623115188117" lon="9.931941211943178"><ele>390.0</ele><time>2026-04-26T08:54:46Z</time></trkpt><trkpt lat="45.776205914193284" lon="9.931858511247464"><ele>390.0</ele><time>2026-04-26T08:54:47Z</time></trkpt><trkpt lat="45.77619119391266" lon="9.931740574448334"><ele>392.0</ele><time>2026-04-26T08:54:48Z</time></trkpt><trkpt lat="45.77618630569328" lon="9.931630015908668"><ele>394.0</ele><time>2026-04-26T08:54:49Z</time></trkpt><trkpt lat="45.776188125396764" lon="9.931526461648646"><ele>396.0</ele><time>2026-04-26T08:54:50Z</time></trkpt><trkpt lat="45.776176949599694" lon="9.931426620621073"><ele>398.0</ele><time>2026-04-26T08:54:51Z</time></trkpt><trkpt lat="45.77615169471112" lon="9.931342295259135"><ele>400.0</ele><time>2026-04-26T08:54:52Z</time></trkpt><trkpt lat="45.776123460317386" lon="9.93125467329715"><ele>402.0</ele><time>2026-04-26T08:54:53Z</time></trkpt><trkpt lat="45.776111477538855" lon="9.93115868671582"><ele>404.0</ele><time>2026-04-26T08:54:54Z</time></trkpt><trkpt lat="45.776206250342454" lon="9.930965635993987"><ele>404.5</ele><time>2026-04-26T08:54:55Z</time></trkpt><trkpt lat="45.77615153915705" lon="9.930813176882296"><ele>405.0</ele><time>2026-04-26T08:54:57Z</time></trkpt><trkpt lat="45.776093852363324" lon="9.930652425893065"><ele>405.5</ele><time>2026-04-26T08:54:59Z</time></trkpt><trkpt lat="45.77599908839817" lon="9.930653921282858"><ele>406.0</ele><time>2026-04-26T08:55:00Z</time></trkpt><trkpt lat="45.77604341769952" lon="9.930467766317047"><ele>409.4</ele><time>2026-04-26T08:55:02Z</time></trkpt><trkpt lat="45.776064003028125" lon="9.930311121680795"><ele>412.8</ele><time>2026-04-26T08:55:04Z</time></trkpt><trkpt lat="45.77617483485687" lon="9.930390450925817"><ele>416.2</ele><time>2026-04-26T08:55:11.999Z</time></trkpt><trkpt lat="45.77622771659207" lon="9.930473551880572"><ele>419.59999999999997</ele><time>2026-04-26T08:55:12.999Z</time></trkpt><trkpt lat="45.77628117672939" lon="9.930581969197554"><ele>423.0</ele><time>2026-04-26T08:55:13.999Z</time></trkpt><trkpt lat="45.77634091149101" lon="9.930646167357727"><ele>423.0</ele><time>2026-04-26T08:55:14.999Z</time></trkpt><trkpt lat="45.77643812892328" lon="9.930660522500572"><ele>423.0</ele><time>2026-04-26T08:55:16.999Z</time></trkpt><trkpt lat="45.77655598890247" lon="9.930675652259715"><ele>423.0</ele><time>2026-04-26T08:55:18.999Z</time></trkpt><trkpt lat="45.77665502770608" lon="9.930664462264224"><ele>423.0</ele><time>2026-04-26T08:55:19.999Z</time></trkpt><trkpt lat="45.77674679376803" lon="9.930638980189402"><ele>423.0</ele><time>2026-04-26T08:55:20.999Z</time></trkpt><trkpt lat="45.776809121478436" lon="9.930617753863817"><ele>422.59999999999997</ele><time>2026-04-26T08:55:21.999Z</time></trkpt><trkpt lat="45.776937387031296" lon="9.930568683417526"><ele>422.2</ele><time>2026-04-26T08:55:23.999Z</time></trkpt><trkpt lat="45.777021720372574" lon="9.930666696618134"><ele>421.8</ele><time>2026-04-26T08:55:25.999Z</time></trkpt><trkpt lat="45.77710375252372" lon="9.930802392995027"><ele>421.4</ele><time>2026-04-26T08:55:27.999Z</time></trkpt><trkpt lat="45.77716704407485" lon="9.930846590102464"><ele>421.0</ele><time>2026-04-26T08:55:28.999Z</time></trkpt><trkpt lat="45.77722812222274" lon="9.930908505840033"><ele>421.0</ele><time>2026-04-26T08:55:29.999Z</time></trkpt><trkpt lat="45.77733288240308" lon="9.930988152447506"><ele>421.0</ele><time>2026-04-26T08:55:31.999Z</time></trkpt><trkpt lat="45.777419139152094" lon="9.931078162631799"><ele>421.0</ele><time>2026-04-26T08:55:33.999Z</time></trkpt><trkpt lat="45.777470954886" lon="9.931150809077455"><ele>421.0</ele><time>2026-04-26T08:55:34.999Z</time></trkpt><trkpt lat="45.77751100695116" lon="9.931250798863871"><ele>421.0</ele><time>2026-04-26T08:55:35.999Z</time></trkpt><trkpt lat="45.777597188674285" lon="9.931377530414029"><ele>421.00000000000006</ele><time>2026-04-26T08:55:37.999Z</time></trkpt><trkpt lat="45.777645106311226" lon="9.931439967977777"><ele>421.0</ele><time>2026-04-26T08:55:38.999Z</time></trkpt><trkpt lat="45.77769671339774" lon="9.931511084803331"><ele>421.0</ele><time>2026-04-26T08:55:39.999Z</time></trkpt><trkpt lat="45.777775982942536" lon="9.931563011377827"><ele>421.0</ele><time>2026-04-26T08:55:41.999Z</time></trkpt><trkpt lat="45.7778411550777" lon="9.931558974436559"><ele>421.00000000000006</ele><time>2026-04-26T08:55:42.999Z</time></trkpt><trkpt lat="45.77792339286363" lon="9.931518228207576"><ele>421.0</ele><time>2026-04-26T08:55:43.999Z</time></trkpt><trkpt lat="45.77802619530494" lon="9.931575144407606"><ele>424.1666666666667</ele><time>2026-04-26T08:55:45.999Z</time></trkpt><trkpt lat="45.77809420143703" lon="9.931571710833786"><ele>427.33333333333337</ele><time>2026-04-26T08:55:47.999Z</time></trkpt><trkpt lat="45.77814871869359" lon="9.931492100351345"><ele>430.5</ele><time>2026-04-26T08:55:49.999Z</time></trkpt><trkpt lat="45.778220386865854" lon="9.931462980986694"><ele>433.66666666666663</ele><time>2026-04-26T08:55:53.999Z</time></trkpt><trkpt lat="45.7782803835801" lon="9.931401739496344"><ele>436.8333333333333</ele><time>2026-04-26T08:55:55.999Z</time></trkpt><trkpt lat="45.77835912903097" lon="9.931409887686732"><ele>440.0</ele><time>2026-04-26T08:55:58.999Z</time></trkpt><trkpt lat="45.77843603909857" lon="9.931494074786762"><ele>439.99999999999994</ele><time>2026-04-26T08:56:00.999Z</time></trkpt><trkpt lat="45.77849058233808" lon="9.931545369307177"><ele>440.0</ele><time>2026-04-26T08:56:01.999Z</time></trkpt><trkpt lat="45.77852718644349" lon="9.931637177744133"><ele>440.0</ele><time>2026-04-26T08:56:03.999Z</time></trkpt><trkpt lat="45.77855828351326" lon="9.931732311518537"><ele>440.0</ele><time>2026-04-26T08:56:06.999Z</time></trkpt><trkpt lat="45.7785376530831" lon="9.931876535670296"><ele>439.99999999999994</ele><time>2026-04-26T08:56:08.998Z</time></trkpt><trkpt lat="45.77856739255417" lon="9.931960973604793"><ele>440.0</ele><time>2026-04-26T08:56:11.998Z</time></trkpt><trkpt lat="45.778640616469715" lon="9.932016530696824"><ele>438.3333333333333</ele><time>2026-04-26T08:56:13.998Z</time></trkpt><trkpt lat="45.77859201156234" lon="9.932165092207768"><ele>436.66666666666663</ele><time>2026-04-26T08:56:17.998Z</time></trkpt><trkpt lat="45.77853806456575" lon="9.932267231093832"><ele>435.0</ele><time>2026-04-26T08:56:19.998Z</time></trkpt><trkpt lat="45.77857165645238" lon="9.93236075718058"><ele>433.33333333333337</ele><time>2026-04-26T08:56:22.998Z</time></trkpt><trkpt lat="45.778605607280745" lon="9.932458317385096"><ele>431.6666666666667</ele><time>2026-04-26T08:56:28.998Z</time></trkpt><trkpt lat="45.77866938724189" lon="9.93252340589995"><ele>430.0</ele><time>2026-04-26T08:56:31Z</time></trkpt><trkpt lat="45.77870389836644" lon="9.932636895437021"><ele>425.8</ele><time>2026-04-26T08:56:32Z</time></trkpt><trkpt lat="45.778770543433176" lon="9.932643293935024"><ele>421.6</ele><time>2026-04-26T08:56:36Z</time></trkpt><trkpt lat="45.7788492126958" lon="9.932645564636022"><ele>417.4</ele><time>2026-04-26T08:56:38Z</time></trkpt><trkpt lat="45.77895989985427" lon="9.932638400481753"><ele>413.2</ele><time>2026-04-26T08:56:44Z</time></trkpt><trkpt lat="45.77905945875383" lon="9.932625270978349"><ele>409.0</ele><time>2026-04-26T08:56:45Z</time></trkpt><trkpt lat="45.779176940678454" lon="9.932622150785992"><ele>409.0</ele><time>2026-04-26T08:56:46Z</time></trkpt><trkpt lat="45.77930415920843" lon="9.932622478235734"><ele>409.0</ele><time>2026-04-26T08:56:47Z</time></trkpt><trkpt lat="45.77944545232534" lon="9.932606613555983"><ele>409.0</ele><time>2026-04-26T08:56:48Z</time></trkpt><trkpt lat="45.77961408206568" lon="9.932577299901585"><ele>409.0</ele><time>2026-04-26T08:56:49Z</time></trkpt><trkpt lat="45.7798002277417" lon="9.932543921347103"><ele>418.33333333333337</ele><time>2026-04-26T08:56:50Z</time></trkpt><trkpt lat="45.77995010807849" lon="9.93252262834694"><ele>427.66666666666663</ele><time>2026-04-26T08:56:51Z</time></trkpt><trkpt lat="45.78009113895172" lon="9.932502918158718"><ele>437.0</ele><time>2026-04-26T08:56:52Z</time></trkpt><trkpt lat="45.78024944074835" lon="9.932480286554048"><ele>437.3333333333333</ele><time>2026-04-26T08:56:53Z</time></trkpt><trkpt lat="45.78042975865261" lon="9.93247711124862"><ele>437.66666666666663</ele><time>2026-04-26T08:56:54Z</time></trkpt><trkpt lat="45.780610036930675" lon="9.932487348108735"><ele>438.0</ele><time>2026-04-26T08:56:55Z</time></trkpt><trkpt lat="45.78078313334223" lon="9.932505930686604"><ele>438.0</ele><time>2026-04-26T08:56:56Z</time></trkpt><trkpt lat="45.78095377926985" lon="9.932490770034738"><ele>438.0</ele><time>2026-04-26T08:56:57Z</time></trkpt><trkpt lat="45.781131911014526" lon="9.932429977533898"><ele>438.0</ele><time>2026-04-26T08:56:58Z</time></trkpt><trkpt lat="45.78130604159224" lon="9.932395192980078"><ele>438.66666666666663</ele><time>2026-04-26T08:56:59Z</time></trkpt><trkpt lat="45.78148077527149" lon="9.932386488863642"><ele>439.3333333333333</ele><time>2026-04-26T08:57:00Z</time></trkpt><trkpt lat="45.781646223574" lon="9.93239050128467"><ele>440.0</ele><time>2026-04-26T08:57:01Z</time></trkpt><trkpt lat="45.7818096786853" lon="9.932408367834638"><ele>438.0</ele><time>2026-04-26T08:57:02Z</time></trkpt><trkpt lat="45.78194391528652" lon="9.932461563420407"><ele>436.0</ele><time>2026-04-26T08:57:03Z</time></trkpt><trkpt lat="45.782077713218264" lon="9.932550700924526"><ele>434.0</ele><time>2026-04-26T08:57:04Z</time></trkpt><trkpt lat="45.78220490891797" lon="9.932669628600006"><ele>432.0</ele><time>2026-04-26T08:57:05Z</time></trkpt><trkpt lat="45.78232871689257" lon="9.932756790761863"><ele>432.0</ele><time>2026-04-26T08:57:06Z</time></trkpt><trkpt lat="45.78245762649697" lon="9.93277101081397"><ele>432.0</ele><time>2026-04-26T08:57:07Z</time></trkpt><trkpt lat="45.78261161330463" lon="9.9327396774436"><ele>432.0</ele><time>2026-04-26T08:57:08Z</time></trkpt><trkpt lat="45.78276959521244" lon="9.932674734300877"><ele>432.0</ele><time>2026-04-26T08:57:09Z</time></trkpt><trkpt lat="45.78294274007045" lon="9.9326046196364"><ele>432.0</ele><time>2026-04-26T08:57:09.999Z</time></trkpt><trkpt lat="45.783138828609054" lon="9.932613095099123"><ele>432.0</ele><time>2026-04-26T08:57:10.999Z</time></trkpt><trkpt lat="45.78333002271908" lon="9.932585458026919"><ele>432.0</ele><time>2026-04-26T08:57:11.999Z</time></trkpt><trkpt lat="45.78350035177567" lon="9.932579286427988"><ele>439.66666666666663</ele><time>2026-04-26T08:57:12.999Z</time></trkpt><trkpt lat="45.78366930279248" lon="9.932540524438783"><ele>447.3333333333333</ele><time>2026-04-26T08:57:13.999Z</time></trkpt><trkpt lat="45.783839140543954" lon="9.932470439470556"><ele>455.0</ele><time>2026-04-26T08:57:14.999Z</time></trkpt><trkpt lat="45.78402071297562" lon="9.93245483999784"><ele>455.0</ele><time>2026-04-26T08:57:15.999Z</time></trkpt><trkpt lat="45.78421358930319" lon="9.93244368800952"><ele>455.0</ele><time>2026-04-26T08:57:16.999Z</time></trkpt><trkpt lat="45.78440892879835" lon="9.932451489444635"><ele>455.0</ele><time>2026-04-26T08:57:17.999Z</time></trkpt><trkpt lat="45.784604463572464" lon="9.932490108050496"><ele>458.0</ele><time>2026-04-26T08:57:18.999Z</time></trkpt><trkpt lat="45.784804406099795" lon="9.932517430869096"><ele>461.0</ele><time>2026-04-26T08:57:19.999Z</time></trkpt><trkpt lat="45.78500502528465" lon="9.93257416456767"><ele>464.0</ele><time>2026-04-26T08:57:20.999Z</time></trkpt><trkpt lat="45.785198221120716" lon="9.932620717974835"><ele>464.66666666666663</ele><time>2026-04-26T08:57:21.999Z</time></trkpt><trkpt lat="45.78537304024333" lon="9.932655854147944"><ele>465.33333333333337</ele><time>2026-04-26T08:57:22.999Z</time></trkpt><trkpt lat="45.78552987020272" lon="9.932686136492292"><ele>466.0</ele><time>2026-04-26T08:57:23.999Z</time></trkpt><trkpt lat="45.78566659820611" lon="9.9327210577985"><ele>466.0</ele><time>2026-04-26T08:57:24.999Z</time></trkpt><trkpt lat="45.78576798650379" lon="9.93278240281332"><ele>466.0</ele><time>2026-04-26T08:57:25.999Z</time></trkpt><trkpt lat="45.7858465585142" lon="9.932887472914102"><ele>466.0</ele><time>2026-04-26T08:57:26.999Z</time></trkpt><trkpt lat="45.78588099258252" lon="9.93302686703021"><ele>466.0</ele><time>2026-04-26T08:57:27.999Z</time></trkpt><trkpt lat="45.785892034029246" lon="9.933213042228415"><ele>463.75</ele><time>2026-04-26T08:57:28.999Z</time></trkpt><trkpt lat="45.785901842646034" lon="9.93339456297596"><ele>461.5</ele><time>2026-04-26T08:57:29.999Z</time></trkpt><trkpt lat="45.78594677989616" lon="9.933567007892"><ele>459.25</ele><time>2026-04-26T08:57:30.999Z</time></trkpt><trkpt lat="45.78603855866028" lon="9.933751136393877"><ele>457.0</ele><time>2026-04-26T08:57:31.999Z</time></trkpt><trkpt lat="45.786152046129835" lon="9.933932787799993"><ele>461.0</ele><time>2026-04-26T08:57:32.999Z</time></trkpt><trkpt lat="45.786269476886574" lon="9.934103632808283"><ele>465.0</ele><time>2026-04-26T08:57:33.999Z</time></trkpt><trkpt lat="45.78637259809025" lon="9.934254498841034"><ele>469.0</ele><time>2026-04-26T08:57:34.999Z</time></trkpt><trkpt lat="45.7864667156091" lon="9.934404935731076"><ele>469.0</ele><time>2026-04-26T08:57:35.999Z</time></trkpt><trkpt lat="45.786568457070594" lon="9.934540196665925"><ele>469.0</ele><time>2026-04-26T08:57:36.999Z</time></trkpt><trkpt lat="45.786705206954615" lon="9.934640880521908"><ele>469.0</ele><time>2026-04-26T08:57:37.999Z</time></trkpt><trkpt lat="45.78686760383495" lon="9.934713308482163"><ele>473.6666666666667</ele><time>2026-04-26T08:57:38.999Z</time></trkpt><trkpt lat="45.78703066314829" lon="9.93481499170129"><ele>478.33333333333337</ele><time>2026-04-26T08:57:39.999Z</time></trkpt><trkpt lat="45.787174061607494" lon="9.93489967072896"><ele>483.0</ele><time>2026-04-26T08:57:40.999Z</time></trkpt><trkpt lat="45.78730324805406" lon="9.934983238033347"><ele>482.25</ele><time>2026-04-26T08:57:41.999Z</time></trkpt><trkpt lat="45.78743096546513" lon="9.93505828306636"><ele>481.5</ele><time>2026-04-26T08:57:42.999Z</time></trkpt><trkpt lat="45.78751594650486" lon="9.935193896556083"><ele>480.75</ele><time>2026-04-26T08:57:43.999Z</time></trkpt><trkpt lat="45.78758353209081" lon="9.935356011142567"><ele>480.0</ele><time>2026-04-26T08:57:44.999Z</time></trkpt><trkpt lat="45.78766218217523" lon="9.935513437789584"><ele>484.0</ele><time>2026-04-26T08:57:45.999Z</time></trkpt><trkpt lat="45.787755611790175" lon="9.935639532519797"><ele>488.0</ele><time>2026-04-26T08:57:46.999Z</time></trkpt><trkpt lat="45.78787942273571" lon="9.93570608698955"><ele>492.0</ele><time>2026-04-26T08:57:47.999Z</time></trkpt><trkpt lat="45.78802600661555" lon="9.935726360585381"><ele>496.0</ele><time>2026-04-26T08:57:48.999Z</time></trkpt><trkpt lat="45.78819570822287" lon="9.93569398733366"><ele>496.0</ele><time>2026-04-26T08:57:49.999Z</time></trkpt><trkpt lat="45.78837773522628" lon="9.935633852672183"><ele>496.0</ele><time>2026-04-26T08:57:50.999Z</time></trkpt><trkpt lat="45.78856017820574" lon="9.935569962664346"><ele>496.0</ele><time>2026-04-26T08:57:51.999Z</time></trkpt><trkpt lat="45.78871791073053" lon="9.935620144211331"><ele>497.6</ele><time>2026-04-26T08:57:52.999Z</time></trkpt><trkpt lat="45.78884636946764" lon="9.93562035688527"><ele>499.20000000000005</ele><time>2026-04-26T08:57:53.999Z</time></trkpt><trkpt lat="45.788971153485086" lon="9.935618934442788"><ele>500.79999999999995</ele><time>2026-04-26T08:57:54.999Z</time></trkpt><trkpt lat="45.78906455939219" lon="9.935593011384126"><ele>502.4</ele><time>2026-04-26T08:57:55.999Z</time></trkpt><trkpt lat="45.7891435506132" lon="9.935601502868888"><ele>504.0</ele><time>2026-04-26T08:57:56.999Z</time></trkpt><trkpt lat="45.789254038056164" lon="9.935733060785624"><ele>504.0</ele><time>2026-04-26T08:57:58.999Z</time></trkpt><trkpt lat="45.78929147670105" lon="9.935846323507587"><ele>504.0</ele><time>2026-04-26T08:57:59.999Z</time></trkpt><trkpt lat="45.78939579876592" lon="9.935874176609328"><ele>504.0</ele><time>2026-04-26T08:58:01.999Z</time></trkpt><trkpt lat="45.789471007747025" lon="9.935786519413565"><ele>504.0</ele><time>2026-04-26T08:58:02.999Z</time></trkpt><trkpt lat="45.7895563677094" lon="9.935771997122673"><ele>504.0</ele><time>2026-04-26T08:58:04.999Z</time></trkpt><trkpt lat="45.789658181621625" lon="9.93588421574174"><ele>503.2</ele><time>2026-04-26T08:58:05.999Z</time></trkpt><trkpt lat="45.78974835361524" lon="9.935964783884858"><ele>502.4</ele><time>2026-04-26T08:58:06.999Z</time></trkpt><trkpt lat="45.78984265828267" lon="9.936066305510993"><ele>501.6</ele><time>2026-04-26T08:58:07.999Z</time></trkpt><trkpt lat="45.78990460654531" lon="9.936107791558303"><ele>500.8</ele><time>2026-04-26T08:58:08.999Z</time></trkpt><trkpt lat="45.79003293154996" lon="9.936179688842447"><ele>500.0</ele><time>2026-04-26T08:58:09.999Z</time></trkpt><trkpt lat="45.79013568197179" lon="9.936216558097277"><ele>502.0</ele><time>2026-04-26T08:58:10.999Z</time></trkpt><trkpt lat="45.79025376075612" lon="9.93624061923948"><ele>504.0</ele><time>2026-04-26T08:58:11.999Z</time></trkpt><trkpt lat="45.790351723067594" lon="9.936284473069904"><ele>506.0</ele><time>2026-04-26T08:58:12.998Z</time></trkpt><trkpt lat="45.79044092287682" lon="9.936321779716206"><ele>508.0</ele><time>2026-04-26T08:58:13.998Z</time></trkpt><trkpt lat="45.79054091756097" lon="9.936331026808375"><ele>510.0</ele><time>2026-04-26T08:58:14.998Z</time></trkpt><trkpt lat="45.790617339908735" lon="9.936381936395795"><ele>510.0</ele><time>2026-04-26T08:58:15.998Z</time></trkpt><trkpt lat="45.790691898550136" lon="9.93640952545465"><ele>510.0</ele><time>2026-04-26T08:58:16.998Z</time></trkpt><trkpt lat="45.790782134743885" lon="9.9365036060899"><ele>510.0</ele><time>2026-04-26T08:58:17.998Z</time></trkpt><trkpt lat="45.79087898092474" lon="9.936650997231165"><ele>510.0</ele><time>2026-04-26T08:58:18.998Z</time></trkpt><trkpt lat="45.79100460180867" lon="9.936805228348502"><ele>510.5</ele><time>2026-04-26T08:58:19.998Z</time></trkpt><trkpt lat="45.791101655401555" lon="9.936923768560423"><ele>511.0</ele><time>2026-04-26T08:58:20.998Z</time></trkpt><trkpt lat="45.79120930289742" lon="9.936997419727533"><ele>511.5</ele><time>2026-04-26T08:58:21.998Z</time></trkpt><trkpt lat="45.79129904425746" lon="9.93709459168946"><ele>512.0</ele><time>2026-04-26T08:58:22.998Z</time></trkpt><trkpt lat="45.791377401770674" lon="9.937179699747245"><ele>512.0</ele><time>2026-04-26T08:58:23.998Z</time></trkpt><trkpt lat="45.79144936064684" lon="9.937231004971922"><ele>512.0</ele><time>2026-04-26T08:58:24.998Z</time></trkpt><trkpt lat="45.7915494325759" lon="9.937237321434134"><ele>512.0</ele><time>2026-04-26T08:58:25.998Z</time></trkpt><trkpt lat="45.79167658623249" lon="9.937211316600889"><ele>512.0</ele><time>2026-04-26T08:58:26.998Z</time></trkpt><trkpt lat="45.791785282534484" lon="9.937181061128864"><ele>512.0</ele><time>2026-04-26T08:58:27.998Z</time></trkpt><trkpt lat="45.791849446839734" lon="9.9371223610128"><ele>512.0</ele><time>2026-04-26T08:58:28.998Z</time></trkpt><trkpt lat="45.791858007415904" lon="9.937022728071096"><ele>512.0</ele><time>2026-04-26T08:58:29.998Z</time></trkpt><trkpt lat="45.79181775240297" lon="9.936898328662064"><ele>512.0</ele><time>2026-04-26T08:58:30.998Z</time></trkpt><trkpt lat="45.791738955956916" lon="9.936777993144823"><ele>512.0</ele><time>2026-04-26T08:58:31.998Z</time></trkpt><trkpt lat="45.79165223495995" lon="9.936684544477577"><ele>512.0</ele><time>2026-04-26T08:58:32.998Z</time></trkpt><trkpt lat="45.79161449194479" lon="9.936598414846712"><ele>514.6</ele><time>2026-04-26T08:58:33.998Z</time></trkpt><trkpt lat="45.79169259234131" lon="9.936550795855911"><ele>517.2</ele><time>2026-04-26T08:58:35.998Z</time></trkpt><trkpt lat="45.7917690133048" lon="9.936567836990491"><ele>519.8</ele><time>2026-04-26T08:58:37Z</time></trkpt><trkpt lat="45.79186908889213" lon="9.936610811500998"><ele>522.4</ele><time>2026-04-26T08:58:38Z</time></trkpt><trkpt lat="45.791986452466816" lon="9.936677771306032"><ele>525.0</ele><time>2026-04-26T08:58:39Z</time></trkpt><trkpt lat="45.79210207375801" lon="9.93677851415939"><ele>530.0</ele><time>2026-04-26T08:58:40Z</time></trkpt><trkpt lat="45.79222883290807" lon="9.936904322106463"><ele>535.0</ele><time>2026-04-26T08:58:41Z</time></trkpt><trkpt lat="45.79233762533575" lon="9.937067042319763"><ele>540.0</ele><time>2026-04-26T08:58:42Z</time></trkpt><trkpt lat="45.79245047223407" lon="9.937232694929524"><ele>540.0</ele><time>2026-04-26T08:58:43Z</time></trkpt><trkpt lat="45.79259331992068" lon="9.937382106668132"><ele>540.0</ele><time>2026-04-26T08:58:44Z</time></trkpt><trkpt lat="45.79273497432185" lon="9.937514720116978"><ele>540.0</ele><time>2026-04-26T08:58:45Z</time></trkpt><trkpt lat="45.79285918053149" lon="9.937619241227603"><ele>544.0</ele><time>2026-04-26T08:58:46Z</time></trkpt><trkpt lat="45.79297257877024" lon="9.937733768294894"><ele>548.0</ele><time>2026-04-26T08:58:47Z</time></trkpt><trkpt lat="45.793070275686695" lon="9.937876748877724"><ele>552.0</ele><time>2026-04-26T08:58:48Z</time></trkpt><trkpt lat="45.79316005991004" lon="9.938055164514575"><ele>556.0</ele><time>2026-04-26T08:58:49Z</time></trkpt><trkpt lat="45.793245172265834" lon="9.938237834202905"><ele>553.6666666666667</ele><time>2026-04-26T08:58:50Z</time></trkpt><trkpt lat="45.79335567031264" lon="9.938412327004624"><ele>551.3333333333334</ele><time>2026-04-26T08:58:51Z</time></trkpt><trkpt lat="45.79348253591707" lon="9.938575696183497"><ele>549.0</ele><time>2026-04-26T08:58:52Z</time></trkpt><trkpt lat="45.79359411684734" lon="9.938700303715686"><ele>559.0</ele><time>2026-04-26T08:58:53Z</time></trkpt><trkpt lat="45.7936816000631" lon="9.93883340049225"><ele>569.0</ele><time>2026-04-26T08:58:54Z</time></trkpt><trkpt lat="45.79375054716617" lon="9.938994532100995"><ele>579.0</ele><time>2026-04-26T08:58:55Z</time></trkpt><trkpt lat="45.79379131335707" lon="9.939160909740094"><ele>589.0</ele><time>2026-04-26T08:58:56Z</time></trkpt><trkpt lat="45.793798683516236" lon="9.939346229020323"><ele>589.0</ele><time>2026-04-26T08:58:57Z</time></trkpt><trkpt lat="45.79380238752936" lon="9.939553259120817"><ele>589.0</ele><time>2026-04-26T08:58:58Z</time></trkpt><trkpt lat="45.79381127981898" lon="9.93976986730748"><ele>589.0</ele><time>2026-04-26T08:58:59Z</time></trkpt><trkpt lat="45.793837762294054" lon="9.939989409088785"><ele>587.2</ele><time>2026-04-26T08:59:00Z</time></trkpt><trkpt lat="45.793867441413624" lon="9.940175613992926"><ele>585.4</ele><time>2026-04-26T08:59:01Z</time></trkpt><trkpt lat="45.7938923289847" lon="9.940332684750693"><ele>583.6</ele><time>2026-04-26T08:59:02Z</time></trkpt><trkpt lat="45.79391846878699" lon="9.940460303327534"><ele>581.8</ele><time>2026-04-26T08:59:03Z</time></trkpt><trkpt lat="45.793939013701575" lon="9.94056412601514"><ele>580.0</ele><time>2026-04-26T08:59:04Z</time></trkpt><trkpt lat="45.79400475621869" lon="9.940673166010791"><ele>580.0</ele><time>2026-04-26T08:59:06Z</time></trkpt><trkpt lat="45.79408480289187" lon="9.940676827269963"><ele>580.0</ele><time>2026-04-26T08:59:08Z</time></trkpt><trkpt lat="45.79414839291489" lon="9.940555742863046"><ele>580.0</ele><time>2026-04-26T08:59:24.999Z</time></trkpt><trkpt lat="45.794208573115085" lon="9.94051204888064"><ele>580.0</ele><time>2026-04-26T08:59:25.999Z</time></trkpt><trkpt lat="45.79431734070724" lon="9.940477850140494"><ele>580.0</ele><time>2026-04-26T08:59:27.999Z</time></trkpt><trkpt lat="45.7944088995832" lon="9.940426828651468"><ele>586.0</ele><time>2026-04-26T08:59:29.999Z</time></trkpt><trkpt lat="45.794499350876755" lon="9.940457435502998"><ele>592.0</ele><time>2026-04-26T08:59:31.999Z</time></trkpt><trkpt lat="45.79452421978659" lon="9.940546996203894"><ele>598.0</ele><time>2026-04-26T08:59:32.999Z</time></trkpt><trkpt lat="45.79463616744318" lon="9.9406027860533"><ele>604.0</ele><time>2026-04-26T08:59:34.999Z</time></trkpt><trkpt lat="45.79475422747116" lon="9.940637454696478"><ele>610.0</ele><time>2026-04-26T08:59:36.999Z</time></trkpt><trkpt lat="45.79482237666124" lon="9.940654794354318"><ele>610.0</ele><time>2026-04-26T08:59:37.999Z</time></trkpt><trkpt lat="45.79487937820376" lon="9.940697531044753"><ele>610.0</ele><time>2026-04-26T08:59:38.999Z</time></trkpt><trkpt lat="45.79493661305908" lon="9.940845597980385"><ele>610.0</ele><time>2026-04-26T08:59:40.999Z</time></trkpt><trkpt lat="45.79502247990125" lon="9.940955420673417"><ele>610.0</ele><time>2026-04-26T08:59:42.999Z</time></trkpt><trkpt lat="45.79508147040647" lon="9.941013937162978"><ele>610.0</ele><time>2026-04-26T08:59:43.999Z</time></trkpt><trkpt lat="45.79514559369662" lon="9.941083711950098"><ele>616.0</ele><time>2026-04-26T08:59:44.999Z</time></trkpt><trkpt lat="45.79520918229961" lon="9.941147554438876"><ele>622.0</ele><time>2026-04-26T08:59:45.999Z</time></trkpt><trkpt lat="45.795266979702376" lon="9.94121149180308"><ele>628.0</ele><time>2026-04-26T08:59:46.999Z</time></trkpt><trkpt lat="45.79531257478747" lon="9.941387827516234"><ele>634.0</ele><time>2026-04-26T08:59:48.999Z</time></trkpt><trkpt lat="45.79532815967999" lon="9.94148442612856"><ele>640.0</ele><time>2026-04-26T08:59:49.999Z</time></trkpt><trkpt lat="45.79536244584475" lon="9.941601626835887"><ele>646.0</ele><time>2026-04-26T08:59:51.999Z</time></trkpt><trkpt lat="45.79544155899762" lon="9.941670598518774"><ele>643.3333333333334</ele><time>2026-04-26T08:59:53.999Z</time></trkpt><trkpt lat="45.79550222342094" lon="9.941737359326988"><ele>640.6666666666667</ele><time>2026-04-26T08:59:54.999Z</time></trkpt><trkpt lat="45.795552567192225" lon="9.9418125086827"><ele>638.0</ele><time>2026-04-26T08:59:55.999Z</time></trkpt><trkpt lat="45.7956162514491" lon="9.941866974082988"><ele>635.3333333333334</ele><time>2026-04-26T08:59:56.999Z</time></trkpt><trkpt lat="45.79566342179935" lon="9.941979399599965"><ele>632.6666666666666</ele><time>2026-04-26T08:59:57.999Z</time></trkpt><trkpt lat="45.795716797621765" lon="9.942055780563505"><ele>630.0</ele><time>2026-04-26T08:59:58.999Z</time></trkpt><trkpt lat="45.795772613010186" lon="9.942111965595325"><ele>630.0</ele><time>2026-04-26T08:59:59.999Z</time></trkpt><trkpt lat="45.79598360069316" lon="9.942073376240693"><ele>630.0</ele><time>2026-04-26T09:00:01.999Z</time></trkpt><trkpt lat="45.79605001551802" lon="9.942219665047974"><ele>630.0</ele><time>2026-04-26T09:00:03.999Z</time></trkpt><trkpt lat="45.79612574004622" lon="9.942383606288326"><ele>650.0</ele><time>2026-04-26T09:00:05.999Z</time></trkpt><trkpt lat="45.79617515329431" lon="9.942490128117976"><ele>670.0</ele><time>2026-04-26T09:00:07.999Z</time></trkpt><trkpt lat="45.7963732926116" lon="9.94292864514873"><ele>670.0</ele><time>2026-04-26T09:00:14.999Z</time></trkpt><trkpt lat="45.796441463774954" lon="9.943032604638942"><ele>670.0</ele><time>2026-04-26T09:00:16.999Z</time></trkpt><trkpt lat="45.79651794331291" lon="9.94309417502377"><ele>670.0</ele><time>2026-04-26T09:00:18.999Z</time></trkpt><trkpt lat="45.79652977168244" lon="9.943214680750149"><ele>670.0</ele><time>2026-04-26T09:00:20.999Z</time></trkpt><trkpt lat="45.79643491016299" lon="9.943525120369353"><ele>668.8</ele><time>2026-04-26T09:00:25.998Z</time></trkpt><trkpt lat="45.796459678251075" lon="9.943642115296274"><ele>667.6</ele><time>2026-04-26T09:00:27.998Z</time></trkpt><trkpt lat="45.796451886993914" lon="9.943868710570184"><ele>666.4000000000001</ele><time>2026-04-26T09:00:34.998Z</time></trkpt><trkpt lat="45.796510912035984" lon="9.943931737472758"><ele>665.2</ele><time>2026-04-26T09:00:49Z</time></trkpt><trkpt lat="45.79656805272987" lon="9.943987105339056"><ele>664.0</ele><time>2026-04-26T09:00:51Z</time></trkpt><trkpt lat="45.796580164539726" lon="9.944086318440048"><ele>664.0</ele><time>2026-04-26T09:00:54Z</time></trkpt><trkpt lat="45.79661307254573" lon="9.944189291807483"><ele>664.0</ele><time>2026-04-26T09:00:57Z</time></trkpt><trkpt lat="45.7966532094199" lon="9.944268421046463"><ele>664.0</ele><time>2026-04-26T09:00:59Z</time></trkpt><trkpt lat="45.79668677691698" lon="9.94434920528049"><ele>664.0</ele><time>2026-04-26T09:01:01Z</time></trkpt><trkpt lat="45.79670322906409" lon="9.944443501460599"><ele>664.0</ele><time>2026-04-26T09:01:03Z</time></trkpt><trkpt lat="45.79675884871386" lon="9.944505816462184"><ele>664.0</ele><time>2026-04-26T09:01:06Z</time></trkpt><trkpt lat="45.796724485202525" lon="9.94460153205714"><ele>664.0</ele><time>2026-04-26T09:01:09Z</time></trkpt><trkpt lat="45.79675670619476" lon="9.944685720830538"><ele>662.4000000000001</ele><time>2026-04-26T09:01:11Z</time></trkpt><trkpt lat="45.79680262734747" lon="9.944775326170348"><ele>660.8</ele><time>2026-04-26T09:01:13Z</time></trkpt><trkpt lat="45.79684903579688" lon="9.944881407282338"><ele>659.2</ele><time>2026-04-26T09:01:15Z</time></trkpt><trkpt lat="45.7968554339349" lon="9.945039079351243"><ele>657.5999999999999</ele><time>2026-04-26T09:01:17Z</time></trkpt><trkpt lat="45.796880656741905" lon="9.945183985725581"><ele>656.0</ele><time>2026-04-26T09:01:19Z</time></trkpt><trkpt lat="45.79690160064863" lon="9.945334731844392"><ele>658.0</ele><time>2026-04-26T09:01:21Z</time></trkpt><trkpt lat="45.796877717600445" lon="9.945472799362767"><ele>660.0</ele><time>2026-04-26T09:01:22.999Z</time></trkpt><trkpt lat="45.79690644253827" lon="9.945613604790369"><ele>662.0</ele><time>2026-04-26T09:01:24.999Z</time></trkpt><trkpt lat="45.79688236014885" lon="9.945768771348812"><ele>664.0</ele><time>2026-04-26T09:01:27.999Z</time></trkpt><trkpt lat="45.79687926929463" lon="9.945895078025519"><ele>666.0</ele><time>2026-04-26T09:01:29.999Z</time></trkpt><trkpt lat="45.796898038433746" lon="9.946013845619941"><ele>666.0</ele><time>2026-04-26T09:01:30.999Z</time></trkpt><trkpt lat="45.79691381498969" lon="9.946107249805316"><ele>666.0</ele><time>2026-04-26T09:01:31.999Z</time></trkpt><trkpt lat="45.79694747222269" lon="9.946220374298319"><ele>666.0</ele><time>2026-04-26T09:01:33.999Z</time></trkpt><trkpt lat="45.796968530252464" lon="9.94631771758052"><ele>666.0</ele><time>2026-04-26T09:01:35.999Z</time></trkpt><trkpt lat="45.796944097914846" lon="9.946410762384902"><ele>666.0</ele><time>2026-04-26T09:01:36.999Z</time></trkpt><trkpt lat="45.79696902183802" lon="9.946558805966104"><ele>666.0</ele><time>2026-04-26T09:01:38.999Z</time></trkpt><trkpt lat="45.797038090904834" lon="9.94664140440984"><ele>666.0</ele><time>2026-04-26T09:01:40.999Z</time></trkpt><trkpt lat="45.79712795168499" lon="9.946703009371253"><ele>666.0</ele><time>2026-04-26T09:01:42.999Z</time></trkpt><trkpt lat="45.79724234746232" lon="9.946700828384792"><ele>666.0</ele><time>2026-04-26T09:01:44.999Z</time></trkpt><trkpt lat="45.79726363742484" lon="9.946819923552798"><ele>666.0</ele><time>2026-04-26T09:01:46.999Z</time></trkpt><trkpt lat="45.79723202874539" lon="9.946926699582194"><ele>666.0</ele><time>2026-04-26T09:01:48.999Z</time></trkpt><trkpt lat="45.79722982045181" lon="9.947019509944734"><ele>666.0</ele><time>2026-04-26T09:01:49.999Z</time></trkpt><trkpt lat="45.797187269946946" lon="9.947169979001616"><ele>664.5999999999999</ele><time>2026-04-26T09:01:51.999Z</time></trkpt><trkpt lat="45.79716133533387" lon="9.947261981981763"><ele>663.2</ele><time>2026-04-26T09:01:52.999Z</time></trkpt><trkpt lat="45.79711687631194" lon="9.947376813227294"><ele>661.8</ele><time>2026-04-26T09:01:54.999Z</time></trkpt><trkpt lat="45.79716534777708" lon="9.947511156267165"><ele>660.4000000000001</ele><time>2026-04-26T09:01:56.999Z</time></trkpt><trkpt lat="45.79713981590302" lon="9.947612810903022"><ele>659.0</ele><time>2026-04-26T09:01:58.999Z</time></trkpt><trkpt lat="45.79706988768206" lon="9.947754465593821"><ele>658.5</ele><time>2026-04-26T09:02:00.999Z</time></trkpt><trkpt lat="45.7970396691071" lon="9.947852987886396"><ele>658.0</ele><time>2026-04-26T09:02:01.999Z</time></trkpt><trkpt lat="45.79698833440915" lon="9.947932865532005"><ele>657.5</ele><time>2026-04-26T09:02:03.999Z</time></trkpt><trkpt lat="45.796907233579816" lon="9.948059234609302"><ele>657.0</ele><time>2026-04-26T09:02:05.999Z</time></trkpt><trkpt lat="45.79689056577808" lon="9.948205975385536"><ele>656.5</ele><time>2026-04-26T09:02:08.999Z</time></trkpt><trkpt lat="45.79689742290863" lon="9.94829757869052"><ele>656.0</ele><time>2026-04-26T09:02:09.999Z</time></trkpt><trkpt lat="45.79690159101379" lon="9.948445693375215"><ele>656.0</ele><time>2026-04-26T09:02:11.999Z</time></trkpt><trkpt lat="45.7969338826127" lon="9.948578578437486"><ele>656.0</ele><time>2026-04-26T09:02:13.999Z</time></trkpt><trkpt lat="45.7968978093611" lon="9.948658996533073"><ele>656.0</ele><time>2026-04-26T09:02:15.999Z</time></trkpt><trkpt lat="45.79690994206258" lon="9.948820489641498"><ele>656.0</ele><time>2026-04-26T09:02:17.999Z</time></trkpt><trkpt lat="45.79694323034508" lon="9.949015097595098"><ele>656.0</ele><time>2026-04-26T09:02:19.999Z</time></trkpt><trkpt lat="45.79695672807349" lon="9.949108561215699"><ele>656.0</ele><time>2026-04-26T09:02:20.999Z</time></trkpt><trkpt lat="45.79696402505078" lon="9.949198856393437"><ele>656.0</ele><time>2026-04-26T09:02:21.999Z</time></trkpt><trkpt lat="45.79698423794616" lon="9.949375765024955"><ele>656.0</ele><time>2026-04-26T09:02:23.999Z</time></trkpt><trkpt lat="45.79700745563982" lon="9.949462130038256"><ele>656.0</ele><time>2026-04-26T09:02:24.999Z</time></trkpt><trkpt lat="45.7970286275574" lon="9.949582006096804"><ele>656.0</ele><time>2026-04-26T09:02:26.998Z</time></trkpt><trkpt lat="45.79699507175822" lon="9.949719230700524"><ele>656.0</ele><time>2026-04-26T09:02:28.998Z</time></trkpt><trkpt lat="45.79700784409209" lon="9.949824983627092"><ele>654.5</ele><time>2026-04-26T09:02:29.998Z</time></trkpt><trkpt lat="45.797027939697834" lon="9.949925276399323"><ele>653.0</ele><time>2026-04-26T09:02:30.998Z</time></trkpt><trkpt lat="45.79704516733819" lon="9.950030393131305"><ele>651.5</ele><time>2026-04-26T09:02:31.998Z</time></trkpt><trkpt lat="45.79707201280589" lon="9.950129650094382"><ele>650.0</ele><time>2026-04-26T09:02:32.998Z</time></trkpt><trkpt lat="45.79708845179857" lon="9.950228869355758"><ele>648.5</ele><time>2026-04-26T09:02:33.998Z</time></trkpt><trkpt lat="45.79711290778297" lon="9.950319695692032"><ele>647.0</ele><time>2026-04-26T09:02:34.998Z</time></trkpt><trkpt lat="45.79711045569215" lon="9.950495325912385"><ele>642.6</ele><time>2026-04-26T09:02:37.998Z</time></trkpt><trkpt lat="45.797120342866705" lon="9.950586945530342"><ele>638.2</ele><time>2026-04-26T09:02:38.998Z</time></trkpt><trkpt lat="45.797144746125" lon="9.950755296168811"><ele>633.8</ele><time>2026-04-26T09:02:40.998Z</time></trkpt><trkpt lat="45.79717826512289" lon="9.950925820943958"><ele>629.4</ele><time>2026-04-26T09:02:42.998Z</time></trkpt><trkpt lat="45.797171313030596" lon="9.951016341351602"><ele>625.0</ele><time>2026-04-26T09:02:43.998Z</time></trkpt><trkpt lat="45.79718080110368" lon="9.951189496783972"><ele>622.6666666666667</ele><time>2026-04-26T09:02:45.998Z</time></trkpt><trkpt lat="45.79723599071441" lon="9.951349898813312"><ele>620.3333333333334</ele><time>2026-04-26T09:02:47.998Z</time></trkpt><trkpt lat="45.79727126146191" lon="9.951425938177707"><ele>618.0</ele><time>2026-04-26T09:02:49Z</time></trkpt><trkpt lat="45.797322911220824" lon="9.951506852769773"><ele>615.6666666666666</ele><time>2026-04-26T09:02:51Z</time></trkpt><trkpt lat="45.797386782648175" lon="9.951522400649191"><ele>613.3333333333333</ele><time>2026-04-26T09:02:52Z</time></trkpt><trkpt lat="45.797442783212695" lon="9.951570558284342"><ele>611.0</ele><time>2026-04-26T09:02:53Z</time></trkpt><trkpt lat="45.79755295922949" lon="9.951603758182792"><ele>611.0</ele><time>2026-04-26T09:02:55Z</time></trkpt><trkpt lat="45.797610326461026" lon="9.951659304134198"><ele>611.0</ele><time>2026-04-26T09:02:57Z</time></trkpt><trkpt lat="45.797624305714855" lon="9.951818740311516"><ele>611.0</ele><time>2026-04-26T09:02:59Z</time></trkpt><trkpt lat="45.79753271466375" lon="9.951943802231957"><ele>611.0</ele><time>2026-04-26T09:03:02Z</time></trkpt><trkpt lat="45.79748593030268" lon="9.952050627285951"><ele>611.0</ele><time>2026-04-26T09:03:03Z</time></trkpt><trkpt lat="45.79741620208399" lon="9.952135449724818"><ele>611.0</ele><time>2026-04-26T09:03:05Z</time></trkpt><trkpt lat="45.79732951546691" lon="9.952222467578574"><ele>611.0</ele><time>2026-04-26T09:03:07Z</time></trkpt><trkpt lat="45.79730151954872" lon="9.952311974569023"><ele>611.0</ele><time>2026-04-26T09:03:08Z</time></trkpt><trkpt lat="45.79728140865242" lon="9.952434546839298"><ele>611.0</ele><time>2026-04-26T09:03:10Z</time></trkpt><trkpt lat="45.79726939235474" lon="9.952586745010244"><ele>611.0</ele><time>2026-04-26T09:03:12Z</time></trkpt><trkpt lat="45.79718237397648" lon="9.952655582244889"><ele>611.0</ele><time>2026-04-26T09:03:15Z</time></trkpt><trkpt lat="45.79717682369892" lon="9.95277155461231"><ele>611.0</ele><time>2026-04-26T09:03:16Z</time></trkpt><trkpt lat="45.79718842531442" lon="9.95288298131786"><ele>611.0</ele><time>2026-04-26T09:03:17Z</time></trkpt><trkpt lat="45.79720454250205" lon="9.953025199513588"><ele>611.0</ele><time>2026-04-26T09:03:19Z</time></trkpt><trkpt lat="45.79723505404754" lon="9.953250862182966"><ele>611.0</ele><time>2026-04-26T09:03:21Z</time></trkpt><trkpt lat="45.797248043910834" lon="9.953361639527218"><ele>610.4</ele><time>2026-04-26T09:03:22Z</time></trkpt><trkpt lat="45.79725260235141" lon="9.953533891375399"><ele>609.8</ele><time>2026-04-26T09:03:24Z</time></trkpt><trkpt lat="45.7972424786213" lon="9.953653578100317"><ele>609.1999999999999</ele><time>2026-04-26T09:03:25Z</time></trkpt><trkpt lat="45.797269816673584" lon="9.953784752964067"><ele>608.6</ele><time>2026-04-26T09:03:27Z</time></trkpt><trkpt lat="45.797318295040895" lon="9.953845906336273"><ele>608.0</ele><time>2026-04-26T09:03:28Z</time></trkpt><trkpt lat="45.797311779669776" lon="9.953971408695374"><ele>608.0</ele><time>2026-04-26T09:03:30Z</time></trkpt><trkpt lat="45.79720166828944" lon="9.954008672881114"><ele>608.0</ele><time>2026-04-26T09:03:32Z</time></trkpt><trkpt lat="45.79717613471612" lon="9.954129579727411"><ele>608.0</ele><time>2026-04-26T09:03:32.999Z</time></trkpt><trkpt lat="45.797148490025315" lon="9.95423420417764"><ele>608.0</ele><time>2026-04-26T09:03:33.999Z</time></trkpt><trkpt lat="45.79713380363381" lon="9.954345173746466"><ele>608.0</ele><time>2026-04-26T09:03:34.999Z</time></trkpt><trkpt lat="45.797144573394625" lon="9.954544192156291"><ele>607.4</ele><time>2026-04-26T09:03:36.999Z</time></trkpt><trkpt lat="45.79715927196657" lon="9.954659388630974"><ele>606.8</ele><time>2026-04-26T09:03:37.999Z</time></trkpt><trkpt lat="45.797163268121295" lon="9.954849285879302"><ele>606.2</ele><time>2026-04-26T09:03:39.999Z</time></trkpt><trkpt lat="45.797194418545644" lon="9.955003682418518"><ele>605.6</ele><time>2026-04-26T09:03:41.999Z</time></trkpt><trkpt lat="45.7972277728691" lon="9.955102465831546"><ele>605.0</ele><time>2026-04-26T09:03:42.999Z</time></trkpt><trkpt lat="45.79723274197214" lon="9.955210768148053"><ele>604.4</ele><time>2026-04-26T09:03:44.999Z</time></trkpt><trkpt lat="45.79714672248888" lon="9.955336325984186"><ele>603.8</ele><time>2026-04-26T09:03:46.999Z</time></trkpt><trkpt lat="45.79708605688945" lon="9.955505634412905"><ele>603.2</ele><time>2026-04-26T09:03:48.999Z</time></trkpt><trkpt lat="45.79705786437346" lon="9.955606097710055"><ele>602.6</ele><time>2026-04-26T09:03:49.999Z</time></trkpt><trkpt lat="45.79704566720949" lon="9.955695669403111"><ele>602.0</ele><time>2026-04-26T09:03:50.999Z</time></trkpt><trkpt lat="45.797068422589525" lon="9.955835136030437"><ele>600.8333333333333</ele><time>2026-04-26T09:03:52.999Z</time></trkpt><trkpt lat="45.79708698697941" lon="9.955944387815215"><ele>599.6666666666666</ele><time>2026-04-26T09:03:53.999Z</time></trkpt><trkpt lat="45.79710839308833" lon="9.9560649368858"><ele>598.5</ele><time>2026-04-26T09:03:54.999Z</time></trkpt><trkpt lat="45.797127958014975" lon="9.956161762742875"><ele>597.3333333333334</ele><time>2026-04-26T09:03:55.999Z</time></trkpt><trkpt lat="45.79713507342712" lon="9.956273265642379"><ele>596.1666666666667</ele><time>2026-04-26T09:03:56.999Z</time></trkpt><trkpt lat="45.7971632580446" lon="9.956399715705135"><ele>595.0</ele><time>2026-04-26T09:03:57.999Z</time></trkpt><trkpt lat="45.7971933613115" lon="9.956532278661527"><ele>593.8333333333334</ele><time>2026-04-26T09:03:58.999Z</time></trkpt><trkpt lat="45.797210694859906" lon="9.95670591116138"><ele>592.6666666666667</ele><time>2026-04-26T09:04:00.999Z</time></trkpt><trkpt lat="45.79719677855639" lon="9.956796187472056"><ele>591.5</ele><time>2026-04-26T09:04:01.999Z</time></trkpt><trkpt lat="45.797205619971116" lon="9.956898828841243"><ele>590.3333333333334</ele><time>2026-04-26T09:04:02.999Z</time></trkpt><trkpt lat="45.79720591489891" lon="9.956990836442474"><ele>589.1666666666666</ele><time>2026-04-26T09:04:03.999Z</time></trkpt><trkpt lat="45.79718924304828" lon="9.957114747064276"><ele>588.0</ele><time>2026-04-26T09:04:04.999Z</time></trkpt><trkpt lat="45.797227474464506" lon="9.957239864771628"><ele>588.0</ele><time>2026-04-26T09:04:05.999Z</time></trkpt><trkpt lat="45.797263994580625" lon="9.95732616929881"><ele>588.0</ele><time>2026-04-26T09:04:07.999Z</time></trkpt><trkpt lat="45.79723452208141" lon="9.957464954964564"><ele>588.0</ele><time>2026-04-26T09:04:10.999Z</time></trkpt><trkpt lat="45.79719181741882" lon="9.957650106573931"><ele>588.0</ele><time>2026-04-26T09:04:12.999Z</time></trkpt><trkpt lat="45.797180867744714" lon="9.957745923128696"><ele>588.0</ele><time>2026-04-26T09:04:13.999Z</time></trkpt><trkpt lat="45.79718156714059" lon="9.957837974476533"><ele>588.0</ele><time>2026-04-26T09:04:14.999Z</time></trkpt><trkpt lat="45.79715664109494" lon="9.957964611912098"><ele>587.3333333333334</ele><time>2026-04-26T09:04:16.999Z</time></trkpt><trkpt lat="45.797077528189824" lon="9.958081174725283"><ele>586.6666666666666</ele><time>2026-04-26T09:04:18.999Z</time></trkpt><trkpt lat="45.79703714778611" lon="9.95815685382568"><ele>586.0</ele><time>2026-04-26T09:04:19.999Z</time></trkpt><trkpt lat="45.797003645720075" lon="9.958244248171109"><ele>585.3333333333333</ele><time>2026-04-26T09:04:20.999Z</time></trkpt><trkpt lat="45.79696076887373" lon="9.958322049083373"><ele>584.6666666666666</ele><time>2026-04-26T09:04:21.999Z</time></trkpt><trkpt lat="45.79690742378096" lon="9.958394200948762"><ele>584.0</ele><time>2026-04-26T09:04:22.999Z</time></trkpt><trkpt lat="45.79686722462979" lon="9.958466893125884"><ele>576.2</ele><time>2026-04-26T09:04:23.999Z</time></trkpt><trkpt lat="45.796793714380286" lon="9.958583958137822"><ele>568.4</ele><time>2026-04-26T09:04:25.999Z</time></trkpt><trkpt lat="45.79678058481211" lon="9.958697702379693"><ele>560.6</ele><time>2026-04-26T09:04:26.999Z</time></trkpt><trkpt lat="45.79677324378377" lon="9.958815972630328"><ele>552.8</ele><time>2026-04-26T09:04:27.999Z</time></trkpt><trkpt lat="45.796750923432306" lon="9.95890621551689"><ele>545.0</ele><time>2026-04-26T09:04:28.999Z</time></trkpt><trkpt lat="45.79666119698244" lon="9.959056855034335"><ele>545.0</ele><time>2026-04-26T09:04:30.999Z</time></trkpt><trkpt lat="45.79661335025072" lon="9.959148254728897"><ele>545.0</ele><time>2026-04-26T09:04:31.999Z</time></trkpt><trkpt lat="45.796578351644285" lon="9.959231362550765"><ele>545.0</ele><time>2026-04-26T09:04:32.999Z</time></trkpt><trkpt lat="45.7965522262181" lon="9.959324536820072"><ele>545.0</ele><time>2026-04-26T09:04:33.999Z</time></trkpt><trkpt lat="45.79653943012287" lon="9.959434626522874"><ele>545.0</ele><time>2026-04-26T09:04:35.999Z</time></trkpt><trkpt lat="45.796552907217006" lon="9.95955687522686"><ele>545.0</ele><time>2026-04-26T09:04:55Z</time></trkpt><trkpt lat="45.796586709091876" lon="9.959709440406513"><ele>545.1666666666666</ele><time>2026-04-26T09:04:57Z</time></trkpt><trkpt lat="45.79661312038318" lon="9.959803840581765"><ele>545.3333333333333</ele><time>2026-04-26T09:04:58Z</time></trkpt><trkpt lat="45.7966454576765" lon="9.959894395395654"><ele>545.5</ele><time>2026-04-26T09:04:59Z</time></trkpt><trkpt lat="45.796681187753826" lon="9.960021582705949"><ele>545.6666666666666</ele><time>2026-04-26T09:05:00Z</time></trkpt><trkpt lat="45.79669801325973" lon="9.960135294280251"><ele>545.8333333333334</ele><time>2026-04-26T09:05:01Z</time></trkpt><trkpt lat="45.796725393896004" lon="9.960217801014911"><ele>546.0</ele><time>2026-04-26T09:05:02Z</time></trkpt><trkpt lat="45.7967809852281" lon="9.960357510599989"><ele>546.0</ele><time>2026-04-26T09:05:04Z</time></trkpt><trkpt lat="45.79680756878873" lon="9.960440696707494"><ele>546.0</ele><time>2026-04-26T09:05:06Z</time></trkpt><trkpt lat="45.79686536168014" lon="9.96053372873151"><ele>546.0</ele><time>2026-04-26T09:05:08Z</time></trkpt><trkpt lat="45.79688294451854" lon="9.960643976508617"><ele>546.0</ele><time>2026-04-26T09:05:10Z</time></trkpt><trkpt lat="45.79691092410883" lon="9.960789468334225"><ele>546.0</ele><time>2026-04-26T09:05:12Z</time></trkpt><trkpt lat="45.796940691821" lon="9.960910220030284"><ele>546.0</ele><time>2026-04-26T09:05:14Z</time></trkpt><trkpt lat="45.79699005027677" lon="9.961012197552122"><ele>552.0</ele><time>2026-04-26T09:05:16Z</time></trkpt><trkpt lat="45.7970062265365" lon="9.961165011453367"><ele>558.0</ele><time>2026-04-26T09:05:18Z</time></trkpt><trkpt lat="45.797071393876834" lon="9.96130542425489"><ele>564.0</ele><time>2026-04-26T09:05:20Z</time></trkpt><trkpt lat="45.79712666145981" lon="9.96137354891689"><ele>570.0</ele><time>2026-04-26T09:05:21Z</time></trkpt><trkpt lat="45.79715976596178" lon="9.961459183608943"><ele>576.0</ele><time>2026-04-26T09:05:22Z</time></trkpt><trkpt lat="45.797203698288754" lon="9.961532768582543"><ele>582.0</ele><time>2026-04-26T09:05:23Z</time></trkpt><trkpt lat="45.79725675613763" lon="9.961614194516999"><ele>582.0</ele><time>2026-04-26T09:05:25Z</time></trkpt><trkpt lat="45.79729629064075" lon="9.961687946945082"><ele>582.0</ele><time>2026-04-26T09:05:26Z</time></trkpt><trkpt lat="45.79733678575814" lon="9.961761011994593"><ele>582.0</ele><time>2026-04-26T09:05:27Z</time></trkpt><trkpt lat="45.797378111178794" lon="9.96186594152572"><ele>582.0</ele><time>2026-04-26T09:05:29Z</time></trkpt><trkpt lat="45.79740906958342" lon="9.962032021389726"><ele>582.0</ele><time>2026-04-26T09:05:31Z</time></trkpt><trkpt lat="45.797443290379135" lon="9.962121358500834"><ele>582.0</ele><time>2026-04-26T09:05:32Z</time></trkpt><trkpt lat="45.79746902889597" lon="9.962220002503347"><ele>581.0</ele><time>2026-04-26T09:05:33Z</time></trkpt><trkpt lat="45.79755011758586" lon="9.962392995110594"><ele>580.0</ele><time>2026-04-26T09:05:35Z</time></trkpt><trkpt lat="45.797611853219124" lon="9.9624579586532"><ele>579.0</ele><time>2026-04-26T09:05:36Z</time></trkpt><trkpt lat="45.797675350513934" lon="9.962541729799717"><ele>578.0</ele><time>2026-04-26T09:05:37Z</time></trkpt><trkpt lat="45.797725696807355" lon="9.962653084114473"><ele>577.0</ele><time>2026-04-26T09:05:37.999Z</time></trkpt><trkpt lat="45.797775000598364" lon="9.962737533206749"><ele>584.0</ele><time>2026-04-26T09:05:38.999Z</time></trkpt><trkpt lat="45.79782698398931" lon="9.962796149887987"><ele>591.0</ele><time>2026-04-26T09:05:39.999Z</time></trkpt><trkpt lat="45.79783909392859" lon="9.962893079539972"><ele>598.0</ele><time>2026-04-26T09:05:42.999Z</time></trkpt><trkpt lat="45.79788606402477" lon="9.962965305750707"><ele>605.0</ele><time>2026-04-26T09:05:44.999Z</time></trkpt><trkpt lat="45.79792720288744" lon="9.96306192978725"><ele>612.0</ele><time>2026-04-26T09:05:46.999Z</time></trkpt><trkpt lat="45.798029476083485" lon="9.963193315233735"><ele>619.0</ele><time>2026-04-26T09:05:47.999Z</time></trkpt><trkpt lat="45.798067972884084" lon="9.963274957839452"><ele>618.4</ele><time>2026-04-26T09:05:48.999Z</time></trkpt><trkpt lat="45.798117173466856" lon="9.963404657986676"><ele>617.8</ele><time>2026-04-26T09:05:50.999Z</time></trkpt><trkpt lat="45.798135324150444" lon="9.963546022613722"><ele>617.2</ele><time>2026-04-26T09:05:52.999Z</time></trkpt><trkpt lat="45.798132482183505" lon="9.963673701117441"><ele>616.6</ele><time>2026-04-26T09:05:54.999Z</time></trkpt><trkpt lat="45.798140497439626" lon="9.963780726329722"><ele>616.0</ele><time>2026-04-26T09:05:56.999Z</time></trkpt><trkpt lat="45.7981802910438" lon="9.963935550803658"><ele>616.0</ele><time>2026-04-26T09:05:58.999Z</time></trkpt><trkpt lat="45.798208765455136" lon="9.964022191038572"><ele>616.0</ele><time>2026-04-26T09:05:59.999Z</time></trkpt><trkpt lat="45.79823790144046" lon="9.964108353824834"><ele>616.0</ele><time>2026-04-26T09:06:00.999Z</time></trkpt><trkpt lat="45.79826508176143" lon="9.964202265011137"><ele>616.0</ele><time>2026-04-26T09:06:01.999Z</time></trkpt><trkpt lat="45.79824991885661" lon="9.96435101918308"><ele>616.0</ele><time>2026-04-26T09:06:03.999Z</time></trkpt><trkpt lat="45.798171881591955" lon="9.964452496346256"><ele>616.0</ele><time>2026-04-26T09:06:05.999Z</time></trkpt><trkpt lat="45.798095195184075" lon="9.964496039945699"><ele>616.6666666666667</ele><time>2026-04-26T09:06:06.999Z</time></trkpt><trkpt lat="45.79806147615419" lon="9.964575576267114"><ele>617.3333333333334</ele><time>2026-04-26T09:06:07.999Z</time></trkpt><trkpt lat="45.79799941190225" lon="9.964677552464272"><ele>618.0</ele><time>2026-04-26T09:06:09.999Z</time></trkpt><trkpt lat="45.79795307224783" lon="9.964802007399754"><ele>618.6666666666666</ele><time>2026-04-26T09:06:11.999Z</time></trkpt><trkpt lat="45.79793209100694" lon="9.96494369796103"><ele>619.3333333333333</ele><time>2026-04-26T09:06:13.999Z</time></trkpt><trkpt lat="45.79789350111102" lon="9.965017564489207"><ele>620.0</ele><time>2026-04-26T09:06:14.999Z</time></trkpt><trkpt lat="45.797851371473236" lon="9.965097324043501"><ele>620.8</ele><time>2026-04-26T09:06:15.999Z</time></trkpt><trkpt lat="45.79781419771806" lon="9.965178646166093"><ele>621.6</ele><time>2026-04-26T09:06:16.999Z</time></trkpt><trkpt lat="45.797745608396376" lon="9.965315421523897"><ele>622.4</ele><time>2026-04-26T09:06:18.999Z</time></trkpt><trkpt lat="45.79768329890157" lon="9.965466000414777"><ele>623.2</ele><time>2026-04-26T09:06:20.999Z</time></trkpt><trkpt lat="45.797653279479746" lon="9.965623490251362"><ele>624.0</ele><time>2026-04-26T09:06:22.999Z</time></trkpt><trkpt lat="45.797588047530866" lon="9.965709162201113"><ele>616.0</ele><time>2026-04-26T09:06:24.999Z</time></trkpt><trkpt lat="45.797512185514385" lon="9.965831725416631"><ele>608.0</ele><time>2026-04-26T09:06:26.999Z</time></trkpt><trkpt lat="45.79747571934228" lon="9.965983709663629"><ele>600.0</ele><time>2026-04-26T09:06:28.999Z</time></trkpt><trkpt lat="45.79746956691954" lon="9.966074053267073"><ele>592.0</ele><time>2026-04-26T09:06:29.999Z</time></trkpt><trkpt lat="45.79746806728666" lon="9.96616778827902"><ele>584.0</ele><time>2026-04-26T09:06:30.999Z</time></trkpt><trkpt lat="45.797464386289136" lon="9.966322824196856"><ele>582.8</ele><time>2026-04-26T09:06:32.999Z</time></trkpt><trkpt lat="45.79743551516155" lon="9.966451792238741"><ele>581.5999999999999</ele><time>2026-04-26T09:06:34.999Z</time></trkpt><trkpt lat="45.7974387682747" lon="9.966541988855619"><ele>580.4</ele><time>2026-04-26T09:06:35.999Z</time></trkpt><trkpt lat="45.79741796937244" lon="9.966670731147252"><ele>579.1999999999999</ele><time>2026-04-26T09:06:37.999Z</time></trkpt><trkpt lat="45.79732525185038" lon="9.96675807092906"><ele>578.0</ele><time>2026-04-26T09:06:39.999Z</time></trkpt><trkpt lat="45.797283297670745" lon="9.966902627071471"><ele>577.4</ele><time>2026-04-26T09:06:41.999Z</time></trkpt><trkpt lat="45.797273544128394" lon="9.966993465909216"><ele>576.8</ele><time>2026-04-26T09:06:42.998Z</time></trkpt><trkpt lat="45.797306070158065" lon="9.967158211175189"><ele>576.2</ele><time>2026-04-26T09:06:44.998Z</time></trkpt><trkpt lat="45.79732346264019" lon="9.967251053368429"><ele>575.6</ele><time>2026-04-26T09:06:45.998Z</time></trkpt><trkpt lat="45.79735648659067" lon="9.967422031930532"><ele>575.0</ele><time>2026-04-26T09:06:47.998Z</time></trkpt><trkpt lat="45.797315836394915" lon="9.96755550604078"><ele>575.0</ele><time>2026-04-26T09:06:49.998Z</time></trkpt><trkpt lat="45.79726358583485" lon="9.967607124398038"><ele>575.0</ele><time>2026-04-26T09:06:50.998Z</time></trkpt><trkpt lat="45.79720685604501" lon="9.967656177180785"><ele>575.0</ele><time>2026-04-26T09:06:51.998Z</time></trkpt><trkpt lat="45.79715304608261" lon="9.967717789221176"><ele>575.0</ele><time>2026-04-26T09:06:52.998Z</time></trkpt><trkpt lat="45.79710370566774" lon="9.967867352415494"><ele>575.0</ele><time>2026-04-26T09:06:54.998Z</time></trkpt><trkpt lat="45.79702494305641" lon="9.967979485775247"><ele>575.0</ele><time>2026-04-26T09:06:56.998Z</time></trkpt><trkpt lat="45.79698894099519" lon="9.968132380226338"><ele>575.0</ele><time>2026-04-26T09:06:58.998Z</time></trkpt><trkpt lat="45.7969520213115" lon="9.968262672798039"><ele>575.0</ele><time>2026-04-26T09:07:01Z</time></trkpt><trkpt lat="45.796910691455096" lon="9.968333507603036"><ele>575.0</ele><time>2026-04-26T09:07:02Z</time></trkpt><trkpt lat="45.79686230481501" lon="9.968441823598635"><ele>575.0</ele><time>2026-04-26T09:07:04Z</time></trkpt><trkpt lat="45.79678675777481" lon="9.968520569957372"><ele>575.0</ele><time>2026-04-26T09:07:06Z</time></trkpt><trkpt lat="45.796736811323555" lon="9.96859968598214"><ele>575.0</ele><time>2026-04-26T09:07:08Z</time></trkpt><trkpt lat="45.796667711870654" lon="9.968656198895046"><ele>568.8333333333333</ele><time>2026-04-26T09:07:09Z</time></trkpt><trkpt lat="45.79661728480275" lon="9.96875030483823"><ele>562.6666666666666</ele><time>2026-04-26T09:07:11Z</time></trkpt><trkpt lat="45.79649022211449" lon="9.968853838652347"><ele>556.5</ele><time>2026-04-26T09:07:14Z</time></trkpt><trkpt lat="45.79649247829048" lon="9.96896241707381"><ele>550.3333333333334</ele><time>2026-04-26T09:07:27Z</time></trkpt><trkpt lat="45.79652333195494" lon="9.969047334265666"><ele>544.1666666666667</ele><time>2026-04-26T09:07:29Z</time></trkpt><trkpt lat="45.796514188524995" lon="9.969139063554824"><ele>538.0</ele><time>2026-04-26T09:07:32Z</time></trkpt><trkpt lat="45.796498585017254" lon="9.969227089766198"><ele>536.3333333333334</ele><time>2026-04-26T09:07:34Z</time></trkpt><trkpt lat="45.7964914195966" lon="9.969365340934385"><ele>534.6666666666667</ele><time>2026-04-26T09:07:37Z</time></trkpt><trkpt lat="45.79648213194369" lon="9.96946564030278"><ele>533.0</ele><time>2026-04-26T09:07:39Z</time></trkpt><trkpt lat="45.7965023832533" lon="9.969599613115632"><ele>531.3333333333334</ele><time>2026-04-26T09:07:41Z</time></trkpt><trkpt lat="45.79650441027344" lon="9.969719272689886"><ele>529.6666666666666</ele><time>2026-04-26T09:07:43Z</time></trkpt><trkpt lat="45.796489416496335" lon="9.96984041169038"><ele>528.0</ele><time>2026-04-26T09:07:45Z</time></trkpt><trkpt lat="45.79646971180827" lon="9.969928114063757"><ele>526.1666666666666</ele><time>2026-04-26T09:07:46.999Z</time></trkpt><trkpt lat="45.7964794622051" lon="9.97003044862089"><ele>524.3333333333334</ele><time>2026-04-26T09:07:49.999Z</time></trkpt><trkpt lat="45.79647929732772" lon="9.97015743701535"><ele>522.5</ele><time>2026-04-26T09:07:54.999Z</time></trkpt><trkpt lat="45.79646250367144" lon="9.970284511792187"><ele>520.6666666666667</ele><time>2026-04-26T09:07:58.999Z</time></trkpt><trkpt lat="45.79644906238626" lon="9.970398295557507"><ele>518.8333333333334</ele><time>2026-04-26T09:08:00.999Z</time></trkpt><trkpt lat="45.79644034557222" lon="9.970491181162558"><ele>517.0</ele><time>2026-04-26T09:08:02.999Z</time></trkpt><trkpt lat="45.79643156933931" lon="9.970618183731967"><ele>517.0</ele><time>2026-04-26T09:08:04.999Z</time></trkpt><trkpt lat="45.79642451539981" lon="9.970746718064847"><ele>517.0</ele><time>2026-04-26T09:08:06.999Z</time></trkpt><trkpt lat="45.796393693591234" lon="9.970833111916248"><ele>517.0</ele><time>2026-04-26T09:08:08.999Z</time></trkpt><trkpt lat="45.79638310308416" lon="9.970930647971747"><ele>517.0</ele><time>2026-04-26T09:08:10.999Z</time></trkpt><trkpt lat="45.796423305256845" lon="9.971034928853022"><ele>517.0</ele><time>2026-04-26T09:08:12.999Z</time></trkpt><trkpt lat="45.79646331105767" lon="9.971180663870124"><ele>517.0</ele><time>2026-04-26T09:08:14.999Z</time></trkpt><trkpt lat="45.79647898359754" lon="9.971272951050743"><ele>516.8000000000001</ele><time>2026-04-26T09:08:15.999Z</time></trkpt><trkpt lat="45.79649184977655" lon="9.971375822370923"><ele>516.6</ele><time>2026-04-26T09:08:16.999Z</time></trkpt><trkpt lat="45.796541769402516" lon="9.97151190006592"><ele>516.4000000000001</ele><time>2026-04-26T09:08:18.999Z</time></trkpt><trkpt lat="45.796574871926374" lon="9.971593808432191"><ele>516.2</ele><time>2026-04-26T09:08:19.999Z</time></trkpt><trkpt lat="45.796571834560844" lon="9.971720485654854"><ele>516.0</ele><time>2026-04-26T09:08:21.999Z</time></trkpt><trkpt lat="45.79649688065763" lon="9.971855309329683"><ele>518.0</ele><time>2026-04-26T09:08:23.999Z</time></trkpt><trkpt lat="45.796552042625365" lon="9.971949757333752"><ele>520.0</ele><time>2026-04-26T09:08:25.999Z</time></trkpt><trkpt lat="45.79653623629953" lon="9.972122318052097"><ele>522.0</ele><time>2026-04-26T09:08:28.999Z</time></trkpt><trkpt lat="45.7964951905166" lon="9.972237753815813"><ele>524.0</ele><time>2026-04-26T09:08:30.999Z</time></trkpt><trkpt lat="45.79645681477829" lon="9.972348240364127"><ele>526.0</ele><time>2026-04-26T09:08:33.999Z</time></trkpt><trkpt lat="45.796444004316" lon="9.972486757124988"><ele>529.0</ele><time>2026-04-26T09:08:36.999Z</time></trkpt><trkpt lat="45.796380319343626" lon="9.972606770455767"><ele>532.0</ele><time>2026-04-26T09:08:38.999Z</time></trkpt><trkpt lat="45.796331350231526" lon="9.972746827821778"><ele>535.0</ele><time>2026-04-26T09:08:40.999Z</time></trkpt><trkpt lat="45.79632343761211" lon="9.972903693962527"><ele>538.0</ele><time>2026-04-26T09:08:42.999Z</time></trkpt><trkpt lat="45.79629512688695" lon="9.97307183878936"><ele>541.0</ele><time>2026-04-26T09:08:44.999Z</time></trkpt><trkpt lat="45.79628415125182" lon="9.973161158918446"><ele>541.0</ele><time>2026-04-26T09:08:45.999Z</time></trkpt><trkpt lat="45.79628430228017" lon="9.973276835430054"><ele>541.0</ele><time>2026-04-26T09:08:46.999Z</time></trkpt><trkpt lat="45.79627661299316" lon="9.973379534076438"><ele>541.0</ele><time>2026-04-26T09:08:47.999Z</time></trkpt><trkpt lat="45.79629145196443" lon="9.973537167524153"><ele>541.0</ele><time>2026-04-26T09:08:49.998Z</time></trkpt><trkpt lat="45.796281025191206" lon="9.97368612611798"><ele>541.0</ele><time>2026-04-26T09:08:51.998Z</time></trkpt><trkpt lat="45.79624644554227" lon="9.97376841792092"><ele>541.0</ele><time>2026-04-26T09:08:52.998Z</time></trkpt><trkpt lat="45.79621834176868" lon="9.973864218415981"><ele>543.0</ele><time>2026-04-26T09:08:53.998Z</time></trkpt><trkpt lat="45.796259744549204" lon="9.974015004643952"><ele>545.0</ele><time>2026-04-26T09:08:55.998Z</time></trkpt><trkpt lat="45.79630007063047" lon="9.974087332215504"><ele>547.0</ele><time>2026-04-26T09:08:56.998Z</time></trkpt><trkpt lat="45.79633724795383" lon="9.974161640706388"><ele>549.0</ele><time>2026-04-26T09:08:57.998Z</time></trkpt><trkpt lat="45.79641212135243" lon="9.974257459394622"><ele>551.0</ele><time>2026-04-26T09:08:59.998Z</time></trkpt><trkpt lat="45.796445413412485" lon="9.974350200854657"><ele>553.0</ele><time>2026-04-26T09:09:19Z</time></trkpt><trkpt lat="45.79648951742835" lon="9.974428530097555"><ele>553.1666666666667</ele><time>2026-04-26T09:09:21Z</time></trkpt><trkpt lat="45.79654890055059" lon="9.974519049674718"><ele>553.3333333333334</ele><time>2026-04-26T09:09:23Z</time></trkpt><trkpt lat="45.79657691785795" lon="9.974623907831866"><ele>553.5</ele><time>2026-04-26T09:09:25Z</time></trkpt><trkpt lat="45.79660362516648" lon="9.974707939718034"><ele>553.6666666666666</ele><time>2026-04-26T09:09:26Z</time></trkpt><trkpt lat="45.796661334587824" lon="9.974825068279468"><ele>553.8333333333333</ele><time>2026-04-26T09:09:28Z</time></trkpt><trkpt lat="45.79667844816248" lon="9.974921678258545"><ele>554.0</ele><time>2026-04-26T09:09:38Z</time></trkpt><trkpt lat="45.796641385100344" lon="9.97505429908693"><ele>553.3333333333333</ele><time>2026-04-26T09:09:40Z</time></trkpt><trkpt lat="45.796622545713376" lon="9.975188123266031"><ele>552.6666666666666</ele><time>2026-04-26T09:09:42Z</time></trkpt><trkpt lat="45.796592354786135" lon="9.975284279051836"><ele>552.0</ele><time>2026-04-26T09:09:44Z</time></trkpt><trkpt lat="45.79652494227964" lon="9.975310587326788"><ele>551.3333333333334</ele><time>2026-04-26T09:09:46Z</time></trkpt><trkpt lat="45.79648644905926" lon="9.975191808870289"><ele>550.6666666666667</ele><time>2026-04-26T09:09:48.999Z</time></trkpt><trkpt lat="45.796453141070955" lon="9.975111823632895"><ele>550.0</ele><time>2026-04-26T09:09:50.999Z</time></trkpt><trkpt lat="45.79638732416271" lon="9.975164033193352"><ele>550.0</ele><time>2026-04-26T09:09:52.999Z</time></trkpt><trkpt lat="45.796306296092546" lon="9.975161654545953"><ele>550.0</ele><time>2026-04-26T09:09:55.999Z</time></trkpt><trkpt lat="45.79624598141725" lon="9.975199445619857"><ele>550.0</ele><time>2026-04-26T09:09:57.999Z</time></trkpt><trkpt lat="45.796224211316094" lon="9.975304449154534"><ele>550.0</ele><time>2026-04-26T09:09:59.999Z</time></trkpt><trkpt lat="45.79619467437974" lon="9.975446995727847"><ele>550.0</ele><time>2026-04-26T09:10:01.999Z</time></trkpt><trkpt lat="45.79615735171489" lon="9.97555905390567"><ele>550.0</ele><time>2026-04-26T09:10:03.999Z</time></trkpt><trkpt lat="45.796135983885904" lon="9.975658758115324"><ele>550.0</ele><time>2026-04-26T09:10:05.999Z</time></trkpt><trkpt lat="45.796152511190584" lon="9.975787582196595"><ele>550.0</ele><time>2026-04-26T09:10:08.999Z</time></trkpt><trkpt lat="45.79617598857126" lon="9.975873886927097"><ele>550.0</ele><time>2026-04-26T09:10:10.999Z</time></trkpt><trkpt lat="45.79620634744263" lon="9.976003207283743"><ele>550.0</ele><time>2026-04-26T09:10:12.999Z</time></trkpt><trkpt lat="45.79619633363009" lon="9.976140744831449"><ele>550.0</ele><time>2026-04-26T09:10:14.999Z</time></trkpt><trkpt lat="45.79616683379109" lon="9.97627280031762"><ele>550.0</ele><time>2026-04-26T09:10:16.999Z</time></trkpt><trkpt lat="45.796160428827186" lon="9.97642804180605"><ele>549.8</ele><time>2026-04-26T09:10:18.999Z</time></trkpt><trkpt lat="45.79614789993246" lon="9.976561885534103"><ele>549.6</ele><time>2026-04-26T09:10:20.999Z</time></trkpt><trkpt lat="45.79613630703043" lon="9.976725594439745"><ele>549.4</ele><time>2026-04-26T09:10:22.999Z</time></trkpt><trkpt lat="45.79612821849384" lon="9.9768180408651"><ele>549.2</ele><time>2026-04-26T09:10:23.999Z</time></trkpt><trkpt lat="45.796065541275205" lon="9.976950181426156"><ele>549.0</ele><time>2026-04-26T09:10:25.999Z</time></trkpt><trkpt lat="45.79599198739297" lon="9.977022880518467"><ele>546.1666666666666</ele><time>2026-04-26T09:10:27.999Z</time></trkpt><trkpt lat="45.79594624588832" lon="9.97712755481615"><ele>543.3333333333334</ele><time>2026-04-26T09:10:29.999Z</time></trkpt><trkpt lat="45.79589863474604" lon="9.977241104647227"><ele>540.5</ele><time>2026-04-26T09:10:31.999Z</time></trkpt><trkpt lat="45.79586520474335" lon="9.977318238672705"><ele>537.6666666666667</ele><time>2026-04-26T09:10:32.999Z</time></trkpt><trkpt lat="45.79582643613414" lon="9.977447325886043"><ele>534.8333333333334</ele><time>2026-04-26T09:10:34.999Z</time></trkpt><trkpt lat="45.79582783213781" lon="9.977583109505053"><ele>532.0</ele><time>2026-04-26T09:10:36.999Z</time></trkpt><trkpt lat="45.7958474456567" lon="9.977676514811085"><ele>532.0</ele><time>2026-04-26T09:10:37.999Z</time></trkpt><trkpt lat="45.7958007515204" lon="9.977817946102833"><ele>532.0</ele><time>2026-04-26T09:10:39.999Z</time></trkpt><trkpt lat="45.795782412340415" lon="9.977973105571538"><ele>532.0</ele><time>2026-04-26T09:10:41.999Z</time></trkpt><trkpt lat="45.79574915566435" lon="9.978051431752371"><ele>532.0</ele><time>2026-04-26T09:10:43.999Z</time></trkpt><trkpt lat="45.7957125842327" lon="9.978230664214824"><ele>532.0</ele><time>2026-04-26T09:10:45.999Z</time></trkpt><trkpt lat="45.79569623649061" lon="9.978346857084157"><ele>534.0</ele><time>2026-04-26T09:10:47.999Z</time></trkpt><trkpt lat="45.7957171849593" lon="9.978506680608142"><ele>536.0</ele><time>2026-04-26T09:10:49.999Z</time></trkpt><trkpt lat="45.795771071104035" lon="9.97861716592565"><ele>538.0</ele><time>2026-04-26T09:10:51.999Z</time></trkpt><trkpt lat="45.79582159327511" lon="9.978716493289292"><ele>540.0</ele><time>2026-04-26T09:10:54.998Z</time></trkpt><trkpt lat="45.79583967202243" lon="9.978890274257225"><ele>542.0</ele><time>2026-04-26T09:10:56.998Z</time></trkpt><trkpt lat="45.795857836451134" lon="9.978988006012516"><ele>542.0</ele><time>2026-04-26T09:10:57.998Z</time></trkpt><trkpt lat="45.795870510095455" lon="9.979120605707758"><ele>542.0</ele><time>2026-04-26T09:10:59.998Z</time></trkpt><trkpt lat="45.795884677502336" lon="9.979249677827353"><ele>542.0</ele><time>2026-04-26T09:11:01.998Z</time></trkpt><trkpt lat="45.79588913163707" lon="9.979406589296548"><ele>542.0</ele><time>2026-04-26T09:11:03.998Z</time></trkpt><trkpt lat="45.795898325377" lon="9.97955068128061"><ele>542.0</ele><time>2026-04-26T09:11:05.998Z</time></trkpt><trkpt lat="45.79592550117526" lon="9.979701380944528"><ele>543.25</ele><time>2026-04-26T09:11:07.998Z</time></trkpt><trkpt lat="45.795897021719234" lon="9.97981649470363"><ele>544.5</ele><time>2026-04-26T09:11:09.998Z</time></trkpt><trkpt lat="45.795907706100095" lon="9.979945114814782"><ele>545.75</ele><time>2026-04-26T09:11:13Z</time></trkpt><trkpt lat="45.79599259099504" lon="9.980245812824636"><ele>547.0</ele><time>2026-04-26T09:11:15Z</time></trkpt><trkpt lat="45.79596913613875" lon="9.980350402516063"><ele>548.1666666666667</ele><time>2026-04-26T09:11:17Z</time></trkpt><trkpt lat="45.79600222487931" lon="9.980427780160543"><ele>549.3333333333334</ele><time>2026-04-26T09:11:19Z</time></trkpt><trkpt lat="45.79599656214785" lon="9.98055249442054"><ele>550.5</ele><time>2026-04-26T09:11:21Z</time></trkpt><trkpt lat="45.796020368705" lon="9.980655272230718"><ele>551.6666666666666</ele><time>2026-04-26T09:11:23Z</time></trkpt><trkpt lat="45.796057177752154" lon="9.980787172528762"><ele>552.8333333333333</ele><time>2026-04-26T09:11:25Z</time></trkpt><trkpt lat="45.79610961317395" lon="9.980901662894565"><ele>554.0</ele><time>2026-04-26T09:11:27Z</time></trkpt><trkpt lat="45.79610569501688" lon="9.980996066387295"><ele>562.4</ele><time>2026-04-26T09:11:29Z</time></trkpt><trkpt lat="45.796125409868026" lon="9.981087008161703"><ele>570.8</ele><time>2026-04-26T09:11:31Z</time></trkpt><trkpt lat="45.79617344250584" lon="9.981182495747301"><ele>579.2</ele><time>2026-04-26T09:11:32Z</time></trkpt><trkpt lat="45.7961600165658" lon="9.981359841807377"><ele>587.6</ele><time>2026-04-26T09:11:36Z</time></trkpt><trkpt lat="45.79616020017374" lon="9.981469461802767"><ele>596.0</ele><time>2026-04-26T09:11:38Z</time></trkpt><trkpt lat="45.7962211731864" lon="9.981682766736796"><ele>596.1666666666666</ele><time>2026-04-26T09:11:39Z</time></trkpt><trkpt lat="45.7962237160934" lon="9.981787175997832"><ele>596.3333333333333</ele><time>2026-04-26T09:11:41Z</time></trkpt><trkpt lat="45.79624420759602" lon="9.981899942118964"><ele>596.5</ele><time>2026-04-26T09:11:43Z</time></trkpt><trkpt lat="45.796266646551054" lon="9.982011786879264"><ele>596.6666666666666</ele><time>2026-04-26T09:11:45Z</time></trkpt><trkpt lat="45.796308842545464" lon="9.982112895950056"><ele>596.8333333333334</ele><time>2026-04-26T09:11:47Z</time></trkpt><trkpt lat="45.79632876504359" lon="9.982243056687519"><ele>597.0</ele><time>2026-04-26T09:11:49Z</time></trkpt><trkpt lat="45.79636627371795" lon="9.982318720640963"><ele>597.0</ele><time>2026-04-26T09:11:50Z</time></trkpt><trkpt lat="45.796340785129736" lon="9.982501562419664"><ele>597.0</ele><time>2026-04-26T09:11:52Z</time></trkpt><trkpt lat="45.79639266465496" lon="9.98263096077896"><ele>597.0</ele><time>2026-04-26T09:11:54Z</time></trkpt><trkpt lat="45.796369077860824" lon="9.982784729992632"><ele>597.0</ele><time>2026-04-26T09:11:56Z</time></trkpt><trkpt lat="45.796349320563394" lon="9.982934994375901"><ele>597.8000000000001</ele><time>2026-04-26T09:11:57.999Z</time></trkpt><trkpt lat="45.79638077023171" lon="9.983024926690323"><ele>598.6</ele><time>2026-04-26T09:11:58.999Z</time></trkpt><trkpt lat="45.79633596500458" lon="9.983116522286107"><ele>599.4000000000001</ele><time>2026-04-26T09:11:59.999Z</time></trkpt><trkpt lat="45.796321782633434" lon="9.983264806214812"><ele>600.2</ele><time>2026-04-26T09:12:01.999Z</time></trkpt><trkpt lat="45.79635987020579" lon="9.983429952857248"><ele>601.0</ele><time>2026-04-26T09:12:03.999Z</time></trkpt><trkpt lat="45.79635259091359" lon="9.983540384892297"><ele>602.3333333333334</ele><time>2026-04-26T09:12:05.999Z</time></trkpt><trkpt lat="45.79632368354285" lon="9.983635056297244"><ele>603.6666666666667</ele><time>2026-04-26T09:12:07.999Z</time></trkpt><trkpt lat="45.796317891487014" lon="9.983780822786978"><ele>605.0</ele><time>2026-04-26T09:12:09.999Z</time></trkpt><trkpt lat="45.79629792490772" lon="9.983898039021566"><ele>606.3333333333334</ele><time>2026-04-26T09:12:11.999Z</time></trkpt><trkpt lat="45.79631800224982" lon="9.984034187789355"><ele>607.6666666666666</ele><time>2026-04-26T09:12:12.999Z</time></trkpt><trkpt lat="45.79629306933245" lon="9.984125578009646"><ele>609.0</ele><time>2026-04-26T09:12:13.999Z</time></trkpt><trkpt lat="45.7962859155903" lon="9.984234301804479"><ele>610.3333333333334</ele><time>2026-04-26T09:12:14.999Z</time></trkpt><trkpt lat="45.79626913010759" lon="9.984327280076753"><ele>611.6666666666666</ele><time>2026-04-26T09:12:15.999Z</time></trkpt><trkpt lat="45.796270283217" lon="9.98443658578244"><ele>613.0</ele><time>2026-04-26T09:12:16.999Z</time></trkpt><trkpt lat="45.796259804856064" lon="9.98452974705736"><ele>614.3333333333333</ele><time>2026-04-26T09:12:17.999Z</time></trkpt><trkpt lat="45.796245935344146" lon="9.984679879583283"><ele>615.6666666666666</ele><time>2026-04-26T09:12:19.999Z</time></trkpt><trkpt lat="45.79623379188788" lon="9.984838396889227"><ele>617.0</ele><time>2026-04-26T09:12:21.999Z</time></trkpt><trkpt lat="45.7962347847718" lon="9.984932755835787"><ele>617.1666666666666</ele><time>2026-04-26T09:12:22.999Z</time></trkpt><trkpt lat="45.796247859923355" lon="9.985030344024608"><ele>617.3333333333333</ele><time>2026-04-26T09:12:23.999Z</time></trkpt><trkpt lat="45.796254931428315" lon="9.985210271970773"><ele>617.5</ele><time>2026-04-26T09:12:25.999Z</time></trkpt><trkpt lat="45.796234213786086" lon="9.985321323727963"><ele>617.6666666666666</ele><time>2026-04-26T09:12:27.999Z</time></trkpt><trkpt lat="45.7962639032289" lon="9.985425229179635"><ele>617.8333333333334</ele><time>2026-04-26T09:12:28.999Z</time></trkpt><trkpt lat="45.7962256610584" lon="9.98553572208681"><ele>618.0</ele><time>2026-04-26T09:12:30.999Z</time></trkpt><trkpt lat="45.796248323012165" lon="9.985707462914295"><ele>618.0</ele><time>2026-04-26T09:12:32.999Z</time></trkpt><trkpt lat="45.79625993103212" lon="9.985796258181844"><ele>618.0</ele><time>2026-04-26T09:12:33.999Z</time></trkpt><trkpt lat="45.79625066317708" lon="9.985917261048924"><ele>618.0</ele><time>2026-04-26T09:12:35.999Z</time></trkpt><trkpt lat="45.79624503361195" lon="9.986018719908946"><ele>618.0</ele><time>2026-04-26T09:12:36.999Z</time></trkpt><trkpt lat="45.79626373546451" lon="9.986114951031018"><ele>618.0</ele><time>2026-04-26T09:12:37.999Z</time></trkpt><trkpt lat="45.796295361981585" lon="9.986230312107965"><ele>618.0</ele><time>2026-04-26T09:12:38.999Z</time></trkpt><trkpt lat="45.79633898457687" lon="9.986386851991789"><ele>617.4</ele><time>2026-04-26T09:12:40.999Z</time></trkpt><trkpt lat="45.79632498657851" lon="9.986590752090306"><ele>616.8</ele><time>2026-04-26T09:12:54.999Z</time></trkpt><trkpt lat="45.7962523895956" lon="9.986678715105736"><ele>616.2</ele><time>2026-04-26T09:12:58.999Z</time></trkpt><trkpt lat="45.79615387040827" lon="9.986732663162027"><ele>615.6</ele><time>2026-04-26T09:30:27Z</time></trkpt><trkpt lat="45.79617536921715" lon="9.986819546483277"><ele>615.0</ele><time>2026-04-26T09:30:29Z</time></trkpt><trkpt lat="45.79621130139472" lon="9.986898451821201"><ele>613.8333333333334</ele><time>2026-04-26T09:30:30Z</time></trkpt><trkpt lat="45.79625769271648" lon="9.987045557987457"><ele>612.6666666666666</ele><time>2026-04-26T09:30:32Z</time></trkpt><trkpt lat="45.796293573149136" lon="9.987134136882192"><ele>611.5</ele><time>2026-04-26T09:30:33Z</time></trkpt><trkpt lat="45.79633160904314" lon="9.98723009009373"><ele>610.3333333333333</ele><time>2026-04-26T09:30:34Z</time></trkpt><trkpt lat="45.79639151445915" lon="9.987382820593693"><ele>609.1666666666666</ele><time>2026-04-26T09:30:36Z</time></trkpt><trkpt lat="45.79641980983868" lon="9.987467455483845"><ele>608.0</ele><time>2026-04-26T09:30:37Z</time></trkpt><trkpt lat="45.796456391564874" lon="9.987557605134636"><ele>607.1666666666666</ele><time>2026-04-26T09:30:38Z</time></trkpt><trkpt lat="45.79649461028918" lon="9.987641783615716"><ele>606.3333333333333</ele><time>2026-04-26T09:30:39Z</time></trkpt><trkpt lat="45.7965234802631" lon="9.987737399121091"><ele>605.5</ele><time>2026-04-26T09:30:40Z</time></trkpt><trkpt lat="45.79655428694647" lon="9.987928761051009"><ele>604.6666666666666</ele><time>2026-04-26T09:30:42Z</time></trkpt><trkpt lat="45.79657264314186" lon="9.9880384251459"><ele>603.8333333333334</ele><time>2026-04-26T09:30:43Z</time></trkpt><trkpt lat="45.796594055569585" lon="9.988162352638374"><ele>603.0</ele><time>2026-04-26T09:30:44Z</time></trkpt><trkpt lat="45.79661324302305" lon="9.988271947010112"><ele>601.4</ele><time>2026-04-26T09:30:45Z</time></trkpt><trkpt lat="45.79669005947146" lon="9.98843593030656"><ele>599.8</ele><time>2026-04-26T09:30:47Z</time></trkpt><trkpt lat="45.79674056225081" lon="9.988522518811482"><ele>598.2</ele><time>2026-04-26T09:30:48Z</time></trkpt><trkpt lat="45.79677721792265" lon="9.988623092928512"><ele>596.6</ele><time>2026-04-26T09:30:48.999Z</time></trkpt><trkpt lat="45.79681738531883" lon="9.988723208916609"><ele>595.0</ele><time>2026-04-26T09:30:49.999Z</time></trkpt><trkpt lat="45.79685439403997" lon="9.988816165520893"><ele>602.2</ele><time>2026-04-26T09:30:50.999Z</time></trkpt><trkpt lat="45.7969550958611" lon="9.988959586618543"><ele>609.4</ele><time>2026-04-26T09:30:52.999Z</time></trkpt><trkpt lat="45.7970237400343" lon="9.98904006951996"><ele>616.6</ele><time>2026-04-26T09:30:53.999Z</time></trkpt><trkpt lat="45.797090296462535" lon="9.989103938422407"><ele>623.8</ele><time>2026-04-26T09:30:54.999Z</time></trkpt><trkpt lat="45.79715469431073" lon="9.989149049693925"><ele>631.0</ele><time>2026-04-26T09:30:55.999Z</time></trkpt><trkpt lat="45.79726363630371" lon="9.98925902185868"><ele>631.0</ele><time>2026-04-26T09:30:57.999Z</time></trkpt><trkpt lat="45.79733077351656" lon="9.989413085640065"><ele>631.0</ele><time>2026-04-26T09:30:59.999Z</time></trkpt><trkpt lat="45.79736230388591" lon="9.989501268827414"><ele>631.0</ele><time>2026-04-26T09:31:00.999Z</time></trkpt><trkpt lat="45.79745041321684" lon="9.98963007346731"><ele>631.0</ele><time>2026-04-26T09:31:02.999Z</time></trkpt><trkpt lat="45.79750789680478" lon="9.98979112058952"><ele>631.0</ele><time>2026-04-26T09:31:04.999Z</time></trkpt><trkpt lat="45.797546714938576" lon="9.989879023498808"><ele>631.0</ele><time>2026-04-26T09:31:05.999Z</time></trkpt><trkpt lat="45.79759099686871" lon="9.989964057199726"><ele>631.0</ele><time>2026-04-26T09:31:06.999Z</time></trkpt><trkpt lat="45.79762729962196" lon="9.990053794391882"><ele>631.0</ele><time>2026-04-26T09:31:07.999Z</time></trkpt><trkpt lat="45.79767261166063" lon="9.990153567940519"><ele>631.0</ele><time>2026-04-26T09:31:08.999Z</time></trkpt><trkpt lat="45.79771703581702" lon="9.990249473416203"><ele>631.0</ele><time>2026-04-26T09:31:09.999Z</time></trkpt><trkpt lat="45.79774541218476" lon="9.990388426212506"><ele>631.0</ele><time>2026-04-26T09:31:11.999Z</time></trkpt><trkpt lat="45.79775997323287" lon="9.990530570109255"><ele>633.6</ele><time>2026-04-26T09:31:13.999Z</time></trkpt><trkpt lat="45.797799446461504" lon="9.990767052005722"><ele>636.2</ele><time>2026-04-26T09:31:15.999Z</time></trkpt><trkpt lat="45.797822111584175" lon="9.990865257226288"><ele>638.8000000000001</ele><time>2026-04-26T09:31:16.999Z</time></trkpt><trkpt lat="45.797846675787184" lon="9.990948414407116"><ele>641.4000000000001</ele><time>2026-04-26T09:31:17.999Z</time></trkpt><trkpt lat="45.79787152377852" lon="9.99110253947947"><ele>644.0</ele><time>2026-04-26T09:31:19.999Z</time></trkpt><trkpt lat="45.79788595014665" lon="9.991279365422997"><ele>644.0</ele><time>2026-04-26T09:31:21.999Z</time></trkpt><trkpt lat="45.79790947404625" lon="9.991385843475253"><ele>644.0</ele><time>2026-04-26T09:31:22.999Z</time></trkpt><trkpt lat="45.79791870765753" lon="9.991481882383532"><ele>644.0</ele><time>2026-04-26T09:31:23.999Z</time></trkpt><trkpt lat="45.797919049225975" lon="9.991580822208151"><ele>644.0</ele><time>2026-04-26T09:31:24.999Z</time></trkpt><trkpt lat="45.797934568920894" lon="9.991671875995742"><ele>644.0</ele><time>2026-04-26T09:31:25.999Z</time></trkpt><trkpt lat="45.79794375219932" lon="9.991768089636153"><ele>644.0</ele><time>2026-04-26T09:31:26.999Z</time></trkpt><trkpt lat="45.79795011661653" lon="9.991871453943189"><ele>644.0</ele><time>2026-04-26T09:31:27.999Z</time></trkpt><trkpt lat="45.79794959686648" lon="9.991987750560284"><ele>640.4000000000001</ele><time>2026-04-26T09:31:28.999Z</time></trkpt><trkpt lat="45.79796742287285" lon="9.992093101216655"><ele>636.8000000000001</ele><time>2026-04-26T09:31:29.999Z</time></trkpt><trkpt lat="45.79799284794038" lon="9.992182268151389"><ele>633.2</ele><time>2026-04-26T09:31:30.999Z</time></trkpt><trkpt lat="45.798049057561485" lon="9.992339781079096"><ele>629.6</ele><time>2026-04-26T09:31:32.999Z</time></trkpt><trkpt lat="45.79808247829976" lon="9.992493024610951"><ele>626.0</ele><time>2026-04-26T09:31:34.999Z</time></trkpt><trkpt lat="45.798036114020356" lon="9.992621883408276"><ele>621.0</ele><time>2026-04-26T09:31:36.999Z</time></trkpt><trkpt lat="45.7980355248264" lon="9.992750817015782"><ele>616.0</ele><time>2026-04-26T09:31:38.999Z</time></trkpt><trkpt lat="45.79812392687529" lon="9.992920852324435"><ele>611.0</ele><time>2026-04-26T09:31:40.999Z</time></trkpt><trkpt lat="45.79814680588591" lon="9.99312134694809"><ele>606.0</ele><time>2026-04-26T09:31:42.999Z</time></trkpt><trkpt lat="45.79815871674939" lon="9.993224463124447"><ele>601.5</ele><time>2026-04-26T09:31:43.999Z</time></trkpt><trkpt lat="45.798148328675595" lon="9.993341006631729"><ele>597.0</ele><time>2026-04-26T09:32:07.998Z</time></trkpt><trkpt lat="45.79807846532566" lon="9.993354585569042"><ele>592.5</ele><time>2026-04-26T09:32:09.998Z</time></trkpt><trkpt lat="45.79801784183087" lon="9.993406058778385"><ele>588.0</ele><time>2026-04-26T09:32:11.998Z</time></trkpt><trkpt lat="45.7979299238191" lon="9.993385900545778"><ele>583.5</ele><time>2026-04-26T09:32:18Z</time></trkpt><trkpt lat="45.797812895582005" lon="9.993392405612507"><ele>579.0</ele><time>2026-04-26T09:32:20Z</time></trkpt><trkpt lat="45.797749673726734" lon="9.9934002287504"><ele>579.0</ele><time>2026-04-26T09:32:21Z</time></trkpt><trkpt lat="45.79768243640052" lon="9.993471275853928"><ele>579.0</ele><time>2026-04-26T09:32:23Z</time></trkpt><trkpt lat="45.79763799181739" lon="9.99358018394947"><ele>579.0</ele><time>2026-04-26T09:32:25Z</time></trkpt><trkpt lat="45.79757584591368" lon="9.993614837649723"><ele>579.0</ele><time>2026-04-26T09:32:26Z</time></trkpt><trkpt lat="45.797506225012526" lon="9.993623959156169"><ele>579.0</ele><time>2026-04-26T09:32:27Z</time></trkpt><trkpt lat="45.797435820346244" lon="9.993632361892013"><ele>579.0</ele><time>2026-04-26T09:32:28Z</time></trkpt><trkpt lat="45.79735006911435" lon="9.993629952180832"><ele>576.6</ele><time>2026-04-26T09:32:29Z</time></trkpt><trkpt lat="45.79726053597549" lon="9.993683846107027"><ele>574.2</ele><time>2026-04-26T09:32:30Z</time></trkpt><trkpt lat="45.797196675049136" lon="9.993667489750209"><ele>571.8000000000001</ele><time>2026-04-26T09:32:31Z</time></trkpt><trkpt lat="45.797072448862004" lon="9.99365764520679"><ele>569.4</ele><time>2026-04-26T09:32:33Z</time></trkpt><trkpt lat="45.79697925862826" lon="9.993542986875141"><ele>567.0</ele><time>2026-04-26T09:32:35Z</time></trkpt><trkpt lat="45.79695762147497" lon="9.993422402625727"><ele>565.2</ele><time>2026-04-26T09:32:36Z</time></trkpt><trkpt lat="45.7969378102509" lon="9.993286310651696"><ele>563.4000000000001</ele><time>2026-04-26T09:32:37Z</time></trkpt><trkpt lat="45.79689122467881" lon="9.9931709236208"><ele>561.5999999999999</ele><time>2026-04-26T09:32:38Z</time></trkpt><trkpt lat="45.79687227127342" lon="9.993056279748371"><ele>559.8</ele><time>2026-04-26T09:32:39Z</time></trkpt><trkpt lat="45.796786017064896" lon="9.992998278657186"><ele>558.0</ele><time>2026-04-26T09:32:40Z</time></trkpt><trkpt lat="45.79672393339589" lon="9.992873717417469"><ele>558.0</ele><time>2026-04-26T09:32:41Z</time></trkpt><trkpt lat="45.796653414186316" lon="9.992790525024184"><ele>558.0</ele><time>2026-04-26T09:32:42Z</time></trkpt><trkpt lat="45.79660181121932" lon="9.992695352059181"><ele>558.0</ele><time>2026-04-26T09:32:43Z</time></trkpt><trkpt lat="45.79657134221486" lon="9.99258322847104"><ele>558.0</ele><time>2026-04-26T09:32:44Z</time></trkpt><trkpt lat="45.79655022864773" lon="9.992495131585082"><ele>558.0</ele><time>2026-04-26T09:32:45Z</time></trkpt><trkpt lat="45.796486241058226" lon="9.992424590262626"><ele>558.0</ele><time>2026-04-26T09:32:47Z</time></trkpt><trkpt lat="45.796455656875835" lon="9.992675075730192"><ele>558.0</ele><time>2026-04-26T09:32:49Z</time></trkpt><trkpt lat="45.79650611998334" lon="9.992837242192664"><ele>558.0</ele><time>2026-04-26T09:32:50Z</time></trkpt><trkpt lat="45.79652655799305" lon="9.993021930528222"><ele>558.0</ele><time>2026-04-26T09:32:51Z</time></trkpt><trkpt lat="45.79655960992294" lon="9.993190241820287"><ele>558.0</ele><time>2026-04-26T09:32:52Z</time></trkpt><trkpt lat="45.79662127157481" lon="9.993318922954801"><ele>556.8333333333334</ele><time>2026-04-26T09:32:53Z</time></trkpt><trkpt lat="45.7966412105304" lon="9.993431593949555"><ele>555.6666666666666</ele><time>2026-04-26T09:32:54Z</time></trkpt><trkpt lat="45.79659108204768" lon="9.993546920017316"><ele>554.5</ele><time>2026-04-26T09:32:55Z</time></trkpt><trkpt lat="45.796573877883304" lon="9.993677979656995"><ele>553.3333333333333</ele><time>2026-04-26T09:32:56Z</time></trkpt><trkpt lat="45.79654209118942" lon="9.99379177171192"><ele>552.1666666666666</ele><time>2026-04-26T09:32:56.999Z</time></trkpt><trkpt lat="45.79654839515095" lon="9.993926936627167"><ele>551.0</ele><time>2026-04-26T09:32:57.999Z</time></trkpt><trkpt lat="45.79656959631331" lon="9.994069579150713"><ele>547.5</ele><time>2026-04-26T09:32:58.999Z</time></trkpt><trkpt lat="45.796616253712386" lon="9.994238935811875"><ele>544.0</ele><time>2026-04-26T09:32:59.999Z</time></trkpt><trkpt lat="45.796656205725526" lon="9.994438208176405"><ele>540.5</ele><time>2026-04-26T09:33:00.999Z</time></trkpt><trkpt lat="45.79672109476683" lon="9.994612393459015"><ele>537.0</ele><time>2026-04-26T09:33:01.999Z</time></trkpt><trkpt lat="45.79674861694968" lon="9.994793926794092"><ele>537.0</ele><time>2026-04-26T09:33:02.999Z</time></trkpt><trkpt lat="45.79676864111908" lon="9.994973532321366"><ele>537.0</ele><time>2026-04-26T09:33:03.999Z</time></trkpt><trkpt lat="45.79679424324876" lon="9.995128013528474"><ele>537.0</ele><time>2026-04-26T09:33:04.999Z</time></trkpt><trkpt lat="45.7968146883489" lon="9.99524467485019"><ele>537.0</ele><time>2026-04-26T09:33:05.999Z</time></trkpt><trkpt lat="45.79684572845945" lon="9.995340504532285"><ele>537.0</ele><time>2026-04-26T09:33:06.999Z</time></trkpt><trkpt lat="45.79691684980211" lon="9.995396422878414"><ele>540.25</ele><time>2026-04-26T09:33:07.999Z</time></trkpt><trkpt lat="45.79702095626541" lon="9.995390970078267"><ele>543.5</ele><time>2026-04-26T09:33:08.999Z</time></trkpt><trkpt lat="45.7971353027399" lon="9.995359345136478"><ele>546.75</ele><time>2026-04-26T09:33:09.999Z</time></trkpt><trkpt lat="45.79724735594879" lon="9.995283789851275"><ele>550.0</ele><time>2026-04-26T09:33:10.999Z</time></trkpt><trkpt lat="45.79735615128592" lon="9.995246647070815"><ele>550.0</ele><time>2026-04-26T09:33:11.999Z</time></trkpt><trkpt lat="45.7974282440865" lon="9.995243763874726"><ele>550.0</ele><time>2026-04-26T09:33:12.999Z</time></trkpt><trkpt lat="45.797490588784704" lon="9.995347553607564"><ele>550.0</ele><time>2026-04-26T09:33:14.999Z</time></trkpt><trkpt lat="45.797398493306694" lon="9.995500875523799"><ele>550.0</ele><time>2026-04-26T09:33:16.999Z</time></trkpt><trkpt lat="45.797332123007585" lon="9.995629334170458"><ele>550.0</ele><time>2026-04-26T09:33:17.999Z</time></trkpt><trkpt lat="45.797243779660484" lon="9.995750005444686"><ele>550.6</ele><time>2026-04-26T09:33:18.999Z</time></trkpt><trkpt lat="45.79715738498716" lon="9.995867366333485"><ele>551.2</ele><time>2026-04-26T09:33:19.999Z</time></trkpt><trkpt lat="45.7970659298641" lon="9.99594480171965"><ele>551.8</ele><time>2026-04-26T09:33:20.999Z</time></trkpt><trkpt lat="45.79698497892672" lon="9.995976037293769"><ele>552.4</ele><time>2026-04-26T09:33:21.999Z</time></trkpt><trkpt lat="45.79691091688183" lon="9.996027694565507"><ele>553.0</ele><time>2026-04-26T09:33:22.999Z</time></trkpt><trkpt lat="45.79686811446996" lon="9.9961086257033"><ele>553.0</ele><time>2026-04-26T09:33:23.999Z</time></trkpt><trkpt lat="45.79684549996972" lon="9.996210599632972"><ele>553.0</ele><time>2026-04-26T09:33:24.999Z</time></trkpt><trkpt lat="45.7968624404679" lon="9.996348212417933"><ele>553.0</ele><time>2026-04-26T09:33:26.999Z</time></trkpt><trkpt lat="45.796963570681875" lon="9.996322987914432"><ele>553.0</ele><time>2026-04-26T09:33:30.999Z</time></trkpt><trkpt lat="45.797047489907115" lon="9.996214328092355"><ele>553.0</ele><time>2026-04-26T09:33:32.999Z</time></trkpt><trkpt lat="45.797181193501366" lon="9.996142475044191"><ele>553.0</ele><time>2026-04-26T09:33:34.999Z</time></trkpt><trkpt lat="45.797261805755866" lon="9.996131115378802"><ele>553.0</ele><time>2026-04-26T09:33:35.999Z</time></trkpt><trkpt lat="45.79733457258205" lon="9.996101817229466"><ele>553.0</ele><time>2026-04-26T09:33:36.999Z</time></trkpt><trkpt lat="45.79740954149825" lon="9.996046708459447"><ele>553.0</ele><time>2026-04-26T09:33:37.999Z</time></trkpt><trkpt lat="45.79748178296217" lon="9.995987851206158"><ele>553.0</ele><time>2026-04-26T09:33:38.999Z</time></trkpt><trkpt lat="45.79756244555289" lon="9.995938488372888"><ele>553.0</ele><time>2026-04-26T09:33:39.999Z</time></trkpt><trkpt lat="45.797636742022284" lon="9.995912435140948"><ele>557.4</ele><time>2026-04-26T09:33:40.999Z</time></trkpt><trkpt lat="45.79769680019884" lon="9.995883418478988"><ele>561.8</ele><time>2026-04-26T09:33:41.999Z</time></trkpt><trkpt lat="45.79779541880048" lon="9.995829850946508"><ele>566.2</ele><time>2026-04-26T09:33:43.999Z</time></trkpt><trkpt lat="45.79790668747174" lon="9.995719468799164"><ele>570.6</ele><time>2026-04-26T09:33:45.999Z</time></trkpt><trkpt lat="45.79795556785096" lon="9.99566029999976"><ele>575.0</ele><time>2026-04-26T09:33:46.999Z</time></trkpt><trkpt lat="45.79802350438512" lon="9.995592794608871"><ele>575.5</ele><time>2026-04-26T09:33:47.999Z</time></trkpt><trkpt lat="45.79809024804251" lon="9.99551245735225"><ele>576.0</ele><time>2026-04-26T09:33:48.999Z</time></trkpt><trkpt lat="45.79814062969183" lon="9.995435668452462"><ele>576.5</ele><time>2026-04-26T09:33:49.999Z</time></trkpt><trkpt lat="45.79822274751466" lon="9.995390392057088"><ele>577.0</ele><time>2026-04-26T09:33:51.999Z</time></trkpt><trkpt lat="45.79829906001108" lon="9.995386022632376"><ele>577.5</ele><time>2026-04-26T09:33:52.999Z</time></trkpt><trkpt lat="45.79838887115965" lon="9.99536542257499"><ele>578.0</ele><time>2026-04-26T09:33:53.999Z</time></trkpt><trkpt lat="45.79848320878492" lon="9.995292097804155"><ele>584.3333333333333</ele><time>2026-04-26T09:33:54.999Z</time></trkpt><trkpt lat="45.798557078929605" lon="9.995179920957304"><ele>590.6666666666666</ele><time>2026-04-26T09:33:56.999Z</time></trkpt><trkpt lat="45.7985496231898" lon="9.995088064781003"><ele>597.0</ele><time>2026-04-26T09:33:57.999Z</time></trkpt><trkpt lat="45.79861540909329" lon="9.9950776669215"><ele>603.3333333333334</ele><time>2026-04-26T09:34:01.998Z</time></trkpt><trkpt lat="45.79863573613462" lon="9.995224921418014"><ele>609.6666666666667</ele><time>2026-04-26T09:34:02.998Z</time></trkpt><trkpt lat="45.798657067145875" lon="9.995371704795062"><ele>616.0</ele><time>2026-04-26T09:34:03.998Z</time></trkpt><trkpt lat="45.79865461683128" lon="9.995506271537414"><ele>616.0</ele><time>2026-04-26T09:34:04.998Z</time></trkpt><trkpt lat="45.79863331179679" lon="9.995629591756991"><ele>616.0</ele><time>2026-04-26T09:34:05.998Z</time></trkpt><trkpt lat="45.79862991886287" lon="9.995741024291684"><ele>616.0</ele><time>2026-04-26T09:34:06.998Z</time></trkpt><trkpt lat="45.79862021024418" lon="9.995877998498457"><ele>616.0</ele><time>2026-04-26T09:34:08.998Z</time></trkpt><trkpt lat="45.79866354902778" lon="9.995955028548776"><ele>616.0</ele><time>2026-04-26T09:34:09.998Z</time></trkpt><trkpt lat="45.79871711546334" lon="9.996048185570762"><ele>616.0</ele><time>2026-04-26T09:34:10.998Z</time></trkpt><trkpt lat="45.79879724164553" lon="9.996140146300913"><ele>615.0</ele><time>2026-04-26T09:34:11.998Z</time></trkpt><trkpt lat="45.798853741660466" lon="9.996256179710254"><ele>614.0</ele><time>2026-04-26T09:34:12.998Z</time></trkpt><trkpt lat="45.79892837274758" lon="9.996354938937106"><ele>613.0</ele><time>2026-04-26T09:34:13.998Z</time></trkpt><trkpt lat="45.798957870809545" lon="9.99651698420812"><ele>612.0</ele><time>2026-04-26T09:34:14.998Z</time></trkpt><trkpt lat="45.79897184272959" lon="9.996643543101776"><ele>611.0</ele><time>2026-04-26T09:34:15.998Z</time></trkpt><trkpt lat="45.79899010019426" lon="9.996815430984116"><ele>611.0</ele><time>2026-04-26T09:34:16.998Z</time></trkpt><trkpt lat="45.79901131700464" lon="9.996959231622805"><ele>611.0</ele><time>2026-04-26T09:34:17.998Z</time></trkpt><trkpt lat="45.79903529551746" lon="9.997106283765778"><ele>611.0</ele><time>2026-04-26T09:34:19Z</time></trkpt><trkpt lat="45.79904895854998" lon="9.997221501302418"><ele>611.0</ele><time>2026-04-26T09:34:20Z</time></trkpt><trkpt lat="45.799061894337626" lon="9.997408367525871"><ele>611.0</ele><time>2026-04-26T09:34:22Z</time></trkpt><trkpt lat="45.79907773346227" lon="9.997532081199322"><ele>611.0</ele><time>2026-04-26T09:34:23Z</time></trkpt><trkpt lat="45.799120611321044" lon="9.997671028801129"><ele>611.0</ele><time>2026-04-26T09:34:24Z</time></trkpt><trkpt lat="45.79917523319973" lon="9.997829504861189"><ele>611.0</ele><time>2026-04-26T09:34:25Z</time></trkpt><trkpt lat="45.799201502892586" lon="9.997965931199124"><ele>611.0</ele><time>2026-04-26T09:34:26Z</time></trkpt><trkpt lat="45.7992408254395" lon="9.99808496331197"><ele>611.0</ele><time>2026-04-26T09:34:27Z</time></trkpt><trkpt lat="45.79926810599733" lon="9.998200392534885"><ele>610.6666666666666</ele><time>2026-04-26T09:34:28Z</time></trkpt><trkpt lat="45.79931451879428" lon="9.998344680160193"><ele>610.3333333333333</ele><time>2026-04-26T09:34:29Z</time></trkpt><trkpt lat="45.799331104988575" lon="9.998480475720923"><ele>610.0</ele><time>2026-04-26T09:34:30Z</time></trkpt><trkpt lat="45.79934239850901" lon="9.998581378423035"><ele>609.6666666666666</ele><time>2026-04-26T09:34:31Z</time></trkpt><trkpt lat="45.79936296561228" lon="9.99868940809411"><ele>609.3333333333334</ele><time>2026-04-26T09:34:32Z</time></trkpt><trkpt lat="45.79940471066577" lon="9.998805626685117"><ele>609.0</ele><time>2026-04-26T09:34:33Z</time></trkpt><trkpt lat="45.79947006287606" lon="9.998931682651321"><ele>612.75</ele><time>2026-04-26T09:34:34Z</time></trkpt><trkpt lat="45.799542545325934" lon="9.999064224916175"><ele>616.5</ele><time>2026-04-26T09:34:35Z</time></trkpt><trkpt lat="45.79962388016531" lon="9.999195357689546"><ele>620.25</ele><time>2026-04-26T09:34:36Z</time></trkpt><trkpt lat="45.79969594662063" lon="9.999311204464913"><ele>624.0</ele><time>2026-04-26T09:34:37Z</time></trkpt><trkpt lat="45.79976444468463" lon="9.999420524949814"><ele>624.0</ele><time>2026-04-26T09:34:38Z</time></trkpt><trkpt lat="45.79983172700616" lon="9.999534155905737"><ele>624.0</ele><time>2026-04-26T09:34:39Z</time></trkpt><trkpt lat="45.79988909867629" lon="9.999632152407358"><ele>624.0</ele><time>2026-04-26T09:34:40Z</time></trkpt><trkpt lat="45.79995926208344" lon="9.999706623051583"><ele>624.0</ele><time>2026-04-26T09:34:41Z</time></trkpt><trkpt lat="45.80003996877453" lon="9.999783213979242"><ele>624.0</ele><time>2026-04-26T09:34:42Z</time></trkpt><trkpt lat="45.80012929060125" lon="9.999861006491361"><ele>632.4</ele><time>2026-04-26T09:34:43Z</time></trkpt><trkpt lat="45.800204861152125" lon="9.999936153989923"><ele>640.8</ele><time>2026-04-26T09:34:44Z</time></trkpt><trkpt lat="45.80027307016202" lon="10.000040882037595"><ele>649.1999999999999</ele><time>2026-04-26T09:34:46Z</time></trkpt><trkpt lat="45.80033706231492" lon="9.999996635116448"><ele>657.5999999999999</ele><time>2026-04-26T09:34:48Z</time></trkpt><trkpt lat="45.800254001357736" lon="9.999852456231917"><ele>666.0</ele><time>2026-04-26T09:34:51Z</time></trkpt><trkpt lat="45.800213066553056" lon="9.999727587621608"><ele>666.0</ele><time>2026-04-26T09:34:52Z</time></trkpt><trkpt lat="45.800182108846116" lon="9.999596055205837"><ele>666.0</ele><time>2026-04-26T09:34:53Z</time></trkpt><trkpt lat="45.80016053430369" lon="9.999460932941428"><ele>666.0</ele><time>2026-04-26T09:34:54Z</time></trkpt><trkpt lat="45.800157507694024" lon="9.999262164481326"><ele>666.0</ele><time>2026-04-26T09:34:56Z</time></trkpt><trkpt lat="45.800183837601715" lon="9.99912434709847"><ele>666.0</ele><time>2026-04-26T09:34:57Z</time></trkpt><trkpt lat="45.80021629624683" lon="9.998978350061023"><ele>669.8333333333334</ele><time>2026-04-26T09:34:58Z</time></trkpt><trkpt lat="45.80022805250326" lon="9.998852373210635"><ele>673.6666666666666</ele><time>2026-04-26T09:34:59Z</time></trkpt><trkpt lat="45.80021800512169" lon="9.998726900793018"><ele>677.5</ele><time>2026-04-26T09:35:00Z</time></trkpt><trkpt lat="45.80020667892173" lon="9.998595685450823"><ele>681.3333333333333</ele><time>2026-04-26T09:35:01Z</time></trkpt><trkpt lat="45.80018986868813" lon="9.998476987672756"><ele>685.1666666666666</ele><time>2026-04-26T09:35:02Z</time></trkpt><trkpt lat="45.800190163690985" lon="9.998368252543044"><ele>689.0</ele><time>2026-04-26T09:35:03Z</time></trkpt><trkpt lat="45.80019268130206" lon="9.998246477257739"><ele>692.0</ele><time>2026-04-26T09:35:03.999Z</time></trkpt><trkpt lat="45.80018396523619" lon="9.998139304718693"><ele>695.0</ele><time>2026-04-26T09:35:04.999Z</time></trkpt><trkpt lat="45.800196423168835" lon="9.997963917363105"><ele>698.0</ele><time>2026-04-26T09:35:06.999Z</time></trkpt><trkpt lat="45.8002276536302" lon="9.997883149832965"><ele>701.0</ele><time>2026-04-26T09:35:07.999Z</time></trkpt><trkpt lat="45.800244624141776" lon="9.997776386555886"><ele>704.0</ele><time>2026-04-26T09:35:08.999Z</time></trkpt><trkpt lat="45.80026681899634" lon="9.99765218990054"><ele>707.0</ele><time>2026-04-26T09:35:09.999Z</time></trkpt><trkpt lat="45.80030334769393" lon="9.997570788069027"><ele>708.5</ele><time>2026-04-26T09:35:10.999Z</time></trkpt><trkpt lat="45.80031723829085" lon="9.997479278841736"><ele>710.0</ele><time>2026-04-26T09:35:11.999Z</time></trkpt><trkpt lat="45.80031150987751" lon="9.997353201628808"><ele>711.5</ele><time>2026-04-26T09:35:12.999Z</time></trkpt><trkpt lat="45.80030321393021" lon="9.997204525717144"><ele>713.0</ele><time>2026-04-26T09:35:13.999Z</time></trkpt><trkpt lat="45.80030366097601" lon="9.997084489347497"><ele>714.5</ele><time>2026-04-26T09:35:14.999Z</time></trkpt><trkpt lat="45.80031380258549" lon="9.996947618728742"><ele>716.0</ele><time>2026-04-26T09:35:15.999Z</time></trkpt><trkpt lat="45.800310643532846" lon="9.996798986128017"><ele>718.0</ele><time>2026-04-26T09:35:16.999Z</time></trkpt><trkpt lat="45.800304877044866" lon="9.996663685699096"><ele>720.0</ele><time>2026-04-26T09:35:17.999Z</time></trkpt><trkpt lat="45.80028550920122" lon="9.9965388584707"><ele>722.0</ele><time>2026-04-26T09:35:18.999Z</time></trkpt><trkpt lat="45.80028496373116" lon="9.99642074826458"><ele>724.0</ele><time>2026-04-26T09:35:19.999Z</time></trkpt><trkpt lat="45.80027180220853" lon="9.99631300851204"><ele>726.0</ele><time>2026-04-26T09:35:20.999Z</time></trkpt><trkpt lat="45.8002863549838" lon="9.996219452290877"><ele>728.0</ele><time>2026-04-26T09:35:21.999Z</time></trkpt><trkpt lat="45.80030881977992" lon="9.996130980512588"><ele>728.0</ele><time>2026-04-26T09:35:22.999Z</time></trkpt><trkpt lat="45.80031188366097" lon="9.996032967948954"><ele>728.0</ele><time>2026-04-26T09:35:23.999Z</time></trkpt><trkpt lat="45.80030653100442" lon="9.995930026271381"><ele>728.0</ele><time>2026-04-26T09:35:24.999Z</time></trkpt><trkpt lat="45.800302767698525" lon="9.995829145099336"><ele>728.0</ele><time>2026-04-26T09:35:25.999Z</time></trkpt><trkpt lat="45.800319318548944" lon="9.99566107743347"><ele>728.0</ele><time>2026-04-26T09:35:27.999Z</time></trkpt><trkpt lat="45.800328109164525" lon="9.995478688355766"><ele>727.7142857142857</ele><time>2026-04-26T09:35:29.999Z</time></trkpt><trkpt lat="45.8003371268577" lon="9.995379385669052"><ele>727.4285714285714</ele><time>2026-04-26T09:35:30.999Z</time></trkpt><trkpt lat="45.800354318814016" lon="9.99527981205625"><ele>727.1428571428571</ele><time>2026-04-26T09:35:31.999Z</time></trkpt><trkpt lat="45.80037150842893" lon="9.995176157472232"><ele>726.8571428571429</ele><time>2026-04-26T09:35:32.999Z</time></trkpt><trkpt lat="45.800382322071" lon="9.995072757790947"><ele>726.5714285714286</ele><time>2026-04-26T09:35:33.999Z</time></trkpt><trkpt lat="45.80038825019025" lon="9.99496489000699"><ele>726.2857142857142</ele><time>2026-04-26T09:35:34.999Z</time></trkpt><trkpt lat="45.80039104796188" lon="9.99486582132935"><ele>726.0</ele><time>2026-04-26T09:35:35.999Z</time></trkpt><trkpt lat="45.80043913621033" lon="9.994701964712428"><ele>726.0</ele><time>2026-04-26T09:35:37.999Z</time></trkpt><trkpt lat="45.80048969192388" lon="9.994624569042921"><ele>726.0</ele><time>2026-04-26T09:35:38.999Z</time></trkpt><trkpt lat="45.80055242822691" lon="9.994543556458803"><ele>726.0</ele><time>2026-04-26T09:35:39.999Z</time></trkpt><trkpt lat="45.800622504249894" lon="9.994460099047199"><ele>726.0</ele><time>2026-04-26T09:35:40.999Z</time></trkpt><trkpt lat="45.80070056276283" lon="9.994384334349864"><ele>726.0</ele><time>2026-04-26T09:35:41.999Z</time></trkpt><trkpt lat="45.80078505614569" lon="9.99429192766685"><ele>726.0</ele><time>2026-04-26T09:35:42.999Z</time></trkpt><trkpt lat="45.80085337718889" lon="9.994213503763786"><ele>726.0</ele><time>2026-04-26T09:35:43.999Z</time></trkpt><trkpt lat="45.80091724411288" lon="9.994130458018855"><ele>726.0</ele><time>2026-04-26T09:35:44.999Z</time></trkpt><trkpt lat="45.80097479389697" lon="9.994057922064513"><ele>726.0</ele><time>2026-04-26T09:35:45.999Z</time></trkpt><trkpt lat="45.80105145402052" lon="9.994012288087406"><ele>726.0</ele><time>2026-04-26T09:35:46.999Z</time></trkpt><trkpt lat="45.80112396790767" lon="9.993984475859667"><ele>726.0</ele><time>2026-04-26T09:35:47.999Z</time></trkpt><trkpt lat="45.801202393885845" lon="9.993980035377172"><ele>729.1666666666666</ele><time>2026-04-26T09:35:48.999Z</time></trkpt><trkpt lat="45.80128732471503" lon="9.99397543432509"><ele>732.3333333333334</ele><time>2026-04-26T09:35:49.999Z</time></trkpt><trkpt lat="45.80137604086965" lon="9.993962784773656"><ele>735.5</ele><time>2026-04-26T09:35:50.999Z</time></trkpt><trkpt lat="45.801456532905476" lon="9.99394700788142"><ele>738.6666666666667</ele><time>2026-04-26T09:35:51.999Z</time></trkpt><trkpt lat="45.80152719194348" lon="9.993909404364686"><ele>741.8333333333334</ele><time>2026-04-26T09:35:52.999Z</time></trkpt><trkpt lat="45.80159632332295" lon="9.993861377335953"><ele>745.0</ele><time>2026-04-26T09:35:53.999Z</time></trkpt><trkpt lat="45.80168394532969" lon="9.99385035220832"><ele>745.0</ele><time>2026-04-26T09:35:55.999Z</time></trkpt><trkpt lat="45.80178102842786" lon="9.993929311737876"><ele>745.0</ele><time>2026-04-26T09:35:57.999Z</time></trkpt><trkpt lat="45.80185532484695" lon="9.993959574364235"><ele>745.0</ele><time>2026-04-26T09:35:58.999Z</time></trkpt><trkpt lat="45.80191776399398" lon="9.993985967516887"><ele>745.0</ele><time>2026-04-26T09:35:59.999Z</time></trkpt><trkpt lat="45.801982635608425" lon="9.993995385800604"><ele>745.0</ele><time>2026-04-26T09:36:01.999Z</time></trkpt><trkpt lat="45.80206098603588" lon="9.993977393832235"><ele>745.0</ele><time>2026-04-26T09:36:10.998Z</time></trkpt><trkpt lat="45.80211769465186" lon="9.993881835100707"><ele>751.3333333333334</ele><time>2026-04-26T09:36:12.998Z</time></trkpt><trkpt lat="45.802127102350674" lon="9.993748908759775"><ele>757.6666666666667</ele><time>2026-04-26T09:36:14.998Z</time></trkpt><trkpt lat="45.80216207619901" lon="9.993654454644624"><ele>764.0</ele><time>2026-04-26T09:36:20.998Z</time></trkpt><trkpt lat="45.802226142716464" lon="9.993611023581325"><ele>770.3333333333334</ele><time>2026-04-26T09:36:23.998Z</time></trkpt><trkpt lat="45.80230474180832" lon="9.993553830754568"><ele>776.6666666666666</ele><time>2026-04-26T09:36:26Z</time></trkpt><trkpt lat="45.80238388839759" lon="9.993452600031427"><ele>783.0</ele><time>2026-04-26T09:36:28Z</time></trkpt><trkpt lat="45.802469126045" lon="9.993422366612206"><ele>783.0</ele><time>2026-04-26T09:36:30Z</time></trkpt><trkpt lat="45.80258067154619" lon="9.993381068562027"><ele>783.0</ele><time>2026-04-26T09:36:32Z</time></trkpt><trkpt lat="45.802638028619654" lon="9.993300727388226"><ele>783.0</ele><time>2026-04-26T09:36:34Z</time></trkpt><trkpt lat="45.80266197883568" lon="9.993200289463124"><ele>783.0</ele><time>2026-04-26T09:36:36Z</time></trkpt><trkpt lat="45.802756125510776" lon="9.993125702255927"><ele>783.0</ele><time>2026-04-26T09:36:39Z</time></trkpt><trkpt lat="45.80282552320535" lon="9.993046494967409"><ele>786.5999999999999</ele><time>2026-04-26T09:36:41Z</time></trkpt><trkpt lat="45.802897924462926" lon="9.993015861893777"><ele>790.1999999999999</ele><time>2026-04-26T09:36:44Z</time></trkpt><trkpt lat="45.80295483921332" lon="9.992941678929743"><ele>793.8</ele><time>2026-04-26T09:36:46Z</time></trkpt><trkpt lat="45.8030994499124" lon="9.99276365648925"><ele>797.4</ele><time>2026-04-26T09:36:49Z</time></trkpt><trkpt lat="45.80319090981268" lon="9.992724628683908"><ele>801.0</ele><time>2026-04-26T09:36:51Z</time></trkpt><trkpt lat="45.803289726256175" lon="9.992726859654363"><ele>801.0</ele><time>2026-04-26T09:36:53Z</time></trkpt><trkpt lat="45.803393651956846" lon="9.992770496807807"><ele>801.0</ele><time>2026-04-26T09:36:55Z</time></trkpt><trkpt lat="45.803509825058974" lon="9.99283219877767"><ele>801.0</ele><time>2026-04-26T09:36:57Z</time></trkpt><trkpt lat="45.80358979676125" lon="9.992815775642114"><ele>801.0</ele><time>2026-04-26T09:36:59Z</time></trkpt><trkpt lat="45.80359415737398" lon="9.992712091760433"><ele>801.0</ele><time>2026-04-26T09:37:02Z</time></trkpt><trkpt lat="45.80367004828912" lon="9.992629586226975"><ele>805.4</ele><time>2026-04-26T09:37:04.999Z</time></trkpt><trkpt lat="45.803743326335585" lon="9.99254275211362"><ele>809.8</ele><time>2026-04-26T09:37:06.999Z</time></trkpt><trkpt lat="45.80380105411332" lon="9.992464840027855"><ele>814.1999999999999</ele><time>2026-04-26T09:37:08.999Z</time></trkpt><trkpt lat="45.803879050085406" lon="9.992414490531852"><ele>818.5999999999999</ele><time>2026-04-26T09:37:11.999Z</time></trkpt><trkpt lat="45.80391845582906" lon="9.992304056575268"><ele>823.0</ele><time>2026-04-26T09:37:13.999Z</time></trkpt><trkpt lat="45.80397609538949" lon="9.992177019250933"><ele>823.0</ele><time>2026-04-26T09:37:16.999Z</time></trkpt><trkpt lat="45.80399210834016" lon="9.992087610720688"><ele>823.0</ele><time>2026-04-26T09:37:18.999Z</time></trkpt><trkpt lat="45.80407725062578" lon="9.991886934945889"><ele>823.0</ele><time>2026-04-26T09:37:20.999Z</time></trkpt><trkpt lat="45.804134483990104" lon="9.991829572762002"><ele>823.0</ele><time>2026-04-26T09:37:22.999Z</time></trkpt><trkpt lat="45.80417424003054" lon="9.991713404383756"><ele>823.0</ele><time>2026-04-26T09:37:25.999Z</time></trkpt><trkpt lat="45.804258806627885" lon="9.991679233863685"><ele>831.0</ele><time>2026-04-26T09:37:27.999Z</time></trkpt><trkpt lat="45.80435099292486" lon="9.991644841523385"><ele>839.0</ele><time>2026-04-26T09:37:29.999Z</time></trkpt><trkpt lat="45.80443622310835" lon="9.991667955981258"><ele>847.0</ele><time>2026-04-26T09:37:31.999Z</time></trkpt><trkpt lat="45.80442208882713" lon="9.991532487974554"><ele>855.0</ele><time>2026-04-26T09:37:41.999Z</time></trkpt><trkpt lat="45.804472012844414" lon="9.991390393489604"><ele>863.0</ele><time>2026-04-26T09:37:43.999Z</time></trkpt><trkpt lat="45.80450720839776" lon="9.991313404131581"><ele>863.0000000000001</ele><time>2026-04-26T09:37:44.999Z</time></trkpt><trkpt lat="45.80451084107643" lon="9.991175574300971"><ele>863.0</ele><time>2026-04-26T09:37:46.999Z</time></trkpt><trkpt lat="45.8044833248588" lon="9.991048141557634"><ele>863.0</ele><time>2026-04-26T09:37:48.999Z</time></trkpt><trkpt lat="45.80453089948583" lon="9.9909624863401"><ele>863.0</ele><time>2026-04-26T09:37:50.999Z</time></trkpt><trkpt lat="45.80450607453639" lon="9.990865563148597"><ele>863.0000000000001</ele><time>2026-04-26T09:37:52.999Z</time></trkpt><trkpt lat="45.80452374993902" lon="9.990776449785434"><ele>863.0</ele><time>2026-04-26T09:37:54.999Z</time></trkpt><trkpt lat="45.804582228211544" lon="9.990698573502936"><ele>861.5000000000001</ele><time>2026-04-26T09:37:56.999Z</time></trkpt><trkpt lat="45.80466722469501" lon="9.990610590468174"><ele>860.0</ele><time>2026-04-26T09:37:58.999Z</time></trkpt><trkpt lat="45.804720892830254" lon="9.990508060987347"><ele>858.5</ele><time>2026-04-26T09:38:00.999Z</time></trkpt><trkpt lat="45.80478607154465" lon="9.990499576970642"><ele>857.0</ele><time>2026-04-26T09:38:02.999Z</time></trkpt><trkpt lat="45.80488571851466" lon="9.99046978368807"><ele>855.5000000000001</ele><time>2026-04-26T09:38:04.999Z</time></trkpt><trkpt lat="45.8049354520207" lon="9.990406533954172"><ele>854.0</ele><time>2026-04-26T09:38:08.999Z</time></trkpt><trkpt lat="45.80500040524081" lon="9.990327026118168"><ele>854.0</ele><time>2026-04-26T09:38:13.998Z</time></trkpt><trkpt lat="45.80502258401151" lon="9.99021144491738"><ele>854.0000000000001</ele><time>2026-04-26T09:38:17.998Z</time></trkpt><trkpt lat="45.80500395989227" lon="9.99011039039905"><ele>854.0000000000001</ele><time>2026-04-26T09:38:27.998Z</time></trkpt><trkpt lat="45.80505341270178" lon="9.990035479200118"><ele>854.0</ele><time>2026-04-26T09:38:31Z</time></trkpt><trkpt lat="45.80515489339094" lon="9.989918140129792"><ele>854.0</ele><time>2026-04-26T09:38:34Z</time></trkpt><trkpt lat="45.80531197252957" lon="9.989766085439731"><ele>864.4000000000001</ele><time>2026-04-26T09:38:37Z</time></trkpt><trkpt lat="45.80540288211405" lon="9.98968899019856"><ele>874.8000000000001</ele><time>2026-04-26T09:38:41Z</time></trkpt><trkpt lat="45.80549144836739" lon="9.989598801460351"><ele>885.1999999999999</ele><time>2026-04-26T09:38:43Z</time></trkpt><trkpt lat="45.8055956811084" lon="9.9895054230546"><ele>895.5999999999999</ele><time>2026-04-26T09:38:45Z</time></trkpt><trkpt lat="45.80568177077554" lon="9.989453993894768"><ele>906.0</ele><time>2026-04-26T09:38:47Z</time></trkpt><trkpt lat="45.80576394965515" lon="9.989437328853505"><ele>906.0</ele><time>2026-04-26T09:38:50Z</time></trkpt><trkpt lat="45.8057719439114" lon="9.989318045957788"><ele>905.9999999999999</ele><time>2026-04-26T09:38:52Z</time></trkpt><trkpt lat="45.80567097079821" lon="9.989195988889165"><ele>905.9999999999999</ele><time>2026-04-26T09:38:55Z</time></trkpt><trkpt lat="45.805717996371044" lon="9.989079708830953"><ele>906.0</ele><time>2026-04-26T09:38:58Z</time></trkpt><trkpt lat="45.805766439705934" lon="9.988943545115143"><ele>906.0</ele><time>2026-04-26T09:39:01Z</time></trkpt><trkpt lat="45.80589204399651" lon="9.988735487386407"><ele>904.5</ele><time>2026-04-26T09:39:02Z</time></trkpt><trkpt lat="45.80593436597611" lon="9.98863918635185"><ele>903.0</ele><time>2026-04-26T09:39:03Z</time></trkpt><trkpt lat="45.80596790588778" lon="9.988555681790837"><ele>901.5</ele><time>2026-04-26T09:39:04Z</time></trkpt><trkpt lat="45.806025855307" lon="9.988454862703103"><ele>900.0</ele><time>2026-04-26T09:39:06Z</time></trkpt><trkpt lat="45.80611063793616" lon="9.988387128301008"><ele>898.5</ele><time>2026-04-26T09:39:08Z</time></trkpt><trkpt lat="45.80617848369824" lon="9.988298021061038"><ele>897.0</ele><time>2026-04-26T09:39:10Z</time></trkpt><trkpt lat="45.80619373659149" lon="9.988183541508704"><ele>905.6</ele><time>2026-04-26T09:39:12Z</time></trkpt><trkpt lat="45.806243758899576" lon="9.988053594412353"><ele>914.2</ele><time>2026-04-26T09:39:13.999Z</time></trkpt><trkpt lat="45.80628469124636" lon="9.987936138967111"><ele>922.8</ele><time>2026-04-26T09:39:15.999Z</time></trkpt><trkpt lat="45.80635124582139" lon="9.98788814667276"><ele>931.4</ele><time>2026-04-26T09:39:19.999Z</time></trkpt><trkpt lat="45.8064168357704" lon="9.9878283527103"><ele>940.0</ele><time>2026-04-26T09:39:21.999Z</time></trkpt><trkpt lat="45.806504194775194" lon="9.987707153537203"><ele>939.9999999999999</ele><time>2026-04-26T09:39:23.999Z</time></trkpt><trkpt lat="45.806536245857146" lon="9.987591816931143"><ele>940.0</ele><time>2026-04-26T09:39:25.999Z</time></trkpt><trkpt lat="45.806482218090665" lon="9.9875014957532"><ele>940.0</ele><time>2026-04-26T09:39:27.999Z</time></trkpt><trkpt lat="45.80648277325432" lon="9.98737933628961"><ele>940.0</ele><time>2026-04-26T09:39:30.999Z</time></trkpt><trkpt lat="45.80650219379884" lon="9.987246144979046"><ele>939.9999999999999</ele><time>2026-04-26T09:39:34.999Z</time></trkpt><trkpt lat="45.80655717569719" lon="9.987135936175465"><ele>940.0</ele><time>2026-04-26T09:39:36.999Z</time></trkpt><trkpt lat="45.80663515909701" lon="9.987099956488164"><ele>936.2</ele><time>2026-04-26T09:39:38.999Z</time></trkpt><trkpt lat="45.80669839821901" lon="9.98699030320868"><ele>932.4</ele><time>2026-04-26T09:39:40.999Z</time></trkpt><trkpt lat="45.80674407394436" lon="9.9868399465177"><ele>928.5999999999999</ele><time>2026-04-26T09:39:42.999Z</time></trkpt><trkpt lat="45.80679041997746" lon="9.986765696654903"><ele>924.8</ele><time>2026-04-26T09:39:43.999Z</time></trkpt><trkpt lat="45.8067102063884" lon="9.986768418727804"><ele>921.0</ele><time>2026-04-26T09:39:48.999Z</time></trkpt><trkpt lat="45.806714827547204" lon="9.986641519539571"><ele>921.0</ele><time>2026-04-26T09:39:53.999Z</time></trkpt><trkpt lat="45.80671851119598" lon="9.98652549022768"><ele>921.0</ele><time>2026-04-26T09:39:57.999Z</time></trkpt><trkpt lat="45.80676125857099" lon="9.986436643827478"><ele>921.0</ele><time>2026-04-26T09:39:59.999Z</time></trkpt><trkpt lat="45.80681597422333" lon="9.986376932732316"><ele>921.0</ele><time>2026-04-26T09:40:04.999Z</time></trkpt><trkpt lat="45.80688244361776" lon="9.986286649604052"><ele>921.0</ele><time>2026-04-26T09:40:06.999Z</time></trkpt><trkpt lat="45.80697749492495" lon="9.986183754407044"><ele>921.0</ele><time>2026-04-26T09:40:07.999Z</time></trkpt><trkpt lat="45.8070593921041" lon="9.986133102992197"><ele>928.1666666666666</ele><time>2026-04-26T09:40:08.999Z</time></trkpt><trkpt lat="45.80715155107064" lon="9.986048829710612"><ele>935.3333333333333</ele><time>2026-04-26T09:40:10.999Z</time></trkpt><trkpt lat="45.807159767898575" lon="9.985915039915385"><ele>942.5</ele><time>2026-04-26T09:40:24.998Z</time></trkpt><trkpt lat="45.80715890935168" lon="9.985805746501939"><ele>949.6666666666666</ele><time>2026-04-26T09:40:26.998Z</time></trkpt><trkpt lat="45.80717327482632" lon="9.985695061510896"><ele>956.8333333333333</ele><time>2026-04-26T09:40:28.998Z</time></trkpt><trkpt lat="45.80717345635839" lon="9.98558250824869"><ele>964.0</ele><time>2026-04-26T09:40:33.998Z</time></trkpt><trkpt lat="45.807188712750246" lon="9.98545206394129"><ele>964.0</ele><time>2026-04-26T09:40:35.998Z</time></trkpt><trkpt lat="45.80727159055544" lon="9.985418212020178"><ele>964.0000000000001</ele><time>2026-04-26T09:40:38Z</time></trkpt><trkpt lat="45.80733667643144" lon="9.985402954129432"><ele>964.0000000000001</ele><time>2026-04-26T09:40:39Z</time></trkpt><trkpt lat="45.80743894799493" lon="9.985376084434483"><ele>964.0</ele><time>2026-04-26T09:40:40Z</time></trkpt><trkpt lat="45.80731808697302" lon="9.98527214746637"><ele>964.0</ele><time>2026-04-26T09:40:41Z</time></trkpt><trkpt lat="45.80728233654755" lon="9.985131733897125"><ele>963.9999999999999</ele><time>2026-04-26T09:40:43Z</time></trkpt><trkpt lat="45.807246310591175" lon="9.985038303070338"><ele>964.0</ele><time>2026-04-26T09:40:46Z</time></trkpt><trkpt lat="45.807265132847284" lon="9.98494548262242"><ele>964.0</ele><time>2026-04-26T09:40:48Z</time></trkpt><trkpt lat="45.80731347786212" lon="9.984870631126446"><ele>964.0</ele><time>2026-04-26T09:40:53Z</time></trkpt><trkpt lat="45.80738392584644" lon="9.984832969261348"><ele>963.9999999999999</ele><time>2026-04-26T09:40:57Z</time></trkpt><trkpt lat="45.80741652302594" lon="9.984717839340327"><ele>964.0</ele><time>2026-04-26T09:41:01Z</time></trkpt><trkpt lat="45.807463661993836" lon="9.984622940885705"><ele>964.8000000000001</ele><time>2026-04-26T09:41:03Z</time></trkpt><trkpt lat="45.80751414189441" lon="9.984454230366108"><ele>965.6000000000001</ele><time>2026-04-26T09:41:07Z</time></trkpt><trkpt lat="45.807542745935784" lon="9.984373226740797"><ele>966.4</ele><time>2026-04-26T09:41:09Z</time></trkpt><trkpt lat="45.8075543127284" lon="9.984254110198407"><ele>967.2</ele><time>2026-04-26T09:41:12Z</time></trkpt><trkpt lat="45.807568465669405" lon="9.984142934063994"><ele>968.0</ele><time>2026-04-26T09:41:13Z</time></trkpt><trkpt lat="45.807657667796306" lon="9.984026939516292"><ele>975.1428571428571</ele><time>2026-04-26T09:41:15Z</time></trkpt><trkpt lat="45.80770486103357" lon="9.983913036164012"><ele>982.2857142857142</ele><time>2026-04-26T09:41:17Z</time></trkpt><trkpt lat="45.80775358653467" lon="9.983855508807093"><ele>989.4285714285713</ele><time>2026-04-26T09:41:19Z</time></trkpt><trkpt lat="45.80778772685024" lon="9.983768146018857"><ele>996.5714285714284</ele><time>2026-04-26T09:41:47.999Z</time></trkpt><trkpt lat="45.807816219910606" lon="9.98368572664057"><ele>1003.7142857142857</ele><time>2026-04-26T09:42:25.999Z</time></trkpt><trkpt lat="45.80783123559944" lon="9.983587730936277"><ele>1010.8571428571427</ele><time>2026-04-26T09:42:51Z</time></trkpt><trkpt lat="45.80779623039447" lon="9.983686552518956"><ele>1017.9999999999999</ele><time>2026-04-26T09:46:01.999Z</time></trkpt><trkpt lat="45.80775018280257" lon="9.983748661187352"><ele>1017.9999999999999</ele><time>2026-04-26T09:46:06.999Z</time></trkpt><trkpt lat="45.80771422486843" lon="9.983836888684584"><ele>1018.0</ele><time>2026-04-26T09:46:10.999Z</time></trkpt><trkpt lat="45.807677983411175" lon="9.983931241812762"><ele>1017.9999999999999</ele><time>2026-04-26T09:46:13.999Z</time></trkpt><trkpt lat="45.80764191749766" lon="9.9840103430572"><ele>1017.9999999999999</ele><time>2026-04-26T09:46:17.999Z</time></trkpt><trkpt lat="45.80759991741981" lon="9.984092790470722"><ele>1018.0</ele><time>2026-04-26T09:46:32.999Z</time></trkpt><trkpt lat="45.80766222540715" lon="9.984016624863782"><ele>1017.9999999999999</ele><time>2026-04-26T09:46:40.999Z</time></trkpt><trkpt lat="45.807718392709475" lon="9.983938012402817"><ele>1017.9999999999999</ele><time>2026-04-26T09:46:43.999Z</time></trkpt><trkpt lat="45.807748728562544" lon="9.983805882005603"><ele>1017.9999999999999</ele><time>2026-04-26T09:46:45.998Z</time></trkpt><trkpt lat="45.80781341336558" lon="9.983728921043092"><ele>1018.0</ele><time>2026-04-26T09:46:48.998Z</time></trkpt><trkpt lat="45.80781674284134" lon="9.983626429492864"><ele>1017.9999999999999</ele><time>2026-04-26T09:46:50.998Z</time></trkpt><trkpt lat="45.80782936800938" lon="9.983527169436622"><ele>1017.9999999999999</ele><time>2026-04-26T09:46:52.998Z</time></trkpt><trkpt lat="45.8078639408074" lon="9.98344932469233"><ele>1018.0</ele><time>2026-04-26T09:46:55Z</time></trkpt><trkpt lat="45.80790653460065" lon="9.983357516872426"><ele>1017.9999999999999</ele><time>2026-04-26T09:46:58Z</time></trkpt><trkpt lat="45.80794817464526" lon="9.983285208569523"><ele>1017.9999999999999</ele><time>2026-04-26T09:48:12.999Z</time></trkpt><trkpt lat="45.80798715896747" lon="9.98318652424675"><ele>1020.1666666666666</ele><time>2026-04-26T09:48:16.999Z</time></trkpt><trkpt lat="45.80801069751741" lon="9.98305775954674"><ele>1022.3333333333333</ele><time>2026-04-26T09:48:22.999Z</time></trkpt><trkpt lat="45.80804222160396" lon="9.98294094121648"><ele>1024.5</ele><time>2026-04-26T09:48:25.999Z</time></trkpt><trkpt lat="45.80810080297279" lon="9.982895317463862"><ele>1026.6666666666667</ele><time>2026-04-26T09:48:28.999Z</time></trkpt><trkpt lat="45.80811945801289" lon="9.982779035153323"><ele>1028.8333333333335</ele><time>2026-04-26T09:48:31.999Z</time></trkpt><trkpt lat="45.8081337769045" lon="9.982689677798643"><ele>1031.0</ele><time>2026-04-26T09:48:35.999Z</time></trkpt><trkpt lat="45.80818337905991" lon="9.982609251371484"><ele>1031.0</ele><time>2026-04-26T09:48:42.999Z</time></trkpt><trkpt lat="45.808246492432474" lon="9.982624270056656"><ele>1031.0</ele><time>2026-04-26T09:48:45.999Z</time></trkpt><trkpt lat="45.80831615170034" lon="9.982631835790745"><ele>1031.0</ele><time>2026-04-26T09:48:48.999Z</time></trkpt><trkpt lat="45.808379783181174" lon="9.982594053294763"><ele>1031.0</ele><time>2026-04-26T09:48:56.998Z</time></trkpt><trkpt lat="45.80837833391876" lon="9.98248916886764"><ele>1031.0</ele><time>2026-04-26T09:49:04Z</time></trkpt><trkpt lat="45.80836732200462" lon="9.982386561669237"><ele>1031.0</ele><time>2026-04-26T09:49:09Z</time></trkpt><trkpt lat="45.808368852635084" lon="9.98229403694747"><ele>1031.0</ele><time>2026-04-26T09:49:12Z</time></trkpt><trkpt lat="45.8083622569531" lon="9.982202494177402"><ele>1033.857142857143</ele><time>2026-04-26T09:49:16Z</time></trkpt><trkpt lat="45.80844201931255" lon="9.982170626018114"><ele>1036.7142857142856</ele><time>2026-04-26T09:49:25Z</time></trkpt><trkpt lat="45.8085099205987" lon="9.982157474766991"><ele>1039.5714285714284</ele><time>2026-04-26T09:49:31Z</time></trkpt><trkpt lat="45.8085660325283" lon="9.98211597099537"><ele>1042.4285714285713</ele><time>2026-04-26T09:49:38Z</time></trkpt><trkpt lat="45.80858347694232" lon="9.98202828510277"><ele>1045.2857142857142</ele><time>2026-04-26T09:49:43Z</time></trkpt><trkpt lat="45.80862693825241" lon="9.981943592974833"><ele>1048.142857142857</ele><time>2026-04-26T09:50:59.998Z</time></trkpt><trkpt lat="45.80861965138435" lon="9.981840978259301"><ele>1051.0</ele><time>2026-04-26T09:51:04.998Z</time></trkpt><trkpt lat="45.80859256124461" lon="9.981755016587346"><ele>1059.7142857142858</ele><time>2026-04-26T09:51:11Z</time></trkpt><trkpt lat="45.80859809296323" lon="9.981660993796933"><ele>1068.4285714285713</ele><time>2026-04-26T09:51:14Z</time></trkpt><trkpt lat="45.8086466647973" lon="9.981592463439714"><ele>1077.142857142857</ele><time>2026-04-26T09:51:18Z</time></trkpt><trkpt lat="45.80865450042184" lon="9.981478828134904"><ele>1085.857142857143</ele><time>2026-04-26T09:51:22Z</time></trkpt><trkpt lat="45.8086415369162" lon="9.981384016635328"><ele>1094.5714285714287</ele><time>2026-04-26T09:51:24Z</time></trkpt><trkpt lat="45.80861069274879" lon="9.981295624720586"><ele>1103.2857142857142</ele><time>2026-04-26T09:51:27Z</time></trkpt><trkpt lat="45.80859188276122" lon="9.981173882240052"><ele>1112.0</ele><time>2026-04-26T09:52:50.999Z</time></trkpt><trkpt lat="45.80852523736512" lon="9.98112011927437"><ele>1104.6</ele><time>2026-04-26T09:53:22Z</time></trkpt><trkpt lat="45.80845901392559" lon="9.981084985120269"><ele>1097.2</ele><time>2026-04-26T09:53:24Z</time></trkpt><trkpt lat="45.80838904311212" lon="9.981105452817054"><ele>1089.8</ele><time>2026-04-26T09:53:26Z</time></trkpt><trkpt lat="45.80826119502885" lon="9.981057307233181"><ele>1082.4</ele><time>2026-04-26T09:53:28Z</time></trkpt><trkpt lat="45.80819892596495" lon="9.981010388072457"><ele>1075.0</ele><time>2026-04-26T09:53:29Z</time></trkpt><trkpt lat="45.808086138350866" lon="9.980900132390323"><ele>1075.0</ele><time>2026-04-26T09:53:32Z</time></trkpt><trkpt lat="45.80802067580031" lon="9.980859220346817"><ele>1075.0</ele><time>2026-04-26T09:53:33Z</time></trkpt><trkpt lat="45.8079498096411" lon="9.98087202822534"><ele>1075.0</ele><time>2026-04-26T09:53:34Z</time></trkpt><trkpt lat="45.807851311681006" lon="9.980824063677568"><ele>1075.0</ele><time>2026-04-26T09:53:36Z</time></trkpt><trkpt lat="45.80780224960369" lon="9.98075220777687"><ele>1075.0</ele><time>2026-04-26T09:53:37Z</time></trkpt><trkpt lat="45.80771016011577" lon="9.980665143049803"><ele>1075.0</ele><time>2026-04-26T09:53:39Z</time></trkpt><trkpt lat="45.807623243135836" lon="9.980683201202643"><ele>1075.0</ele><time>2026-04-26T09:53:40Z</time></trkpt><trkpt lat="45.80754301115032" lon="9.980695676081282"><ele>1075.0</ele><time>2026-04-26T09:53:41Z</time></trkpt><trkpt lat="45.80745481299363" lon="9.980684003339944"><ele>1075.0</ele><time>2026-04-26T09:53:42Z</time></trkpt><trkpt lat="45.80737614946863" lon="9.980753821195572"><ele>1075.0</ele><time>2026-04-26T09:53:44Z</time></trkpt><trkpt lat="45.807291567539934" lon="9.980840372663307"><ele>1075.0</ele><time>2026-04-26T09:53:46Z</time></trkpt><trkpt lat="45.80723460283745" lon="9.980901850312907"><ele>1075.0</ele><time>2026-04-26T09:53:47Z</time></trkpt><trkpt lat="45.80717002506088" lon="9.98096085814421"><ele>1075.0</ele><time>2026-04-26T09:53:48Z</time></trkpt><trkpt lat="45.807082400480304" lon="9.981043373768037"><ele>1075.0</ele><time>2026-04-26T09:53:50Z</time></trkpt><trkpt lat="45.80700532152711" lon="9.981054566198832"><ele>1075.0</ele><time>2026-04-26T09:53:52Z</time></trkpt><trkpt lat="45.80693663421787" lon="9.981072982525221"><ele>1075.0</ele><time>2026-04-26T09:53:55Z</time></trkpt><trkpt lat="45.80686783521548" lon="9.981047492942047"><ele>1075.0</ele><time>2026-04-26T09:53:57Z</time></trkpt><trkpt lat="45.806793889146654" lon="9.981002403292845"><ele>1075.0</ele><time>2026-04-26T09:53:58Z</time></trkpt><trkpt lat="45.80671125200551" lon="9.98096123117989"><ele>1076.6666666666665</ele><time>2026-04-26T09:53:59Z</time></trkpt><trkpt lat="45.80662908797557" lon="9.980895938367436"><ele>1078.3333333333333</ele><time>2026-04-26T09:54:00Z</time></trkpt><trkpt lat="45.80658280535051" lon="9.980790871943556"><ele>1080.0</ele><time>2026-04-26T09:54:01Z</time></trkpt><trkpt lat="45.80653288391819" lon="9.980705879767733"><ele>1081.6666666666667</ele><time>2026-04-26T09:54:02Z</time></trkpt><trkpt lat="45.806484267208866" lon="9.980637299231446"><ele>1083.3333333333335</ele><time>2026-04-26T09:54:03Z</time></trkpt><trkpt lat="45.806426810598" lon="9.980583123054078"><ele>1085.0</ele><time>2026-04-26T09:54:03.999Z</time></trkpt><trkpt lat="45.80636304359901" lon="9.980516984253793"><ele>1090.6</ele><time>2026-04-26T09:54:04.999Z</time></trkpt><trkpt lat="45.80630192770918" lon="9.980442949273796"><ele>1096.2</ele><time>2026-04-26T09:54:05.999Z</time></trkpt><trkpt lat="45.80621974173931" lon="9.980353993802948"><ele>1101.8</ele><time>2026-04-26T09:54:07.999Z</time></trkpt><trkpt lat="45.806144875987904" lon="9.980250654258827"><ele>1107.4</ele><time>2026-04-26T09:54:09.999Z</time></trkpt><trkpt lat="45.80604915756676" lon="9.980175985704406"><ele>1113.0</ele><time>2026-04-26T09:54:11.999Z</time></trkpt><trkpt lat="45.805982598718266" lon="9.980008089304151"><ele>1114.8</ele><time>2026-04-26T09:54:14.999Z</time></trkpt><trkpt lat="45.805944773886154" lon="9.979920272022728"><ele>1116.6</ele><time>2026-04-26T09:54:17.999Z</time></trkpt><trkpt lat="45.80590560909923" lon="9.979830738953398"><ele>1118.4</ele><time>2026-04-26T09:54:19.999Z</time></trkpt><trkpt lat="45.80588088478104" lon="9.979744398526883"><ele>1120.2</ele><time>2026-04-26T09:54:22.999Z</time></trkpt><trkpt lat="45.805824736599305" lon="9.9794952815765"><ele>1122.0</ele><time>2026-04-26T09:54:23.999Z</time></trkpt><trkpt lat="45.80582543757587" lon="9.97938835072032"><ele>1122.0</ele><time>2026-04-26T09:54:25.999Z</time></trkpt><trkpt lat="45.805818081884254" lon="9.979271542746053"><ele>1122.0</ele><time>2026-04-26T09:54:27.999Z</time></trkpt><trkpt lat="45.80580070349923" lon="9.979163768513484"><ele>1122.0</ele><time>2026-04-26T09:54:28.999Z</time></trkpt><trkpt lat="45.805782854096456" lon="9.97906204337947"><ele>1122.0</ele><time>2026-04-26T09:54:29.999Z</time></trkpt><trkpt lat="45.805768395319085" lon="9.978963388436872"><ele>1122.0</ele><time>2026-04-26T09:54:30.999Z</time></trkpt><trkpt lat="45.805739940904715" lon="9.978852200713025"><ele>1122.0</ele><time>2026-04-26T09:54:31.999Z</time></trkpt><trkpt lat="45.805719270225126" lon="9.978742087211804"><ele>1124.8</ele><time>2026-04-26T09:54:32.999Z</time></trkpt><trkpt lat="45.80570873102041" lon="9.978636134185265"><ele>1127.6</ele><time>2026-04-26T09:54:33.999Z</time></trkpt><trkpt lat="45.805714437955984" lon="9.978532747605158"><ele>1130.3999999999999</ele><time>2026-04-26T09:54:34.999Z</time></trkpt><trkpt lat="45.80568119852669" lon="9.978338220571187"><ele>1133.2</ele><time>2026-04-26T09:54:36.999Z</time></trkpt><trkpt lat="45.80562302458001" lon="9.978216882134381"><ele>1136.0</ele><time>2026-04-26T09:54:37.999Z</time></trkpt><trkpt lat="45.80556716238716" lon="9.978073928501047"><ele>1137.6</ele><time>2026-04-26T09:54:39.999Z</time></trkpt><trkpt lat="45.805547617957046" lon="9.977975529893278"><ele>1139.1999999999998</ele><time>2026-04-26T09:54:40.999Z</time></trkpt><trkpt lat="45.805557657981815" lon="9.977856565328725"><ele>1140.8000000000002</ele><time>2026-04-26T09:54:41.999Z</time></trkpt><trkpt lat="45.805556127414775" lon="9.977701666952395"><ele>1142.4</ele><time>2026-04-26T09:54:42.999Z</time></trkpt><trkpt lat="45.8055497982005" lon="9.97752370896646"><ele>1144.0</ele><time>2026-04-26T09:54:43.999Z</time></trkpt><trkpt lat="45.80556549681628" lon="9.977350526859858"><ele>1145.6000000000001</ele><time>2026-04-26T09:54:44.999Z</time></trkpt><trkpt lat="45.8055557781108" lon="9.977201792003404"><ele>1147.2</ele><time>2026-04-26T09:54:45.999Z</time></trkpt><trkpt lat="45.80553614833254" lon="9.977067804547014"><ele>1148.8000000000002</ele><time>2026-04-26T09:54:46.999Z</time></trkpt><trkpt lat="45.80549996715275" lon="9.97695054555217"><ele>1150.4</ele><time>2026-04-26T09:54:47.999Z</time></trkpt><trkpt lat="45.80548376479771" lon="9.976822674238885"><ele>1152.0</ele><time>2026-04-26T09:54:48.999Z</time></trkpt><trkpt lat="45.80548613550177" lon="9.976685814497477"><ele>1153.3333333333333</ele><time>2026-04-26T09:54:49.999Z</time></trkpt><trkpt lat="45.805500025003234" lon="9.976561375755518"><ele>1154.6666666666667</ele><time>2026-04-26T09:54:50.999Z</time></trkpt><trkpt lat="45.80551195647578" lon="9.97644756635325"><ele>1156.0</ele><time>2026-04-26T09:54:51.999Z</time></trkpt><trkpt lat="45.80554598727628" lon="9.976341460279766"><ele>1157.3333333333335</ele><time>2026-04-26T09:54:52.999Z</time></trkpt><trkpt lat="45.80562069791194" lon="9.976256196700504"><ele>1158.6666666666667</ele><time>2026-04-26T09:54:53.999Z</time></trkpt><trkpt lat="45.805662012861795" lon="9.976124907334613"><ele>1160.0</ele><time>2026-04-26T09:54:54.999Z</time></trkpt><trkpt lat="45.805717283579604" lon="9.97600384011458"><ele>1160.0</ele><time>2026-04-26T09:54:55.999Z</time></trkpt><trkpt lat="45.80578927788189" lon="9.97589388502658"><ele>1160.0</ele><time>2026-04-26T09:54:56.999Z</time></trkpt><trkpt lat="45.80585550426345" lon="9.975788147118898"><ele>1160.0</ele><time>2026-04-26T09:54:57.999Z</time></trkpt><trkpt lat="45.805923348161315" lon="9.975675593364778"><ele>1160.0</ele><time>2026-04-26T09:54:58.999Z</time></trkpt><trkpt lat="45.8059883094354" lon="9.97556829175581"><ele>1160.0</ele><time>2026-04-26T09:54:59.999Z</time></trkpt><trkpt lat="45.80604212272389" lon="9.975439599794274"><ele>1164.8</ele><time>2026-04-26T09:55:00.999Z</time></trkpt><trkpt lat="45.806099959328485" lon="9.975310311103279"><ele>1169.6</ele><time>2026-04-26T09:55:01.999Z</time></trkpt><trkpt lat="45.806160054504396" lon="9.975182643990182"><ele>1174.4</ele><time>2026-04-26T09:55:02.999Z</time></trkpt><trkpt lat="45.806218985222365" lon="9.975084953894424"><ele>1179.2</ele><time>2026-04-26T09:55:03.999Z</time></trkpt><trkpt lat="45.80630686231393" lon="9.975011015108207"><ele>1184.0</ele><time>2026-04-26T09:55:04.999Z</time></trkpt><trkpt lat="45.806394251807305" lon="9.974898232385744"><ele>1184.0</ele><time>2026-04-26T09:55:05.999Z</time></trkpt><trkpt lat="45.806492162955415" lon="9.974842842688705"><ele>1184.0</ele><time>2026-04-26T09:55:06.999Z</time></trkpt><trkpt lat="45.806575932744764" lon="9.974803937939276"><ele>1184.0</ele><time>2026-04-26T09:55:07.999Z</time></trkpt><trkpt lat="45.8066595212423" lon="9.974744036477677"><ele>1184.0</ele><time>2026-04-26T09:55:08.999Z</time></trkpt><trkpt lat="45.80674059239612" lon="9.974599337852075"><ele>1184.0</ele><time>2026-04-26T09:55:10.999Z</time></trkpt><trkpt lat="45.806750646516996" lon="9.974495010680302"><ele>1184.0</ele><time>2026-04-26T09:55:11.999Z</time></trkpt><trkpt lat="45.806727146571916" lon="9.97435671068958"><ele>1184.0</ele><time>2026-04-26T09:55:12.998Z</time></trkpt><trkpt lat="45.80665737171373" lon="9.97426321569939"><ele>1184.0</ele><time>2026-04-26T09:55:13.998Z</time></trkpt><trkpt lat="45.80660991887002" lon="9.97417335863536"><ele>1184.0</ele><time>2026-04-26T09:55:14.998Z</time></trkpt><trkpt lat="45.80661584887033" lon="9.974048151953113"><ele>1184.0</ele><time>2026-04-26T09:55:15.998Z</time></trkpt><trkpt lat="45.806610704517894" lon="9.973932499393898"><ele>1184.0</ele><time>2026-04-26T09:55:16.998Z</time></trkpt><trkpt lat="45.806610941469245" lon="9.973815389252035"><ele>1182.3333333333335</ele><time>2026-04-26T09:55:17.998Z</time></trkpt><trkpt lat="45.80662696968814" lon="9.973683426056834"><ele>1180.6666666666667</ele><time>2026-04-26T09:55:19Z</time></trkpt><trkpt lat="45.80664020450831" lon="9.973547284059025"><ele>1179.0</ele><time>2026-04-26T09:55:20Z</time></trkpt><trkpt lat="45.806692298697406" lon="9.973435218350858"><ele>1177.3333333333333</ele><time>2026-04-26T09:55:21Z</time></trkpt><trkpt lat="45.8067191389355" lon="9.97333997081804"><ele>1175.6666666666665</ele><time>2026-04-26T09:55:22Z</time></trkpt><trkpt lat="45.806770420441" lon="9.973284096790955"><ele>1174.0</ele><time>2026-04-26T09:55:23Z</time></trkpt><trkpt lat="45.806869142310056" lon="9.973237735956154"><ele>1180.6000000000001</ele><time>2026-04-26T09:55:24Z</time></trkpt><trkpt lat="45.80695313647087" lon="9.973134521069491"><ele>1187.2</ele><time>2026-04-26T09:55:25Z</time></trkpt><trkpt lat="45.8070654118153" lon="9.973058377052254"><ele>1193.8000000000002</ele><time>2026-04-26T09:55:26Z</time></trkpt><trkpt lat="45.80714787854216" lon="9.972980663735813"><ele>1200.4</ele><time>2026-04-26T09:55:27Z</time></trkpt><trkpt lat="45.80722687508993" lon="9.972898996707901"><ele>1207.0</ele><time>2026-04-26T09:55:28Z</time></trkpt><trkpt lat="45.80731399066347" lon="9.972814532922841"><ele>1207.0</ele><time>2026-04-26T09:55:29Z</time></trkpt><trkpt lat="45.807377529554664" lon="9.97277014362183"><ele>1207.0</ele><time>2026-04-26T09:55:30Z</time></trkpt><trkpt lat="45.8074785482318" lon="9.972809455193199"><ele>1207.0</ele><time>2026-04-26T09:55:32Z</time></trkpt><trkpt lat="45.807586709584186" lon="9.972814410710836"><ele>1207.0</ele><time>2026-04-26T09:55:34Z</time></trkpt><trkpt lat="45.80760841253125" lon="9.972662003475806"><ele>1207.0</ele><time>2026-04-26T09:55:36Z</time></trkpt><trkpt lat="45.807545225382675" lon="9.972548418541685"><ele>1205.2</ele><time>2026-04-26T09:55:37Z</time></trkpt><trkpt lat="45.8074404011054" lon="9.9724264554202"><ele>1203.4</ele><time>2026-04-26T09:55:39Z</time></trkpt><trkpt lat="45.80732466529623" lon="9.972331660913728"><ele>1201.6</ele><time>2026-04-26T09:55:40Z</time></trkpt><trkpt lat="45.80724267633597" lon="9.972290812154116"><ele>1199.8</ele><time>2026-04-26T09:55:41Z</time></trkpt><trkpt lat="45.80715681277401" lon="9.972243310253711"><ele>1198.0</ele><time>2026-04-26T09:55:42Z</time></trkpt><trkpt lat="45.8070730897195" lon="9.97218025266848"><ele>1198.0</ele><time>2026-04-26T09:55:43Z</time></trkpt><trkpt lat="45.80701527101791" lon="9.972069958528458"><ele>1198.0</ele><time>2026-04-26T09:55:44Z</time></trkpt><trkpt lat="45.80695588804466" lon="9.971961796783328"><ele>1198.0</ele><time>2026-04-26T09:55:45Z</time></trkpt><trkpt lat="45.806886589603224" lon="9.971856232155035"><ele>1198.0</ele><time>2026-04-26T09:55:46Z</time></trkpt><trkpt lat="45.80684615781322" lon="9.97172997009757"><ele>1198.0</ele><time>2026-04-26T09:55:47Z</time></trkpt><trkpt lat="45.80680665961462" lon="9.971650908972729"><ele>1199.8</ele><time>2026-04-26T09:55:48Z</time></trkpt><trkpt lat="45.80683434144417" lon="9.971550420505308"><ele>1201.6</ele><time>2026-04-26T09:55:49Z</time></trkpt><trkpt lat="45.80687236130902" lon="9.971326441822416"><ele>1203.4</ele><time>2026-04-26T09:55:51Z</time></trkpt><trkpt lat="45.806854035149215" lon="9.971189333625789"><ele>1205.2</ele><time>2026-04-26T09:55:52Z</time></trkpt><trkpt lat="45.80685940488413" lon="9.971047210400137"><ele>1207.0</ele><time>2026-04-26T09:55:53Z</time></trkpt><trkpt lat="45.8068825889026" lon="9.970912754800679"><ele>1207.2</ele><time>2026-04-26T09:55:54Z</time></trkpt><trkpt lat="45.80690003370015" lon="9.970785006100115"><ele>1207.4</ele><time>2026-04-26T09:55:55Z</time></trkpt><trkpt lat="45.80692753139231" lon="9.970643465028074"><ele>1207.6</ele><time>2026-04-26T09:55:56Z</time></trkpt><trkpt lat="45.80695811208225" lon="9.970488381593249"><ele>1207.8</ele><time>2026-04-26T09:55:57Z</time></trkpt><trkpt lat="45.8069691023884" lon="9.970338776551577"><ele>1208.0</ele><time>2026-04-26T09:55:58Z</time></trkpt><trkpt lat="45.806994826839514" lon="9.970201740331403"><ele>1208.0</ele><time>2026-04-26T09:55:59Z</time></trkpt><trkpt lat="45.80701921774017" lon="9.970063250858013"><ele>1208.0</ele><time>2026-04-26T09:56:00Z</time></trkpt><trkpt lat="45.807054121084654" lon="9.969912107706083"><ele>1208.0</ele><time>2026-04-26T09:56:01Z</time></trkpt><trkpt lat="45.80709117291463" lon="9.969781744522667"><ele>1208.0</ele><time>2026-04-26T09:56:02Z</time></trkpt><trkpt lat="45.80712447069341" lon="9.96966551175488"><ele>1208.0</ele><time>2026-04-26T09:56:03Z</time></trkpt><trkpt lat="45.8071528798357" lon="9.969509642671259"><ele>1207.1666666666667</ele><time>2026-04-26T09:56:05Z</time></trkpt><trkpt lat="45.80703511747404" lon="9.969497593829011"><ele>1206.3333333333335</ele><time>2026-04-26T09:56:07Z</time></trkpt><trkpt lat="45.8069702639695" lon="9.96949478579783"><ele>1205.5</ele><time>2026-04-26T09:56:08.999Z</time></trkpt><trkpt lat="45.806915156276595" lon="9.969410651673654"><ele>1204.6666666666667</ele><time>2026-04-26T09:56:09.999Z</time></trkpt><trkpt lat="45.80690602332668" lon="9.969304968190343"><ele>1203.8333333333333</ele><time>2026-04-26T09:56:10.999Z</time></trkpt><trkpt lat="45.80691688381042" lon="9.969197939343474"><ele>1203.0</ele><time>2026-04-26T09:56:11.999Z</time></trkpt><trkpt lat="45.80693840385436" lon="9.96907978588318"><ele>1202.6666666666667</ele><time>2026-04-26T09:56:12.999Z</time></trkpt><trkpt lat="45.80696924139007" lon="9.968962114734875"><ele>1202.3333333333333</ele><time>2026-04-26T09:56:13.999Z</time></trkpt><trkpt lat="45.80700460633439" lon="9.968859575666393"><ele>1202.0</ele><time>2026-04-26T09:56:14.999Z</time></trkpt><trkpt lat="45.80702496337468" lon="9.96876947341432"><ele>1201.6666666666665</ele><time>2026-04-26T09:56:15.999Z</time></trkpt><trkpt lat="45.807007708637606" lon="9.968681011683529"><ele>1201.3333333333333</ele><time>2026-04-26T09:56:16.999Z</time></trkpt><trkpt lat="45.80696107819083" lon="9.968567920849292"><ele>1201.0</ele><time>2026-04-26T09:56:17.999Z</time></trkpt><trkpt lat="45.80691197910058" lon="9.96841982578343"><ele>1200.25</ele><time>2026-04-26T09:56:18.999Z</time></trkpt><trkpt lat="45.80686267366438" lon="9.968266403811358"><ele>1199.5</ele><time>2026-04-26T09:56:19.999Z</time></trkpt><trkpt lat="45.8068190386752" lon="9.968113766849024"><ele>1198.75</ele><time>2026-04-26T09:56:20.999Z</time></trkpt><trkpt lat="45.80678397508922" lon="9.967973916623686"><ele>1198.0</ele><time>2026-04-26T09:56:21.999Z</time></trkpt><trkpt lat="45.806754225589515" lon="9.967812153225077"><ele>1198.0</ele><time>2026-04-26T09:56:22.999Z</time></trkpt><trkpt lat="45.80672754135369" lon="9.96765200373029"><ele>1198.0</ele><time>2026-04-26T09:56:23.999Z</time></trkpt><trkpt lat="45.806708306567124" lon="9.967523020332813"><ele>1198.0</ele><time>2026-04-26T09:56:24.999Z</time></trkpt><trkpt lat="45.806701311943854" lon="9.967366357436529"><ele>1198.0</ele><time>2026-04-26T09:56:25.999Z</time></trkpt><trkpt lat="45.806699177911426" lon="9.967212410550854"><ele>1198.0</ele><time>2026-04-26T09:56:26.999Z</time></trkpt><trkpt lat="45.80669707604683" lon="9.967050610838966"><ele>1200.0</ele><time>2026-04-26T09:56:27.999Z</time></trkpt><trkpt lat="45.8066954182967" lon="9.966904869786946"><ele>1202.0</ele><time>2026-04-26T09:56:28.999Z</time></trkpt><trkpt lat="45.80668988942901" lon="9.96676564229761"><ele>1204.0</ele><time>2026-04-26T09:56:29.999Z</time></trkpt><trkpt lat="45.80668208988779" lon="9.966623018211854"><ele>1206.0</ele><time>2026-04-26T09:56:30.999Z</time></trkpt><trkpt lat="45.80667981841205" lon="9.966506309030782"><ele>1208.0</ele><time>2026-04-26T09:56:31.999Z</time></trkpt><trkpt lat="45.806680203664115" lon="9.966405798022356"><ele>1208.2</ele><time>2026-04-26T09:56:32.999Z</time></trkpt><trkpt lat="45.80667283974114" lon="9.966301011405887"><ele>1208.4</ele><time>2026-04-26T09:56:33.999Z</time></trkpt><trkpt lat="45.8066660342455" lon="9.966165751696954"><ele>1208.6000000000001</ele><time>2026-04-26T09:56:34.999Z</time></trkpt><trkpt lat="45.80675589020987" lon="9.966020129561793"><ele>1208.8</ele><time>2026-04-26T09:56:35.999Z</time></trkpt><trkpt lat="45.806792499381096" lon="9.965896294061347"><ele>1209.0</ele><time>2026-04-26T09:56:36.999Z</time></trkpt><trkpt lat="45.806853293697884" lon="9.965770585453239"><ele>1213.6000000000001</ele><time>2026-04-26T09:56:37.999Z</time></trkpt><trkpt lat="45.806902327574726" lon="9.965639290934815"><ele>1218.2</ele><time>2026-04-26T09:56:38.999Z</time></trkpt><trkpt lat="45.80692202537852" lon="9.965541844303246"><ele>1222.8000000000002</ele><time>2026-04-26T09:56:39.999Z</time></trkpt><trkpt lat="45.80697611743821" lon="9.965431434728316"><ele>1227.4</ele><time>2026-04-26T09:56:40.999Z</time></trkpt><trkpt lat="45.80703467787211" lon="9.965334756110321"><ele>1232.0</ele><time>2026-04-26T09:56:41.999Z</time></trkpt><trkpt lat="45.80705457362791" lon="9.965173754618037"><ele>1232.0</ele><time>2026-04-26T09:56:43.999Z</time></trkpt><trkpt lat="45.807035389322046" lon="9.965075804166704"><ele>1232.0</ele><time>2026-04-26T09:56:44.999Z</time></trkpt><trkpt lat="45.80695592994508" lon="9.964955918734882"><ele>1232.0</ele><time>2026-04-26T09:56:46.999Z</time></trkpt><trkpt lat="45.80690827706361" lon="9.964893310961614"><ele>1232.0</ele><time>2026-04-26T09:56:47.999Z</time></trkpt><trkpt lat="45.80682749319161" lon="9.964914426137847"><ele>1232.0</ele><time>2026-04-26T09:56:48.999Z</time></trkpt><trkpt lat="45.80679192460949" lon="9.964996706724072"><ele>1232.0</ele><time>2026-04-26T09:56:49.999Z</time></trkpt><trkpt lat="45.806750607253726" lon="9.965087930492139"><ele>1226.2</ele><time>2026-04-26T09:56:50.999Z</time></trkpt><trkpt lat="45.806666312508646" lon="9.965053047565783"><ele>1220.4</ele><time>2026-04-26T09:56:52.999Z</time></trkpt><trkpt lat="45.80662469217501" lon="9.964971114059706"><ele>1214.6</ele><time>2026-04-26T09:56:53.999Z</time></trkpt><trkpt lat="45.806577894361126" lon="9.96486835821844"><ele>1208.8</ele><time>2026-04-26T09:56:54.999Z</time></trkpt><trkpt lat="45.80651080044661" lon="9.964744540951509"><ele>1203.0</ele><time>2026-04-26T09:56:55.999Z</time></trkpt><trkpt lat="45.80643826909694" lon="9.964629398793624"><ele>1203.0</ele><time>2026-04-26T09:56:56.999Z</time></trkpt><trkpt lat="45.806380448504235" lon="9.964494345607596"><ele>1203.0</ele><time>2026-04-26T09:56:57.999Z</time></trkpt><trkpt lat="45.80633149303723" lon="9.964357188326332"><ele>1203.0</ele><time>2026-04-26T09:56:58.999Z</time></trkpt><trkpt lat="45.8062597149158" lon="9.96420972293593"><ele>1203.0</ele><time>2026-04-26T09:56:59.999Z</time></trkpt><trkpt lat="45.8061980889942" lon="9.964047284615464"><ele>1200.8</ele><time>2026-04-26T09:57:00.999Z</time></trkpt><trkpt lat="45.80611546315725" lon="9.963907418192058"><ele>1198.6</ele><time>2026-04-26T09:57:01.999Z</time></trkpt><trkpt lat="45.806041247248025" lon="9.96381364881451"><ele>1196.4</ele><time>2026-04-26T09:57:02.999Z</time></trkpt><trkpt lat="45.806002984926934" lon="9.96373265717558"><ele>1194.2</ele><time>2026-04-26T09:57:03.999Z</time></trkpt><trkpt lat="45.80596032395943" lon="9.963611476618231"><ele>1192.0</ele><time>2026-04-26T09:57:05.999Z</time></trkpt><trkpt lat="45.806013069588985" lon="9.963449059726624"><ele>1198.6666666666665</ele><time>2026-04-26T09:57:07.999Z</time></trkpt><trkpt lat="45.806068727585725" lon="9.963322898172622"><ele>1205.3333333333333</ele><time>2026-04-26T09:57:08.999Z</time></trkpt><trkpt lat="45.80612125439507" lon="9.963198912119182"><ele>1212.0</ele><time>2026-04-26T09:57:09.999Z</time></trkpt><trkpt lat="45.80617857572086" lon="9.963092143953379"><ele>1218.6666666666667</ele><time>2026-04-26T09:57:10.999Z</time></trkpt><trkpt lat="45.80620271247858" lon="9.962996305094972"><ele>1225.3333333333335</ele><time>2026-04-26T09:57:11.999Z</time></trkpt><trkpt lat="45.806234156661624" lon="9.962912914655092"><ele>1232.0</ele><time>2026-04-26T09:57:13.999Z</time></trkpt><trkpt lat="45.80622171535921" lon="9.963070322760299"><ele>1232.0</ele><time>2026-04-26T09:57:18.998Z</time></trkpt><trkpt lat="45.806189961552846" lon="9.963239154030285"><ele>1232.0</ele><time>2026-04-26T09:57:20.998Z</time></trkpt><trkpt lat="45.80619452190747" lon="9.963431907779178"><ele>1232.0</ele><time>2026-04-26T09:57:22.998Z</time></trkpt><trkpt lat="45.80623324204395" lon="9.963528986249406"><ele>1232.0</ele><time>2026-04-26T09:57:25Z</time></trkpt><trkpt lat="45.80634157090125" lon="9.963485750973147"><ele>1232.0</ele><time>2026-04-26T09:57:27Z</time></trkpt><trkpt lat="45.8064010729058" lon="9.963438525312839"><ele>1231.8333333333335</ele><time>2026-04-26T09:57:28Z</time></trkpt><trkpt lat="45.80647117290793" lon="9.963408870019313"><ele>1231.6666666666667</ele><time>2026-04-26T09:57:29Z</time></trkpt><trkpt lat="45.806551256269884" lon="9.963390559385218"><ele>1231.5</ele><time>2026-04-26T09:57:30Z</time></trkpt><trkpt lat="45.806635117993444" lon="9.963382039130906"><ele>1231.3333333333333</ele><time>2026-04-26T09:57:31Z</time></trkpt><trkpt lat="45.80672761395498" lon="9.963380689933839"><ele>1231.1666666666665</ele><time>2026-04-26T09:57:32Z</time></trkpt><trkpt lat="45.80681780620296" lon="9.963399884264886"><ele>1231.0</ele><time>2026-04-26T09:57:33Z</time></trkpt><trkpt lat="45.80691157986719" lon="9.963413192427266"><ele>1231.0</ele><time>2026-04-26T09:57:34Z</time></trkpt><trkpt lat="45.80700568147614" lon="9.963400614286474"><ele>1231.0</ele><time>2026-04-26T09:57:35Z</time></trkpt><trkpt lat="45.807087783002004" lon="9.963372590200708"><ele>1231.0</ele><time>2026-04-26T09:57:36Z</time></trkpt><trkpt lat="45.80717039803894" lon="9.963332511565488"><ele>1231.0</ele><time>2026-04-26T09:57:37Z</time></trkpt><trkpt lat="45.807253811816615" lon="9.963277733012887"><ele>1231.0</ele><time>2026-04-26T09:57:38Z</time></trkpt><trkpt lat="45.80733813590049" lon="9.963216024472295"><ele>1233.5</ele><time>2026-04-26T09:57:39Z</time></trkpt><trkpt lat="45.80742341462453" lon="9.963161258296495"><ele>1236.0</ele><time>2026-04-26T09:57:40Z</time></trkpt><trkpt lat="45.80751070038179" lon="9.963121120252293"><ele>1238.5</ele><time>2026-04-26T09:57:41Z</time></trkpt><trkpt lat="45.807601375344724" lon="9.963098487055916"><ele>1241.0</ele><time>2026-04-26T09:57:42Z</time></trkpt><trkpt lat="45.80768508948258" lon="9.963091042531316"><ele>1243.5</ele><time>2026-04-26T09:57:43Z</time></trkpt><trkpt lat="45.807755706422796" lon="9.963090350300693"><ele>1246.0</ele><time>2026-04-26T09:57:44Z</time></trkpt><trkpt lat="45.80785678923449" lon="9.963008692909476"><ele>1249.0</ele><time>2026-04-26T09:57:46Z</time></trkpt><trkpt lat="45.807929734566095" lon="9.962923703383963"><ele>1252.0</ele><time>2026-04-26T09:57:48Z</time></trkpt><trkpt lat="45.80797606191044" lon="9.963011671070344"><ele>1255.0</ele><time>2026-04-26T09:57:50Z</time></trkpt><trkpt lat="45.80801142946245" lon="9.963108122538674"><ele>1258.0</ele><time>2026-04-26T09:57:51Z</time></trkpt><trkpt lat="45.808079563182154" lon="9.963169664501727"><ele>1261.0</ele><time>2026-04-26T09:57:53Z</time></trkpt><trkpt lat="45.80817013334772" lon="9.963104896513451"><ele>1264.0</ele><time>2026-04-26T09:57:55Z</time></trkpt><trkpt lat="45.808264836324106" lon="9.963040312580475"><ele>1264.0</ele><time>2026-04-26T09:57:57Z</time></trkpt><trkpt lat="45.80832247999481" lon="9.963129950239082"><ele>1264.0</ele><time>2026-04-26T09:57:59Z</time></trkpt><trkpt lat="45.808375079834256" lon="9.963305788599218"><ele>1264.0</ele><time>2026-04-26T09:58:01Z</time></trkpt><trkpt lat="45.80841733151983" lon="9.963411627333489"><ele>1264.0</ele><time>2026-04-26T09:58:02Z</time></trkpt><trkpt lat="45.808467622259364" lon="9.963522842362268"><ele>1264.0</ele><time>2026-04-26T09:58:03Z</time></trkpt><trkpt lat="45.80851657982281" lon="9.9636292638882"><ele>1267.5</ele><time>2026-04-26T09:58:04Z</time></trkpt><trkpt lat="45.8085690147421" lon="9.96373606373316"><ele>1271.0</ele><time>2026-04-26T09:58:05Z</time></trkpt><trkpt lat="45.808627483514115" lon="9.96382969913828"><ele>1274.5</ele><time>2026-04-26T09:58:06Z</time></trkpt><trkpt lat="45.80867980737831" lon="9.963920241576734"><ele>1278.0</ele><time>2026-04-26T09:58:07Z</time></trkpt><trkpt lat="45.80871131069692" lon="9.96401370592819"><ele>1281.5</ele><time>2026-04-26T09:58:08Z</time></trkpt><trkpt lat="45.80878677265635" lon="9.964078097639305"><ele>1285.0</ele><time>2026-04-26T09:58:10Z</time></trkpt><trkpt lat="45.80888525221217" lon="9.964098366499416"><ele>1285.0</ele><time>2026-04-26T09:58:11.999Z</time></trkpt><trkpt lat="45.809036813526696" lon="9.964152632542088"><ele>1285.0</ele><time>2026-04-26T09:58:13.999Z</time></trkpt><trkpt lat="45.809138205791754" lon="9.964178586177734"><ele>1285.0</ele><time>2026-04-26T09:58:14.999Z</time></trkpt><trkpt lat="45.80922368812913" lon="9.964215226024884"><ele>1285.0</ele><time>2026-04-26T09:58:15.999Z</time></trkpt><trkpt lat="45.80929918734547" lon="9.964270125493902"><ele>1285.0</ele><time>2026-04-26T09:58:16.999Z</time></trkpt><trkpt lat="45.80934883719528" lon="9.964396217526714"><ele>1288.6</ele><time>2026-04-26T09:58:18.999Z</time></trkpt><trkpt lat="45.80935696369006" lon="9.964493159426059"><ele>1292.2</ele><time>2026-04-26T09:58:19.999Z</time></trkpt><trkpt lat="45.80936279100948" lon="9.964601183982326"><ele>1295.8000000000002</ele><time>2026-04-26T09:58:20.999Z</time></trkpt><trkpt lat="45.80938525064311" lon="9.964753829309183"><ele>1299.4</ele><time>2026-04-26T09:58:22.999Z</time></trkpt><trkpt lat="45.8094642791581" lon="9.964872433909097"><ele>1303.0</ele><time>2026-04-26T09:58:24.999Z</time></trkpt><trkpt lat="45.809536605534646" lon="9.964988276360284"><ele>1302.6666666666665</ele><time>2026-04-26T09:58:26.999Z</time></trkpt><trkpt lat="45.80963321626656" lon="9.965073867918164"><ele>1302.3333333333333</ele><time>2026-04-26T09:58:28.999Z</time></trkpt><trkpt lat="45.80968674907673" lon="9.965128066055756"><ele>1302.0</ele><time>2026-04-26T09:58:29.999Z</time></trkpt><trkpt lat="45.8097318360482" lon="9.965196230740961"><ele>1301.6666666666667</ele><time>2026-04-26T09:58:30.999Z</time></trkpt><trkpt lat="45.809778860283316" lon="9.965276771459111"><ele>1301.3333333333335</ele><time>2026-04-26T09:58:31.999Z</time></trkpt><trkpt lat="45.80982922337113" lon="9.965357074066132"><ele>1301.0</ele><time>2026-04-26T09:58:32.999Z</time></trkpt><trkpt lat="45.80988487330692" lon="9.965435429099538"><ele>1301.0</ele><time>2026-04-26T09:58:33.999Z</time></trkpt><trkpt lat="45.80992741698231" lon="9.965518866881387"><ele>1301.0</ele><time>2026-04-26T09:58:34.999Z</time></trkpt><trkpt lat="45.80994409312252" lon="9.965608097220294"><ele>1301.0</ele><time>2026-04-26T09:58:35.999Z</time></trkpt><trkpt lat="45.80997188942968" lon="9.965695912538393"><ele>1301.0</ele><time>2026-04-26T09:58:36.999Z</time></trkpt><trkpt lat="45.81009767236542" lon="9.965765184304173"><ele>1301.0</ele><time>2026-04-26T09:58:38.999Z</time></trkpt><trkpt lat="45.81018146668445" lon="9.965783688910863"><ele>1301.0</ele><time>2026-04-26T09:58:39.999Z</time></trkpt><trkpt lat="45.81025435204898" lon="9.965814562624502"><ele>1302.5</ele><time>2026-04-26T09:58:40.999Z</time></trkpt><trkpt lat="45.81035166980984" lon="9.965923998251437"><ele>1304.0</ele><time>2026-04-26T09:58:42.999Z</time></trkpt><trkpt lat="45.81039686315828" lon="9.966004747582208"><ele>1305.5</ele><time>2026-04-26T09:58:43.999Z</time></trkpt><trkpt lat="45.81043328618728" lon="9.966104078712918"><ele>1307.0</ele><time>2026-04-26T09:58:44.999Z</time></trkpt><trkpt lat="45.81047110133098" lon="9.966207389449215"><ele>1308.5</ele><time>2026-04-26T09:58:45.999Z</time></trkpt><trkpt lat="45.810512917130005" lon="9.966311071482158"><ele>1310.0</ele><time>2026-04-26T09:58:46.999Z</time></trkpt><trkpt lat="45.81055076563356" lon="9.96639484380113"><ele>1310.0</ele><time>2026-04-26T09:58:47.999Z</time></trkpt><trkpt lat="45.81061706712888" lon="9.966541121524289"><ele>1310.0</ele><time>2026-04-26T09:58:49.999Z</time></trkpt><trkpt lat="45.8106588529111" lon="9.966623074456033"><ele>1310.0</ele><time>2026-04-26T09:58:50.999Z</time></trkpt><trkpt lat="45.81069860853272" lon="9.96670922658529"><ele>1310.0</ele><time>2026-04-26T09:58:51.999Z</time></trkpt><trkpt lat="45.8107580746849" lon="9.966783450349268"><ele>1310.0</ele><time>2026-04-26T09:58:52.999Z</time></trkpt><trkpt lat="45.8108248946755" lon="9.966850656713685"><ele>1310.0</ele><time>2026-04-26T09:58:53.999Z</time></trkpt><trkpt lat="45.81092179001597" lon="9.966916181698119"><ele>1311.0</ele><time>2026-04-26T09:58:55.999Z</time></trkpt><trkpt lat="45.81096168525737" lon="9.967018236899285"><ele>1312.0</ele><time>2026-04-26T09:58:58.999Z</time></trkpt><trkpt lat="45.81099952912107" lon="9.967133128783376"><ele>1313.0</ele><time>2026-04-26T09:59:01.999Z</time></trkpt><trkpt lat="45.811032284263916" lon="9.967216855764072"><ele>1314.0</ele><time>2026-04-26T09:59:03.999Z</time></trkpt><trkpt lat="45.81105160605327" lon="9.967356692999882"><ele>1315.0</ele><time>2026-04-26T09:59:05.999Z</time></trkpt><trkpt lat="45.81105576862995" lon="9.967450066238209"><ele>1316.0</ele><time>2026-04-26T09:59:06.999Z</time></trkpt><trkpt lat="45.81107305236493" lon="9.967545627410624"><ele>1317.6</ele><time>2026-04-26T09:59:07.999Z</time></trkpt><trkpt lat="45.81105532349967" lon="9.967724825839639"><ele>1319.1999999999998</ele><time>2026-04-26T09:59:09.999Z</time></trkpt><trkpt lat="45.81106170300685" lon="9.967839747841163"><ele>1320.8000000000002</ele><time>2026-04-26T09:59:10.999Z</time></trkpt><trkpt lat="45.81105197662356" lon="9.967974550007092"><ele>1322.4</ele><time>2026-04-26T09:59:11.999Z</time></trkpt><trkpt lat="45.81103915528694" lon="9.968094720372207"><ele>1324.0</ele><time>2026-04-26T09:59:12.999Z</time></trkpt><trkpt lat="45.811024523365425" lon="9.96820937036321"><ele>1324.0</ele><time>2026-04-26T09:59:13.999Z</time></trkpt><trkpt lat="45.811026364075815" lon="9.968312233225529"><ele>1324.0</ele><time>2026-04-26T09:59:14.999Z</time></trkpt><trkpt lat="45.81103366212951" lon="9.968412908869201"><ele>1324.0</ele><time>2026-04-26T09:59:15.999Z</time></trkpt><trkpt lat="45.81110748235444" lon="9.968520883428113"><ele>1324.0</ele><time>2026-04-26T09:59:16.999Z</time></trkpt><trkpt lat="45.811133111165276" lon="9.968700270146908"><ele>1324.0</ele><time>2026-04-26T09:59:17.999Z</time></trkpt><trkpt lat="45.811117294990716" lon="9.968874829371721"><ele>1325.6</ele><time>2026-04-26T09:59:18.999Z</time></trkpt><trkpt lat="45.811033556146285" lon="9.969018590224278"><ele>1327.2</ele><time>2026-04-26T09:59:19.999Z</time></trkpt><trkpt lat="45.81105798801826" lon="9.969169846052505"><ele>1328.8</ele><time>2026-04-26T09:59:20.999Z</time></trkpt><trkpt lat="45.81106252942107" lon="9.969303534177458"><ele>1330.3999999999999</ele><time>2026-04-26T09:59:21.999Z</time></trkpt><trkpt lat="45.81108719840662" lon="9.969438620129466"><ele>1332.0</ele><time>2026-04-26T09:59:22.998Z</time></trkpt><trkpt lat="45.81113061779215" lon="9.969554573070896"><ele>1332.8</ele><time>2026-04-26T09:59:23.998Z</time></trkpt><trkpt lat="45.81117087188689" lon="9.969666747264654"><ele>1333.6</ele><time>2026-04-26T09:59:24.998Z</time></trkpt><trkpt lat="45.811205339693444" lon="9.969754838810603"><ele>1334.3999999999999</ele><time>2026-04-26T09:59:25.998Z</time></trkpt><trkpt lat="45.81126588183049" lon="9.969850230726735"><ele>1335.1999999999998</ele><time>2026-04-26T09:59:26.998Z</time></trkpt><trkpt lat="45.81134808615471" lon="9.969947170170038"><ele>1336.0</ele><time>2026-04-26T09:59:27.998Z</time></trkpt><trkpt lat="45.81141905068398" lon="9.970070903999988"><ele>1336.6</ele><time>2026-04-26T09:59:28.998Z</time></trkpt><trkpt lat="45.81151209283819" lon="9.970195117971478"><ele>1337.1999999999998</ele><time>2026-04-26T09:59:29.998Z</time></trkpt><trkpt lat="45.811592113521066" lon="9.970304520080727"><ele>1337.8000000000002</ele><time>2026-04-26T09:59:31Z</time></trkpt><trkpt lat="45.81166182446093" lon="9.970407639821339"><ele>1338.4</ele><time>2026-04-26T09:59:32Z</time></trkpt><trkpt lat="45.81170808194382" lon="9.970477402454353"><ele>1339.0</ele><time>2026-04-26T09:59:33Z</time></trkpt><trkpt lat="45.81173707166564" lon="9.970560285807814"><ele>1339.0</ele><time>2026-04-26T09:59:34Z</time></trkpt><trkpt lat="45.811718183650434" lon="9.970716647035077"><ele>1339.0</ele><time>2026-04-26T09:59:36Z</time></trkpt><trkpt lat="45.81169146804282" lon="9.970823051932982"><ele>1339.0</ele><time>2026-04-26T09:59:37Z</time></trkpt><trkpt lat="45.81167560108824" lon="9.970937893038954"><ele>1339.0</ele><time>2026-04-26T09:59:38Z</time></trkpt><trkpt lat="45.81167059636889" lon="9.971051088642843"><ele>1339.0</ele><time>2026-04-26T09:59:39Z</time></trkpt><trkpt lat="45.81167435050727" lon="9.971160874559736"><ele>1339.0</ele><time>2026-04-26T09:59:40Z</time></trkpt><trkpt lat="45.81169789922723" lon="9.97127922947628"><ele>1339.5</ele><time>2026-04-26T09:59:41Z</time></trkpt><trkpt lat="45.81173891326789" lon="9.971360083019135"><ele>1340.0</ele><time>2026-04-26T09:59:42Z</time></trkpt><trkpt lat="45.811794264490345" lon="9.97141884186939"><ele>1340.5</ele><time>2026-04-26T09:59:43Z</time></trkpt><trkpt lat="45.8118379448979" lon="9.971508469314934"><ele>1341.0</ele><time>2026-04-26T09:59:44Z</time></trkpt><trkpt lat="45.81185465158075" lon="9.971641559490399"><ele>1341.5</ele><time>2026-04-26T09:59:45Z</time></trkpt><trkpt lat="45.811856128470005" lon="9.971779297246375"><ele>1342.0</ele><time>2026-04-26T09:59:46Z</time></trkpt><trkpt lat="45.81191515471549" lon="9.971906969756336"><ele>1338.6</ele><time>2026-04-26T09:59:47Z</time></trkpt><trkpt lat="45.8119896359465" lon="9.972036350309088"><ele>1335.1999999999998</ele><time>2026-04-26T09:59:48Z</time></trkpt><trkpt lat="45.8120400970372" lon="9.972161604274378"><ele>1331.8</ele><time>2026-04-26T09:59:49Z</time></trkpt><trkpt lat="45.81208685997966" lon="9.972265304540764"><ele>1328.4</ele><time>2026-04-26T09:59:50Z</time></trkpt><trkpt lat="45.81213157523391" lon="9.972379658666025"><ele>1325.0</ele><time>2026-04-26T09:59:51Z</time></trkpt><trkpt lat="45.81215820021897" lon="9.972505896203025"><ele>1325.3333333333335</ele><time>2026-04-26T09:59:52Z</time></trkpt><trkpt lat="45.81218048829912" lon="9.972641079874588"><ele>1325.6666666666667</ele><time>2026-04-26T09:59:53Z</time></trkpt><trkpt lat="45.81221813874509" lon="9.972751626087032"><ele>1326.0</ele><time>2026-04-26T09:59:54Z</time></trkpt><trkpt lat="45.81228133185457" lon="9.97283019842993"><ele>1326.3333333333333</ele><time>2026-04-26T09:59:55Z</time></trkpt><trkpt lat="45.81234189731651" lon="9.972891492342232"><ele>1326.6666666666665</ele><time>2026-04-26T09:59:56Z</time></trkpt><trkpt lat="45.812389428646" lon="9.972974499574006"><ele>1327.0</ele><time>2026-04-26T09:59:57Z</time></trkpt><trkpt lat="45.812410987559794" lon="9.973083573482707"><ele>1327.0</ele><time>2026-04-26T09:59:58Z</time></trkpt><trkpt lat="45.81243848911205" lon="9.973195410209577"><ele>1327.0</ele><time>2026-04-26T09:59:59Z</time></trkpt><trkpt lat="45.8124853511059" lon="9.973302848354644"><ele>1327.0</ele><time>2026-04-26T10:00:00Z</time></trkpt><trkpt lat="45.81256944172454" lon="9.973401952872154"><ele>1327.0</ele><time>2026-04-26T10:00:01Z</time></trkpt><trkpt lat="45.81263968090307" lon="9.973496669678717"><ele>1327.0</ele><time>2026-04-26T10:00:02Z</time></trkpt><trkpt lat="45.81269732553166" lon="9.973585194017502"><ele>1323.1666666666665</ele><time>2026-04-26T10:00:03Z</time></trkpt><trkpt lat="45.812736663232954" lon="9.973677949042912"><ele>1319.3333333333333</ele><time>2026-04-26T10:00:04Z</time></trkpt><trkpt lat="45.81275445105992" lon="9.973771208320795"><ele>1315.5</ele><time>2026-04-26T10:00:05Z</time></trkpt><trkpt lat="45.81276560972142" lon="9.973869101959016"><ele>1311.6666666666667</ele><time>2026-04-26T10:00:06Z</time></trkpt><trkpt lat="45.81277382704706" lon="9.97399125267533"><ele>1307.8333333333335</ele><time>2026-04-26T10:00:07Z</time></trkpt><trkpt lat="45.81276299634444" lon="9.974132608693038"><ele>1304.0</ele><time>2026-04-26T10:00:08Z</time></trkpt><trkpt lat="45.81276460430938" lon="9.97429787489466"><ele>1304.0</ele><time>2026-04-26T10:00:09Z</time></trkpt><trkpt lat="45.81273922208099" lon="9.974440877632073"><ele>1304.0</ele><time>2026-04-26T10:00:10Z</time></trkpt><trkpt lat="45.812721813763034" lon="9.97454712270464"><ele>1304.0</ele><time>2026-04-26T10:00:11Z</time></trkpt><trkpt lat="45.812732618562165" lon="9.974657149115902"><ele>1304.0</ele><time>2026-04-26T10:00:12Z</time></trkpt><trkpt lat="45.81276451580821" lon="9.974747339388664"><ele>1304.0</ele><time>2026-04-26T10:00:13Z</time></trkpt><trkpt lat="45.812822138097076" lon="9.974816487939036"><ele>1304.0</ele><time>2026-04-26T10:00:14Z</time></trkpt><trkpt lat="45.81287630980984" lon="9.974887988154258"><ele>1305.6</ele><time>2026-04-26T10:00:15Z</time></trkpt><trkpt lat="45.812946713654874" lon="9.97504941445974"><ele>1307.2</ele><time>2026-04-26T10:00:17Z</time></trkpt><trkpt lat="45.81299056675517" lon="9.97518576061156"><ele>1308.8</ele><time>2026-04-26T10:00:18Z</time></trkpt><trkpt lat="45.81303797007001" lon="9.975319124571575"><ele>1310.3999999999999</ele><time>2026-04-26T10:00:18.999Z</time></trkpt><trkpt lat="45.81306207286778" lon="9.975449435272525"><ele>1312.0</ele><time>2026-04-26T10:00:19.999Z</time></trkpt><trkpt lat="45.813093099878536" lon="9.975575611256188"><ele>1312.0</ele><time>2026-04-26T10:00:20.999Z</time></trkpt><trkpt lat="45.813129629424466" lon="9.975688967463174"><ele>1312.0</ele><time>2026-04-26T10:00:21.999Z</time></trkpt><trkpt lat="45.81316609214446" lon="9.975816913344275"><ele>1312.0</ele><time>2026-04-26T10:00:22.999Z</time></trkpt><trkpt lat="45.81318517597884" lon="9.975956519706353"><ele>1312.0</ele><time>2026-04-26T10:00:23.999Z</time></trkpt><trkpt lat="45.81319916830785" lon="9.976092903192281"><ele>1312.0</ele><time>2026-04-26T10:00:24.999Z</time></trkpt><trkpt lat="45.813226176846435" lon="9.976232134874975"><ele>1310.8571428571427</ele><time>2026-04-26T10:00:25.999Z</time></trkpt><trkpt lat="45.81324843314789" lon="9.976364265418626"><ele>1309.7142857142858</ele><time>2026-04-26T10:00:26.999Z</time></trkpt><trkpt lat="45.81324992402929" lon="9.976485330041214"><ele>1308.5714285714284</ele><time>2026-04-26T10:00:27.999Z</time></trkpt><trkpt lat="45.8132524178647" lon="9.976594488474284"><ele>1307.4285714285713</ele><time>2026-04-26T10:00:28.999Z</time></trkpt><trkpt lat="45.813274887113536" lon="9.976681332486542"><ele>1306.2857142857142</ele><time>2026-04-26T10:00:29.999Z</time></trkpt><trkpt lat="45.813301274741036" lon="9.976764629549809"><ele>1305.142857142857</ele><time>2026-04-26T10:00:30.999Z</time></trkpt><trkpt lat="45.81332565784333" lon="9.976850151413343"><ele>1304.0</ele><time>2026-04-26T10:00:31.999Z</time></trkpt><trkpt lat="45.81338762225653" lon="9.976977552835777"><ele>1304.3333333333335</ele><time>2026-04-26T10:00:33.999Z</time></trkpt><trkpt lat="45.813485764895674" lon="9.977071061112497"><ele>1304.6666666666667</ele><time>2026-04-26T10:00:35.999Z</time></trkpt><trkpt lat="45.813542812985084" lon="9.977116946360338"><ele>1305.0</ele><time>2026-04-26T10:00:36.999Z</time></trkpt><trkpt lat="45.813596539840134" lon="9.97716658877182"><ele>1305.3333333333333</ele><time>2026-04-26T10:00:37.999Z</time></trkpt><trkpt lat="45.81365100048851" lon="9.977245966368884"><ele>1305.6666666666665</ele><time>2026-04-26T10:00:38.999Z</time></trkpt><trkpt lat="45.81368750212249" lon="9.977334773553148"><ele>1306.0</ele><time>2026-04-26T10:00:39.999Z</time></trkpt><trkpt lat="45.813710021819446" lon="9.977434689807257"><ele>1304.3333333333333</ele><time>2026-04-26T10:00:40.999Z</time></trkpt><trkpt lat="45.81370166278587" lon="9.977542673651596"><ele>1302.6666666666665</ele><time>2026-04-26T10:00:41.999Z</time></trkpt><trkpt lat="45.81368964826823" lon="9.977661201108521"><ele>1301.0</ele><time>2026-04-26T10:00:42.999Z</time></trkpt><trkpt lat="45.813709858569815" lon="9.977786937674637"><ele>1299.3333333333333</ele><time>2026-04-26T10:00:43.999Z</time></trkpt><trkpt lat="45.81375773193786" lon="9.977872111063089"><ele>1297.6666666666667</ele><time>2026-04-26T10:00:44.999Z</time></trkpt><trkpt lat="45.81381597280769" lon="9.977917304996614"><ele>1296.0</ele><time>2026-04-26T10:00:45.999Z</time></trkpt><trkpt lat="45.81389561098952" lon="9.977928771463487"><ele>1296.0</ele><time>2026-04-26T10:00:46.999Z</time></trkpt><trkpt lat="45.81398084670054" lon="9.977938208428238"><ele>1296.0</ele><time>2026-04-26T10:00:47.999Z</time></trkpt><trkpt lat="45.81404929581367" lon="9.977949176097415"><ele>1296.0</ele><time>2026-04-26T10:00:48.999Z</time></trkpt><trkpt lat="45.814117946644366" lon="9.977970348516655"><ele>1296.0</ele><time>2026-04-26T10:00:49.999Z</time></trkpt><trkpt lat="45.81418086240263" lon="9.97802777373005"><ele>1296.0</ele><time>2026-04-26T10:00:50.999Z</time></trkpt><trkpt lat="45.814251203617395" lon="9.978111065217323"><ele>1296.0</ele><time>2026-04-26T10:00:51.999Z</time></trkpt><trkpt lat="45.81433300813522" lon="9.978185246821878"><ele>1295.0</ele><time>2026-04-26T10:00:52.999Z</time></trkpt><trkpt lat="45.81442885174169" lon="9.978247621280325"><ele>1294.0</ele><time>2026-04-26T10:00:53.999Z</time></trkpt><trkpt lat="45.814531167921665" lon="9.97828310354039"><ele>1293.0</ele><time>2026-04-26T10:00:54.999Z</time></trkpt><trkpt lat="45.81463698667284" lon="9.978288472468687"><ele>1292.0</ele><time>2026-04-26T10:00:55.999Z</time></trkpt><trkpt lat="45.81472150274381" lon="9.978283930179652"><ele>1291.0</ele><time>2026-04-26T10:00:56.999Z</time></trkpt><trkpt lat="45.814792687831115" lon="9.978319837597557"><ele>1290.0</ele><time>2026-04-26T10:00:57.999Z</time></trkpt><trkpt lat="45.81486518440431" lon="9.978379194075883"><ele>1289.0</ele><time>2026-04-26T10:00:58.999Z</time></trkpt><trkpt lat="45.81493917030709" lon="9.978418344654784"><ele>1288.0</ele><time>2026-04-26T10:00:59.999Z</time></trkpt><trkpt lat="45.81502334573983" lon="9.978427134348161"><ele>1287.0</ele><time>2026-04-26T10:01:00.999Z</time></trkpt><trkpt lat="45.81513818986171" lon="9.978378013368769"><ele>1286.0</ele><time>2026-04-26T10:01:02.999Z</time></trkpt><trkpt lat="45.81521326246829" lon="9.978315509010962"><ele>1286.0</ele><time>2026-04-26T10:01:03.999Z</time></trkpt><trkpt lat="45.815294916342225" lon="9.978286954134276"><ele>1286.0</ele><time>2026-04-26T10:01:04.999Z</time></trkpt><trkpt lat="45.81536540180542" lon="9.97831347290862"><ele>1286.0</ele><time>2026-04-26T10:01:05.999Z</time></trkpt><trkpt lat="45.81544840192761" lon="9.978384478237237"><ele>1286.0</ele><time>2026-04-26T10:01:06.999Z</time></trkpt><trkpt lat="45.81556061703834" lon="9.978450000194591"><ele>1286.0</ele><time>2026-04-26T10:01:07.999Z</time></trkpt><trkpt lat="45.81566375512438" lon="9.978483559285053"><ele>1281.6</ele><time>2026-04-26T10:01:08.999Z</time></trkpt><trkpt lat="45.81575736927502" lon="9.978505699773923"><ele>1277.1999999999998</ele><time>2026-04-26T10:01:09.999Z</time></trkpt><trkpt lat="45.81583575026532" lon="9.978534944541195"><ele>1272.8000000000002</ele><time>2026-04-26T10:01:10.999Z</time></trkpt><trkpt lat="45.81597450328891" lon="9.97849354369859"><ele>1268.4</ele><time>2026-04-26T10:01:12.999Z</time></trkpt><trkpt lat="45.8160648138547" lon="9.978435518949874"><ele>1264.0</ele><time>2026-04-26T10:01:13.999Z</time></trkpt><trkpt lat="45.8161365429068" lon="9.978416435808143"><ele>1262.6000000000001</ele><time>2026-04-26T10:01:14.999Z</time></trkpt><trkpt lat="45.81622245835546" lon="9.978477150324494"><ele>1261.2</ele><time>2026-04-26T10:01:15.999Z</time></trkpt><trkpt lat="45.816332111309485" lon="9.978547126501795"><ele>1259.8000000000002</ele><time>2026-04-26T10:01:16.999Z</time></trkpt><trkpt lat="45.81643071594739" lon="9.978603547556004"><ele>1258.4</ele><time>2026-04-26T10:01:17.999Z</time></trkpt><trkpt lat="45.816497444366924" lon="9.978651221562334"><ele>1257.0</ele><time>2026-04-26T10:01:18.999Z</time></trkpt><trkpt lat="45.81662914900448" lon="9.978632347256937"><ele>1257.0</ele><time>2026-04-26T10:01:20.999Z</time></trkpt><trkpt lat="45.81672445949016" lon="9.978606452104508"><ele>1257.0</ele><time>2026-04-26T10:01:21.999Z</time></trkpt><trkpt lat="45.81680212139554" lon="9.978637231832478"><ele>1257.0</ele><time>2026-04-26T10:01:22.999Z</time></trkpt><trkpt lat="45.81687887911182" lon="9.978716336609667"><ele>1257.0</ele><time>2026-04-26T10:01:23.999Z</time></trkpt><trkpt lat="45.81695147372522" lon="9.978755613302164"><ele>1257.0</ele><time>2026-04-26T10:01:24.999Z</time></trkpt><trkpt lat="45.817059952962474" lon="9.9787552147626"><ele>1256.4</ele><time>2026-04-26T10:01:26.999Z</time></trkpt><trkpt lat="45.817134475683666" lon="9.978608445260184"><ele>1255.8000000000002</ele><time>2026-04-26T10:01:28.999Z</time></trkpt><trkpt lat="45.81715123332239" lon="9.9784831220342"><ele>1255.2</ele><time>2026-04-26T10:01:29.999Z</time></trkpt><trkpt lat="45.81718658630209" lon="9.97829973914455"><ele>1254.6000000000001</ele><time>2026-04-26T10:01:30.999Z</time></trkpt><trkpt lat="45.81719886567688" lon="9.978172852882599"><ele>1254.0</ele><time>2026-04-26T10:01:31.998Z</time></trkpt><trkpt lat="45.81723354353259" lon="9.978039154876015"><ele>1254.0</ele><time>2026-04-26T10:01:32.998Z</time></trkpt><trkpt lat="45.817285061518746" lon="9.977933317457383"><ele>1254.0</ele><time>2026-04-26T10:01:33.998Z</time></trkpt><trkpt lat="45.817342667791785" lon="9.977871071820601"><ele>1254.0</ele><time>2026-04-26T10:01:34.998Z</time></trkpt><trkpt lat="45.817391785213715" lon="9.97778187642068"><ele>1254.0</ele><time>2026-04-26T10:01:35.998Z</time></trkpt><trkpt lat="45.817464404027795" lon="9.97774360256089"><ele>1254.0</ele><time>2026-04-26T10:01:37Z</time></trkpt><trkpt lat="45.81758115010047" lon="9.977730281665949"><ele>1254.0</ele><time>2026-04-26T10:01:38Z</time></trkpt><trkpt lat="45.817703241864635" lon="9.977657910312578"><ele>1251.4</ele><time>2026-04-26T10:01:39Z</time></trkpt><trkpt lat="45.817814899376316" lon="9.977629662561228"><ele>1248.8000000000002</ele><time>2026-04-26T10:01:40Z</time></trkpt><trkpt lat="45.81790387675695" lon="9.977593344940486"><ele>1246.1999999999998</ele><time>2026-04-26T10:01:41Z</time></trkpt><trkpt lat="45.81801988315912" lon="9.977584611404865"><ele>1243.6</ele><time>2026-04-26T10:01:43Z</time></trkpt><trkpt lat="45.8180812233417" lon="9.977642499571969"><ele>1241.0</ele><time>2026-04-26T10:01:44Z</time></trkpt><trkpt lat="45.81814531037209" lon="9.97771558845061"><ele>1241.0</ele><time>2026-04-26T10:01:45Z</time></trkpt><trkpt lat="45.818200924415336" lon="9.977795192274746"><ele>1241.0</ele><time>2026-04-26T10:01:46Z</time></trkpt><trkpt lat="45.81824865327171" lon="9.977886398524625"><ele>1241.0</ele><time>2026-04-26T10:01:47Z</time></trkpt><trkpt lat="45.81830676885995" lon="9.977945827184449"><ele>1241.0</ele><time>2026-04-26T10:01:48Z</time></trkpt><trkpt lat="45.81838775214943" lon="9.978063546213043"><ele>1241.0</ele><time>2026-04-26T10:01:50Z</time></trkpt><trkpt lat="45.818457579338244" lon="9.978092325111481"><ele>1241.0</ele><time>2026-04-26T10:01:51Z</time></trkpt><trkpt lat="45.81852091270232" lon="9.978137834470129"><ele>1241.3333333333335</ele><time>2026-04-26T10:01:52Z</time></trkpt><trkpt lat="45.81859619992332" lon="9.978138769065673"><ele>1241.6666666666667</ele><time>2026-04-26T10:01:53Z</time></trkpt><trkpt lat="45.81866176636584" lon="9.978174251776986"><ele>1242.0</ele><time>2026-04-26T10:01:54Z</time></trkpt><trkpt lat="45.8187215612123" lon="9.978247537665466"><ele>1242.3333333333333</ele><time>2026-04-26T10:01:55Z</time></trkpt><trkpt lat="45.81877737236469" lon="9.978337032770272"><ele>1242.6666666666665</ele><time>2026-04-26T10:01:56Z</time></trkpt><trkpt lat="45.818840172623545" lon="9.97842202487741"><ele>1243.0</ele><time>2026-04-26T10:01:57Z</time></trkpt><trkpt lat="45.81890585989144" lon="9.978498502573673"><ele>1244.6</ele><time>2026-04-26T10:01:58Z</time></trkpt><trkpt lat="45.81898331339552" lon="9.97856582062695"><ele>1246.1999999999998</ele><time>2026-04-26T10:01:59Z</time></trkpt><trkpt lat="45.81905810821643" lon="9.978630828917298"><ele>1247.8</ele><time>2026-04-26T10:02:00Z</time></trkpt><trkpt lat="45.81915057310746" lon="9.978689404326827"><ele>1249.3999999999999</ele><time>2026-04-26T10:02:01Z</time></trkpt><trkpt lat="45.81924843983386" lon="9.978755270604488"><ele>1251.0</ele><time>2026-04-26T10:02:02Z</time></trkpt><trkpt lat="45.81933632248342" lon="9.97884363921607"><ele>1251.0</ele><time>2026-04-26T10:02:03Z</time></trkpt><trkpt lat="45.819394793645735" lon="9.978930175564226"><ele>1251.0</ele><time>2026-04-26T10:02:04Z</time></trkpt><trkpt lat="45.81946006079762" lon="9.979020022426125"><ele>1251.0</ele><time>2026-04-26T10:02:05Z</time></trkpt><trkpt lat="45.81951827434783" lon="9.979111286343691"><ele>1251.0</ele><time>2026-04-26T10:02:06Z</time></trkpt><trkpt lat="45.81957240309086" lon="9.9792308456903"><ele>1251.0</ele><time>2026-04-26T10:02:07Z</time></trkpt><trkpt lat="45.819606529914395" lon="9.979336009584115"><ele>1251.0</ele><time>2026-04-26T10:02:08Z</time></trkpt><trkpt lat="45.819628398092554" lon="9.97944643144181"><ele>1248.8</ele><time>2026-04-26T10:02:09Z</time></trkpt><trkpt lat="45.81969057618469" lon="9.979558305188139"><ele>1246.6</ele><time>2026-04-26T10:02:11Z</time></trkpt><trkpt lat="45.81973583912101" lon="9.979703991963554"><ele>1244.4</ele><time>2026-04-26T10:02:13Z</time></trkpt><trkpt lat="45.81978372169136" lon="9.979770796219626"><ele>1242.2</ele><time>2026-04-26T10:02:14Z</time></trkpt><trkpt lat="45.819791371359145" lon="9.979963578714134"><ele>1240.0</ele><time>2026-04-26T10:02:16Z</time></trkpt><trkpt lat="45.8197949823124" lon="9.98007540277271"><ele>1237.7142857142858</ele><time>2026-04-26T10:02:17Z</time></trkpt><trkpt lat="45.81983368608195" lon="9.980163387656"><ele>1235.4285714285713</ele><time>2026-04-26T10:02:18Z</time></trkpt><trkpt lat="45.81989522172527" lon="9.980219665827317"><ele>1233.142857142857</ele><time>2026-04-26T10:02:19Z</time></trkpt><trkpt lat="45.81996213608779" lon="9.980254225181001"><ele>1230.857142857143</ele><time>2026-04-26T10:02:20Z</time></trkpt><trkpt lat="45.82001279728818" lon="9.980330138877903"><ele>1228.5714285714287</ele><time>2026-04-26T10:02:21Z</time></trkpt><trkpt lat="45.820031224188455" lon="9.980430944564132"><ele>1226.2857142857142</ele><time>2026-04-26T10:02:22Z</time></trkpt><trkpt lat="45.820003232894166" lon="9.980515497501036"><ele>1224.0</ele><time>2026-04-26T10:02:22.999Z</time></trkpt><trkpt lat="45.82000011061363" lon="9.98060988800572"><ele>1224.0</ele><time>2026-04-26T10:02:23.999Z</time></trkpt><trkpt lat="45.820038030262765" lon="9.980701312452387"><ele>1224.0</ele><time>2026-04-26T10:02:24.999Z</time></trkpt><trkpt lat="45.820095279019576" lon="9.980784833067112"><ele>1224.0</ele><time>2026-04-26T10:02:25.999Z</time></trkpt><trkpt lat="45.82014795146252" lon="9.980870253731599"><ele>1224.0</ele><time>2026-04-26T10:02:26.999Z</time></trkpt><trkpt lat="45.82018686937986" lon="9.980956629914786"><ele>1224.0</ele><time>2026-04-26T10:02:27.999Z</time></trkpt><trkpt lat="45.82025908863995" lon="9.981067794501424"><ele>1224.0</ele><time>2026-04-26T10:02:29.999Z</time></trkpt><trkpt lat="45.82034445768572" lon="9.981062727983614"><ele>1223.3333333333333</ele><time>2026-04-26T10:02:31.999Z</time></trkpt><trkpt lat="45.82045506891747" lon="9.981030612820836"><ele>1222.6666666666667</ele><time>2026-04-26T10:02:33.999Z</time></trkpt><trkpt lat="45.82052039354172" lon="9.981052885787316"><ele>1222.0</ele><time>2026-04-26T10:02:34.999Z</time></trkpt><trkpt lat="45.8205919110141" lon="9.981088769851734"><ele>1221.3333333333335</ele><time>2026-04-26T10:02:35.999Z</time></trkpt><trkpt lat="45.82065881875993" lon="9.98110451196859"><ele>1220.6666666666667</ele><time>2026-04-26T10:02:36.999Z</time></trkpt><trkpt lat="45.82072803906047" lon="9.981076538771498"><ele>1220.0</ele><time>2026-04-26T10:02:37.999Z</time></trkpt><trkpt lat="45.82079744416516" lon="9.98102752630836"><ele>1220.0</ele><time>2026-04-26T10:02:38.999Z</time></trkpt><trkpt lat="45.820866283436615" lon="9.980977068165194"><ele>1220.0</ele><time>2026-04-26T10:02:39.999Z</time></trkpt><trkpt lat="45.82094139663147" lon="9.980922554546735"><ele>1220.0</ele><time>2026-04-26T10:02:40.999Z</time></trkpt><trkpt lat="45.821017528709625" lon="9.980866636897225"><ele>1220.0</ele><time>2026-04-26T10:02:41.999Z</time></trkpt><trkpt lat="45.8210944001428" lon="9.980822681685535"><ele>1220.0</ele><time>2026-04-26T10:02:42.999Z</time></trkpt><trkpt lat="45.82116717170546" lon="9.980778507243288"><ele>1220.0</ele><time>2026-04-26T10:02:43.999Z</time></trkpt><trkpt lat="45.82124272685642" lon="9.98072957274746"><ele>1220.8333333333335</ele><time>2026-04-26T10:02:44.999Z</time></trkpt><trkpt lat="45.82130859102238" lon="9.980652648076072"><ele>1221.6666666666667</ele><time>2026-04-26T10:02:45.999Z</time></trkpt><trkpt lat="45.82137959830007" lon="9.980581035881478"><ele>1222.5</ele><time>2026-04-26T10:02:46.999Z</time></trkpt><trkpt lat="45.821433286640456" lon="9.980500757684908"><ele>1223.3333333333333</ele><time>2026-04-26T10:02:47.999Z</time></trkpt><trkpt lat="45.821485568498325" lon="9.980434361446601"><ele>1224.1666666666665</ele><time>2026-04-26T10:02:48.999Z</time></trkpt><trkpt lat="45.821541400713365" lon="9.980369328659416"><ele>1225.0</ele><time>2026-04-26T10:02:49.999Z</time></trkpt><trkpt lat="45.821593727723894" lon="9.980306978114076"><ele>1225.0</ele><time>2026-04-26T10:02:50.999Z</time></trkpt><trkpt lat="45.8216475282641" lon="9.980246130223488"><ele>1225.0</ele><time>2026-04-26T10:02:51.999Z</time></trkpt><trkpt lat="45.821737944576725" lon="9.980184469476876"><ele>1225.0</ele><time>2026-04-26T10:02:53.999Z</time></trkpt><trkpt lat="45.82181174232565" lon="9.980114575383064"><ele>1225.0</ele><time>2026-04-26T10:02:54.999Z</time></trkpt><trkpt lat="45.821916903280545" lon="9.980056895044651"><ele>1225.0</ele><time>2026-04-26T10:02:55.999Z</time></trkpt><trkpt lat="45.8219866437085" lon="9.980032055049595"><ele>1225.0</ele><time>2026-04-26T10:02:56.999Z</time></trkpt><trkpt lat="45.8220524573101" lon="9.979949083435024"><ele>1226.1666666666665</ele><time>2026-04-26T10:02:57.999Z</time></trkpt><trkpt lat="45.82210097972021" lon="9.97986130945498"><ele>1227.3333333333333</ele><time>2026-04-26T10:02:58.999Z</time></trkpt><trkpt lat="45.82214300886447" lon="9.9797892989232"><ele>1228.5</ele><time>2026-04-26T10:02:59.999Z</time></trkpt><trkpt lat="45.82221288045232" lon="9.97972714019878"><ele>1229.6666666666667</ele><time>2026-04-26T10:03:00.999Z</time></trkpt><trkpt lat="45.82228516644174" lon="9.979724030765572"><ele>1230.8333333333335</ele><time>2026-04-26T10:03:01.999Z</time></trkpt><trkpt lat="45.82236707333814" lon="9.979760985764173"><ele>1232.0</ele><time>2026-04-26T10:03:02.999Z</time></trkpt><trkpt lat="45.82246933561808" lon="9.979819653225793"><ele>1232.0</ele><time>2026-04-26T10:03:03.999Z</time></trkpt><trkpt lat="45.822560771184385" lon="9.979839137233263"><ele>1232.0</ele><time>2026-04-26T10:03:04.999Z</time></trkpt><trkpt lat="45.822658380622364" lon="9.979846911889675"><ele>1232.0</ele><time>2026-04-26T10:03:05.999Z</time></trkpt><trkpt lat="45.82274216537658" lon="9.979842891203894"><ele>1232.0</ele><time>2026-04-26T10:03:06.999Z</time></trkpt><trkpt lat="45.82282693961348" lon="9.97982829983008"><ele>1232.0</ele><time>2026-04-26T10:03:07.999Z</time></trkpt><trkpt lat="45.82289889169434" lon="9.979806649605319"><ele>1232.0</ele><time>2026-04-26T10:03:08.999Z</time></trkpt><trkpt lat="45.82297204994001" lon="9.979802325434607"><ele>1232.5</ele><time>2026-04-26T10:03:09.999Z</time></trkpt><trkpt lat="45.823047693632745" lon="9.979808939628679"><ele>1233.0</ele><time>2026-04-26T10:03:10.999Z</time></trkpt><trkpt lat="45.82312255402057" lon="9.979821066300143"><ele>1233.5</ele><time>2026-04-26T10:03:11.999Z</time></trkpt><trkpt lat="45.82319839728131" lon="9.979826526681967"><ele>1234.0</ele><time>2026-04-26T10:03:12.999Z</time></trkpt><trkpt lat="45.82328098655195" lon="9.979838655289003"><ele>1234.5</ele><time>2026-04-26T10:03:13.999Z</time></trkpt><trkpt lat="45.82335465981097" lon="9.979832414544799"><ele>1235.0</ele><time>2026-04-26T10:03:14.999Z</time></trkpt><trkpt lat="45.82342445060401" lon="9.979823590241049"><ele>1236.1666666666667</ele><time>2026-04-26T10:03:15.999Z</time></trkpt><trkpt lat="45.82350200678383" lon="9.979793204485421"><ele>1237.3333333333335</ele><time>2026-04-26T10:03:16.999Z</time></trkpt><trkpt lat="45.82362007765324" lon="9.979738401749715"><ele>1238.5</ele><time>2026-04-26T10:03:18.999Z</time></trkpt><trkpt lat="45.823686558415815" lon="9.979729096756854"><ele>1239.6666666666667</ele><time>2026-04-26T10:03:19.999Z</time></trkpt><trkpt lat="45.8237643780766" lon="9.979725972160661"><ele>1240.8333333333333</ele><time>2026-04-26T10:03:20.999Z</time></trkpt><trkpt lat="45.82384341240723" lon="9.979733504226227"><ele>1242.0</ele><time>2026-04-26T10:03:21.999Z</time></trkpt><trkpt lat="45.82393395120791" lon="9.979781721706994"><ele>1242.0</ele><time>2026-04-26T10:03:22.999Z</time></trkpt><trkpt lat="45.82406112333351" lon="9.979854093255119"><ele>1242.0</ele><time>2026-04-26T10:03:23.999Z</time></trkpt><trkpt lat="45.82417617287451" lon="9.979918703591355"><ele>1242.0</ele><time>2026-04-26T10:03:24.999Z</time></trkpt><trkpt lat="45.82429624598589" lon="9.979942300183714"><ele>1242.0</ele><time>2026-04-26T10:03:25.999Z</time></trkpt><trkpt lat="45.82438371198131" lon="9.979943246312482"><ele>1246.8333333333333</ele><time>2026-04-26T10:03:26.999Z</time></trkpt><trkpt lat="45.82444860537045" lon="9.9799269354004"><ele>1251.6666666666667</ele><time>2026-04-26T10:03:27.999Z</time></trkpt><trkpt lat="45.82450910158455" lon="9.97988023112633"><ele>1256.5</ele><time>2026-04-26T10:03:28.999Z</time></trkpt><trkpt lat="45.8245444445592" lon="9.979770903428799"><ele>1261.3333333333335</ele><time>2026-04-26T10:03:29.999Z</time></trkpt><trkpt lat="45.82458054852389" lon="9.97963496399422"><ele>1266.1666666666667</ele><time>2026-04-26T10:03:30.999Z</time></trkpt><trkpt lat="45.82461148527621" lon="9.979510445074746"><ele>1271.0</ele><time>2026-04-26T10:03:31.999Z</time></trkpt><trkpt lat="45.82464366606591" lon="9.979396493468036"><ele>1271.0</ele><time>2026-04-26T10:03:32.999Z</time></trkpt><trkpt lat="45.82469079748993" lon="9.979288869183724"><ele>1271.0</ele><time>2026-04-26T10:03:33.999Z</time></trkpt><trkpt lat="45.82473279246604" lon="9.97919933728495"><ele>1271.0</ele><time>2026-04-26T10:03:34.999Z</time></trkpt><trkpt lat="45.824769114979205" lon="9.979100357798737"><ele>1271.0</ele><time>2026-04-26T10:03:35.999Z</time></trkpt><trkpt lat="45.824794162909235" lon="9.978972012060192"><ele>1271.0</ele><time>2026-04-26T10:03:36.999Z</time></trkpt><trkpt lat="45.824808286441204" lon="9.978844975792713"><ele>1271.0</ele><time>2026-04-26T10:03:37.999Z</time></trkpt><trkpt lat="45.824828667415865" lon="9.978736032163601"><ele>1269.2</ele><time>2026-04-26T10:03:38.998Z</time></trkpt><trkpt lat="45.824875431559846" lon="9.978642086349105"><ele>1267.3999999999999</ele><time>2026-04-26T10:03:39.998Z</time></trkpt><trkpt lat="45.82493382050213" lon="9.978513971816492"><ele>1265.6</ele><time>2026-04-26T10:03:40.998Z</time></trkpt><trkpt lat="45.82498745202751" lon="9.978357614058684"><ele>1263.8</ele><time>2026-04-26T10:03:41.998Z</time></trkpt><trkpt lat="45.82505211561143" lon="9.978222058763242"><ele>1262.0</ele><time>2026-04-26T10:03:43Z</time></trkpt><trkpt lat="45.82509903935918" lon="9.978091747116375"><ele>1262.4</ele><time>2026-04-26T10:03:44Z</time></trkpt><trkpt lat="45.8251425818415" lon="9.977953466952624"><ele>1262.8000000000002</ele><time>2026-04-26T10:03:45Z</time></trkpt><trkpt lat="45.82518729147151" lon="9.97781101019959"><ele>1263.2</ele><time>2026-04-26T10:03:46Z</time></trkpt><trkpt lat="45.82526132212951" lon="9.977693626941281"><ele>1263.6000000000001</ele><time>2026-04-26T10:03:47Z</time></trkpt><trkpt lat="45.82532316758114" lon="9.977579782444298"><ele>1264.0</ele><time>2026-04-26T10:03:48Z</time></trkpt><trkpt lat="45.82538173940839" lon="9.977485631654929"><ele>1264.0</ele><time>2026-04-26T10:03:49Z</time></trkpt><trkpt lat="45.82544675527492" lon="9.97740500613656"><ele>1264.0</ele><time>2026-04-26T10:03:50Z</time></trkpt><trkpt lat="45.82550917672644" lon="9.977324528620684"><ele>1264.0</ele><time>2026-04-26T10:03:51Z</time></trkpt><trkpt lat="45.825578104707034" lon="9.977222574356714"><ele>1264.0</ele><time>2026-04-26T10:03:52Z</time></trkpt><trkpt lat="45.825651295733394" lon="9.977145962674978"><ele>1264.0</ele><time>2026-04-26T10:03:53Z</time></trkpt><trkpt lat="45.82570328711709" lon="9.977066735862559"><ele>1264.0</ele><time>2026-04-26T10:03:54Z</time></trkpt><trkpt lat="45.82576679815863" lon="9.976935397396522"><ele>1264.0</ele><time>2026-04-26T10:03:55Z</time></trkpt><trkpt lat="45.82582209147174" lon="9.97678034390705"><ele>1264.0</ele><time>2026-04-26T10:03:57Z</time></trkpt><trkpt lat="45.8259047088005" lon="9.976738552540104"><ele>1264.0</ele><time>2026-04-26T10:03:58Z</time></trkpt><trkpt lat="45.82598506427969" lon="9.976713540238576"><ele>1264.0</ele><time>2026-04-26T10:03:59Z</time></trkpt><trkpt lat="45.8260587197415" lon="9.976673937186225"><ele>1264.0</ele><time>2026-04-26T10:04:00Z</time></trkpt><trkpt lat="45.82615758441346" lon="9.976683924936596"><ele>1266.4</ele><time>2026-04-26T10:04:01Z</time></trkpt><trkpt lat="45.826276008276835" lon="9.976687089887116"><ele>1268.8000000000002</ele><time>2026-04-26T10:04:02Z</time></trkpt><trkpt lat="45.82637060394618" lon="9.976696615939927"><ele>1271.1999999999998</ele><time>2026-04-26T10:04:03Z</time></trkpt><trkpt lat="45.82646682627982" lon="9.976709946585316"><ele>1273.6</ele><time>2026-04-26T10:04:04Z</time></trkpt><trkpt lat="45.826572540912395" lon="9.976708316550365"><ele>1276.0</ele><time>2026-04-26T10:04:05Z</time></trkpt><trkpt lat="45.82663822802264" lon="9.976701919928727"><ele>1275.0</ele><time>2026-04-26T10:04:06Z</time></trkpt><trkpt lat="45.82669766078095" lon="9.976656376608972"><ele>1274.0</ele><time>2026-04-26T10:04:07Z</time></trkpt><trkpt lat="45.82677799212477" lon="9.976529473453468"><ele>1273.0</ele><time>2026-04-26T10:04:09Z</time></trkpt><trkpt lat="45.82684593200761" lon="9.976408368354033"><ele>1272.0</ele><time>2026-04-26T10:04:10Z</time></trkpt><trkpt lat="45.82687418257459" lon="9.9762924497218"><ele>1271.0</ele><time>2026-04-26T10:04:11Z</time></trkpt><trkpt lat="45.82689909517294" lon="9.976078447580912"><ele>1272.8333333333335</ele><time>2026-04-26T10:04:13Z</time></trkpt><trkpt lat="45.826909531338906" lon="9.97597932592185"><ele>1274.6666666666667</ele><time>2026-04-26T10:04:14Z</time></trkpt><trkpt lat="45.82692769234836" lon="9.97587070038827"><ele>1276.5</ele><time>2026-04-26T10:04:15Z</time></trkpt><trkpt lat="45.82694947755023" lon="9.975729795714377"><ele>1278.3333333333333</ele><time>2026-04-26T10:04:16Z</time></trkpt><trkpt lat="45.82697813473175" lon="9.975577087453267"><ele>1280.1666666666665</ele><time>2026-04-26T10:04:17Z</time></trkpt><trkpt lat="45.82701268868756" lon="9.975461765420974"><ele>1282.0</ele><time>2026-04-26T10:04:18Z</time></trkpt><trkpt lat="45.827054482457" lon="9.975361828066436"><ele>1282.0</ele><time>2026-04-26T10:04:19Z</time></trkpt><trkpt lat="45.82709955152718" lon="9.97527463406012"><ele>1282.0</ele><time>2026-04-26T10:04:20Z</time></trkpt><trkpt lat="45.82715526901807" lon="9.975146922105438"><ele>1282.0</ele><time>2026-04-26T10:04:21Z</time></trkpt><trkpt lat="45.82724776577772" lon="9.975052574998827"><ele>1282.0</ele><time>2026-04-26T10:04:22Z</time></trkpt><trkpt lat="45.827293716574765" lon="9.97493870507128"><ele>1282.0</ele><time>2026-04-26T10:04:23Z</time></trkpt><trkpt lat="45.827320044371945" lon="9.974802201398873"><ele>1280.6666666666665</ele><time>2026-04-26T10:04:24Z</time></trkpt><trkpt lat="45.82734922763175" lon="9.974683070129771"><ele>1279.3333333333333</ele><time>2026-04-26T10:04:25Z</time></trkpt><trkpt lat="45.8273684439319" lon="9.974582886681517"><ele>1278.0</ele><time>2026-04-26T10:04:26Z</time></trkpt><trkpt lat="45.82739301164815" lon="9.974486303505953"><ele>1276.6666666666667</ele><time>2026-04-26T10:04:27Z</time></trkpt><trkpt lat="45.82739094457016" lon="9.974377306620593"><ele>1275.3333333333335</ele><time>2026-04-26T10:04:28Z</time></trkpt><trkpt lat="45.82739288005365" lon="9.974270931367236"><ele>1274.0</ele><time>2026-04-26T10:04:29Z</time></trkpt><trkpt lat="45.8274217936534" lon="9.974149109112089"><ele>1273.0</ele><time>2026-04-26T10:04:30Z</time></trkpt><trkpt lat="45.827434635371006" lon="9.974045260659736"><ele>1272.0</ele><time>2026-04-26T10:04:30.999Z</time></trkpt><trkpt lat="45.827415670221605" lon="9.973917148384876"><ele>1271.0</ele><time>2026-04-26T10:04:32.999Z</time></trkpt><trkpt lat="45.82744506029964" lon="9.973748670473702"><ele>1270.0</ele><time>2026-04-26T10:04:34.999Z</time></trkpt><trkpt lat="45.82746957688746" lon="9.973649287339311"><ele>1269.0</ele><time>2026-04-26T10:04:35.999Z</time></trkpt><trkpt lat="45.82748185332707" lon="9.97353787251374"><ele>1268.0</ele><time>2026-04-26T10:04:36.999Z</time></trkpt><trkpt lat="45.82747510193613" lon="9.973441384419905"><ele>1267.0</ele><time>2026-04-26T10:04:37.999Z</time></trkpt><trkpt lat="45.82748809175991" lon="9.97330463260592"><ele>1266.0</ele><time>2026-04-26T10:04:38.999Z</time></trkpt><trkpt lat="45.827482368651715" lon="9.973161167558477"><ele>1265.0</ele><time>2026-04-26T10:04:39.999Z</time></trkpt><trkpt lat="45.82747227673183" lon="9.973017959109216"><ele>1264.0</ele><time>2026-04-26T10:04:40.999Z</time></trkpt><trkpt lat="45.82745951015815" lon="9.9728865358842"><ele>1263.0</ele><time>2026-04-26T10:04:41.999Z</time></trkpt><trkpt lat="45.827443142595904" lon="9.972783834907286"><ele>1263.0</ele><time>2026-04-26T10:04:42.999Z</time></trkpt><trkpt lat="45.82743937910296" lon="9.97268058009411"><ele>1263.0</ele><time>2026-04-26T10:04:43.999Z</time></trkpt><trkpt lat="45.82743605608831" lon="9.972578380800078"><ele>1263.0</ele><time>2026-04-26T10:04:44.999Z</time></trkpt><trkpt lat="45.82745805329588" lon="9.972474482505891"><ele>1263.0</ele><time>2026-04-26T10:04:45.999Z</time></trkpt><trkpt lat="45.82750934946579" lon="9.972364300555519"><ele>1263.0</ele><time>2026-04-26T10:04:46.999Z</time></trkpt><trkpt lat="45.827561695119996" lon="9.972255614917154"><ele>1263.0</ele><time>2026-04-26T10:04:47.999Z</time></trkpt><trkpt lat="45.82762732887874" lon="9.972147863238645"><ele>1264.8</ele><time>2026-04-26T10:04:48.999Z</time></trkpt><trkpt lat="45.82773267187261" lon="9.972072631617639"><ele>1266.6</ele><time>2026-04-26T10:04:49.999Z</time></trkpt><trkpt lat="45.82777469465592" lon="9.971947993697926"><ele>1268.4</ele><time>2026-04-26T10:04:50.999Z</time></trkpt><trkpt lat="45.827803649239684" lon="9.971858797874285"><ele>1270.2</ele><time>2026-04-26T10:04:51.999Z</time></trkpt><trkpt lat="45.82783925366752" lon="9.971719136002285"><ele>1272.0</ele><time>2026-04-26T10:04:52.999Z</time></trkpt><trkpt lat="45.82789239505346" lon="9.971586263682044"><ele>1272.0</ele><time>2026-04-26T10:04:53.999Z</time></trkpt><trkpt lat="45.827927018052456" lon="9.971459042614683"><ele>1272.0</ele><time>2026-04-26T10:04:54.999Z</time></trkpt><trkpt lat="45.82796849691167" lon="9.9713205354254"><ele>1272.0</ele><time>2026-04-26T10:04:55.999Z</time></trkpt><trkpt lat="45.827996053800604" lon="9.971217955366445"><ele>1272.0</ele><time>2026-04-26T10:04:56.999Z</time></trkpt><trkpt lat="45.82802379658748" lon="9.971109901300194"><ele>1272.0</ele><time>2026-04-26T10:04:57.999Z</time></trkpt><trkpt lat="45.828051419740014" lon="9.970999855207127"><ele>1272.0</ele><time>2026-04-26T10:04:58.999Z</time></trkpt><trkpt lat="45.82806366497283" lon="9.970902814317155"><ele>1270.4</ele><time>2026-04-26T10:04:59.999Z</time></trkpt><trkpt lat="45.828102729538976" lon="9.97078606454908"><ele>1268.8000000000002</ele><time>2026-04-26T10:05:01.999Z</time></trkpt><trkpt lat="45.82812314422825" lon="9.97061983530067"><ele>1267.2</ele><time>2026-04-26T10:05:03.999Z</time></trkpt><trkpt lat="45.828154555347425" lon="9.970535748633694"><ele>1265.6000000000001</ele><time>2026-04-26T10:05:04.999Z</time></trkpt><trkpt lat="45.82817569681157" lon="9.97043547215755"><ele>1264.0</ele><time>2026-04-26T10:05:05.999Z</time></trkpt><trkpt lat="45.82818638916883" lon="9.970237081630652"><ele>1264.0</ele><time>2026-04-26T10:05:07.999Z</time></trkpt><trkpt lat="45.82821193987201" lon="9.970087867378204"><ele>1264.0</ele><time>2026-04-26T10:05:08.999Z</time></trkpt><trkpt lat="45.82825891128441" lon="9.969978883835118"><ele>1264.0</ele><time>2026-04-26T10:05:09.999Z</time></trkpt><trkpt lat="45.82830289682195" lon="9.9698200690559"><ele>1264.0</ele><time>2026-04-26T10:05:10.999Z</time></trkpt><trkpt lat="45.8283191457944" lon="9.969700798523297"><ele>1264.0</ele><time>2026-04-26T10:05:11.999Z</time></trkpt><trkpt lat="45.828340021754926" lon="9.96957905024031"><ele>1263.0</ele><time>2026-04-26T10:05:12.999Z</time></trkpt><trkpt lat="45.82834775558065" lon="9.969463860885588"><ele>1262.0</ele><time>2026-04-26T10:05:13.999Z</time></trkpt><trkpt lat="45.82835247090599" lon="9.969346962297438"><ele>1261.0</ele><time>2026-04-26T10:05:14.999Z</time></trkpt><trkpt lat="45.828367200390794" lon="9.9692026760176"><ele>1260.0</ele><time>2026-04-26T10:05:15.999Z</time></trkpt><trkpt lat="45.828364317247306" lon="9.969071911152222"><ele>1259.0</ele><time>2026-04-26T10:05:16.999Z</time></trkpt><trkpt lat="45.8283996404465" lon="9.968956129643507"><ele>1258.0</ele><time>2026-04-26T10:05:17.999Z</time></trkpt><trkpt lat="45.8284025437782" lon="9.96885954551728"><ele>1258.0</ele><time>2026-04-26T10:05:18.999Z</time></trkpt><trkpt lat="45.82839487191018" lon="9.968747993932599"><ele>1258.0</ele><time>2026-04-26T10:05:19.999Z</time></trkpt><trkpt lat="45.82841943608691" lon="9.968617529605124"><ele>1258.0</ele><time>2026-04-26T10:05:20.999Z</time></trkpt><trkpt lat="45.82844317176693" lon="9.96847598624432"><ele>1258.0</ele><time>2026-04-26T10:05:21.999Z</time></trkpt><trkpt lat="45.82849348361729" lon="9.968362085216302"><ele>1258.0</ele><time>2026-04-26T10:05:22.999Z</time></trkpt><trkpt lat="45.82852924291807" lon="9.968207613225577"><ele>1260.0</ele><time>2026-04-26T10:05:23.999Z</time></trkpt><trkpt lat="45.828555206434615" lon="9.968086354569037"><ele>1262.0</ele><time>2026-04-26T10:05:24.999Z</time></trkpt><trkpt lat="45.82858245768381" lon="9.967996457080597"><ele>1264.0</ele><time>2026-04-26T10:05:25.999Z</time></trkpt><trkpt lat="45.828627148875384" lon="9.967929336490192"><ele>1266.0</ele><time>2026-04-26T10:05:26.999Z</time></trkpt><trkpt lat="45.828711253129505" lon="9.967854030224448"><ele>1268.0</ele><time>2026-04-26T10:05:27.999Z</time></trkpt><trkpt lat="45.828787730516325" lon="9.967721148531977"><ele>1270.0</ele><time>2026-04-26T10:05:28.999Z</time></trkpt><trkpt lat="45.828869468070195" lon="9.96759749984774"><ele>1270.0</ele><time>2026-04-26T10:05:29.999Z</time></trkpt><trkpt lat="45.82899325599415" lon="9.967546155995338"><ele>1270.0</ele><time>2026-04-26T10:05:30.999Z</time></trkpt><trkpt lat="45.829096018421524" lon="9.967475950151648"><ele>1270.0</ele><time>2026-04-26T10:05:31.999Z</time></trkpt><trkpt lat="45.82919517794132" lon="9.967417131403545"><ele>1270.0</ele><time>2026-04-26T10:05:32.999Z</time></trkpt><trkpt lat="45.829279671342" lon="9.96737767099938"><ele>1270.0</ele><time>2026-04-26T10:05:33.999Z</time></trkpt><trkpt lat="45.82934972700065" lon="9.967349392392052"><ele>1270.4</ele><time>2026-04-26T10:05:34.999Z</time></trkpt><trkpt lat="45.82946241703114" lon="9.967250996172135"><ele>1270.8</ele><time>2026-04-26T10:05:36.999Z</time></trkpt><trkpt lat="45.82949626025804" lon="9.967153040361277"><ele>1271.2</ele><time>2026-04-26T10:05:37.999Z</time></trkpt><trkpt lat="45.82950718077704" lon="9.967013313207637"><ele>1271.6</ele><time>2026-04-26T10:05:38.999Z</time></trkpt><trkpt lat="45.82953169709536" lon="9.96683826887234"><ele>1272.0</ele><time>2026-04-26T10:05:39.999Z</time></trkpt><trkpt lat="45.82955001604754" lon="9.9666566533005"><ele>1272.0</ele><time>2026-04-26T10:05:40.999Z</time></trkpt><trkpt lat="45.82954938704274" lon="9.966451085469348"><ele>1272.0</ele><time>2026-04-26T10:05:41.999Z</time></trkpt><trkpt lat="45.829552535387926" lon="9.966277521297068"><ele>1272.0</ele><time>2026-04-26T10:05:42.999Z</time></trkpt><trkpt lat="45.829573395281834" lon="9.96613819520169"><ele>1272.0</ele><time>2026-04-26T10:05:43.999Z</time></trkpt><trkpt lat="45.82959844617695" lon="9.966011797954089"><ele>1272.0</ele><time>2026-04-26T10:05:44.999Z</time></trkpt><trkpt lat="45.82962490038621" lon="9.96591104561966"><ele>1272.0</ele><time>2026-04-26T10:05:45.999Z</time></trkpt><trkpt lat="45.82967048639369" lon="9.965704871766327"><ele>1272.0</ele><time>2026-04-26T10:05:47.998Z</time></trkpt><trkpt lat="45.82974060580254" lon="9.965606327549342"><ele>1272.0</ele><time>2026-04-26T10:05:49Z</time></trkpt><trkpt lat="45.82981502927577" lon="9.965486208718525"><ele>1272.0</ele><time>2026-04-26T10:05:50Z</time></trkpt><trkpt lat="45.82988559163182" lon="9.965361597878763"><ele>1271.0</ele><time>2026-04-26T10:05:51Z</time></trkpt><trkpt lat="45.82995348149413" lon="9.965222297203237"><ele>1270.0</ele><time>2026-04-26T10:05:52Z</time></trkpt><trkpt lat="45.83000471424587" lon="9.965087697967432"><ele>1269.0</ele><time>2026-04-26T10:05:53Z</time></trkpt><trkpt lat="45.830057071761004" lon="9.964957689171435"><ele>1268.0</ele><time>2026-04-26T10:05:54Z</time></trkpt><trkpt lat="45.83011757530693" lon="9.964857611461177"><ele>1267.0</ele><time>2026-04-26T10:05:55Z</time></trkpt><trkpt lat="45.83018660474763" lon="9.964775646264382"><ele>1270.0</ele><time>2026-04-26T10:05:56Z</time></trkpt><trkpt lat="45.83027092733273" lon="9.964663520893719"><ele>1273.0</ele><time>2026-04-26T10:05:57Z</time></trkpt><trkpt lat="45.83036300458725" lon="9.964542535101334"><ele>1276.0</ele><time>2026-04-26T10:05:58Z</time></trkpt><trkpt lat="45.830465159358006" lon="9.964426196661396"><ele>1279.0</ele><time>2026-04-26T10:05:59Z</time></trkpt><trkpt lat="45.83057073703558" lon="9.964318170510886"><ele>1279.0</ele><time>2026-04-26T10:06:00Z</time></trkpt><trkpt lat="45.8306822131397" lon="9.964221367697945"><ele>1279.0</ele><time>2026-04-26T10:06:01Z</time></trkpt><trkpt lat="45.83078512882584" lon="9.96414230258677"><ele>1279.0</ele><time>2026-04-26T10:06:02Z</time></trkpt><trkpt lat="45.83087647379645" lon="9.96408810855904"><ele>1279.0</ele><time>2026-04-26T10:06:03Z</time></trkpt><trkpt lat="45.83097226578668" lon="9.964055791124162"><ele>1279.0</ele><time>2026-04-26T10:06:04Z</time></trkpt><trkpt lat="45.83105185431179" lon="9.964010993768959"><ele>1278.0</ele><time>2026-04-26T10:06:05Z</time></trkpt><trkpt lat="45.83112609763305" lon="9.963954177272813"><ele>1277.0</ele><time>2026-04-26T10:06:06Z</time></trkpt><trkpt lat="45.83118845479796" lon="9.963910691806305"><ele>1276.0</ele><time>2026-04-26T10:06:07Z</time></trkpt><trkpt lat="45.83125738842146" lon="9.96384874941698"><ele>1275.0</ele><time>2026-04-26T10:06:08Z</time></trkpt><trkpt lat="45.831340509809266" lon="9.963804935930314"><ele>1274.0</ele><time>2026-04-26T10:06:09Z</time></trkpt><trkpt lat="45.831439251815645" lon="9.963796396810409"><ele>1273.0</ele><time>2026-04-26T10:06:10Z</time></trkpt><trkpt lat="45.83151781737487" lon="9.963780789947071"><ele>1273.0</ele><time>2026-04-26T10:06:11Z</time></trkpt><trkpt lat="45.83161091574854" lon="9.963692382067421"><ele>1273.0</ele><time>2026-04-26T10:06:12Z</time></trkpt><trkpt lat="45.8317234622128" lon="9.963602845380663"><ele>1273.0</ele><time>2026-04-26T10:06:13Z</time></trkpt><trkpt lat="45.83183341736275" lon="9.963512722134212"><ele>1273.0</ele><time>2026-04-26T10:06:14Z</time></trkpt><trkpt lat="45.83193554241074" lon="9.963441079080061"><ele>1268.5</ele><time>2026-04-26T10:06:15Z</time></trkpt><trkpt lat="45.83205055703331" lon="9.963361215177981"><ele>1264.0</ele><time>2026-04-26T10:06:16Z</time></trkpt><trkpt lat="45.83216092987728" lon="9.963331305640523"><ele>1259.5</ele><time>2026-04-26T10:06:17Z</time></trkpt><trkpt lat="45.832267566459265" lon="9.963281373336113"><ele>1255.0</ele><time>2026-04-26T10:06:18Z</time></trkpt><trkpt lat="45.83237680719796" lon="9.963227772477076"><ele>1255.0</ele><time>2026-04-26T10:06:19Z</time></trkpt><trkpt lat="45.83248591196432" lon="9.963176983461253"><ele>1255.0</ele><time>2026-04-26T10:06:20Z</time></trkpt><trkpt lat="45.83258459679891" lon="9.963118728973624"><ele>1255.0</ele><time>2026-04-26T10:06:21Z</time></trkpt><trkpt lat="45.832673990148194" lon="9.963067399477893"><ele>1255.0</ele><time>2026-04-26T10:06:22Z</time></trkpt><trkpt lat="45.832752062947925" lon="9.963007007693317"><ele>1255.0</ele><time>2026-04-26T10:06:23Z</time></trkpt><trkpt lat="45.832807336652685" lon="9.962929577906499"><ele>1254.2</ele><time>2026-04-26T10:06:24Z</time></trkpt><trkpt lat="45.83284600178559" lon="9.962816520780535"><ele>1253.4</ele><time>2026-04-26T10:06:26Z</time></trkpt><trkpt lat="45.83292679966355" lon="9.962658769294444"><ele>1252.6</ele><time>2026-04-26T10:07:39.999Z</time></trkpt><trkpt lat="45.83296010353524" lon="9.962527662086984"><ele>1251.8</ele><time>2026-04-26T10:07:40.999Z</time></trkpt><trkpt lat="45.83298739292789" lon="9.962357312344416"><ele>1251.0</ele><time>2026-04-26T10:07:41.999Z</time></trkpt><trkpt lat="45.83300015140463" lon="9.962198766607928"><ele>1251.0</ele><time>2026-04-26T10:07:42.999Z</time></trkpt><trkpt lat="45.83301427482038" lon="9.962028583129147"><ele>1251.0</ele><time>2026-04-26T10:07:43.999Z</time></trkpt><trkpt lat="45.83301774121573" lon="9.961864881560732"><ele>1251.0</ele><time>2026-04-26T10:07:44.999Z</time></trkpt><trkpt lat="45.83301456812259" lon="9.961731675830551"><ele>1251.0</ele><time>2026-04-26T10:07:45.999Z</time></trkpt><trkpt lat="45.83298629217265" lon="9.961596422008702"><ele>1251.0</ele><time>2026-04-26T10:07:46.999Z</time></trkpt><trkpt lat="45.83297465725789" lon="9.961458410602724"><ele>1252.5</ele><time>2026-04-26T10:07:47.999Z</time></trkpt><trkpt lat="45.83294793160442" lon="9.961290526342522"><ele>1254.0</ele><time>2026-04-26T10:07:48.999Z</time></trkpt><trkpt lat="45.83291469111369" lon="9.96112420541004"><ele>1255.5</ele><time>2026-04-26T10:07:49.999Z</time></trkpt><trkpt lat="45.83286658913259" lon="9.960939898421572"><ele>1257.0</ele><time>2026-04-26T10:07:50.999Z</time></trkpt><trkpt lat="45.83280567921195" lon="9.960772187264421"><ele>1258.25</ele><time>2026-04-26T10:07:51.999Z</time></trkpt><trkpt lat="45.83274401772358" lon="9.96062046206793"><ele>1259.5</ele><time>2026-04-26T10:07:52.999Z</time></trkpt><trkpt lat="45.8326806093406" lon="9.960480658015808"><ele>1260.75</ele><time>2026-04-26T10:07:53.998Z</time></trkpt><trkpt lat="45.83263486829062" lon="9.960335156276207"><ele>1262.0</ele><time>2026-04-26T10:07:55Z</time></trkpt><trkpt lat="45.83261044518002" lon="9.960165582409843"><ele>1262.1666666666667</ele><time>2026-04-26T10:07:56Z</time></trkpt><trkpt lat="45.83259091418231" lon="9.960006965751054"><ele>1262.3333333333335</ele><time>2026-04-26T10:07:57Z</time></trkpt><trkpt lat="45.832566206291276" lon="9.959872310987462"><ele>1262.5</ele><time>2026-04-26T10:07:58Z</time></trkpt><trkpt lat="45.832545389586876" lon="9.959767008028651"><ele>1262.6666666666667</ele><time>2026-04-26T10:07:59Z</time></trkpt><trkpt lat="45.832576851135414" lon="9.959660694981736"><ele>1262.8333333333333</ele><time>2026-04-26T10:08:00Z</time></trkpt><trkpt lat="45.83263443158552" lon="9.95958918764846"><ele>1263.0</ele><time>2026-04-26T10:08:01Z</time></trkpt><trkpt lat="45.83271869096307" lon="9.959406584461657"><ele>1265.0</ele><time>2026-04-26T10:08:03Z</time></trkpt><trkpt lat="45.832782065201904" lon="9.959288744396767"><ele>1267.0</ele><time>2026-04-26T10:08:04Z</time></trkpt><trkpt lat="45.83284622892591" lon="9.959192830339298"><ele>1269.0</ele><time>2026-04-26T10:08:05Z</time></trkpt><trkpt lat="45.83289481049672" lon="9.95908719568927"><ele>1271.0</ele><time>2026-04-26T10:08:06Z</time></trkpt><trkpt lat="45.832933481860785" lon="9.95896971733041"><ele>1273.0</ele><time>2026-04-26T10:08:07Z</time></trkpt><trkpt lat="45.83296210601085" lon="9.958808537809913"><ele>1273.1666666666665</ele><time>2026-04-26T10:08:08Z</time></trkpt><trkpt lat="45.83297481729099" lon="9.958709108271455"><ele>1273.3333333333333</ele><time>2026-04-26T10:08:09Z</time></trkpt><trkpt lat="45.83299742231667" lon="9.958581879872943"><ele>1273.5</ele><time>2026-04-26T10:08:10Z</time></trkpt><trkpt lat="45.832975907531925" lon="9.958462083335151"><ele>1273.6666666666667</ele><time>2026-04-26T10:08:11Z</time></trkpt><trkpt lat="45.832960593975464" lon="9.958355123056341"><ele>1273.8333333333335</ele><time>2026-04-26T10:08:12Z</time></trkpt><trkpt lat="45.83295700857734" lon="9.958250246242045"><ele>1274.0</ele><time>2026-04-26T10:08:13Z</time></trkpt><trkpt lat="45.8329492826888" lon="9.958132111918507"><ele>1272.8333333333335</ele><time>2026-04-26T10:08:14Z</time></trkpt><trkpt lat="45.83293156404948" lon="9.95800515457179"><ele>1271.6666666666667</ele><time>2026-04-26T10:08:15Z</time></trkpt><trkpt lat="45.832922120072325" lon="9.957893247770226"><ele>1270.5</ele><time>2026-04-26T10:08:16Z</time></trkpt><trkpt lat="45.83289834007926" lon="9.957768073982626"><ele>1269.3333333333333</ele><time>2026-04-26T10:08:17Z</time></trkpt><trkpt lat="45.832917305174405" lon="9.957633821004857"><ele>1268.1666666666665</ele><time>2026-04-26T10:08:18Z</time></trkpt><trkpt lat="45.83290980630781" lon="9.957503335907397"><ele>1267.0</ele><time>2026-04-26T10:08:19Z</time></trkpt><trkpt lat="45.83291587401139" lon="9.957377483876664"><ele>1265.6</ele><time>2026-04-26T10:08:20Z</time></trkpt><trkpt lat="45.832905329958756" lon="9.957278196353059"><ele>1264.2</ele><time>2026-04-26T10:08:21Z</time></trkpt><trkpt lat="45.83289694596029" lon="9.957140203556655"><ele>1262.8</ele><time>2026-04-26T10:08:23Z</time></trkpt><trkpt lat="45.832929519526296" lon="9.957004590479658"><ele>1261.4</ele><time>2026-04-26T10:09:01.999Z</time></trkpt><trkpt lat="45.83298863586877" lon="9.956910054482002"><ele>1260.0</ele><time>2026-04-26T10:09:03.999Z</time></trkpt><trkpt lat="45.83308260088396" lon="9.95683072325704"><ele>1260.0</ele><time>2026-04-26T10:09:05.999Z</time></trkpt><trkpt lat="45.83318319404811" lon="9.956712079989368"><ele>1260.0</ele><time>2026-04-26T10:09:07.999Z</time></trkpt><trkpt lat="45.83322279106681" lon="9.956612745139076"><ele>1260.0</ele><time>2026-04-26T10:09:08.999Z</time></trkpt><trkpt lat="45.83326407869716" lon="9.956516451013906"><ele>1260.0</ele><time>2026-04-26T10:09:09.999Z</time></trkpt><trkpt lat="45.833327085455565" lon="9.956428180098019"><ele>1260.0</ele><time>2026-04-26T10:09:10.999Z</time></trkpt><trkpt lat="45.833387813104984" lon="9.956384977870501"><ele>1260.0</ele><time>2026-04-26T10:09:11.999Z</time></trkpt><trkpt lat="45.83346303952148" lon="9.956364598804157"><ele>1260.6</ele><time>2026-04-26T10:09:12.999Z</time></trkpt><trkpt lat="45.83356119690206" lon="9.956316380687127"><ele>1261.2</ele><time>2026-04-26T10:09:13.999Z</time></trkpt><trkpt lat="45.83364649404373" lon="9.956252924772661"><ele>1261.8</ele><time>2026-04-26T10:09:14.999Z</time></trkpt><trkpt lat="45.833723838529195" lon="9.956180299459723"><ele>1262.4</ele><time>2026-04-26T10:09:15.999Z</time></trkpt><trkpt lat="45.83379246707897" lon="9.956118059710386"><ele>1263.0</ele><time>2026-04-26T10:09:16.999Z</time></trkpt><trkpt lat="45.83386389297754" lon="9.956058515328069"><ele>1263.0</ele><time>2026-04-26T10:09:17.999Z</time></trkpt><trkpt lat="45.83394229342039" lon="9.9559885291428"><ele>1263.0</ele><time>2026-04-26T10:09:18.999Z</time></trkpt><trkpt lat="45.83402352886241" lon="9.955910574841255"><ele>1263.0</ele><time>2026-04-26T10:09:19.999Z</time></trkpt><trkpt lat="45.83413016465352" lon="9.95582277945494"><ele>1263.0</ele><time>2026-04-26T10:09:20.999Z</time></trkpt><trkpt lat="45.83422427031719" lon="9.955760083669416"><ele>1263.0</ele><time>2026-04-26T10:09:21.999Z</time></trkpt><trkpt lat="45.834316444411975" lon="9.955697532895748"><ele>1264.0</ele><time>2026-04-26T10:09:22.999Z</time></trkpt><trkpt lat="45.83440302731543" lon="9.955660555526348"><ele>1265.0</ele><time>2026-04-26T10:09:23.999Z</time></trkpt><trkpt lat="45.83449913612257" lon="9.955643192447964"><ele>1266.0</ele><time>2026-04-26T10:09:24.999Z</time></trkpt><trkpt lat="45.83459641446699" lon="9.955638965853908"><ele>1267.0</ele><time>2026-04-26T10:09:25.999Z</time></trkpt><trkpt lat="45.834692300427236" lon="9.95563665238706"><ele>1268.0</ele><time>2026-04-26T10:09:26.999Z</time></trkpt><trkpt lat="45.834781377889975" lon="9.955627104252958"><ele>1268.0</ele><time>2026-04-26T10:09:27.999Z</time></trkpt><trkpt lat="45.83486945224556" lon="9.955614655899339"><ele>1268.0</ele><time>2026-04-26T10:09:28.999Z</time></trkpt><trkpt lat="45.83496016189255" lon="9.955611988864456"><ele>1268.0</ele><time>2026-04-26T10:09:29.999Z</time></trkpt><trkpt lat="45.83504905973179" lon="9.955605817002223"><ele>1268.0</ele><time>2026-04-26T10:09:30.999Z</time></trkpt><trkpt lat="45.835143984958165" lon="9.955596598200078"><ele>1268.0</ele><time>2026-04-26T10:09:31.999Z</time></trkpt><trkpt lat="45.83525326004191" lon="9.955580760974184"><ele>1269.8</ele><time>2026-04-26T10:09:32.999Z</time></trkpt><trkpt lat="45.83536853843231" lon="9.95555896496605"><ele>1271.6</ele><time>2026-04-26T10:09:33.999Z</time></trkpt><trkpt lat="45.83547134245105" lon="9.955549287300453"><ele>1273.4</ele><time>2026-04-26T10:09:34.999Z</time></trkpt><trkpt lat="45.835570668793935" lon="9.95553059369018"><ele>1275.2</ele><time>2026-04-26T10:09:35.999Z</time></trkpt><trkpt lat="45.83567603074888" lon="9.955506522127587"><ele>1277.0</ele><time>2026-04-26T10:09:36.999Z</time></trkpt><trkpt lat="45.83577260019106" lon="9.955485642724712"><ele>1277.0</ele><time>2026-04-26T10:09:37.999Z</time></trkpt><trkpt lat="45.83584909932517" lon="9.955473310016632"><ele>1277.0</ele><time>2026-04-26T10:09:38.999Z</time></trkpt><trkpt lat="45.83592477519951" lon="9.955470428825803"><ele>1277.0</ele><time>2026-04-26T10:09:39.999Z</time></trkpt><trkpt lat="45.83602585569701" lon="9.955488679589932"><ele>1277.0</ele><time>2026-04-26T10:09:40.999Z</time></trkpt><trkpt lat="45.83611746498952" lon="9.955509669909633"><ele>1277.0</ele><time>2026-04-26T10:09:41.999Z</time></trkpt><trkpt lat="45.836184601527236" lon="9.9555246108177"><ele>1277.0</ele><time>2026-04-26T10:09:42.999Z</time></trkpt><trkpt lat="45.83625227466159" lon="9.95553760369615"><ele>1279.6666666666667</ele><time>2026-04-26T10:09:43.999Z</time></trkpt><trkpt lat="45.83632078216552" lon="9.955534368351264"><ele>1282.3333333333335</ele><time>2026-04-26T10:09:44.999Z</time></trkpt><trkpt lat="45.836380375275255" lon="9.95550266660183"><ele>1285.0</ele><time>2026-04-26T10:09:46.999Z</time></trkpt><trkpt lat="45.83645306258716" lon="9.955513623361075"><ele>1287.6666666666667</ele><time>2026-04-26T10:09:48.999Z</time></trkpt><trkpt lat="45.8365271894679" lon="9.955496620418215"><ele>1290.3333333333333</ele><time>2026-04-26T10:10:01Z</time></trkpt><trkpt lat="45.83656759451541" lon="9.955390747128265"><ele>1293.0</ele><time>2026-04-26T10:10:04Z</time></trkpt><trkpt lat="45.8366122564395" lon="9.955272379046631"><ele>1293.0</ele><time>2026-04-26T10:10:06Z</time></trkpt><trkpt lat="45.83667762154937" lon="9.95522025984579"><ele>1293.0</ele><time>2026-04-26T10:10:09Z</time></trkpt><trkpt lat="45.83674248296735" lon="9.955287466431669"><ele>1293.0</ele><time>2026-04-26T10:10:11Z</time></trkpt><trkpt lat="45.83684894041683" lon="9.955393298864417"><ele>1293.0</ele><time>2026-04-26T10:10:14Z</time></trkpt><trkpt lat="45.836917164563914" lon="9.955385523039434"><ele>1293.0</ele><time>2026-04-26T10:10:15Z</time></trkpt><trkpt lat="45.836998967047734" lon="9.95534184361192"><ele>1293.0</ele><time>2026-04-26T10:10:17Z</time></trkpt><trkpt lat="45.837120226701174" lon="9.955307068680474"><ele>1294.8333333333333</ele><time>2026-04-26T10:10:20Z</time></trkpt><trkpt lat="45.83721729551161" lon="9.955246260609293"><ele>1296.6666666666667</ele><time>2026-04-26T10:10:22Z</time></trkpt><trkpt lat="45.837276990681296" lon="9.955137602428847"><ele>1298.5</ele><time>2026-04-26T10:10:25Z</time></trkpt><trkpt lat="45.83733591936087" lon="9.95508570997034"><ele>1300.3333333333335</ele><time>2026-04-26T10:10:27Z</time></trkpt><trkpt lat="45.83741418581854" lon="9.955033859578718"><ele>1302.1666666666667</ele><time>2026-04-26T10:10:29Z</time></trkpt><trkpt lat="45.83747195516908" lon="9.954976614359346"><ele>1304.0</ele><time>2026-04-26T10:10:31Z</time></trkpt><trkpt lat="45.83756295811037" lon="9.954922220393202"><ele>1304.0</ele><time>2026-04-26T10:10:33Z</time></trkpt><trkpt lat="45.83763269845343" lon="9.954943155801253"><ele>1304.0</ele><time>2026-04-26T10:10:36Z</time></trkpt><trkpt lat="45.83770061904687" lon="9.954879695344406"><ele>1304.0</ele><time>2026-04-26T10:10:42Z</time></trkpt><trkpt lat="45.837751816303246" lon="9.954826331502682"><ele>1304.0</ele><time>2026-04-26T10:10:45Z</time></trkpt><trkpt lat="45.83781583026971" lon="9.954756550976294"><ele>1304.0</ele><time>2026-04-26T10:10:48Z</time></trkpt><trkpt lat="45.8378761399271" lon="9.954711271991048"><ele>1304.0</ele><time>2026-04-26T10:10:49Z</time></trkpt><trkpt lat="45.83800925319547" lon="9.954617476176454"><ele>1309.3333333333335</ele><time>2026-04-26T10:10:50Z</time></trkpt><trkpt lat="45.83810071989774" lon="9.954607318025092"><ele>1314.6666666666667</ele><time>2026-04-26T10:10:52Z</time></trkpt><trkpt lat="45.838176128408776" lon="9.954632398530133"><ele>1320.0</ele><time>2026-04-26T10:10:55.999Z</time></trkpt><trkpt lat="45.83818991608623" lon="9.954531805949943"><ele>1325.3333333333333</ele><time>2026-04-26T10:10:58.999Z</time></trkpt><trkpt lat="45.83822538071089" lon="9.954409603851161"><ele>1330.6666666666665</ele><time>2026-04-26T10:11:01.999Z</time></trkpt><trkpt lat="45.83828326830956" lon="9.954318313649335"><ele>1336.0</ele><time>2026-04-26T10:11:03.999Z</time></trkpt><trkpt lat="45.838363405898015" lon="9.954376750877712"><ele>1336.0</ele><time>2026-04-26T10:11:06.999Z</time></trkpt><trkpt lat="45.83833400944222" lon="9.954467008345343"><ele>1336.0</ele><time>2026-04-26T10:11:08.999Z</time></trkpt><trkpt lat="45.83837004851584" lon="9.954555333088448"><ele>1336.0</ele><time>2026-04-26T10:11:48.999Z</time></trkpt><trkpt lat="45.83843999577602" lon="9.954554975916546"><ele>1336.0</ele><time>2026-04-26T10:11:52.999Z</time></trkpt><trkpt lat="45.83850654994848" lon="9.954492934807696"><ele>1336.0</ele><time>2026-04-26T10:11:55.999Z</time></trkpt><trkpt lat="45.838559862499174" lon="9.954388653689218"><ele>1336.0</ele><time>2026-04-26T10:11:59.999Z</time></trkpt><trkpt lat="45.83862725842634" lon="9.954376655690536"><ele>1336.0</ele><time>2026-04-26T10:12:02.999Z</time></trkpt><trkpt lat="45.838701815658" lon="9.954382089492425"><ele>1342.0</ele><time>2026-04-26T10:12:07Z</time></trkpt><trkpt lat="45.83876320594596" lon="9.954435074360601"><ele>1348.0</ele><time>2026-04-26T10:12:11Z</time></trkpt><trkpt lat="45.838830906750665" lon="9.954444690967719"><ele>1354.0</ele><time>2026-04-26T10:12:15Z</time></trkpt><trkpt lat="45.83889494081445" lon="9.954465446445523"><ele>1360.0</ele><time>2026-04-26T10:12:19Z</time></trkpt><trkpt lat="45.83897868153331" lon="9.954475388612256"><ele>1366.0</ele><time>2026-04-26T10:12:23Z</time></trkpt><trkpt lat="45.83905165167997" lon="9.954382026930503"><ele>1372.0</ele><time>2026-04-26T10:13:21.999Z</time></trkpt><trkpt lat="45.83907860321769" lon="9.95429905844239"><ele>1372.0</ele><time>2026-04-26T10:13:25.999Z</time></trkpt><trkpt lat="45.83911740260762" lon="9.954226212798972"><ele>1372.0</ele><time>2026-04-26T10:13:27.999Z</time></trkpt><trkpt lat="45.8391761490978" lon="9.954151283965226"><ele>1372.0</ele><time>2026-04-26T10:13:29.999Z</time></trkpt><trkpt lat="45.83925364329528" lon="9.954097849411337"><ele>1372.0</ele><time>2026-04-26T10:13:31.999Z</time></trkpt><trkpt lat="45.839269255149716" lon="9.953980990301972"><ele>1372.0</ele><time>2026-04-26T10:13:33.999Z</time></trkpt><trkpt lat="45.83928292615528" lon="9.953861311569955"><ele>1372.0</ele><time>2026-04-26T10:13:35.999Z</time></trkpt><trkpt lat="45.83927426015105" lon="9.953766151021286"><ele>1376.1666666666665</ele><time>2026-04-26T10:13:37.999Z</time></trkpt><trkpt lat="45.83935353161034" lon="9.953656348311778"><ele>1380.3333333333333</ele><time>2026-04-26T10:13:40.999Z</time></trkpt><trkpt lat="45.83940405198017" lon="9.953577290710621"><ele>1384.5</ele><time>2026-04-26T10:13:43.999Z</time></trkpt><trkpt lat="45.83945603128824" lon="9.953480582814406"><ele>1388.6666666666667</ele><time>2026-04-26T10:13:45.999Z</time></trkpt><trkpt lat="45.839532298177296" lon="9.953436231701033"><ele>1392.8333333333335</ele><time>2026-04-26T10:13:47.999Z</time></trkpt><trkpt lat="45.83958553868198" lon="9.953384361150487"><ele>1397.0</ele><time>2026-04-26T10:13:54.999Z</time></trkpt><trkpt lat="45.83967291735086" lon="9.953389770837308"><ele>1397.0</ele><time>2026-04-26T10:13:56.999Z</time></trkpt><trkpt lat="45.839769999724474" lon="9.953402687584974"><ele>1397.0</ele><time>2026-04-26T10:13:59.999Z</time></trkpt><trkpt lat="45.83982910771144" lon="9.953340880016645"><ele>1397.0</ele><time>2026-04-26T10:14:01.999Z</time></trkpt><trkpt lat="45.83988781931039" lon="9.953374222517901"><ele>1397.0</ele><time>2026-04-26T10:14:03.999Z</time></trkpt><trkpt lat="45.839953809411185" lon="9.953393447204327"><ele>1397.0</ele><time>2026-04-26T10:14:04.999Z</time></trkpt><trkpt lat="45.84002265045497" lon="9.953415894744095"><ele>1397.0</ele><time>2026-04-26T10:14:06.999Z</time></trkpt><trkpt lat="45.84010018179875" lon="9.95349129692875"><ele>1401.3333333333335</ele><time>2026-04-26T10:14:09.999Z</time></trkpt><trkpt lat="45.840166778363766" lon="9.953482400342208"><ele>1405.6666666666667</ele><time>2026-04-26T10:14:11.999Z</time></trkpt><trkpt lat="45.84025379805662" lon="9.953466904104024"><ele>1410.0</ele><time>2026-04-26T10:14:15Z</time></trkpt><trkpt lat="45.840314880461015" lon="9.953402944401143"><ele>1414.3333333333333</ele><time>2026-04-26T10:14:21Z</time></trkpt><trkpt lat="45.84030259547994" lon="9.953293260179624"><ele>1418.6666666666665</ele><time>2026-04-26T10:14:24Z</time></trkpt><trkpt lat="45.84032028357723" lon="9.953169785914575"><ele>1423.0</ele><time>2026-04-26T10:14:27Z</time></trkpt><trkpt lat="45.84036913044752" lon="9.953102911281572"><ele>1423.0</ele><time>2026-04-26T10:14:38Z</time></trkpt><trkpt lat="45.84042521539635" lon="9.95303731354429"><ele>1423.0</ele><time>2026-04-26T10:14:44Z</time></trkpt><trkpt lat="45.84048692281226" lon="9.95301604799114"><ele>1423.0</ele><time>2026-04-26T10:15:39.999Z</time></trkpt><trkpt lat="45.840518330517" lon="9.952914035248494"><ele>1423.0</ele><time>2026-04-26T10:16:52Z</time></trkpt><trkpt lat="45.840499920810274" lon="9.952748847097741"><ele>1423.0</ele><time>2026-04-26T10:21:30.999Z</time></trkpt><trkpt lat="45.8404826781493" lon="9.952656920227101"><ele>1423.0</ele><time>2026-04-26T10:22:02.999Z</time></trkpt><trkpt lat="45.840490197115145" lon="9.952562587754754"><ele>1423.0</ele><time>2026-04-26T10:22:10.999Z</time></trkpt><trkpt lat="45.84049053169481" lon="9.952665055220685"><ele>1423.0</ele><time>2026-04-26T10:22:43Z</time></trkpt><trkpt lat="45.84049661853353" lon="9.952783075086947"><ele>1423.0</ele><time>2026-04-26T10:23:24Z</time></trkpt><trkpt lat="45.84051294832165" lon="9.952873107491989"><ele>1423.0</ele><time>2026-04-26T10:27:03Z</time></trkpt><trkpt lat="45.84051293413813" lon="9.952767240747932"><ele>1423.0</ele><time>2026-04-26T10:29:51Z</time></trkpt><trkpt lat="45.840491917965664" lon="9.95264185095867"><ele>1423.0</ele><time>2026-04-26T10:30:46.999Z</time></trkpt><trkpt lat="45.84050652907424" lon="9.952536411637269"><ele>1422.1666666666665</ele><time>2026-04-26T10:31:11Z</time></trkpt><trkpt lat="45.84058893154045" lon="9.952499916765678"><ele>1421.3333333333333</ele><time>2026-04-26T10:31:13Z</time></trkpt><trkpt lat="45.840595713054185" lon="9.952393664177986"><ele>1420.5</ele><time>2026-04-26T10:31:28Z</time></trkpt><trkpt lat="45.84066374035901" lon="9.952348414839241"><ele>1419.6666666666667</ele><time>2026-04-26T10:31:32Z</time></trkpt><trkpt lat="45.840697819175205" lon="9.952251438678276"><ele>1418.8333333333335</ele><time>2026-04-26T10:31:36Z</time></trkpt><trkpt lat="45.84075844957909" lon="9.952198076049502"><ele>1418.0</ele><time>2026-04-26T10:31:39Z</time></trkpt><trkpt lat="45.84073670021782" lon="9.95209661283449"><ele>1418.0</ele><time>2026-04-26T10:31:41Z</time></trkpt><trkpt lat="45.840714093427216" lon="9.951984469900967"><ele>1418.0</ele><time>2026-04-26T10:31:43Z</time></trkpt><trkpt lat="45.84066945069919" lon="9.951886574407462"><ele>1418.0</ele><time>2026-04-26T10:31:45Z</time></trkpt><trkpt lat="45.84065178393427" lon="9.951790303429686"><ele>1418.0</ele><time>2026-04-26T10:31:48Z</time></trkpt><trkpt lat="45.840623660104896" lon="9.951701966275811"><ele>1418.0</ele><time>2026-04-26T10:31:51Z</time></trkpt><trkpt lat="45.84056617354358" lon="9.95161526137136"><ele>1418.0</ele><time>2026-04-26T10:31:54Z</time></trkpt><trkpt lat="45.84048317953974" lon="9.951511408110047"><ele>1418.5</ele><time>2026-04-26T10:31:55Z</time></trkpt><trkpt lat="45.840452880799305" lon="9.951407592210636"><ele>1419.0</ele><time>2026-04-26T10:31:58Z</time></trkpt><trkpt lat="45.84045778385652" lon="9.951293599111247"><ele>1419.5</ele><time>2026-04-26T10:32:00Z</time></trkpt><trkpt lat="45.84045077280649" lon="9.951170270981532"><ele>1420.0</ele><time>2026-04-26T10:32:02.999Z</time></trkpt><trkpt lat="45.840480300702666" lon="9.951079762926279"><ele>1420.5</ele><time>2026-04-26T10:33:12Z</time></trkpt><trkpt lat="45.84047967830359" lon="9.950974388724275"><ele>1421.0</ele><time>2026-04-26T10:33:16Z</time></trkpt><trkpt lat="45.84050214932581" lon="9.950876351099495"><ele>1421.4285714285713</ele><time>2026-04-26T10:33:19Z</time></trkpt><trkpt lat="45.840548038494134" lon="9.950812047638376"><ele>1421.857142857143</ele><time>2026-04-26T10:33:56.999Z</time></trkpt><trkpt lat="45.8405660421623" lon="9.95072189216827"><ele>1422.2857142857142</ele><time>2026-04-26T10:34:04.999Z</time></trkpt><trkpt lat="45.84051873000669" lon="9.950786465574309"><ele>1422.7142857142858</ele><time>2026-04-26T10:34:45.999Z</time></trkpt><trkpt lat="45.8405723616453" lon="9.95070635585457"><ele>1423.142857142857</ele><time>2026-04-26T10:35:06.999Z</time></trkpt><trkpt lat="45.84060977453012" lon="9.95060453568603"><ele>1423.5714285714284</ele><time>2026-04-26T10:35:11.999Z</time></trkpt><trkpt lat="45.84060262176496" lon="9.950512964283499"><ele>1424.0</ele><time>2026-04-26T10:35:36Z</time></trkpt><trkpt lat="45.84062894183935" lon="9.950414880803034"><ele>1424.0</ele><time>2026-04-26T10:35:39Z</time></trkpt><trkpt lat="45.84066716037072" lon="9.950324304805145"><ele>1424.0</ele><time>2026-04-26T10:35:44Z</time></trkpt><trkpt lat="45.84072337061599" lon="9.950265662886691"><ele>1424.0</ele><time>2026-04-26T10:35:48Z</time></trkpt><trkpt lat="45.84070622939693" lon="9.950143525950507"><ele>1424.0</ele><time>2026-04-26T10:35:54Z</time></trkpt><trkpt lat="45.84071022125779" lon="9.950022913116559"><ele>1424.0</ele><time>2026-04-26T10:35:56Z</time></trkpt><trkpt lat="45.84070407877247" lon="9.949920061277238"><ele>1424.0</ele><time>2026-04-26T10:35:58Z</time></trkpt><trkpt lat="45.840726348890875" lon="9.949780845300873"><ele>1422.5</ele><time>2026-04-26T10:36:00Z</time></trkpt><trkpt lat="45.84076655808713" lon="9.949647728782283"><ele>1421.0</ele><time>2026-04-26T10:36:02Z</time></trkpt><trkpt lat="45.84080383940046" lon="9.949568601454446"><ele>1419.5</ele><time>2026-04-26T10:36:05Z</time></trkpt><trkpt lat="45.84084757245308" lon="9.94949038792543"><ele>1418.0</ele><time>2026-04-26T10:36:08Z</time></trkpt><trkpt lat="45.84090860017379" lon="9.949432141575311"><ele>1416.5</ele><time>2026-04-26T10:36:17.999Z</time></trkpt><trkpt lat="45.84088630633402" lon="9.949324814607229"><ele>1415.0</ele><time>2026-04-26T10:36:22.999Z</time></trkpt><trkpt lat="45.84086475565363" lon="9.949230029657707"><ele>1415.1666666666667</ele><time>2026-04-26T10:36:24.999Z</time></trkpt><trkpt lat="45.84084636712896" lon="9.949122921993924"><ele>1415.3333333333335</ele><time>2026-04-26T10:36:27.999Z</time></trkpt><trkpt lat="45.8408278275748" lon="9.94903323126438"><ele>1415.5</ele><time>2026-04-26T10:36:30.999Z</time></trkpt><trkpt lat="45.84082000053431" lon="9.948901961367136"><ele>1415.6666666666667</ele><time>2026-04-26T10:36:32.999Z</time></trkpt><trkpt lat="45.84083628501235" lon="9.948813658980447"><ele>1415.8333333333333</ele><time>2026-04-26T10:36:34.999Z</time></trkpt><trkpt lat="45.84086842824025" lon="9.948697763473549"><ele>1416.0</ele><time>2026-04-26T10:36:36.999Z</time></trkpt><trkpt lat="45.840897740519026" lon="9.948598329211507"><ele>1416.0</ele><time>2026-04-26T10:36:39.999Z</time></trkpt><trkpt lat="45.84093117933146" lon="9.948508805631986"><ele>1416.0</ele><time>2026-04-26T10:36:42.999Z</time></trkpt><trkpt lat="45.840992590724575" lon="9.948430637209247"><ele>1416.0</ele><time>2026-04-26T10:36:46.999Z</time></trkpt><trkpt lat="45.841014056184164" lon="9.948342736028954"><ele>1416.0</ele><time>2026-04-26T10:36:49.999Z</time></trkpt><trkpt lat="45.840993159924984" lon="9.948251930189919"><ele>1416.0</ele><time>2026-04-26T10:36:52.999Z</time></trkpt><trkpt lat="45.840985064673916" lon="9.94812668789925"><ele>1416.0</ele><time>2026-04-26T10:36:55.999Z</time></trkpt><trkpt lat="45.84099838765007" lon="9.948001451366398"><ele>1425.5</ele><time>2026-04-26T10:36:58.999Z</time></trkpt><trkpt lat="45.841008336664785" lon="9.947910938286054"><ele>1435.0</ele><time>2026-04-26T10:37:02.999Z</time></trkpt><trkpt lat="45.8410188598009" lon="9.947807457629247"><ele>1444.5</ele><time>2026-04-26T10:37:08.999Z</time></trkpt><trkpt lat="45.841028029714565" lon="9.947661851305025"><ele>1454.0</ele><time>2026-04-26T10:37:10.999Z</time></trkpt><trkpt lat="45.8410117973701" lon="9.947518382593495"><ele>1463.5</ele><time>2026-04-26T10:37:12.999Z</time></trkpt><trkpt lat="45.84100443868925" lon="9.947386879519078"><ele>1473.0</ele><time>2026-04-26T10:37:14.999Z</time></trkpt><trkpt lat="45.841002892900185" lon="9.947263938545408"><ele>1473.0</ele><time>2026-04-26T10:37:17.999Z</time></trkpt><trkpt lat="45.841009484020425" lon="9.947163582333928"><ele>1473.0</ele><time>2026-04-26T10:37:20Z</time></trkpt><trkpt lat="45.84100825244473" lon="9.947015985010808"><ele>1473.0</ele><time>2026-04-26T10:37:23Z</time></trkpt><trkpt lat="45.84102877382833" lon="9.946888910753"><ele>1473.0</ele><time>2026-04-26T10:37:26Z</time></trkpt><trkpt lat="45.84105791549854" lon="9.946745895186218"><ele>1473.0</ele><time>2026-04-26T10:37:27Z</time></trkpt><trkpt lat="45.841068204584346" lon="9.946626579632355"><ele>1473.5</ele><time>2026-04-26T10:37:35Z</time></trkpt><trkpt lat="45.84111851729685" lon="9.946570643926117"><ele>1474.0</ele><time>2026-04-26T10:37:38Z</time></trkpt><trkpt lat="45.84117166079443" lon="9.946506470295056"><ele>1474.5</ele><time>2026-04-26T10:37:42Z</time></trkpt><trkpt lat="45.84123326691385" lon="9.946452364237095"><ele>1475.0</ele><time>2026-04-26T10:37:45Z</time></trkpt><trkpt lat="45.8412754671415" lon="9.946327943466526"><ele>1475.5</ele><time>2026-04-26T10:38:27Z</time></trkpt><trkpt lat="45.841300779335604" lon="9.94615274567007"><ele>1476.0</ele><time>2026-04-26T10:38:29Z</time></trkpt><trkpt lat="45.841331779927756" lon="9.945974481358606"><ele>1476.0</ele><time>2026-04-26T10:38:31Z</time></trkpt><trkpt lat="45.84137396424288" lon="9.945903598644392"><ele>1476.0</ele><time>2026-04-26T10:38:32Z</time></trkpt><trkpt lat="45.84141213547239" lon="9.945815889521095"><ele>1476.0</ele><time>2026-04-26T10:38:32.999Z</time></trkpt><trkpt lat="45.84145697502253" lon="9.945671756388718"><ele>1476.0</ele><time>2026-04-26T10:38:34.999Z</time></trkpt><trkpt lat="45.84146003852525" lon="9.9455725565391"><ele>1476.0</ele><time>2026-04-26T10:38:35.999Z</time></trkpt><trkpt lat="45.841502199954945" lon="9.945421239117366"><ele>1476.0</ele><time>2026-04-26T10:38:37.999Z</time></trkpt><trkpt lat="45.841540289705236" lon="9.945276556978234"><ele>1476.8333333333333</ele><time>2026-04-26T10:38:39.999Z</time></trkpt><trkpt lat="45.841585088058025" lon="9.94520656900151"><ele>1477.6666666666667</ele><time>2026-04-26T10:38:40.999Z</time></trkpt><trkpt lat="45.84164358852228" lon="9.945111617051127"><ele>1478.5</ele><time>2026-04-26T10:38:41.999Z</time></trkpt><trkpt lat="45.84170491071065" lon="9.945027328306093"><ele>1479.3333333333335</ele><time>2026-04-26T10:38:43.999Z</time></trkpt><trkpt lat="45.84177468021827" lon="9.944969018806836"><ele>1480.1666666666667</ele><time>2026-04-26T10:43:29.999Z</time></trkpt><trkpt lat="45.84182026043082" lon="9.944888997204135"><ele>1481.0</ele><time>2026-04-26T10:43:31.999Z</time></trkpt><trkpt lat="45.84186517781963" lon="9.944777742757557"><ele>1483.8333333333335</ele><time>2026-04-26T10:43:33.999Z</time></trkpt><trkpt lat="45.84191459118047" lon="9.944596114606776"><ele>1486.6666666666667</ele><time>2026-04-26T10:43:35.999Z</time></trkpt><trkpt lat="45.841945830093074" lon="9.944477043185982"><ele>1489.5</ele><time>2026-04-26T10:43:37Z</time></trkpt><trkpt lat="45.841964094179644" lon="9.944370296041175"><ele>1492.3333333333333</ele><time>2026-04-26T10:43:38Z</time></trkpt><trkpt lat="45.84197204735056" lon="9.944270364577429"><ele>1495.1666666666665</ele><time>2026-04-26T10:43:39Z</time></trkpt><trkpt lat="45.84198817255525" lon="9.944164781382584"><ele>1498.0</ele><time>2026-04-26T10:43:40Z</time></trkpt><trkpt lat="45.842014063050364" lon="9.944051001896506"><ele>1498.0</ele><time>2026-04-26T10:43:41Z</time></trkpt><trkpt lat="45.842039065135175" lon="9.943948133257848"><ele>1498.0</ele><time>2026-04-26T10:43:42Z</time></trkpt><trkpt lat="45.84205864422379" lon="9.943833617425472"><ele>1498.0</ele><time>2026-04-26T10:43:43Z</time></trkpt><trkpt lat="45.842075979245976" lon="9.943694106609845"><ele>1498.0</ele><time>2026-04-26T10:43:44Z</time></trkpt><trkpt lat="45.84210508685407" lon="9.943563964561143"><ele>1498.0</ele><time>2026-04-26T10:43:45Z</time></trkpt><trkpt lat="45.84213098173821" lon="9.94344320426519"><ele>1498.0</ele><time>2026-04-26T10:43:46Z</time></trkpt><trkpt lat="45.84215019508441" lon="9.943316922929046"><ele>1494.6000000000001</ele><time>2026-04-26T10:43:47Z</time></trkpt><trkpt lat="45.84217462315667" lon="9.943197377780981"><ele>1491.2</ele><time>2026-04-26T10:43:48Z</time></trkpt><trkpt lat="45.84221007557955" lon="9.94307941504826"><ele>1487.8</ele><time>2026-04-26T10:43:49Z</time></trkpt><trkpt lat="45.84225834628811" lon="9.942948776606817"><ele>1484.4</ele><time>2026-04-26T10:43:50Z</time></trkpt><trkpt lat="45.84230659228002" lon="9.942830690220145"><ele>1481.0</ele><time>2026-04-26T10:43:51Z</time></trkpt><trkpt lat="45.842343714353305" lon="9.942702077165864"><ele>1481.0</ele><time>2026-04-26T10:43:52Z</time></trkpt><trkpt lat="45.84236604952046" lon="9.942571755989169"><ele>1481.0</ele><time>2026-04-26T10:43:53Z</time></trkpt><trkpt lat="45.84238226976427" lon="9.942440482408038"><ele>1481.0</ele><time>2026-04-26T10:43:54Z</time></trkpt><trkpt lat="45.84240422227809" lon="9.94232603150546"><ele>1481.0</ele><time>2026-04-26T10:43:55Z</time></trkpt><trkpt lat="45.84241677966731" lon="9.942215603564478"><ele>1481.0</ele><time>2026-04-26T10:43:56Z</time></trkpt><trkpt lat="45.842424219355905" lon="9.942086934409595"><ele>1481.0</ele><time>2026-04-26T10:43:57Z</time></trkpt><trkpt lat="45.84243300686744" lon="9.941972960481271"><ele>1479.1666666666667</ele><time>2026-04-26T10:43:58Z</time></trkpt><trkpt lat="45.84244275074849" lon="9.941866136977561"><ele>1477.3333333333335</ele><time>2026-04-26T10:43:59Z</time></trkpt><trkpt lat="45.842453675562545" lon="9.941758097059553"><ele>1475.5</ele><time>2026-04-26T10:44:00Z</time></trkpt><trkpt lat="45.84246844651577" lon="9.94163508922083"><ele>1473.6666666666667</ele><time>2026-04-26T10:44:01Z</time></trkpt><trkpt lat="45.84248855029837" lon="9.941515983565472"><ele>1471.8333333333333</ele><time>2026-04-26T10:44:02Z</time></trkpt><trkpt lat="45.84250778568278" lon="9.941399939740437"><ele>1470.0</ele><time>2026-04-26T10:44:03Z</time></trkpt><trkpt lat="45.84252601425906" lon="9.941286600560597"><ele>1470.3333333333333</ele><time>2026-04-26T10:44:04Z</time></trkpt><trkpt lat="45.842550423316716" lon="9.941183340462835"><ele>1470.6666666666667</ele><time>2026-04-26T10:44:05Z</time></trkpt><trkpt lat="45.84257938473836" lon="9.941064500171837"><ele>1471.0</ele><time>2026-04-26T10:44:06Z</time></trkpt><trkpt lat="45.84260950082892" lon="9.940935154200767"><ele>1471.3333333333335</ele><time>2026-04-26T10:44:07Z</time></trkpt><trkpt lat="45.842643627451764" lon="9.940827775716889"><ele>1471.6666666666667</ele><time>2026-04-26T10:44:08Z</time></trkpt><trkpt lat="45.84268782015211" lon="9.94072782349897"><ele>1472.0</ele><time>2026-04-26T10:44:09Z</time></trkpt><trkpt lat="45.84273612458472" lon="9.940641716451424"><ele>1472.0</ele><time>2026-04-26T10:44:10Z</time></trkpt><trkpt lat="45.842790775742984" lon="9.940554961103473"><ele>1472.0</ele><time>2026-04-26T10:44:11Z</time></trkpt><trkpt lat="45.84284253345594" lon="9.940456870506283"><ele>1472.0</ele><time>2026-04-26T10:44:12Z</time></trkpt><trkpt lat="45.84287805775723" lon="9.940349764705324"><ele>1472.0</ele><time>2026-04-26T10:44:13Z</time></trkpt><trkpt lat="45.84290610913222" lon="9.940241145134882"><ele>1472.0</ele><time>2026-04-26T10:44:14Z</time></trkpt><trkpt lat="45.84294136659832" lon="9.940131611413486"><ele>1472.0</ele><time>2026-04-26T10:44:15Z</time></trkpt><trkpt lat="45.84298068749135" lon="9.940010393983183"><ele>1469.0</ele><time>2026-04-26T10:44:16Z</time></trkpt><trkpt lat="45.843028269342234" lon="9.939894494643319"><ele>1466.0</ele><time>2026-04-26T10:44:17Z</time></trkpt><trkpt lat="45.84308073050944" lon="9.939776142775756"><ele>1463.0</ele><time>2026-04-26T10:44:18Z</time></trkpt><trkpt lat="45.84313038948461" lon="9.93965996577895"><ele>1460.0</ele><time>2026-04-26T10:44:19Z</time></trkpt><trkpt lat="45.843175094199445" lon="9.93954677370763"><ele>1457.0</ele><time>2026-04-26T10:44:20Z</time></trkpt><trkpt lat="45.84321984841915" lon="9.939447271221427"><ele>1457.0</ele><time>2026-04-26T10:44:21Z</time></trkpt><trkpt lat="45.843266194979755" lon="9.939337852821529"><ele>1457.0</ele><time>2026-04-26T10:44:22Z</time></trkpt><trkpt lat="45.84330972577923" lon="9.93922083026763"><ele>1457.0</ele><time>2026-04-26T10:44:23Z</time></trkpt><trkpt lat="45.84336189156707" lon="9.939106909933718"><ele>1457.0</ele><time>2026-04-26T10:44:24Z</time></trkpt><trkpt lat="45.843406831887684" lon="9.938992129362848"><ele>1457.0</ele><time>2026-04-26T10:44:25Z</time></trkpt><trkpt lat="45.84343874159764" lon="9.938865466527451"><ele>1455.8</ele><time>2026-04-26T10:44:26Z</time></trkpt><trkpt lat="45.84347704971498" lon="9.938738726610492"><ele>1454.6</ele><time>2026-04-26T10:44:27Z</time></trkpt><trkpt lat="45.843522392246186" lon="9.938615565392524"><ele>1453.3999999999999</ele><time>2026-04-26T10:44:28Z</time></trkpt><trkpt lat="45.84356390437121" lon="9.938494378384645"><ele>1452.1999999999998</ele><time>2026-04-26T10:44:29Z</time></trkpt><trkpt lat="45.84362465616228" lon="9.938392248128139"><ele>1451.0</ele><time>2026-04-26T10:44:30Z</time></trkpt><trkpt lat="45.84368116825497" lon="9.938304754752204"><ele>1451.0</ele><time>2026-04-26T10:44:31Z</time></trkpt><trkpt lat="45.8437450878963" lon="9.938228601958826"><ele>1451.0</ele><time>2026-04-26T10:44:32Z</time></trkpt><trkpt lat="45.84380223836585" lon="9.938147611450978"><ele>1451.0</ele><time>2026-04-26T10:44:33Z</time></trkpt><trkpt lat="45.8438497974284" lon="9.938054892857819"><ele>1451.0</ele><time>2026-04-26T10:44:34Z</time></trkpt><trkpt lat="45.84389169740691" lon="9.93797671234827"><ele>1451.0</ele><time>2026-04-26T10:44:35Z</time></trkpt><trkpt lat="45.84386531729179" lon="9.937792536775012"><ele>1451.0</ele><time>2026-04-26T10:44:36Z</time></trkpt><trkpt lat="45.843950641200784" lon="9.937785773582785"><ele>1451.0</ele><time>2026-04-26T10:44:55Z</time></trkpt><trkpt lat="45.84403227237823" lon="9.937659238323144"><ele>1451.0</ele><time>2026-04-26T10:44:57Z</time></trkpt><trkpt lat="45.844063882686925" lon="9.93757899750897"><ele>1451.0</ele><time>2026-04-26T10:44:58Z</time></trkpt><trkpt lat="45.84412104353846" lon="9.93745243620691"><ele>1451.0</ele><time>2026-04-26T10:45:00Z</time></trkpt><trkpt lat="45.844179921500135" lon="9.937337891814868"><ele>1451.0</ele><time>2026-04-26T10:45:01.999Z</time></trkpt><trkpt lat="45.84428612860707" lon="9.937133961225225"><ele>1450.0</ele><time>2026-04-26T10:45:04.999Z</time></trkpt><trkpt lat="45.844357234374314" lon="9.936968869933565"><ele>1449.0</ele><time>2026-04-26T10:45:06.999Z</time></trkpt><trkpt lat="45.84439295077964" lon="9.936859864179306"><ele>1448.0</ele><time>2026-04-26T10:45:07.999Z</time></trkpt><trkpt lat="45.84443591549855" lon="9.936745024663832"><ele>1447.0</ele><time>2026-04-26T10:45:08.999Z</time></trkpt><trkpt lat="45.84449070229315" lon="9.936610182008778"><ele>1446.0</ele><time>2026-04-26T10:45:09.999Z</time></trkpt><trkpt lat="45.84453368939225" lon="9.936503223335226"><ele>1446.0</ele><time>2026-04-26T10:45:10.999Z</time></trkpt><trkpt lat="45.844566042855234" lon="9.936369517434667"><ele>1446.0</ele><time>2026-04-26T10:45:11.999Z</time></trkpt><trkpt lat="45.84461250155995" lon="9.936252343722456"><ele>1446.0</ele><time>2026-04-26T10:45:12.999Z</time></trkpt><trkpt lat="45.84464910296485" lon="9.93613010462175"><ele>1446.0</ele><time>2026-04-26T10:45:13.999Z</time></trkpt><trkpt lat="45.844690423946936" lon="9.935994372980831"><ele>1446.0</ele><time>2026-04-26T10:45:14.999Z</time></trkpt><trkpt lat="45.84473583485061" lon="9.935867080876122"><ele>1443.5</ele><time>2026-04-26T10:45:15.999Z</time></trkpt><trkpt lat="45.84478933008179" lon="9.935739729104615"><ele>1441.0</ele><time>2026-04-26T10:45:16.999Z</time></trkpt><trkpt lat="45.84482841246487" lon="9.935614713044343"><ele>1438.5</ele><time>2026-04-26T10:45:17.999Z</time></trkpt><trkpt lat="45.84485890055928" lon="9.935519731345067"><ele>1436.0</ele><time>2026-04-26T10:45:18.999Z</time></trkpt><trkpt lat="45.84490510671702" lon="9.935428061097628"><ele>1433.5</ele><time>2026-04-26T10:45:19.999Z</time></trkpt><trkpt lat="45.84496717788624" lon="9.935351860249463"><ele>1431.0</ele><time>2026-04-26T10:45:20.999Z</time></trkpt><trkpt lat="45.845021781764146" lon="9.935262694046537"><ele>1431.0</ele><time>2026-04-26T10:45:21.999Z</time></trkpt><trkpt lat="45.84507073075767" lon="9.93517000581619"><ele>1431.0</ele><time>2026-04-26T10:45:22.999Z</time></trkpt><trkpt lat="45.845119324368206" lon="9.935051045169807"><ele>1431.0</ele><time>2026-04-26T10:45:23.999Z</time></trkpt><trkpt lat="45.84520140718327" lon="9.934984396960155"><ele>1431.0</ele><time>2026-04-26T10:45:24.999Z</time></trkpt><trkpt lat="45.84525367130734" lon="9.934874631918202"><ele>1431.0</ele><time>2026-04-26T10:45:25.999Z</time></trkpt><trkpt lat="45.8453072305051" lon="9.93479097753947"><ele>1431.0</ele><time>2026-04-26T10:45:26.999Z</time></trkpt><trkpt lat="45.84535544701458" lon="9.934702949916469"><ele>1431.1666666666667</ele><time>2026-04-26T10:45:27.999Z</time></trkpt><trkpt lat="45.84541168240952" lon="9.934611156768634"><ele>1431.3333333333333</ele><time>2026-04-26T10:45:28.999Z</time></trkpt><trkpt lat="45.845464452117106" lon="9.934519289172533"><ele>1431.5</ele><time>2026-04-26T10:45:29.999Z</time></trkpt><trkpt lat="45.84551631400013" lon="9.934428548619831"><ele>1431.6666666666665</ele><time>2026-04-26T10:45:30.999Z</time></trkpt><trkpt lat="45.84556676504644" lon="9.934331098557916"><ele>1431.8333333333333</ele><time>2026-04-26T10:45:31.999Z</time></trkpt><trkpt lat="45.845622629914" lon="9.934233843845623"><ele>1432.0</ele><time>2026-04-26T10:45:32.999Z</time></trkpt><trkpt lat="45.84568486922196" lon="9.93414900677391"><ele>1432.0</ele><time>2026-04-26T10:45:33.999Z</time></trkpt><trkpt lat="45.84573877309321" lon="9.93405285834465"><ele>1432.0</ele><time>2026-04-26T10:45:34.999Z</time></trkpt><trkpt lat="45.84580002254167" lon="9.933952057919146"><ele>1432.0</ele><time>2026-04-26T10:45:35.999Z</time></trkpt><trkpt lat="45.845856801581604" lon="9.933857940815018"><ele>1432.0</ele><time>2026-04-26T10:45:36.999Z</time></trkpt><trkpt lat="45.84591387310233" lon="9.933770323315766"><ele>1432.0</ele><time>2026-04-26T10:45:37.999Z</time></trkpt><trkpt lat="45.84597116122146" lon="9.933693963000596"><ele>1432.0</ele><time>2026-04-26T10:45:38.999Z</time></trkpt><trkpt lat="45.84602698242056" lon="9.933631652375311"><ele>1433.8333333333333</ele><time>2026-04-26T10:45:39.999Z</time></trkpt><trkpt lat="45.84609709216355" lon="9.93357529380757"><ele>1435.6666666666665</ele><time>2026-04-26T10:45:41.999Z</time></trkpt><trkpt lat="45.84617154927216" lon="9.933543735436555"><ele>1437.5</ele><time>2026-04-26T10:46:19Z</time></trkpt><trkpt lat="45.846173797042134" lon="9.933416548433357"><ele>1439.3333333333333</ele><time>2026-04-26T10:46:22Z</time></trkpt><trkpt lat="45.846173030957566" lon="9.933293372961622"><ele>1441.1666666666667</ele><time>2026-04-26T10:46:24Z</time></trkpt><trkpt lat="45.84617557553639" lon="9.93317902338581"><ele>1443.0</ele><time>2026-04-26T10:46:26Z</time></trkpt><trkpt lat="45.84615585345126" lon="9.933078879473852"><ele>1443.0</ele><time>2026-04-26T10:46:28Z</time></trkpt><trkpt lat="45.846131439233574" lon="9.932964016408683"><ele>1443.0</ele><time>2026-04-26T10:46:30Z</time></trkpt><trkpt lat="45.846138336244884" lon="9.932870776715106"><ele>1443.0</ele><time>2026-04-26T10:46:32Z</time></trkpt><trkpt lat="45.846151540798935" lon="9.932766033864175"><ele>1443.0</ele><time>2026-04-26T10:46:33Z</time></trkpt><trkpt lat="45.84615468795824" lon="9.932666739555776"><ele>1443.0</ele><time>2026-04-26T10:46:34Z</time></trkpt><trkpt lat="45.84616036877431" lon="9.932513136445316"><ele>1443.0</ele><time>2026-04-26T10:46:36Z</time></trkpt><trkpt lat="45.84615403296581" lon="9.932389185653994"><ele>1443.0</ele><time>2026-04-26T10:46:39Z</time></trkpt><trkpt lat="45.84620258809799" lon="9.932458817576553"><ele>1443.0</ele><time>2026-04-26T10:46:48Z</time></trkpt><trkpt lat="45.84628132803383" lon="9.932515063033641"><ele>1443.0</ele><time>2026-04-26T10:46:51Z</time></trkpt><trkpt lat="45.84635315295509" lon="9.932570385160787"><ele>1443.0</ele><time>2026-04-26T10:46:53Z</time></trkpt><trkpt lat="45.8464331276586" lon="9.932594509240893"><ele>1443.0</ele><time>2026-04-26T10:46:56Z</time></trkpt><trkpt lat="45.84652376109718" lon="9.932644138512659"><ele>1443.0</ele><time>2026-04-26T10:47:02Z</time></trkpt><trkpt lat="45.846585839936424" lon="9.932678097473188"><ele>1443.0</ele><time>2026-04-26T10:47:04Z</time></trkpt><trkpt lat="45.84667382979406" lon="9.932674698510189"><ele>1443.0</ele><time>2026-04-26T10:47:06.999Z</time></trkpt><trkpt lat="45.8467737175074" lon="9.932687148729341"><ele>1443.0</ele><time>2026-04-26T10:47:08.999Z</time></trkpt><trkpt lat="45.846848578305334" lon="9.932706042061515"><ele>1443.0</ele><time>2026-04-26T10:47:10.999Z</time></trkpt><trkpt lat="45.84690817203596" lon="9.932785162940961"><ele>1443.0</ele><time>2026-04-26T10:47:13.999Z</time></trkpt><trkpt lat="45.846977841855654" lon="9.932835385249982"><ele>1443.0</ele><time>2026-04-26T10:47:17.999Z</time></trkpt><trkpt lat="45.84706086246917" lon="9.932891284170395"><ele>1446.5</ele><time>2026-04-26T10:47:19.999Z</time></trkpt><trkpt lat="45.84713117873431" lon="9.9329848880183"><ele>1450.0</ele><time>2026-04-26T10:47:21.999Z</time></trkpt><trkpt lat="45.84718675638161" lon="9.933062965289372"><ele>1453.5</ele><time>2026-04-26T10:47:23.999Z</time></trkpt><trkpt lat="45.84724971004099" lon="9.933131791139024"><ele>1457.0</ele><time>2026-04-26T10:47:25.999Z</time></trkpt><trkpt lat="45.84732786889609" lon="9.933194360112445"><ele>1460.5</ele><time>2026-04-26T10:47:27.999Z</time></trkpt><trkpt lat="45.847388604412785" lon="9.933307492350796"><ele>1464.0</ele><time>2026-04-26T10:47:30.999Z</time></trkpt><trkpt lat="45.847441430862055" lon="9.933464890091082"><ele>1464.0</ele><time>2026-04-26T10:47:32.999Z</time></trkpt><trkpt lat="45.84747215928647" lon="9.933571864198957"><ele>1464.0</ele><time>2026-04-26T10:47:34.999Z</time></trkpt><trkpt lat="45.84753917659072" lon="9.933686212375562"><ele>1464.0</ele><time>2026-04-26T10:47:36.999Z</time></trkpt><trkpt lat="45.847591363835086" lon="9.93375051572922"><ele>1464.0</ele><time>2026-04-26T10:47:38.999Z</time></trkpt><trkpt lat="45.8476648727923" lon="9.933831178368488"><ele>1464.0</ele><time>2026-04-26T10:47:40.999Z</time></trkpt><trkpt lat="45.8476844718868" lon="9.933969779125572"><ele>1464.0</ele><time>2026-04-26T10:47:42.999Z</time></trkpt><trkpt lat="45.84771000033212" lon="9.934145502741618"><ele>1456.0</ele><time>2026-04-26T10:47:44.999Z</time></trkpt><trkpt lat="45.84771539093465" lon="9.934244250152412"><ele>1448.0</ele><time>2026-04-26T10:47:45.999Z</time></trkpt><trkpt lat="45.84770993406357" lon="9.934385515570709"><ele>1440.0</ele><time>2026-04-26T10:47:47.999Z</time></trkpt><trkpt lat="45.847719755944404" lon="9.93452360767608"><ele>1432.0</ele><time>2026-04-26T10:47:50Z</time></trkpt><trkpt lat="45.847724246909394" lon="9.934614945329974"><ele>1424.0</ele><time>2026-04-26T10:47:51Z</time></trkpt><trkpt lat="45.84774546863065" lon="9.934804238616461"><ele>1424.0</ele><time>2026-04-26T10:47:53Z</time></trkpt><trkpt lat="45.847746077834046" lon="9.934927986544928"><ele>1424.0</ele><time>2026-04-26T10:47:54Z</time></trkpt><trkpt lat="45.8477633703036" lon="9.935025699589971"><ele>1424.0</ele><time>2026-04-26T10:47:55Z</time></trkpt><trkpt lat="45.847781124209234" lon="9.935120110643782"><ele>1424.0</ele><time>2026-04-26T10:47:56Z</time></trkpt><trkpt lat="45.847800347221956" lon="9.93522433711582"><ele>1424.0</ele><time>2026-04-26T10:47:57Z</time></trkpt><trkpt lat="45.84780999768471" lon="9.935322093825867"><ele>1424.0</ele><time>2026-04-26T10:47:58Z</time></trkpt><trkpt lat="45.84780837413601" lon="9.935493746925385"><ele>1420.6</ele><time>2026-04-26T10:48:00Z</time></trkpt><trkpt lat="45.847762748165664" lon="9.935655904046646"><ele>1417.2</ele><time>2026-04-26T10:48:02Z</time></trkpt><trkpt lat="45.84774210174848" lon="9.935750902201491"><ele>1413.8</ele><time>2026-04-26T10:48:03Z</time></trkpt><trkpt lat="45.847722548166956" lon="9.935857507855921"><ele>1410.3999999999999</ele><time>2026-04-26T10:48:04Z</time></trkpt><trkpt lat="45.847698479269496" lon="9.936029295774583"><ele>1407.0</ele><time>2026-04-26T10:48:06Z</time></trkpt><trkpt lat="45.84769117880663" lon="9.936122563822261"><ele>1407.142857142857</ele><time>2026-04-26T10:48:07Z</time></trkpt><trkpt lat="45.847672502255556" lon="9.936213409664358"><ele>1407.2857142857142</ele><time>2026-04-26T10:48:08Z</time></trkpt><trkpt lat="45.84766112476286" lon="9.936308998111803"><ele>1407.4285714285716</ele><time>2026-04-26T10:48:09Z</time></trkpt><trkpt lat="45.84768424685251" lon="9.936395196250551"><ele>1407.5714285714284</ele><time>2026-04-26T10:48:10Z</time></trkpt><trkpt lat="45.847713543112725" lon="9.936490544836907"><ele>1407.7142857142858</ele><time>2026-04-26T10:48:11Z</time></trkpt><trkpt lat="45.84773258679202" lon="9.93659183704294"><ele>1407.857142857143</ele><time>2026-04-26T10:48:12Z</time></trkpt><trkpt lat="45.84774700853798" lon="9.936696094206967"><ele>1408.0</ele><time>2026-04-26T10:48:13Z</time></trkpt><trkpt lat="45.8477769411607" lon="9.936779947919563"><ele>1408.0</ele><time>2026-04-26T10:48:14Z</time></trkpt><trkpt lat="45.847858947451" lon="9.9369007977162"><ele>1408.0</ele><time>2026-04-26T10:48:16Z</time></trkpt><trkpt lat="45.84794297624044" lon="9.937025618522162"><ele>1408.0</ele><time>2026-04-26T10:48:18Z</time></trkpt><trkpt lat="45.84804995216037" lon="9.937112265754429"><ele>1408.0</ele><time>2026-04-26T10:48:20Z</time></trkpt><trkpt lat="45.848115590689076" lon="9.93713460688962"><ele>1408.0</ele><time>2026-04-26T10:48:21Z</time></trkpt><trkpt lat="45.84820915060542" lon="9.937218727003822"><ele>1408.0</ele><time>2026-04-26T10:48:23Z</time></trkpt><trkpt lat="45.84826671727737" lon="9.937263999761438"><ele>1408.0</ele><time>2026-04-26T10:48:24Z</time></trkpt><trkpt lat="45.84831886545526" lon="9.937317676109721"><ele>1408.0</ele><time>2026-04-26T10:48:25Z</time></trkpt><trkpt lat="45.84838462654591" lon="9.937423532040897"><ele>1408.0</ele><time>2026-04-26T10:48:27Z</time></trkpt><trkpt lat="45.848395589633895" lon="9.937578674237395"><ele>1408.0</ele><time>2026-04-26T10:48:29Z</time></trkpt><trkpt lat="45.84835818567489" lon="9.937718560109467"><ele>1408.0</ele><time>2026-04-26T10:48:31Z</time></trkpt><trkpt lat="45.848299741830196" lon="9.937868067673508"><ele>1404.4</ele><time>2026-04-26T10:48:33Z</time></trkpt><trkpt lat="45.84825950590099" lon="9.938019786619973"><ele>1400.8000000000002</ele><time>2026-04-26T10:48:35Z</time></trkpt><trkpt lat="45.84824616115352" lon="9.938108257706123"><ele>1397.2</ele><time>2026-04-26T10:48:45Z</time></trkpt><trkpt lat="45.84818224221114" lon="9.9382154522832"><ele>1393.6</ele><time>2026-04-26T10:48:47Z</time></trkpt><trkpt lat="45.848078964684" lon="9.938291198737348"><ele>1390.0</ele><time>2026-04-26T10:48:49Z</time></trkpt><trkpt lat="45.8479707121802" lon="9.93841983350452"><ele>1386.2857142857144</ele><time>2026-04-26T10:48:51Z</time></trkpt><trkpt lat="45.847933703808785" lon="9.938493710515864"><ele>1382.5714285714287</ele><time>2026-04-26T10:48:52Z</time></trkpt><trkpt lat="45.84791465650184" lon="9.938603877114511"><ele>1378.857142857143</ele><time>2026-04-26T10:48:53Z</time></trkpt><trkpt lat="45.84789217824487" lon="9.938727394847886"><ele>1375.1428571428573</ele><time>2026-04-26T10:48:54Z</time></trkpt><trkpt lat="45.84788107112296" lon="9.938826861259038"><ele>1371.4285714285716</ele><time>2026-04-26T10:48:55Z</time></trkpt><trkpt lat="45.84787985133137" lon="9.938923864044282"><ele>1367.7142857142858</ele><time>2026-04-26T10:48:56Z</time></trkpt><trkpt lat="45.84785499669183" lon="9.939008721627657"><ele>1364.0</ele><time>2026-04-26T10:48:57Z</time></trkpt><trkpt lat="45.84782456568399" lon="9.939093670177176"><ele>1364.0</ele><time>2026-04-26T10:48:58Z</time></trkpt><trkpt lat="45.84779596737362" lon="9.939177483325738"><ele>1364.0</ele><time>2026-04-26T10:48:59Z</time></trkpt><trkpt lat="45.84775381198874" lon="9.939258309434011"><ele>1364.0</ele><time>2026-04-26T10:49:00Z</time></trkpt><trkpt lat="45.84769065375741" lon="9.939350747727385"><ele>1364.0</ele><time>2026-04-26T10:49:01Z</time></trkpt><trkpt lat="45.84764174881688" lon="9.93943257971206"><ele>1364.0</ele><time>2026-04-26T10:49:02Z</time></trkpt><trkpt lat="45.84759240685734" lon="9.939522540897931"><ele>1364.0</ele><time>2026-04-26T10:49:03Z</time></trkpt><trkpt lat="45.84754467453843" lon="9.939610880000291"><ele>1359.5</ele><time>2026-04-26T10:49:04Z</time></trkpt><trkpt lat="45.84749473732312" lon="9.939692250679503"><ele>1355.0</ele><time>2026-04-26T10:49:04.999Z</time></trkpt><trkpt lat="45.8474820255444" lon="9.939785482448062"><ele>1350.5</ele><time>2026-04-26T10:49:05.999Z</time></trkpt><trkpt lat="45.84749282464974" lon="9.939887357785539"><ele>1346.0</ele><time>2026-04-26T10:49:06.999Z</time></trkpt><trkpt lat="45.847509985371595" lon="9.93998702653052"><ele>1341.5</ele><time>2026-04-26T10:49:07.999Z</time></trkpt><trkpt lat="45.84757514617676" lon="9.940155585923893"><ele>1337.0</ele><time>2026-04-26T10:49:09.999Z</time></trkpt><trkpt lat="45.84768865809093" lon="9.94024343159877"><ele>1337.0</ele><time>2026-04-26T10:49:11.999Z</time></trkpt><trkpt lat="45.84772016286415" lon="9.940326684396663"><ele>1337.0</ele><time>2026-04-26T10:49:12.999Z</time></trkpt><trkpt lat="45.84779482026665" lon="9.940428831691385"><ele>1337.0</ele><time>2026-04-26T10:49:14.999Z</time></trkpt><trkpt lat="45.8477816507345" lon="9.940598714526205"><ele>1337.0</ele><time>2026-04-26T10:49:16.999Z</time></trkpt><trkpt lat="45.84777706348592" lon="9.940693225597963"><ele>1337.0</ele><time>2026-04-26T10:49:17.999Z</time></trkpt><trkpt lat="45.84776492691354" lon="9.940785419160763"><ele>1337.0</ele><time>2026-04-26T10:49:18.999Z</time></trkpt><trkpt lat="45.84768333621781" lon="9.940891038419428"><ele>1335.5</ele><time>2026-04-26T10:49:20.999Z</time></trkpt><trkpt lat="45.84768600855743" lon="9.9410244059482"><ele>1334.0</ele><time>2026-04-26T10:49:22.999Z</time></trkpt><trkpt lat="45.8477031011394" lon="9.941153917699845"><ele>1332.5</ele><time>2026-04-26T10:49:23.999Z</time></trkpt><trkpt lat="45.84771223402987" lon="9.94126396158288"><ele>1331.0</ele><time>2026-04-26T10:49:24.999Z</time></trkpt><trkpt lat="45.84773706557915" lon="9.94138165906928"><ele>1329.5</ele><time>2026-04-26T10:49:25.999Z</time></trkpt><trkpt lat="45.84774959868372" lon="9.941479534543367"><ele>1328.0</ele><time>2026-04-26T10:49:26.999Z</time></trkpt><trkpt lat="45.847748800283014" lon="9.941649075181505"><ele>1326.6666666666667</ele><time>2026-04-26T10:49:28.999Z</time></trkpt><trkpt lat="45.847718993491235" lon="9.941790302597326"><ele>1325.3333333333335</ele><time>2026-04-26T10:49:30.999Z</time></trkpt><trkpt lat="45.84770678488945" lon="9.941880185925513"><ele>1324.0</ele><time>2026-04-26T10:49:32.999Z</time></trkpt><trkpt lat="45.847685572481346" lon="9.94199120753456"><ele>1322.6666666666667</ele><time>2026-04-26T10:49:35.999Z</time></trkpt><trkpt lat="45.84763694032806" lon="9.94205507106685"><ele>1321.3333333333333</ele><time>2026-04-26T10:49:38.999Z</time></trkpt><trkpt lat="45.847567814434605" lon="9.94215505005776"><ele>1320.0</ele><time>2026-04-26T10:49:40.999Z</time></trkpt><trkpt lat="45.84752765823046" lon="9.942236878096908"><ele>1330.6</ele><time>2026-04-26T10:49:42.999Z</time></trkpt><trkpt lat="45.8474913805296" lon="9.942366728258076"><ele>1341.2</ele><time>2026-04-26T10:49:44.999Z</time></trkpt><trkpt lat="45.8474221200646" lon="9.942490301917802"><ele>1351.8000000000002</ele><time>2026-04-26T10:49:46.999Z</time></trkpt><trkpt lat="45.84735751968611" lon="9.942620556185103"><ele>1362.4</ele><time>2026-04-26T10:49:50.999Z</time></trkpt><trkpt lat="45.84745188159783" lon="9.942682475806238"><ele>1373.0</ele><time>2026-04-26T10:49:52.999Z</time></trkpt><trkpt lat="45.84751356837488" lon="9.942787610885926"><ele>1375.8000000000002</ele><time>2026-04-26T10:49:56Z</time></trkpt><trkpt lat="45.84752938688704" lon="9.942895660189953"><ele>1378.6</ele><time>2026-04-26T10:49:57Z</time></trkpt><trkpt lat="45.84758037704186" lon="9.943033662591226"><ele>1381.4</ele><time>2026-04-26T10:49:59Z</time></trkpt><trkpt lat="45.847628444976294" lon="9.943115245557777"><ele>1384.1999999999998</ele><time>2026-04-26T10:50:00Z</time></trkpt><trkpt lat="45.847726754533134" lon="9.94322092365559"><ele>1387.0</ele><time>2026-04-26T10:50:02Z</time></trkpt><trkpt lat="45.84784659643162" lon="9.943353023625345"><ele>1380.8</ele><time>2026-04-26T10:50:04Z</time></trkpt><trkpt lat="45.84793068078023" lon="9.943420974047742"><ele>1374.6</ele><time>2026-04-26T10:50:05Z</time></trkpt><trkpt lat="45.84804193490836" lon="9.943518228727621"><ele>1368.3999999999999</ele><time>2026-04-26T10:50:07Z</time></trkpt><trkpt lat="45.84813291793374" lon="9.943542369086057"><ele>1362.1999999999998</ele><time>2026-04-26T10:50:09Z</time></trkpt><trkpt lat="45.848176655082" lon="9.943632848685494"><ele>1356.0</ele><time>2026-04-26T10:50:11Z</time></trkpt><trkpt lat="45.84816978954919" lon="9.943727988491915"><ele>1356.0</ele><time>2026-04-26T10:50:12Z</time></trkpt><trkpt lat="45.84819480664108" lon="9.943813082865963"><ele>1356.0</ele><time>2026-04-26T10:50:13Z</time></trkpt><trkpt lat="45.84827074703336" lon="9.943949946004079"><ele>1356.0</ele><time>2026-04-26T10:50:15Z</time></trkpt><trkpt lat="45.84830990893681" lon="9.944040765358041"><ele>1356.0</ele><time>2026-04-26T10:50:16Z</time></trkpt><trkpt lat="45.84835240436315" lon="9.944139076654501"><ele>1356.0</ele><time>2026-04-26T10:50:17Z</time></trkpt><trkpt lat="45.84835208079181" lon="9.944277498202856"><ele>1356.0</ele><time>2026-04-26T10:50:19Z</time></trkpt><trkpt lat="45.84830985301812" lon="9.944367661916353"><ele>1352.1999999999998</ele><time>2026-04-26T10:50:21Z</time></trkpt><trkpt lat="45.84826162816631" lon="9.944440902701139"><ele>1348.3999999999999</ele><time>2026-04-26T10:50:23Z</time></trkpt><trkpt lat="45.8481841931026" lon="9.944550690934122"><ele>1344.6</ele><time>2026-04-26T10:50:25Z</time></trkpt><trkpt lat="45.84810107880055" lon="9.944655323026314"><ele>1340.8</ele><time>2026-04-26T10:50:27Z</time></trkpt><trkpt lat="45.84801497441699" lon="9.944753524679106"><ele>1337.0</ele><time>2026-04-26T10:50:29Z</time></trkpt><trkpt lat="45.847947556815164" lon="9.944811661106524"><ele>1337.0</ele><time>2026-04-26T10:50:31Z</time></trkpt><trkpt lat="45.84787017221839" lon="9.944946101172905"><ele>1337.0</ele><time>2026-04-26T10:50:33Z</time></trkpt><trkpt lat="45.84785104602205" lon="9.945065924912356"><ele>1337.0</ele><time>2026-04-26T10:50:35Z</time></trkpt><trkpt lat="45.847817272117624" lon="9.945143660708489"><ele>1337.0</ele><time>2026-04-26T10:50:37Z</time></trkpt><trkpt lat="45.84774212026885" lon="9.945271609808133"><ele>1337.0</ele><time>2026-04-26T10:50:39Z</time></trkpt><trkpt lat="45.847701052285736" lon="9.94534856452863"><ele>1340.1999999999998</ele><time>2026-04-26T10:50:40Z</time></trkpt><trkpt lat="45.84762578404359" lon="9.94546642486548"><ele>1343.4</ele><time>2026-04-26T10:50:42Z</time></trkpt><trkpt lat="45.847587010513934" lon="9.94559963942507"><ele>1346.6</ele><time>2026-04-26T10:50:44Z</time></trkpt><trkpt lat="45.847541561777575" lon="9.94577692135283"><ele>1349.8000000000002</ele><time>2026-04-26T10:50:46Z</time></trkpt><trkpt lat="45.84752543140493" lon="9.945864828173487"><ele>1353.0</ele><time>2026-04-26T10:50:47Z</time></trkpt><trkpt lat="45.84749793507502" lon="9.94596738475709"><ele>1353.857142857143</ele><time>2026-04-26T10:50:48Z</time></trkpt><trkpt lat="45.84748878722227" lon="9.94612500434848"><ele>1354.7142857142856</ele><time>2026-04-26T10:50:50Z</time></trkpt><trkpt lat="45.847518362906776" lon="9.946215661787631"><ele>1355.5714285714284</ele><time>2026-04-26T10:50:51Z</time></trkpt><trkpt lat="45.84754729144554" lon="9.946307293368587"><ele>1356.4285714285716</ele><time>2026-04-26T10:50:52Z</time></trkpt><trkpt lat="45.84759484824843" lon="9.94637913849439"><ele>1357.2857142857142</ele><time>2026-04-26T10:50:53Z</time></trkpt><trkpt lat="45.84765139721663" lon="9.946427964029503"><ele>1358.142857142857</ele><time>2026-04-26T10:50:54Z</time></trkpt><trkpt lat="45.84770696532963" lon="9.946472754015556"><ele>1359.0</ele><time>2026-04-26T10:50:55Z</time></trkpt><trkpt lat="45.847772919888804" lon="9.946521901122042"><ele>1357.2</ele><time>2026-04-26T10:50:56Z</time></trkpt><trkpt lat="45.84786580069546" lon="9.946604907840621"><ele>1355.4</ele><time>2026-04-26T10:50:58Z</time></trkpt><trkpt lat="45.84796141260755" lon="9.946579541646608"><ele>1353.6</ele><time>2026-04-26T10:51:00Z</time></trkpt><trkpt lat="45.848040730176116" lon="9.946678543387069"><ele>1351.8</ele><time>2026-04-26T10:51:02Z</time></trkpt><trkpt lat="45.84810526666489" lon="9.946743089787521"><ele>1350.0</ele><time>2026-04-26T10:51:03Z</time></trkpt><trkpt lat="45.84816731424882" lon="9.946771932823347"><ele>1350.0</ele><time>2026-04-26T10:51:04Z</time></trkpt><trkpt lat="45.84826941355419" lon="9.946824814324382"><ele>1350.0</ele><time>2026-04-26T10:51:05.999Z</time></trkpt><trkpt lat="45.84837516929673" lon="9.946913057986647"><ele>1350.0</ele><time>2026-04-26T10:51:07.999Z</time></trkpt><trkpt lat="45.848427026442295" lon="9.94696669500322"><ele>1350.0</ele><time>2026-04-26T10:51:08.999Z</time></trkpt><trkpt lat="45.84850060226515" lon="9.947083257323307"><ele>1350.0</ele><time>2026-04-26T10:51:10.999Z</time></trkpt><trkpt lat="45.84852628622822" lon="9.947170200532307"><ele>1343.6666666666667</ele><time>2026-04-26T10:51:11.999Z</time></trkpt><trkpt lat="45.84854571049129" lon="9.94726921536788"><ele>1337.3333333333333</ele><time>2026-04-26T10:51:12.999Z</time></trkpt><trkpt lat="45.84856365115629" lon="9.947356488668685"><ele>1331.0</ele><time>2026-04-26T10:51:13.999Z</time></trkpt><trkpt lat="45.84864055964409" lon="9.947483888597949"><ele>1324.6666666666665</ele><time>2026-04-26T10:51:15.999Z</time></trkpt><trkpt lat="45.84868962195186" lon="9.947565878363532"><ele>1318.3333333333333</ele><time>2026-04-26T10:51:16.999Z</time></trkpt><trkpt lat="45.848735233405264" lon="9.947657149578768"><ele>1312.0</ele><time>2026-04-26T10:51:17.999Z</time></trkpt><trkpt lat="45.84877302110521" lon="9.947735732284023"><ele>1312.0</ele><time>2026-04-26T10:51:18.999Z</time></trkpt><trkpt lat="45.8488192152689" lon="9.947902157421892"><ele>1312.0</ele><time>2026-04-26T10:51:20.999Z</time></trkpt><trkpt lat="45.84888168403874" lon="9.948079472611177"><ele>1312.0</ele><time>2026-04-26T10:51:22.999Z</time></trkpt><trkpt lat="45.84890497939223" lon="9.948206139482377"><ele>1312.0</ele><time>2026-04-26T10:51:23.999Z</time></trkpt><trkpt lat="45.848945845304556" lon="9.94829924902992"><ele>1312.0</ele><time>2026-04-26T10:51:24.999Z</time></trkpt><trkpt lat="45.84900059624929" lon="9.948373082614616"><ele>1313.8</ele><time>2026-04-26T10:51:25.999Z</time></trkpt><trkpt lat="45.849040459369284" lon="9.948445933516041"><ele>1315.6</ele><time>2026-04-26T10:51:26.999Z</time></trkpt><trkpt lat="45.84908382756205" lon="9.948530471099078"><ele>1317.3999999999999</ele><time>2026-04-26T10:51:27.999Z</time></trkpt><trkpt lat="45.84911754063564" lon="9.948653569633702"><ele>1319.1999999999998</ele><time>2026-04-26T10:51:30.999Z</time></trkpt><trkpt lat="45.849084327108706" lon="9.948812045670056"><ele>1321.0</ele><time>2026-04-26T10:51:32.999Z</time></trkpt><trkpt lat="45.84905444896479" lon="9.948981389639007"><ele>1321.0</ele><time>2026-04-26T10:51:34.999Z</time></trkpt><trkpt lat="45.84907238703337" lon="9.949134924053713"><ele>1321.0</ele><time>2026-04-26T10:51:36.999Z</time></trkpt><trkpt lat="45.849095009353654" lon="9.949224587283975"><ele>1321.0</ele><time>2026-04-26T10:51:37.999Z</time></trkpt><trkpt lat="45.8491508088337" lon="9.949298108438745"><ele>1321.0</ele><time>2026-04-26T10:51:38.999Z</time></trkpt><trkpt lat="45.849199902979386" lon="9.949372659247198"><ele>1321.0</ele><time>2026-04-26T10:51:39.999Z</time></trkpt><trkpt lat="45.849268305561196" lon="9.949435711523407"><ele>1321.0</ele><time>2026-04-26T10:51:40.999Z</time></trkpt><trkpt lat="45.84933313846326" lon="9.949506378971732"><ele>1319.142857142857</ele><time>2026-04-26T10:51:41.999Z</time></trkpt><trkpt lat="45.849392287491966" lon="9.949573145756988"><ele>1317.2857142857144</ele><time>2026-04-26T10:51:42.999Z</time></trkpt><trkpt lat="45.84945069816768" lon="9.94962853011714"><ele>1315.4285714285716</ele><time>2026-04-26T10:51:43.999Z</time></trkpt><trkpt lat="45.84951581800767" lon="9.949667255979545"><ele>1313.5714285714284</ele><time>2026-04-26T10:51:44.999Z</time></trkpt><trkpt lat="45.849578250273524" lon="9.949722203312048"><ele>1311.7142857142858</ele><time>2026-04-26T10:51:45.999Z</time></trkpt><trkpt lat="45.84964329975521" lon="9.949780807038795"><ele>1309.857142857143</ele><time>2026-04-26T10:51:46.999Z</time></trkpt><trkpt lat="45.84972341569645" lon="9.949808984164921"><ele>1308.0</ele><time>2026-04-26T10:51:47.999Z</time></trkpt><trkpt lat="45.84978879592705" lon="9.949833906880578"><ele>1308.0</ele><time>2026-04-26T10:51:48.999Z</time></trkpt><trkpt lat="45.84986234515828" lon="9.949877894122197"><ele>1308.0</ele><time>2026-04-26T10:51:49.999Z</time></trkpt><trkpt lat="45.84994356735363" lon="9.949923366108305"><ele>1308.0</ele><time>2026-04-26T10:51:50.999Z</time></trkpt><trkpt lat="45.850012820754515" lon="9.949950138603063"><ele>1308.0</ele><time>2026-04-26T10:51:51.999Z</time></trkpt><trkpt lat="45.85006985987857" lon="9.949990784618661"><ele>1308.0</ele><time>2026-04-26T10:51:52.999Z</time></trkpt><trkpt lat="45.85012457665019" lon="9.950056723160115"><ele>1308.0</ele><time>2026-04-26T10:51:53.999Z</time></trkpt><trkpt lat="45.85019217874412" lon="9.95010962603056"><ele>1304.5</ele><time>2026-04-26T10:51:54.999Z</time></trkpt><trkpt lat="45.85030175257738" lon="9.950110373974727"><ele>1301.0</ele><time>2026-04-26T10:51:56.999Z</time></trkpt><trkpt lat="45.8503444484539" lon="9.950189230540389"><ele>1297.5</ele><time>2026-04-26T10:51:58.999Z</time></trkpt><trkpt lat="45.85038357268437" lon="9.950285644803172"><ele>1294.0</ele><time>2026-04-26T10:51:59.999Z</time></trkpt><trkpt lat="45.850438496832744" lon="9.95037184360916"><ele>1290.5</ele><time>2026-04-26T10:52:01Z</time></trkpt><trkpt lat="45.85049748082539" lon="9.950438186678166"><ele>1287.0</ele><time>2026-04-26T10:52:02Z</time></trkpt><trkpt lat="45.850562217463725" lon="9.950575996014015"><ele>1287.0</ele><time>2026-04-26T10:52:04Z</time></trkpt><trkpt lat="45.850591244435485" lon="9.950658761523487"><ele>1287.0</ele><time>2026-04-26T10:52:05Z</time></trkpt><trkpt lat="45.85063647212029" lon="9.950727918764219"><ele>1287.0</ele><time>2026-04-26T10:52:06Z</time></trkpt><trkpt lat="45.85071786538674" lon="9.950794030649138"><ele>1287.0</ele><time>2026-04-26T10:52:08Z</time></trkpt><trkpt lat="45.850767578250654" lon="9.950850512275949"><ele>1287.0</ele><time>2026-04-26T10:52:10Z</time></trkpt><trkpt lat="45.850786442516224" lon="9.950965662216632"><ele>1287.0</ele><time>2026-04-26T10:52:13Z</time></trkpt><trkpt lat="45.85085939753986" lon="9.951004343893906"><ele>1287.0</ele><time>2026-04-26T10:52:16Z</time></trkpt><trkpt lat="45.85091923774906" lon="9.95094992221118"><ele>1281.5</ele><time>2026-04-26T10:52:18Z</time></trkpt><trkpt lat="45.85096754092876" lon="9.95084601158713"><ele>1276.0</ele><time>2026-04-26T10:52:21Z</time></trkpt><trkpt lat="45.85104522015624" lon="9.950810357095866"><ele>1270.5</ele><time>2026-04-26T10:52:24Z</time></trkpt><trkpt lat="45.85107781562529" lon="9.950924802259733"><ele>1265.0</ele><time>2026-04-26T10:52:27Z</time></trkpt><trkpt lat="45.85113847077967" lon="9.950964661636657"><ele>1259.5</ele><time>2026-04-26T10:52:29Z</time></trkpt><trkpt lat="45.851184771789924" lon="9.950879722842593"><ele>1254.0</ele><time>2026-04-26T10:52:31Z</time></trkpt><trkpt lat="45.851186386513774" lon="9.950768505599168"><ele>1254.0</ele><time>2026-04-26T10:52:33Z</time></trkpt><trkpt lat="45.85123578702991" lon="9.950658869296"><ele>1254.0</ele><time>2026-04-26T10:52:35Z</time></trkpt><trkpt lat="45.85128803258045" lon="9.950532144471849"><ele>1254.0</ele><time>2026-04-26T10:52:37Z</time></trkpt><trkpt lat="45.85131223817839" lon="9.950408825440688"><ele>1254.0</ele><time>2026-04-26T10:52:39Z</time></trkpt><trkpt lat="45.85133206557452" lon="9.950280593015112"><ele>1254.0</ele><time>2026-04-26T10:52:41Z</time></trkpt><trkpt lat="45.85135185608566" lon="9.950119572382423"><ele>1252.6000000000001</ele><time>2026-04-26T10:52:43Z</time></trkpt><trkpt lat="45.851363658300286" lon="9.9499777914441"><ele>1251.2</ele><time>2026-04-26T10:52:45Z</time></trkpt><trkpt lat="45.851400386496195" lon="9.949828766255056"><ele>1249.8000000000002</ele><time>2026-04-26T10:52:47Z</time></trkpt><trkpt lat="45.851424239044746" lon="9.949707771910722"><ele>1248.4</ele><time>2026-04-26T10:52:49Z</time></trkpt><trkpt lat="45.8513712525061" lon="9.949590662951548"><ele>1247.0</ele><time>2026-04-26T10:52:51Z</time></trkpt><trkpt lat="45.8513821331661" lon="9.949412117553432"><ele>1247.0</ele><time>2026-04-26T10:52:54Z</time></trkpt><trkpt lat="45.851452044860366" lon="9.94932035519044"><ele>1247.0</ele><time>2026-04-26T10:52:56Z</time></trkpt><trkpt lat="45.85153381255826" lon="9.949327489889049"><ele>1247.0</ele><time>2026-04-26T10:52:58Z</time></trkpt><trkpt lat="45.85164133628219" lon="9.949341684430719"><ele>1247.0</ele><time>2026-04-26T10:53:00Z</time></trkpt><trkpt lat="45.851730650552526" lon="9.949428935138727"><ele>1247.0</ele><time>2026-04-26T10:53:02Z</time></trkpt><trkpt lat="45.85176797569021" lon="9.949589846642812"><ele>1247.0</ele><time>2026-04-26T10:53:04Z</time></trkpt><trkpt lat="45.851789769691855" lon="9.949681732851918"><ele>1247.0</ele><time>2026-04-26T10:53:05Z</time></trkpt><trkpt lat="45.85182917529868" lon="9.949858675900003"><ele>1247.0</ele><time>2026-04-26T10:53:07Z</time></trkpt><trkpt lat="45.851901699830854" lon="9.950013138942458"><ele>1247.0</ele><time>2026-04-26T10:53:09Z</time></trkpt><trkpt lat="45.851966036092456" lon="9.950063361396609"><ele>1247.0</ele><time>2026-04-26T10:53:10Z</time></trkpt><trkpt lat="45.85201464111808" lon="9.950130111396057"><ele>1239.0</ele><time>2026-04-26T10:53:11Z</time></trkpt><trkpt lat="45.852082606560735" lon="9.950243102410305"><ele>1231.0</ele><time>2026-04-26T10:53:13Z</time></trkpt><trkpt lat="45.852137503039856" lon="9.950382036562859"><ele>1223.0</ele><time>2026-04-26T10:53:15Z</time></trkpt><trkpt lat="45.852188276259824" lon="9.95054055978229"><ele>1215.0</ele><time>2026-04-26T10:53:16.999Z</time></trkpt><trkpt lat="45.852208258438424" lon="9.950638246609945"><ele>1207.0</ele><time>2026-04-26T10:53:17.999Z</time></trkpt><trkpt lat="45.85222576830623" lon="9.9508201924922"><ele>1206.2</ele><time>2026-04-26T10:53:19.999Z</time></trkpt><trkpt lat="45.85224302393327" lon="9.95091479020624"><ele>1205.4</ele><time>2026-04-26T10:53:20.999Z</time></trkpt><trkpt lat="45.85226427855928" lon="9.951006154896815"><ele>1204.6</ele><time>2026-04-26T10:53:21.999Z</time></trkpt><trkpt lat="45.852274025263846" lon="9.951202093351018"><ele>1203.8</ele><time>2026-04-26T10:53:23.999Z</time></trkpt><trkpt lat="45.852294183534234" lon="9.951328214293396"><ele>1203.0</ele><time>2026-04-26T10:53:25.999Z</time></trkpt><trkpt lat="45.85237514570188" lon="9.951276025328024"><ele>1203.0</ele><time>2026-04-26T10:53:31.999Z</time></trkpt><trkpt lat="45.852452113758744" lon="9.951181774588482"><ele>1203.0</ele><time>2026-04-26T10:53:33.999Z</time></trkpt><trkpt lat="45.8524926585978" lon="9.951110522885296"><ele>1203.0</ele><time>2026-04-26T10:53:34.999Z</time></trkpt><trkpt lat="45.85256845333365" lon="9.95097993617441"><ele>1203.0</ele><time>2026-04-26T10:53:36.999Z</time></trkpt><trkpt lat="45.85261466090098" lon="9.950891725420597"><ele>1203.0</ele><time>2026-04-26T10:53:37.999Z</time></trkpt><trkpt lat="45.8526683136695" lon="9.95073587552093"><ele>1198.4285714285713</ele><time>2026-04-26T10:53:39.999Z</time></trkpt><trkpt lat="45.85270758362516" lon="9.950655106594471"><ele>1193.857142857143</ele><time>2026-04-26T10:53:40.999Z</time></trkpt><trkpt lat="45.852746164708954" lon="9.950565446338256"><ele>1189.2857142857142</ele><time>2026-04-26T10:53:41.999Z</time></trkpt><trkpt lat="45.852775611923455" lon="9.950470169328632"><ele>1184.7142857142858</ele><time>2026-04-26T10:53:42.999Z</time></trkpt><trkpt lat="45.85279488632034" lon="9.950358557719763"><ele>1180.142857142857</ele><time>2026-04-26T10:53:43.999Z</time></trkpt><trkpt lat="45.85281437556446" lon="9.950250792527065"><ele>1175.5714285714284</ele><time>2026-04-26T10:53:44.999Z</time></trkpt><trkpt lat="45.852844511141875" lon="9.95016538643286"><ele>1171.0</ele><time>2026-04-26T10:53:45.999Z</time></trkpt><trkpt lat="45.85288653567163" lon="9.950094805251481"><ele>1171.6666666666665</ele><time>2026-04-26T10:53:46.999Z</time></trkpt><trkpt lat="45.8529428066805" lon="9.950015971377285"><ele>1172.3333333333333</ele><time>2026-04-26T10:53:47.999Z</time></trkpt><trkpt lat="45.85301490399284" lon="9.949932011430999"><ele>1173.0</ele><time>2026-04-26T10:53:48.999Z</time></trkpt><trkpt lat="45.85308267617031" lon="9.949860865540854"><ele>1173.6666666666667</ele><time>2026-04-26T10:53:49.999Z</time></trkpt><trkpt lat="45.8531497577999" lon="9.949779781267946"><ele>1174.3333333333335</ele><time>2026-04-26T10:53:50.999Z</time></trkpt><trkpt lat="45.853215552151795" lon="9.94969969917667"><ele>1175.0</ele><time>2026-04-26T10:53:51.999Z</time></trkpt><trkpt lat="45.853285796162005" lon="9.94962594813229"><ele>1175.0</ele><time>2026-04-26T10:53:52.999Z</time></trkpt><trkpt lat="45.85334849408203" lon="9.949565569134178"><ele>1175.0</ele><time>2026-04-26T10:53:53.999Z</time></trkpt><trkpt lat="45.85341450001303" lon="9.9495204098871"><ele>1175.0</ele><time>2026-04-26T10:53:54.999Z</time></trkpt><trkpt lat="45.85349534168536" lon="9.949486889308906"><ele>1175.0</ele><time>2026-04-26T10:53:55.999Z</time></trkpt><trkpt lat="45.85357868047097" lon="9.949438447581864"><ele>1175.0</ele><time>2026-04-26T10:53:56.999Z</time></trkpt><trkpt lat="45.85364410177542" lon="9.949391918881105"><ele>1175.0</ele><time>2026-04-26T10:53:57.999Z</time></trkpt><trkpt lat="45.853708532515455" lon="9.949342901902568"><ele>1172.3333333333335</ele><time>2026-04-26T10:53:58.999Z</time></trkpt><trkpt lat="45.85376814599974" lon="9.949294363776687"><ele>1169.6666666666667</ele><time>2026-04-26T10:53:59.999Z</time></trkpt><trkpt lat="45.853829282978445" lon="9.949249827474306"><ele>1167.0</ele><time>2026-04-26T10:54:00.999Z</time></trkpt><trkpt lat="45.853957110286935" lon="9.949248708243728"><ele>1164.3333333333333</ele><time>2026-04-26T10:54:02.999Z</time></trkpt><trkpt lat="45.854028274259086" lon="9.949266083311768"><ele>1161.6666666666665</ele><time>2026-04-26T10:54:03.999Z</time></trkpt><trkpt lat="45.85409593114521" lon="9.949250977837323"><ele>1159.0</ele><time>2026-04-26T10:54:04.999Z</time></trkpt><trkpt lat="45.85415848722872" lon="9.949213842853453"><ele>1159.1666666666665</ele><time>2026-04-26T10:54:05.999Z</time></trkpt><trkpt lat="45.8542207753199" lon="9.949163742732166"><ele>1159.3333333333333</ele><time>2026-04-26T10:54:07Z</time></trkpt><trkpt lat="45.854279526379244" lon="9.94909002235842"><ele>1159.5</ele><time>2026-04-26T10:54:08Z</time></trkpt><trkpt lat="45.854339115393394" lon="9.949013680027553"><ele>1159.6666666666667</ele><time>2026-04-26T10:54:09Z</time></trkpt><trkpt lat="45.85440961949534" lon="9.948948223832994"><ele>1159.8333333333335</ele><time>2026-04-26T10:54:10Z</time></trkpt><trkpt lat="45.85448297726173" lon="9.948893506349071"><ele>1160.0</ele><time>2026-04-26T10:54:11Z</time></trkpt><trkpt lat="45.85456302463439" lon="9.948841965151528"><ele>1156.2</ele><time>2026-04-26T10:54:12Z</time></trkpt><trkpt lat="45.85464318704894" lon="9.94878244352274"><ele>1152.4</ele><time>2026-04-26T10:54:13Z</time></trkpt><trkpt lat="45.8547232789942" lon="9.948730168185685"><ele>1148.6</ele><time>2026-04-26T10:54:14Z</time></trkpt><trkpt lat="45.85481686590393" lon="9.948684938689043"><ele>1144.8</ele><time>2026-04-26T10:54:15Z</time></trkpt><trkpt lat="45.85491513981358" lon="9.94864733486347"><ele>1141.0</ele><time>2026-04-26T10:54:16Z</time></trkpt><trkpt lat="45.855022412294886" lon="9.948627192461963"><ele>1139.6</ele><time>2026-04-26T10:54:17Z</time></trkpt><trkpt lat="45.85512579410287" lon="9.948607834846525"><ele>1138.1999999999998</ele><time>2026-04-26T10:54:18Z</time></trkpt><trkpt lat="45.8552331769496" lon="9.948578167041315"><ele>1136.8000000000002</ele><time>2026-04-26T10:54:19Z</time></trkpt><trkpt lat="45.85533711325065" lon="9.948553459515232"><ele>1135.4</ele><time>2026-04-26T10:54:20Z</time></trkpt><trkpt lat="45.855445657830685" lon="9.948581726892455"><ele>1134.0</ele><time>2026-04-26T10:54:21Z</time></trkpt><trkpt lat="45.8555627929476" lon="9.94858343537904"><ele>1134.0</ele><time>2026-04-26T10:54:22Z</time></trkpt><trkpt lat="45.855676282319294" lon="9.94860529077623"><ele>1134.0</ele><time>2026-04-26T10:54:23Z</time></trkpt><trkpt lat="45.85577943330354" lon="9.948632119884698"><ele>1134.0</ele><time>2026-04-26T10:54:24Z</time></trkpt><trkpt lat="45.85586906163339" lon="9.948647423297551"><ele>1134.0</ele><time>2026-04-26T10:54:25Z</time></trkpt><trkpt lat="45.85596273416239" lon="9.948656094970449"><ele>1134.0</ele><time>2026-04-26T10:54:26Z</time></trkpt><trkpt lat="45.856056761723124" lon="9.948643512527163"><ele>1133.8</ele><time>2026-04-26T10:54:27Z</time></trkpt><trkpt lat="45.85614513308868" lon="9.948600881488094"><ele>1133.6000000000001</ele><time>2026-04-26T10:54:28Z</time></trkpt><trkpt lat="45.85624088664374" lon="9.948511302220282"><ele>1133.4</ele><time>2026-04-26T10:54:29Z</time></trkpt><trkpt lat="45.85634834659614" lon="9.948400914793895"><ele>1133.2</ele><time>2026-04-26T10:54:30Z</time></trkpt><trkpt lat="45.85643498143328" lon="9.948330668197817"><ele>1133.0</ele><time>2026-04-26T10:54:31Z</time></trkpt><trkpt lat="45.856518445614924" lon="9.948261684205683"><ele>1133.3333333333335</ele><time>2026-04-26T10:54:32Z</time></trkpt><trkpt lat="45.856598116802566" lon="9.948203898888437"><ele>1133.6666666666667</ele><time>2026-04-26T10:54:33Z</time></trkpt><trkpt lat="45.856672092173966" lon="9.948159450940434"><ele>1134.0</ele><time>2026-04-26T10:54:34Z</time></trkpt><trkpt lat="45.856748152898696" lon="9.948131815717897"><ele>1134.3333333333333</ele><time>2026-04-26T10:54:35Z</time></trkpt><trkpt lat="45.85683424861946" lon="9.948104220604014"><ele>1134.6666666666665</ele><time>2026-04-26T10:54:36Z</time></trkpt><trkpt lat="45.85692974918514" lon="9.948073882070627"><ele>1135.0</ele><time>2026-04-26T10:54:37Z</time></trkpt><trkpt lat="45.857030464709254" lon="9.94804034726695"><ele>1135.8</ele><time>2026-04-26T10:54:38Z</time></trkpt><trkpt lat="45.85712606721997" lon="9.94801357907806"><ele>1136.6</ele><time>2026-04-26T10:54:39Z</time></trkpt><trkpt lat="45.85721301178331" lon="9.947985428745929"><ele>1137.4</ele><time>2026-04-26T10:54:40Z</time></trkpt><trkpt lat="45.85730312079367" lon="9.947949845136826"><ele>1138.2</ele><time>2026-04-26T10:54:41Z</time></trkpt><trkpt lat="45.857390961703246" lon="9.947914512263928"><ele>1139.0</ele><time>2026-04-26T10:54:42Z</time></trkpt><trkpt lat="45.85747543047245" lon="9.947906580913326"><ele>1139.0</ele><time>2026-04-26T10:54:43Z</time></trkpt><trkpt lat="45.85755031783013" lon="9.947909916877961"><ele>1139.0</ele><time>2026-04-26T10:54:44Z</time></trkpt><trkpt lat="45.85761598883082" lon="9.94796314889769"><ele>1139.0</ele><time>2026-04-26T10:54:45Z</time></trkpt><trkpt lat="45.857679574536974" lon="9.947981388063408"><ele>1139.0</ele><time>2026-04-26T10:54:46Z</time></trkpt><trkpt lat="45.85774646235109" lon="9.947973583452839"><ele>1139.0</ele><time>2026-04-26T10:54:47Z</time></trkpt><trkpt lat="45.85789130242752" lon="9.947929423469644"><ele>1139.0</ele><time>2026-04-26T10:54:49Z</time></trkpt><trkpt lat="45.85798138663503" lon="9.947894547247365"><ele>1137.5</ele><time>2026-04-26T10:54:50Z</time></trkpt><trkpt lat="45.85807593523881" lon="9.947856544534012"><ele>1136.0</ele><time>2026-04-26T10:54:51Z</time></trkpt><trkpt lat="45.85817242384501" lon="9.947817881943736"><ele>1134.5</ele><time>2026-04-26T10:54:52Z</time></trkpt><trkpt lat="45.858250922007855" lon="9.947786564329434"><ele>1133.0</ele><time>2026-04-26T10:54:53Z</time></trkpt><trkpt lat="45.858337844114814" lon="9.947755246891587"><ele>1131.5</ele><time>2026-04-26T10:54:54Z</time></trkpt><trkpt lat="45.85841019896823" lon="9.94772978986238"><ele>1130.0</ele><time>2026-04-26T10:54:55Z</time></trkpt><trkpt lat="45.858487424435936" lon="9.947702619195553"><ele>1129.4</ele><time>2026-04-26T10:54:56Z</time></trkpt><trkpt lat="45.858569500012415" lon="9.947671593845833"><ele>1128.8</ele><time>2026-04-26T10:54:57Z</time></trkpt><trkpt lat="45.85863645869973" lon="9.94764409646862"><ele>1128.2</ele><time>2026-04-26T10:54:58Z</time></trkpt><trkpt lat="45.85870657529322" lon="9.947615307423625"><ele>1127.6</ele><time>2026-04-26T10:54:59Z</time></trkpt><trkpt lat="45.858812986663615" lon="9.947592198810554"><ele>1127.0</ele><time>2026-04-26T10:55:01Z</time></trkpt><trkpt lat="45.858923462171845" lon="9.94751293446141"><ele>1128.0</ele><time>2026-04-26T10:55:03Z</time></trkpt><trkpt lat="45.85898953246298" lon="9.947483871906218"><ele>1129.0</ele><time>2026-04-26T10:55:04Z</time></trkpt><trkpt lat="45.85904499519527" lon="9.947396435242428"><ele>1130.0</ele><time>2026-04-26T10:55:05Z</time></trkpt><trkpt lat="45.85911981596611" lon="9.94728041913823"><ele>1131.0</ele><time>2026-04-26T10:55:06Z</time></trkpt><trkpt lat="45.8591732931927" lon="9.94719764302437"><ele>1132.0</ele><time>2026-04-26T10:55:07Z</time></trkpt><trkpt lat="45.85923203193284" lon="9.947106172930587"><ele>1133.0</ele><time>2026-04-26T10:55:08Z</time></trkpt><trkpt lat="45.85927838709253" lon="9.947016876168561"><ele>1133.6666666666667</ele><time>2026-04-26T10:55:09Z</time></trkpt><trkpt lat="45.85932806777808" lon="9.946947960517628"><ele>1134.3333333333335</ele><time>2026-04-26T10:55:10Z</time></trkpt><trkpt lat="45.859383251600775" lon="9.946890636243573"><ele>1135.0</ele><time>2026-04-26T10:55:11Z</time></trkpt><trkpt lat="45.85945373204237" lon="9.946849345152497"><ele>1135.6666666666667</ele><time>2026-04-26T10:55:12Z</time></trkpt><trkpt lat="45.8595320436939" lon="9.946825361596701"><ele>1136.3333333333333</ele><time>2026-04-26T10:55:13Z</time></trkpt><trkpt lat="45.85960705026246" lon="9.946818444060302"><ele>1137.0</ele><time>2026-04-26T10:55:14Z</time></trkpt><trkpt lat="45.85975743447857" lon="9.946822541189213"><ele>1137.0</ele><time>2026-04-26T10:55:16Z</time></trkpt><trkpt lat="45.8598376622345" lon="9.946842216914044"><ele>1137.0</ele><time>2026-04-26T10:55:17Z</time></trkpt><trkpt lat="45.859901268756765" lon="9.946842216918114"><ele>1137.0</ele><time>2026-04-26T10:55:18Z</time></trkpt><trkpt lat="45.85998003082322" lon="9.946839557838805"><ele>1137.0</ele><time>2026-04-26T10:55:19Z</time></trkpt><trkpt lat="45.86006596082096" lon="9.9468338116604"><ele>1137.0</ele><time>2026-04-26T10:55:20Z</time></trkpt><trkpt lat="45.860151660290065" lon="9.946825309062755"><ele>1137.0</ele><time>2026-04-26T10:55:21Z</time></trkpt><trkpt lat="45.86024568547719" lon="9.946815980440528"><ele>1136.4</ele><time>2026-04-26T10:55:22Z</time></trkpt><trkpt lat="45.86034541512761" lon="9.946804839003594"><ele>1135.8000000000002</ele><time>2026-04-26T10:55:23Z</time></trkpt><trkpt lat="45.86044560721059" lon="9.946790061425538"><ele>1135.2</ele><time>2026-04-26T10:55:24Z</time></trkpt><trkpt lat="45.86054200088149" lon="9.946772271808964"><ele>1134.6000000000001</ele><time>2026-04-26T10:55:24.999Z</time></trkpt><trkpt lat="45.860629153377204" lon="9.946752045390546"><ele>1134.0</ele><time>2026-04-26T10:55:25.999Z</time></trkpt><trkpt lat="45.86071577148612" lon="9.946752589598855"><ele>1132.2</ele><time>2026-04-26T10:55:26.999Z</time></trkpt><trkpt lat="45.860793429104405" lon="9.946697649016864"><ele>1130.4</ele><time>2026-04-26T10:55:27.999Z</time></trkpt><trkpt lat="45.86086924996238" lon="9.946663792331753"><ele>1128.6</ele><time>2026-04-26T10:55:28.999Z</time></trkpt><trkpt lat="45.860943685346186" lon="9.946675771768684"><ele>1126.8</ele><time>2026-04-26T10:55:29.999Z</time></trkpt><trkpt lat="45.860993606641046" lon="9.946836073421572"><ele>1125.0</ele><time>2026-04-26T10:55:30.999Z</time></trkpt><trkpt lat="45.86113203906085" lon="9.946858641212796"><ele>1124.4</ele><time>2026-04-26T10:55:32.999Z</time></trkpt><trkpt lat="45.86127088067913" lon="9.946928178709523"><ele>1123.8</ele><time>2026-04-26T10:55:34.999Z</time></trkpt><trkpt lat="45.861363311077476" lon="9.946966729524167"><ele>1123.2</ele><time>2026-04-26T10:55:35.999Z</time></trkpt><trkpt lat="45.861454557416245" lon="9.94703906565345"><ele>1122.6</ele><time>2026-04-26T10:55:36.999Z</time></trkpt><trkpt lat="45.86153458735516" lon="9.947064795460818"><ele>1122.0</ele><time>2026-04-26T10:55:37.999Z</time></trkpt><trkpt lat="45.86158076540298" lon="9.947130013911176"><ele>1122.0</ele><time>2026-04-26T10:55:38.999Z</time></trkpt><trkpt lat="45.86165111279421" lon="9.947220974000064"><ele>1122.0</ele><time>2026-04-26T10:55:39.999Z</time></trkpt><trkpt lat="45.861719305328045" lon="9.947332096682343"><ele>1122.0</ele><time>2026-04-26T10:55:40.999Z</time></trkpt><trkpt lat="45.86177284535896" lon="9.947432369498706"><ele>1122.0</ele><time>2026-04-26T10:55:41.999Z</time></trkpt><trkpt lat="45.86179212875187" lon="9.94754567488531"><ele>1122.0</ele><time>2026-04-26T10:55:42.999Z</time></trkpt><trkpt lat="45.861764807170545" lon="9.947659282748422"><ele>1118.0</ele><time>2026-04-26T10:55:43.999Z</time></trkpt><trkpt lat="45.86182815539144" lon="9.947771600157138"><ele>1114.0</ele><time>2026-04-26T10:55:45.999Z</time></trkpt><trkpt lat="45.86188709020819" lon="9.947896786116674"><ele>1110.0</ele><time>2026-04-26T10:55:47.999Z</time></trkpt><trkpt lat="45.86198565459197" lon="9.94815191122464"><ele>1106.0</ele><time>2026-04-26T10:55:49.999Z</time></trkpt><trkpt lat="45.86207245220096" lon="9.948217881541266"><ele>1106.0</ele><time>2026-04-26T10:55:50.999Z</time></trkpt><trkpt lat="45.86212405302559" lon="9.948270979770854"><ele>1106.0</ele><time>2026-04-26T10:55:52.999Z</time></trkpt><trkpt lat="45.86218434883551" lon="9.948328767874967"><ele>1106.0</ele><time>2026-04-26T10:55:53.999Z</time></trkpt><trkpt lat="45.862295960929494" lon="9.948214562730108"><ele>1106.0</ele><time>2026-04-26T10:55:54.999Z</time></trkpt><trkpt lat="45.86235900279111" lon="9.948215244653285"><ele>1106.0</ele><time>2026-04-26T10:55:55.999Z</time></trkpt><trkpt lat="45.86243247183475" lon="9.948191331508903"><ele>1106.0</ele><time>2026-04-26T10:55:56.999Z</time></trkpt><trkpt lat="45.862507925786296" lon="9.948242036863627"><ele>1106.0</ele><time>2026-04-26T10:55:57.999Z</time></trkpt><trkpt lat="45.862599881143545" lon="9.948253448156724"><ele>1106.0</ele><time>2026-04-26T10:55:58.999Z</time></trkpt><trkpt lat="45.8626805071247" lon="9.948268349989904"><ele>1106.0</ele><time>2026-04-26T10:55:59.999Z</time></trkpt><trkpt lat="45.86279203361634" lon="9.948300476630218"><ele>1106.0</ele><time>2026-04-26T10:56:01.999Z</time></trkpt><trkpt lat="45.86290213747649" lon="9.948347538143722"><ele>1106.0</ele><time>2026-04-26T10:56:03.999Z</time></trkpt><trkpt lat="45.8629670036573" lon="9.948375356078136"><ele>1103.0</ele><time>2026-04-26T10:56:04.999Z</time></trkpt><trkpt lat="45.86305313827499" lon="9.948412237601213"><ele>1100.0</ele><time>2026-04-26T10:56:05.999Z</time></trkpt><trkpt lat="45.86319353570375" lon="9.948453937536705"><ele>1097.0</ele><time>2026-04-26T10:56:06.999Z</time></trkpt><trkpt lat="45.86329531143794" lon="9.948460590352722"><ele>1094.0</ele><time>2026-04-26T10:56:07.999Z</time></trkpt><trkpt lat="45.86366125294726" lon="9.94848640725046"><ele>1088.6000000000001</ele><time>2026-04-26T10:56:13Z</time></trkpt><trkpt lat="45.863740211408" lon="9.9485093536647"><ele>1083.2</ele><time>2026-04-26T10:56:14Z</time></trkpt><trkpt lat="45.86382060319795" lon="9.948532716506834"><ele>1077.8000000000002</ele><time>2026-04-26T10:56:15Z</time></trkpt><trkpt lat="45.86391553098033" lon="9.948554500234184"><ele>1072.4</ele><time>2026-04-26T10:56:16Z</time></trkpt><trkpt lat="45.86402579159964" lon="9.948568721197836"><ele>1067.0</ele><time>2026-04-26T10:56:17Z</time></trkpt><trkpt lat="45.864124916556904" lon="9.948578997674543"><ele>1067.0</ele><time>2026-04-26T10:56:18Z</time></trkpt><trkpt lat="45.864208887775995" lon="9.948585252457995"><ele>1067.0</ele><time>2026-04-26T10:56:19Z</time></trkpt><trkpt lat="45.864277412542094" lon="9.94858761597455"><ele>1067.0</ele><time>2026-04-26T10:56:20Z</time></trkpt><trkpt lat="45.864344966957695" lon="9.948584651441804"><ele>1067.0</ele><time>2026-04-26T10:56:21Z</time></trkpt><trkpt lat="45.86441360973273" lon="9.94853579911437"><ele>1067.0</ele><time>2026-04-26T10:56:22Z</time></trkpt><trkpt lat="45.864477006420046" lon="9.948529489830038"><ele>1067.0</ele><time>2026-04-26T10:56:23Z</time></trkpt><trkpt lat="45.86456912546775" lon="9.948513697842682"><ele>1062.5</ele><time>2026-04-26T10:56:25Z</time></trkpt><trkpt lat="45.864782235628255" lon="9.94855973606739"><ele>1058.0</ele><time>2026-04-26T10:56:26Z</time></trkpt><trkpt lat="45.864824907121275" lon="9.948470657437039"><ele>1053.5</ele><time>2026-04-26T10:56:27Z</time></trkpt><trkpt lat="45.86487016446293" lon="9.948384221190535"><ele>1049.0</ele><time>2026-04-26T10:56:28Z</time></trkpt><trkpt lat="45.86492146528688" lon="9.948277875394096"><ele>1049.0</ele><time>2026-04-26T10:56:29Z</time></trkpt><trkpt lat="45.86497119438267" lon="9.948199022011487"><ele>1049.0</ele><time>2026-04-26T10:56:30Z</time></trkpt><trkpt lat="45.86502819356109" lon="9.948108096129998"><ele>1049.0</ele><time>2026-04-26T10:56:31Z</time></trkpt><trkpt lat="45.865010070119375" lon="9.947666113640398"><ele>1049.0</ele><time>2026-04-26T10:56:35Z</time></trkpt><trkpt lat="45.865081380140346" lon="9.947606470382262"><ele>1049.0</ele><time>2026-04-26T10:58:22Z</time></trkpt><trkpt lat="45.86511799466119" lon="9.947456591745544"><ele>1049.0</ele><time>2026-04-26T10:58:25Z</time></trkpt><trkpt lat="45.86513974675369" lon="9.947347617351488"><ele>1049.0</ele><time>2026-04-26T10:58:26Z</time></trkpt><trkpt lat="45.865170061436395" lon="9.94722168936523"><ele>1049.0</ele><time>2026-04-26T10:58:27Z</time></trkpt><trkpt lat="45.8652063446831" lon="9.947071157202675"><ele>1043.8</ele><time>2026-04-26T10:58:28Z</time></trkpt><trkpt lat="45.865250251311565" lon="9.946969493592544"><ele>1038.6000000000001</ele><time>2026-04-26T10:58:29Z</time></trkpt><trkpt lat="45.86533227210649" lon="9.946868352127815"><ele>1033.4</ele><time>2026-04-26T10:58:30Z</time></trkpt><trkpt lat="45.86541862421472" lon="9.946757814821245"><ele>1028.2</ele><time>2026-04-26T10:58:31Z</time></trkpt><trkpt lat="45.86548960832795" lon="9.946642833368035"><ele>1023.0</ele><time>2026-04-26T10:58:32Z</time></trkpt><trkpt lat="45.86556840354877" lon="9.946524091648046"><ele>1023.0</ele><time>2026-04-26T10:58:33Z</time></trkpt><trkpt lat="45.86563528195709" lon="9.946402043556283"><ele>1023.0</ele><time>2026-04-26T10:58:34Z</time></trkpt><trkpt lat="45.86570611685669" lon="9.946284009185124"><ele>1023.0</ele><time>2026-04-26T10:58:35Z</time></trkpt><trkpt lat="45.865766399890575" lon="9.946152738690698"><ele>1023.0</ele><time>2026-04-26T10:58:36Z</time></trkpt><trkpt lat="45.865773792452515" lon="9.94605676410734"><ele>1023.0</ele><time>2026-04-26T10:58:37Z</time></trkpt><trkpt lat="45.865791369271506" lon="9.945969479668344"><ele>1022.2</ele><time>2026-04-26T10:58:38Z</time></trkpt><trkpt lat="45.86580009452046" lon="9.945870813660335"><ele>1021.4</ele><time>2026-04-26T10:58:39Z</time></trkpt><trkpt lat="45.865779304644924" lon="9.945760246778827"><ele>1020.6000000000001</ele><time>2026-04-26T10:58:40Z</time></trkpt><trkpt lat="45.8657310247921" lon="9.945666391327647"><ele>1019.8000000000001</ele><time>2026-04-26T10:58:41Z</time></trkpt><trkpt lat="45.865637180615586" lon="9.945557221057028"><ele>1019.0</ele><time>2026-04-26T10:58:42Z</time></trkpt><trkpt lat="45.865541623514154" lon="9.945438059914268"><ele>1019.0</ele><time>2026-04-26T10:58:43Z</time></trkpt><trkpt lat="45.86545781181365" lon="9.945301796540297"><ele>1019.0000000000001</ele><time>2026-04-26T10:58:44Z</time></trkpt><trkpt lat="45.86538518627892" lon="9.945167580561007"><ele>1019.0000000000001</ele><time>2026-04-26T10:58:45Z</time></trkpt><trkpt lat="45.86532726295786" lon="9.94506748201074"><ele>1019.0</ele><time>2026-04-26T10:58:46Z</time></trkpt><trkpt lat="45.86530270019062" lon="9.944960284878766"><ele>1019.0</ele><time>2026-04-26T10:58:48Z</time></trkpt><trkpt lat="45.86536725541043" lon="9.945059739089466"><ele>1019.0</ele><time>2026-04-26T10:58:51Z</time></trkpt><trkpt lat="45.865478952569276" lon="9.945152379246073"><ele>1019.0</ele><time>2026-04-26T10:58:52Z</time></trkpt><trkpt lat="45.86557016206266" lon="9.945223196546953"><ele>1019.0</ele><time>2026-04-26T10:58:53Z</time></trkpt><trkpt lat="45.86567361041624" lon="9.94529474352622"><ele>1019.0</ele><time>2026-04-26T10:58:54Z</time></trkpt><trkpt lat="45.865787942721184" lon="9.945340375044639"><ele>1019.0</ele><time>2026-04-26T10:58:55Z</time></trkpt><trkpt lat="45.865907315843124" lon="9.945377894918861"><ele>1019.0</ele><time>2026-04-26T10:58:56Z</time></trkpt><trkpt lat="45.86600939979866" lon="9.945448126208344"><ele>1019.0</ele><time>2026-04-26T10:58:57Z</time></trkpt><trkpt lat="45.86611726353423" lon="9.945548954572738"><ele>1019.0</ele><time>2026-04-26T10:58:58Z</time></trkpt><trkpt lat="45.866215278922056" lon="9.945640900408451"><ele>1012.4000000000001</ele><time>2026-04-26T10:58:59Z</time></trkpt><trkpt lat="45.866329047429204" lon="9.945706906605334"><ele>1005.8000000000001</ele><time>2026-04-26T10:59:00Z</time></trkpt><trkpt lat="45.86642023668143" lon="9.945786608810868"><ele>999.1999999999999</ele><time>2026-04-26T10:59:01Z</time></trkpt><trkpt lat="45.86652036432883" lon="9.94581865934683"><ele>992.5999999999999</ele><time>2026-04-26T10:59:02Z</time></trkpt><trkpt lat="45.8665827981067" lon="9.945899800024435"><ele>986.0</ele><time>2026-04-26T10:59:03Z</time></trkpt><trkpt lat="45.86660983094061" lon="9.946019497893493"><ele>986.0</ele><time>2026-04-26T10:59:04Z</time></trkpt><trkpt lat="45.866618991077274" lon="9.946187467582211"><ele>986.0</ele><time>2026-04-26T10:59:05Z</time></trkpt><trkpt lat="45.86662395093825" lon="9.946379540776022"><ele>986.0</ele><time>2026-04-26T10:59:06Z</time></trkpt><trkpt lat="45.86663768101111" lon="9.946578745518718"><ele>986.0</ele><time>2026-04-26T10:59:07Z</time></trkpt><trkpt lat="45.86664216740418" lon="9.946764476729262"><ele>985.0</ele><time>2026-04-26T10:59:08Z</time></trkpt><trkpt lat="45.86661953819871" lon="9.946936859704005"><ele>984.0</ele><time>2026-04-26T10:59:09Z</time></trkpt><trkpt lat="45.86658543230233" lon="9.94711189767989"><ele>983.0</ele><time>2026-04-26T10:59:10Z</time></trkpt><trkpt lat="45.86657526571635" lon="9.947298995157054"><ele>982.0</ele><time>2026-04-26T10:59:11Z</time></trkpt><trkpt lat="45.866597707631236" lon="9.947450274677488"><ele>981.2</ele><time>2026-04-26T10:59:12Z</time></trkpt><trkpt lat="45.866613099643104" lon="9.947646638294456"><ele>980.4000000000001</ele><time>2026-04-26T10:59:13Z</time></trkpt><trkpt lat="45.86662017427192" lon="9.947778170406888"><ele>979.5999999999999</ele><time>2026-04-26T10:59:14Z</time></trkpt><trkpt lat="45.866593636977605" lon="9.947900961633293"><ele>978.8</ele><time>2026-04-26T10:59:15Z</time></trkpt><trkpt lat="45.86659816944845" lon="9.948002492064854"><ele>978.0</ele><time>2026-04-26T10:59:16Z</time></trkpt><trkpt lat="45.86659779221788" lon="9.94809575472303"><ele>978.0</ele><time>2026-04-26T10:59:17Z</time></trkpt><trkpt lat="45.86665590245652" lon="9.948181981729501"><ele>978.0</ele><time>2026-04-26T10:59:19Z</time></trkpt><trkpt lat="45.866725003218825" lon="9.948181683357507"><ele>978.0</ele><time>2026-04-26T10:59:20Z</time></trkpt><trkpt lat="45.8667741675037" lon="9.948054490515059"><ele>978.0</ele><time>2026-04-26T10:59:21Z</time></trkpt><trkpt lat="45.866803707449776" lon="9.947911693074564"><ele>978.0</ele><time>2026-04-26T10:59:22Z</time></trkpt><trkpt lat="45.86684229900198" lon="9.947766641235694"><ele>968.25</ele><time>2026-04-26T10:59:23Z</time></trkpt><trkpt lat="45.86688301505566" lon="9.947606634909304"><ele>958.5</ele><time>2026-04-26T10:59:24Z</time></trkpt><trkpt lat="45.86692307501645" lon="9.947437929331182"><ele>948.75</ele><time>2026-04-26T10:59:25Z</time></trkpt><trkpt lat="45.86699587834751" lon="9.947314276175286"><ele>939.0</ele><time>2026-04-26T10:59:26Z</time></trkpt><trkpt lat="45.86705831319027" lon="9.947147953813028"><ele>939.0</ele><time>2026-04-26T10:59:27Z</time></trkpt><trkpt lat="45.867118026980755" lon="9.946998111998305"><ele>939.0</ele><time>2026-04-26T10:59:28Z</time></trkpt><trkpt lat="45.86717186944856" lon="9.946840857856092"><ele>939.0</ele><time>2026-04-26T10:59:29Z</time></trkpt><trkpt lat="45.867227450602364" lon="9.946681403580346"><ele>939.0</ele><time>2026-04-26T10:59:30Z</time></trkpt><trkpt lat="45.867287247107484" lon="9.946523881743364"><ele>940.75</ele><time>2026-04-26T10:59:31Z</time></trkpt><trkpt lat="45.86736210100461" lon="9.94635540653688"><ele>942.5</ele><time>2026-04-26T10:59:32Z</time></trkpt><trkpt lat="45.86742706853449" lon="9.94621344464903"><ele>944.25</ele><time>2026-04-26T10:59:32.999Z</time></trkpt><trkpt lat="45.86748283686447" lon="9.946070886665971"><ele>946.0</ele><time>2026-04-26T10:59:33.999Z</time></trkpt><trkpt lat="45.86753028514613" lon="9.945932328562035"><ele>945.9999999999999</ele><time>2026-04-26T10:59:34.999Z</time></trkpt><trkpt lat="45.86755610358785" lon="9.945802520517995"><ele>946.0</ele><time>2026-04-26T10:59:35.999Z</time></trkpt><trkpt lat="45.86758046853105" lon="9.945688632612798"><ele>946.0</ele><time>2026-04-26T10:59:36.999Z</time></trkpt><trkpt lat="45.86758548544337" lon="9.945583703990463"><ele>946.0</ele><time>2026-04-26T10:59:37.999Z</time></trkpt><trkpt lat="45.86760682515962" lon="9.945465844913969"><ele>945.9999999999999</ele><time>2026-04-26T10:59:39.999Z</time></trkpt><trkpt lat="45.86768030051585" lon="9.945387943583247"><ele>946.0</ele><time>2026-04-26T10:59:41.999Z</time></trkpt><trkpt lat="45.8676687362391" lon="9.94557253837022"><ele>936.0</ele><time>2026-04-26T10:59:42.999Z</time></trkpt><trkpt lat="45.867662960530645" lon="9.945701663152295"><ele>926.0</ele><time>2026-04-26T10:59:43.999Z</time></trkpt><trkpt lat="45.867664737802734" lon="9.945868215102461"><ele>916.0</ele><time>2026-04-26T10:59:44.999Z</time></trkpt><trkpt lat="45.867654294359546" lon="9.946039957256662"><ele>906.0</ele><time>2026-04-26T10:59:45.999Z</time></trkpt><trkpt lat="45.86764330406742" lon="9.946225792770987"><ele>905.0</ele><time>2026-04-26T10:59:46.999Z</time></trkpt><trkpt lat="45.86762613082397" lon="9.946373500043332"><ele>903.9999999999999</ele><time>2026-04-26T10:59:47.999Z</time></trkpt><trkpt lat="45.867610031968596" lon="9.946526047901406"><ele>902.9999999999999</ele><time>2026-04-26T10:59:48.999Z</time></trkpt><trkpt lat="45.86760191869911" lon="9.946678351207554"><ele>902.0</ele><time>2026-04-26T10:59:49.999Z</time></trkpt><trkpt lat="45.86757618463739" lon="9.946778903647225"><ele>901.0</ele><time>2026-04-26T10:59:50.999Z</time></trkpt><trkpt lat="45.86756073764217" lon="9.946935896725726"><ele>907.5999999999999</ele><time>2026-04-26T10:59:51.999Z</time></trkpt><trkpt lat="45.86754445888401" lon="9.947098515920484"><ele>914.1999999999999</ele><time>2026-04-26T10:59:52.999Z</time></trkpt><trkpt lat="45.867531971587084" lon="9.9472232593807"><ele>920.8000000000001</ele><time>2026-04-26T10:59:53.999Z</time></trkpt><trkpt lat="45.86751816976073" lon="9.947337042743186"><ele>927.4000000000001</ele><time>2026-04-26T10:59:54.999Z</time></trkpt><trkpt lat="45.86751626039685" lon="9.947473875682745"><ele>934.0</ele><time>2026-04-26T10:59:55.999Z</time></trkpt><trkpt lat="45.86750442905029" lon="9.947607515677227"><ele>933.9999999999999</ele><time>2026-04-26T10:59:56.999Z</time></trkpt><trkpt lat="45.86751080728796" lon="9.94772313747735"><ele>934.0</ele><time>2026-04-26T10:59:57.999Z</time></trkpt><trkpt lat="45.8675188026909" lon="9.947836143004896"><ele>934.0</ele><time>2026-04-26T10:59:58.999Z</time></trkpt><trkpt lat="45.867525951072956" lon="9.94795567678796"><ele>934.0</ele><time>2026-04-26T10:59:59.999Z</time></trkpt><trkpt lat="45.86750308658917" lon="9.948071531328484"><ele>933.9999999999999</ele><time>2026-04-26T11:00:01.999Z</time></trkpt><trkpt lat="45.86758947335894" lon="9.948085776881534"><ele>934.0</ele><time>2026-04-26T11:00:03.999Z</time></trkpt><trkpt lat="45.867618591111686" lon="9.94799159805955"><ele>925.6</ele><time>2026-04-26T11:00:04.999Z</time></trkpt><trkpt lat="45.86762181231731" lon="9.947869309475204"><ele>917.2</ele><time>2026-04-26T11:00:05.999Z</time></trkpt><trkpt lat="45.86762626085837" lon="9.947725251826395"><ele>908.8000000000001</ele><time>2026-04-26T11:00:06.999Z</time></trkpt><trkpt lat="45.86765625788243" lon="9.947602358271865"><ele>900.4000000000001</ele><time>2026-04-26T11:00:07.999Z</time></trkpt><trkpt lat="45.86769591086071" lon="9.947507423112935"><ele>892.0</ele><time>2026-04-26T11:00:08.999Z</time></trkpt><trkpt lat="45.86777162439258" lon="9.947419541652419"><ele>892.0</ele><time>2026-04-26T11:00:09.999Z</time></trkpt><trkpt lat="45.86784633738524" lon="9.947341484870725"><ele>892.0</ele><time>2026-04-26T11:00:10.999Z</time></trkpt><trkpt lat="45.86787844458054" lon="9.947229223264891"><ele>892.0</ele><time>2026-04-26T11:00:11.999Z</time></trkpt><trkpt lat="45.86792518899003" lon="9.947100009509954"><ele>892.0</ele><time>2026-04-26T11:00:12.999Z</time></trkpt><trkpt lat="45.86797177927096" lon="9.946979919675615"><ele>892.0</ele><time>2026-04-26T11:00:13.999Z</time></trkpt><trkpt lat="45.86802068274254" lon="9.946852684460993"><ele>894.25</ele><time>2026-04-26T11:00:14.999Z</time></trkpt><trkpt lat="45.86806504703795" lon="9.946681880207825"><ele>896.5</ele><time>2026-04-26T11:00:15.999Z</time></trkpt><trkpt lat="45.86812129507715" lon="9.946543315494669"><ele>898.75</ele><time>2026-04-26T11:00:16.999Z</time></trkpt><trkpt lat="45.86817673202519" lon="9.946411529348946"><ele>901.0</ele><time>2026-04-26T11:00:17.999Z</time></trkpt><trkpt lat="45.868246371446595" lon="9.946276890927955"><ele>901.0</ele><time>2026-04-26T11:00:18.999Z</time></trkpt><trkpt lat="45.86828934359703" lon="9.9461521969534"><ele>900.9999999999999</ele><time>2026-04-26T11:00:19.999Z</time></trkpt><trkpt lat="45.86834128535343" lon="9.946026559253315"><ele>900.9999999999999</ele><time>2026-04-26T11:00:20.999Z</time></trkpt><trkpt lat="45.86838119539851" lon="9.945873700293598"><ele>901.0</ele><time>2026-04-26T11:00:21.999Z</time></trkpt><trkpt lat="45.86840010644968" lon="9.945709106753053"><ele>901.0</ele><time>2026-04-26T11:00:22.999Z</time></trkpt><trkpt lat="45.86842267421128" lon="9.945554440482956"><ele>900.3333333333333</ele><time>2026-04-26T11:00:23.999Z</time></trkpt><trkpt lat="45.868427531541606" lon="9.945413526200602"><ele>899.6666666666666</ele><time>2026-04-26T11:00:25Z</time></trkpt><trkpt lat="45.8684347889751" lon="9.945267642191043"><ele>899.0</ele><time>2026-04-26T11:00:26Z</time></trkpt><trkpt lat="45.86843342668806" lon="9.945168435441566"><ele>898.3333333333333</ele><time>2026-04-26T11:00:27Z</time></trkpt><trkpt lat="45.86842246321266" lon="9.945053397816501"><ele>897.6666666666666</ele><time>2026-04-26T11:00:28Z</time></trkpt><trkpt lat="45.86836119980763" lon="9.944970831987952"><ele>897.0</ele><time>2026-04-26T11:00:29Z</time></trkpt><trkpt lat="45.868253319594956" lon="9.944885147855135"><ele>897.0</ele><time>2026-04-26T11:00:30Z</time></trkpt><trkpt lat="45.86815818409954" lon="9.944748622646879"><ele>897.0</ele><time>2026-04-26T11:00:31Z</time></trkpt><trkpt lat="45.86806168893778" lon="9.944639654012382"><ele>897.0</ele><time>2026-04-26T11:00:32Z</time></trkpt><trkpt lat="45.86797458487274" lon="9.944542760578187"><ele>897.0</ele><time>2026-04-26T11:00:33Z</time></trkpt><trkpt lat="45.8678790512793" lon="9.94446060448559"><ele>897.0</ele><time>2026-04-26T11:00:34Z</time></trkpt><trkpt lat="45.86779773099372" lon="9.944357950542747"><ele>897.0</ele><time>2026-04-26T11:00:35Z</time></trkpt><trkpt lat="45.86773437843074" lon="9.94430910472705"><ele>897.0</ele><time>2026-04-26T11:00:36Z</time></trkpt><trkpt lat="45.86762700003703" lon="9.944266149422086"><ele>897.0</ele><time>2026-04-26T11:00:37Z</time></trkpt><trkpt lat="45.867511639635225" lon="9.944234179762999"><ele>897.0</ele><time>2026-04-26T11:00:38Z</time></trkpt><trkpt lat="45.8674159644647" lon="9.944223564437909"><ele>894.4000000000001</ele><time>2026-04-26T11:00:39Z</time></trkpt><trkpt lat="45.86731728229537" lon="9.944210616127062"><ele>891.8000000000001</ele><time>2026-04-26T11:00:40Z</time></trkpt><trkpt lat="45.86723466070137" lon="9.944224724776008"><ele>889.2</ele><time>2026-04-26T11:00:41Z</time></trkpt><trkpt lat="45.86716705729818" lon="9.94419246539763"><ele>886.6</ele><time>2026-04-26T11:00:43Z</time></trkpt><trkpt lat="45.8671426841343" lon="9.944104663408657"><ele>884.0</ele><time>2026-04-26T11:00:45Z</time></trkpt><trkpt lat="45.86727724464675" lon="9.944159055644691"><ele>884.0</ele><time>2026-04-26T11:00:46Z</time></trkpt><trkpt lat="45.86738678451692" lon="9.944149133377127"><ele>884.0000000000001</ele><time>2026-04-26T11:00:47Z</time></trkpt><trkpt lat="45.86749946191203" lon="9.944096034099221"><ele>884.0000000000001</ele><time>2026-04-26T11:00:48Z</time></trkpt><trkpt lat="45.86761112848111" lon="9.94409732447261"><ele>884.0</ele><time>2026-04-26T11:00:49Z</time></trkpt><trkpt lat="45.8677172639793" lon="9.944063806459546"><ele>884.0</ele><time>2026-04-26T11:00:50Z</time></trkpt><trkpt lat="45.86780337622804" lon="9.944048563481758"><ele>886.6</ele><time>2026-04-26T11:00:51Z</time></trkpt><trkpt lat="45.86787298764767" lon="9.94406865607799"><ele>889.2</ele><time>2026-04-26T11:00:52Z</time></trkpt><trkpt lat="45.867959559520976" lon="9.94411291512302"><ele>891.8000000000001</ele><time>2026-04-26T11:00:53Z</time></trkpt><trkpt lat="45.868065339556814" lon="9.944201994335764"><ele>894.4000000000001</ele><time>2026-04-26T11:00:54Z</time></trkpt><trkpt lat="45.86816134668505" lon="9.9442860199137"><ele>897.0</ele><time>2026-04-26T11:00:55Z</time></trkpt><trkpt lat="45.86830494066857" lon="9.944337674566945"><ele>897.0</ele><time>2026-04-26T11:00:56Z</time></trkpt><trkpt lat="45.86842792155572" lon="9.944351719647578"><ele>897.0</ele><time>2026-04-26T11:00:57Z</time></trkpt><trkpt lat="45.86854661410825" lon="9.944348830905394"><ele>897.0</ele><time>2026-04-26T11:00:58Z</time></trkpt><trkpt lat="45.86867727551001" lon="9.944338637259051"><ele>897.0</ele><time>2026-04-26T11:00:59Z</time></trkpt><trkpt lat="45.86879908096646" lon="9.944293716326417"><ele>890.75</ele><time>2026-04-26T11:01:00Z</time></trkpt><trkpt lat="45.86892906306078" lon="9.944285629931354"><ele>884.5</ele><time>2026-04-26T11:01:01Z</time></trkpt><trkpt lat="45.86905892675149" lon="9.94430492145137"><ele>878.25</ele><time>2026-04-26T11:01:02Z</time></trkpt><trkpt lat="45.869177087558256" lon="9.944400124652509"><ele>872.0</ele><time>2026-04-26T11:01:03Z</time></trkpt><trkpt lat="45.86929681013799" lon="9.94440931792681"><ele>866.25</ele><time>2026-04-26T11:01:04Z</time></trkpt><trkpt lat="45.86943014219338" lon="9.944410648745945"><ele>860.5</ele><time>2026-04-26T11:01:05Z</time></trkpt><trkpt lat="45.86954451500593" lon="9.944413256913823"><ele>854.75</ele><time>2026-04-26T11:01:06Z</time></trkpt><trkpt lat="45.86965405412998" lon="9.944415925769723"><ele>849.0</ele><time>2026-04-26T11:01:07Z</time></trkpt><trkpt lat="45.8697856626525" lon="9.944376266983742"><ele>849.0</ele><time>2026-04-26T11:01:08Z</time></trkpt><trkpt lat="45.869919115968415" lon="9.94430537329004"><ele>849.0</ele><time>2026-04-26T11:01:09Z</time></trkpt><trkpt lat="45.870038355293026" lon="9.944228904252792"><ele>849.0</ele><time>2026-04-26T11:01:10Z</time></trkpt><trkpt lat="45.8701492940244" lon="9.944138261223264"><ele>849.0</ele><time>2026-04-26T11:01:11Z</time></trkpt><trkpt lat="45.87025219485143" lon="9.94404109468244"><ele>844.25</ele><time>2026-04-26T11:01:12Z</time></trkpt><trkpt lat="45.870349550361155" lon="9.94393717006766"><ele>839.5</ele><time>2026-04-26T11:01:13Z</time></trkpt><trkpt lat="45.87044759375162" lon="9.943817295335462"><ele>834.75</ele><time>2026-04-26T11:01:14Z</time></trkpt><trkpt lat="45.870550155158426" lon="9.943727700143102"><ele>830.0</ele><time>2026-04-26T11:01:15Z</time></trkpt><trkpt lat="45.87065254525195" lon="9.943648138958496"><ele>830.0</ele><time>2026-04-26T11:01:16Z</time></trkpt><trkpt lat="45.8707472590342" lon="9.943600064151427"><ele>830.0</ele><time>2026-04-26T11:01:17Z</time></trkpt><trkpt lat="45.870848087036684" lon="9.943572179136087"><ele>830.0</ele><time>2026-04-26T11:01:18Z</time></trkpt><trkpt lat="45.870950646451355" lon="9.943596429372779"><ele>830.0</ele><time>2026-04-26T11:01:19Z</time></trkpt><trkpt lat="45.87106133263033" lon="9.94363688783847"><ele>830.0</ele><time>2026-04-26T11:01:20Z</time></trkpt><trkpt lat="45.8711900432156" lon="9.943677059860224"><ele>828.0</ele><time>2026-04-26T11:01:21Z</time></trkpt><trkpt lat="45.871305113652035" lon="9.943761464653672"><ele>826.0</ele><time>2026-04-26T11:01:22Z</time></trkpt><trkpt lat="45.87141006622648" lon="9.943811430193188"><ele>824.0</ele><time>2026-04-26T11:01:23Z</time></trkpt><trkpt lat="45.87153095186384" lon="9.943900557485716"><ele>822.0</ele><time>2026-04-26T11:01:24Z</time></trkpt><trkpt lat="45.8716418260646" lon="9.943974533497377"><ele>822.0</ele><time>2026-04-26T11:01:25Z</time></trkpt><trkpt lat="45.871731953318815" lon="9.944035395559446"><ele>822.0</ele><time>2026-04-26T11:01:26Z</time></trkpt><trkpt lat="45.87183500197219" lon="9.944100121532976"><ele>822.0</ele><time>2026-04-26T11:01:27Z</time></trkpt><trkpt lat="45.87192983871387" lon="9.944176105177432"><ele>822.0</ele><time>2026-04-26T11:01:28Z</time></trkpt><trkpt lat="45.87201396591687" lon="9.944256949707883"><ele>822.0</ele><time>2026-04-26T11:01:29Z</time></trkpt><trkpt lat="45.872099839761695" lon="9.944327732910072"><ele>818.5</ele><time>2026-04-26T11:01:30Z</time></trkpt><trkpt lat="45.87218468253387" lon="9.944387577583562"><ele>815.0</ele><time>2026-04-26T11:01:31Z</time></trkpt><trkpt lat="45.8722615610649" lon="9.944448686925467"><ele>811.5</ele><time>2026-04-26T11:01:32Z</time></trkpt><trkpt lat="45.872333610675454" lon="9.944492731609573"><ele>808.0</ele><time>2026-04-26T11:01:33Z</time></trkpt><trkpt lat="45.872397216346464" lon="9.9445407582315"><ele>804.5</ele><time>2026-04-26T11:01:34Z</time></trkpt><trkpt lat="45.87247142804701" lon="9.944638746838148"><ele>801.0</ele><time>2026-04-26T11:01:35.999Z</time></trkpt><trkpt lat="45.87235839346816" lon="9.944708921821382"><ele>801.0</ele><time>2026-04-26T11:01:37.999Z</time></trkpt><trkpt lat="45.87226364284507" lon="9.944694615830846"><ele>801.0</ele><time>2026-04-26T11:01:38.999Z</time></trkpt><trkpt lat="45.87216474977677" lon="9.944676321380078"><ele>801.0</ele><time>2026-04-26T11:01:39.999Z</time></trkpt><trkpt lat="45.87207155386057" lon="9.9446648165994"><ele>801.0</ele><time>2026-04-26T11:01:40.999Z</time></trkpt><trkpt lat="45.87197194549266" lon="9.944656089945358"><ele>801.0</ele><time>2026-04-26T11:01:41.999Z</time></trkpt><trkpt lat="45.87187641929418" lon="9.944659667750962"><ele>801.0</ele><time>2026-04-26T11:01:42.999Z</time></trkpt><trkpt lat="45.87180016524078" lon="9.944671606400803"><ele>801.0</ele><time>2026-04-26T11:01:43.999Z</time></trkpt><trkpt lat="45.87173078628151" lon="9.944660725287582"><ele>801.0</ele><time>2026-04-26T11:01:44.999Z</time></trkpt><trkpt lat="45.871657825831434" lon="9.944728087547263"><ele>801.0</ele><time>2026-04-26T11:01:46.999Z</time></trkpt><trkpt lat="45.87159985773092" lon="9.944809721913908"><ele>801.0</ele><time>2026-04-26T11:01:47.999Z</time></trkpt><trkpt lat="45.871637383366476" lon="9.944907200640772"><ele>801.0</ele><time>2026-04-26T11:01:48.999Z</time></trkpt><trkpt lat="45.87174360781837" lon="9.944895434617628"><ele>801.0</ele><time>2026-04-26T11:01:49.999Z</time></trkpt><trkpt lat="45.871820252047755" lon="9.94495637794143"><ele>801.0</ele><time>2026-04-26T11:01:50.999Z</time></trkpt><trkpt lat="45.87191718173465" lon="9.94501465943245"><ele>801.0</ele><time>2026-04-26T11:01:51.999Z</time></trkpt><trkpt lat="45.87200891477691" lon="9.945082814662497"><ele>801.0</ele><time>2026-04-26T11:01:52.999Z</time></trkpt><trkpt lat="45.87208161413113" lon="9.94519931551135"><ele>801.0</ele><time>2026-04-26T11:01:53.999Z</time></trkpt><trkpt lat="45.872154744553754" lon="9.945306909753937"><ele>796.4</ele><time>2026-04-26T11:01:54.999Z</time></trkpt><trkpt lat="45.872234123294874" lon="9.945413812750434"><ele>791.8</ele><time>2026-04-26T11:01:55.999Z</time></trkpt><trkpt lat="45.87231475966541" lon="9.945511994869772"><ele>787.1999999999999</ele><time>2026-04-26T11:01:56.999Z</time></trkpt><trkpt lat="45.872388556616" lon="9.945623554258528"><ele>782.5999999999999</ele><time>2026-04-26T11:01:57.999Z</time></trkpt><trkpt lat="45.872453473223985" lon="9.945742713393622"><ele>778.0</ele><time>2026-04-26T11:01:58.999Z</time></trkpt><trkpt lat="45.87249654767398" lon="9.9458630844654"><ele>772.4</ele><time>2026-04-26T11:01:59.999Z</time></trkpt><trkpt lat="45.8725396860877" lon="9.945945276746125"><ele>766.8</ele><time>2026-04-26T11:02:00.999Z</time></trkpt><trkpt lat="45.872651684515695" lon="9.945991323980573"><ele>761.2</ele><time>2026-04-26T11:02:02.999Z</time></trkpt><trkpt lat="45.87271644536399" lon="9.945909468174117"><ele>755.6</ele><time>2026-04-26T11:02:03.999Z</time></trkpt><trkpt lat="45.87281471233166" lon="9.945817111461233"><ele>750.0</ele><time>2026-04-26T11:02:04.999Z</time></trkpt><trkpt lat="45.872851264592114" lon="9.945663374670687"><ele>748.75</ele><time>2026-04-26T11:02:05.999Z</time></trkpt><trkpt lat="45.87289256366889" lon="9.945460715170762"><ele>747.5</ele><time>2026-04-26T11:02:06.999Z</time></trkpt><trkpt lat="45.87291754907706" lon="9.945254667287582"><ele>746.25</ele><time>2026-04-26T11:02:07.999Z</time></trkpt><trkpt lat="45.87295935753535" lon="9.945071481466888"><ele>745.0</ele><time>2026-04-26T11:02:08.999Z</time></trkpt><trkpt lat="45.87298186422124" lon="9.944906268690765"><ele>745.0</ele><time>2026-04-26T11:02:09.999Z</time></trkpt><trkpt lat="45.87302625337313" lon="9.944696954296019"><ele>745.0</ele><time>2026-04-26T11:02:10.999Z</time></trkpt><trkpt lat="45.873056793127496" lon="9.944503012044832"><ele>745.0</ele><time>2026-04-26T11:02:11.999Z</time></trkpt><trkpt lat="45.87308266952538" lon="9.944302995780467"><ele>745.0</ele><time>2026-04-26T11:02:12.999Z</time></trkpt><trkpt lat="45.87309657055409" lon="9.944097194077097"><ele>745.5</ele><time>2026-04-26T11:02:13.999Z</time></trkpt><trkpt lat="45.87309493968484" lon="9.94389802881413"><ele>746.0</ele><time>2026-04-26T11:02:14.999Z</time></trkpt><trkpt lat="45.87309292822646" lon="9.9436933923103"><ele>746.5</ele><time>2026-04-26T11:02:15.999Z</time></trkpt><trkpt lat="45.8730897625216" lon="9.943497949736766"><ele>747.0</ele><time>2026-04-26T11:02:16.999Z</time></trkpt><trkpt lat="45.87310990311876" lon="9.94331648190145"><ele>745.25</ele><time>2026-04-26T11:02:17.999Z</time></trkpt><trkpt lat="45.87311824128334" lon="9.94313896782133"><ele>743.5</ele><time>2026-04-26T11:02:18.999Z</time></trkpt><trkpt lat="45.87312535071207" lon="9.942959913415368"><ele>741.75</ele><time>2026-04-26T11:02:19.999Z</time></trkpt><trkpt lat="45.87312618557709" lon="9.942797490671671"><ele>740.0</ele><time>2026-04-26T11:02:20.999Z</time></trkpt><trkpt lat="45.87317264482682" lon="9.94261343879802"><ele>737.5</ele><time>2026-04-26T11:02:21.999Z</time></trkpt><trkpt lat="45.873170687623364" lon="9.94243452348359"><ele>735.0</ele><time>2026-04-26T11:02:22.999Z</time></trkpt><trkpt lat="45.87318525770258" lon="9.942228168976806"><ele>732.5</ele><time>2026-04-26T11:02:24.999Z</time></trkpt><trkpt lat="45.87319323395831" lon="9.942080983324997"><ele>730.0</ele><time>2026-04-26T11:02:25.999Z</time></trkpt><trkpt lat="45.873207816863484" lon="9.941943006001042"><ele>730.0</ele><time>2026-04-26T11:02:26.999Z</time></trkpt><trkpt lat="45.873178829966506" lon="9.941780639791883"><ele>730.0</ele><time>2026-04-26T11:02:27.999Z</time></trkpt><trkpt lat="45.87318693158221" lon="9.941631734475097"><ele>730.0</ele><time>2026-04-26T11:02:28.999Z</time></trkpt><trkpt lat="45.87318948698561" lon="9.941472630549844"><ele>730.0</ele><time>2026-04-26T11:02:30Z</time></trkpt><trkpt lat="45.873186500895606" lon="9.941311166525605"><ele>730.0</ele><time>2026-04-26T11:02:31Z</time></trkpt><trkpt lat="45.87322285340009" lon="9.941130015120688"><ele>728.75</ele><time>2026-04-26T11:02:32Z</time></trkpt><trkpt lat="45.87324215876593" lon="9.940921419398231"><ele>727.5</ele><time>2026-04-26T11:02:33Z</time></trkpt><trkpt lat="45.873255349210325" lon="9.940735762943328"><ele>726.25</ele><time>2026-04-26T11:02:34Z</time></trkpt><trkpt lat="45.8732829347847" lon="9.94055012462595"><ele>725.0</ele><time>2026-04-26T11:02:35Z</time></trkpt><trkpt lat="45.873282016385154" lon="9.940353236907846"><ele>725.0</ele><time>2026-04-26T11:02:36Z</time></trkpt><trkpt lat="45.873303343178854" lon="9.940170266620814"><ele>725.0</ele><time>2026-04-26T11:02:37Z</time></trkpt><trkpt lat="45.873293270717376" lon="9.939977562970148"><ele>725.0</ele><time>2026-04-26T11:02:38Z</time></trkpt><trkpt lat="45.873280573787504" lon="9.939782059485278"><ele>725.0</ele><time>2026-04-26T11:02:39Z</time></trkpt><trkpt lat="45.873265883062686" lon="9.93959745661321"><ele>723.4</ele><time>2026-04-26T11:02:40Z</time></trkpt><trkpt lat="45.8732421481828" lon="9.93942510720811"><ele>721.8</ele><time>2026-04-26T11:02:41Z</time></trkpt><trkpt lat="45.873223537732216" lon="9.93928103135833"><ele>720.2</ele><time>2026-04-26T11:02:42Z</time></trkpt><trkpt lat="45.873198031307595" lon="9.93917551874103"><ele>718.6</ele><time>2026-04-26T11:02:43Z</time></trkpt><trkpt lat="45.87314488498429" lon="9.939029527158262"><ele>717.0</ele><time>2026-04-26T11:02:45Z</time></trkpt><trkpt lat="45.87317761694182" lon="9.938935121058606"><ele>717.0</ele><time>2026-04-26T11:02:46Z</time></trkpt><trkpt lat="45.87325348360415" lon="9.939115037838784"><ele>717.0</ele><time>2026-04-26T11:02:48Z</time></trkpt><trkpt lat="45.87330702210019" lon="9.939235337177884"><ele>717.0</ele><time>2026-04-26T11:02:49Z</time></trkpt><trkpt lat="45.87335300662972" lon="9.93934296831276"><ele>717.0</ele><time>2026-04-26T11:02:50Z</time></trkpt><trkpt lat="45.87342892564707" lon="9.939501812882845"><ele>705.5</ele><time>2026-04-26T11:02:51Z</time></trkpt><trkpt lat="45.8734675635658" lon="9.939657947075995"><ele>694.0</ele><time>2026-04-26T11:02:52Z</time></trkpt><trkpt lat="45.87351785316225" lon="9.939812321050262"><ele>682.5</ele><time>2026-04-26T11:02:53Z</time></trkpt><trkpt lat="45.87357185995637" lon="9.93998603421267"><ele>671.0</ele><time>2026-04-26T11:02:54Z</time></trkpt><trkpt lat="45.8736242990624" lon="9.940142438406623"><ele>671.0</ele><time>2026-04-26T11:02:55Z</time></trkpt><trkpt lat="45.873656039037655" lon="9.940311405140557"><ele>671.0</ele><time>2026-04-26T11:02:56Z</time></trkpt><trkpt lat="45.87367194816643" lon="9.94048665032023"><ele>671.0</ele><time>2026-04-26T11:02:57Z</time></trkpt><trkpt lat="45.873699929555364" lon="9.940675266884131"><ele>671.0</ele><time>2026-04-26T11:02:58Z</time></trkpt><trkpt lat="45.87372124871457" lon="9.940867207186374"><ele>671.5</ele><time>2026-04-26T11:02:59Z</time></trkpt><trkpt lat="45.873748364365284" lon="9.94104766237999"><ele>672.0</ele><time>2026-04-26T11:03:00Z</time></trkpt><trkpt lat="45.87378416799578" lon="9.941245252457058"><ele>672.5</ele><time>2026-04-26T11:03:01Z</time></trkpt><trkpt lat="45.873814058530996" lon="9.941433286467142"><ele>673.0</ele><time>2026-04-26T11:03:02Z</time></trkpt><trkpt lat="45.87384664357427" lon="9.941629298569213"><ele>673.0</ele><time>2026-04-26T11:03:03Z</time></trkpt><trkpt lat="45.87389418026194" lon="9.941838222435859"><ele>673.0</ele><time>2026-04-26T11:03:04Z</time></trkpt><trkpt lat="45.873937704408704" lon="9.94202163042126"><ele>673.0</ele><time>2026-04-26T11:03:05Z</time></trkpt><trkpt lat="45.87397658484329" lon="9.942225668628085"><ele>673.0</ele><time>2026-04-26T11:03:06Z</time></trkpt><trkpt lat="45.874036987657334" lon="9.942437783914592"><ele>675.0</ele><time>2026-04-26T11:03:07Z</time></trkpt><trkpt lat="45.87409600736592" lon="9.942637902557195"><ele>677.0</ele><time>2026-04-26T11:03:08Z</time></trkpt><trkpt lat="45.874147527611946" lon="9.94284301697429"><ele>679.0</ele><time>2026-04-26T11:03:09Z</time></trkpt><trkpt lat="45.874189728103" lon="9.943055141793808"><ele>679.0</ele><time>2026-04-26T11:03:10Z</time></trkpt><trkpt lat="45.874239382063585" lon="9.943252519405972"><ele>679.0</ele><time>2026-04-26T11:03:11Z</time></trkpt><trkpt lat="45.87425593448593" lon="9.943472604283814"><ele>679.0</ele><time>2026-04-26T11:03:12Z</time></trkpt><trkpt lat="45.874290947510545" lon="9.943680037945992"><ele>679.0</ele><time>2026-04-26T11:03:13Z</time></trkpt><trkpt lat="45.874344392275916" lon="9.943898379543711"><ele>665.25</ele><time>2026-04-26T11:03:14Z</time></trkpt><trkpt lat="45.87436070734117" lon="9.944097118029552"><ele>651.5</ele><time>2026-04-26T11:03:15Z</time></trkpt><trkpt lat="45.874393305654756" lon="9.944305474654238"><ele>637.75</ele><time>2026-04-26T11:03:16Z</time></trkpt><trkpt lat="45.87442238005373" lon="9.944497409153398"><ele>624.0</ele><time>2026-04-26T11:03:17Z</time></trkpt><trkpt lat="45.87446644932863" lon="9.94471090639164"><ele>623.6666666666666</ele><time>2026-04-26T11:03:18Z</time></trkpt><trkpt lat="45.87446737331355" lon="9.944936709949463"><ele>623.3333333333333</ele><time>2026-04-26T11:03:19Z</time></trkpt><trkpt lat="45.874456219578214" lon="9.94515791235498"><ele>623.0</ele><time>2026-04-26T11:03:20Z</time></trkpt><trkpt lat="45.87445137229426" lon="9.945370179774253"><ele>620.6666666666666</ele><time>2026-04-26T11:03:21Z</time></trkpt><trkpt lat="45.87444358089396" lon="9.945600895747225"><ele>618.3333333333334</ele><time>2026-04-26T11:03:22Z</time></trkpt><trkpt lat="45.87443940977729" lon="9.945808040163838"><ele>616.0</ele><time>2026-04-26T11:03:23Z</time></trkpt><trkpt lat="45.87441979560407" lon="9.946021684686308"><ele>611.3333333333334</ele><time>2026-04-26T11:03:24Z</time></trkpt><trkpt lat="45.8743992733128" lon="9.946240906628846"><ele>606.6666666666666</ele><time>2026-04-26T11:03:25Z</time></trkpt><trkpt lat="45.874377293861286" lon="9.946459646495352"><ele>602.0</ele><time>2026-04-26T11:03:26Z</time></trkpt><trkpt lat="45.87435368193719" lon="9.946690614044261"><ele>597.6666666666666</ele><time>2026-04-26T11:03:27Z</time></trkpt><trkpt lat="45.874330504022375" lon="9.946919728491167"><ele>593.3333333333334</ele><time>2026-04-26T11:03:28Z</time></trkpt><trkpt lat="45.874301842704256" lon="9.94714175106786"><ele>589.0</ele><time>2026-04-26T11:03:29Z</time></trkpt><trkpt lat="45.87426516953359" lon="9.947356638076336"><ele>598.0</ele><time>2026-04-26T11:03:30Z</time></trkpt><trkpt lat="45.87421914045984" lon="9.947574263093347"><ele>607.0</ele><time>2026-04-26T11:03:31Z</time></trkpt><trkpt lat="45.874172245220365" lon="9.947787644717621"><ele>616.0</ele><time>2026-04-26T11:03:32Z</time></trkpt><trkpt lat="45.87412444433861" lon="9.947998745894212"><ele>616.0</ele><time>2026-04-26T11:03:33Z</time></trkpt><trkpt lat="45.87406959542643" lon="9.948204568036981"><ele>616.0</ele><time>2026-04-26T11:03:34Z</time></trkpt><trkpt lat="45.87401559539485" lon="9.94841274748004"><ele>616.0</ele><time>2026-04-26T11:03:35Z</time></trkpt><trkpt lat="45.87398318997143" lon="9.948630069397128"><ele>613.5</ele><time>2026-04-26T11:03:36Z</time></trkpt><trkpt lat="45.87393759543967" lon="9.948845875011417"><ele>611.0</ele><time>2026-04-26T11:03:37Z</time></trkpt><trkpt lat="45.8739153998927" lon="9.949055994161952"><ele>608.5</ele><time>2026-04-26T11:03:38Z</time></trkpt><trkpt lat="45.87391921963204" lon="9.949251525184872"><ele>606.0</ele><time>2026-04-26T11:03:39Z</time></trkpt><trkpt lat="45.873925750262195" lon="9.949421264776614"><ele>605.1666666666666</ele><time>2026-04-26T11:03:40Z</time></trkpt><trkpt lat="45.87393093049528" lon="9.949566263643725"><ele>604.3333333333334</ele><time>2026-04-26T11:03:41Z</time></trkpt><trkpt lat="45.87393169277171" lon="9.94970272462592"><ele>603.5</ele><time>2026-04-26T11:03:42Z</time></trkpt><trkpt lat="45.87393578219228" lon="9.949814313362124"><ele>602.6666666666667</ele><time>2026-04-26T11:03:42.999Z</time></trkpt><trkpt lat="45.873942471866236" lon="9.949931122769986"><ele>601.8333333333334</ele><time>2026-04-26T11:03:43.999Z</time></trkpt><trkpt lat="45.87395869835761" lon="9.950041058959172"><ele>601.0</ele><time>2026-04-26T11:03:44.999Z</time></trkpt><trkpt lat="45.87399370358483" lon="9.950131421238062"><ele>600.2857142857142</ele><time>2026-04-26T11:03:45.999Z</time></trkpt><trkpt lat="45.874051177116925" lon="9.950183620845896"><ele>599.5714285714287</ele><time>2026-04-26T11:03:46.999Z</time></trkpt><trkpt lat="45.87411447445514" lon="9.950197853219684"><ele>598.8571428571429</ele><time>2026-04-26T11:03:47.999Z</time></trkpt><trkpt lat="45.874183824316574" lon="9.950182295704037"><ele>598.1428571428571</ele><time>2026-04-26T11:03:48.999Z</time></trkpt><trkpt lat="45.87424119384735" lon="9.950123126734985"><ele>597.4285714285713</ele><time>2026-04-26T11:03:49.999Z</time></trkpt><trkpt lat="45.87427791391254" lon="9.950027992509666"><ele>596.7142857142857</ele><time>2026-04-26T11:03:50.999Z</time></trkpt><trkpt lat="45.87430812029891" lon="9.949930745043991"><ele>596.0</ele><time>2026-04-26T11:03:51.999Z</time></trkpt><trkpt lat="45.87435751113218" lon="9.949853762525393"><ele>593.6666666666666</ele><time>2026-04-26T11:03:52.999Z</time></trkpt><trkpt lat="45.8743932603741" lon="9.94977246932347"><ele>591.3333333333333</ele><time>2026-04-26T11:03:53.999Z</time></trkpt><trkpt lat="45.874430784495175" lon="9.94969128904821"><ele>589.0</ele><time>2026-04-26T11:03:54.999Z</time></trkpt><trkpt lat="45.87450716405905" lon="9.94961806444861"><ele>586.6666666666666</ele><time>2026-04-26T11:03:56.999Z</time></trkpt><trkpt lat="45.87458581226378" lon="9.949723238290412"><ele>584.3333333333334</ele><time>2026-04-26T11:03:58.999Z</time></trkpt><trkpt lat="45.874608606058885" lon="9.949809354587565"><ele>582.0</ele><time>2026-04-26T11:03:59.999Z</time></trkpt><trkpt lat="45.87468945781647" lon="9.949939652106814"><ele>582.0</ele><time>2026-04-26T11:04:01.999Z</time></trkpt><trkpt lat="45.8747509951914" lon="9.949980369444651"><ele>582.0</ele><time>2026-04-26T11:04:02.999Z</time></trkpt><trkpt lat="45.87482072160588" lon="9.950010224668743"><ele>582.0</ele><time>2026-04-26T11:04:03.999Z</time></trkpt><trkpt lat="45.87489649714928" lon="9.950032342474042"><ele>582.0</ele><time>2026-04-26T11:04:04.999Z</time></trkpt><trkpt lat="45.874983697844314" lon="9.950064247353245"><ele>582.0</ele><time>2026-04-26T11:04:05.999Z</time></trkpt><trkpt lat="45.87506564535989" lon="9.950099330705902"><ele>582.0</ele><time>2026-04-26T11:04:06.999Z</time></trkpt><trkpt lat="45.87514963469488" lon="9.950136097202627"><ele>581.0</ele><time>2026-04-26T11:04:07.999Z</time></trkpt><trkpt lat="45.87523242868177" lon="9.950171085626208"><ele>580.0</ele><time>2026-04-26T11:04:08.999Z</time></trkpt><trkpt lat="45.87530845848914" lon="9.950202995950743"><ele>579.0</ele><time>2026-04-26T11:04:09.999Z</time></trkpt><trkpt lat="45.87538143721229" lon="9.950236937086892"><ele>578.0</ele><time>2026-04-26T11:04:10.999Z</time></trkpt><trkpt lat="45.87545423366018" lon="9.950265670416353"><ele>577.0</ele><time>2026-04-26T11:04:11.999Z</time></trkpt><trkpt lat="45.87552594302687" lon="9.950291799858766"><ele>576.0</ele><time>2026-04-26T11:04:12.999Z</time></trkpt><trkpt lat="45.87559880703694" lon="9.950320162632977"><ele>576.0</ele><time>2026-04-26T11:04:13.999Z</time></trkpt><trkpt lat="45.8756775940799" lon="9.950355803520111"><ele>576.0</ele><time>2026-04-26T11:04:14.999Z</time></trkpt><trkpt lat="45.875759542494265" lon="9.95039077538186"><ele>576.0</ele><time>2026-04-26T11:04:15.999Z</time></trkpt><trkpt lat="45.87584228226745" lon="9.950429942078808"><ele>576.0</ele><time>2026-04-26T11:04:16.999Z</time></trkpt><trkpt lat="45.875923419164074" lon="9.95047666699774"><ele>576.0</ele><time>2026-04-26T11:04:17.999Z</time></trkpt><trkpt lat="45.876003019682486" lon="9.95052519316489"><ele>576.0</ele><time>2026-04-26T11:04:18.999Z</time></trkpt><trkpt lat="45.87608048124143" lon="9.950584927440929"><ele>576.0</ele><time>2026-04-26T11:04:19.999Z</time></trkpt><trkpt lat="45.87615261906576" lon="9.950650802074376"><ele>576.0</ele><time>2026-04-26T11:04:20.999Z</time></trkpt><trkpt lat="45.87622668743765" lon="9.950717975320552"><ele>576.0</ele><time>2026-04-26T11:04:21.999Z</time></trkpt><trkpt lat="45.87630167197459" lon="9.950786781746187"><ele>576.0</ele><time>2026-04-26T11:04:22.999Z</time></trkpt><trkpt lat="45.87637799484178" lon="9.95085659045487"><ele>576.0</ele><time>2026-04-26T11:04:23.999Z</time></trkpt><trkpt lat="45.876459376311445" lon="9.95093174604724"><ele>576.0</ele><time>2026-04-26T11:04:24.999Z</time></trkpt><trkpt lat="45.87654048893468" lon="9.950995885855104"><ele>576.0</ele><time>2026-04-26T11:04:25.999Z</time></trkpt><trkpt lat="45.876622550302486" lon="9.951052509794966"><ele>576.0</ele><time>2026-04-26T11:04:26.999Z</time></trkpt><trkpt lat="45.87669863453776" lon="9.951106897679976"><ele>576.0</ele><time>2026-04-26T11:04:27.999Z</time></trkpt><trkpt lat="45.87678100832951" lon="9.951145458024353"><ele>576.0</ele><time>2026-04-26T11:04:28.999Z</time></trkpt><trkpt lat="45.8768656762724" lon="9.951174833446736"><ele>576.0</ele><time>2026-04-26T11:04:29.999Z</time></trkpt><trkpt lat="45.87695473202499" lon="9.951192138565633"><ele>576.0</ele><time>2026-04-26T11:04:30.999Z</time></trkpt><trkpt lat="45.877043194793984" lon="9.951209992824063"><ele>576.0</ele><time>2026-04-26T11:04:31.999Z</time></trkpt><trkpt lat="45.87713132265801" lon="9.951231593320179"><ele>576.0</ele><time>2026-04-26T11:04:32.999Z</time></trkpt><trkpt lat="45.87722592848706" lon="9.951253216387713"><ele>576.0</ele><time>2026-04-26T11:04:33.999Z</time></trkpt><trkpt lat="45.877328083642325" lon="9.951264648320029"><ele>576.0</ele><time>2026-04-26T11:04:34.999Z</time></trkpt><trkpt lat="45.87742476595778" lon="9.951280033535228"><ele>576.0</ele><time>2026-04-26T11:04:36Z</time></trkpt><trkpt lat="45.877513483134855" lon="9.951278479941015"><ele>576.0</ele><time>2026-04-26T11:04:37Z</time></trkpt><trkpt lat="45.877601003673526" lon="9.951295051349105"><ele>576.0</ele><time>2026-04-26T11:04:38Z</time></trkpt><trkpt lat="45.877686844076706" lon="9.951304965525582"><ele>576.0</ele><time>2026-04-26T11:04:39Z</time></trkpt><trkpt lat="45.877776082982145" lon="9.951318027590352"><ele>576.0</ele><time>2026-04-26T11:04:40Z</time></trkpt><trkpt lat="45.87787327345485" lon="9.951337236708394"><ele>576.0</ele><time>2026-04-26T11:04:41Z</time></trkpt><trkpt lat="45.87796690919161" lon="9.951352573054102"><ele>576.0</ele><time>2026-04-26T11:04:42Z</time></trkpt><trkpt lat="45.87806227307544" lon="9.95136282096981"><ele>576.0</ele><time>2026-04-26T11:04:43Z</time></trkpt><trkpt lat="45.87815293416521" lon="9.951374923738664"><ele>576.0</ele><time>2026-04-26T11:04:44Z</time></trkpt><trkpt lat="45.87825263907072" lon="9.951384570435861"><ele>576.0</ele><time>2026-04-26T11:04:45Z</time></trkpt><trkpt lat="45.878357164569444" lon="9.951397986419094"><ele>576.0</ele><time>2026-04-26T11:04:46Z</time></trkpt><trkpt lat="45.87845918682669" lon="9.951410058766973"><ele>575.8</ele><time>2026-04-26T11:04:47Z</time></trkpt><trkpt lat="45.87856117065522" lon="9.95141326436181"><ele>575.6</ele><time>2026-04-26T11:04:48Z</time></trkpt><trkpt lat="45.878669356983934" lon="9.951415798512915"><ele>575.4</ele><time>2026-04-26T11:04:49Z</time></trkpt><trkpt lat="45.87876477312557" lon="9.951404691299997"><ele>575.2</ele><time>2026-04-26T11:04:50Z</time></trkpt><trkpt lat="45.8788542678372" lon="9.951379609649507"><ele>575.0</ele><time>2026-04-26T11:04:51Z</time></trkpt><trkpt lat="45.878937883408355" lon="9.951353625387057"><ele>575.0</ele><time>2026-04-26T11:04:52Z</time></trkpt><trkpt lat="45.87901962755005" lon="9.951329553707444"><ele>575.0</ele><time>2026-04-26T11:04:53Z</time></trkpt><trkpt lat="45.8791014384726" lon="9.951315890667424"><ele>575.0</ele><time>2026-04-26T11:04:54Z</time></trkpt><trkpt lat="45.87917650217657" lon="9.951329722989216"><ele>575.0</ele><time>2026-04-26T11:04:55Z</time></trkpt><trkpt lat="45.87927124542329" lon="9.95127814449706"><ele>575.0</ele><time>2026-04-26T11:04:57Z</time></trkpt><trkpt lat="45.87936096191033" lon="9.951269880550194"><ele>575.0</ele><time>2026-04-26T11:06:19.999Z</time></trkpt><trkpt lat="45.87942543598146" lon="9.95123246672524"><ele>575.75</ele><time>2026-04-26T11:06:20.999Z</time></trkpt><trkpt lat="45.87951439651912" lon="9.95120040388301"><ele>576.5</ele><time>2026-04-26T11:06:21.999Z</time></trkpt><trkpt lat="45.87962500191435" lon="9.951170107285952"><ele>577.25</ele><time>2026-04-26T11:06:22.999Z</time></trkpt><trkpt lat="45.879746279069096" lon="9.951136620175102"><ele>578.0</ele><time>2026-04-26T11:06:23.999Z</time></trkpt><trkpt lat="45.87987638368909" lon="9.951098552307736"><ele>578.0</ele><time>2026-04-26T11:06:24.999Z</time></trkpt><trkpt lat="45.880006317663465" lon="9.95106253283107"><ele>578.0</ele><time>2026-04-26T11:06:25.999Z</time></trkpt><trkpt lat="45.88013293339192" lon="9.951027629584141"><ele>578.0</ele><time>2026-04-26T11:06:26.999Z</time></trkpt><trkpt lat="45.88025939476978" lon="9.950996019089416"><ele>578.0</ele><time>2026-04-26T11:06:27.999Z</time></trkpt><trkpt lat="45.88038692288831" lon="9.950960172231323"><ele>578.0</ele><time>2026-04-26T11:06:28.999Z</time></trkpt><trkpt lat="45.88051162032864" lon="9.950928662933762"><ele>578.0</ele><time>2026-04-26T11:06:29.999Z</time></trkpt><trkpt lat="45.880636724901045" lon="9.95090095173306"><ele>578.0</ele><time>2026-04-26T11:06:30.999Z</time></trkpt><trkpt lat="45.88076427136337" lon="9.9508741346797"><ele>578.0</ele><time>2026-04-26T11:06:31.999Z</time></trkpt><trkpt lat="45.88089089161087" lon="9.950847749709926"><ele>578.25</ele><time>2026-04-26T11:06:32.999Z</time></trkpt><trkpt lat="45.88101888326839" lon="9.95081685196654"><ele>578.5</ele><time>2026-04-26T11:06:33.999Z</time></trkpt><trkpt lat="45.88114440372852" lon="9.950786123769163"><ele>578.75</ele><time>2026-04-26T11:06:34.999Z</time></trkpt><trkpt lat="45.88126882141606" lon="9.950761229034216"><ele>579.0</ele><time>2026-04-26T11:06:35.999Z</time></trkpt><trkpt lat="45.88139013210151" lon="9.950743323547004"><ele>579.0</ele><time>2026-04-26T11:06:36.999Z</time></trkpt><trkpt lat="45.88151324144875" lon="9.950723071900336"><ele>579.0</ele><time>2026-04-26T11:06:37.999Z</time></trkpt><trkpt lat="45.881630649754364" lon="9.950698451933633"><ele>579.0</ele><time>2026-04-26T11:06:38.999Z</time></trkpt><trkpt lat="45.88174841035419" lon="9.950672513823331"><ele>579.0</ele><time>2026-04-26T11:06:39.999Z</time></trkpt><trkpt lat="45.88188091230341" lon="9.9506437159706"><ele>579.25</ele><time>2026-04-26T11:06:40.999Z</time></trkpt><trkpt lat="45.88201854207907" lon="9.95062356494581"><ele>579.5</ele><time>2026-04-26T11:06:42Z</time></trkpt><trkpt lat="45.88215682585943" lon="9.950604116529533"><ele>579.75</ele><time>2026-04-26T11:06:43Z</time></trkpt><trkpt lat="45.88228244166412" lon="9.950576994256467"><ele>580.0</ele><time>2026-04-26T11:06:44Z</time></trkpt><trkpt lat="45.88239736564762" lon="9.950556409205756"><ele>580.0</ele><time>2026-04-26T11:06:45Z</time></trkpt><trkpt lat="45.88251163115954" lon="9.95053934465172"><ele>580.0</ele><time>2026-04-26T11:06:46Z</time></trkpt><trkpt lat="45.88261999156768" lon="9.950515599403335"><ele>580.0</ele><time>2026-04-26T11:06:47Z</time></trkpt><trkpt lat="45.88273353822003" lon="9.950490869014962"><ele>580.0</ele><time>2026-04-26T11:06:48Z</time></trkpt><trkpt lat="45.88284406613416" lon="9.950468990157525"><ele>581.0</ele><time>2026-04-26T11:06:49Z</time></trkpt><trkpt lat="45.88296245001239" lon="9.950445638516912"><ele>582.0</ele><time>2026-04-26T11:06:50Z</time></trkpt><trkpt lat="45.88308408454821" lon="9.950426606547719"><ele>583.0</ele><time>2026-04-26T11:06:51Z</time></trkpt><trkpt lat="45.88320239195468" lon="9.95040376507292"><ele>584.0</ele><time>2026-04-26T11:06:52Z</time></trkpt><trkpt lat="45.88330380685385" lon="9.950380107797178"><ele>584.0</ele><time>2026-04-26T11:06:53Z</time></trkpt><trkpt lat="45.88338693723283" lon="9.950372471196603"><ele>584.0</ele><time>2026-04-26T11:06:55Z</time></trkpt><trkpt lat="45.8834079984449" lon="9.950523814039071"><ele>584.0</ele><time>2026-04-26T11:06:58Z</time></trkpt><trkpt lat="45.883428792003656" lon="9.950621504968257"><ele>584.0</ele><time>2026-04-26T11:06:59Z</time></trkpt><trkpt lat="45.883432449601194" lon="9.950748169900978"><ele>584.0</ele><time>2026-04-26T11:07:00Z</time></trkpt><trkpt lat="45.88343593018639" lon="9.950890826175902"><ele>584.0</ele><time>2026-04-26T11:07:01Z</time></trkpt><trkpt lat="45.883451516914576" lon="9.95104035392247"><ele>585.75</ele><time>2026-04-26T11:07:02Z</time></trkpt><trkpt lat="45.88346949655077" lon="9.95120952427347"><ele>587.5</ele><time>2026-04-26T11:07:03Z</time></trkpt><trkpt lat="45.88348670552549" lon="9.951393441202931"><ele>589.25</ele><time>2026-04-26T11:07:04Z</time></trkpt><trkpt lat="45.88350480355908" lon="9.951582392404095"><ele>591.0</ele><time>2026-04-26T11:07:05Z</time></trkpt><trkpt lat="45.883526529671016" lon="9.951781832331688"><ele>591.0</ele><time>2026-04-26T11:07:06Z</time></trkpt><trkpt lat="45.8835414892381" lon="9.951982873347397"><ele>591.0</ele><time>2026-04-26T11:07:07Z</time></trkpt><trkpt lat="45.88355590197142" lon="9.952189870024032"><ele>591.0</ele><time>2026-04-26T11:07:08Z</time></trkpt><trkpt lat="45.88356833370017" lon="9.952377061423002"><ele>591.0</ele><time>2026-04-26T11:07:09Z</time></trkpt><trkpt lat="45.88358680159811" lon="9.952560182122415"><ele>590.75</ele><time>2026-04-26T11:07:10Z</time></trkpt><trkpt lat="45.88360533428218" lon="9.952741106745176"><ele>590.5</ele><time>2026-04-26T11:07:11Z</time></trkpt><trkpt lat="45.883624753590276" lon="9.952927611959835"><ele>590.25</ele><time>2026-04-26T11:07:12Z</time></trkpt><trkpt lat="45.88364750681325" lon="9.95312005766093"><ele>590.0</ele><time>2026-04-26T11:07:13Z</time></trkpt><trkpt lat="45.883665382045315" lon="9.95331930868321"><ele>590.25</ele><time>2026-04-26T11:07:14Z</time></trkpt><trkpt lat="45.88369055774305" lon="9.95352316198022"><ele>590.5</ele><time>2026-04-26T11:07:15Z</time></trkpt><trkpt lat="45.883712606717765" lon="9.953730628341647"><ele>590.75</ele><time>2026-04-26T11:07:16Z</time></trkpt><trkpt lat="45.883733488481965" lon="9.95393670591074"><ele>591.0</ele><time>2026-04-26T11:07:17Z</time></trkpt><trkpt lat="45.88375722739227" lon="9.954145010202511"><ele>591.25</ele><time>2026-04-26T11:07:18Z</time></trkpt><trkpt lat="45.88378635311172" lon="9.95435681590512"><ele>591.5</ele><time>2026-04-26T11:07:19Z</time></trkpt><trkpt lat="45.88381280208603" lon="9.95456531187735"><ele>591.75</ele><time>2026-04-26T11:07:20Z</time></trkpt><trkpt lat="45.88383853532567" lon="9.95476427157006"><ele>592.0</ele><time>2026-04-26T11:07:21Z</time></trkpt><trkpt lat="45.88386418321904" lon="9.954949482615614"><ele>592.6</ele><time>2026-04-26T11:07:22Z</time></trkpt><trkpt lat="45.88388636644065" lon="9.9551271579419"><ele>593.2</ele><time>2026-04-26T11:07:23Z</time></trkpt><trkpt lat="45.88390444376085" lon="9.955289789489635"><ele>593.8</ele><time>2026-04-26T11:07:24Z</time></trkpt><trkpt lat="45.883928658775176" lon="9.955432643106372"><ele>594.4</ele><time>2026-04-26T11:07:25Z</time></trkpt><trkpt lat="45.88396262713601" lon="9.955570242644654"><ele>595.0</ele><time>2026-04-26T11:07:26Z</time></trkpt><trkpt lat="45.88404527119302" lon="9.95568732601265"><ele>595.0</ele><time>2026-04-26T11:07:27Z</time></trkpt><trkpt lat="45.884170992219225" lon="9.955695577002778"><ele>595.0</ele><time>2026-04-26T11:07:28Z</time></trkpt><trkpt lat="45.884236426591414" lon="9.955780982432838"><ele>595.0</ele><time>2026-04-26T11:07:29Z</time></trkpt><trkpt lat="45.884296582682296" lon="9.955834787864044"><ele>595.0</ele><time>2026-04-26T11:07:30Z</time></trkpt><trkpt lat="45.88434945676944" lon="9.955942322515138"><ele>595.0</ele><time>2026-04-26T11:07:32Z</time></trkpt><trkpt lat="45.88419409058414" lon="9.95614134893377"><ele>595.2</ele><time>2026-04-26T11:07:33Z</time></trkpt><trkpt lat="45.884110943421476" lon="9.95621152291751"><ele>595.4</ele><time>2026-04-26T11:07:34Z</time></trkpt><trkpt lat="45.88401501480501" lon="9.956283647127023"><ele>595.6</ele><time>2026-04-26T11:07:35Z</time></trkpt><trkpt lat="45.88391146731318" lon="9.956372124720295"><ele>595.8</ele><time>2026-04-26T11:07:36Z</time></trkpt><trkpt lat="45.88380871838159" lon="9.956463208238892"><ele>596.0</ele><time>2026-04-26T11:07:37Z</time></trkpt><trkpt lat="45.88369849911406" lon="9.956562533620682"><ele>596.0</ele><time>2026-04-26T11:07:38Z</time></trkpt><trkpt lat="45.88358721271876" lon="9.956662816282451"><ele>596.0</ele><time>2026-04-26T11:07:39Z</time></trkpt><trkpt lat="45.88348335444484" lon="9.956755696018728"><ele>596.0</ele><time>2026-04-26T11:07:40Z</time></trkpt><trkpt lat="45.88339251863438" lon="9.956845564303984"><ele>596.0</ele><time>2026-04-26T11:07:41Z</time></trkpt><trkpt lat="45.88332290072702" lon="9.956942983186018"><ele>595.2</ele><time>2026-04-26T11:07:42Z</time></trkpt><trkpt lat="45.88325154222608" lon="9.957016035782353"><ele>594.4000000000001</ele><time>2026-04-26T11:07:43Z</time></trkpt><trkpt lat="45.88323843137725" lon="9.957185950655695"><ele>593.6</ele><time>2026-04-26T11:07:43.999Z</time></trkpt><trkpt lat="45.88318185996445" lon="9.95727996473859"><ele>592.8000000000001</ele><time>2026-04-26T11:07:44.999Z</time></trkpt><trkpt lat="45.88310845954826" lon="9.95734385664577"><ele>592.0</ele><time>2026-04-26T11:07:45.999Z</time></trkpt><trkpt lat="45.88303638228964" lon="9.957405584341899"><ele>592.0</ele><time>2026-04-26T11:07:46.999Z</time></trkpt><trkpt lat="45.88296964102783" lon="9.957473766474394"><ele>592.0</ele><time>2026-04-26T11:07:47.999Z</time></trkpt><trkpt lat="45.88291515977677" lon="9.957565204255289"><ele>592.0</ele><time>2026-04-26T11:07:48.999Z</time></trkpt><trkpt lat="45.88288397995184" lon="9.957706035946286"><ele>592.0</ele><time>2026-04-26T11:07:49.999Z</time></trkpt><trkpt lat="45.88288012219414" lon="9.957869003137962"><ele>592.0</ele><time>2026-04-26T11:07:50.999Z</time></trkpt><trkpt lat="45.88289612892913" lon="9.958045908900774"><ele>592.0</ele><time>2026-04-26T11:07:51.999Z</time></trkpt><trkpt lat="45.88290661645504" lon="9.958228976306208"><ele>592.0</ele><time>2026-04-26T11:07:52.999Z</time></trkpt><trkpt lat="45.8828893981296" lon="9.95842808052775"><ele>592.0</ele><time>2026-04-26T11:07:53.999Z</time></trkpt><trkpt lat="45.88289504645937" lon="9.958630228413819"><ele>592.0</ele><time>2026-04-26T11:07:54.999Z</time></trkpt><trkpt lat="45.88288986103816" lon="9.958831326523207"><ele>592.2</ele><time>2026-04-26T11:07:55.999Z</time></trkpt><trkpt lat="45.88288728051496" lon="9.95901646523673"><ele>592.4000000000001</ele><time>2026-04-26T11:07:56.999Z</time></trkpt><trkpt lat="45.88287496704896" lon="9.959174527054351"><ele>592.5999999999999</ele><time>2026-04-26T11:07:57.999Z</time></trkpt><trkpt lat="45.88288569024921" lon="9.959319397099321"><ele>592.8</ele><time>2026-04-26T11:07:58.999Z</time></trkpt><trkpt lat="45.8829187801852" lon="9.959420268441292"><ele>593.0</ele><time>2026-04-26T11:07:59.999Z</time></trkpt><trkpt lat="45.88293431065461" lon="9.959526815961947"><ele>593.0</ele><time>2026-04-26T11:08:01.999Z</time></trkpt><trkpt lat="45.88290859769644" lon="9.959423878966588"><ele>593.0</ele><time>2026-04-26T11:08:07.999Z</time></trkpt><trkpt lat="45.882913122005796" lon="9.959304367311452"><ele>593.0</ele><time>2026-04-26T11:08:08.999Z</time></trkpt><trkpt lat="45.882894593327705" lon="9.959173473342819"><ele>593.0</ele><time>2026-04-26T11:08:09.999Z</time></trkpt><trkpt lat="45.88288382660912" lon="9.959030955703945"><ele>593.0</ele><time>2026-04-26T11:08:10.999Z</time></trkpt><trkpt lat="45.882911527953574" lon="9.958865661009554"><ele>593.0</ele><time>2026-04-26T11:08:11.999Z</time></trkpt><trkpt lat="45.882915479759504" lon="9.958681873919703"><ele>593.0</ele><time>2026-04-26T11:08:12.999Z</time></trkpt><trkpt lat="45.88290430918659" lon="9.958481069497111"><ele>593.0</ele><time>2026-04-26T11:08:13.999Z</time></trkpt><trkpt lat="45.88290903813617" lon="9.958281254077729"><ele>593.0</ele><time>2026-04-26T11:08:14.999Z</time></trkpt><trkpt lat="45.88290783496167" lon="9.958098129935513"><ele>592.8</ele><time>2026-04-26T11:08:15.999Z</time></trkpt><trkpt lat="45.8829042710285" lon="9.957930946530485"><ele>592.5999999999999</ele><time>2026-04-26T11:08:16.999Z</time></trkpt><trkpt lat="45.88290186314601" lon="9.957768608263914"><ele>592.4000000000001</ele><time>2026-04-26T11:08:17.999Z</time></trkpt><trkpt lat="45.88291139155904" lon="9.95761961998205"><ele>592.2</ele><time>2026-04-26T11:08:18.999Z</time></trkpt><trkpt lat="45.88294881976209" lon="9.957494211886297"><ele>592.0</ele><time>2026-04-26T11:08:19.999Z</time></trkpt><trkpt lat="45.88302470271465" lon="9.957399728489904"><ele>592.0</ele><time>2026-04-26T11:08:20.999Z</time></trkpt><trkpt lat="45.88311048524412" lon="9.957337152858248"><ele>592.0</ele><time>2026-04-26T11:08:21.999Z</time></trkpt><trkpt lat="45.883187447497185" lon="9.957294742814591"><ele>592.0</ele><time>2026-04-26T11:08:22.999Z</time></trkpt><trkpt lat="45.88324623502138" lon="9.957242077453335"><ele>592.0</ele><time>2026-04-26T11:08:23.999Z</time></trkpt><trkpt lat="45.88329589337023" lon="9.957133106022367"><ele>592.0</ele><time>2026-04-26T11:08:25.999Z</time></trkpt><trkpt lat="45.88322819612612" lon="9.957045378721403"><ele>592.0</ele><time>2026-04-26T11:08:28.999Z</time></trkpt><trkpt lat="45.88315029464627" lon="9.957087533732913"><ele>592.0</ele><time>2026-04-26T11:08:29.999Z</time></trkpt><trkpt lat="45.88306679232467" lon="9.957189086710532"><ele>592.0</ele><time>2026-04-26T11:08:30.999Z</time></trkpt><trkpt lat="45.882971783167534" lon="9.95730527457034"><ele>592.0</ele><time>2026-04-26T11:08:31.999Z</time></trkpt><trkpt lat="45.882867443272275" lon="9.957392937430944"><ele>592.0</ele><time>2026-04-26T11:08:32.999Z</time></trkpt><trkpt lat="45.8827804176092" lon="9.957443248686637"><ele>592.0</ele><time>2026-04-26T11:08:33.999Z</time></trkpt><trkpt lat="45.88270512639521" lon="9.957449281924063"><ele>592.0</ele><time>2026-04-26T11:08:34.999Z</time></trkpt><trkpt lat="45.88261544411406" lon="9.957431050658142"><ele>592.0</ele><time>2026-04-26T11:08:35.999Z</time></trkpt><trkpt lat="45.88251866469955" lon="9.957408639649003"><ele>592.0</ele><time>2026-04-26T11:08:36.999Z</time></trkpt><trkpt lat="45.88242500962097" lon="9.957450672467187"><ele>592.0</ele><time>2026-04-26T11:08:37.999Z</time></trkpt><trkpt lat="45.88235349096963" lon="9.957557049633463"><ele>592.0</ele><time>2026-04-26T11:08:38.999Z</time></trkpt><trkpt lat="45.88232229740772" lon="9.957697188204463"><ele>591.75</ele><time>2026-04-26T11:08:39.999Z</time></trkpt><trkpt lat="45.88233709720095" lon="9.957843514529015"><ele>591.5</ele><time>2026-04-26T11:08:40.999Z</time></trkpt><trkpt lat="45.88239551878642" lon="9.957979513571024"><ele>591.25</ele><time>2026-04-26T11:08:41.999Z</time></trkpt><trkpt lat="45.88247593002696" lon="9.958116741659131"><ele>591.0</ele><time>2026-04-26T11:08:42.999Z</time></trkpt><trkpt lat="45.88252429575123" lon="9.958282298237847"><ele>591.6666666666666</ele><time>2026-04-26T11:08:43.999Z</time></trkpt><trkpt lat="45.88248629878087" lon="9.958504371142912"><ele>592.3333333333333</ele><time>2026-04-26T11:08:44.999Z</time></trkpt><trkpt lat="45.8825063427687" lon="9.95873274034776"><ele>593.0</ele><time>2026-04-26T11:08:45.999Z</time></trkpt><trkpt lat="45.882501420513485" lon="9.958985782998552"><ele>594.3333333333333</ele><time>2026-04-26T11:08:46.999Z</time></trkpt><trkpt lat="45.88251716542029" lon="9.959244037485362"><ele>595.6666666666666</ele><time>2026-04-26T11:08:48Z</time></trkpt><trkpt lat="45.88254822001264" lon="9.95948433289709"><ele>597.0</ele><time>2026-04-26T11:08:49Z</time></trkpt><trkpt lat="45.88259434174078" lon="9.959706475284284"><ele>596.5</ele><time>2026-04-26T11:08:50Z</time></trkpt><trkpt lat="45.882645421752585" lon="9.959919189682036"><ele>596.0</ele><time>2026-04-26T11:08:51Z</time></trkpt><trkpt lat="45.88269303494565" lon="9.96011185001811"><ele>595.5</ele><time>2026-04-26T11:08:52Z</time></trkpt><trkpt lat="45.882736376468586" lon="9.960282129870697"><ele>595.0</ele><time>2026-04-26T11:08:53Z</time></trkpt><trkpt lat="45.88277577517291" lon="9.960431134177115"><ele>595.0</ele><time>2026-04-26T11:08:54Z</time></trkpt><trkpt lat="45.8828104812055" lon="9.960586254390405"><ele>595.0</ele><time>2026-04-26T11:08:55Z</time></trkpt><trkpt lat="45.882843694216724" lon="9.960742859097193"><ele>595.0</ele><time>2026-04-26T11:08:56Z</time></trkpt><trkpt lat="45.88287387063258" lon="9.96087305065443"><ele>595.0</ele><time>2026-04-26T11:08:57Z</time></trkpt><trkpt lat="45.88290179511882" lon="9.96099477277825"><ele>595.0</ele><time>2026-04-26T11:08:58Z</time></trkpt><trkpt lat="45.88292931126602" lon="9.961102367872847"><ele>595.0</ele><time>2026-04-26T11:08:59Z</time></trkpt><trkpt lat="45.8829626347948" lon="9.96121250767262"><ele>595.0</ele><time>2026-04-26T11:09:01Z</time></trkpt><trkpt lat="45.883069677861165" lon="9.961047161734411"><ele>595.0</ele><time>2026-04-26T11:09:03Z</time></trkpt><trkpt lat="45.88306621944713" lon="9.960948005208119"><ele>595.0</ele><time>2026-04-26T11:09:04Z</time></trkpt><trkpt lat="45.88303427332566" lon="9.960812190949243"><ele>595.0</ele><time>2026-04-26T11:09:06Z</time></trkpt><trkpt lat="45.88298443553362" lon="9.960704999355515"><ele>595.0</ele><time>2026-04-26T11:10:38.999Z</time></trkpt><trkpt lat="45.883042513464865" lon="9.960649293218955"><ele>595.0</ele><time>2026-04-26T11:18:17Z</time></trkpt><trkpt lat="45.88310467567691" lon="9.960632455794453"><ele>595.0</ele><time>2026-04-26T11:18:22Z</time></trkpt><trkpt lat="45.88299686298817" lon="9.960519664058832"><ele>595.0</ele><time>2026-04-26T11:38:08.999Z</time></trkpt><trkpt lat="45.88292855058545" lon="9.960470657092898"><ele>595.0</ele><time>2026-04-26T11:38:10.999Z</time></trkpt><trkpt lat="45.88286953789893" lon="9.96038455846286"><ele>595.0</ele><time>2026-04-26T11:38:19Z</time></trkpt><trkpt lat="45.88278952078303" lon="9.960220496926553"><ele>595.0</ele><time>2026-04-26T11:38:21Z</time></trkpt><trkpt lat="45.88275272928861" lon="9.960080252625547"><ele>595.0</ele><time>2026-04-26T11:38:22Z</time></trkpt><trkpt lat="45.88271690310799" lon="9.959928176599902"><ele>595.0</ele><time>2026-04-26T11:38:23Z</time></trkpt><trkpt lat="45.882676967339144" lon="9.959751277951458"><ele>595.0</ele><time>2026-04-26T11:38:24Z</time></trkpt><trkpt lat="45.88263851672975" lon="9.959565690890027"><ele>594.75</ele><time>2026-04-26T11:38:25Z</time></trkpt><trkpt lat="45.88260268695599" lon="9.959365784468806"><ele>594.5</ele><time>2026-04-26T11:38:26Z</time></trkpt><trkpt lat="45.882577586528015" lon="9.959182575378696"><ele>594.25</ele><time>2026-04-26T11:38:27Z</time></trkpt><trkpt lat="45.88256447983435" lon="9.95900898203989"><ele>594.0</ele><time>2026-04-26T11:38:28Z</time></trkpt><trkpt lat="45.882560248904255" lon="9.958842837035917"><ele>593.8</ele><time>2026-04-26T11:38:29Z</time></trkpt><trkpt lat="45.88256311513405" lon="9.958672985833825"><ele>593.5999999999999</ele><time>2026-04-26T11:38:30Z</time></trkpt><trkpt lat="45.882564257433955" lon="9.95850209291575"><ele>593.4</ele><time>2026-04-26T11:38:31Z</time></trkpt><trkpt lat="45.88255951649032" lon="9.958350014417723"><ele>593.1999999999999</ele><time>2026-04-26T11:38:32Z</time></trkpt><trkpt lat="45.8825582674065" lon="9.958205504174881"><ele>593.0</ele><time>2026-04-26T11:38:33Z</time></trkpt><trkpt lat="45.88258793889016" lon="9.958079600489675"><ele>592.75</ele><time>2026-04-26T11:38:34Z</time></trkpt><trkpt lat="45.882635082391914" lon="9.95795302178011"><ele>592.5</ele><time>2026-04-26T11:38:35Z</time></trkpt><trkpt lat="45.88270110585365" lon="9.957812071377012"><ele>592.25</ele><time>2026-04-26T11:38:36Z</time></trkpt><trkpt lat="45.88276424762064" lon="9.957658136393665"><ele>592.0</ele><time>2026-04-26T11:38:37Z</time></trkpt><trkpt lat="45.882791714883396" lon="9.95748133100778"><ele>592.0</ele><time>2026-04-26T11:38:38Z</time></trkpt><trkpt lat="45.88296229800972" lon="9.95736091776116"><ele>592.0</ele><time>2026-04-26T11:38:39Z</time></trkpt><trkpt lat="45.88309611739125" lon="9.957233065659867"><ele>592.0</ele><time>2026-04-26T11:38:40Z</time></trkpt><trkpt lat="45.88323485094339" lon="9.957102262807894"><ele>592.0</ele><time>2026-04-26T11:38:41Z</time></trkpt><trkpt lat="45.883369171140096" lon="9.956971346061133"><ele>592.0</ele><time>2026-04-26T11:38:42Z</time></trkpt><trkpt lat="45.88350853905174" lon="9.956842298508954"><ele>592.0</ele><time>2026-04-26T11:38:43Z</time></trkpt><trkpt lat="45.883647022565846" lon="9.956717651556804"><ele>593.3333333333334</ele><time>2026-04-26T11:38:44Z</time></trkpt><trkpt lat="45.883790554602164" lon="9.95659434757661"><ele>594.6666666666666</ele><time>2026-04-26T11:38:45Z</time></trkpt><trkpt lat="45.88392936565817" lon="9.956472012363326"><ele>596.0</ele><time>2026-04-26T11:38:46Z</time></trkpt><trkpt lat="45.8840576335528" lon="9.956357662546674"><ele>596.0</ele><time>2026-04-26T11:38:47Z</time></trkpt><trkpt lat="45.88416591822711" lon="9.956260869376605"><ele>596.0</ele><time>2026-04-26T11:38:48Z</time></trkpt><trkpt lat="45.884257364054235" lon="9.956172750161835"><ele>596.0</ele><time>2026-04-26T11:38:49Z</time></trkpt><trkpt lat="45.88432640324667" lon="9.956084448031598"><ele>596.0</ele><time>2026-04-26T11:38:50Z</time></trkpt><trkpt lat="45.8843982280465" lon="9.956037772859963"><ele>596.0</ele><time>2026-04-26T11:38:51Z</time></trkpt><trkpt lat="45.88445422777201" lon="9.955989399449768"><ele>595.75</ele><time>2026-04-26T11:38:52Z</time></trkpt><trkpt lat="45.884398047602836" lon="9.95578756197119"><ele>595.5</ele><time>2026-04-26T11:38:54Z</time></trkpt><trkpt lat="45.88431974768286" lon="9.955734190041607"><ele>595.25</ele><time>2026-04-26T11:38:55Z</time></trkpt><trkpt lat="45.88420833349544" lon="9.955700204502682"><ele>595.0</ele><time>2026-04-26T11:38:56Z</time></trkpt><trkpt lat="45.88410002521601" lon="9.955654425586685"><ele>595.0</ele><time>2026-04-26T11:38:57Z</time></trkpt><trkpt lat="45.88401225035982" lon="9.955560696547156"><ele>595.0</ele><time>2026-04-26T11:38:58Z</time></trkpt><trkpt lat="45.883946016357655" lon="9.955424083432906"><ele>595.0</ele><time>2026-04-26T11:38:59Z</time></trkpt><trkpt lat="45.88393569080072" lon="9.955241135663641"><ele>595.0</ele><time>2026-04-26T11:39:00Z</time></trkpt><trkpt lat="45.88390967785427" lon="9.955041786130826"><ele>594.0</ele><time>2026-04-26T11:39:01Z</time></trkpt><trkpt lat="45.88386795231779" lon="9.954830472980174"><ele>593.0</ele><time>2026-04-26T11:39:02Z</time></trkpt><trkpt lat="45.88384427063396" lon="9.954619723007815"><ele>592.0</ele><time>2026-04-26T11:39:03Z</time></trkpt><trkpt lat="45.883819562105536" lon="9.954407933394533"><ele>591.75</ele><time>2026-04-26T11:39:04Z</time></trkpt><trkpt lat="45.88379397632045" lon="9.954201090597163"><ele>591.5</ele><time>2026-04-26T11:39:05Z</time></trkpt><trkpt lat="45.8837695530094" lon="9.954000048380026"><ele>591.25</ele><time>2026-04-26T11:39:06Z</time></trkpt><trkpt lat="45.88374611850187" lon="9.953813351768265"><ele>591.0</ele><time>2026-04-26T11:39:07Z</time></trkpt><trkpt lat="45.88372567357638" lon="9.953636246844685"><ele>591.0</ele><time>2026-04-26T11:39:08Z</time></trkpt><trkpt lat="45.88370551678181" lon="9.953461894944251"><ele>591.0</ele><time>2026-04-26T11:39:09Z</time></trkpt><trkpt lat="45.88368534729065" lon="9.953280488194364"><ele>591.0</ele><time>2026-04-26T11:39:10Z</time></trkpt><trkpt lat="45.88366459933439" lon="9.953091165914008"><ele>591.0</ele><time>2026-04-26T11:39:11Z</time></trkpt><trkpt lat="45.88364662201978" lon="9.952896385480152"><ele>591.0</ele><time>2026-04-26T11:39:12Z</time></trkpt><trkpt lat="45.88362806434249" lon="9.952690248697285"><ele>591.0</ele><time>2026-04-26T11:39:13Z</time></trkpt><trkpt lat="45.88360729035021" lon="9.952478917168596"><ele>591.0</ele><time>2026-04-26T11:39:14Z</time></trkpt><trkpt lat="45.88358883759706" lon="9.952262625839545"><ele>591.0</ele><time>2026-04-26T11:39:15Z</time></trkpt><trkpt lat="45.88357225294705" lon="9.952044054073832"><ele>591.0</ele><time>2026-04-26T11:39:16Z</time></trkpt><trkpt lat="45.8835511350076" lon="9.951826180694205"><ele>591.0</ele><time>2026-04-26T11:39:16.999Z</time></trkpt><trkpt lat="45.883534043474455" lon="9.95163133778693"><ele>591.0</ele><time>2026-04-26T11:39:17.999Z</time></trkpt><trkpt lat="45.88352320764008" lon="9.951448439540258"><ele>591.0</ele><time>2026-04-26T11:39:18.999Z</time></trkpt><trkpt lat="45.883510247669555" lon="9.951267402202527"><ele>591.0</ele><time>2026-04-26T11:39:19.999Z</time></trkpt><trkpt lat="45.883493522437035" lon="9.951083542680248"><ele>591.0</ele><time>2026-04-26T11:39:20.999Z</time></trkpt><trkpt lat="45.88347701928754" lon="9.950900542742295"><ele>591.0</ele><time>2026-04-26T11:39:21.999Z</time></trkpt><trkpt lat="45.883458997645576" lon="9.950735683592507"><ele>591.0</ele><time>2026-04-26T11:39:22.999Z</time></trkpt><trkpt lat="45.883442142575795" lon="9.950580146955149"><ele>591.4</ele><time>2026-04-26T11:39:23.999Z</time></trkpt><trkpt lat="45.88344023671591" lon="9.950459928501152"><ele>591.8</ele><time>2026-04-26T11:39:24.999Z</time></trkpt><trkpt lat="45.88341764246305" lon="9.950348128797378"><ele>592.1999999999999</ele><time>2026-04-26T11:39:27.999Z</time></trkpt><trkpt lat="45.883276852301705" lon="9.950333226298103"><ele>592.6</ele><time>2026-04-26T11:39:29.999Z</time></trkpt><trkpt lat="45.88319019073726" lon="9.950355090286868"><ele>593.0</ele><time>2026-04-26T11:39:30.999Z</time></trkpt><trkpt lat="45.883096911157104" lon="9.950379141929513"><ele>591.5</ele><time>2026-04-26T11:39:31.999Z</time></trkpt><trkpt lat="45.88301089724081" lon="9.950392584811084"><ele>590.0</ele><time>2026-04-26T11:39:32.999Z</time></trkpt><trkpt lat="45.88292951862493" lon="9.950407371260317"><ele>588.5</ele><time>2026-04-26T11:39:33.999Z</time></trkpt><trkpt lat="45.88285006281913" lon="9.950422756074763"><ele>587.0</ele><time>2026-04-26T11:39:34.999Z</time></trkpt><trkpt lat="45.88276585026117" lon="9.95044066933532"><ele>585.5</ele><time>2026-04-26T11:39:35.999Z</time></trkpt><trkpt lat="45.88266418466182" lon="9.95046432080217"><ele>584.0</ele><time>2026-04-26T11:39:36.999Z</time></trkpt><trkpt lat="45.8825481227985" lon="9.95046372241669"><ele>583.2</ele><time>2026-04-26T11:39:37.999Z</time></trkpt><trkpt lat="45.8824349693969" lon="9.950485317073644"><ele>582.4</ele><time>2026-04-26T11:39:38.999Z</time></trkpt><trkpt lat="45.882324763347015" lon="9.95052672800114"><ele>581.6</ele><time>2026-04-26T11:39:39.999Z</time></trkpt><trkpt lat="45.882219255562724" lon="9.950547408199062"><ele>580.8</ele><time>2026-04-26T11:39:40.999Z</time></trkpt><trkpt lat="45.8821172001246" lon="9.950566634495598"><ele>580.0</ele><time>2026-04-26T11:39:41.999Z</time></trkpt><trkpt lat="45.88201903695001" lon="9.950582864301584"><ele>580.0</ele><time>2026-04-26T11:39:42.999Z</time></trkpt><trkpt lat="45.88192259073491" lon="9.950600410742586"><ele>580.0</ele><time>2026-04-26T11:39:43.999Z</time></trkpt><trkpt lat="45.88182759083157" lon="9.950618518893805"><ele>580.0</ele><time>2026-04-26T11:39:44.999Z</time></trkpt><trkpt lat="45.881736181347506" lon="9.950633861131733"><ele>580.0</ele><time>2026-04-26T11:39:45.999Z</time></trkpt><trkpt lat="45.881642364923344" lon="9.950652488362927"><ele>580.0</ele><time>2026-04-26T11:39:46.999Z</time></trkpt><trkpt lat="45.8815382908147" lon="9.9506720628156"><ele>579.75</ele><time>2026-04-26T11:39:47.999Z</time></trkpt><trkpt lat="45.881423743160326" lon="9.950691878031945"><ele>579.5</ele><time>2026-04-26T11:39:48.999Z</time></trkpt><trkpt lat="45.881291870263915" lon="9.950714442060276"><ele>579.25</ele><time>2026-04-26T11:39:49.999Z</time></trkpt><trkpt lat="45.88115087219632" lon="9.95073882600935"><ele>579.0</ele><time>2026-04-26T11:39:50.999Z</time></trkpt><trkpt lat="45.881000210493596" lon="9.950763017623492"><ele>579.0</ele><time>2026-04-26T11:39:51.999Z</time></trkpt><trkpt lat="45.88083475787932" lon="9.950794178883896"><ele>579.0</ele><time>2026-04-26T11:39:52.999Z</time></trkpt><trkpt lat="45.880656608455105" lon="9.9508317706292"><ele>579.0</ele><time>2026-04-26T11:39:53.999Z</time></trkpt><trkpt lat="45.88047666573626" lon="9.950878057146884"><ele>579.0</ele><time>2026-04-26T11:39:54.999Z</time></trkpt><trkpt lat="45.88030981159691" lon="9.950920143733835"><ele>579.0</ele><time>2026-04-26T11:39:55.999Z</time></trkpt><trkpt lat="45.880155196702106" lon="9.950961376460306"><ele>579.0</ele><time>2026-04-26T11:39:56.999Z</time></trkpt><trkpt lat="45.880011931956936" lon="9.950996790876689"><ele>578.6666666666666</ele><time>2026-04-26T11:39:57.999Z</time></trkpt><trkpt lat="45.879865334449676" lon="9.951038098850564"><ele>578.3333333333333</ele><time>2026-04-26T11:39:58.999Z</time></trkpt><trkpt lat="45.87971506407775" lon="9.951077848088216"><ele>578.0</ele><time>2026-04-26T11:39:59.999Z</time></trkpt><trkpt lat="45.87956533207079" lon="9.951125615286022"><ele>578.0</ele><time>2026-04-26T11:40:00.999Z</time></trkpt><trkpt lat="45.879422678531014" lon="9.951165614047204"><ele>578.0</ele><time>2026-04-26T11:40:01.999Z</time></trkpt><trkpt lat="45.8792727858579" lon="9.951209197911215"><ele>578.0</ele><time>2026-04-26T11:40:02.999Z</time></trkpt><trkpt lat="45.87912296034218" lon="9.951257068180084"><ele>577.0</ele><time>2026-04-26T11:40:03.999Z</time></trkpt><trkpt lat="45.878968450990904" lon="9.951305673622684"><ele>576.0</ele><time>2026-04-26T11:40:04.999Z</time></trkpt><trkpt lat="45.87880972965534" lon="9.951350801567843"><ele>575.0</ele><time>2026-04-26T11:40:05.999Z</time></trkpt><trkpt lat="45.87864432136383" lon="9.951378758427992"><ele>575.0</ele><time>2026-04-26T11:40:06.999Z</time></trkpt><trkpt lat="45.87847453322691" lon="9.951379978093115"><ele>575.0</ele><time>2026-04-26T11:40:07.999Z</time></trkpt><trkpt lat="45.87829739727212" lon="9.951349098562154"><ele>575.0</ele><time>2026-04-26T11:40:08.999Z</time></trkpt><trkpt lat="45.87812025423304" lon="9.95131705423021"><ele>575.3333333333333</ele><time>2026-04-26T11:40:09.999Z</time></trkpt><trkpt lat="45.87794077243994" lon="9.95128840408347"><ele>575.6666666666666</ele><time>2026-04-26T11:40:10.999Z</time></trkpt><trkpt lat="45.877764822307846" lon="9.951265984391531"><ele>576.0</ele><time>2026-04-26T11:40:11.999Z</time></trkpt><trkpt lat="45.87759761059523" lon="9.951246724266495"><ele>576.0</ele><time>2026-04-26T11:40:12.999Z</time></trkpt><trkpt lat="45.87744533211729" lon="9.951224396021171"><ele>576.0</ele><time>2026-04-26T11:40:13.999Z</time></trkpt><trkpt lat="45.87729905784209" lon="9.95120499228275"><ele>576.0</ele><time>2026-04-26T11:40:14.999Z</time></trkpt><trkpt lat="45.8771597558837" lon="9.95118892065756"><ele>576.0</ele><time>2026-04-26T11:40:15.999Z</time></trkpt><trkpt lat="45.87702753050609" lon="9.951167481064644"><ele>576.0</ele><time>2026-04-26T11:40:17Z</time></trkpt><trkpt lat="45.87689413133371" lon="9.951131189676051"><ele>576.0</ele><time>2026-04-26T11:40:18Z</time></trkpt><trkpt lat="45.8767566511804" lon="9.951079688600068"><ele>576.0</ele><time>2026-04-26T11:40:19Z</time></trkpt><trkpt lat="45.87661863007821" lon="9.950985941319752"><ele>576.0</ele><time>2026-04-26T11:40:20Z</time></trkpt><trkpt lat="45.87647595054376" lon="9.950880698287857"><ele>575.0</ele><time>2026-04-26T11:40:21Z</time></trkpt><trkpt lat="45.87633209701286" lon="9.950763175088873"><ele>574.0</ele><time>2026-04-26T11:40:22Z</time></trkpt><trkpt lat="45.87618932843813" lon="9.950624717168674"><ele>573.0</ele><time>2026-04-26T11:40:23Z</time></trkpt><trkpt lat="45.87604688115581" lon="9.950504413518217"><ele>574.0</ele><time>2026-04-26T11:40:24Z</time></trkpt><trkpt lat="45.875890020687855" lon="9.950407487418428"><ele>575.0</ele><time>2026-04-26T11:40:25Z</time></trkpt><trkpt lat="45.87571753512665" lon="9.950330937748554"><ele>576.0</ele><time>2026-04-26T11:40:26Z</time></trkpt><trkpt lat="45.87554640047016" lon="9.950257596446274"><ele>576.0</ele><time>2026-04-26T11:40:27Z</time></trkpt><trkpt lat="45.8753822693925" lon="9.95018931952796"><ele>576.0</ele><time>2026-04-26T11:40:28Z</time></trkpt><trkpt lat="45.87522925962044" lon="9.950132057801019"><ele>576.0</ele><time>2026-04-26T11:40:29Z</time></trkpt><trkpt lat="45.87509921183418" lon="9.950091833820851"><ele>576.25</ele><time>2026-04-26T11:40:30Z</time></trkpt><trkpt lat="45.87498264739372" lon="9.950048540197773"><ele>576.5</ele><time>2026-04-26T11:40:31Z</time></trkpt><trkpt lat="45.874867687289644" lon="9.950012702649905"><ele>576.75</ele><time>2026-04-26T11:40:32Z</time></trkpt><trkpt lat="45.87475722811157" lon="9.94996372029564"><ele>577.0</ele><time>2026-04-26T11:40:33Z</time></trkpt><trkpt lat="45.8746651964723" lon="9.949858793481345"><ele>578.0</ele><time>2026-04-26T11:40:34Z</time></trkpt><trkpt lat="45.87460380358153" lon="9.949717383450274"><ele>579.0</ele><time>2026-04-26T11:40:35Z</time></trkpt><trkpt lat="45.87457058455929" lon="9.949604821564215"><ele>580.0</ele><time>2026-04-26T11:40:36Z</time></trkpt><trkpt lat="45.8744371092054" lon="9.94958783143952"><ele>581.0</ele><time>2026-04-26T11:40:38Z</time></trkpt><trkpt lat="45.87437232640199" lon="9.949692915077499"><ele>582.0</ele><time>2026-04-26T11:40:39Z</time></trkpt><trkpt lat="45.8743235329521" lon="9.949862060072661"><ele>584.3333333333334</ele><time>2026-04-26T11:40:40Z</time></trkpt><trkpt lat="45.874255651456636" lon="9.950012552857395"><ele>586.6666666666666</ele><time>2026-04-26T11:40:41Z</time></trkpt><trkpt lat="45.87421063273021" lon="9.950113499211952"><ele>589.0</ele><time>2026-04-26T11:40:42Z</time></trkpt><trkpt lat="45.87415151412018" lon="9.950159422023248"><ele>591.3333333333333</ele><time>2026-04-26T11:40:43Z</time></trkpt><trkpt lat="45.87407846131954" lon="9.950186933610306"><ele>593.6666666666666</ele><time>2026-04-26T11:40:44Z</time></trkpt><trkpt lat="45.874014962552835" lon="9.95013010800257"><ele>596.0</ele><time>2026-04-26T11:40:45Z</time></trkpt><trkpt lat="45.87397177499677" lon="9.950014610160844"><ele>597.0</ele><time>2026-04-26T11:40:46Z</time></trkpt><trkpt lat="45.87396467615374" lon="9.94988010382526"><ele>598.0</ele><time>2026-04-26T11:40:47Z</time></trkpt><trkpt lat="45.873956896499664" lon="9.94971134896033"><ele>599.0</ele><time>2026-04-26T11:40:48Z</time></trkpt><trkpt lat="45.87394822845084" lon="9.949558130192072"><ele>600.0</ele><time>2026-04-26T11:40:49Z</time></trkpt><trkpt lat="45.873939033024605" lon="9.94942219290425"><ele>601.0</ele><time>2026-04-26T11:40:50Z</time></trkpt><trkpt lat="45.873929651565454" lon="9.949292080198266"><ele>602.0</ele><time>2026-04-26T11:40:51Z</time></trkpt><trkpt lat="45.87392657467826" lon="9.949172259477637"><ele>603.0</ele><time>2026-04-26T11:40:52Z</time></trkpt><trkpt lat="45.8739362009565" lon="9.94906031045146"><ele>604.0</ele><time>2026-04-26T11:40:53Z</time></trkpt><trkpt lat="45.87395099644087" lon="9.948884384514773"><ele>605.0</ele><time>2026-04-26T11:40:55Z</time></trkpt><trkpt lat="45.87397626285791" lon="9.948758186388392"><ele>606.0</ele><time>2026-04-26T11:40:56Z</time></trkpt><trkpt lat="45.873999679606335" lon="9.94860751762251"><ele>606.0</ele><time>2026-04-26T11:40:57Z</time></trkpt><trkpt lat="45.874031388176434" lon="9.948455582826332"><ele>606.0</ele><time>2026-04-26T11:40:58Z</time></trkpt><trkpt lat="45.874074639987285" lon="9.948294946405978"><ele>606.0</ele><time>2026-04-26T11:40:59Z</time></trkpt><trkpt lat="45.874128696939714" lon="9.948116921641537"><ele>606.0</ele><time>2026-04-26T11:41:00Z</time></trkpt><trkpt lat="45.87418168032524" lon="9.947923841898193"><ele>609.3333333333334</ele><time>2026-04-26T11:41:01Z</time></trkpt><trkpt lat="45.87422524176704" lon="9.947713466968908"><ele>612.6666666666667</ele><time>2026-04-26T11:41:02Z</time></trkpt><trkpt lat="45.874266414517614" lon="9.947501761014264"><ele>616.0</ele><time>2026-04-26T11:41:03Z</time></trkpt><trkpt lat="45.87431113720641" lon="9.947289660430423"><ele>611.3333333333334</ele><time>2026-04-26T11:41:04Z</time></trkpt><trkpt lat="45.87434756497922" lon="9.947065964951936"><ele>606.6666666666666</ele><time>2026-04-26T11:41:05Z</time></trkpt><trkpt lat="45.87437277587379" lon="9.946839636602315"><ele>602.0</ele><time>2026-04-26T11:41:06Z</time></trkpt><trkpt lat="45.87440054072308" lon="9.946595685386098"><ele>602.0</ele><time>2026-04-26T11:41:07Z</time></trkpt><trkpt lat="45.87442967314929" lon="9.946348465181744"><ele>602.0</ele><time>2026-04-26T11:41:08Z</time></trkpt><trkpt lat="45.8744436587942" lon="9.946115973606362"><ele>602.0</ele><time>2026-04-26T11:41:09Z</time></trkpt><trkpt lat="45.874457504486195" lon="9.945880215760035"><ele>606.6666666666666</ele><time>2026-04-26T11:41:10Z</time></trkpt><trkpt lat="45.87446864138985" lon="9.945651120150368"><ele>611.3333333333334</ele><time>2026-04-26T11:41:11Z</time></trkpt><trkpt lat="45.87449551983548" lon="9.945428781986026"><ele>616.0</ele><time>2026-04-26T11:41:12Z</time></trkpt><trkpt lat="45.87450733841214" lon="9.945220073451269"><ele>618.3333333333334</ele><time>2026-04-26T11:41:12.999Z</time></trkpt><trkpt lat="45.87450846871893" lon="9.94498815345511"><ele>620.6666666666666</ele><time>2026-04-26T11:41:13.999Z</time></trkpt><trkpt lat="45.87448182224917" lon="9.944780495106228"><ele>623.0</ele><time>2026-04-26T11:41:14.999Z</time></trkpt><trkpt lat="45.874474025962684" lon="9.94456653916408"><ele>623.0</ele><time>2026-04-26T11:41:15.999Z</time></trkpt><trkpt lat="45.87445312806226" lon="9.944344453743302"><ele>623.0</ele><time>2026-04-26T11:41:16.999Z</time></trkpt><trkpt lat="45.87440399077743" lon="9.944117715964593"><ele>623.0</ele><time>2026-04-26T11:41:17.999Z</time></trkpt><trkpt lat="45.87435225893882" lon="9.943884283899221"><ele>623.3333333333333</ele><time>2026-04-26T11:41:18.999Z</time></trkpt><trkpt lat="45.874322097594664" lon="9.943635579695911"><ele>623.6666666666666</ele><time>2026-04-26T11:41:19.999Z</time></trkpt><trkpt lat="45.87428380187311" lon="9.943401468299365"><ele>624.0</ele><time>2026-04-26T11:41:20.999Z</time></trkpt><trkpt lat="45.87423019493096" lon="9.943180738052506"><ele>640.3333333333334</ele><time>2026-04-26T11:41:21.999Z</time></trkpt><trkpt lat="45.874207320410264" lon="9.942958370566721"><ele>656.6666666666667</ele><time>2026-04-26T11:41:22.999Z</time></trkpt><trkpt lat="45.87416125584476" lon="9.942719999768828"><ele>673.0</ele><time>2026-04-26T11:41:23.999Z</time></trkpt><trkpt lat="45.87408336260074" lon="9.942472261634887"><ele>673.0</ele><time>2026-04-26T11:41:24.999Z</time></trkpt><trkpt lat="45.87401142026364" lon="9.942222424851058"><ele>673.0</ele><time>2026-04-26T11:41:25.999Z</time></trkpt><trkpt lat="45.87395614061858" lon="9.94200735707443"><ele>673.0</ele><time>2026-04-26T11:41:26.999Z</time></trkpt><trkpt lat="45.873916398849" lon="9.941805550243918"><ele>673.0</ele><time>2026-04-26T11:41:27.999Z</time></trkpt><trkpt lat="45.87386159558205" lon="9.941566912638395"><ele>673.0</ele><time>2026-04-26T11:41:28.999Z</time></trkpt><trkpt lat="45.87381831061091" lon="9.941346101145783"><ele>673.0</ele><time>2026-04-26T11:41:29.999Z</time></trkpt><trkpt lat="45.87379292847652" lon="9.941105202356516"><ele>672.3333333333334</ele><time>2026-04-26T11:41:30.999Z</time></trkpt><trkpt lat="45.87375213822995" lon="9.940860671529613"><ele>671.6666666666666</ele><time>2026-04-26T11:41:31.999Z</time></trkpt><trkpt lat="45.873722354541975" lon="9.940621108482475"><ele>671.0</ele><time>2026-04-26T11:41:32.999Z</time></trkpt><trkpt lat="45.87369488053425" lon="9.9403930005893"><ele>671.0</ele><time>2026-04-26T11:41:33.999Z</time></trkpt><trkpt lat="45.87368505462287" lon="9.940164655987815"><ele>671.0</ele><time>2026-04-26T11:41:34.999Z</time></trkpt><trkpt lat="45.873620076313344" lon="9.939957999415084"><ele>671.0</ele><time>2026-04-26T11:41:35.999Z</time></trkpt><trkpt lat="45.8735277386494" lon="9.939748504108591"><ele>670.0</ele><time>2026-04-26T11:41:36.999Z</time></trkpt><trkpt lat="45.87345194122393" lon="9.939529670473089"><ele>669.0</ele><time>2026-04-26T11:41:37.999Z</time></trkpt><trkpt lat="45.87338523846152" lon="9.939354031465502"><ele>668.0</ele><time>2026-04-26T11:41:38.999Z</time></trkpt><trkpt lat="45.873324823758544" lon="9.939204080007219"><ele>667.0</ele><time>2026-04-26T11:41:39.999Z</time></trkpt><trkpt lat="45.87327693646122" lon="9.939077463694447"><ele>674.0</ele><time>2026-04-26T11:41:40.999Z</time></trkpt><trkpt lat="45.87323373779722" lon="9.938984870375782"><ele>681.0</ele><time>2026-04-26T11:41:41.999Z</time></trkpt><trkpt lat="45.87318779834567" lon="9.938919203824483"><ele>688.0</ele><time>2026-04-26T11:41:42.999Z</time></trkpt><trkpt lat="45.873103077513186" lon="9.938924207535905"><ele>695.0</ele><time>2026-04-26T11:41:44.999Z</time></trkpt><trkpt lat="45.8730949575313" lon="9.939070577883246"><ele>702.0</ele><time>2026-04-26T11:41:45.999Z</time></trkpt><trkpt lat="45.87315194977797" lon="9.939211063742938"><ele>709.0</ele><time>2026-04-26T11:41:46.999Z</time></trkpt><trkpt lat="45.873185585446386" lon="9.93937436713457"><ele>711.0</ele><time>2026-04-26T11:41:47.999Z</time></trkpt><trkpt lat="45.87320430136427" lon="9.93956758808949"><ele>713.0</ele><time>2026-04-26T11:41:48.999Z</time></trkpt><trkpt lat="45.87321813510171" lon="9.939779209147357"><ele>715.0</ele><time>2026-04-26T11:41:49.999Z</time></trkpt><trkpt lat="45.87323101514931" lon="9.939992518238014"><ele>717.0</ele><time>2026-04-26T11:41:50.999Z</time></trkpt><trkpt lat="45.87323803011615" lon="9.940220011082971"><ele>718.5</ele><time>2026-04-26T11:41:51.999Z</time></trkpt><trkpt lat="45.8732320715051" lon="9.940440943838999"><ele>720.0</ele><time>2026-04-26T11:41:52.999Z</time></trkpt><trkpt lat="45.87323036329421" lon="9.9406573102168"><ele>721.5</ele><time>2026-04-26T11:41:53.999Z</time></trkpt><trkpt lat="45.8731975793987" lon="9.94085172443958"><ele>723.0</ele><time>2026-04-26T11:41:54.999Z</time></trkpt><trkpt lat="45.87318026937266" lon="9.941064371803481"><ele>723.0</ele><time>2026-04-26T11:41:55.999Z</time></trkpt><trkpt lat="45.873164000899585" lon="9.941287162254927"><ele>723.0</ele><time>2026-04-26T11:41:56.999Z</time></trkpt><trkpt lat="45.873163463040136" lon="9.94150529074925"><ele>723.0</ele><time>2026-04-26T11:41:57.999Z</time></trkpt><trkpt lat="45.8731547100767" lon="9.941701918192678"><ele>723.0</ele><time>2026-04-26T11:41:58.999Z</time></trkpt><trkpt lat="45.87314950564648" lon="9.941889021023364"><ele>724.75</ele><time>2026-04-26T11:41:59.999Z</time></trkpt><trkpt lat="45.87314403091192" lon="9.942062280647612"><ele>726.5</ele><time>2026-04-26T11:42:00.999Z</time></trkpt><trkpt lat="45.87313567446761" lon="9.942219581681295"><ele>728.25</ele><time>2026-04-26T11:42:01.999Z</time></trkpt><trkpt lat="45.873123603268404" lon="9.942392736617666"><ele>730.0</ele><time>2026-04-26T11:42:02.999Z</time></trkpt><trkpt lat="45.87311101650032" lon="9.94259770339662"><ele>732.5</ele><time>2026-04-26T11:42:03.999Z</time></trkpt><trkpt lat="45.873088736586624" lon="9.942809046302935"><ele>735.0</ele><time>2026-04-26T11:42:04.999Z</time></trkpt><trkpt lat="45.873065704127676" lon="9.94302039823952"><ele>737.5</ele><time>2026-04-26T11:42:05.999Z</time></trkpt><trkpt lat="45.87304840662816" lon="9.94323043425678"><ele>740.0</ele><time>2026-04-26T11:42:06.999Z</time></trkpt><trkpt lat="45.87306146834105" lon="9.943462974408837"><ele>742.3333333333333</ele><time>2026-04-26T11:42:07.999Z</time></trkpt><trkpt lat="45.87305650140831" lon="9.943684125503566"><ele>744.6666666666666</ele><time>2026-04-26T11:42:08.999Z</time></trkpt><trkpt lat="45.87304057193622" lon="9.943923118894467"><ele>747.0</ele><time>2026-04-26T11:42:09.999Z</time></trkpt><trkpt lat="45.87302235889451" lon="9.944166452105248"><ele>746.3333333333334</ele><time>2026-04-26T11:42:10.999Z</time></trkpt><trkpt lat="45.87299989493853" lon="9.944422910756563"><ele>745.6666666666667</ele><time>2026-04-26T11:42:11.999Z</time></trkpt><trkpt lat="45.872976409327144" lon="9.94466205901855"><ele>745.0</ele><time>2026-04-26T11:42:12.999Z</time></trkpt><trkpt lat="45.87295097454389" lon="9.94486346968448"><ele>742.5</ele><time>2026-04-26T11:42:13.999Z</time></trkpt><trkpt lat="45.87291899469615" lon="9.945088345692799"><ele>740.0</ele><time>2026-04-26T11:42:14.999Z</time></trkpt><trkpt lat="45.87289317114125" lon="9.94530452938232"><ele>737.5</ele><time>2026-04-26T11:42:15.999Z</time></trkpt><trkpt lat="45.872853793825655" lon="9.94548886617021"><ele>735.0</ele><time>2026-04-26T11:42:16.999Z</time></trkpt><trkpt lat="45.87280434458492" lon="9.945651669270452"><ele>735.0</ele><time>2026-04-26T11:42:17.999Z</time></trkpt><trkpt lat="45.872747560273424" lon="9.945797614185375"><ele>735.0</ele><time>2026-04-26T11:42:18.999Z</time></trkpt><trkpt lat="45.87272253019106" lon="9.945901683893371"><ele>735.0</ele><time>2026-04-26T11:42:19.999Z</time></trkpt><trkpt lat="45.872654550715595" lon="9.945964689411184"><ele>735.0</ele><time>2026-04-26T11:42:20.999Z</time></trkpt><trkpt lat="45.87255955375813" lon="9.945849996831432"><ele>735.0</ele><time>2026-04-26T11:42:23Z</time></trkpt><trkpt lat="45.872494042772516" lon="9.945773885633123"><ele>745.75</ele><time>2026-04-26T11:42:24Z</time></trkpt><trkpt lat="45.872428670925395" lon="9.945646972252673"><ele>756.5</ele><time>2026-04-26T11:42:25Z</time></trkpt><trkpt lat="45.87235102768253" lon="9.945522231660211"><ele>767.25</ele><time>2026-04-26T11:42:26Z</time></trkpt><trkpt lat="45.87226659586203" lon="9.945389314941293"><ele>778.0</ele><time>2026-04-26T11:42:27Z</time></trkpt><trkpt lat="45.87217227120082" lon="9.945234015803576"><ele>778.0</ele><time>2026-04-26T11:42:28Z</time></trkpt><trkpt lat="45.87206099829039" lon="9.945097361367434"><ele>778.0</ele><time>2026-04-26T11:42:29Z</time></trkpt><trkpt lat="45.87193658804096" lon="9.944969950139264"><ele>778.0</ele><time>2026-04-26T11:42:30Z</time></trkpt><trkpt lat="45.87182577491789" lon="9.94486158603143"><ele>778.0</ele><time>2026-04-26T11:42:31Z</time></trkpt><trkpt lat="45.87174057205221" lon="9.944818360796736"><ele>782.5999999999999</ele><time>2026-04-26T11:42:32Z</time></trkpt><trkpt lat="45.871656964829874" lon="9.944788939007545"><ele>787.1999999999999</ele><time>2026-04-26T11:42:34Z</time></trkpt><trkpt lat="45.87179955757406" lon="9.944714099914261"><ele>791.8</ele><time>2026-04-26T11:42:36Z</time></trkpt><trkpt lat="45.871877921677104" lon="9.944707314462027"><ele>796.4</ele><time>2026-04-26T11:42:37Z</time></trkpt><trkpt lat="45.8719824493858" lon="9.944698429549204"><ele>801.0</ele><time>2026-04-26T11:42:38Z</time></trkpt><trkpt lat="45.8720993459069" lon="9.944715690205117"><ele>801.0</ele><time>2026-04-26T11:42:39Z</time></trkpt><trkpt lat="45.87221694823993" lon="9.944729213244035"><ele>801.0</ele><time>2026-04-26T11:42:40Z</time></trkpt><trkpt lat="45.87232359406722" lon="9.94474181021672"><ele>801.0</ele><time>2026-04-26T11:42:41Z</time></trkpt><trkpt lat="45.87240385359559" lon="9.944746992716725"><ele>801.0</ele><time>2026-04-26T11:42:42Z</time></trkpt><trkpt lat="45.872510404469054" lon="9.944725026919572"><ele>801.0</ele><time>2026-04-26T11:42:44Z</time></trkpt><trkpt lat="45.87247788527979" lon="9.944516428240307"><ele>801.0</ele><time>2026-04-26T11:42:46Z</time></trkpt><trkpt lat="45.8724063360253" lon="9.944446960373833"><ele>801.0</ele><time>2026-04-26T11:42:47Z</time></trkpt><trkpt lat="45.87228889552765" lon="9.944380185355211"><ele>801.0</ele><time>2026-04-26T11:42:48Z</time></trkpt><trkpt lat="45.87217439684425" lon="9.944301747967382"><ele>801.0</ele><time>2026-04-26T11:42:49Z</time></trkpt><trkpt lat="45.8720600681313" lon="9.944222913382072"><ele>804.0</ele><time>2026-04-26T11:42:50Z</time></trkpt><trkpt lat="45.871944703882995" lon="9.944143364735385"><ele>807.0</ele><time>2026-04-26T11:42:51Z</time></trkpt><trkpt lat="45.87183656219252" lon="9.944086926992581"><ele>810.0</ele><time>2026-04-26T11:42:52Z</time></trkpt><trkpt lat="45.87172964835396" lon="9.943979554636126"><ele>813.0</ele><time>2026-04-26T11:42:53Z</time></trkpt><trkpt lat="45.871580317188496" lon="9.943881690081756"><ele>815.25</ele><time>2026-04-26T11:42:54Z</time></trkpt><trkpt lat="45.87146589613045" lon="9.943826246356801"><ele>817.5</ele><time>2026-04-26T11:42:55Z</time></trkpt><trkpt lat="45.871337181054294" lon="9.943749362403441"><ele>819.75</ele><time>2026-04-26T11:42:56Z</time></trkpt><trkpt lat="45.87122860714443" lon="9.943659088633499"><ele>822.0</ele><time>2026-04-26T11:42:57Z</time></trkpt><trkpt lat="45.87108942182051" lon="9.943609006027357"><ele>822.0</ele><time>2026-04-26T11:42:58Z</time></trkpt><trkpt lat="45.870975634849636" lon="9.943568968519024"><ele>822.0</ele><time>2026-04-26T11:42:59Z</time></trkpt><trkpt lat="45.870864722952994" lon="9.943551344573061"><ele>822.0</ele><time>2026-04-26T11:43:00Z</time></trkpt><trkpt lat="45.87075188165476" lon="9.943566469151083"><ele>822.0</ele><time>2026-04-26T11:43:01Z</time></trkpt><trkpt lat="45.8706344808681" lon="9.943618026734288"><ele>824.0</ele><time>2026-04-26T11:43:02Z</time></trkpt><trkpt lat="45.87051339407483" lon="9.943710426228263"><ele>826.0</ele><time>2026-04-26T11:43:03Z</time></trkpt><trkpt lat="45.87039708500921" lon="9.943836812534501"><ele>828.0</ele><time>2026-04-26T11:43:04Z</time></trkpt><trkpt lat="45.870285162722254" lon="9.943958853451665"><ele>830.0</ele><time>2026-04-26T11:43:05Z</time></trkpt><trkpt lat="45.870167206615974" lon="9.944070713195481"><ele>833.0</ele><time>2026-04-26T11:43:06Z</time></trkpt><trkpt lat="45.87002139877155" lon="9.94417189076898"><ele>836.0</ele><time>2026-04-26T11:43:07Z</time></trkpt><trkpt lat="45.86985456776743" lon="9.94427709133477"><ele>839.0</ele><time>2026-04-26T11:43:08Z</time></trkpt><trkpt lat="45.86970864208862" lon="9.944353670124226"><ele>841.5</ele><time>2026-04-26T11:43:09Z</time></trkpt><trkpt lat="45.86957986370825" lon="9.944393474814712"><ele>844.0</ele><time>2026-04-26T11:43:10Z</time></trkpt><trkpt lat="45.86945559967093" lon="9.944374975833682"><ele>846.5</ele><time>2026-04-26T11:43:11Z</time></trkpt><trkpt lat="45.869312268314886" lon="9.944362790139166"><ele>849.0</ele><time>2026-04-26T11:43:12Z</time></trkpt><trkpt lat="45.86919040291464" lon="9.944357284208653"><ele>854.75</ele><time>2026-04-26T11:43:13Z</time></trkpt><trkpt lat="45.869052777285425" lon="9.944310794262746"><ele>860.5</ele><time>2026-04-26T11:43:14Z</time></trkpt><trkpt lat="45.86892155286737" lon="9.944290275812014"><ele>866.25</ele><time>2026-04-26T11:43:15Z</time></trkpt><trkpt lat="45.86878047354672" lon="9.944319025687294"><ele>872.0</ele><time>2026-04-26T11:43:16Z</time></trkpt><trkpt lat="45.86865645184549" lon="9.944335069573807"><ele>872.0</ele><time>2026-04-26T11:43:16.999Z</time></trkpt><trkpt lat="45.86853805321314" lon="9.944325382149774"><ele>872.0</ele><time>2026-04-26T11:43:17.999Z</time></trkpt><trkpt lat="45.86841532388285" lon="9.94431076658414"><ele>872.0</ele><time>2026-04-26T11:43:18.999Z</time></trkpt><trkpt lat="45.868278524108526" lon="9.94428576242954"><ele>872.0</ele><time>2026-04-26T11:43:19.999Z</time></trkpt><trkpt lat="45.86814354381047" lon="9.94422567070757"><ele>870.5</ele><time>2026-04-26T11:43:20.999Z</time></trkpt><trkpt lat="45.8680010323023" lon="9.944138961114392"><ele>869.0</ele><time>2026-04-26T11:43:21.999Z</time></trkpt><trkpt lat="45.86789004596355" lon="9.944054665793258"><ele>867.5</ele><time>2026-04-26T11:43:22.999Z</time></trkpt><trkpt lat="45.86778124017005" lon="9.944039452411305"><ele>866.0</ele><time>2026-04-26T11:43:23.999Z</time></trkpt><trkpt lat="45.86770825780863" lon="9.94404660484921"><ele>869.5999999999999</ele><time>2026-04-26T11:43:24.999Z</time></trkpt><trkpt lat="45.86759088846689" lon="9.94403727878162"><ele>873.1999999999999</ele><time>2026-04-26T11:43:25.999Z</time></trkpt><trkpt lat="45.86746995192701" lon="9.944082548002124"><ele>876.8000000000001</ele><time>2026-04-26T11:43:26.999Z</time></trkpt><trkpt lat="45.86736667282859" lon="9.94410773363345"><ele>880.4000000000001</ele><time>2026-04-26T11:43:27.999Z</time></trkpt><trkpt lat="45.86726746203146" lon="9.944108859200146"><ele>884.0</ele><time>2026-04-26T11:43:28.999Z</time></trkpt><trkpt lat="45.86717603566434" lon="9.944115131043784"><ele>884.0</ele><time>2026-04-26T11:43:29.999Z</time></trkpt><trkpt lat="45.86709748490278" lon="9.944146734029305"><ele>884.0000000000001</ele><time>2026-04-26T11:43:31.999Z</time></trkpt><trkpt lat="45.86715919267356" lon="9.944290512177243"><ele>884.0000000000001</ele><time>2026-04-26T11:43:33.999Z</time></trkpt><trkpt lat="45.86727620929686" lon="9.944296697065443"><ele>884.0</ele><time>2026-04-26T11:43:34.999Z</time></trkpt><trkpt lat="45.8673868452735" lon="9.944305746160541"><ele>884.0</ele><time>2026-04-26T11:43:35.999Z</time></trkpt><trkpt lat="45.86749051455493" lon="9.944313409219237"><ele>886.6</ele><time>2026-04-26T11:43:36.999Z</time></trkpt><trkpt lat="45.86761104921862" lon="9.944320263230827"><ele>889.2</ele><time>2026-04-26T11:43:37.999Z</time></trkpt><trkpt lat="45.86770781150135" lon="9.944331541401795"><ele>891.8000000000001</ele><time>2026-04-26T11:43:38.999Z</time></trkpt><trkpt lat="45.86778660730599" lon="9.944363459802528"><ele>894.4000000000001</ele><time>2026-04-26T11:43:39.999Z</time></trkpt><trkpt lat="45.867841147413735" lon="9.944442328601273"><ele>897.0</ele><time>2026-04-26T11:43:40.999Z</time></trkpt><trkpt lat="45.86793276293888" lon="9.944556581493133"><ele>897.0</ele><time>2026-04-26T11:43:41.999Z</time></trkpt><trkpt lat="45.86804832014603" lon="9.944685123563383"><ele>897.0</ele><time>2026-04-26T11:43:42.999Z</time></trkpt><trkpt lat="45.86815154463315" lon="9.94480193476711"><ele>897.0</ele><time>2026-04-26T11:43:43.999Z</time></trkpt><trkpt lat="45.8682418061533" lon="9.944901412007537"><ele>897.0</ele><time>2026-04-26T11:43:44.999Z</time></trkpt><trkpt lat="45.86833806783599" lon="9.944994213694779"><ele>897.0</ele><time>2026-04-26T11:43:45.999Z</time></trkpt><trkpt lat="45.86840835932278" lon="9.94504489610239"><ele>897.0</ele><time>2026-04-26T11:43:46.999Z</time></trkpt><trkpt lat="45.86842805402116" lon="9.945246191940186"><ele>897.0</ele><time>2026-04-26T11:43:48.999Z</time></trkpt><trkpt lat="45.86840504008452" lon="9.945405165135707"><ele>897.0</ele><time>2026-04-26T11:43:49.999Z</time></trkpt><trkpt lat="45.86838799046798" lon="9.945560352185183"><ele>897.0</ele><time>2026-04-26T11:43:50.999Z</time></trkpt><trkpt lat="45.868366935889895" lon="9.945718536376145"><ele>898.0</ele><time>2026-04-26T11:43:51.999Z</time></trkpt><trkpt lat="45.86833282174786" lon="9.945921451425873"><ele>899.0</ele><time>2026-04-26T11:43:52.999Z</time></trkpt><trkpt lat="45.86826831318548" lon="9.946098913943588"><ele>900.0</ele><time>2026-04-26T11:43:53.999Z</time></trkpt><trkpt lat="45.86821096440073" lon="9.94628306621065"><ele>901.0</ele><time>2026-04-26T11:43:54.999Z</time></trkpt><trkpt lat="45.86812277262618" lon="9.946449382363044"><ele>901.0</ele><time>2026-04-26T11:43:55.999Z</time></trkpt><trkpt lat="45.868060976740296" lon="9.94660124590372"><ele>901.0</ele><time>2026-04-26T11:43:56.999Z</time></trkpt><trkpt lat="45.86802032376213" lon="9.946752445595388"><ele>901.0</ele><time>2026-04-26T11:43:57.999Z</time></trkpt><trkpt lat="45.86795685041697" lon="9.946928679538726"><ele>901.0</ele><time>2026-04-26T11:43:58.999Z</time></trkpt><trkpt lat="45.86790494658197" lon="9.947031895077432"><ele>899.4999999999999</ele><time>2026-04-26T11:43:59.999Z</time></trkpt><trkpt lat="45.867850737487935" lon="9.947156740900821"><ele>898.0</ele><time>2026-04-26T11:44:01.999Z</time></trkpt><trkpt lat="45.86780675279274" lon="9.947252825784053"><ele>896.5</ele><time>2026-04-26T11:44:02.999Z</time></trkpt><trkpt lat="45.867762491901416" lon="9.947345840781495"><ele>895.0</ele><time>2026-04-26T11:44:03.999Z</time></trkpt><trkpt lat="45.86772047895489" lon="9.94745226209684"><ele>893.4999999999999</ele><time>2026-04-26T11:44:04.999Z</time></trkpt><trkpt lat="45.86767332581156" lon="9.947520776541129"><ele>892.0</ele><time>2026-04-26T11:44:05.999Z</time></trkpt><trkpt lat="45.867640160525795" lon="9.947609583889507"><ele>890.8333333333333</ele><time>2026-04-26T11:44:06.999Z</time></trkpt><trkpt lat="45.86761766422455" lon="9.947728491854196"><ele>889.6666666666666</ele><time>2026-04-26T11:44:07.999Z</time></trkpt><trkpt lat="45.86760625516707" lon="9.947858698624353"><ele>888.5</ele><time>2026-04-26T11:44:08.999Z</time></trkpt><trkpt lat="45.86758108890219" lon="9.947956408895573"><ele>887.3333333333333</ele><time>2026-04-26T11:44:09.999Z</time></trkpt><trkpt lat="45.86754279058915" lon="9.94806703857771"><ele>886.1666666666666</ele><time>2026-04-26T11:44:11.999Z</time></trkpt><trkpt lat="45.867525109021834" lon="9.947941173593748"><ele>885.0</ele><time>2026-04-26T11:44:14.999Z</time></trkpt><trkpt lat="45.867539607451626" lon="9.947834776384802"><ele>894.8</ele><time>2026-04-26T11:44:15.999Z</time></trkpt><trkpt lat="45.867537931880264" lon="9.94773017435514"><ele>904.6</ele><time>2026-04-26T11:44:16.999Z</time></trkpt><trkpt lat="45.86752215745942" lon="9.947611249474184"><ele>914.4000000000001</ele><time>2026-04-26T11:44:17.999Z</time></trkpt><trkpt lat="45.86752980745677" lon="9.94750286117163"><ele>924.2</ele><time>2026-04-26T11:44:18.999Z</time></trkpt><trkpt lat="45.86754984763017" lon="9.947343715625987"><ele>934.0</ele><time>2026-04-26T11:44:19.999Z</time></trkpt><trkpt lat="45.8675849668417" lon="9.947170809973434"><ele>935.25</ele><time>2026-04-26T11:44:20.999Z</time></trkpt><trkpt lat="45.86760410374557" lon="9.947006520265354"><ele>936.5</ele><time>2026-04-26T11:44:21.999Z</time></trkpt><trkpt lat="45.8676016607298" lon="9.946819937670547"><ele>937.75</ele><time>2026-04-26T11:44:22.999Z</time></trkpt><trkpt lat="45.867622332327485" lon="9.946631364786187"><ele>939.0</ele><time>2026-04-26T11:44:23.999Z</time></trkpt><trkpt lat="45.86763675642576" lon="9.9464570867385"><ele>930.75</ele><time>2026-04-26T11:44:24.999Z</time></trkpt><trkpt lat="45.867665530504595" lon="9.946266509686911"><ele>922.5</ele><time>2026-04-26T11:44:25.999Z</time></trkpt><trkpt lat="45.8676784986792" lon="9.946093247407049"><ele>914.25</ele><time>2026-04-26T11:44:26.998Z</time></trkpt><trkpt lat="45.86768413222413" lon="9.945952691242121"><ele>906.0</ele><time>2026-04-26T11:44:27.998Z</time></trkpt><trkpt lat="45.867691202702815" lon="9.945815902577847"><ele>906.0</ele><time>2026-04-26T11:44:29Z</time></trkpt><trkpt lat="45.86769617852666" lon="9.945704657353403"><ele>906.0</ele><time>2026-04-26T11:44:30Z</time></trkpt><trkpt lat="45.867686142089255" lon="9.945586327058294"><ele>906.0</ele><time>2026-04-26T11:44:31Z</time></trkpt><trkpt lat="45.86770587617618" lon="9.945487845528787"><ele>906.0</ele><time>2026-04-26T11:44:32Z</time></trkpt><trkpt lat="45.86770490994817" lon="9.945383900892278"><ele>906.0</ele><time>2026-04-26T11:44:34Z</time></trkpt><trkpt lat="45.8676154347306" lon="9.945316476186463"><ele>906.0</ele><time>2026-04-26T11:44:35Z</time></trkpt><trkpt lat="45.867545724713956" lon="9.945390173855511"><ele>914.0</ele><time>2026-04-26T11:44:36Z</time></trkpt><trkpt lat="45.867553982425086" lon="9.945572205511112"><ele>921.9999999999999</ele><time>2026-04-26T11:44:37Z</time></trkpt><trkpt lat="45.86752767584053" lon="9.945755809073203"><ele>929.9999999999999</ele><time>2026-04-26T11:44:39Z</time></trkpt><trkpt lat="45.86750395491896" lon="9.94586156282272"><ele>938.0</ele><time>2026-04-26T11:44:40Z</time></trkpt><trkpt lat="45.86746563863131" lon="9.945981312754832"><ele>946.0</ele><time>2026-04-26T11:44:41Z</time></trkpt><trkpt lat="45.867419589345985" lon="9.94609520366172"><ele>946.0</ele><time>2026-04-26T11:44:42Z</time></trkpt><trkpt lat="45.8673684972046" lon="9.94621757027042"><ele>945.9999999999999</ele><time>2026-04-26T11:44:43Z</time></trkpt><trkpt lat="45.8673325404425" lon="9.946358241058753"><ele>945.9999999999999</ele><time>2026-04-26T11:44:44Z</time></trkpt><trkpt lat="45.86727604631538" lon="9.946497949301426"><ele>946.0</ele><time>2026-04-26T11:44:45Z</time></trkpt><trkpt lat="45.86722310396697" lon="9.946646212714498"><ele>946.0</ele><time>2026-04-26T11:44:46Z</time></trkpt><trkpt lat="45.86717117006665" lon="9.946783955223534"><ele>944.25</ele><time>2026-04-26T11:44:47Z</time></trkpt><trkpt lat="45.86711336733842" lon="9.946931076158442"><ele>942.5</ele><time>2026-04-26T11:44:48Z</time></trkpt><trkpt lat="45.8670551207979" lon="9.947083731811466"><ele>940.75</ele><time>2026-04-26T11:44:49Z</time></trkpt><trkpt lat="45.86698434870045" lon="9.947245941718824"><ele>939.0</ele><time>2026-04-26T11:44:50Z</time></trkpt><trkpt lat="45.866945507310476" lon="9.947359055189638"><ele>939.0</ele><time>2026-04-26T11:44:51Z</time></trkpt><trkpt lat="45.86689736700649" lon="9.947489467684605"><ele>939.0000000000001</ele><time>2026-04-26T11:44:52Z</time></trkpt><trkpt lat="45.86685186941552" lon="9.947623817547022"><ele>939.0000000000001</ele><time>2026-04-26T11:44:53Z</time></trkpt><trkpt lat="45.86678949810245" lon="9.94776923022662"><ele>939.0</ele><time>2026-04-26T11:44:54Z</time></trkpt><trkpt lat="45.86676366282181" lon="9.947866648131855"><ele>939.0</ele><time>2026-04-26T11:44:55Z</time></trkpt><trkpt lat="45.866749065507186" lon="9.94796690337291"><ele>945.5</ele><time>2026-04-26T11:44:56Z</time></trkpt><trkpt lat="45.86671213116223" lon="9.948105884204361"><ele>952.0</ele><time>2026-04-26T11:44:58Z</time></trkpt><trkpt lat="45.86662356682277" lon="9.948080294819333"><ele>958.5</ele><time>2026-04-26T11:45:01Z</time></trkpt><trkpt lat="45.86662703927916" lon="9.947979372099532"><ele>965.0</ele><time>2026-04-26T11:45:02Z</time></trkpt><trkpt lat="45.866644605539754" lon="9.947866992849697"><ele>971.5</ele><time>2026-04-26T11:45:03Z</time></trkpt><trkpt lat="45.866681441816944" lon="9.947727190194202"><ele>978.0</ele><time>2026-04-26T11:45:04Z</time></trkpt><trkpt lat="45.86666724080269" lon="9.947560348865391"><ele>979.0</ele><time>2026-04-26T11:45:05Z</time></trkpt><trkpt lat="45.866639650177405" lon="9.947391735902695"><ele>980.0</ele><time>2026-04-26T11:45:06Z</time></trkpt><trkpt lat="45.8666216452118" lon="9.947226854725987"><ele>981.0</ele><time>2026-04-26T11:45:07Z</time></trkpt><trkpt lat="45.86663824578803" lon="9.94705979512934"><ele>982.0</ele><time>2026-04-26T11:45:08Z</time></trkpt><trkpt lat="45.866664029265905" lon="9.946906689472309"><ele>983.0</ele><time>2026-04-26T11:45:09Z</time></trkpt><trkpt lat="45.86666852174572" lon="9.94669663167227"><ele>984.0</ele><time>2026-04-26T11:45:10Z</time></trkpt><trkpt lat="45.866663711996544" lon="9.946478271042592"><ele>985.0</ele><time>2026-04-26T11:45:11Z</time></trkpt><trkpt lat="45.8666496758006" lon="9.946275344817728"><ele>986.0</ele><time>2026-04-26T11:45:12Z</time></trkpt><trkpt lat="45.866654121475094" lon="9.946108338287212"><ele>986.0</ele><time>2026-04-26T11:45:13Z</time></trkpt><trkpt lat="45.86663951591029" lon="9.945969039758896"><ele>985.9999999999999</ele><time>2026-04-26T11:45:14Z</time></trkpt><trkpt lat="45.866602146731886" lon="9.945848877103552"><ele>985.9999999999999</ele><time>2026-04-26T11:45:15Z</time></trkpt><trkpt lat="45.866507632484776" lon="9.94576003448135"><ele>986.0</ele><time>2026-04-26T11:45:16Z</time></trkpt><trkpt lat="45.86640529751636" lon="9.94568463900949"><ele>986.0</ele><time>2026-04-26T11:45:17Z</time></trkpt><trkpt lat="45.86624490052308" lon="9.945629727327171"><ele>984.75</ele><time>2026-04-26T11:45:18Z</time></trkpt><trkpt lat="45.866132935875406" lon="9.945524529384988"><ele>983.5</ele><time>2026-04-26T11:45:19Z</time></trkpt><trkpt lat="45.866002592457995" lon="9.945429804020305"><ele>982.25</ele><time>2026-04-26T11:45:20Z</time></trkpt><trkpt lat="45.865869794179396" lon="9.945339965835636"><ele>981.0</ele><time>2026-04-26T11:45:21Z</time></trkpt><trkpt lat="45.86571254372892" lon="9.945268627711807"><ele>984.0</ele><time>2026-04-26T11:45:22Z</time></trkpt><trkpt lat="45.86558677185153" lon="9.945207375166524"><ele>987.0</ele><time>2026-04-26T11:45:23Z</time></trkpt><trkpt lat="45.8654963181005" lon="9.945068219102392"><ele>990.0</ele><time>2026-04-26T11:45:23.999Z</time></trkpt><trkpt lat="45.865417700711355" lon="9.94495873796451"><ele>993.0</ele><time>2026-04-26T11:45:24.999Z</time></trkpt><trkpt lat="45.865340299924654" lon="9.94489360103395"><ele>993.0</ele><time>2026-04-26T11:45:25.999Z</time></trkpt><trkpt lat="45.86527938686015" lon="9.944849283898208"><ele>993.0</ele><time>2026-04-26T11:45:27.999Z</time></trkpt><trkpt lat="45.865289138038506" lon="9.94502468397301"><ele>993.0</ele><time>2026-04-26T11:45:29.999Z</time></trkpt><trkpt lat="45.865384356611365" lon="9.94509462673785"><ele>993.0</ele><time>2026-04-26T11:45:30.999Z</time></trkpt><trkpt lat="45.86545097797212" lon="9.945189642801141"><ele>993.0</ele><time>2026-04-26T11:45:31.999Z</time></trkpt><trkpt lat="45.86551422841534" lon="9.945299025442443"><ele>998.2</ele><time>2026-04-26T11:45:32.999Z</time></trkpt><trkpt lat="45.86558791903191" lon="9.945402450131109"><ele>1003.4</ele><time>2026-04-26T11:45:33.999Z</time></trkpt><trkpt lat="45.86567062879713" lon="9.945515680440126"><ele>1008.6000000000001</ele><time>2026-04-26T11:45:34.999Z</time></trkpt><trkpt lat="45.86574378301254" lon="9.945632219763466"><ele>1013.8000000000001</ele><time>2026-04-26T11:45:35.999Z</time></trkpt><trkpt lat="45.86581125815515" lon="9.945711948318687"><ele>1019.0</ele><time>2026-04-26T11:45:36.999Z</time></trkpt><trkpt lat="45.86582493867901" lon="9.94581741033681"><ele>1020.0</ele><time>2026-04-26T11:45:37.999Z</time></trkpt><trkpt lat="45.86575250539147" lon="9.946009315461708"><ele>1021.0</ele><time>2026-04-26T11:45:39.999Z</time></trkpt><trkpt lat="45.865683884980264" lon="9.94613433993564"><ele>1022.0</ele><time>2026-04-26T11:45:40.999Z</time></trkpt><trkpt lat="45.865615537155804" lon="9.946278190360678"><ele>1023.0</ele><time>2026-04-26T11:45:41.999Z</time></trkpt><trkpt lat="45.86554689972152" lon="9.946410881076119"><ele>1023.0</ele><time>2026-04-26T11:45:42.999Z</time></trkpt><trkpt lat="45.865465296343274" lon="9.9465322685733"><ele>1023.0</ele><time>2026-04-26T11:45:43.999Z</time></trkpt><trkpt lat="45.865398815077796" lon="9.946638840853415"><ele>1023.0</ele><time>2026-04-26T11:45:44.999Z</time></trkpt><trkpt lat="45.86530326130953" lon="9.946780957657964"><ele>1023.0</ele><time>2026-04-26T11:45:45.999Z</time></trkpt><trkpt lat="45.865225584433674" lon="9.946905370614639"><ele>1022.2</ele><time>2026-04-26T11:45:46.999Z</time></trkpt><trkpt lat="45.86515450689658" lon="9.947020438098946"><ele>1021.4</ele><time>2026-04-26T11:45:47.999Z</time></trkpt><trkpt lat="45.8650863415368" lon="9.947126006956276"><ele>1020.6000000000001</ele><time>2026-04-26T11:45:48.999Z</time></trkpt><trkpt lat="45.8650634623254" lon="9.947284478383615"><ele>1019.8000000000001</ele><time>2026-04-26T11:45:49.999Z</time></trkpt><trkpt lat="45.865029543705035" lon="9.947428404936892"><ele>1019.0</ele><time>2026-04-26T11:45:50.999Z</time></trkpt><trkpt lat="45.86501744520915" lon="9.947572102193295"><ele>1024.0</ele><time>2026-04-26T11:45:51.999Z</time></trkpt><trkpt lat="45.86497360543709" lon="9.947641176765204"><ele>1029.0</ele><time>2026-04-26T11:45:52.999Z</time></trkpt><trkpt lat="45.864929625131005" lon="9.94774147177548"><ele>1034.0</ele><time>2026-04-26T11:46:13.999Z</time></trkpt><trkpt lat="45.86484566399582" lon="9.947843634683924"><ele>1039.0</ele><time>2026-04-26T11:46:15.999Z</time></trkpt><trkpt lat="45.864795004839706" lon="9.947915555017023"><ele>1044.0</ele><time>2026-04-26T11:46:16.999Z</time></trkpt><trkpt lat="45.864747838864126" lon="9.947980889436518"><ele>1049.0</ele><time>2026-04-26T11:46:17.999Z</time></trkpt><trkpt lat="45.86470549619821" lon="9.948076584343733"><ele>1049.0</ele><time>2026-04-26T11:46:18.999Z</time></trkpt><trkpt lat="45.864654494242565" lon="9.948198479183759"><ele>1049.0</ele><time>2026-04-26T11:46:19.999Z</time></trkpt><trkpt lat="45.86461931470608" lon="9.948291343850864"><ele>1049.0</ele><time>2026-04-26T11:46:20.999Z</time></trkpt><trkpt lat="45.8645743910041" lon="9.948385650117157"><ele>1049.0</ele><time>2026-04-26T11:46:21.999Z</time></trkpt><trkpt lat="45.864504914754654" lon="9.948455662897064"><ele>1049.0</ele><time>2026-04-26T11:46:23.999Z</time></trkpt><trkpt lat="45.864405112092776" lon="9.948514928247532"><ele>1049.0</ele><time>2026-04-26T11:46:25.999Z</time></trkpt><trkpt lat="45.864316992805456" lon="9.948536013080803"><ele>1053.5</ele><time>2026-04-26T11:46:27.999Z</time></trkpt><trkpt lat="45.86419723812728" lon="9.948343837796008"><ele>1058.0</ele><time>2026-04-26T11:46:29.999Z</time></trkpt><trkpt lat="45.86409862342097" lon="9.948323485916264"><ele>1062.5</ele><time>2026-04-26T11:46:30.999Z</time></trkpt><trkpt lat="45.86397994460142" lon="9.948264726891937"><ele>1067.0</ele><time>2026-04-26T11:46:31.999Z</time></trkpt><trkpt lat="45.86387692234302" lon="9.948203414526336"><ele>1067.0</ele><time>2026-04-26T11:46:32.999Z</time></trkpt><trkpt lat="45.86375781791844" lon="9.948465857991684"><ele>1067.0</ele><time>2026-04-26T11:46:33.998Z</time></trkpt><trkpt lat="45.86364438268039" lon="9.948432892166972"><ele>1067.0</ele><time>2026-04-26T11:46:36Z</time></trkpt><trkpt lat="45.863573726223976" lon="9.948415271604512"><ele>1067.0</ele><time>2026-04-26T11:46:37Z</time></trkpt><trkpt lat="45.86349386623605" lon="9.948403868204796"><ele>1071.2</ele><time>2026-04-26T11:46:38Z</time></trkpt><trkpt lat="45.86342965198864" lon="9.948404391488554"><ele>1075.4</ele><time>2026-04-26T11:46:39Z</time></trkpt><trkpt lat="45.86335478878833" lon="9.948413981582588"><ele>1079.6</ele><time>2026-04-26T11:46:40Z</time></trkpt><trkpt lat="45.863253492201736" lon="9.948412363964776"><ele>1083.8</ele><time>2026-04-26T11:46:41Z</time></trkpt><trkpt lat="45.86315623738184" lon="9.948397153392815"><ele>1088.0</ele><time>2026-04-26T11:46:42Z</time></trkpt><trkpt lat="45.86304411384769" lon="9.948360153984511"><ele>1088.0</ele><time>2026-04-26T11:46:43Z</time></trkpt><trkpt lat="45.862941666086186" lon="9.948314757472888"><ele>1088.0</ele><time>2026-04-26T11:46:44Z</time></trkpt><trkpt lat="45.86279754842879" lon="9.948253448852727"><ele>1088.0</ele><time>2026-04-26T11:46:46Z</time></trkpt><trkpt lat="45.86273015305146" lon="9.948232881423483"><ele>1088.0</ele><time>2026-04-26T11:46:47Z</time></trkpt><trkpt lat="45.862620006561094" lon="9.948208291211143"><ele>1088.0</ele><time>2026-04-26T11:46:49Z</time></trkpt><trkpt lat="45.862532913829696" lon="9.94817933321634"><ele>1091.6</ele><time>2026-04-26T11:46:50Z</time></trkpt><trkpt lat="45.86244305619049" lon="9.948163032045613"><ele>1095.1999999999998</ele><time>2026-04-26T11:46:51Z</time></trkpt><trkpt lat="45.86235213908477" lon="9.94816093817073"><ele>1098.8</ele><time>2026-04-26T11:46:52Z</time></trkpt><trkpt lat="45.8622624360593" lon="9.948112385057607"><ele>1102.3999999999999</ele><time>2026-04-26T11:46:54Z</time></trkpt><trkpt lat="45.86221176544373" lon="9.947941115865891"><ele>1106.0</ele><time>2026-04-26T11:46:56Z</time></trkpt><trkpt lat="45.86214250210219" lon="9.947846174430627"><ele>1106.0</ele><time>2026-04-26T11:46:57Z</time></trkpt><trkpt lat="45.86207564538777" lon="9.947794162697173"><ele>1106.0</ele><time>2026-04-26T11:46:58Z</time></trkpt><trkpt lat="45.861937095268345" lon="9.947806119415157"><ele>1106.0</ele><time>2026-04-26T11:47:00Z</time></trkpt><trkpt lat="45.8618708684579" lon="9.947748901161335"><ele>1106.0</ele><time>2026-04-26T11:47:02Z</time></trkpt><trkpt lat="45.86182643591199" lon="9.947677142566338"><ele>1106.0</ele><time>2026-04-26T11:47:03Z</time></trkpt><trkpt lat="45.86182085540774" lon="9.947506941597704"><ele>1106.2</ele><time>2026-04-26T11:47:05Z</time></trkpt><trkpt lat="45.86180917421215" lon="9.947372902712896"><ele>1106.3999999999999</ele><time>2026-04-26T11:47:06Z</time></trkpt><trkpt lat="45.86175060481681" lon="9.94726336022339"><ele>1106.6</ele><time>2026-04-26T11:47:07Z</time></trkpt><trkpt lat="45.86167053202703" lon="9.947168574520225"><ele>1106.8</ele><time>2026-04-26T11:47:08Z</time></trkpt><trkpt lat="45.86159639811039" lon="9.947069060451232"><ele>1107.0</ele><time>2026-04-26T11:47:09Z</time></trkpt><trkpt lat="45.861556911943566" lon="9.946988053142338"><ele>1110.0</ele><time>2026-04-26T11:47:10Z</time></trkpt><trkpt lat="45.861497617971885" lon="9.946949446279241"><ele>1113.0</ele><time>2026-04-26T11:47:11Z</time></trkpt><trkpt lat="45.86138823963449" lon="9.946925932041678"><ele>1116.0</ele><time>2026-04-26T11:47:12Z</time></trkpt><trkpt lat="45.861275499583044" lon="9.94688049633627"><ele>1119.0</ele><time>2026-04-26T11:47:13Z</time></trkpt><trkpt lat="45.86119127598754" lon="9.946824221793786"><ele>1122.0</ele><time>2026-04-26T11:47:14Z</time></trkpt><trkpt lat="45.86109242309297" lon="9.946776561194453"><ele>1122.0</ele><time>2026-04-26T11:47:15Z</time></trkpt><trkpt lat="45.861004561845945" lon="9.946747069350035"><ele>1122.0</ele><time>2026-04-26T11:47:16Z</time></trkpt><trkpt lat="45.86093584527011" lon="9.946730847449276"><ele>1122.0</ele><time>2026-04-26T11:47:17Z</time></trkpt><trkpt lat="45.86085374168032" lon="9.9467094909862"><ele>1122.0</ele><time>2026-04-26T11:47:18Z</time></trkpt><trkpt lat="45.86078258448867" lon="9.946691594047651"><ele>1122.0</ele><time>2026-04-26T11:47:19Z</time></trkpt><trkpt lat="45.86066784831392" lon="9.946693581224338"><ele>1122.0</ele><time>2026-04-26T11:47:21Z</time></trkpt><trkpt lat="45.86057402580427" lon="9.946733861437767"><ele>1124.4</ele><time>2026-04-26T11:47:22Z</time></trkpt><trkpt lat="45.86050371911641" lon="9.946740079526244"><ele>1126.8000000000002</ele><time>2026-04-26T11:47:22.999Z</time></trkpt><trkpt lat="45.86040360423376" lon="9.94672673569657"><ele>1129.2</ele><time>2026-04-26T11:47:23.999Z</time></trkpt><trkpt lat="45.86027584071486" lon="9.946728234249903"><ele>1131.6000000000001</ele><time>2026-04-26T11:47:24.999Z</time></trkpt><trkpt lat="45.86015091368347" lon="9.946740850469608"><ele>1134.0</ele><time>2026-04-26T11:47:25.999Z</time></trkpt><trkpt lat="45.860075059018975" lon="9.946748376342104"><ele>1134.6000000000001</ele><time>2026-04-26T11:47:26.999Z</time></trkpt><trkpt lat="45.85998925368139" lon="9.946754536247312"><ele>1135.2</ele><time>2026-04-26T11:47:27.999Z</time></trkpt><trkpt lat="45.859909013163765" lon="9.946757886658132"><ele>1135.8000000000002</ele><time>2026-04-26T11:47:28.999Z</time></trkpt><trkpt lat="45.85982573106583" lon="9.946753251131023"><ele>1136.4</ele><time>2026-04-26T11:47:29.999Z</time></trkpt><trkpt lat="45.85972297610228" lon="9.946797205585895"><ele>1137.0</ele><time>2026-04-26T11:47:30.999Z</time></trkpt><trkpt lat="45.859616793109076" lon="9.946834045124646"><ele>1137.0</ele><time>2026-04-26T11:47:31.999Z</time></trkpt><trkpt lat="45.85949678009043" lon="9.946872969400061"><ele>1137.0</ele><time>2026-04-26T11:47:33.999Z</time></trkpt><trkpt lat="45.859417620882404" lon="9.946894235230861"><ele>1137.0</ele><time>2026-04-26T11:47:34.999Z</time></trkpt><trkpt lat="45.85934456101089" lon="9.946921631074103"><ele>1137.0</ele><time>2026-04-26T11:47:35.999Z</time></trkpt><trkpt lat="45.85927286416124" lon="9.94699367298005"><ele>1137.0</ele><time>2026-04-26T11:47:36.999Z</time></trkpt><trkpt lat="45.859216477389914" lon="9.947105916877149"><ele>1136.2</ele><time>2026-04-26T11:47:37.999Z</time></trkpt><trkpt lat="45.859147883988626" lon="9.947206798764077"><ele>1135.4</ele><time>2026-04-26T11:47:38.999Z</time></trkpt><trkpt lat="45.85907082759687" lon="9.947298697505738"><ele>1134.6</ele><time>2026-04-26T11:47:39.999Z</time></trkpt><trkpt lat="45.85901005173479" lon="9.94736763654314"><ele>1133.8</ele><time>2026-04-26T11:47:40.999Z</time></trkpt><trkpt lat="45.85896348000221" lon="9.947446165729234"><ele>1133.0</ele><time>2026-04-26T11:47:41.999Z</time></trkpt><trkpt lat="45.85886417795657" lon="9.94751902379638"><ele>1133.0</ele><time>2026-04-26T11:47:43.999Z</time></trkpt><trkpt lat="45.85877655175076" lon="9.94752482772436"><ele>1133.0</ele><time>2026-04-26T11:47:44.999Z</time></trkpt><trkpt lat="45.85870219955148" lon="9.947529372464055"><ele>1133.0</ele><time>2026-04-26T11:47:45.999Z</time></trkpt><trkpt lat="45.85863165770113" lon="9.947558336259881"><ele>1133.0</ele><time>2026-04-26T11:47:46.999Z</time></trkpt><trkpt lat="45.85853486608134" lon="9.947597517833525"><ele>1133.0</ele><time>2026-04-26T11:47:47.999Z</time></trkpt><trkpt lat="45.85843301396159" lon="9.947634922044077"><ele>1133.0</ele><time>2026-04-26T11:47:48.999Z</time></trkpt><trkpt lat="45.858347025457505" lon="9.947665175859898"><ele>1132.4</ele><time>2026-04-26T11:47:49.999Z</time></trkpt><trkpt lat="45.858243445039385" lon="9.94770200230071"><ele>1131.8</ele><time>2026-04-26T11:47:50.999Z</time></trkpt><trkpt lat="45.85814423078585" lon="9.947741584803682"><ele>1131.2</ele><time>2026-04-26T11:47:51.999Z</time></trkpt><trkpt lat="45.858051374095695" lon="9.947778824272413"><ele>1130.6</ele><time>2026-04-26T11:47:52.999Z</time></trkpt><trkpt lat="45.85794563418648" lon="9.947821325232002"><ele>1130.0</ele><time>2026-04-26T11:47:53.999Z</time></trkpt><trkpt lat="45.85786775413863" lon="9.947850814064624"><ele>1130.0</ele><time>2026-04-26T11:47:54.999Z</time></trkpt><trkpt lat="45.857779387342305" lon="9.947889152479815"><ele>1130.0</ele><time>2026-04-26T11:47:55.999Z</time></trkpt><trkpt lat="45.85769106448159" lon="9.947913638981975"><ele>1130.0</ele><time>2026-04-26T11:47:56.999Z</time></trkpt><trkpt lat="45.857570477884934" lon="9.947910896215438"><ele>1130.0</ele><time>2026-04-26T11:47:58.999Z</time></trkpt><trkpt lat="45.857480276323216" lon="9.947837501389687"><ele>1130.0</ele><time>2026-04-26T11:47:59.999Z</time></trkpt><trkpt lat="45.85740368817268" lon="9.94784249084055"><ele>1131.8</ele><time>2026-04-26T11:48:00.999Z</time></trkpt><trkpt lat="45.85730390670126" lon="9.947875595766073"><ele>1133.6</ele><time>2026-04-26T11:48:01.999Z</time></trkpt><trkpt lat="45.857204945971255" lon="9.947915272189107"><ele>1135.4</ele><time>2026-04-26T11:48:02.999Z</time></trkpt><trkpt lat="45.857105586708826" lon="9.947950877125574"><ele>1137.2</ele><time>2026-04-26T11:48:03.999Z</time></trkpt><trkpt lat="45.85700198257407" lon="9.947978125556107"><ele>1139.0</ele><time>2026-04-26T11:48:04.999Z</time></trkpt><trkpt lat="45.85691200268674" lon="9.94799910782057"><ele>1139.0</ele><time>2026-04-26T11:48:05.999Z</time></trkpt><trkpt lat="45.85682306977106" lon="9.948021913012814"><ele>1139.0</ele><time>2026-04-26T11:48:06.999Z</time></trkpt><trkpt lat="45.85673225240428" lon="9.948049583592507"><ele>1139.0</ele><time>2026-04-26T11:48:07.999Z</time></trkpt><trkpt lat="45.85664704751865" lon="9.948095051548734"><ele>1139.0</ele><time>2026-04-26T11:48:08.999Z</time></trkpt><trkpt lat="45.856561267657" lon="9.948151566124585"><ele>1139.0</ele><time>2026-04-26T11:48:09.999Z</time></trkpt><trkpt lat="45.856458678440305" lon="9.948224227303456"><ele>1138.2</ele><time>2026-04-26T11:48:10.999Z</time></trkpt><trkpt lat="45.85635963320265" lon="9.948301431060472"><ele>1137.4</ele><time>2026-04-26T11:48:11.999Z</time></trkpt><trkpt lat="45.85626411039835" lon="9.948371972237684"><ele>1136.6</ele><time>2026-04-26T11:48:12.999Z</time></trkpt><trkpt lat="45.85617449694531" lon="9.948437841637151"><ele>1135.8</ele><time>2026-04-26T11:48:13.999Z</time></trkpt><trkpt lat="45.856090299475845" lon="9.948495320399207"><ele>1135.0</ele><time>2026-04-26T11:48:14.999Z</time></trkpt><trkpt lat="45.85601163886326" lon="9.948536298669184"><ele>1134.8</ele><time>2026-04-26T11:48:15.999Z</time></trkpt><trkpt lat="45.85591692726053" lon="9.948564148449769"><ele>1134.6</ele><time>2026-04-26T11:48:16.999Z</time></trkpt><trkpt lat="45.85581705231128" lon="9.948560208670392"><ele>1134.4</ele><time>2026-04-26T11:48:17.999Z</time></trkpt><trkpt lat="45.855713782788015" lon="9.94856232077422"><ele>1134.2</ele><time>2026-04-26T11:48:18.999Z</time></trkpt><trkpt lat="45.85560052692543" lon="9.948567598572366"><ele>1134.0</ele><time>2026-04-26T11:48:19.999Z</time></trkpt><trkpt lat="45.8554929265004" lon="9.948559563244508"><ele>1134.0</ele><time>2026-04-26T11:48:20.999Z</time></trkpt><trkpt lat="45.855384469583704" lon="9.948554388765013"><ele>1134.0</ele><time>2026-04-26T11:48:21.999Z</time></trkpt><trkpt lat="45.855285832025174" lon="9.948562862564515"><ele>1134.0</ele><time>2026-04-26T11:48:22.999Z</time></trkpt><trkpt lat="45.85519450511255" lon="9.948582519007578"><ele>1134.0</ele><time>2026-04-26T11:48:23.999Z</time></trkpt><trkpt lat="45.8550979066102" lon="9.948589100073672"><ele>1134.0</ele><time>2026-04-26T11:48:24.999Z</time></trkpt><trkpt lat="45.85500180348301" lon="9.948608985590068"><ele>1135.1666666666667</ele><time>2026-04-26T11:48:25.999Z</time></trkpt><trkpt lat="45.8549077187881" lon="9.948644747944584"><ele>1136.3333333333333</ele><time>2026-04-26T11:48:26.999Z</time></trkpt><trkpt lat="45.85482732218113" lon="9.948666847579913"><ele>1137.5</ele><time>2026-04-26T11:48:27.999Z</time></trkpt><trkpt lat="45.85473943916946" lon="9.948691772322624"><ele>1138.6666666666665</ele><time>2026-04-26T11:48:28.999Z</time></trkpt><trkpt lat="45.85465331007349" lon="9.94873780818694"><ele>1139.8333333333333</ele><time>2026-04-26T11:48:29.999Z</time></trkpt><trkpt lat="45.85458070419953" lon="9.948796868201873"><ele>1141.0</ele><time>2026-04-26T11:48:30.998Z</time></trkpt><trkpt lat="45.854510390555944" lon="9.948849515681689"><ele>1141.0</ele><time>2026-04-26T11:48:31.998Z</time></trkpt><trkpt lat="45.854441896769856" lon="9.948890995724465"><ele>1141.0</ele><time>2026-04-26T11:48:32.998Z</time></trkpt><trkpt lat="45.854368978894186" lon="9.948939990009467"><ele>1141.0</ele><time>2026-04-26T11:48:33.998Z</time></trkpt><trkpt lat="45.854302659127136" lon="9.949004519850462"><ele>1141.0</ele><time>2026-04-26T11:48:34.998Z</time></trkpt><trkpt lat="45.854254537728" lon="9.949072847380865"><ele>1141.0</ele><time>2026-04-26T11:48:35.998Z</time></trkpt><trkpt lat="45.85420567364092" lon="9.949136716799595"><ele>1141.0</ele><time>2026-04-26T11:48:36.998Z</time></trkpt><trkpt lat="45.85413900765999" lon="9.949194305832307"><ele>1141.0</ele><time>2026-04-26T11:48:37.998Z</time></trkpt><trkpt lat="45.85405677389033" lon="9.949224685230028"><ele>1144.0</ele><time>2026-04-26T11:48:38.998Z</time></trkpt><trkpt lat="45.853988498701675" lon="9.949237064020465"><ele>1147.0</ele><time>2026-04-26T11:48:39.998Z</time></trkpt><trkpt lat="45.85391251207004" lon="9.949193759712013"><ele>1150.0</ele><time>2026-04-26T11:48:41Z</time></trkpt><trkpt lat="45.85383503411046" lon="9.949197633542193"><ele>1153.0</ele><time>2026-04-26T11:48:42Z</time></trkpt><trkpt lat="45.85376802846123" lon="9.949220803727702"><ele>1156.0</ele><time>2026-04-26T11:48:43Z</time></trkpt><trkpt lat="45.85367711650782" lon="9.949325182431954"><ele>1159.0</ele><time>2026-04-26T11:48:45Z</time></trkpt><trkpt lat="45.85358715562411" lon="9.949378282959142"><ele>1159.0</ele><time>2026-04-26T11:48:46Z</time></trkpt><trkpt lat="45.85352512792638" lon="9.949426923398569"><ele>1159.0</ele><time>2026-04-26T11:48:47Z</time></trkpt><trkpt lat="45.853448545998674" lon="9.94949087945538"><ele>1159.0</ele><time>2026-04-26T11:48:48Z</time></trkpt><trkpt lat="45.853372613926716" lon="9.949516354197568"><ele>1159.0</ele><time>2026-04-26T11:48:49Z</time></trkpt><trkpt lat="45.85323258156175" lon="9.949536549918998"><ele>1159.0</ele><time>2026-04-26T11:48:51Z</time></trkpt><trkpt lat="45.85316363056847" lon="9.949572491666807"><ele>1161.4</ele><time>2026-04-26T11:48:52Z</time></trkpt><trkpt lat="45.853114118934506" lon="9.94978161279827"><ele>1163.8000000000002</ele><time>2026-04-26T11:48:53Z</time></trkpt><trkpt lat="45.85304580243813" lon="9.949858879134137"><ele>1166.1999999999998</ele><time>2026-04-26T11:48:54Z</time></trkpt><trkpt lat="45.85297388236484" lon="9.949934679760785"><ele>1168.6</ele><time>2026-04-26T11:48:55Z</time></trkpt><trkpt lat="45.852916195165946" lon="9.950013153412966"><ele>1171.0</ele><time>2026-04-26T11:48:56Z</time></trkpt><trkpt lat="45.852860118790524" lon="9.95009057666818"><ele>1171.0</ele><time>2026-04-26T11:48:57Z</time></trkpt><trkpt lat="45.85282203730858" lon="9.950167460246668"><ele>1171.0</ele><time>2026-04-26T11:48:58Z</time></trkpt><trkpt lat="45.852774939172086" lon="9.950371693681188"><ele>1171.0</ele><time>2026-04-26T11:49:00Z</time></trkpt><trkpt lat="45.85274730136774" lon="9.950495084055822"><ele>1171.0</ele><time>2026-04-26T11:49:01Z</time></trkpt><trkpt lat="45.85270859580448" lon="9.950607735586164"><ele>1171.0</ele><time>2026-04-26T11:49:02Z</time></trkpt><trkpt lat="45.85266152690164" lon="9.95070957150669"><ele>1176.3333333333333</ele><time>2026-04-26T11:49:03Z</time></trkpt><trkpt lat="45.85261874401686" lon="9.950802782789028"><ele>1181.6666666666665</ele><time>2026-04-26T11:49:04Z</time></trkpt><trkpt lat="45.85257753610535" lon="9.950899388344117"><ele>1187.0</ele><time>2026-04-26T11:49:05Z</time></trkpt><trkpt lat="45.852527505160566" lon="9.951000408356423"><ele>1192.3333333333333</ele><time>2026-04-26T11:49:06Z</time></trkpt><trkpt lat="45.85247272331563" lon="9.95110579057866"><ele>1197.6666666666667</ele><time>2026-04-26T11:49:07Z</time></trkpt><trkpt lat="45.85241104632924" lon="9.95121265012643"><ele>1203.0</ele><time>2026-04-26T11:49:08Z</time></trkpt><trkpt lat="45.852367736613424" lon="9.951290321539043"><ele>1203.0</ele><time>2026-04-26T11:49:09Z</time></trkpt><trkpt lat="45.852295509017786" lon="9.951313974999856"><ele>1203.0</ele><time>2026-04-26T11:49:13Z</time></trkpt><trkpt lat="45.85229173560007" lon="9.951223064764372"><ele>1203.0</ele><time>2026-04-26T11:49:15Z</time></trkpt><trkpt lat="45.85229574293519" lon="9.951124225608977"><ele>1203.0</ele><time>2026-04-26T11:49:17Z</time></trkpt><trkpt lat="45.85225832013141" lon="9.950879862736514"><ele>1203.0</ele><time>2026-04-26T11:49:18Z</time></trkpt><trkpt lat="45.85224059356077" lon="9.950766807019741"><ele>1203.6666666666667</ele><time>2026-04-26T11:49:19Z</time></trkpt><trkpt lat="45.8522276504335" lon="9.950659254265785"><ele>1204.3333333333333</ele><time>2026-04-26T11:49:20Z</time></trkpt><trkpt lat="45.85221913672888" lon="9.950557878558323"><ele>1205.0</ele><time>2026-04-26T11:49:21Z</time></trkpt><trkpt lat="45.85222029576071" lon="9.950460085140234"><ele>1205.6666666666665</ele><time>2026-04-26T11:49:22Z</time></trkpt><trkpt lat="45.85217116611574" lon="9.950335348517834"><ele>1206.3333333333333</ele><time>2026-04-26T11:49:24Z</time></trkpt><trkpt lat="45.85210256252315" lon="9.950214894954506"><ele>1207.0</ele><time>2026-04-26T11:49:25Z</time></trkpt><trkpt lat="45.85205889766622" lon="9.950140396462675"><ele>1207.0</ele><time>2026-04-26T11:49:26Z</time></trkpt><trkpt lat="45.852005655971595" lon="9.950073641940712"><ele>1207.0</ele><time>2026-04-26T11:49:27Z</time></trkpt><trkpt lat="45.851945454725545" lon="9.949999773633017"><ele>1207.0</ele><time>2026-04-26T11:49:28Z</time></trkpt><trkpt lat="45.851891595483146" lon="9.949916093898553"><ele>1207.0</ele><time>2026-04-26T11:49:29Z</time></trkpt><trkpt lat="45.85184555950641" lon="9.94983917189528"><ele>1207.0</ele><time>2026-04-26T11:49:29.999Z</time></trkpt><trkpt lat="45.85179200109946" lon="9.949753095148862"><ele>1207.0</ele><time>2026-04-26T11:49:30.999Z</time></trkpt><trkpt lat="45.8517329494016" lon="9.949584355338228"><ele>1213.6666666666665</ele><time>2026-04-26T11:49:32.999Z</time></trkpt><trkpt lat="45.85174997018799" lon="9.949477995210385"><ele>1220.3333333333333</ele><time>2026-04-26T11:49:34.999Z</time></trkpt><trkpt lat="45.85169938890775" lon="9.949357416893367"><ele>1227.0</ele><time>2026-04-26T11:49:36.999Z</time></trkpt><trkpt lat="45.85160891911044" lon="9.949293767505699"><ele>1233.6666666666667</ele><time>2026-04-26T11:49:38.999Z</time></trkpt><trkpt lat="45.85154371752895" lon="9.949309990720197"><ele>1240.3333333333335</ele><time>2026-04-26T11:49:39.999Z</time></trkpt><trkpt lat="45.85144124122554" lon="9.949294733050097"><ele>1247.0</ele><time>2026-04-26T11:49:41.999Z</time></trkpt><trkpt lat="45.851366885159834" lon="9.949369834769001"><ele>1247.0</ele><time>2026-04-26T11:49:43.999Z</time></trkpt><trkpt lat="45.851337071863256" lon="9.94949620379769"><ele>1247.0</ele><time>2026-04-26T11:49:45.999Z</time></trkpt><trkpt lat="45.851378210031164" lon="9.949588665909298"><ele>1247.0</ele><time>2026-04-26T11:49:51.999Z</time></trkpt><trkpt lat="45.851402128298126" lon="9.949719779865227"><ele>1247.0</ele><time>2026-04-26T11:49:53.999Z</time></trkpt><trkpt lat="45.851394275716785" lon="9.949821936212528"><ele>1247.0</ele><time>2026-04-26T11:49:54.999Z</time></trkpt><trkpt lat="45.85132852866218" lon="9.949964306690308"><ele>1248.75</ele><time>2026-04-26T11:49:56.999Z</time></trkpt><trkpt lat="45.851329403936504" lon="9.95031570641784"><ele>1250.5</ele><time>2026-04-26T11:49:59.999Z</time></trkpt><trkpt lat="45.85131291104937" lon="9.950459467705572"><ele>1252.25</ele><time>2026-04-26T11:50:01.999Z</time></trkpt><trkpt lat="45.851258383144895" lon="9.95057317853211"><ele>1254.0</ele><time>2026-04-26T11:50:03.999Z</time></trkpt><trkpt lat="45.85122762345238" lon="9.950723915834644"><ele>1254.0</ele><time>2026-04-26T11:50:05.999Z</time></trkpt><trkpt lat="45.85118092023545" lon="9.95079244390124"><ele>1254.0</ele><time>2026-04-26T11:50:06.999Z</time></trkpt><trkpt lat="45.85117716899465" lon="9.950913542816108"><ele>1254.0</ele><time>2026-04-26T11:50:08.999Z</time></trkpt><trkpt lat="45.8511014454212" lon="9.950940696686239"><ele>1254.0</ele><time>2026-04-26T11:50:10.999Z</time></trkpt><trkpt lat="45.85107056403076" lon="9.950843788835835"><ele>1254.0</ele><time>2026-04-26T11:50:12.999Z</time></trkpt><trkpt lat="45.8510094177727" lon="9.950735199558112"><ele>1254.0</ele><time>2026-04-26T11:50:14.999Z</time></trkpt><trkpt lat="45.85098435404285" lon="9.95085336298392"><ele>1258.1666666666667</ele><time>2026-04-26T11:50:16.999Z</time></trkpt><trkpt lat="45.85091111558805" lon="9.950957621654574"><ele>1262.3333333333333</ele><time>2026-04-26T11:50:19.999Z</time></trkpt><trkpt lat="45.85083398991592" lon="9.950999802260723"><ele>1266.5</ele><time>2026-04-26T11:50:21.999Z</time></trkpt><trkpt lat="45.850793058330986" lon="9.950910714549059"><ele>1270.6666666666665</ele><time>2026-04-26T11:50:24.999Z</time></trkpt><trkpt lat="45.85076573929598" lon="9.9508049395891"><ele>1274.8333333333333</ele><time>2026-04-26T11:50:27.999Z</time></trkpt><trkpt lat="45.85068838142181" lon="9.95076488583312"><ele>1279.0</ele><time>2026-04-26T11:50:29.999Z</time></trkpt><trkpt lat="45.850619750459146" lon="9.950624197999202"><ele>1280.6</ele><time>2026-04-26T11:50:31.999Z</time></trkpt><trkpt lat="45.85051561964602" lon="9.950511763602245"><ele>1282.2</ele><time>2026-04-26T11:50:32.999Z</time></trkpt><trkpt lat="45.850478812497805" lon="9.950394622302838"><ele>1283.8</ele><time>2026-04-26T11:50:34.999Z</time></trkpt><trkpt lat="45.85038044304158" lon="9.95029526743062"><ele>1285.3999999999999</ele><time>2026-04-26T11:50:36.999Z</time></trkpt><trkpt lat="45.85034631190247" lon="9.950199028367551"><ele>1287.0</ele><time>2026-04-26T11:50:37.999Z</time></trkpt><trkpt lat="45.850296900100304" lon="9.950096046990254"><ele>1287.0</ele><time>2026-04-26T11:50:39.998Z</time></trkpt><trkpt lat="45.85020909033398" lon="9.950113737941175"><ele>1287.0</ele><time>2026-04-26T11:50:41.998Z</time></trkpt><trkpt lat="45.85013293728688" lon="9.950085325928342"><ele>1287.0</ele><time>2026-04-26T11:50:42.998Z</time></trkpt><trkpt lat="45.85005597574475" lon="9.949998769488458"><ele>1287.0</ele><time>2026-04-26T11:50:43.998Z</time></trkpt><trkpt lat="45.84997268455981" lon="9.949920985351463"><ele>1287.0</ele><time>2026-04-26T11:50:45.998Z</time></trkpt><trkpt lat="45.8498942274921" lon="9.949903772705584"><ele>1287.0</ele><time>2026-04-26T11:50:47Z</time></trkpt><trkpt lat="45.84980415635031" lon="9.949845388567388"><ele>1290.5</ele><time>2026-04-26T11:50:48Z</time></trkpt><trkpt lat="45.84972353930169" lon="9.949811665927687"><ele>1294.0</ele><time>2026-04-26T11:50:49Z</time></trkpt><trkpt lat="45.84964407433962" lon="9.949775072006132"><ele>1297.5</ele><time>2026-04-26T11:50:50Z</time></trkpt><trkpt lat="45.849576533927944" lon="9.94973182927398"><ele>1301.0</ele><time>2026-04-26T11:50:51Z</time></trkpt><trkpt lat="45.84950318096587" lon="9.949700717580503"><ele>1304.5</ele><time>2026-04-26T11:50:52Z</time></trkpt><trkpt lat="45.84945001014427" lon="9.94961669356762"><ele>1308.0</ele><time>2026-04-26T11:50:53Z</time></trkpt><trkpt lat="45.849384651696965" lon="9.949557064721043"><ele>1308.0</ele><time>2026-04-26T11:50:54Z</time></trkpt><trkpt lat="45.84931711942998" lon="9.949507370437953"><ele>1308.0</ele><time>2026-04-26T11:50:55Z</time></trkpt><trkpt lat="45.849259007403795" lon="9.949427924260632"><ele>1308.0</ele><time>2026-04-26T11:50:56Z</time></trkpt><trkpt lat="45.84920075010157" lon="9.949368467706387"><ele>1308.0</ele><time>2026-04-26T11:50:57Z</time></trkpt><trkpt lat="45.849148520385626" lon="9.949317779977466"><ele>1308.0</ele><time>2026-04-26T11:50:58Z</time></trkpt><trkpt lat="45.84910391849939" lon="9.94925126842083"><ele>1308.0</ele><time>2026-04-26T11:50:59Z</time></trkpt><trkpt lat="45.84907397050573" lon="9.949164681461118"><ele>1308.0</ele><time>2026-04-26T11:51:00Z</time></trkpt><trkpt lat="45.849076752630374" lon="9.949067085882417"><ele>1310.6000000000001</ele><time>2026-04-26T11:51:01Z</time></trkpt><trkpt lat="45.849076635341085" lon="9.948907685961721"><ele>1313.2</ele><time>2026-04-26T11:51:03Z</time></trkpt><trkpt lat="45.84912122484816" lon="9.9487389830496"><ele>1315.8</ele><time>2026-04-26T11:51:05Z</time></trkpt><trkpt lat="45.84916761633218" lon="9.948621034791667"><ele>1318.4</ele><time>2026-04-26T11:51:07Z</time></trkpt><trkpt lat="45.84911384857073" lon="9.948519076528392"><ele>1321.0</ele><time>2026-04-26T11:51:09Z</time></trkpt><trkpt lat="45.84905293894872" lon="9.948454489803906"><ele>1319.5</ele><time>2026-04-26T11:51:10Z</time></trkpt><trkpt lat="45.849010005515105" lon="9.948372645734086"><ele>1318.0</ele><time>2026-04-26T11:51:11Z</time></trkpt><trkpt lat="45.84896989513822" lon="9.948280803952704"><ele>1316.5</ele><time>2026-04-26T11:51:12Z</time></trkpt><trkpt lat="45.848925240004505" lon="9.9481702151916"><ele>1315.0</ele><time>2026-04-26T11:51:13Z</time></trkpt><trkpt lat="45.848885636379194" lon="9.948090152573677"><ele>1313.5</ele><time>2026-04-26T11:51:14Z</time></trkpt><trkpt lat="45.84884812780017" lon="9.948003414550296"><ele>1312.0</ele><time>2026-04-26T11:51:15Z</time></trkpt><trkpt lat="45.848827491622714" lon="9.947857444631921"><ele>1312.0</ele><time>2026-04-26T11:51:17Z</time></trkpt><trkpt lat="45.84878387179278" lon="9.947725671143608"><ele>1312.0</ele><time>2026-04-26T11:51:19Z</time></trkpt><trkpt lat="45.84875565930272" lon="9.947576552962346"><ele>1312.0</ele><time>2026-04-26T11:51:21Z</time></trkpt><trkpt lat="45.84870422860025" lon="9.947510020932212"><ele>1312.0</ele><time>2026-04-26T11:51:22Z</time></trkpt><trkpt lat="45.84864134735774" lon="9.947444065507435"><ele>1312.0</ele><time>2026-04-26T11:51:23Z</time></trkpt><trkpt lat="45.84857228037186" lon="9.947287782894843"><ele>1308.6</ele><time>2026-04-26T11:51:25Z</time></trkpt><trkpt lat="45.84853435748946" lon="9.947136515031993"><ele>1305.1999999999998</ele><time>2026-04-26T11:51:27Z</time></trkpt><trkpt lat="45.848481743950344" lon="9.946993499556042"><ele>1301.8</ele><time>2026-04-26T11:51:29Z</time></trkpt><trkpt lat="45.848388840843036" lon="9.946917731795665"><ele>1298.4</ele><time>2026-04-26T11:51:31Z</time></trkpt><trkpt lat="45.848312518677396" lon="9.946870593868082"><ele>1295.0</ele><time>2026-04-26T11:51:31.999Z</time></trkpt><trkpt lat="45.84825061988187" lon="9.946809451545496"><ele>1299.5</ele><time>2026-04-26T11:51:32.999Z</time></trkpt><trkpt lat="45.84815296784169" lon="9.946764243319453"><ele>1304.0</ele><time>2026-04-26T11:51:34.999Z</time></trkpt><trkpt lat="45.84808952774111" lon="9.946719718423596"><ele>1308.5</ele><time>2026-04-26T11:51:35.999Z</time></trkpt><trkpt lat="45.84803253911387" lon="9.946657527939271"><ele>1313.0</ele><time>2026-04-26T11:51:36.999Z</time></trkpt><trkpt lat="45.84796528996223" lon="9.94658536608022"><ele>1317.5</ele><time>2026-04-26T11:51:38.999Z</time></trkpt><trkpt lat="45.84789074172549" lon="9.946585083828513"><ele>1322.0</ele><time>2026-04-26T11:51:41.999Z</time></trkpt><trkpt lat="45.84782266248366" lon="9.946520403484485"><ele>1334.3333333333335</ele><time>2026-04-26T11:51:44.999Z</time></trkpt><trkpt lat="45.847523857823155" lon="9.946301537920082"><ele>1346.6666666666667</ele><time>2026-04-26T11:51:46.999Z</time></trkpt><trkpt lat="45.847490296797254" lon="9.946203246110281"><ele>1359.0</ele><time>2026-04-26T11:51:47.999Z</time></trkpt><trkpt lat="45.84747843223971" lon="9.946014367622066"><ele>1357.8000000000002</ele><time>2026-04-26T11:51:49.999Z</time></trkpt><trkpt lat="45.84754093478021" lon="9.945855852213459"><ele>1356.6000000000001</ele><time>2026-04-26T11:51:51.999Z</time></trkpt><trkpt lat="45.84755657599602" lon="9.945765637636363"><ele>1355.4</ele><time>2026-04-26T11:51:52.999Z</time></trkpt><trkpt lat="45.847572636401964" lon="9.945664298019508"><ele>1354.2</ele><time>2026-04-26T11:51:53.999Z</time></trkpt><trkpt lat="45.847617554939745" lon="9.94556149144391"><ele>1353.0</ele><time>2026-04-26T11:51:54.999Z</time></trkpt><trkpt lat="45.84766738871985" lon="9.945415242306733"><ele>1350.3333333333333</ele><time>2026-04-26T11:51:56.999Z</time></trkpt><trkpt lat="45.847710271398135" lon="9.945335761802028"><ele>1347.6666666666667</ele><time>2026-04-26T11:51:58.999Z</time></trkpt><trkpt lat="45.84776051604515" lon="9.945260804165866"><ele>1345.0</ele><time>2026-04-26T11:52:00.999Z</time></trkpt><trkpt lat="45.84780488740193" lon="9.945137319205982"><ele>1342.3333333333335</ele><time>2026-04-26T11:52:01.999Z</time></trkpt><trkpt lat="45.84787909363196" lon="9.945106860935997"><ele>1339.6666666666667</ele><time>2026-04-26T11:52:03.999Z</time></trkpt><trkpt lat="45.84787626977589" lon="9.944997079572092"><ele>1337.0</ele><time>2026-04-26T11:52:05.999Z</time></trkpt><trkpt lat="45.8479448794721" lon="9.944902622340255"><ele>1337.0</ele><time>2026-04-26T11:52:08.999Z</time></trkpt><trkpt lat="45.848001218981175" lon="9.944837798211953"><ele>1337.0</ele><time>2026-04-26T11:52:10.999Z</time></trkpt><trkpt lat="45.84805318826138" lon="9.944763194298435"><ele>1337.0</ele><time>2026-04-26T11:52:12.999Z</time></trkpt><trkpt lat="45.848218103506085" lon="9.944513144234723"><ele>1337.0</ele><time>2026-04-26T11:52:14.999Z</time></trkpt><trkpt lat="45.84832083322896" lon="9.944444654217255"><ele>1337.0</ele><time>2026-04-26T11:52:16.999Z</time></trkpt><trkpt lat="45.848353407745506" lon="9.944361243776461"><ele>1337.0</ele><time>2026-04-26T11:52:17.999Z</time></trkpt><trkpt lat="45.84839547245714" lon="9.944243071686085"><ele>1337.0</ele><time>2026-04-26T11:52:19.999Z</time></trkpt><trkpt lat="45.84837906134135" lon="9.944095986289756"><ele>1337.0</ele><time>2026-04-26T11:52:21.999Z</time></trkpt><trkpt lat="45.848316507997296" lon="9.943953429232131"><ele>1337.0</ele><time>2026-04-26T11:52:23.999Z</time></trkpt><trkpt lat="45.84826602915994" lon="9.94382381721818"><ele>1340.8</ele><time>2026-04-26T11:52:24.999Z</time></trkpt><trkpt lat="45.84818734311215" lon="9.94368475274596"><ele>1344.6</ele><time>2026-04-26T11:52:26.999Z</time></trkpt><trkpt lat="45.84818256689064" lon="9.943552998391318"><ele>1348.3999999999999</ele><time>2026-04-26T11:52:28.999Z</time></trkpt><trkpt lat="45.84808837596586" lon="9.943497703541682"><ele>1352.1999999999998</ele><time>2026-04-26T11:52:30.999Z</time></trkpt><trkpt lat="45.848005134469275" lon="9.943498907226896"><ele>1356.0</ele><time>2026-04-26T11:52:31.999Z</time></trkpt><trkpt lat="45.84794508564166" lon="9.943460819057497"><ele>1356.0</ele><time>2026-04-26T11:52:32.999Z</time></trkpt><trkpt lat="45.84788059468469" lon="9.943386978240389"><ele>1356.0</ele><time>2026-04-26T11:52:33.999Z</time></trkpt><trkpt lat="45.84780882326987" lon="9.943283948587952"><ele>1356.0</ele><time>2026-04-26T11:52:34.999Z</time></trkpt><trkpt lat="45.84773678981359" lon="9.943202859047556"><ele>1356.0</ele><time>2026-04-26T11:52:35.999Z</time></trkpt><trkpt lat="45.847662846591035" lon="9.94314521369243"><ele>1356.0</ele><time>2026-04-26T11:52:36.999Z</time></trkpt><trkpt lat="45.84758861756997" lon="9.943089509747537"><ele>1356.0</ele><time>2026-04-26T11:52:37.999Z</time></trkpt><trkpt lat="45.84753102045544" lon="9.942927667893997"><ele>1358.8333333333333</ele><time>2026-04-26T11:52:39.999Z</time></trkpt><trkpt lat="45.847502354831846" lon="9.942834584661249"><ele>1361.6666666666667</ele><time>2026-04-26T11:52:40.998Z</time></trkpt><trkpt lat="45.84746069765672" lon="9.942683102996233"><ele>1364.5</ele><time>2026-04-26T11:52:42.998Z</time></trkpt><trkpt lat="45.84739871957448" lon="9.942650659523668"><ele>1367.3333333333335</ele><time>2026-04-26T11:52:44.998Z</time></trkpt><trkpt lat="45.847353022440046" lon="9.942580955929381"><ele>1370.1666666666667</ele><time>2026-04-26T11:52:46.998Z</time></trkpt><trkpt lat="45.847421718552795" lon="9.942500999382778"><ele>1373.0</ele><time>2026-04-26T11:52:48.998Z</time></trkpt><trkpt lat="45.84749906708093" lon="9.94242966584708"><ele>1373.0</ele><time>2026-04-26T11:52:50.998Z</time></trkpt><trkpt lat="45.84753903104141" lon="9.942305168234117"><ele>1373.0</ele><time>2026-04-26T11:52:53Z</time></trkpt><trkpt lat="45.84757150491202" lon="9.942212564774652"><ele>1373.0</ele><time>2026-04-26T11:52:55Z</time></trkpt><trkpt lat="45.847621086594366" lon="9.942137510632243"><ele>1373.0</ele><time>2026-04-26T11:52:56Z</time></trkpt><trkpt lat="45.847699053030496" lon="9.942057889047046"><ele>1373.0</ele><time>2026-04-26T11:52:58Z</time></trkpt><trkpt lat="45.8476944044935" lon="9.941939584539885"><ele>1373.0</ele><time>2026-04-26T11:53:01Z</time></trkpt><trkpt lat="45.84772233847626" lon="9.94183129971952"><ele>1364.0</ele><time>2026-04-26T11:53:04Z</time></trkpt><trkpt lat="45.84773674973086" lon="9.941694275405629"><ele>1355.0</ele><time>2026-04-26T11:53:06Z</time></trkpt><trkpt lat="45.847745122053375" lon="9.941560448922909"><ele>1346.0</ele><time>2026-04-26T11:53:07Z</time></trkpt><trkpt lat="45.84775877890292" lon="9.941376796117305"><ele>1337.0</ele><time>2026-04-26T11:53:09Z</time></trkpt><trkpt lat="45.84773931139003" lon="9.941264170046777"><ele>1328.0</ele><time>2026-04-26T11:53:10Z</time></trkpt><trkpt lat="45.84772208178405" lon="9.941162757542454"><ele>1328.0</ele><time>2026-04-26T11:53:11Z</time></trkpt><trkpt lat="45.84769952024266" lon="9.941004863342348"><ele>1328.0</ele><time>2026-04-26T11:53:13Z</time></trkpt><trkpt lat="45.84777923027453" lon="9.940845856847075"><ele>1328.0</ele><time>2026-04-26T11:53:16Z</time></trkpt><trkpt lat="45.84781354103655" lon="9.940715466882468"><ele>1328.0</ele><time>2026-04-26T11:53:18Z</time></trkpt><trkpt lat="45.84778370747076" lon="9.940525568240597"><ele>1329.8000000000002</ele><time>2026-04-26T11:53:20Z</time></trkpt><trkpt lat="45.84773205484331" lon="9.940368745838933"><ele>1331.6</ele><time>2026-04-26T11:53:22Z</time></trkpt><trkpt lat="45.84768121535257" lon="9.940300098432145"><ele>1333.4</ele><time>2026-04-26T11:53:23Z</time></trkpt><trkpt lat="45.84764181938433" lon="9.940228903138632"><ele>1335.1999999999998</ele><time>2026-04-26T11:53:24Z</time></trkpt><trkpt lat="45.847586296216626" lon="9.94014780263782"><ele>1337.0</ele><time>2026-04-26T11:53:25Z</time></trkpt><trkpt lat="45.84754107352269" lon="9.939977155683984"><ele>1338.8</ele><time>2026-04-26T11:53:27Z</time></trkpt><trkpt lat="45.847552020089175" lon="9.939798825762233"><ele>1340.6</ele><time>2026-04-26T11:53:29Z</time></trkpt><trkpt lat="45.84758528167749" lon="9.939644242311918"><ele>1342.3999999999999</ele><time>2026-04-26T11:53:31Z</time></trkpt><trkpt lat="45.847666546523484" lon="9.93953633483048"><ele>1344.1999999999998</ele><time>2026-04-26T11:53:33Z</time></trkpt><trkpt lat="45.84771143709572" lon="9.939434430442125"><ele>1346.0</ele><time>2026-04-26T11:53:34Z</time></trkpt><trkpt lat="45.84775795005639" lon="9.939350496959198"><ele>1346.0</ele><time>2026-04-26T11:53:35Z</time></trkpt><trkpt lat="45.847791514904756" lon="9.939249132919462"><ele>1346.0</ele><time>2026-04-26T11:53:36Z</time></trkpt><trkpt lat="45.84781730664168" lon="9.939139769504484"><ele>1346.0</ele><time>2026-04-26T11:53:37Z</time></trkpt><trkpt lat="45.84784239490146" lon="9.938998748058857"><ele>1346.0</ele><time>2026-04-26T11:53:38.999Z</time></trkpt><trkpt lat="45.84789086909338" lon="9.938839250770863"><ele>1346.0</ele><time>2026-04-26T11:53:40.999Z</time></trkpt><trkpt lat="45.8478963004011" lon="9.938743326162413"><ele>1346.0</ele><time>2026-04-26T11:53:41.999Z</time></trkpt><trkpt lat="45.84788629147427" lon="9.938616167649222"><ele>1349.6</ele><time>2026-04-26T11:53:42.999Z</time></trkpt><trkpt lat="45.84795597587006" lon="9.938499051543142"><ele>1353.1999999999998</ele><time>2026-04-26T11:53:44.999Z</time></trkpt><trkpt lat="45.84803206317816" lon="9.938455919999855"><ele>1356.8000000000002</ele><time>2026-04-26T11:53:47.999Z</time></trkpt><trkpt lat="45.848071038625825" lon="9.93836518004378"><ele>1360.4</ele><time>2026-04-26T11:53:49.999Z</time></trkpt><trkpt lat="45.84813532179915" lon="9.93828681341506"><ele>1364.0</ele><time>2026-04-26T11:53:51.999Z</time></trkpt><trkpt lat="45.84830410396261" lon="9.937982957167144"><ele>1369.2</ele><time>2026-04-26T11:53:52.999Z</time></trkpt><trkpt lat="45.84835127167386" lon="9.937800979098464"><ele>1374.4</ele><time>2026-04-26T11:53:53.999Z</time></trkpt><trkpt lat="45.84838996276866" lon="9.937697391585813"><ele>1379.6</ele><time>2026-04-26T11:53:54.999Z</time></trkpt><trkpt lat="45.84842335582312" lon="9.93761089576847"><ele>1384.8</ele><time>2026-04-26T11:53:55.999Z</time></trkpt><trkpt lat="45.848434561874" lon="9.93750844739055"><ele>1390.0</ele><time>2026-04-26T11:53:57.999Z</time></trkpt><trkpt lat="45.84840048489094" lon="9.937366293697163"><ele>1393.0</ele><time>2026-04-26T11:53:59.999Z</time></trkpt><trkpt lat="45.848297809689306" lon="9.937277909029355"><ele>1396.0</ele><time>2026-04-26T11:54:01.999Z</time></trkpt><trkpt lat="45.848230205555986" lon="9.937214350552459"><ele>1399.0</ele><time>2026-04-26T11:54:02.999Z</time></trkpt><trkpt lat="45.84816938219174" lon="9.937146171770257"><ele>1402.0</ele><time>2026-04-26T11:54:03.999Z</time></trkpt><trkpt lat="45.84810438062218" lon="9.937114320019878"><ele>1405.0</ele><time>2026-04-26T11:54:04.999Z</time></trkpt><trkpt lat="45.84804912253472" lon="9.937063230084238"><ele>1408.0</ele><time>2026-04-26T11:54:05.999Z</time></trkpt><trkpt lat="45.84797192796405" lon="9.937034482321284"><ele>1408.0</ele><time>2026-04-26T11:54:06.999Z</time></trkpt><trkpt lat="45.847920511325576" lon="9.936976134147486"><ele>1408.0</ele><time>2026-04-26T11:54:07.999Z</time></trkpt><trkpt lat="45.84787391677122" lon="9.936904354711825"><ele>1408.0</ele><time>2026-04-26T11:54:08.999Z</time></trkpt><trkpt lat="45.847816494067985" lon="9.936810591705177"><ele>1408.0</ele><time>2026-04-26T11:54:09.999Z</time></trkpt><trkpt lat="45.84776295402739" lon="9.93668773246498"><ele>1408.0</ele><time>2026-04-26T11:54:11.999Z</time></trkpt><trkpt lat="45.84774129019603" lon="9.936585700170799"><ele>1408.0</ele><time>2026-04-26T11:54:12.999Z</time></trkpt><trkpt lat="45.84772754972316" lon="9.936493093342886"><ele>1407.8333333333333</ele><time>2026-04-26T11:54:13.999Z</time></trkpt><trkpt lat="45.84770593057291" lon="9.93640212772942"><ele>1407.6666666666665</ele><time>2026-04-26T11:54:14.999Z</time></trkpt><trkpt lat="45.84768522853496" lon="9.93624643440372"><ele>1407.5</ele><time>2026-04-26T11:54:16.999Z</time></trkpt><trkpt lat="45.84770198711904" lon="9.936156242709586"><ele>1407.3333333333333</ele><time>2026-04-26T11:54:17.999Z</time></trkpt><trkpt lat="45.84774231213009" lon="9.936038858138241"><ele>1407.1666666666667</ele><time>2026-04-26T11:54:19.999Z</time></trkpt><trkpt lat="45.84775110347827" lon="9.935941685885842"><ele>1407.0</ele><time>2026-04-26T11:54:20.999Z</time></trkpt><trkpt lat="45.84777007311366" lon="9.935824454424187"><ele>1407.0</ele><time>2026-04-26T11:54:21.999Z</time></trkpt><trkpt lat="45.84778831786187" lon="9.935732701358365"><ele>1407.0</ele><time>2026-04-26T11:54:22.999Z</time></trkpt><trkpt lat="45.847822593309424" lon="9.935631929654036"><ele>1407.0</ele><time>2026-04-26T11:54:23.999Z</time></trkpt><trkpt lat="45.84784860066207" lon="9.935494359701885"><ele>1407.0</ele><time>2026-04-26T11:54:25.999Z</time></trkpt><trkpt lat="45.847850601425364" lon="9.935397829278541"><ele>1407.0</ele><time>2026-04-26T11:54:26.999Z</time></trkpt><trkpt lat="45.84783860098989" lon="9.935224728413942"><ele>1407.0</ele><time>2026-04-26T11:54:28.999Z</time></trkpt><trkpt lat="45.84782119862829" lon="9.93513008440662"><ele>1409.8333333333333</ele><time>2026-04-26T11:54:29.999Z</time></trkpt><trkpt lat="45.84779894317783" lon="9.934987710605496"><ele>1412.6666666666667</ele><time>2026-04-26T11:54:33.999Z</time></trkpt><trkpt lat="45.847777108407385" lon="9.93485975786029"><ele>1415.5</ele><time>2026-04-26T11:54:35.999Z</time></trkpt><trkpt lat="45.84777472913167" lon="9.934756055633112"><ele>1418.3333333333335</ele><time>2026-04-26T11:54:36.999Z</time></trkpt><trkpt lat="45.847768641014156" lon="9.934665985896158"><ele>1421.1666666666667</ele><time>2026-04-26T11:54:37.999Z</time></trkpt><trkpt lat="45.847763021685516" lon="9.934572921879235"><ele>1424.0</ele><time>2026-04-26T11:54:38.999Z</time></trkpt><trkpt lat="45.84774463406498" lon="9.934461399571855"><ele>1424.0</ele><time>2026-04-26T11:54:39.999Z</time></trkpt><trkpt lat="45.84773292723473" lon="9.934312898288532"><ele>1424.0</ele><time>2026-04-26T11:54:41.999Z</time></trkpt><trkpt lat="45.84774332673345" lon="9.934118454154808"><ele>1424.0</ele><time>2026-04-26T11:54:43.999Z</time></trkpt><trkpt lat="45.84772593805433" lon="9.934024493263703"><ele>1424.0</ele><time>2026-04-26T11:54:44.999Z</time></trkpt><trkpt lat="45.84769608104248" lon="9.933864956401637"><ele>1424.0</ele><time>2026-04-26T11:54:46.999Z</time></trkpt><trkpt lat="45.84769213714049" lon="9.933769713042828"><ele>1430.6666666666667</ele><time>2026-04-26T11:54:48.998Z</time></trkpt><trkpt lat="45.84762569447085" lon="9.933761247337918"><ele>1437.3333333333335</ele><time>2026-04-26T11:54:52.998Z</time></trkpt><trkpt lat="45.84756907423729" lon="9.933701213321966"><ele>1444.0</ele><time>2026-04-26T11:54:54.998Z</time></trkpt><trkpt lat="45.84752748248612" lon="9.933622025373719"><ele>1450.6666666666667</ele><time>2026-04-26T11:54:57.998Z</time></trkpt><trkpt lat="45.847453241818165" lon="9.933503916887723"><ele>1457.3333333333333</ele><time>2026-04-26T11:55:11Z</time></trkpt><trkpt lat="45.847412788180975" lon="9.933339932569805"><ele>1464.0</ele><time>2026-04-26T11:55:13Z</time></trkpt><trkpt lat="45.84732929735173" lon="9.933211717705603"><ele>1464.0</ele><time>2026-04-26T11:55:15Z</time></trkpt><trkpt lat="45.847284606293414" lon="9.93314451902765"><ele>1464.0</ele><time>2026-04-26T11:55:16Z</time></trkpt><trkpt lat="45.847183369020215" lon="9.93306009640691"><ele>1464.0</ele><time>2026-04-26T11:55:18Z</time></trkpt><trkpt lat="45.847084390345124" lon="9.932922412088768"><ele>1464.0</ele><time>2026-04-26T11:55:20Z</time></trkpt><trkpt lat="45.847028812557696" lon="9.932855281498602"><ele>1464.0</ele><time>2026-04-26T11:55:21Z</time></trkpt><trkpt lat="45.846962644281604" lon="9.932811349214841"><ele>1464.0</ele><time>2026-04-26T11:55:22Z</time></trkpt><trkpt lat="45.84689906147532" lon="9.93277805055512"><ele>1464.0</ele><time>2026-04-26T11:55:23Z</time></trkpt><trkpt lat="45.846810392880464" lon="9.932714847257945"><ele>1464.0</ele><time>2026-04-26T11:55:25Z</time></trkpt><trkpt lat="45.84671947629518" lon="9.932693022262423"><ele>1464.0</ele><time>2026-04-26T11:55:27Z</time></trkpt><trkpt lat="45.846631377191905" lon="9.932677819604853"><ele>1464.0</ele><time>2026-04-26T11:55:29Z</time></trkpt><trkpt lat="45.84655273245762" lon="9.932663901517362"><ele>1464.0</ele><time>2026-04-26T11:55:31Z</time></trkpt><trkpt lat="45.84647109390683" lon="9.932616380239303"><ele>1460.5</ele><time>2026-04-26T11:55:33Z</time></trkpt><trkpt lat="45.84639835068751" lon="9.9325938698287"><ele>1457.0</ele><time>2026-04-26T11:55:35Z</time></trkpt><trkpt lat="45.84632552347537" lon="9.932573284308663"><ele>1453.5</ele><time>2026-04-26T11:55:37Z</time></trkpt><trkpt lat="45.84624427095761" lon="9.932605708259413"><ele>1450.0</ele><time>2026-04-26T11:55:39Z</time></trkpt><trkpt lat="45.84615515335166" lon="9.932720821525836"><ele>1446.5</ele><time>2026-04-26T11:55:41Z</time></trkpt><trkpt lat="45.84611553341156" lon="9.932793830358458"><ele>1443.0</ele><time>2026-04-26T11:55:42Z</time></trkpt><trkpt lat="45.84608889153078" lon="9.932935527169814"><ele>1443.0</ele><time>2026-04-26T11:55:44Z</time></trkpt><trkpt lat="45.84613313591295" lon="9.933070991031597"><ele>1443.0</ele><time>2026-04-26T11:55:46Z</time></trkpt><trkpt lat="45.84616330362955" lon="9.933254121891105"><ele>1443.0</ele><time>2026-04-26T11:55:47.999Z</time></trkpt><trkpt lat="45.846162025962784" lon="9.93336110756774"><ele>1443.0</ele><time>2026-04-26T11:55:48.999Z</time></trkpt><trkpt lat="45.84614545147879" lon="9.933462717041122"><ele>1443.0</ele><time>2026-04-26T11:55:49.999Z</time></trkpt><trkpt lat="45.846117241874424" lon="9.93355510613444"><ele>1441.1666666666667</ele><time>2026-04-26T11:55:50.999Z</time></trkpt><trkpt lat="45.846059421365766" lon="9.933620331170278"><ele>1439.3333333333333</ele><time>2026-04-26T11:55:51.999Z</time></trkpt><trkpt lat="45.84599266381225" lon="9.93367315671536"><ele>1437.5</ele><time>2026-04-26T11:55:52.999Z</time></trkpt><trkpt lat="45.84592265296916" lon="9.933733987892793"><ele>1435.6666666666665</ele><time>2026-04-26T11:55:53.999Z</time></trkpt><trkpt lat="45.84585159380848" lon="9.93383379522078"><ele>1433.8333333333333</ele><time>2026-04-26T11:55:54.999Z</time></trkpt><trkpt lat="45.845781159095154" lon="9.93396281689257"><ele>1432.0</ele><time>2026-04-26T11:55:55.999Z</time></trkpt><trkpt lat="45.84568946516923" lon="9.934104212047261"><ele>1436.25</ele><time>2026-04-26T11:55:56.999Z</time></trkpt><trkpt lat="45.84558599455679" lon="9.934254932115538"><ele>1440.5</ele><time>2026-04-26T11:55:57.999Z</time></trkpt><trkpt lat="45.84549672844252" lon="9.934407698944453"><ele>1444.75</ele><time>2026-04-26T11:55:58.999Z</time></trkpt><trkpt lat="45.845417858648595" lon="9.934550690159172"><ele>1449.0</ele><time>2026-04-26T11:55:59.999Z</time></trkpt><trkpt lat="45.84534530359543" lon="9.934677174319079"><ele>1449.0</ele><time>2026-04-26T11:56:00.999Z</time></trkpt><trkpt lat="45.845265906722126" lon="9.934798060743496"><ele>1449.0</ele><time>2026-04-26T11:56:01.999Z</time></trkpt><trkpt lat="45.84518161095228" lon="9.934921318082798"><ele>1449.0</ele><time>2026-04-26T11:56:02.999Z</time></trkpt><trkpt lat="45.845104366459516" lon="9.935032316013132"><ele>1449.0</ele><time>2026-04-26T11:56:03.999Z</time></trkpt><trkpt lat="45.845044013601544" lon="9.935158944039602"><ele>1445.4</ele><time>2026-04-26T11:56:04.999Z</time></trkpt><trkpt lat="45.844964236624634" lon="9.93525567374568"><ele>1441.8000000000002</ele><time>2026-04-26T11:56:05.999Z</time></trkpt><trkpt lat="45.84490398306557" lon="9.935369911333138"><ele>1438.1999999999998</ele><time>2026-04-26T11:56:06.999Z</time></trkpt><trkpt lat="45.84483700510522" lon="9.935507153324563"><ele>1434.6</ele><time>2026-04-26T11:56:07.999Z</time></trkpt><trkpt lat="45.84477717740603" lon="9.935652039957768"><ele>1431.0</ele><time>2026-04-26T11:56:08.999Z</time></trkpt><trkpt lat="45.84472657053631" lon="9.935805001328077"><ele>1434.0</ele><time>2026-04-26T11:56:09.999Z</time></trkpt><trkpt lat="45.84467502717417" lon="9.935947314307372"><ele>1437.0</ele><time>2026-04-26T11:56:10.999Z</time></trkpt><trkpt lat="45.84462361612612" lon="9.93607816679037"><ele>1440.0</ele><time>2026-04-26T11:56:11.999Z</time></trkpt><trkpt lat="45.84457716341563" lon="9.936200452485473"><ele>1443.0</ele><time>2026-04-26T11:56:12.999Z</time></trkpt><trkpt lat="45.84453676615945" lon="9.936324556483553"><ele>1446.0</ele><time>2026-04-26T11:56:13.999Z</time></trkpt><trkpt lat="45.84451541246373" lon="9.936451340209961"><ele>1446.0</ele><time>2026-04-26T11:56:14.999Z</time></trkpt><trkpt lat="45.84448138768218" lon="9.936582407943503"><ele>1446.0</ele><time>2026-04-26T11:56:15.999Z</time></trkpt><trkpt lat="45.844408365003694" lon="9.936693534798883"><ele>1446.0</ele><time>2026-04-26T11:56:16.999Z</time></trkpt><trkpt lat="45.84437448890732" lon="9.936838000261575"><ele>1446.0</ele><time>2026-04-26T11:56:17.999Z</time></trkpt><trkpt lat="45.84431311487599" lon="9.936960923716427"><ele>1446.0</ele><time>2026-04-26T11:56:18.999Z</time></trkpt><trkpt lat="45.84425430268951" lon="9.93709013241175"><ele>1447.0</ele><time>2026-04-26T11:56:19.999Z</time></trkpt><trkpt lat="45.844197829255066" lon="9.937208430681588"><ele>1448.0</ele><time>2026-04-26T11:56:20.999Z</time></trkpt><trkpt lat="45.84414061791022" lon="9.93731853558264"><ele>1449.0</ele><time>2026-04-26T11:56:21.999Z</time></trkpt><trkpt lat="45.84408425319843" lon="9.93743067988585"><ele>1450.0</ele><time>2026-04-26T11:56:22.999Z</time></trkpt><trkpt lat="45.844034764656975" lon="9.937542765001655"><ele>1451.0</ele><time>2026-04-26T11:56:23.999Z</time></trkpt><trkpt lat="45.843989839859475" lon="9.937670008677246"><ele>1451.0</ele><time>2026-04-26T11:56:24.999Z</time></trkpt><trkpt lat="45.843910016542885" lon="9.93776127045016"><ele>1451.0</ele><time>2026-04-26T11:56:25.999Z</time></trkpt><trkpt lat="45.843851118601904" lon="9.937854250397994"><ele>1451.0</ele><time>2026-04-26T11:56:26.999Z</time></trkpt><trkpt lat="45.84376066271605" lon="9.937822112109806"><ele>1451.0</ele><time>2026-04-26T11:56:27.999Z</time></trkpt><trkpt lat="45.843687769846575" lon="9.937900399755643"><ele>1451.0</ele><time>2026-04-26T11:56:28.999Z</time></trkpt><trkpt lat="45.843632236303485" lon="9.937945344258694"><ele>1451.0</ele><time>2026-04-26T11:56:29.999Z</time></trkpt><trkpt lat="45.843574797305735" lon="9.93798672098326"><ele>1451.0</ele><time>2026-04-26T11:56:30.999Z</time></trkpt><trkpt lat="45.84350384687554" lon="9.938044222404129"><ele>1451.0</ele><time>2026-04-26T11:56:31.999Z</time></trkpt><trkpt lat="45.843428859103106" lon="9.938104995865388"><ele>1451.0</ele><time>2026-04-26T11:56:32.999Z</time></trkpt><trkpt lat="45.843525240707294" lon="9.938582764618323"><ele>1450.4</ele><time>2026-04-26T11:56:33.999Z</time></trkpt><trkpt lat="45.84347650174319" lon="9.938703335455806"><ele>1449.8</ele><time>2026-04-26T11:56:34.999Z</time></trkpt><trkpt lat="45.843434379451296" lon="9.938834860596444"><ele>1449.2</ele><time>2026-04-26T11:56:35.999Z</time></trkpt><trkpt lat="45.84339576404367" lon="9.938967730156538"><ele>1448.6000000000001</ele><time>2026-04-26T11:56:36.999Z</time></trkpt><trkpt lat="45.84335671212036" lon="9.939092414375054"><ele>1448.0</ele><time>2026-04-26T11:56:37.999Z</time></trkpt><trkpt lat="45.843307316902816" lon="9.939215360675602"><ele>1449.8000000000002</ele><time>2026-04-26T11:56:38.999Z</time></trkpt><trkpt lat="45.84325052582869" lon="9.939335081946867"><ele>1451.6</ele><time>2026-04-26T11:56:39.999Z</time></trkpt><trkpt lat="45.84320058353891" lon="9.939455655660915"><ele>1453.4</ele><time>2026-04-26T11:56:40.999Z</time></trkpt><trkpt lat="45.843153611837124" lon="9.939579890010117"><ele>1455.1999999999998</ele><time>2026-04-26T11:56:41.999Z</time></trkpt><trkpt lat="45.843106439711086" lon="9.93970589128841"><ele>1457.0</ele><time>2026-04-26T11:56:42.999Z</time></trkpt><trkpt lat="45.84305948607672" lon="9.939835290543565"><ele>1457.0</ele><time>2026-04-26T11:56:43.999Z</time></trkpt><trkpt lat="45.84301389086217" lon="9.93994839371441"><ele>1457.0</ele><time>2026-04-26T11:56:44.999Z</time></trkpt><trkpt lat="45.84296746245283" lon="9.940064539608597"><ele>1457.0</ele><time>2026-04-26T11:56:45.999Z</time></trkpt><trkpt lat="45.8429174365413" lon="9.940198788993529"><ele>1457.0</ele><time>2026-04-26T11:56:46.999Z</time></trkpt><trkpt lat="45.842867936925174" lon="9.940341867517253"><ele>1457.0</ele><time>2026-04-26T11:56:47.999Z</time></trkpt><trkpt lat="45.8428241897908" lon="9.940483571544569"><ele>1457.6</ele><time>2026-04-26T11:56:48.999Z</time></trkpt><trkpt lat="45.842773532113604" lon="9.940589027127029"><ele>1458.1999999999998</ele><time>2026-04-26T11:56:49.999Z</time></trkpt><trkpt lat="45.84269896383143" lon="9.940689661605571"><ele>1458.8</ele><time>2026-04-26T11:56:50.999Z</time></trkpt><trkpt lat="45.842632759378176" lon="9.940810949137612"><ele>1459.4</ele><time>2026-04-26T11:56:51.999Z</time></trkpt><trkpt lat="45.84258389380175" lon="9.940947052573158"><ele>1460.0</ele><time>2026-04-26T11:56:52.999Z</time></trkpt><trkpt lat="45.8425495405879" lon="9.94109127731702"><ele>1460.0</ele><time>2026-04-26T11:56:53.999Z</time></trkpt><trkpt lat="45.842530207386716" lon="9.941234694475037"><ele>1460.0</ele><time>2026-04-26T11:56:54.999Z</time></trkpt><trkpt lat="45.84253228301682" lon="9.941363613717076"><ele>1460.0</ele><time>2026-04-26T11:56:55.999Z</time></trkpt><trkpt lat="45.842509866452325" lon="9.941510671952313"><ele>1460.0</ele><time>2026-04-26T11:56:56.999Z</time></trkpt><trkpt lat="45.84248101945751" lon="9.941651527396697"><ele>1460.0</ele><time>2026-04-26T11:56:57.999Z</time></trkpt><trkpt lat="45.84246014080899" lon="9.94178649908773"><ele>1462.0</ele><time>2026-04-26T11:56:58.998Z</time></trkpt><trkpt lat="45.84244494202992" lon="9.941919171828223"><ele>1464.0</ele><time>2026-04-26T11:56:59.998Z</time></trkpt><trkpt lat="45.84243806646864" lon="9.942058895025205"><ele>1466.0</ele><time>2026-04-26T11:57:00.998Z</time></trkpt><trkpt lat="45.84242515614441" lon="9.942189092250306"><ele>1468.0</ele><time>2026-04-26T11:57:01.998Z</time></trkpt><trkpt lat="45.84239271420496" lon="9.942323906156922"><ele>1470.0</ele><time>2026-04-26T11:57:02.998Z</time></trkpt><trkpt lat="45.84236119197245" lon="9.942449121531192"><ele>1471.8333333333333</ele><time>2026-04-26T11:57:03.998Z</time></trkpt><trkpt lat="45.842346086944666" lon="9.94254885696303"><ele>1473.6666666666667</ele><time>2026-04-26T11:57:05Z</time></trkpt><trkpt lat="45.84232907227582" lon="9.942645815646681"><ele>1475.5</ele><time>2026-04-26T11:57:06Z</time></trkpt><trkpt lat="45.84230516583776" lon="9.942748644347574"><ele>1477.3333333333335</ele><time>2026-04-26T11:57:07Z</time></trkpt><trkpt lat="45.84227375973743" lon="9.942851814286897"><ele>1479.1666666666667</ele><time>2026-04-26T11:57:08Z</time></trkpt><trkpt lat="45.842236853592496" lon="9.942945807264218"><ele>1481.0</ele><time>2026-04-26T11:57:09Z</time></trkpt><trkpt lat="45.842205778419704" lon="9.9430578794195"><ele>1481.0</ele><time>2026-04-26T11:57:10Z</time></trkpt><trkpt lat="45.842171506359726" lon="9.943162231479045"><ele>1481.0</ele><time>2026-04-26T11:57:11Z</time></trkpt><trkpt lat="45.84213953898424" lon="9.943274664734922"><ele>1481.0</ele><time>2026-04-26T11:57:12Z</time></trkpt><trkpt lat="45.84211943201384" lon="9.94338787169642"><ele>1481.0</ele><time>2026-04-26T11:57:13Z</time></trkpt><trkpt lat="45.84209754782886" lon="9.943509761465371"><ele>1481.0</ele><time>2026-04-26T11:57:14Z</time></trkpt><trkpt lat="45.842076010146705" lon="9.943633382824487"><ele>1481.0</ele><time>2026-04-26T11:57:15Z</time></trkpt><trkpt lat="45.842051237552496" lon="9.943773925124836"><ele>1484.4</ele><time>2026-04-26T11:57:16Z</time></trkpt><trkpt lat="45.84203153396169" lon="9.94391253411296"><ele>1487.8</ele><time>2026-04-26T11:57:17Z</time></trkpt><trkpt lat="45.84200842887362" lon="9.944059122630254"><ele>1491.2</ele><time>2026-04-26T11:57:18Z</time></trkpt><trkpt lat="45.84198438796264" lon="9.944215418903468"><ele>1494.6000000000001</ele><time>2026-04-26T11:57:19Z</time></trkpt><trkpt lat="45.84196125862032" lon="9.944353490574406"><ele>1498.0</ele><time>2026-04-26T11:57:20Z</time></trkpt><trkpt lat="45.841945266786254" lon="9.944494415967899"><ele>1496.4285714285713</ele><time>2026-04-26T11:57:21Z</time></trkpt><trkpt lat="45.84193147568495" lon="9.944605692599929"><ele>1494.857142857143</ele><time>2026-04-26T11:57:22Z</time></trkpt><trkpt lat="45.841902851843216" lon="9.944715367438201"><ele>1493.2857142857142</ele><time>2026-04-26T11:57:23Z</time></trkpt><trkpt lat="45.841853261399706" lon="9.944781259520756"><ele>1491.7142857142858</ele><time>2026-04-26T11:57:24Z</time></trkpt><trkpt lat="45.841792584598274" lon="9.944840759494245"><ele>1490.142857142857</ele><time>2026-04-26T11:57:25Z</time></trkpt><trkpt lat="45.84174855195431" lon="9.944917798824022"><ele>1488.5714285714284</ele><time>2026-04-26T11:57:26Z</time></trkpt><trkpt lat="45.84172003845487" lon="9.944999549851362"><ele>1487.0</ele><time>2026-04-26T11:57:27Z</time></trkpt><trkpt lat="45.84168387528731" lon="9.945116600974567"><ele>1485.8</ele><time>2026-04-26T11:57:29Z</time></trkpt><trkpt lat="45.841627322934926" lon="9.945205037229387"><ele>1484.6</ele><time>2026-04-26T11:57:33Z</time></trkpt><trkpt lat="45.841537609589665" lon="9.945380619529999"><ele>1483.3999999999999</ele><time>2026-04-26T11:57:36Z</time></trkpt><trkpt lat="45.84150254852799" lon="9.945459868858821"><ele>1482.1999999999998</ele><time>2026-04-26T11:57:38Z</time></trkpt><trkpt lat="45.841476484014194" lon="9.94560581146181"><ele>1481.0</ele><time>2026-04-26T11:57:40Z</time></trkpt><trkpt lat="45.841482129656804" lon="9.945734224041347"><ele>1480.0</ele><time>2026-04-26T11:57:42Z</time></trkpt><trkpt lat="45.84146558606919" lon="9.945900755891442"><ele>1479.0</ele><time>2026-04-26T11:57:44Z</time></trkpt><trkpt lat="45.84142716172681" lon="9.946014434352621"><ele>1478.0</ele><time>2026-04-26T11:57:46Z</time></trkpt><trkpt lat="45.84140559030773" lon="9.946129436223655"><ele>1477.0</ele><time>2026-04-26T11:57:48Z</time></trkpt><trkpt lat="45.841367594854304" lon="9.946263459298285"><ele>1476.0</ele><time>2026-04-26T11:57:51Z</time></trkpt><trkpt lat="45.841300646413245" lon="9.946307680036439"><ele>1476.0</ele><time>2026-04-26T11:57:53Z</time></trkpt><trkpt lat="45.84125231720716" lon="9.946390864534807"><ele>1476.0</ele><time>2026-04-26T11:57:55.999Z</time></trkpt><trkpt lat="45.84120289727231" lon="9.946468968406155"><ele>1476.0</ele><time>2026-04-26T11:58:06.999Z</time></trkpt><trkpt lat="45.8411428632216" lon="9.946542462655236"><ele>1476.0</ele><time>2026-04-26T11:58:11.999Z</time></trkpt><trkpt lat="45.84111552529516" lon="9.946625904207622"><ele>1476.0</ele><time>2026-04-26T11:58:16.999Z</time></trkpt><trkpt lat="45.841065725550884" lon="9.946737591870471"><ele>1476.0</ele><time>2026-04-26T11:58:21.999Z</time></trkpt><trkpt lat="45.841055995231294" lon="9.946837371475665"><ele>1475.5</ele><time>2026-04-26T11:58:25.999Z</time></trkpt><trkpt lat="45.84103809033765" lon="9.946967230621677"><ele>1475.0</ele><time>2026-04-26T11:58:28.999Z</time></trkpt><trkpt lat="45.84103247387221" lon="9.947072865148028"><ele>1474.5</ele><time>2026-04-26T11:58:31.999Z</time></trkpt><trkpt lat="45.84102619084535" lon="9.947178897325571"><ele>1474.0</ele><time>2026-04-26T11:58:35.999Z</time></trkpt><trkpt lat="45.84101388571028" lon="9.947270133471548"><ele>1473.5</ele><time>2026-04-26T11:58:39.999Z</time></trkpt><trkpt lat="45.841019883147" lon="9.947367092151584"><ele>1473.0</ele><time>2026-04-26T11:58:42.999Z</time></trkpt><trkpt lat="45.84102401357244" lon="9.947535449284727"><ele>1473.0</ele><time>2026-04-26T11:58:44.999Z</time></trkpt><trkpt lat="45.84103871243409" lon="9.947628936113157"><ele>1473.0</ele><time>2026-04-26T11:58:45.999Z</time></trkpt><trkpt lat="45.84102269167126" lon="9.947759623089173"><ele>1473.0</ele><time>2026-04-26T11:58:47.999Z</time></trkpt><trkpt lat="45.841012024872846" lon="9.947873194781089"><ele>1473.0</ele><time>2026-04-26T11:58:49.999Z</time></trkpt><trkpt lat="45.84099107238007" lon="9.947998504044724"><ele>1473.0</ele><time>2026-04-26T11:58:52.999Z</time></trkpt><trkpt lat="45.841003168863274" lon="9.948138538124619"><ele>1473.0</ele><time>2026-04-26T11:58:54.999Z</time></trkpt><trkpt lat="45.841023105348555" lon="9.948261451029525"><ele>1473.0</ele><time>2026-04-26T11:58:57.999Z</time></trkpt><trkpt lat="45.840992273088034" lon="9.94836740852139"><ele>1473.0</ele><time>2026-04-26T11:59:01.999Z</time></trkpt><trkpt lat="45.84092611885294" lon="9.948457008258492"><ele>1473.0</ele><time>2026-04-26T11:59:04.999Z</time></trkpt><trkpt lat="45.84089865515632" lon="9.948547946459945"><ele>1473.0</ele><time>2026-04-26T11:59:07.998Z</time></trkpt><trkpt lat="45.84085945800466" lon="9.948638312777346"><ele>1473.0</ele><time>2026-04-26T11:59:11Z</time></trkpt><trkpt lat="45.840830068900104" lon="9.948738753904426"><ele>1473.0</ele><time>2026-04-26T11:59:13Z</time></trkpt><trkpt lat="45.84081109746795" lon="9.948853432466116"><ele>1463.5</ele><time>2026-04-26T11:59:16Z</time></trkpt><trkpt lat="45.84083248674114" lon="9.948953388230958"><ele>1454.0</ele><time>2026-04-26T11:59:18Z</time></trkpt><trkpt lat="45.840847788326066" lon="9.949043166638758"><ele>1444.5</ele><time>2026-04-26T11:59:23Z</time></trkpt><trkpt lat="45.84087045168009" lon="9.949166554929032"><ele>1435.0</ele><time>2026-04-26T11:59:26Z</time></trkpt><trkpt lat="45.84091272139036" lon="9.949276960645053"><ele>1425.5</ele><time>2026-04-26T11:59:28Z</time></trkpt><trkpt lat="45.84088456371893" lon="9.949361462853652"><ele>1416.0</ele><time>2026-04-26T11:59:34Z</time></trkpt><trkpt lat="45.84083733717429" lon="9.94945779502005"><ele>1415.8333333333333</ele><time>2026-04-26T11:59:37Z</time></trkpt><trkpt lat="45.84080085585067" lon="9.949551169204664"><ele>1415.6666666666667</ele><time>2026-04-26T11:59:40Z</time></trkpt><trkpt lat="45.840768858540166" lon="9.949632417441947"><ele>1415.5</ele><time>2026-04-26T11:59:41Z</time></trkpt><trkpt lat="45.840740003111065" lon="9.94973543021984"><ele>1415.3333333333335</ele><time>2026-04-26T11:59:43Z</time></trkpt><trkpt lat="45.840726466125595" lon="9.949861490524027"><ele>1415.1666666666667</ele><time>2026-04-26T11:59:45Z</time></trkpt><trkpt lat="45.840721013801826" lon="9.949959526328485"><ele>1415.0</ele><time>2026-04-26T11:59:49Z</time></trkpt><trkpt lat="45.840710236579085" lon="9.950069135159472"><ele>1416.5</ele><time>2026-04-26T12:00:09.999Z</time></trkpt><trkpt lat="45.840733133764445" lon="9.95018768558269"><ele>1418.0</ele><time>2026-04-26T12:00:28.999Z</time></trkpt><trkpt lat="45.84067127322051" lon="9.950269836839851"><ele>1419.5</ele><time>2026-04-26T12:00:43.999Z</time></trkpt><trkpt lat="45.8406352328177" lon="9.950378384850483"><ele>1421.0</ele><time>2026-04-26T12:00:47.999Z</time></trkpt><trkpt lat="45.84062326410573" lon="9.950501772463682"><ele>1422.5</ele><time>2026-04-26T12:00:50.999Z</time></trkpt><trkpt lat="45.84062017380332" lon="9.950610597356407"><ele>1424.0</ele><time>2026-04-26T12:00:54.999Z</time></trkpt><trkpt lat="45.840582235744435" lon="9.950683116617462"><ele>1424.0</ele><time>2026-04-26T12:00:58.999Z</time></trkpt><trkpt lat="45.8405644148792" lon="9.950777926836803"><ele>1424.0</ele><time>2026-04-26T12:01:01.999Z</time></trkpt><trkpt lat="45.840506201727806" lon="9.950845232202848"><ele>1424.0</ele><time>2026-04-26T12:01:03.999Z</time></trkpt><trkpt lat="45.84048648345468" lon="9.950938775951533"><ele>1424.0</ele><time>2026-04-26T12:01:05.999Z</time></trkpt><trkpt lat="45.84049748029265" lon="9.951042506752454"><ele>1424.0</ele><time>2026-04-26T12:01:08.998Z</time></trkpt><trkpt lat="45.84046509777056" lon="9.95116622790996"><ele>1424.0</ele><time>2026-04-26T12:01:12.998Z</time></trkpt><trkpt lat="45.84046942466898" lon="9.951306322144458"><ele>1423.5714285714284</ele><time>2026-04-26T12:01:15.998Z</time></trkpt><trkpt lat="45.840461501163254" lon="9.951398626003549"><ele>1423.142857142857</ele><time>2026-04-26T12:01:18Z</time></trkpt><trkpt lat="45.840493105090246" lon="9.95148025182642"><ele>1422.7142857142858</ele><time>2026-04-26T12:01:21Z</time></trkpt><trkpt lat="45.84055323190942" lon="9.951551950697766"><ele>1422.2857142857142</ele><time>2026-04-26T12:01:24Z</time></trkpt><trkpt lat="45.84061117110916" lon="9.951638103715853"><ele>1421.857142857143</ele><time>2026-04-26T12:01:27Z</time></trkpt><trkpt lat="45.8406424745043" lon="9.951729155729838"><ele>1421.4285714285713</ele><time>2026-04-26T12:01:29Z</time></trkpt><trkpt lat="45.84064708277908" lon="9.951820189469077"><ele>1421.0</ele><time>2026-04-26T12:01:31Z</time></trkpt><trkpt lat="45.840684338777045" lon="9.951897844348204"><ele>1420.5</ele><time>2026-04-26T12:01:33Z</time></trkpt><trkpt lat="45.84073308887455" lon="9.95201911081048"><ele>1420.0</ele><time>2026-04-26T12:01:35Z</time></trkpt><trkpt lat="45.84074346755548" lon="9.952133219394897"><ele>1419.5</ele><time>2026-04-26T12:01:37Z</time></trkpt><trkpt lat="45.84069118151596" lon="9.952214542010449"><ele>1419.0</ele><time>2026-04-26T12:02:37.999Z</time></trkpt><trkpt lat="45.84065770673581" lon="9.95230828511144"><ele>1418.5</ele><time>2026-04-26T12:02:40.999Z</time></trkpt><trkpt lat="45.84060764629254" lon="9.952363997940829"><ele>1418.0</ele><time>2026-04-26T12:02:45.999Z</time></trkpt><trkpt lat="45.84059189694245" lon="9.952456076748286"><ele>1418.0000000000002</ele><time>2026-04-26T12:02:48.999Z</time></trkpt><trkpt lat="45.84051287856263" lon="9.952488154164994"><ele>1418.0</ele><time>2026-04-26T12:02:51.999Z</time></trkpt><trkpt lat="45.84049106292867" lon="9.952579982206778"><ele>1418.0</ele><time>2026-04-26T12:03:28Z</time></trkpt><trkpt lat="45.840508613702255" lon="9.952679764610656"><ele>1418.0</ele><time>2026-04-26T12:03:44Z</time></trkpt><trkpt lat="45.840520665762796" lon="9.952774684622176"><ele>1418.0</ele><time>2026-04-26T12:04:01Z</time></trkpt><trkpt lat="45.84051700242688" lon="9.952887127520915"><ele>1418.0000000000002</ele><time>2026-04-26T12:04:17.999Z</time></trkpt><trkpt lat="45.84047309404356" lon="9.952976024114415"><ele>1418.0</ele><time>2026-04-26T12:04:20.999Z</time></trkpt><trkpt lat="45.84041803830117" lon="9.953021712498378"><ele>1418.8333333333335</ele><time>2026-04-26T12:04:26.999Z</time></trkpt><trkpt lat="45.84038625076504" lon="9.953107338637611"><ele>1419.6666666666667</ele><time>2026-04-26T12:04:41.999Z</time></trkpt><trkpt lat="45.84037331138381" lon="9.953206813573917"><ele>1420.5</ele><time>2026-04-26T12:04:44.999Z</time></trkpt><trkpt lat="45.840377122527215" lon="9.953326414900287"><ele>1421.3333333333333</ele><time>2026-04-26T12:04:47.999Z</time></trkpt><trkpt lat="45.84037803784365" lon="9.953434605597279"><ele>1422.1666666666665</ele><time>2026-04-26T12:04:50.999Z</time></trkpt><trkpt lat="45.840302127814965" lon="9.95346958314444"><ele>1423.0</ele><time>2026-04-26T12:04:53.999Z</time></trkpt><trkpt lat="45.840223035047366" lon="9.953468250243786"><ele>1424.4285714285716</ele><time>2026-04-26T12:04:56.999Z</time></trkpt><trkpt lat="45.84016381884725" lon="9.953414961936979"><ele>1425.8571428571427</ele><time>2026-04-26T12:04:58.999Z</time></trkpt><trkpt lat="45.840099295215026" lon="9.953371460815465"><ele>1427.2857142857142</ele><time>2026-04-26T12:05:00.999Z</time></trkpt><trkpt lat="45.84001486273854" lon="9.953352583627371"><ele>1428.7142857142858</ele><time>2026-04-26T12:05:02.999Z</time></trkpt><trkpt lat="45.83995316536321" lon="9.95332220340099"><ele>1430.1428571428573</ele><time>2026-04-26T12:05:04.999Z</time></trkpt><trkpt lat="45.839889909947004" lon="9.953324942868589"><ele>1431.5714285714284</ele><time>2026-04-26T12:05:05.999Z</time></trkpt><trkpt lat="45.83980727704439" lon="9.953318102917828"><ele>1433.0</ele><time>2026-04-26T12:05:07.999Z</time></trkpt><trkpt lat="45.83973437830686" lon="9.953309812286301"><ele>1427.0</ele><time>2026-04-26T12:05:09.999Z</time></trkpt><trkpt lat="45.83964418710913" lon="9.953307504996905"><ele>1421.0</ele><time>2026-04-26T12:05:11.999Z</time></trkpt><trkpt lat="45.839555086430764" lon="9.953374061335596"><ele>1415.0</ele><time>2026-04-26T12:05:13.999Z</time></trkpt><trkpt lat="45.839498046714525" lon="9.953437404599548"><ele>1409.0</ele><time>2026-04-26T12:05:16.998Z</time></trkpt><trkpt lat="45.839437780370126" lon="9.95353050056516"><ele>1403.0</ele><time>2026-04-26T12:05:18.998Z</time></trkpt><trkpt lat="45.83939300591912" lon="9.953603472869602"><ele>1397.0</ele><time>2026-04-26T12:05:20.998Z</time></trkpt><trkpt lat="45.839329101126324" lon="9.95364397974939"><ele>1397.0000000000002</ele><time>2026-04-26T12:05:22.998Z</time></trkpt><trkpt lat="45.83930855207798" lon="9.953747681216136"><ele>1397.0</ele><time>2026-04-26T12:05:24.998Z</time></trkpt><trkpt lat="45.83933324941853" lon="9.95384208379749"><ele>1397.0</ele><time>2026-04-26T12:05:26.998Z</time></trkpt><trkpt lat="45.83930560006132" lon="9.953927959915042"><ele>1397.0</ele><time>2026-04-26T12:05:29Z</time></trkpt><trkpt lat="45.83928242239519" lon="9.954012384223134"><ele>1397.0</ele><time>2026-04-26T12:05:31Z</time></trkpt><trkpt lat="45.83923492051015" lon="9.954074161371077"><ele>1397.0000000000002</ele><time>2026-04-26T12:05:33Z</time></trkpt><trkpt lat="45.83917644362048" lon="9.95410892767506"><ele>1397.0</ele><time>2026-04-26T12:05:35Z</time></trkpt><trkpt lat="45.83912410574146" lon="9.954192994798925"><ele>1392.8333333333335</ele><time>2026-04-26T12:05:38Z</time></trkpt><trkpt lat="45.83908641780379" lon="9.954283055436516"><ele>1388.6666666666667</ele><time>2026-04-26T12:05:42Z</time></trkpt><trkpt lat="45.83907429946574" lon="9.954406090812473"><ele>1384.5</ele><time>2026-04-26T12:05:45Z</time></trkpt><trkpt lat="45.83898027889807" lon="9.954402970951762"><ele>1380.3333333333333</ele><time>2026-04-26T12:05:49Z</time></trkpt><trkpt lat="45.83890674521534" lon="9.954382274644912"><ele>1376.1666666666665</ele><time>2026-04-26T12:05:55Z</time></trkpt><trkpt lat="45.83884301766259" lon="9.954402283303802"><ele>1372.0</ele><time>2026-04-26T12:06:00Z</time></trkpt><trkpt lat="45.838774752883964" lon="9.95436361526725"><ele>1372.0</ele><time>2026-04-26T12:06:07Z</time></trkpt><trkpt lat="45.838705567529935" lon="9.95435108568586"><ele>1372.0</ele><time>2026-04-26T12:06:10Z</time></trkpt><trkpt lat="45.838618842522656" lon="9.954377954864691"><ele>1372.0</ele><time>2026-04-26T12:06:13Z</time></trkpt><trkpt lat="45.83856680594023" lon="9.95443323018044"><ele>1372.0</ele><time>2026-04-26T12:06:14.999Z</time></trkpt><trkpt lat="45.838543200742166" lon="9.95451986104222"><ele>1372.0</ele><time>2026-04-26T12:06:18.999Z</time></trkpt><trkpt lat="45.838469168297955" lon="9.954571037926469"><ele>1372.0</ele><time>2026-04-26T12:06:30.999Z</time></trkpt><trkpt lat="45.83840648746535" lon="9.954493856807005"><ele>1366.0</ele><time>2026-04-26T12:06:35.999Z</time></trkpt><trkpt lat="45.838363671634646" lon="9.954396805401798"><ele>1360.0</ele><time>2026-04-26T12:06:38.999Z</time></trkpt><trkpt lat="45.83834345797869" lon="9.954306889493743"><ele>1354.0</ele><time>2026-04-26T12:06:41.999Z</time></trkpt><trkpt lat="45.83827521497561" lon="9.954332415629587"><ele>1348.0</ele><time>2026-04-26T12:06:44.999Z</time></trkpt><trkpt lat="45.83824189734481" lon="9.954417000824272"><ele>1342.0</ele><time>2026-04-26T12:06:47.999Z</time></trkpt><trkpt lat="45.838208037805416" lon="9.954545642483058"><ele>1336.0</ele><time>2026-04-26T12:06:50.999Z</time></trkpt><trkpt lat="45.83811290344244" lon="9.954557647773184"><ele>1336.0</ele><time>2026-04-26T12:06:53.999Z</time></trkpt><trkpt lat="45.83804820450276" lon="9.954553172796556"><ele>1336.0</ele><time>2026-04-26T12:06:56.999Z</time></trkpt><trkpt lat="45.837954842613414" lon="9.954592399022882"><ele>1336.0</ele><time>2026-04-26T12:06:58.999Z</time></trkpt><trkpt lat="45.8378452706781" lon="9.954637453570166"><ele>1336.0</ele><time>2026-04-26T12:07:00.999Z</time></trkpt><trkpt lat="45.837799649671396" lon="9.954717741355296"><ele>1336.0</ele><time>2026-04-26T12:07:02.999Z</time></trkpt><trkpt lat="45.837749195368744" lon="9.954777155198096"><ele>1336.0</ele><time>2026-04-26T12:07:04.999Z</time></trkpt><trkpt lat="45.837714812294536" lon="9.954867709699641"><ele>1336.0</ele><time>2026-04-26T12:07:06.999Z</time></trkpt><trkpt lat="45.8376432685883" lon="9.954847048376683"><ele>1336.0</ele><time>2026-04-26T12:07:10.999Z</time></trkpt><trkpt lat="45.83756718962182" lon="9.954890777375738"><ele>1336.0</ele><time>2026-04-26T12:07:14.999Z</time></trkpt><trkpt lat="45.837485625771706" lon="9.954958359275919"><ele>1336.0</ele><time>2026-04-26T12:07:17.999Z</time></trkpt><trkpt lat="45.83731395031078" lon="9.955051596966355"><ele>1336.0</ele><time>2026-04-26T12:07:19.999Z</time></trkpt><trkpt lat="45.83724603323098" lon="9.955154621892445"><ele>1333.0</ele><time>2026-04-26T12:07:21.999Z</time></trkpt><trkpt lat="45.83718368326627" lon="9.955223976728357"><ele>1330.0</ele><time>2026-04-26T12:07:23.999Z</time></trkpt><trkpt lat="45.83711190548286" lon="9.955300811375489"><ele>1327.0</ele><time>2026-04-26T12:07:26.999Z</time></trkpt><trkpt lat="45.83702265007265" lon="9.955317446713751"><ele>1324.0</ele><time>2026-04-26T12:07:28.999Z</time></trkpt><trkpt lat="45.836925513064166" lon="9.955347926673968"><ele>1321.0</ele><time>2026-04-26T12:07:30.998Z</time></trkpt><trkpt lat="45.83685401625253" lon="9.955324408658234"><ele>1318.0</ele><time>2026-04-26T12:07:31.998Z</time></trkpt><trkpt lat="45.836793091392" lon="9.95528348884482"><ele>1313.8333333333333</ele><time>2026-04-26T12:07:32.998Z</time></trkpt><trkpt lat="45.83673165917998" lon="9.955232434698047"><ele>1309.6666666666665</ele><time>2026-04-26T12:07:33.998Z</time></trkpt><trkpt lat="45.836643094382566" lon="9.955172903410539"><ele>1305.5</ele><time>2026-04-26T12:07:36Z</time></trkpt><trkpt lat="45.83661299684317" lon="9.955268554325762"><ele>1301.3333333333333</ele><time>2026-04-26T12:07:39Z</time></trkpt><trkpt lat="45.83656852920411" lon="9.955368345572698"><ele>1297.1666666666667</ele><time>2026-04-26T12:07:42Z</time></trkpt><trkpt lat="45.83651056538943" lon="9.95547241972171"><ele>1293.0</ele><time>2026-04-26T12:07:44Z</time></trkpt><trkpt lat="45.83643840168962" lon="9.95548978632923"><ele>1293.0</ele><time>2026-04-26T12:07:49Z</time></trkpt><trkpt lat="45.83637149992643" lon="9.955523583118415"><ele>1293.0</ele><time>2026-04-26T12:07:52Z</time></trkpt><trkpt lat="45.836278831343186" lon="9.955547711105316"><ele>1293.0</ele><time>2026-04-26T12:08:08Z</time></trkpt><trkpt lat="45.83617409284581" lon="9.95550993970783"><ele>1293.0</ele><time>2026-04-26T12:08:10Z</time></trkpt><trkpt lat="45.836048824635576" lon="9.9554699917252"><ele>1293.0</ele><time>2026-04-26T12:08:12Z</time></trkpt><trkpt lat="45.835974381738914" lon="9.955464742206841"><ele>1290.3333333333333</ele><time>2026-04-26T12:08:13Z</time></trkpt><trkpt lat="45.83589905340614" lon="9.955459895265724"><ele>1287.6666666666667</ele><time>2026-04-26T12:08:14Z</time></trkpt><trkpt lat="45.83582944199684" lon="9.95545365219841"><ele>1285.0</ele><time>2026-04-26T12:08:15Z</time></trkpt><trkpt lat="45.835762685701496" lon="9.95546121325607"><ele>1282.3333333333335</ele><time>2026-04-26T12:08:16Z</time></trkpt><trkpt lat="45.83569244962661" lon="9.955475770392544"><ele>1279.6666666666667</ele><time>2026-04-26T12:08:17Z</time></trkpt><trkpt lat="45.83560908614049" lon="9.955498663928944"><ele>1277.0</ele><time>2026-04-26T12:08:18Z</time></trkpt><trkpt lat="45.835526645327896" lon="9.955518546173339"><ele>1277.0</ele><time>2026-04-26T12:08:19Z</time></trkpt><trkpt lat="45.83543953228069" lon="9.955530634550671"><ele>1277.0</ele><time>2026-04-26T12:08:20Z</time></trkpt><trkpt lat="45.83534169312548" lon="9.95554429180739"><ele>1277.0</ele><time>2026-04-26T12:08:21Z</time></trkpt><trkpt lat="45.83524022671209" lon="9.955557669988341"><ele>1277.0</ele><time>2026-04-26T12:08:21.999Z</time></trkpt><trkpt lat="45.83513895975539" lon="9.95557564082411"><ele>1277.0</ele><time>2026-04-26T12:08:22.999Z</time></trkpt><trkpt lat="45.83504124185745" lon="9.955588136600074"><ele>1275.2</ele><time>2026-04-26T12:08:23.999Z</time></trkpt><trkpt lat="45.834930161736835" lon="9.955592210541793"><ele>1273.4</ele><time>2026-04-26T12:08:24.999Z</time></trkpt><trkpt lat="45.83481976425191" lon="9.955596204151306"><ele>1271.6</ele><time>2026-04-26T12:08:25.999Z</time></trkpt><trkpt lat="45.83471728382035" lon="9.95560382351943"><ele>1269.8</ele><time>2026-04-26T12:08:26.999Z</time></trkpt><trkpt lat="45.83461780151183" lon="9.955615958981594"><ele>1268.0</ele><time>2026-04-26T12:08:27.999Z</time></trkpt><trkpt lat="45.83452352111589" lon="9.955626460127469"><ele>1268.0</ele><time>2026-04-26T12:08:28.999Z</time></trkpt><trkpt lat="45.83443904392269" lon="9.95563532455821"><ele>1268.0</ele><time>2026-04-26T12:08:29.999Z</time></trkpt><trkpt lat="45.83435819879347" lon="9.95565655243343"><ele>1268.0</ele><time>2026-04-26T12:08:30.999Z</time></trkpt><trkpt lat="45.834278181152825" lon="9.955687464793975"><ele>1268.0</ele><time>2026-04-26T12:08:31.999Z</time></trkpt><trkpt lat="45.83420144565898" lon="9.955736477829895"><ele>1268.0</ele><time>2026-04-26T12:08:32.999Z</time></trkpt><trkpt lat="45.834126892613455" lon="9.955800060702412"><ele>1268.0</ele><time>2026-04-26T12:08:33.999Z</time></trkpt><trkpt lat="45.83405269336323" lon="9.955857965792081"><ele>1267.0</ele><time>2026-04-26T12:08:34.999Z</time></trkpt><trkpt lat="45.833979322049714" lon="9.955913811638425"><ele>1266.0</ele><time>2026-04-26T12:08:35.999Z</time></trkpt><trkpt lat="45.833903010666575" lon="9.9559861013738"><ele>1265.0</ele><time>2026-04-26T12:08:36.999Z</time></trkpt><trkpt lat="45.83381132869979" lon="9.956077163271557"><ele>1264.0</ele><time>2026-04-26T12:08:37.999Z</time></trkpt><trkpt lat="45.83373055709305" lon="9.956143906782614"><ele>1263.0</ele><time>2026-04-26T12:08:38.999Z</time></trkpt><trkpt lat="45.83365251424123" lon="9.956203029923696"><ele>1263.0</ele><time>2026-04-26T12:08:39.999Z</time></trkpt><trkpt lat="45.833575413066065" lon="9.956267692275247"><ele>1263.0</ele><time>2026-04-26T12:08:40.999Z</time></trkpt><trkpt lat="45.833497303945116" lon="9.956328507368616"><ele>1263.0</ele><time>2026-04-26T12:08:41.999Z</time></trkpt><trkpt lat="45.83342122517282" lon="9.956371817684367"><ele>1263.0</ele><time>2026-04-26T12:08:42.999Z</time></trkpt><trkpt lat="45.83334552726764" lon="9.956404082087955"><ele>1263.0</ele><time>2026-04-26T12:08:43.999Z</time></trkpt><trkpt lat="45.83327888699636" lon="9.956442206584425"><ele>1263.0</ele><time>2026-04-26T12:08:44.999Z</time></trkpt><trkpt lat="45.833232744550564" lon="9.956516182851736"><ele>1262.5714285714284</ele><time>2026-04-26T12:08:45.999Z</time></trkpt><trkpt lat="45.83319021191434" lon="9.956610019400456"><ele>1262.142857142857</ele><time>2026-04-26T12:08:46.999Z</time></trkpt><trkpt lat="45.833141797577014" lon="9.956691273438386"><ele>1261.7142857142858</ele><time>2026-04-26T12:08:47.999Z</time></trkpt><trkpt lat="45.83308536770759" lon="9.956754803077745"><ele>1261.2857142857142</ele><time>2026-04-26T12:08:48.999Z</time></trkpt><trkpt lat="45.83302872343365" lon="9.956816335793285"><ele>1260.857142857143</ele><time>2026-04-26T12:08:49.999Z</time></trkpt><trkpt lat="45.83298194965198" lon="9.95687966750519"><ele>1260.4285714285713</ele><time>2026-04-26T12:08:50.999Z</time></trkpt><trkpt lat="45.832940499160124" lon="9.956957874098881"><ele>1260.0</ele><time>2026-04-26T12:08:51.999Z</time></trkpt><trkpt lat="45.83290588849415" lon="9.957046838624883"><ele>1260.0</ele><time>2026-04-26T12:08:52.999Z</time></trkpt><trkpt lat="45.83288871221352" lon="9.95715207360916"><ele>1260.0</ele><time>2026-04-26T12:08:53.999Z</time></trkpt><trkpt lat="45.832887983971936" lon="9.957275458817474"><ele>1260.0</ele><time>2026-04-26T12:08:54.999Z</time></trkpt><trkpt lat="45.83289882112196" lon="9.957402510259346"><ele>1260.0</ele><time>2026-04-26T12:08:55.999Z</time></trkpt><trkpt lat="45.832888158830016" lon="9.957527529120071"><ele>1260.0</ele><time>2026-04-26T12:08:56.999Z</time></trkpt><trkpt lat="45.83288356706066" lon="9.95764467239398"><ele>1260.0</ele><time>2026-04-26T12:08:57.999Z</time></trkpt><trkpt lat="45.83288233609256" lon="9.957765873277236"><ele>1261.1666666666667</ele><time>2026-04-26T12:08:58.999Z</time></trkpt><trkpt lat="45.832893481204614" lon="9.9578859648228"><ele>1262.3333333333333</ele><time>2026-04-26T12:08:59.999Z</time></trkpt><trkpt lat="45.832907948526" lon="9.95799996439326"><ele>1263.5</ele><time>2026-04-26T12:09:00.999Z</time></trkpt><trkpt lat="45.83290650726215" lon="9.958105487291391"><ele>1264.6666666666665</ele><time>2026-04-26T12:09:01.999Z</time></trkpt><trkpt lat="45.83291389336555" lon="9.958213676349729"><ele>1265.8333333333333</ele><time>2026-04-26T12:09:02.999Z</time></trkpt><trkpt lat="45.83291845670325" lon="9.958320082019085"><ele>1267.0</ele><time>2026-04-26T12:09:03.999Z</time></trkpt><trkpt lat="45.832926718938886" lon="9.958419601320845"><ele>1268.1666666666665</ele><time>2026-04-26T12:09:04.999Z</time></trkpt><trkpt lat="45.83294145882491" lon="9.958580033864221"><ele>1269.3333333333333</ele><time>2026-04-26T12:09:06.999Z</time></trkpt><trkpt lat="45.83291711227358" lon="9.958759927887508"><ele>1270.5</ele><time>2026-04-26T12:09:08.999Z</time></trkpt><trkpt lat="45.83289882292624" lon="9.95885357028531"><ele>1271.6666666666667</ele><time>2026-04-26T12:09:09.999Z</time></trkpt><trkpt lat="45.83288798943732" lon="9.9589455819608"><ele>1272.8333333333335</ele><time>2026-04-26T12:09:10.999Z</time></trkpt><trkpt lat="45.83286992102456" lon="9.959047471748177"><ele>1274.0</ele><time>2026-04-26T12:09:11.999Z</time></trkpt><trkpt lat="45.8328265091747" lon="9.9591387908936"><ele>1273.8</ele><time>2026-04-26T12:09:12.999Z</time></trkpt><trkpt lat="45.832773209287154" lon="9.959224641629921"><ele>1273.6000000000001</ele><time>2026-04-26T12:09:13.999Z</time></trkpt><trkpt lat="45.832720406561926" lon="9.959292419554084"><ele>1273.4</ele><time>2026-04-26T12:09:14.999Z</time></trkpt><trkpt lat="45.83267557619126" lon="9.959375201411786"><ele>1273.2</ele><time>2026-04-26T12:09:15.999Z</time></trkpt><trkpt lat="45.83260916018937" lon="9.959534943544675"><ele>1273.0</ele><time>2026-04-26T12:09:17.999Z</time></trkpt><trkpt lat="45.8325503772845" lon="9.959689742147681"><ele>1271.0</ele><time>2026-04-26T12:09:19.999Z</time></trkpt><trkpt lat="45.832556570988515" lon="9.959882888786415"><ele>1269.0</ele><time>2026-04-26T12:09:21.999Z</time></trkpt><trkpt lat="45.832573130227814" lon="9.959998296688692"><ele>1267.0</ele><time>2026-04-26T12:09:22.999Z</time></trkpt><trkpt lat="45.832593820861874" lon="9.960123785588534"><ele>1265.0</ele><time>2026-04-26T12:09:23.999Z</time></trkpt><trkpt lat="45.832617151672224" lon="9.96023989864343"><ele>1263.0</ele><time>2026-04-26T12:09:24.999Z</time></trkpt><trkpt lat="45.83264054504489" lon="9.960350076427904"><ele>1262.8</ele><time>2026-04-26T12:09:25.999Z</time></trkpt><trkpt lat="45.83266780274176" lon="9.960468350244813"><ele>1262.6</ele><time>2026-04-26T12:09:26.999Z</time></trkpt><trkpt lat="45.83269527179916" lon="9.960583730987196"><ele>1262.4</ele><time>2026-04-26T12:09:27.999Z</time></trkpt><trkpt lat="45.83272538692765" lon="9.960706737229678"><ele>1262.2</ele><time>2026-04-26T12:09:28.999Z</time></trkpt><trkpt lat="45.83276343682739" lon="9.96084450056821"><ele>1262.0</ele><time>2026-04-26T12:09:29.999Z</time></trkpt><trkpt lat="45.83282387043084" lon="9.96097587998141"><ele>1261.0</ele><time>2026-04-26T12:09:30.999Z</time></trkpt><trkpt lat="45.83287429281062" lon="9.961095604309143"><ele>1260.0</ele><time>2026-04-26T12:09:31.999Z</time></trkpt><trkpt lat="45.83290608498314" lon="9.961230453403653"><ele>1259.0</ele><time>2026-04-26T12:09:32.999Z</time></trkpt><trkpt lat="45.832932448274526" lon="9.961363370660843"><ele>1258.0</ele><time>2026-04-26T12:09:33.999Z</time></trkpt><trkpt lat="45.83295359040855" lon="9.961486424900873"><ele>1257.0</ele><time>2026-04-26T12:09:34.999Z</time></trkpt><trkpt lat="45.832982087484176" lon="9.961599277989619"><ele>1256.0</ele><time>2026-04-26T12:09:35.999Z</time></trkpt><trkpt lat="45.832977428473285" lon="9.961716719314294"><ele>1255.0</ele><time>2026-04-26T12:09:36.999Z</time></trkpt><trkpt lat="45.832971088208446" lon="9.961834901785618"><ele>1254.0</ele><time>2026-04-26T12:09:37.998Z</time></trkpt><trkpt lat="45.832966994918934" lon="9.961952929265127"><ele>1253.0</ele><time>2026-04-26T12:09:38.998Z</time></trkpt><trkpt lat="45.83296449226736" lon="9.962068186367294"><ele>1252.0</ele><time>2026-04-26T12:09:39.998Z</time></trkpt><trkpt lat="45.8329717167395" lon="9.96217408309043"><ele>1251.0</ele><time>2026-04-26T12:09:41Z</time></trkpt><trkpt lat="45.83297238198089" lon="9.962276617462189"><ele>1251.0</ele><time>2026-04-26T12:09:42Z</time></trkpt><trkpt lat="45.83295256206349" lon="9.96237479252861"><ele>1251.0</ele><time>2026-04-26T12:09:43Z</time></trkpt><trkpt lat="45.83291639254392" lon="9.9625642264408"><ele>1251.0</ele><time>2026-04-26T12:09:45Z</time></trkpt><trkpt lat="45.83289161458556" lon="9.962652896017415"><ele>1251.0</ele><time>2026-04-26T12:09:46Z</time></trkpt><trkpt lat="45.83281499414575" lon="9.962823459264165"><ele>1251.0</ele><time>2026-04-26T12:09:48Z</time></trkpt><trkpt lat="45.832765553237785" lon="9.962895118769985"><ele>1250.8333333333333</ele><time>2026-04-26T12:09:49Z</time></trkpt><trkpt lat="45.83271308743736" lon="9.962956192851994"><ele>1250.6666666666667</ele><time>2026-04-26T12:09:50Z</time></trkpt><trkpt lat="45.832651175874624" lon="9.963038891588347"><ele>1250.5</ele><time>2026-04-26T12:09:51Z</time></trkpt><trkpt lat="45.8325757345246" lon="9.96308247888518"><ele>1250.3333333333335</ele><time>2026-04-26T12:09:52Z</time></trkpt><trkpt lat="45.832500073675064" lon="9.96311784997795"><ele>1250.1666666666667</ele><time>2026-04-26T12:09:53Z</time></trkpt><trkpt lat="45.83241737072554" lon="9.963161513825767"><ele>1250.0</ele><time>2026-04-26T12:09:54Z</time></trkpt><trkpt lat="45.832339445940285" lon="9.963201147998346"><ele>1250.8333333333335</ele><time>2026-04-26T12:09:55Z</time></trkpt><trkpt lat="45.83225608444794" lon="9.963233829818417"><ele>1251.6666666666667</ele><time>2026-04-26T12:09:56Z</time></trkpt><trkpt lat="45.83217623374507" lon="9.96327010484252"><ele>1252.5</ele><time>2026-04-26T12:09:57Z</time></trkpt><trkpt lat="45.83209773187845" lon="9.963314134279525"><ele>1253.3333333333333</ele><time>2026-04-26T12:09:58Z</time></trkpt><trkpt lat="45.83201660201535" lon="9.963361914983336"><ele>1254.1666666666665</ele><time>2026-04-26T12:09:59Z</time></trkpt><trkpt lat="45.831928818872235" lon="9.963412421244415"><ele>1255.0</ele><time>2026-04-26T12:10:00Z</time></trkpt><trkpt lat="45.83184199705907" lon="9.963461062294892"><ele>1258.0</ele><time>2026-04-26T12:10:01Z</time></trkpt><trkpt lat="45.8317709495771" lon="9.96351051373579"><ele>1261.0</ele><time>2026-04-26T12:10:02Z</time></trkpt><trkpt lat="45.83169872688283" lon="9.963573428332566"><ele>1264.0</ele><time>2026-04-26T12:10:03Z</time></trkpt><trkpt lat="45.831621672598075" lon="9.963633565536242"><ele>1267.0</ele><time>2026-04-26T12:10:04Z</time></trkpt><trkpt lat="45.83153831547667" lon="9.963695880712464"><ele>1270.0</ele><time>2026-04-26T12:10:05Z</time></trkpt><trkpt lat="45.83146331594377" lon="9.963770717731558"><ele>1273.0</ele><time>2026-04-26T12:10:06Z</time></trkpt><trkpt lat="45.8313845659681" lon="9.963810747215984"><ele>1273.0</ele><time>2026-04-26T12:10:07Z</time></trkpt><trkpt lat="45.83130700809785" lon="9.963815937070612"><ele>1273.0</ele><time>2026-04-26T12:10:08Z</time></trkpt><trkpt lat="45.831222125610616" lon="9.963833436375836"><ele>1273.0</ele><time>2026-04-26T12:10:09Z</time></trkpt><trkpt lat="45.83114032558128" lon="9.963887346353607"><ele>1273.0</ele><time>2026-04-26T12:10:10Z</time></trkpt><trkpt lat="45.83104590079525" lon="9.963957244585767"><ele>1273.0</ele><time>2026-04-26T12:10:11Z</time></trkpt><trkpt lat="45.83097530831097" lon="9.96399491327721"><ele>1273.0</ele><time>2026-04-26T12:10:12Z</time></trkpt><trkpt lat="45.83090369163324" lon="9.964033128481038"><ele>1274.2</ele><time>2026-04-26T12:10:13Z</time></trkpt><trkpt lat="45.8308273958198" lon="9.964076894319206"><ele>1275.4</ele><time>2026-04-26T12:10:14Z</time></trkpt><trkpt lat="45.8307449663928" lon="9.964128365486124"><ele>1276.6000000000001</ele><time>2026-04-26T12:10:15Z</time></trkpt><trkpt lat="45.83065982149583" lon="9.96418875911478"><ele>1277.8</ele><time>2026-04-26T12:10:16Z</time></trkpt><trkpt lat="45.83058105224395" lon="9.964277115091553"><ele>1279.0</ele><time>2026-04-26T12:10:17Z</time></trkpt><trkpt lat="45.830506876444865" lon="9.96434656484109"><ele>1279.0</ele><time>2026-04-26T12:10:18Z</time></trkpt><trkpt lat="45.83043338090434" lon="9.964419740121626"><ele>1279.0</ele><time>2026-04-26T12:10:19Z</time></trkpt><trkpt lat="45.83036878170654" lon="9.964502155391441"><ele>1279.0</ele><time>2026-04-26T12:10:20Z</time></trkpt><trkpt lat="45.83029888569197" lon="9.964587751654198"><ele>1279.0</ele><time>2026-04-26T12:10:21Z</time></trkpt><trkpt lat="45.83023534565401" lon="9.964674971260068"><ele>1279.0</ele><time>2026-04-26T12:10:22Z</time></trkpt><trkpt lat="45.83017696491931" lon="9.964770452431333"><ele>1279.0</ele><time>2026-04-26T12:10:23Z</time></trkpt><trkpt lat="45.83013545306723" lon="9.96486432084175"><ele>1277.0</ele><time>2026-04-26T12:10:24Z</time></trkpt><trkpt lat="45.83008606177588" lon="9.964947782132946"><ele>1275.0</ele><time>2026-04-26T12:10:25Z</time></trkpt><trkpt lat="45.830035261955445" lon="9.965033623542228"><ele>1273.0</ele><time>2026-04-26T12:10:26Z</time></trkpt><trkpt lat="45.8299672294433" lon="9.965118679621384"><ele>1271.0</ele><time>2026-04-26T12:10:27Z</time></trkpt><trkpt lat="45.82992932205616" lon="9.965230835108075"><ele>1269.0</ele><time>2026-04-26T12:10:28Z</time></trkpt><trkpt lat="45.829889904658714" lon="9.965328848059263"><ele>1267.0</ele><time>2026-04-26T12:10:29Z</time></trkpt><trkpt lat="45.829843052085245" lon="9.965414182373591"><ele>1267.0</ele><time>2026-04-26T12:10:30Z</time></trkpt><trkpt lat="45.82979329088342" lon="9.965506831126811"><ele>1267.0</ele><time>2026-04-26T12:10:31Z</time></trkpt><trkpt lat="45.8297304224323" lon="9.965601943576042"><ele>1267.0</ele><time>2026-04-26T12:10:32Z</time></trkpt><trkpt lat="45.82968813150987" lon="9.9656784043583"><ele>1267.0</ele><time>2026-04-26T12:10:32.999Z</time></trkpt><trkpt lat="45.82961130884344" lon="9.965874762508047"><ele>1267.0</ele><time>2026-04-26T12:10:34.999Z</time></trkpt><trkpt lat="45.829591093145766" lon="9.96600153599893"><ele>1268.0</ele><time>2026-04-26T12:10:35.999Z</time></trkpt><trkpt lat="45.82957408795911" lon="9.966121493674247"><ele>1269.0</ele><time>2026-04-26T12:10:36.999Z</time></trkpt><trkpt lat="45.82954832133525" lon="9.966243696946671"><ele>1270.0</ele><time>2026-04-26T12:10:37.999Z</time></trkpt><trkpt lat="45.82954446199103" lon="9.966394207342566"><ele>1271.0</ele><time>2026-04-26T12:10:38.999Z</time></trkpt><trkpt lat="45.82954216873607" lon="9.96655677649489"><ele>1272.0</ele><time>2026-04-26T12:10:39.999Z</time></trkpt><trkpt lat="45.82951995298868" lon="9.966707401105735"><ele>1272.8333333333333</ele><time>2026-04-26T12:10:40.999Z</time></trkpt><trkpt lat="45.82952665140784" lon="9.966845238098317"><ele>1273.6666666666667</ele><time>2026-04-26T12:10:41.999Z</time></trkpt><trkpt lat="45.829507407564456" lon="9.966972880905644"><ele>1274.5</ele><time>2026-04-26T12:10:42.999Z</time></trkpt><trkpt lat="45.829478313576935" lon="9.967072519276988"><ele>1275.3333333333335</ele><time>2026-04-26T12:10:43.999Z</time></trkpt><trkpt lat="45.82945635861772" lon="9.967168208988886"><ele>1276.1666666666667</ele><time>2026-04-26T12:10:44.999Z</time></trkpt><trkpt lat="45.8294089184637" lon="9.967238970241683"><ele>1277.0</ele><time>2026-04-26T12:10:45.999Z</time></trkpt><trkpt lat="45.829334382031405" lon="9.967270831990245"><ele>1275.6</ele><time>2026-04-26T12:10:46.999Z</time></trkpt><trkpt lat="45.8292577495549" lon="9.967290902529912"><ele>1274.2</ele><time>2026-04-26T12:10:47.999Z</time></trkpt><trkpt lat="45.82916580150746" lon="9.967332758717106"><ele>1272.8</ele><time>2026-04-26T12:10:48.999Z</time></trkpt><trkpt lat="45.829075657918985" lon="9.967385553781584"><ele>1271.4</ele><time>2026-04-26T12:10:49.999Z</time></trkpt><trkpt lat="45.82898084786579" lon="9.967454932000916"><ele>1270.0</ele><time>2026-04-26T12:10:50.999Z</time></trkpt><trkpt lat="45.828896950590035" lon="9.967542444575843"><ele>1270.0</ele><time>2026-04-26T12:10:51.999Z</time></trkpt><trkpt lat="45.82881854529549" lon="9.967638150830048"><ele>1270.0</ele><time>2026-04-26T12:10:52.999Z</time></trkpt><trkpt lat="45.828746454040235" lon="9.967730100703417"><ele>1270.0</ele><time>2026-04-26T12:10:53.999Z</time></trkpt><trkpt lat="45.82866828616841" lon="9.967808185763172"><ele>1270.0</ele><time>2026-04-26T12:10:54.999Z</time></trkpt><trkpt lat="45.82859970531389" lon="9.967867580118403"><ele>1270.0</ele><time>2026-04-26T12:10:55.999Z</time></trkpt><trkpt lat="45.82857012074453" lon="9.967952461955138"><ele>1270.0</ele><time>2026-04-26T12:10:56.999Z</time></trkpt><trkpt lat="45.82852779959195" lon="9.968023013941076"><ele>1270.0</ele><time>2026-04-26T12:10:57.999Z</time></trkpt><trkpt lat="45.828502360639156" lon="9.96813928778498"><ele>1270.0</ele><time>2026-04-26T12:10:58.999Z</time></trkpt><trkpt lat="45.82846602417355" lon="9.968255440456288"><ele>1270.0</ele><time>2026-04-26T12:10:59.999Z</time></trkpt><trkpt lat="45.82843511171306" lon="9.968375763292705"><ele>1270.0</ele><time>2026-04-26T12:11:00.999Z</time></trkpt><trkpt lat="45.82841578665808" lon="9.96851870679395"><ele>1270.0</ele><time>2026-04-26T12:11:01.999Z</time></trkpt><trkpt lat="45.82838378260591" lon="9.968658914600772"><ele>1268.0</ele><time>2026-04-26T12:11:02.999Z</time></trkpt><trkpt lat="45.82836709734347" lon="9.968775597387513"><ele>1266.0</ele><time>2026-04-26T12:11:03.999Z</time></trkpt><trkpt lat="45.8283563637138" lon="9.96889165275876"><ele>1264.0</ele><time>2026-04-26T12:11:04.999Z</time></trkpt><trkpt lat="45.82836863778701" lon="9.969014573157278"><ele>1262.0</ele><time>2026-04-26T12:11:05.999Z</time></trkpt><trkpt lat="45.82837267179301" lon="9.969136364069712"><ele>1260.0</ele><time>2026-04-26T12:11:06.999Z</time></trkpt><trkpt lat="45.82835553084315" lon="9.969257701006654"><ele>1258.0</ele><time>2026-04-26T12:11:07.999Z</time></trkpt><trkpt lat="45.828340625921584" lon="9.969379602116922"><ele>1258.0</ele><time>2026-04-26T12:11:08.999Z</time></trkpt><trkpt lat="45.82831254201616" lon="9.969531646170172"><ele>1258.0</ele><time>2026-04-26T12:11:09.999Z</time></trkpt><trkpt lat="45.82827172572676" lon="9.96970317825654"><ele>1258.0</ele><time>2026-04-26T12:11:10.999Z</time></trkpt><trkpt lat="45.82824579486334" lon="9.969828380533272"><ele>1258.0</ele><time>2026-04-26T12:11:11.999Z</time></trkpt><trkpt lat="45.82821051407949" lon="9.969977043536373"><ele>1258.0</ele><time>2026-04-26T12:11:12.999Z</time></trkpt><trkpt lat="45.82818055157937" lon="9.970107866348943"><ele>1259.2</ele><time>2026-04-26T12:11:13.999Z</time></trkpt><trkpt lat="45.82816207013653" lon="9.970270386075018"><ele>1260.4</ele><time>2026-04-26T12:11:14.999Z</time></trkpt><trkpt lat="45.82813418523446" lon="9.970434444439258"><ele>1261.6000000000001</ele><time>2026-04-26T12:11:15.999Z</time></trkpt><trkpt lat="45.82810824360853" lon="9.970569681105841"><ele>1262.8</ele><time>2026-04-26T12:11:16.999Z</time></trkpt><trkpt lat="45.828071158885926" lon="9.9707087170828"><ele>1264.0</ele><time>2026-04-26T12:11:17.999Z</time></trkpt><trkpt lat="45.82802807583462" lon="9.970855576589992"><ele>1266.0</ele><time>2026-04-26T12:11:18.999Z</time></trkpt><trkpt lat="45.827988772661726" lon="9.971073331235733"><ele>1268.0</ele><time>2026-04-26T12:11:19.999Z</time></trkpt><trkpt lat="45.82793686261687" lon="9.97127238642928"><ele>1270.0</ele><time>2026-04-26T12:11:20.999Z</time></trkpt><trkpt lat="45.82790246286224" lon="9.971400438846628"><ele>1272.0</ele><time>2026-04-26T12:11:21.999Z</time></trkpt><trkpt lat="45.82786317895567" lon="9.971530718998682"><ele>1272.0</ele><time>2026-04-26T12:11:22.999Z</time></trkpt><trkpt lat="45.82783626999139" lon="9.971661585635946"><ele>1272.0</ele><time>2026-04-26T12:11:23.999Z</time></trkpt><trkpt lat="45.82778169685887" lon="9.971786227842246"><ele>1272.0</ele><time>2026-04-26T12:11:24.999Z</time></trkpt><trkpt lat="45.82773014916428" lon="9.971906524799277"><ele>1272.0</ele><time>2026-04-26T12:11:25.999Z</time></trkpt><trkpt lat="45.82768124487163" lon="9.972023210530407"><ele>1272.0</ele><time>2026-04-26T12:11:26.999Z</time></trkpt><trkpt lat="45.82761359911649" lon="9.972131716869633"><ele>1270.5</ele><time>2026-04-26T12:11:27.999Z</time></trkpt><trkpt lat="45.827545437988725" lon="9.972248070812274"><ele>1269.0</ele><time>2026-04-26T12:11:28.999Z</time></trkpt><trkpt lat="45.827511696596346" lon="9.97238532631006"><ele>1267.5</ele><time>2026-04-26T12:11:29.999Z</time></trkpt><trkpt lat="45.82747895357947" lon="9.972488084300366"><ele>1266.0</ele><time>2026-04-26T12:11:30.999Z</time></trkpt><trkpt lat="45.827457136182474" lon="9.972579464642909"><ele>1264.5</ele><time>2026-04-26T12:11:31.999Z</time></trkpt><trkpt lat="45.82743957430029" lon="9.972683613878566"><ele>1263.0</ele><time>2026-04-26T12:11:32.999Z</time></trkpt><trkpt lat="45.82744845259658" lon="9.97278689209062"><ele>1263.0</ele><time>2026-04-26T12:11:33.999Z</time></trkpt><trkpt lat="45.827451341385775" lon="9.972913168908907"><ele>1263.0</ele><time>2026-04-26T12:11:34.999Z</time></trkpt><trkpt lat="45.827460569877665" lon="9.973072496096593"><ele>1263.0</ele><time>2026-04-26T12:11:35.999Z</time></trkpt><trkpt lat="45.827457146238324" lon="9.973246965017067"><ele>1263.0</ele><time>2026-04-26T12:11:36.999Z</time></trkpt><trkpt lat="45.82745105641142" lon="9.973376471114008"><ele>1263.0</ele><time>2026-04-26T12:11:37.999Z</time></trkpt><trkpt lat="45.827443260973396" lon="9.973514676619056"><ele>1263.8333333333333</ele><time>2026-04-26T12:11:38.999Z</time></trkpt><trkpt lat="45.827442631740354" lon="9.973647060008467"><ele>1264.6666666666667</ele><time>2026-04-26T12:11:39.999Z</time></trkpt><trkpt lat="45.82741650943868" lon="9.973775771021852"><ele>1265.5</ele><time>2026-04-26T12:11:40.999Z</time></trkpt><trkpt lat="45.82740947774706" lon="9.973873869470886"><ele>1266.3333333333335</ele><time>2026-04-26T12:11:41.999Z</time></trkpt><trkpt lat="45.82739664469224" lon="9.973973364683427"><ele>1267.1666666666667</ele><time>2026-04-26T12:11:42.999Z</time></trkpt><trkpt lat="45.827390930151225" lon="9.974089625995173"><ele>1268.0</ele><time>2026-04-26T12:11:43.999Z</time></trkpt><trkpt lat="45.8273778983798" lon="9.9742316529955"><ele>1269.2</ele><time>2026-04-26T12:11:44.999Z</time></trkpt><trkpt lat="45.82736525419533" lon="9.974364704338354"><ele>1270.4</ele><time>2026-04-26T12:11:45.999Z</time></trkpt><trkpt lat="45.82733758028113" lon="9.974513831303527"><ele>1271.6000000000001</ele><time>2026-04-26T12:11:47Z</time></trkpt><trkpt lat="45.82731114505158" lon="9.974655339353278"><ele>1272.8</ele><time>2026-04-26T12:11:48Z</time></trkpt><trkpt lat="45.82728306496245" lon="9.974812080942776"><ele>1274.0</ele><time>2026-04-26T12:11:49Z</time></trkpt><trkpt lat="45.827230617355035" lon="9.974943416130074"><ele>1275.3333333333335</ele><time>2026-04-26T12:11:50Z</time></trkpt><trkpt lat="45.8271693857238" lon="9.975031166135095"><ele>1276.6666666666667</ele><time>2026-04-26T12:11:51Z</time></trkpt><trkpt lat="45.82711629714997" lon="9.975147896603076"><ele>1278.0</ele><time>2026-04-26T12:11:52Z</time></trkpt><trkpt lat="45.82706220680028" lon="9.975245392879065"><ele>1279.3333333333333</ele><time>2026-04-26T12:11:53Z</time></trkpt><trkpt lat="45.82701424920865" lon="9.975336968422642"><ele>1280.6666666666665</ele><time>2026-04-26T12:11:54Z</time></trkpt><trkpt lat="45.826970311958966" lon="9.975436502463586"><ele>1282.0</ele><time>2026-04-26T12:11:55Z</time></trkpt><trkpt lat="45.826936779556526" lon="9.975562239292826"><ele>1282.0</ele><time>2026-04-26T12:11:56Z</time></trkpt><trkpt lat="45.82690317196179" lon="9.97567800162508"><ele>1282.0</ele><time>2026-04-26T12:11:57Z</time></trkpt><trkpt lat="45.82690760640964" lon="9.975782611099863"><ele>1282.0</ele><time>2026-04-26T12:11:58Z</time></trkpt><trkpt lat="45.82688978383057" lon="9.975903483646071"><ele>1282.0</ele><time>2026-04-26T12:11:59Z</time></trkpt><trkpt lat="45.82687526688477" lon="9.976037124627993"><ele>1282.0</ele><time>2026-04-26T12:12:00Z</time></trkpt><trkpt lat="45.82687354734964" lon="9.976139695736986"><ele>1282.0</ele><time>2026-04-26T12:12:01Z</time></trkpt><trkpt lat="45.82684578957929" lon="9.976253126428114"><ele>1282.1999999999998</ele><time>2026-04-26T12:12:02Z</time></trkpt><trkpt lat="45.82683151926255" lon="9.976361050168295"><ele>1282.4</ele><time>2026-04-26T12:12:03Z</time></trkpt><trkpt lat="45.82678056830143" lon="9.976489410204241"><ele>1282.6</ele><time>2026-04-26T12:12:04Z</time></trkpt><trkpt lat="45.826716322702644" lon="9.976564563610667"><ele>1282.8000000000002</ele><time>2026-04-26T12:12:05Z</time></trkpt><trkpt lat="45.826661318620765" lon="9.976616396189026"><ele>1283.0</ele><time>2026-04-26T12:12:06Z</time></trkpt><trkpt lat="45.82653647368004" lon="9.976672126221928"><ele>1280.6000000000001</ele><time>2026-04-26T12:12:08Z</time></trkpt><trkpt lat="45.82645030956216" lon="9.976652405152844"><ele>1278.2</ele><time>2026-04-26T12:12:09Z</time></trkpt><trkpt lat="45.82635397453083" lon="9.976640174387434"><ele>1275.8</ele><time>2026-04-26T12:12:10Z</time></trkpt><trkpt lat="45.82625032117514" lon="9.976636768974045"><ele>1273.4</ele><time>2026-04-26T12:12:11Z</time></trkpt><trkpt lat="45.826157631517354" lon="9.976622026170501"><ele>1271.0</ele><time>2026-04-26T12:12:12Z</time></trkpt><trkpt lat="45.82605553927894" lon="9.976633770280582"><ele>1269.8333333333335</ele><time>2026-04-26T12:12:13Z</time></trkpt><trkpt lat="45.82596479891257" lon="9.976657096092671"><ele>1268.6666666666667</ele><time>2026-04-26T12:12:14Z</time></trkpt><trkpt lat="45.82589807230662" lon="9.976691764565398"><ele>1267.5</ele><time>2026-04-26T12:12:15Z</time></trkpt><trkpt lat="45.825829794118484" lon="9.976767034889392"><ele>1266.3333333333333</ele><time>2026-04-26T12:12:16Z</time></trkpt><trkpt lat="45.82576470015552" lon="9.97682640168117"><ele>1265.1666666666665</ele><time>2026-04-26T12:12:17Z</time></trkpt><trkpt lat="45.82573077182999" lon="9.976940735638571"><ele>1264.0</ele><time>2026-04-26T12:12:18Z</time></trkpt><trkpt lat="45.825682067189256" lon="9.977057324068136"><ele>1264.0</ele><time>2026-04-26T12:12:19Z</time></trkpt><trkpt lat="45.82561465624221" lon="9.977129949870683"><ele>1264.0</ele><time>2026-04-26T12:12:20Z</time></trkpt><trkpt lat="45.825549733792265" lon="9.977239010057584"><ele>1264.0</ele><time>2026-04-26T12:12:21Z</time></trkpt><trkpt lat="45.82546722243216" lon="9.977306816109813"><ele>1264.0</ele><time>2026-04-26T12:12:22Z</time></trkpt><trkpt lat="45.825391981554176" lon="9.977374995005386"><ele>1264.0</ele><time>2026-04-26T12:12:23Z</time></trkpt><trkpt lat="45.82533701487409" lon="9.977470372364694"><ele>1266.6000000000001</ele><time>2026-04-26T12:12:24Z</time></trkpt><trkpt lat="45.825269820924525" lon="9.977558072173188"><ele>1269.2</ele><time>2026-04-26T12:12:25Z</time></trkpt><trkpt lat="45.825221499670135" lon="9.977678566834108"><ele>1271.8000000000002</ele><time>2026-04-26T12:12:26Z</time></trkpt><trkpt lat="45.82517941627861" lon="9.977800391560208"><ele>1274.4</ele><time>2026-04-26T12:12:27Z</time></trkpt><trkpt lat="45.825120706781625" lon="9.977922766061605"><ele>1277.0</ele><time>2026-04-26T12:12:28Z</time></trkpt><trkpt lat="45.82507346973152" lon="9.978047498906315"><ele>1274.0</ele><time>2026-04-26T12:12:29Z</time></trkpt><trkpt lat="45.82501958227357" lon="9.978190921540381"><ele>1271.0</ele><time>2026-04-26T12:12:30Z</time></trkpt><trkpt lat="45.82496452665732" lon="9.978336402377828"><ele>1268.0</ele><time>2026-04-26T12:12:31Z</time></trkpt><trkpt lat="45.82491715115915" lon="9.97846065541758"><ele>1265.0</ele><time>2026-04-26T12:12:32Z</time></trkpt><trkpt lat="45.82487418595208" lon="9.978591060077914"><ele>1262.0</ele><time>2026-04-26T12:12:33Z</time></trkpt><trkpt lat="45.82483460549231" lon="9.978692970345898"><ele>1262.0</ele><time>2026-04-26T12:12:34Z</time></trkpt><trkpt lat="45.82478240329146" lon="9.978800260303329"><ele>1262.0</ele><time>2026-04-26T12:12:35Z</time></trkpt><trkpt lat="45.824761632540934" lon="9.978936080504747"><ele>1262.0</ele><time>2026-04-26T12:12:36Z</time></trkpt><trkpt lat="45.82474437945647" lon="9.979061635295466"><ele>1262.0</ele><time>2026-04-26T12:12:36.999Z</time></trkpt><trkpt lat="45.82471715565947" lon="9.979171218611835"><ele>1262.0</ele><time>2026-04-26T12:12:37.999Z</time></trkpt><trkpt lat="45.82467728615446" lon="9.97928848722072"><ele>1262.0</ele><time>2026-04-26T12:12:38.999Z</time></trkpt><trkpt lat="45.824645571647544" lon="9.979411238151513"><ele>1263.5</ele><time>2026-04-26T12:12:39.999Z</time></trkpt><trkpt lat="45.824598471100465" lon="9.979522319384907"><ele>1265.0</ele><time>2026-04-26T12:12:40.999Z</time></trkpt><trkpt lat="45.824570698007236" lon="9.979636948384805"><ele>1266.5</ele><time>2026-04-26T12:12:41.999Z</time></trkpt><trkpt lat="45.82453201019588" lon="9.979738797136719"><ele>1268.0</ele><time>2026-04-26T12:12:42.999Z</time></trkpt><trkpt lat="45.82448759797885" lon="9.979830647371877"><ele>1269.5</ele><time>2026-04-26T12:12:43.999Z</time></trkpt><trkpt lat="45.82443590814678" lon="9.979887150014319"><ele>1271.0</ele><time>2026-04-26T12:12:44.999Z</time></trkpt><trkpt lat="45.8243701740056" lon="9.979904247269577"><ele>1266.1666666666667</ele><time>2026-04-26T12:12:45.999Z</time></trkpt><trkpt lat="45.824281857815315" lon="9.979880417995487"><ele>1261.3333333333335</ele><time>2026-04-26T12:12:46.999Z</time></trkpt><trkpt lat="45.824197205457594" lon="9.979852156631456"><ele>1256.5</ele><time>2026-04-26T12:12:47.999Z</time></trkpt><trkpt lat="45.82413852148986" lon="9.979816879531983"><ele>1251.6666666666667</ele><time>2026-04-26T12:12:48.999Z</time></trkpt><trkpt lat="45.82407328725974" lon="9.979796212678691"><ele>1246.8333333333333</ele><time>2026-04-26T12:12:49.999Z</time></trkpt><trkpt lat="45.824006232516176" lon="9.97974722160413"><ele>1242.0</ele><time>2026-04-26T12:12:51.999Z</time></trkpt><trkpt lat="45.8239186847663" lon="9.979728073074298"><ele>1242.0</ele><time>2026-04-26T12:13:50.999Z</time></trkpt><trkpt lat="45.82384227108115" lon="9.979706914240804"><ele>1242.0</ele><time>2026-04-26T12:13:53Z</time></trkpt><trkpt lat="45.823730264410756" lon="9.979706413930407"><ele>1242.0</ele><time>2026-04-26T12:13:55Z</time></trkpt><trkpt lat="45.8236558262463" lon="9.979712563773026"><ele>1242.0</ele><time>2026-04-26T12:13:56Z</time></trkpt><trkpt lat="45.82358048148373" lon="9.979722114802888"><ele>1242.0</ele><time>2026-04-26T12:13:57Z</time></trkpt><trkpt lat="45.823505344355" lon="9.979745818984973"><ele>1242.0</ele><time>2026-04-26T12:13:58Z</time></trkpt><trkpt lat="45.82341205589619" lon="9.979768935588508"><ele>1240.6</ele><time>2026-04-26T12:13:59Z</time></trkpt><trkpt lat="45.82333001627508" lon="9.979792743477189"><ele>1239.2</ele><time>2026-04-26T12:14:00Z</time></trkpt><trkpt lat="45.82323931118987" lon="9.979787853864169"><ele>1237.8</ele><time>2026-04-26T12:14:01Z</time></trkpt><trkpt lat="45.82314597440032" lon="9.979769437950226"><ele>1236.4</ele><time>2026-04-26T12:14:02Z</time></trkpt><trkpt lat="45.82305208520574" lon="9.9797528298081"><ele>1235.0</ele><time>2026-04-26T12:14:03Z</time></trkpt><trkpt lat="45.82296429592929" lon="9.979732533389356"><ele>1235.0</ele><time>2026-04-26T12:14:04Z</time></trkpt><trkpt lat="45.82288605138" lon="9.979739938453964"><ele>1235.0</ele><time>2026-04-26T12:14:05Z</time></trkpt><trkpt lat="45.82280368538967" lon="9.979737462432974"><ele>1235.0</ele><time>2026-04-26T12:14:06Z</time></trkpt><trkpt lat="45.82272909602932" lon="9.979745776677582"><ele>1235.0</ele><time>2026-04-26T12:14:07Z</time></trkpt><trkpt lat="45.82266402820374" lon="9.979752213786185"><ele>1235.0</ele><time>2026-04-26T12:14:08Z</time></trkpt><trkpt lat="45.82251758958375" lon="9.979763950108968"><ele>1235.0</ele><time>2026-04-26T12:14:10Z</time></trkpt><trkpt lat="45.822412390043816" lon="9.979719943161086"><ele>1234.5</ele><time>2026-04-26T12:14:11Z</time></trkpt><trkpt lat="45.82231145094836" lon="9.979664170730933"><ele>1234.0</ele><time>2026-04-26T12:14:12Z</time></trkpt><trkpt lat="45.82223045437332" lon="9.979655977013833"><ele>1233.5</ele><time>2026-04-26T12:14:13Z</time></trkpt><trkpt lat="45.82216522376911" lon="9.979688817511523"><ele>1233.0</ele><time>2026-04-26T12:14:14Z</time></trkpt><trkpt lat="45.82211111916277" lon="9.979760634223135"><ele>1232.5</ele><time>2026-04-26T12:14:15Z</time></trkpt><trkpt lat="45.82208016765144" lon="9.979845920407985"><ele>1232.0</ele><time>2026-04-26T12:14:16Z</time></trkpt><trkpt lat="45.82194465240698" lon="9.979930018442007"><ele>1230.25</ele><time>2026-04-26T12:14:18Z</time></trkpt><trkpt lat="45.82185876600492" lon="9.980021143266379"><ele>1228.5</ele><time>2026-04-26T12:14:19Z</time></trkpt><trkpt lat="45.82173809514813" lon="9.980100278164745"><ele>1226.75</ele><time>2026-04-26T12:14:20Z</time></trkpt><trkpt lat="45.82166537115865" lon="9.980178157727181"><ele>1225.0</ele><time>2026-04-26T12:14:21Z</time></trkpt><trkpt lat="45.821564552707486" lon="9.980272806061798"><ele>1225.0</ele><time>2026-04-26T12:14:22Z</time></trkpt><trkpt lat="45.82148826869446" lon="9.980370967431188"><ele>1225.0</ele><time>2026-04-26T12:14:23Z</time></trkpt><trkpt lat="45.821415442658136" lon="9.980481308630592"><ele>1225.0</ele><time>2026-04-26T12:14:24Z</time></trkpt><trkpt lat="45.821362968489524" lon="9.980561555446924"><ele>1225.0</ele><time>2026-04-26T12:14:25Z</time></trkpt><trkpt lat="45.82128917236427" lon="9.980657510841842"><ele>1225.0</ele><time>2026-04-26T12:14:26Z</time></trkpt><trkpt lat="45.82121285103269" lon="9.980733924713682"><ele>1225.0</ele><time>2026-04-26T12:14:27Z</time></trkpt><trkpt lat="45.82115038728882" lon="9.980757006811162"><ele>1225.0</ele><time>2026-04-26T12:14:28Z</time></trkpt><trkpt lat="45.82109039510404" lon="9.980800447430283"><ele>1225.0</ele><time>2026-04-26T12:14:29Z</time></trkpt><trkpt lat="45.821028195050154" lon="9.980835617274877"><ele>1225.0</ele><time>2026-04-26T12:14:30Z</time></trkpt><trkpt lat="45.820963786491674" lon="9.980878378934968"><ele>1225.0</ele><time>2026-04-26T12:14:31Z</time></trkpt><trkpt lat="45.82089073177079" lon="9.980918862990782"><ele>1225.0</ele><time>2026-04-26T12:14:32Z</time></trkpt><trkpt lat="45.82082940185033" lon="9.980958663870982"><ele>1225.0</ele><time>2026-04-26T12:14:33Z</time></trkpt><trkpt lat="45.820730357321544" lon="9.981020094449402"><ele>1224.1666666666665</ele><time>2026-04-26T12:14:35Z</time></trkpt><trkpt lat="45.82062368602823" lon="9.981055197069347"><ele>1223.3333333333333</ele><time>2026-04-26T12:14:37Z</time></trkpt><trkpt lat="45.820559744396775" lon="9.981047579749138"><ele>1222.5</ele><time>2026-04-26T12:14:38Z</time></trkpt><trkpt lat="45.82049821691197" lon="9.98101838128062"><ele>1221.6666666666667</ele><time>2026-04-26T12:14:39Z</time></trkpt><trkpt lat="45.82043513404661" lon="9.98099204289823"><ele>1220.8333333333335</ele><time>2026-04-26T12:14:40Z</time></trkpt><trkpt lat="45.82031916944345" lon="9.981026966052514"><ele>1220.0</ele><time>2026-04-26T12:14:42Z</time></trkpt><trkpt lat="45.82024507218003" lon="9.981002512613783"><ele>1220.0</ele><time>2026-04-26T12:14:43.999Z</time></trkpt><trkpt lat="45.820200990319634" lon="9.980851229502946"><ele>1220.0</ele><time>2026-04-26T12:14:45.999Z</time></trkpt><trkpt lat="45.82016439040182" lon="9.980765313413047"><ele>1220.0</ele><time>2026-04-26T12:14:46.999Z</time></trkpt><trkpt lat="45.82012301708614" lon="9.980670850904627"><ele>1220.0</ele><time>2026-04-26T12:14:47.999Z</time></trkpt><trkpt lat="45.8200683651156" lon="9.980521958747786"><ele>1220.0</ele><time>2026-04-26T12:14:49.999Z</time></trkpt><trkpt lat="45.82004070953845" lon="9.980382529578241"><ele>1220.8</ele><time>2026-04-26T12:14:51.999Z</time></trkpt><trkpt lat="45.81999325450258" lon="9.980221918597252"><ele>1221.6</ele><time>2026-04-26T12:14:53.999Z</time></trkpt><trkpt lat="45.81995594771908" lon="9.980095363509186"><ele>1222.4</ele><time>2026-04-26T12:14:55.999Z</time></trkpt><trkpt lat="45.81991082885706" lon="9.979955186368366"><ele>1223.2</ele><time>2026-04-26T12:14:57.999Z</time></trkpt><trkpt lat="45.81988485437172" lon="9.979849534722312"><ele>1224.0</ele><time>2026-04-26T12:14:58.999Z</time></trkpt><trkpt lat="45.81985805743807" lon="9.979739923805196"><ele>1226.6666666666667</ele><time>2026-04-26T12:14:59.999Z</time></trkpt><trkpt lat="45.81977524721512" lon="9.979665215193364"><ele>1229.3333333333333</ele><time>2026-04-26T12:15:00.999Z</time></trkpt><trkpt lat="45.81974582122299" lon="9.979566405214962"><ele>1232.0</ele><time>2026-04-26T12:15:01.999Z</time></trkpt><trkpt lat="45.81970905909926" lon="9.97944520874691"><ele>1234.6666666666665</ele><time>2026-04-26T12:15:03.999Z</time></trkpt><trkpt lat="45.81968228663621" lon="9.979362260272783"><ele>1237.3333333333333</ele><time>2026-04-26T12:15:04.999Z</time></trkpt><trkpt lat="45.81964020027824" lon="9.97924980901332"><ele>1240.0</ele><time>2026-04-26T12:15:05.999Z</time></trkpt><trkpt lat="45.81959181669216" lon="9.979129597497643"><ele>1238.2</ele><time>2026-04-26T12:15:06.999Z</time></trkpt><trkpt lat="45.81953292177837" lon="9.979015008516514"><ele>1236.4</ele><time>2026-04-26T12:15:07.999Z</time></trkpt><trkpt lat="45.81944341558488" lon="9.978937862023368"><ele>1234.6</ele><time>2026-04-26T12:15:08.999Z</time></trkpt><trkpt lat="45.81937435510369" lon="9.978853917146932"><ele>1232.8</ele><time>2026-04-26T12:15:09.999Z</time></trkpt><trkpt lat="45.81929988849326" lon="9.978779180599767"><ele>1231.0</ele><time>2026-04-26T12:15:10.999Z</time></trkpt><trkpt lat="45.81921292319085" lon="9.97870871111977"><ele>1231.0</ele><time>2026-04-26T12:15:11.999Z</time></trkpt><trkpt lat="45.81910681186608" lon="9.978639500735248"><ele>1231.0</ele><time>2026-04-26T12:15:12.999Z</time></trkpt><trkpt lat="45.81904178755024" lon="9.978560152099014"><ele>1231.0</ele><time>2026-04-26T12:15:13.999Z</time></trkpt><trkpt lat="45.8189597164157" lon="9.978474706910651"><ele>1231.0</ele><time>2026-04-26T12:15:14.999Z</time></trkpt><trkpt lat="45.81889722351389" lon="9.97840566605732"><ele>1231.0</ele><time>2026-04-26T12:15:15.999Z</time></trkpt><trkpt lat="45.81884378928264" lon="9.9783340191447"><ele>1232.6666666666665</ele><time>2026-04-26T12:15:16.999Z</time></trkpt><trkpt lat="45.81878690218827" lon="9.978247950364741"><ele>1234.3333333333333</ele><time>2026-04-26T12:15:17.999Z</time></trkpt><trkpt lat="45.818720344695315" lon="9.978155697950637"><ele>1236.0</ele><time>2026-04-26T12:15:18.999Z</time></trkpt><trkpt lat="45.81866139873412" lon="9.978089840647526"><ele>1237.6666666666667</ele><time>2026-04-26T12:15:19.999Z</time></trkpt><trkpt lat="45.81858518087215" lon="9.978058550903079"><ele>1239.3333333333335</ele><time>2026-04-26T12:15:20.999Z</time></trkpt><trkpt lat="45.818510384739334" lon="9.97803613645485"><ele>1241.0</ele><time>2026-04-26T12:15:21.999Z</time></trkpt><trkpt lat="45.81844821929154" lon="9.97801364230311"><ele>1241.0</ele><time>2026-04-26T12:15:22.999Z</time></trkpt><trkpt lat="45.81834488163208" lon="9.977960808060725"><ele>1241.0</ele><time>2026-04-26T12:15:24.999Z</time></trkpt><trkpt lat="45.81831108214282" lon="9.977845067374098"><ele>1241.0</ele><time>2026-04-26T12:15:25.999Z</time></trkpt><trkpt lat="45.818258326644795" lon="9.97776996413391"><ele>1241.0</ele><time>2026-04-26T12:15:26.999Z</time></trkpt><trkpt lat="45.81819402697752" lon="9.97769508842082"><ele>1241.0</ele><time>2026-04-26T12:15:27.999Z</time></trkpt><trkpt lat="45.81811612560529" lon="9.9776094279629"><ele>1241.0</ele><time>2026-04-26T12:15:28.999Z</time></trkpt><trkpt lat="45.8180090274945" lon="9.977537783505678"><ele>1241.0</ele><time>2026-04-26T12:15:30.999Z</time></trkpt><trkpt lat="45.817933648631865" lon="9.977534665741846"><ele>1241.0</ele><time>2026-04-26T12:15:31.999Z</time></trkpt><trkpt lat="45.817848474445114" lon="9.977561344976694"><ele>1241.0</ele><time>2026-04-26T12:15:32.999Z</time></trkpt><trkpt lat="45.81773677865221" lon="9.977581868855005"><ele>1241.0</ele><time>2026-04-26T12:15:33.999Z</time></trkpt><trkpt lat="45.817632870705886" lon="9.977597710094578"><ele>1243.6</ele><time>2026-04-26T12:15:34.999Z</time></trkpt><trkpt lat="45.817526979112294" lon="9.977625448184204"><ele>1246.1999999999998</ele><time>2026-04-26T12:15:35.999Z</time></trkpt><trkpt lat="45.81743312213162" lon="9.977658490236239"><ele>1248.8000000000002</ele><time>2026-04-26T12:15:36.999Z</time></trkpt><trkpt lat="45.817369683645744" lon="9.977690223006022"><ele>1251.4</ele><time>2026-04-26T12:15:37.999Z</time></trkpt><trkpt lat="45.81728729291621" lon="9.977763966986206"><ele>1254.0</ele><time>2026-04-26T12:15:38.999Z</time></trkpt><trkpt lat="45.81724280995886" lon="9.977887762284054"><ele>1254.0</ele><time>2026-04-26T12:15:39.999Z</time></trkpt><trkpt lat="45.8171986979461" lon="9.978016421273278"><ele>1254.0</ele><time>2026-04-26T12:15:40.999Z</time></trkpt><trkpt lat="45.81716811020892" lon="9.978134058309408"><ele>1254.0</ele><time>2026-04-26T12:15:41.999Z</time></trkpt><trkpt lat="45.817138248766646" lon="9.978272686230868"><ele>1254.0</ele><time>2026-04-26T12:15:42.999Z</time></trkpt><trkpt lat="45.81711227135479" lon="9.978401644259122"><ele>1254.0</ele><time>2026-04-26T12:15:43.999Z</time></trkpt><trkpt lat="45.817087133657836" lon="9.978519973733782"><ele>1254.5</ele><time>2026-04-26T12:15:44.999Z</time></trkpt><trkpt lat="45.817060373877624" lon="9.978602359628509"><ele>1255.0</ele><time>2026-04-26T12:15:45.999Z</time></trkpt><trkpt lat="45.816964901313135" lon="9.978633786237175"><ele>1255.5</ele><time>2026-04-26T12:15:48.999Z</time></trkpt><trkpt lat="45.81690567985663" lon="9.978580029164926"><ele>1256.0</ele><time>2026-04-26T12:15:50.999Z</time></trkpt><trkpt lat="45.81683333455722" lon="9.978545633565725"><ele>1256.5</ele><time>2026-04-26T12:15:52.999Z</time></trkpt><trkpt lat="45.81676556302" lon="9.978513412197712"><ele>1257.0</ele><time>2026-04-26T12:15:53.999Z</time></trkpt><trkpt lat="45.816668356768524" lon="9.978508245647378"><ele>1257.0</ele><time>2026-04-26T12:15:54.999Z</time></trkpt><trkpt lat="45.81654573243216" lon="9.978555330291886"><ele>1257.0</ele><time>2026-04-26T12:15:56.999Z</time></trkpt><trkpt lat="45.816456574106866" lon="9.978593608096347"><ele>1257.0</ele><time>2026-04-26T12:15:59Z</time></trkpt><trkpt lat="45.81634470025057" lon="9.97852857953279"><ele>1257.0</ele><time>2026-04-26T12:16:01Z</time></trkpt><trkpt lat="45.81627464429422" lon="9.978499444553938"><ele>1257.0</ele><time>2026-04-26T12:16:02Z</time></trkpt><trkpt lat="45.81620493122056" lon="9.978430582033155"><ele>1257.0000000000002</ele><time>2026-04-26T12:16:03Z</time></trkpt><trkpt lat="45.81614119111306" lon="9.978388311496134"><ele>1257.0</ele><time>2026-04-26T12:16:04Z</time></trkpt><trkpt lat="45.81606951907082" lon="9.978363496249296"><ele>1257.0</ele><time>2026-04-26T12:16:05Z</time></trkpt><trkpt lat="45.81599929378243" lon="9.978389493559629"><ele>1257.0</ele><time>2026-04-26T12:16:06Z</time></trkpt><trkpt lat="45.815924864241865" lon="9.978422139235766"><ele>1257.0</ele><time>2026-04-26T12:16:07Z</time></trkpt><trkpt lat="45.815858790400135" lon="9.978453986836602"><ele>1257.0000000000002</ele><time>2026-04-26T12:16:08Z</time></trkpt><trkpt lat="45.81578938937101" lon="9.978478129178958"><ele>1257.0</ele><time>2026-04-26T12:16:09Z</time></trkpt><trkpt lat="45.81565790550174" lon="9.97841272978116"><ele>1258.1666666666667</ele><time>2026-04-26T12:16:11Z</time></trkpt><trkpt lat="45.815557456146315" lon="9.978382944223986"><ele>1259.3333333333333</ele><time>2026-04-26T12:16:12Z</time></trkpt><trkpt lat="45.81547519113339" lon="9.97838707327549"><ele>1260.5</ele><time>2026-04-26T12:16:13Z</time></trkpt><trkpt lat="45.81540212948455" lon="9.978347045691198"><ele>1261.6666666666665</ele><time>2026-04-26T12:16:14Z</time></trkpt><trkpt lat="45.815337086921645" lon="9.978281650533269"><ele>1262.8333333333333</ele><time>2026-04-26T12:16:15Z</time></trkpt><trkpt lat="45.81525179256431" lon="9.978276371117591"><ele>1264.0</ele><time>2026-04-26T12:16:16Z</time></trkpt><trkpt lat="45.81517409474132" lon="9.97830675546163"><ele>1267.4</ele><time>2026-04-26T12:16:17Z</time></trkpt><trkpt lat="45.815098064958995" lon="9.978334587017697"><ele>1270.8000000000002</ele><time>2026-04-26T12:16:18Z</time></trkpt><trkpt lat="45.81500322837398" lon="9.978387615938972"><ele>1274.1999999999998</ele><time>2026-04-26T12:16:20Z</time></trkpt><trkpt lat="45.8148924524858" lon="9.97837327284078"><ele>1277.6</ele><time>2026-04-26T12:16:22Z</time></trkpt><trkpt lat="45.814815930732806" lon="9.978336493351668"><ele>1281.0</ele><time>2026-04-26T12:16:23Z</time></trkpt><trkpt lat="45.81474911379835" lon="9.978258976983017"><ele>1283.0</ele><time>2026-04-26T12:16:24Z</time></trkpt><trkpt lat="45.8146750647894" lon="9.978221380438345"><ele>1285.0</ele><time>2026-04-26T12:16:25Z</time></trkpt><trkpt lat="45.81458005420681" lon="9.978213349412199"><ele>1287.0</ele><time>2026-04-26T12:16:26Z</time></trkpt><trkpt lat="45.8144947058483" lon="9.97820005093711"><ele>1289.0</ele><time>2026-04-26T12:16:27Z</time></trkpt><trkpt lat="45.814403226291304" lon="9.978181353857858"><ele>1291.0</ele><time>2026-04-26T12:16:28Z</time></trkpt><trkpt lat="45.814303777516876" lon="9.978113856975673"><ele>1291.8333333333333</ele><time>2026-04-26T12:16:29Z</time></trkpt><trkpt lat="45.81422111995103" lon="9.978027112618875"><ele>1292.6666666666665</ele><time>2026-04-26T12:16:30Z</time></trkpt><trkpt lat="45.8141597126756" lon="9.977950652800153"><ele>1293.5</ele><time>2026-04-26T12:16:31Z</time></trkpt><trkpt lat="45.81409976026755" lon="9.977872982910018"><ele>1294.3333333333333</ele><time>2026-04-26T12:16:32Z</time></trkpt><trkpt lat="45.814023501160364" lon="9.977841003719023"><ele>1295.1666666666667</ele><time>2026-04-26T12:16:33Z</time></trkpt><trkpt lat="45.81394289181336" lon="9.977838885245736"><ele>1296.0</ele><time>2026-04-26T12:16:34Z</time></trkpt><trkpt lat="45.8138803011571" lon="9.9778242565261"><ele>1296.0</ele><time>2026-04-26T12:16:35Z</time></trkpt><trkpt lat="45.81378162088191" lon="9.977778477935095"><ele>1296.0</ele><time>2026-04-26T12:16:37Z</time></trkpt><trkpt lat="45.813700729655615" lon="9.977663207056079"><ele>1296.0</ele><time>2026-04-26T12:16:39Z</time></trkpt><trkpt lat="45.813698733002894" lon="9.977559876183744"><ele>1296.0</ele><time>2026-04-26T12:16:40Z</time></trkpt><trkpt lat="45.81371266202748" lon="9.977453852712584"><ele>1296.0</ele><time>2026-04-26T12:16:41Z</time></trkpt><trkpt lat="45.81371827918701" lon="9.977337291484945"><ele>1296.0</ele><time>2026-04-26T12:16:42Z</time></trkpt><trkpt lat="45.81369781817216" lon="9.977234383899065"><ele>1294.8</ele><time>2026-04-26T12:16:43Z</time></trkpt><trkpt lat="45.81364086186427" lon="9.977156437468667"><ele>1293.6</ele><time>2026-04-26T12:16:44Z</time></trkpt><trkpt lat="45.81352558797097" lon="9.977084727184868"><ele>1292.4</ele><time>2026-04-26T12:16:46Z</time></trkpt><trkpt lat="45.81343324766712" lon="9.977001237938559"><ele>1291.2</ele><time>2026-04-26T12:16:48Z</time></trkpt><trkpt lat="45.813388342893134" lon="9.976922520927843"><ele>1290.0</ele><time>2026-04-26T12:16:49Z</time></trkpt><trkpt lat="45.81335910297867" lon="9.976834132995695"><ele>1290.0</ele><time>2026-04-26T12:16:50Z</time></trkpt><trkpt lat="45.81333493376449" lon="9.976741424414804"><ele>1290.0</ele><time>2026-04-26T12:16:50.999Z</time></trkpt><trkpt lat="45.813308863256765" lon="9.97663509445312"><ele>1290.0</ele><time>2026-04-26T12:16:51.999Z</time></trkpt><trkpt lat="45.8132763620506" lon="9.97652187158275"><ele>1290.0</ele><time>2026-04-26T12:16:52.999Z</time></trkpt><trkpt lat="45.81326902779821" lon="9.976420714341694"><ele>1290.0</ele><time>2026-04-26T12:16:53.999Z</time></trkpt><trkpt lat="45.81326980124501" lon="9.97632496654497"><ele>1290.0</ele><time>2026-04-26T12:16:54.999Z</time></trkpt><trkpt lat="45.81326441221383" lon="9.976214739720284"><ele>1290.0</ele><time>2026-04-26T12:16:55.999Z</time></trkpt><trkpt lat="45.81324493281708" lon="9.976084276096012"><ele>1292.3333333333333</ele><time>2026-04-26T12:16:56.999Z</time></trkpt><trkpt lat="45.813210062103245" lon="9.975967895391294"><ele>1294.6666666666667</ele><time>2026-04-26T12:16:57.999Z</time></trkpt><trkpt lat="45.81320792966155" lon="9.97585198889611"><ele>1297.0</ele><time>2026-04-26T12:16:58.999Z</time></trkpt><trkpt lat="45.81319061531044" lon="9.975734480798431"><ele>1299.3333333333335</ele><time>2026-04-26T12:16:59.999Z</time></trkpt><trkpt lat="45.81314461463097" lon="9.97563614163262"><ele>1301.6666666666667</ele><time>2026-04-26T12:17:00.999Z</time></trkpt><trkpt lat="45.813121013764736" lon="9.975544254354885"><ele>1304.0</ele><time>2026-04-26T12:17:01.999Z</time></trkpt><trkpt lat="45.81309223544995" lon="9.975453671710683"><ele>1304.0</ele><time>2026-04-26T12:17:02.999Z</time></trkpt><trkpt lat="45.813069530021494" lon="9.975366868988369"><ele>1304.0</ele><time>2026-04-26T12:17:03.999Z</time></trkpt><trkpt lat="45.81304398046144" lon="9.9752791487876"><ele>1304.0</ele><time>2026-04-26T12:17:04.999Z</time></trkpt><trkpt lat="45.813018441411685" lon="9.975185885417428"><ele>1304.0</ele><time>2026-04-26T12:17:05.999Z</time></trkpt><trkpt lat="45.81299923895971" lon="9.975078668527551"><ele>1304.0</ele><time>2026-04-26T12:17:06.999Z</time></trkpt><trkpt lat="45.81296980883124" lon="9.974981583405768"><ele>1304.0</ele><time>2026-04-26T12:17:07.999Z</time></trkpt><trkpt lat="45.81292204296263" lon="9.974887610543798"><ele>1304.0</ele><time>2026-04-26T12:17:08.999Z</time></trkpt><trkpt lat="45.81287104310942" lon="9.974793836371287"><ele>1304.0</ele><time>2026-04-26T12:17:09.999Z</time></trkpt><trkpt lat="45.812815495265006" lon="9.974711539312413"><ele>1304.0</ele><time>2026-04-26T12:17:10.999Z</time></trkpt><trkpt lat="45.81278433919346" lon="9.974612909526236"><ele>1304.0</ele><time>2026-04-26T12:17:11.999Z</time></trkpt><trkpt lat="45.812761489841606" lon="9.974527216381396"><ele>1304.0</ele><time>2026-04-26T12:17:12.999Z</time></trkpt><trkpt lat="45.812778782037775" lon="9.9744333106743"><ele>1304.0</ele><time>2026-04-26T12:17:13.999Z</time></trkpt><trkpt lat="45.81286568351615" lon="9.974391188052778"><ele>1304.0</ele><time>2026-04-26T12:17:14.999Z</time></trkpt><trkpt lat="45.81289548622754" lon="9.974204359826711"><ele>1302.5</ele><time>2026-04-26T12:17:15.999Z</time></trkpt><trkpt lat="45.81286443277368" lon="9.974038848024346"><ele>1301.0</ele><time>2026-04-26T12:17:16.999Z</time></trkpt><trkpt lat="45.812851074461115" lon="9.97390404976798"><ele>1299.5</ele><time>2026-04-26T12:17:17.999Z</time></trkpt><trkpt lat="45.81284019075904" lon="9.973806409420016"><ele>1298.0</ele><time>2026-04-26T12:17:18.999Z</time></trkpt><trkpt lat="45.81281872455268" lon="9.97369442644164"><ele>1296.5</ele><time>2026-04-26T12:17:19.999Z</time></trkpt><trkpt lat="45.812778002735776" lon="9.973596636292353"><ele>1295.0</ele><time>2026-04-26T12:17:20.999Z</time></trkpt><trkpt lat="45.81272110225764" lon="9.973518272028095"><ele>1295.0</ele><time>2026-04-26T12:17:21.999Z</time></trkpt><trkpt lat="45.81265636285899" lon="9.97341727489496"><ele>1295.0</ele><time>2026-04-26T12:17:22.999Z</time></trkpt><trkpt lat="45.81258527996546" lon="9.973308440594094"><ele>1295.0</ele><time>2026-04-26T12:17:23.999Z</time></trkpt><trkpt lat="45.81251381134724" lon="9.97320357180911"><ele>1295.0</ele><time>2026-04-26T12:17:24.999Z</time></trkpt><trkpt lat="45.812454165776366" lon="9.973102590311258"><ele>1295.0</ele><time>2026-04-26T12:17:25.999Z</time></trkpt><trkpt lat="45.81242448459075" lon="9.973001607869433"><ele>1300.0</ele><time>2026-04-26T12:17:26.999Z</time></trkpt><trkpt lat="45.81240585201619" lon="9.972893208102455"><ele>1305.0</ele><time>2026-04-26T12:17:27.999Z</time></trkpt><trkpt lat="45.8123664301404" lon="9.972784560806893"><ele>1310.0</ele><time>2026-04-26T12:17:28.999Z</time></trkpt><trkpt lat="45.81228349990404" lon="9.972708538417166"><ele>1315.0</ele><time>2026-04-26T12:17:29.999Z</time></trkpt><trkpt lat="45.81223525622563" lon="9.972642661827562"><ele>1320.0</ele><time>2026-04-26T12:17:30.999Z</time></trkpt><trkpt lat="45.81221437360807" lon="9.972526895706926"><ele>1325.0</ele><time>2026-04-26T12:17:32.999Z</time></trkpt><trkpt lat="45.81217516683293" lon="9.972355912924613"><ele>1325.0</ele><time>2026-04-26T12:17:34.999Z</time></trkpt><trkpt lat="45.81214491618075" lon="9.972273192977669"><ele>1325.0</ele><time>2026-04-26T12:17:35.999Z</time></trkpt><trkpt lat="45.812096005339136" lon="9.972126692130978"><ele>1325.0</ele><time>2026-04-26T12:17:37.999Z</time></trkpt><trkpt lat="45.81201752817644" lon="9.971957473982"><ele>1325.0</ele><time>2026-04-26T12:17:39.999Z</time></trkpt><trkpt lat="45.811962527494046" lon="9.97186414479192"><ele>1325.0</ele><time>2026-04-26T12:17:40.999Z</time></trkpt><trkpt lat="45.81187910710765" lon="9.971797318137552"><ele>1325.5714285714287</ele><time>2026-04-26T12:17:41.999Z</time></trkpt><trkpt lat="45.811859270211116" lon="9.97168265388764"><ele>1326.142857142857</ele><time>2026-04-26T12:17:42.999Z</time></trkpt><trkpt lat="45.81185244681495" lon="9.971582740743175"><ele>1326.7142857142858</ele><time>2026-04-26T12:17:43.999Z</time></trkpt><trkpt lat="45.81184116888882" lon="9.971489561033534"><ele>1327.2857142857142</ele><time>2026-04-26T12:17:44.999Z</time></trkpt><trkpt lat="45.8118371853486" lon="9.971381252743855"><ele>1327.857142857143</ele><time>2026-04-26T12:17:45.999Z</time></trkpt><trkpt lat="45.81179208073518" lon="9.971305773838024"><ele>1328.4285714285713</ele><time>2026-04-26T12:17:46.999Z</time></trkpt><trkpt lat="45.81172726897286" lon="9.971250691262313"><ele>1329.0</ele><time>2026-04-26T12:17:47.999Z</time></trkpt><trkpt lat="45.81169008178077" lon="9.9711581027827"><ele>1330.6666666666667</ele><time>2026-04-26T12:17:48.999Z</time></trkpt><trkpt lat="45.81164817532845" lon="9.97106130059064"><ele>1332.3333333333333</ele><time>2026-04-26T12:17:49.999Z</time></trkpt><trkpt lat="45.811666474707" lon="9.970937294652437"><ele>1334.0</ele><time>2026-04-26T12:17:50.999Z</time></trkpt><trkpt lat="45.81172000142457" lon="9.970840484502194"><ele>1335.6666666666665</ele><time>2026-04-26T12:17:51.999Z</time></trkpt><trkpt lat="45.81174968041618" lon="9.970728316365031"><ele>1337.3333333333333</ele><time>2026-04-26T12:17:52.999Z</time></trkpt><trkpt lat="45.81175875140933" lon="9.970620060595941"><ele>1339.0</ele><time>2026-04-26T12:17:53.999Z</time></trkpt><trkpt lat="45.811728283307836" lon="9.97046863485584"><ele>1339.0</ele><time>2026-04-26T12:17:55.999Z</time></trkpt><trkpt lat="45.81164552296528" lon="9.970317256105327"><ele>1339.0</ele><time>2026-04-26T12:17:57.999Z</time></trkpt><trkpt lat="45.81156451415686" lon="9.970223591233214"><ele>1339.0</ele><time>2026-04-26T12:17:58.999Z</time></trkpt><trkpt lat="45.811480113421126" lon="9.970111731242769"><ele>1339.0</ele><time>2026-04-26T12:17:59.999Z</time></trkpt><trkpt lat="45.811406776961455" lon="9.969997677709733"><ele>1338.4</ele><time>2026-04-26T12:18:00.999Z</time></trkpt><trkpt lat="45.81133697518298" lon="9.969882182935669"><ele>1337.8000000000002</ele><time>2026-04-26T12:18:01.999Z</time></trkpt><trkpt lat="45.81127604784704" lon="9.969787741168561"><ele>1337.1999999999998</ele><time>2026-04-26T12:18:02.999Z</time></trkpt><trkpt lat="45.81124201480614" lon="9.969692275183007"><ele>1336.6</ele><time>2026-04-26T12:18:03.999Z</time></trkpt><trkpt lat="45.81120003319493" lon="9.969611809746446"><ele>1336.0</ele><time>2026-04-26T12:18:05Z</time></trkpt><trkpt lat="45.811150631984994" lon="9.96946590173562"><ele>1336.0</ele><time>2026-04-26T12:18:07Z</time></trkpt><trkpt lat="45.81109952822462" lon="9.969324511725567"><ele>1336.0</ele><time>2026-04-26T12:18:09Z</time></trkpt><trkpt lat="45.811095815200765" lon="9.969218577681527"><ele>1336.0</ele><time>2026-04-26T12:18:10Z</time></trkpt><trkpt lat="45.81108098695613" lon="9.969114028099028"><ele>1336.0</ele><time>2026-04-26T12:18:11Z</time></trkpt><trkpt lat="45.81105546699274" lon="9.969012070161263"><ele>1336.0</ele><time>2026-04-26T12:18:12Z</time></trkpt><trkpt lat="45.81109893282741" lon="9.968902374188747"><ele>1336.0</ele><time>2026-04-26T12:18:13Z</time></trkpt><trkpt lat="45.81118685922571" lon="9.96875488832768"><ele>1335.3333333333333</ele><time>2026-04-26T12:18:14Z</time></trkpt><trkpt lat="45.81117843601627" lon="9.968627208414665"><ele>1334.6666666666665</ele><time>2026-04-26T12:18:15Z</time></trkpt><trkpt lat="45.8111694346873" lon="9.968490765913442"><ele>1334.0</ele><time>2026-04-26T12:18:16Z</time></trkpt><trkpt lat="45.811094714921275" lon="9.968384565246781"><ele>1333.3333333333333</ele><time>2026-04-26T12:18:17Z</time></trkpt><trkpt lat="45.81108138531909" lon="9.968274443348387"><ele>1332.6666666666667</ele><time>2026-04-26T12:18:18Z</time></trkpt><trkpt lat="45.811082371077305" lon="9.96818260215565"><ele>1332.0</ele><time>2026-04-26T12:18:19Z</time></trkpt><trkpt lat="45.81108416163291" lon="9.968018911984622"><ele>1330.6666666666667</ele><time>2026-04-26T12:18:21Z</time></trkpt><trkpt lat="45.811085249256" lon="9.967924094448398"><ele>1329.3333333333333</ele><time>2026-04-26T12:18:22Z</time></trkpt><trkpt lat="45.81107012741312" lon="9.96781807798374"><ele>1328.0</ele><time>2026-04-26T12:18:23Z</time></trkpt><trkpt lat="45.8110898657715" lon="9.967705116048641"><ele>1326.6666666666665</ele><time>2026-04-26T12:18:24Z</time></trkpt><trkpt lat="45.811095624852555" lon="9.967591434170899"><ele>1325.3333333333333</ele><time>2026-04-26T12:18:25Z</time></trkpt><trkpt lat="45.8111019851386" lon="9.967488991059824"><ele>1324.0</ele><time>2026-04-26T12:18:26Z</time></trkpt><trkpt lat="45.81111866521495" lon="9.967349748387246"><ele>1323.75</ele><time>2026-04-26T12:18:28Z</time></trkpt><trkpt lat="45.81120559802516" lon="9.96704065042228"><ele>1323.5</ele><time>2026-04-26T12:18:30Z</time></trkpt><trkpt lat="45.81115905020345" lon="9.966948434111762"><ele>1323.25</ele><time>2026-04-26T12:18:32Z</time></trkpt><trkpt lat="45.811110857866225" lon="9.966854054091304"><ele>1323.0</ele><time>2026-04-26T12:18:35Z</time></trkpt><trkpt lat="45.81105948432256" lon="9.966757716805205"><ele>1319.75</ele><time>2026-04-26T12:18:38Z</time></trkpt><trkpt lat="45.81097336583653" lon="9.966612302757936"><ele>1316.5</ele><time>2026-04-26T12:18:40Z</time></trkpt><trkpt lat="45.81088434586549" lon="9.966513463412848"><ele>1313.25</ele><time>2026-04-26T12:18:41Z</time></trkpt><trkpt lat="45.810757705834355" lon="9.96646358185866"><ele>1310.0</ele><time>2026-04-26T12:18:42Z</time></trkpt><trkpt lat="45.81066718529004" lon="9.966440309303815"><ele>1310.0</ele><time>2026-04-26T12:18:43Z</time></trkpt><trkpt lat="45.81058196228768" lon="9.966404485942569"><ele>1310.0</ele><time>2026-04-26T12:18:44Z</time></trkpt><trkpt lat="45.81050907168106" lon="9.966278801923606"><ele>1310.0</ele><time>2026-04-26T12:18:45Z</time></trkpt><trkpt lat="45.810456658720824" lon="9.966128951974174"><ele>1310.0</ele><time>2026-04-26T12:18:46Z</time></trkpt><trkpt lat="45.81041470957993" lon="9.966014033479377"><ele>1310.0</ele><time>2026-04-26T12:18:47Z</time></trkpt><trkpt lat="45.81036224896812" lon="9.965915659192325"><ele>1309.5</ele><time>2026-04-26T12:18:48Z</time></trkpt><trkpt lat="45.810306195767566" lon="9.96582173917442"><ele>1309.0</ele><time>2026-04-26T12:18:49Z</time></trkpt><trkpt lat="45.81025515556348" lon="9.965726996330925"><ele>1308.5</ele><time>2026-04-26T12:18:50Z</time></trkpt><trkpt lat="45.81021213380002" lon="9.965620172131674"><ele>1308.0</ele><time>2026-04-26T12:18:51Z</time></trkpt><trkpt lat="45.81018398416287" lon="9.96551130124709"><ele>1307.5</ele><time>2026-04-26T12:18:52Z</time></trkpt><trkpt lat="45.81016764251484" lon="9.965399098438883"><ele>1307.0</ele><time>2026-04-26T12:18:53Z</time></trkpt><trkpt lat="45.810152089363214" lon="9.965284804484297"><ele>1306.3333333333335</ele><time>2026-04-26T12:18:54Z</time></trkpt><trkpt lat="45.81013527729087" lon="9.965172856728685"><ele>1305.6666666666667</ele><time>2026-04-26T12:18:55Z</time></trkpt><trkpt lat="45.81012249074361" lon="9.965064381016097"><ele>1305.0</ele><time>2026-04-26T12:18:56Z</time></trkpt><trkpt lat="45.8101094112947" lon="9.964952666170554"><ele>1304.3333333333333</ele><time>2026-04-26T12:18:57Z</time></trkpt><trkpt lat="45.810113881442355" lon="9.96482847045281"><ele>1303.6666666666665</ele><time>2026-04-26T12:18:58Z</time></trkpt><trkpt lat="45.81009544773289" lon="9.964674877324187"><ele>1303.0</ele><time>2026-04-26T12:18:59Z</time></trkpt><trkpt lat="45.810070044460765" lon="9.964515724003952"><ele>1303.0</ele><time>2026-04-26T12:19:00Z</time></trkpt><trkpt lat="45.8100485362365" lon="9.964363004868112"><ele>1303.0</ele><time>2026-04-26T12:19:01Z</time></trkpt><trkpt lat="45.81002057598488" lon="9.964216007571256"><ele>1303.0</ele><time>2026-04-26T12:19:02Z</time></trkpt><trkpt lat="45.809952194349464" lon="9.964094725261528"><ele>1303.0</ele><time>2026-04-26T12:19:02.999Z</time></trkpt><trkpt lat="45.80988857167505" lon="9.963976366342093"><ele>1303.0</ele><time>2026-04-26T12:19:03.999Z</time></trkpt><trkpt lat="45.80982216838491" lon="9.963857790441308"><ele>1304.5</ele><time>2026-04-26T12:19:04.999Z</time></trkpt><trkpt lat="45.80975847608097" lon="9.963757108655813"><ele>1306.0</ele><time>2026-04-26T12:19:05.999Z</time></trkpt><trkpt lat="45.80966609251474" lon="9.963673804169593"><ele>1307.5</ele><time>2026-04-26T12:19:06.999Z</time></trkpt><trkpt lat="45.809593012456354" lon="9.963614228981127"><ele>1309.0</ele><time>2026-04-26T12:19:07.999Z</time></trkpt><trkpt lat="45.809545775782354" lon="9.963542242427064"><ele>1310.5</ele><time>2026-04-26T12:19:08.999Z</time></trkpt><trkpt lat="45.80951853057753" lon="9.963427705607563"><ele>1312.0</ele><time>2026-04-26T12:19:09.999Z</time></trkpt><trkpt lat="45.809474911125236" lon="9.963331524686998"><ele>1314.8333333333333</ele><time>2026-04-26T12:19:10.999Z</time></trkpt><trkpt lat="45.8094346332031" lon="9.963202555581466"><ele>1317.6666666666665</ele><time>2026-04-26T12:19:11.999Z</time></trkpt><trkpt lat="45.80939166527973" lon="9.963086073182804"><ele>1320.5</ele><time>2026-04-26T12:19:12.999Z</time></trkpt><trkpt lat="45.80934637529422" lon="9.962975221181125"><ele>1323.3333333333333</ele><time>2026-04-26T12:19:13.999Z</time></trkpt><trkpt lat="45.80930550279042" lon="9.962873901446072"><ele>1326.1666666666667</ele><time>2026-04-26T12:19:14.999Z</time></trkpt><trkpt lat="45.80926322191469" lon="9.96277204625791"><ele>1329.0</ele><time>2026-04-26T12:19:15.999Z</time></trkpt><trkpt lat="45.80922409105053" lon="9.962681062606704"><ele>1325.1666666666667</ele><time>2026-04-26T12:19:16.999Z</time></trkpt><trkpt lat="45.80921196080624" lon="9.962571145315648"><ele>1321.3333333333333</ele><time>2026-04-26T12:19:17.999Z</time></trkpt><trkpt lat="45.80918375781111" lon="9.962476595065276"><ele>1317.5</ele><time>2026-04-26T12:19:18.999Z</time></trkpt><trkpt lat="45.80917531552374" lon="9.96236529683112"><ele>1313.6666666666665</ele><time>2026-04-26T12:19:19.999Z</time></trkpt><trkpt lat="45.80917365271291" lon="9.962261407506194"><ele>1309.8333333333333</ele><time>2026-04-26T12:19:20.999Z</time></trkpt><trkpt lat="45.809180517815385" lon="9.962165056377941"><ele>1306.0</ele><time>2026-04-26T12:19:21.999Z</time></trkpt><trkpt lat="45.80921485621384" lon="9.961999308197555"><ele>1306.0</ele><time>2026-04-26T12:19:23.999Z</time></trkpt><trkpt lat="45.809259433213136" lon="9.961829722349083"><ele>1306.0</ele><time>2026-04-26T12:19:25.999Z</time></trkpt><trkpt lat="45.809283051843124" lon="9.961736744563558"><ele>1306.0</ele><time>2026-04-26T12:19:26.999Z</time></trkpt><trkpt lat="45.809310389724864" lon="9.961642485511733"><ele>1306.0</ele><time>2026-04-26T12:19:27.999Z</time></trkpt><trkpt lat="45.80934490305722" lon="9.961543775095816"><ele>1306.0</ele><time>2026-04-26T12:19:28.999Z</time></trkpt><trkpt lat="45.809385936876424" lon="9.961442632766053"><ele>1306.0</ele><time>2026-04-26T12:19:29.999Z</time></trkpt><trkpt lat="45.809431488551645" lon="9.96134454702126"><ele>1307.8333333333333</ele><time>2026-04-26T12:19:30.999Z</time></trkpt><trkpt lat="45.80947674374944" lon="9.961250798803604"><ele>1309.6666666666665</ele><time>2026-04-26T12:19:31.999Z</time></trkpt><trkpt lat="45.809513294994225" lon="9.961157542731351"><ele>1311.5</ele><time>2026-04-26T12:19:32.999Z</time></trkpt><trkpt lat="45.809542466827516" lon="9.961053924572605"><ele>1313.3333333333333</ele><time>2026-04-26T12:19:33.999Z</time></trkpt><trkpt lat="45.80956660181086" lon="9.960950209922784"><ele>1315.1666666666667</ele><time>2026-04-26T12:19:34.999Z</time></trkpt><trkpt lat="45.80961392994519" lon="9.96086490415222"><ele>1317.0</ele><time>2026-04-26T12:19:35.999Z</time></trkpt><trkpt lat="45.80964184922525" lon="9.960758013305517"><ele>1317.0</ele><time>2026-04-26T12:19:36.999Z</time></trkpt><trkpt lat="45.8096490194441" lon="9.960642598580185"><ele>1317.0</ele><time>2026-04-26T12:19:37.999Z</time></trkpt><trkpt lat="45.80961675881922" lon="9.960525903303472"><ele>1317.0</ele><time>2026-04-26T12:19:38.999Z</time></trkpt><trkpt lat="45.809590919416905" lon="9.960426252847617"><ele>1317.0</ele><time>2026-04-26T12:19:39.999Z</time></trkpt><trkpt lat="45.80956559034905" lon="9.960334584150102"><ele>1317.0</ele><time>2026-04-26T12:19:40.999Z</time></trkpt><trkpt lat="45.8095410054113" lon="9.960245608382444"><ele>1317.0</ele><time>2026-04-26T12:19:41.999Z</time></trkpt><trkpt lat="45.80950838062116" lon="9.960148552517571"><ele>1315.5</ele><time>2026-04-26T12:19:42.999Z</time></trkpt><trkpt lat="45.809273266167246" lon="9.960179783300127"><ele>1314.0</ele><time>2026-04-26T12:19:43.999Z</time></trkpt><trkpt lat="45.80924072595592" lon="9.960073360713702"><ele>1312.5</ele><time>2026-04-26T12:19:44.999Z</time></trkpt><trkpt lat="45.809183891790774" lon="9.959945163867038"><ele>1311.0</ele><time>2026-04-26T12:19:45.999Z</time></trkpt><trkpt lat="45.80911902975481" lon="9.959822724720262"><ele>1311.0</ele><time>2026-04-26T12:19:46.999Z</time></trkpt><trkpt lat="45.809063778867944" lon="9.95968898375841"><ele>1311.0</ele><time>2026-04-26T12:19:47.999Z</time></trkpt><trkpt lat="45.80901379431899" lon="9.959564752240269"><ele>1311.0</ele><time>2026-04-26T12:19:48.999Z</time></trkpt><trkpt lat="45.80894955751793" lon="9.959428230032943"><ele>1311.0</ele><time>2026-04-26T12:19:49.999Z</time></trkpt><trkpt lat="45.8088791076796" lon="9.959285207608751"><ele>1311.0</ele><time>2026-04-26T12:19:50.999Z</time></trkpt><trkpt lat="45.80882045534755" lon="9.959142003760201"><ele>1313.6</ele><time>2026-04-26T12:19:51.999Z</time></trkpt><trkpt lat="45.8087719923591" lon="9.958993511723513"><ele>1316.1999999999998</ele><time>2026-04-26T12:19:52.999Z</time></trkpt><trkpt lat="45.80871715781667" lon="9.958854837585255"><ele>1318.8000000000002</ele><time>2026-04-26T12:19:53.999Z</time></trkpt><trkpt lat="45.808657854982656" lon="9.958733214259647"><ele>1321.4</ele><time>2026-04-26T12:19:54.999Z</time></trkpt><trkpt lat="45.808607899514" lon="9.958616576457072"><ele>1324.0</ele><time>2026-04-26T12:19:55.999Z</time></trkpt><trkpt lat="45.808570052848175" lon="9.958508433525255"><ele>1324.0</ele><time>2026-04-26T12:19:56.999Z</time></trkpt><trkpt lat="45.808544256148565" lon="9.958412571243086"><ele>1324.0</ele><time>2026-04-26T12:19:57.999Z</time></trkpt><trkpt lat="45.80855091119267" lon="9.958278988243611"><ele>1324.0</ele><time>2026-04-26T12:19:59.999Z</time></trkpt><trkpt lat="45.808557480495146" lon="9.958189023337994"><ele>1324.0</ele><time>2026-04-26T12:20:00.999Z</time></trkpt><trkpt lat="45.80856908164118" lon="9.958077967371464"><ele>1324.0</ele><time>2026-04-26T12:20:01.999Z</time></trkpt><trkpt lat="45.808589768875" lon="9.957964093149188"><ele>1324.0</ele><time>2026-04-26T12:20:02.999Z</time></trkpt><trkpt lat="45.80861762988411" lon="9.95785393595918"><ele>1325.3333333333333</ele><time>2026-04-26T12:20:03.999Z</time></trkpt><trkpt lat="45.8086343727626" lon="9.957756718840448"><ele>1326.6666666666665</ele><time>2026-04-26T12:20:04.999Z</time></trkpt><trkpt lat="45.80865721401298" lon="9.957579661126324"><ele>1328.0</ele><time>2026-04-26T12:20:06.999Z</time></trkpt><trkpt lat="45.80866975535282" lon="9.957477701412996"><ele>1329.3333333333333</ele><time>2026-04-26T12:20:07.999Z</time></trkpt><trkpt lat="45.80868050984309" lon="9.95736158329991"><ele>1330.6666666666667</ele><time>2026-04-26T12:20:08.999Z</time></trkpt><trkpt lat="45.808686149532406" lon="9.957243173225361"><ele>1332.0</ele><time>2026-04-26T12:20:09.999Z</time></trkpt><trkpt lat="45.808686153671516" lon="9.957127481640889"><ele>1333.5</ele><time>2026-04-26T12:20:11Z</time></trkpt><trkpt lat="45.8086785451116" lon="9.95700311218416"><ele>1335.0</ele><time>2026-04-26T12:20:12Z</time></trkpt><trkpt lat="45.80866327421809" lon="9.9568831326068"><ele>1336.5</ele><time>2026-04-26T12:20:13Z</time></trkpt><trkpt lat="45.808636633520045" lon="9.956761302517695"><ele>1338.0</ele><time>2026-04-26T12:20:14Z</time></trkpt><trkpt lat="45.80860290188496" lon="9.95665103886639"><ele>1339.5</ele><time>2026-04-26T12:20:15Z</time></trkpt><trkpt lat="45.808568423015124" lon="9.95653796127585"><ele>1341.0</ele><time>2026-04-26T12:20:16Z</time></trkpt><trkpt lat="45.80852373566774" lon="9.95643294947087"><ele>1341.1666666666667</ele><time>2026-04-26T12:20:17Z</time></trkpt><trkpt lat="45.80847750326764" lon="9.95634258374265"><ele>1341.3333333333333</ele><time>2026-04-26T12:20:18Z</time></trkpt><trkpt lat="45.80845564338598" lon="9.95619746364146"><ele>1341.5</ele><time>2026-04-26T12:20:20Z</time></trkpt><trkpt lat="45.80845791306085" lon="9.956102800089038"><ele>1341.6666666666665</ele><time>2026-04-26T12:20:21Z</time></trkpt><trkpt lat="45.80845433634491" lon="9.955982739306107"><ele>1341.8333333333333</ele><time>2026-04-26T12:20:22Z</time></trkpt><trkpt lat="45.808442672546754" lon="9.95585925744212"><ele>1342.0</ele><time>2026-04-26T12:20:23Z</time></trkpt><trkpt lat="45.80841521391985" lon="9.955742443054854"><ele>1342.8</ele><time>2026-04-26T12:20:24Z</time></trkpt><trkpt lat="45.80837729659754" lon="9.955632092889239"><ele>1343.6</ele><time>2026-04-26T12:20:25Z</time></trkpt><trkpt lat="45.808330774673124" lon="9.95550930738531"><ele>1344.3999999999999</ele><time>2026-04-26T12:20:26Z</time></trkpt><trkpt lat="45.80829002137821" lon="9.955385227863482"><ele>1345.1999999999998</ele><time>2026-04-26T12:20:27Z</time></trkpt><trkpt lat="45.80826065343986" lon="9.955260291495563"><ele>1346.0</ele><time>2026-04-26T12:20:28Z</time></trkpt><trkpt lat="45.808234051760685" lon="9.95513541990123"><ele>1346.0</ele><time>2026-04-26T12:20:29Z</time></trkpt><trkpt lat="45.808208566482335" lon="9.955021770222103"><ele>1346.0</ele><time>2026-04-26T12:20:30Z</time></trkpt><trkpt lat="45.80818448530044" lon="9.954907920888592"><ele>1346.0</ele><time>2026-04-26T12:20:31Z</time></trkpt><trkpt lat="45.80816430150022" lon="9.954792788150767"><ele>1346.0</ele><time>2026-04-26T12:20:32Z</time></trkpt><trkpt lat="45.80815210402496" lon="9.954682134829078"><ele>1346.0</ele><time>2026-04-26T12:20:33Z</time></trkpt><trkpt lat="45.808147757474906" lon="9.954577517872972"><ele>1346.0</ele><time>2026-04-26T12:20:34Z</time></trkpt><trkpt lat="45.80813795562455" lon="9.954477187095621"><ele>1346.0</ele><time>2026-04-26T12:20:35Z</time></trkpt><trkpt lat="45.80812994664697" lon="9.954387328131864"><ele>1346.0</ele><time>2026-04-26T12:20:36Z</time></trkpt><trkpt lat="45.808099395515804" lon="9.954267032902544"><ele>1346.0</ele><time>2026-04-26T12:20:38Z</time></trkpt><trkpt lat="45.808027451664515" lon="9.95418730984096"><ele>1346.0</ele><time>2026-04-26T12:20:42Z</time></trkpt><trkpt lat="45.80798920914617" lon="9.954072469958279"><ele>1346.0</ele><time>2026-04-26T12:20:45Z</time></trkpt><trkpt lat="45.80796965716385" lon="9.953955817155977"><ele>1346.0</ele><time>2026-04-26T12:20:47Z</time></trkpt><trkpt lat="45.80793041928341" lon="9.953832610870823"><ele>1345.6666666666667</ele><time>2026-04-26T12:20:49Z</time></trkpt><trkpt lat="45.80789569446793" lon="9.953727060138464"><ele>1345.3333333333335</ele><time>2026-04-26T12:20:50Z</time></trkpt><trkpt lat="45.80785250684151" lon="9.95363966812771"><ele>1345.0</ele><time>2026-04-26T12:20:51Z</time></trkpt><trkpt lat="45.80780899702776" lon="9.953564424306112"><ele>1344.6666666666667</ele><time>2026-04-26T12:20:52Z</time></trkpt><trkpt lat="45.80777280328374" lon="9.953483553259982"><ele>1344.3333333333333</ele><time>2026-04-26T12:20:53Z</time></trkpt><trkpt lat="45.80770495574945" lon="9.953350008483232"><ele>1344.0</ele><time>2026-04-26T12:20:55Z</time></trkpt><trkpt lat="45.807644717571804" lon="9.953214327258825"><ele>1339.6666666666667</ele><time>2026-04-26T12:20:57Z</time></trkpt><trkpt lat="45.80758695293201" lon="9.953102634438737"><ele>1335.3333333333333</ele><time>2026-04-26T12:20:59Z</time></trkpt><trkpt lat="45.807521841524135" lon="9.953046793798462"><ele>1331.0</ele><time>2026-04-26T12:21:01Z</time></trkpt><trkpt lat="45.80745940512539" lon="9.952989102879775"><ele>1326.6666666666665</ele><time>2026-04-26T12:21:03Z</time></trkpt><trkpt lat="45.807408520796486" lon="9.952916471936243"><ele>1322.3333333333333</ele><time>2026-04-26T12:21:05Z</time></trkpt><trkpt lat="45.80736431853818" lon="9.952841567388763"><ele>1318.0</ele><time>2026-04-26T12:21:06.999Z</time></trkpt><trkpt lat="45.80733946706655" lon="9.952756541676298"><ele>1318.0</ele><time>2026-04-26T12:21:08.999Z</time></trkpt><trkpt lat="45.807301526861195" lon="9.95265436746022"><ele>1318.0</ele><time>2026-04-26T12:21:10.999Z</time></trkpt><trkpt lat="45.80730812332899" lon="9.952512122275584"><ele>1318.0</ele><time>2026-04-26T12:21:13.999Z</time></trkpt><trkpt lat="45.80734165194952" lon="9.952384478735981"><ele>1318.0</ele><time>2026-04-26T12:21:15.999Z</time></trkpt><trkpt lat="45.80741763132002" lon="9.95228535219216"><ele>1318.0</ele><time>2026-04-26T12:21:17.999Z</time></trkpt><trkpt lat="45.807482679589725" lon="9.952158111040983"><ele>1318.4</ele><time>2026-04-26T12:21:19.999Z</time></trkpt><trkpt lat="45.80752784938347" lon="9.952079970090718"><ele>1318.8000000000002</ele><time>2026-04-26T12:21:21.999Z</time></trkpt><trkpt lat="45.8075635742867" lon="9.951957027476979"><ele>1319.2</ele><time>2026-04-26T12:21:24.999Z</time></trkpt><trkpt lat="45.80759365035457" lon="9.951823796419397"><ele>1319.6</ele><time>2026-04-26T12:21:26.999Z</time></trkpt><trkpt lat="45.80764330038144" lon="9.9516399537469"><ele>1320.0</ele><time>2026-04-26T12:21:28.999Z</time></trkpt><trkpt lat="45.80766091957863" lon="9.951541445104708"><ele>1320.0</ele><time>2026-04-26T12:21:29.999Z</time></trkpt><trkpt lat="45.807680418034415" lon="9.951445939449242"><ele>1320.0</ele><time>2026-04-26T12:21:30.999Z</time></trkpt><trkpt lat="45.807704578922824" lon="9.951349990811961"><ele>1320.0</ele><time>2026-04-26T12:21:31.999Z</time></trkpt><trkpt lat="45.807730334096725" lon="9.951247270523279"><ele>1320.0</ele><time>2026-04-26T12:21:32.999Z</time></trkpt><trkpt lat="45.80774073242852" lon="9.951138144089557"><ele>1320.0</ele><time>2026-04-26T12:21:33.999Z</time></trkpt><trkpt lat="45.807750339318126" lon="9.951021839312858"><ele>1320.0</ele><time>2026-04-26T12:21:34.999Z</time></trkpt><trkpt lat="45.80776231540293" lon="9.950903419119792"><ele>1317.0</ele><time>2026-04-26T12:21:35.999Z</time></trkpt><trkpt lat="45.807761996374325" lon="9.95077278974192"><ele>1314.0</ele><time>2026-04-26T12:21:36.999Z</time></trkpt><trkpt lat="45.80774561085017" lon="9.950627738788057"><ele>1311.0</ele><time>2026-04-26T12:21:37.999Z</time></trkpt><trkpt lat="45.807716762868914" lon="9.950476536544679"><ele>1308.0</ele><time>2026-04-26T12:21:38.999Z</time></trkpt><trkpt lat="45.80768125150275" lon="9.950349414062982"><ele>1305.0</ele><time>2026-04-26T12:21:39.999Z</time></trkpt><trkpt lat="45.80763353627531" lon="9.95025742281773"><ele>1301.6666666666667</ele><time>2026-04-26T12:21:40.999Z</time></trkpt><trkpt lat="45.80758030603053" lon="9.950189466700374"><ele>1298.3333333333333</ele><time>2026-04-26T12:21:41.999Z</time></trkpt><trkpt lat="45.80752076862764" lon="9.95005100075332"><ele>1295.0</ele><time>2026-04-26T12:21:43.999Z</time></trkpt><trkpt lat="45.80750623047252" lon="9.94989031931021"><ele>1291.6666666666665</ele><time>2026-04-26T12:21:45.999Z</time></trkpt><trkpt lat="45.807502369229525" lon="9.949796759606276"><ele>1288.3333333333333</ele><time>2026-04-26T12:21:46.999Z</time></trkpt><trkpt lat="45.80750096706416" lon="9.94970291211981"><ele>1285.0</ele><time>2026-04-26T12:21:47.999Z</time></trkpt><trkpt lat="45.80751722125607" lon="9.949597556804491"><ele>1284.6</ele><time>2026-04-26T12:21:48.999Z</time></trkpt><trkpt lat="45.807541710265625" lon="9.949471910574985"><ele>1284.2</ele><time>2026-04-26T12:21:49.999Z</time></trkpt><trkpt lat="45.80756502842054" lon="9.94933741039167"><ele>1283.8000000000002</ele><time>2026-04-26T12:21:50.999Z</time></trkpt><trkpt lat="45.80756800462042" lon="9.949200728913494"><ele>1283.4</ele><time>2026-04-26T12:21:51.999Z</time></trkpt><trkpt lat="45.80755683603943" lon="9.94904656780464"><ele>1283.0</ele><time>2026-04-26T12:21:52.999Z</time></trkpt><trkpt lat="45.807527733511826" lon="9.948899050275896"><ele>1282.4</ele><time>2026-04-26T12:21:53.999Z</time></trkpt><trkpt lat="45.80748848286209" lon="9.94875866729475"><ele>1281.8000000000002</ele><time>2026-04-26T12:21:54.999Z</time></trkpt><trkpt lat="45.807440667409296" lon="9.948623123069625"><ele>1281.2</ele><time>2026-04-26T12:21:55.999Z</time></trkpt><trkpt lat="45.807383619771244" lon="9.948505888707409"><ele>1280.6</ele><time>2026-04-26T12:21:56.999Z</time></trkpt><trkpt lat="45.8073128977339" lon="9.948395614100045"><ele>1280.0</ele><time>2026-04-26T12:21:57.999Z</time></trkpt><trkpt lat="45.80724113945586" lon="9.948298096289271"><ele>1280.0</ele><time>2026-04-26T12:21:58.999Z</time></trkpt><trkpt lat="45.80717854066183" lon="9.948216572923137"><ele>1280.0</ele><time>2026-04-26T12:21:59.999Z</time></trkpt><trkpt lat="45.8071188417039" lon="9.948138838089898"><ele>1280.0</ele><time>2026-04-26T12:22:00.999Z</time></trkpt><trkpt lat="45.80707290340877" lon="9.948057490050209"><ele>1280.0</ele><time>2026-04-26T12:22:01.999Z</time></trkpt><trkpt lat="45.80702866913839" lon="9.947965158547634"><ele>1280.0</ele><time>2026-04-26T12:22:02.999Z</time></trkpt><trkpt lat="45.80698985831261" lon="9.947862846592813"><ele>1280.0</ele><time>2026-04-26T12:22:03.999Z</time></trkpt><trkpt lat="45.806952792246435" lon="9.947750830785974"><ele>1280.0</ele><time>2026-04-26T12:22:04.999Z</time></trkpt><trkpt lat="45.80691964160918" lon="9.94763033491665"><ele>1280.0</ele><time>2026-04-26T12:22:05.999Z</time></trkpt><trkpt lat="45.80688687391427" lon="9.947518306858429"><ele>1280.0</ele><time>2026-04-26T12:22:06.999Z</time></trkpt><trkpt lat="45.806848031642424" lon="9.94742480732382"><ele>1280.0</ele><time>2026-04-26T12:22:07.999Z</time></trkpt><trkpt lat="45.80681020967617" lon="9.947338677015857"><ele>1280.0</ele><time>2026-04-26T12:22:08.999Z</time></trkpt><trkpt lat="45.80678465438798" lon="9.947251210484547"><ele>1280.0</ele><time>2026-04-26T12:22:09.999Z</time></trkpt><trkpt lat="45.80676251130551" lon="9.947145610649569"><ele>1279.3333333333335</ele><time>2026-04-26T12:22:10.999Z</time></trkpt><trkpt lat="45.80672298093037" lon="9.946986274142363"><ele>1278.6666666666667</ele><time>2026-04-26T12:22:12.999Z</time></trkpt><trkpt lat="45.80669389552096" lon="9.94683031150406"><ele>1278.0</ele><time>2026-04-26T12:22:14.999Z</time></trkpt><trkpt lat="45.8067153457741" lon="9.946736028504246"><ele>1277.3333333333333</ele><time>2026-04-26T12:22:15.999Z</time></trkpt><trkpt lat="45.806751241813885" lon="9.946651969290876"><ele>1276.6666666666665</ele><time>2026-04-26T12:22:17Z</time></trkpt><trkpt lat="45.80679599308958" lon="9.946584688052125"><ele>1276.0</ele><time>2026-04-26T12:22:18Z</time></trkpt><trkpt lat="45.80684354245988" lon="9.946496269574968"><ele>1276.0</ele><time>2026-04-26T12:22:19Z</time></trkpt><trkpt lat="45.806882499896986" lon="9.94641075787264"><ele>1276.0</ele><time>2026-04-26T12:22:20Z</time></trkpt><trkpt lat="45.806920196243475" lon="9.946325507828995"><ele>1276.0</ele><time>2026-04-26T12:22:21Z</time></trkpt><trkpt lat="45.806955193481244" lon="9.94622761851275"><ele>1276.0</ele><time>2026-04-26T12:22:22Z</time></trkpt><trkpt lat="45.80698346176671" lon="9.946125275538762"><ele>1276.0</ele><time>2026-04-26T12:22:23Z</time></trkpt><trkpt lat="45.80700088623215" lon="9.946006155705051"><ele>1276.0</ele><time>2026-04-26T12:22:24Z</time></trkpt><trkpt lat="45.80700482214084" lon="9.945893088445136"><ele>1274.6666666666665</ele><time>2026-04-26T12:22:25Z</time></trkpt><trkpt lat="45.80700152931906" lon="9.945776863857088"><ele>1273.3333333333333</ele><time>2026-04-26T12:22:26Z</time></trkpt><trkpt lat="45.8069837287141" lon="9.945666568875769"><ele>1272.0</ele><time>2026-04-26T12:22:27Z</time></trkpt><trkpt lat="45.80695433768716" lon="9.945566576582504"><ele>1270.6666666666667</ele><time>2026-04-26T12:22:28Z</time></trkpt><trkpt lat="45.80691714076093" lon="9.94547228444223"><ele>1269.3333333333335</ele><time>2026-04-26T12:22:29Z</time></trkpt><trkpt lat="45.806866096581395" lon="9.945386209496327"><ele>1268.0</ele><time>2026-04-26T12:22:30Z</time></trkpt><trkpt lat="45.80680039375371" lon="9.94530824281311"><ele>1266.3333333333335</ele><time>2026-04-26T12:22:31Z</time></trkpt><trkpt lat="45.80672616348412" lon="9.945244074629018"><ele>1264.6666666666667</ele><time>2026-04-26T12:22:32Z</time></trkpt><trkpt lat="45.80666035401245" lon="9.945177182320734"><ele>1263.0</ele><time>2026-04-26T12:22:33Z</time></trkpt><trkpt lat="45.806606552536486" lon="9.945099746024258"><ele>1261.3333333333333</ele><time>2026-04-26T12:22:34Z</time></trkpt><trkpt lat="45.8065545248491" lon="9.945010496415911"><ele>1259.6666666666665</ele><time>2026-04-26T12:22:35Z</time></trkpt><trkpt lat="45.80650165933313" lon="9.94490137736004"><ele>1258.0</ele><time>2026-04-26T12:22:36Z</time></trkpt><trkpt lat="45.80645614107835" lon="9.94479274585511"><ele>1257.1666666666665</ele><time>2026-04-26T12:22:37Z</time></trkpt><trkpt lat="45.806425969076244" lon="9.944692653561821"><ele>1256.3333333333333</ele><time>2026-04-26T12:22:38Z</time></trkpt><trkpt lat="45.80640296454532" lon="9.944594335806903"><ele>1255.5</ele><time>2026-04-26T12:22:39Z</time></trkpt><trkpt lat="45.806386746051544" lon="9.944504799592172"><ele>1254.6666666666667</ele><time>2026-04-26T12:22:40Z</time></trkpt><trkpt lat="45.80637325186996" lon="9.944354016810136"><ele>1253.8333333333335</ele><time>2026-04-26T12:22:42Z</time></trkpt><trkpt lat="45.80636543122801" lon="9.944257646886683"><ele>1253.0</ele><time>2026-04-26T12:22:43Z</time></trkpt><trkpt lat="45.80634865616461" lon="9.944154490142896"><ele>1251.8333333333335</ele><time>2026-04-26T12:22:44Z</time></trkpt><trkpt lat="45.8063179810628" lon="9.944072471680338"><ele>1250.6666666666667</ele><time>2026-04-26T12:22:45Z</time></trkpt><trkpt lat="45.80626947344125" lon="9.943947361485936"><ele>1249.5</ele><time>2026-04-26T12:22:47Z</time></trkpt><trkpt lat="45.8062367486499" lon="9.943845176329004"><ele>1248.3333333333333</ele><time>2026-04-26T12:22:49Z</time></trkpt><trkpt lat="45.806216201771434" lon="9.943751405889975"><ele>1247.1666666666665</ele><time>2026-04-26T12:22:51Z</time></trkpt><trkpt lat="45.80619506773865" lon="9.94366044280812"><ele>1246.0</ele><time>2026-04-26T12:22:53Z</time></trkpt><trkpt lat="45.80616952983979" lon="9.943545380978467"><ele>1246.0</ele><time>2026-04-26T12:22:56Z</time></trkpt><trkpt lat="45.80620719858996" lon="9.943441323473841"><ele>1246.0</ele><time>2026-04-26T12:22:58Z</time></trkpt><trkpt lat="45.80620049743223" lon="9.943331628585257"><ele>1246.0</ele><time>2026-04-26T12:23:00Z</time></trkpt><trkpt lat="45.80616048200768" lon="9.943201231623714"><ele>1246.0</ele><time>2026-04-26T12:23:02Z</time></trkpt><trkpt lat="45.80613458936467" lon="9.94305422042918"><ele>1246.0</ele><time>2026-04-26T12:23:04Z</time></trkpt><trkpt lat="45.806142158390436" lon="9.942963625431984"><ele>1246.0</ele><time>2026-04-26T12:23:06Z</time></trkpt><trkpt lat="45.806066963433246" lon="9.94292347746265"><ele>1244.6666666666665</ele><time>2026-04-26T12:23:10Z</time></trkpt><trkpt lat="45.80599855828361" lon="9.942876227315745"><ele>1243.3333333333333</ele><time>2026-04-26T12:23:12Z</time></trkpt><trkpt lat="45.80588933787917" lon="9.942783508918863"><ele>1242.0</ele><time>2026-04-26T12:23:13.999Z</time></trkpt><trkpt lat="45.80583366285009" lon="9.94273918169814"><ele>1240.6666666666667</ele><time>2026-04-26T12:23:14.999Z</time></trkpt><trkpt lat="45.8057785517735" lon="9.942693500317013"><ele>1239.3333333333335</ele><time>2026-04-26T12:23:15.999Z</time></trkpt><trkpt lat="45.80571601056393" lon="9.942637320242957"><ele>1238.0</ele><time>2026-04-26T12:23:16.999Z</time></trkpt><trkpt lat="45.80565724764797" lon="9.942584677855782"><ele>1233.0</ele><time>2026-04-26T12:23:17.999Z</time></trkpt><trkpt lat="45.80557531214466" lon="9.942536415745183"><ele>1228.0</ele><time>2026-04-26T12:23:18.999Z</time></trkpt><trkpt lat="45.805490234211966" lon="9.94247742737556"><ele>1223.0</ele><time>2026-04-26T12:23:19.999Z</time></trkpt><trkpt lat="45.80543253636316" lon="9.942392156190575"><ele>1218.0</ele><time>2026-04-26T12:23:20.999Z</time></trkpt><trkpt lat="45.80537434072504" lon="9.9423220723716"><ele>1213.0</ele><time>2026-04-26T12:23:21.999Z</time></trkpt><trkpt lat="45.80528889643489" lon="9.942316068554948"><ele>1208.0</ele><time>2026-04-26T12:23:23.999Z</time></trkpt><trkpt lat="45.80521723924115" lon="9.942284243903497"><ele>1208.0</ele><time>2026-04-26T12:23:25.999Z</time></trkpt><trkpt lat="45.80516538860488" lon="9.94241027299496"><ele>1208.0</ele><time>2026-04-26T12:23:27.999Z</time></trkpt><trkpt lat="45.805083079784744" lon="9.94247537059464"><ele>1208.0</ele><time>2026-04-26T12:23:29.999Z</time></trkpt><trkpt lat="45.804989611848754" lon="9.942369424629279"><ele>1208.0</ele><time>2026-04-26T12:23:31.999Z</time></trkpt><trkpt lat="45.80489447952106" lon="9.942253207494307"><ele>1208.0</ele><time>2026-04-26T12:23:33.999Z</time></trkpt><trkpt lat="45.8048570877887" lon="9.942170853958233"><ele>1207.0</ele><time>2026-04-26T12:23:34.999Z</time></trkpt><trkpt lat="45.80482601680138" lon="9.94208972036685"><ele>1206.0</ele><time>2026-04-26T12:23:35.999Z</time></trkpt><trkpt lat="45.80476048334313" lon="9.941984487385643"><ele>1205.0</ele><time>2026-04-26T12:23:37.999Z</time></trkpt><trkpt lat="45.804692533932545" lon="9.941930909890077"><ele>1204.0</ele><time>2026-04-26T12:23:40.999Z</time></trkpt><trkpt lat="45.80467515134638" lon="9.941830686140088"><ele>1203.0</ele><time>2026-04-26T12:23:42.999Z</time></trkpt><trkpt lat="45.80465122708272" lon="9.941728336366852"><ele>1202.0</ele><time>2026-04-26T12:23:44.999Z</time></trkpt><trkpt lat="45.804608845987424" lon="9.94161152564677"><ele>1201.8333333333335</ele><time>2026-04-26T12:23:46.999Z</time></trkpt><trkpt lat="45.8045842382722" lon="9.941525403759385"><ele>1201.6666666666667</ele><time>2026-04-26T12:23:48.999Z</time></trkpt><trkpt lat="45.804561992300165" lon="9.941396241197578"><ele>1201.5</ele><time>2026-04-26T12:23:51.999Z</time></trkpt><trkpt lat="45.8045470022719" lon="9.94127179783782"><ele>1201.3333333333333</ele><time>2026-04-26T12:23:53.999Z</time></trkpt><trkpt lat="45.80451796801945" lon="9.941186796363839"><ele>1201.1666666666665</ele><time>2026-04-26T12:23:55.999Z</time></trkpt><trkpt lat="45.8044790514376" lon="9.94100779803117"><ele>1201.0</ele><time>2026-04-26T12:23:57.999Z</time></trkpt><trkpt lat="45.80444830276806" lon="9.940883754531546"><ele>1199.6</ele><time>2026-04-26T12:23:58.999Z</time></trkpt><trkpt lat="45.804377008041904" lon="9.940807939113274"><ele>1198.1999999999998</ele><time>2026-04-26T12:24:00.999Z</time></trkpt><trkpt lat="45.80428495124568" lon="9.940652301309633"><ele>1196.8000000000002</ele><time>2026-04-26T12:24:02.999Z</time></trkpt><trkpt lat="45.80414442337985" lon="9.940720447057725"><ele>1195.4</ele><time>2026-04-26T12:24:03.999Z</time></trkpt><trkpt lat="45.80409670128209" lon="9.94066108816158"><ele>1194.0</ele><time>2026-04-26T12:24:05.999Z</time></trkpt><trkpt lat="45.80401206829722" lon="9.940603431998376"><ele>1189.6666666666667</ele><time>2026-04-26T12:24:07.999Z</time></trkpt><trkpt lat="45.80391375337655" lon="9.940602841030016"><ele>1185.3333333333333</ele><time>2026-04-26T12:24:08.999Z</time></trkpt><trkpt lat="45.803838381187624" lon="9.940570476258676"><ele>1181.0</ele><time>2026-04-26T12:24:09.999Z</time></trkpt><trkpt lat="45.803765314233154" lon="9.940575390312986"><ele>1176.6666666666665</ele><time>2026-04-26T12:24:10.999Z</time></trkpt><trkpt lat="45.8036986521844" lon="9.940571813552834"><ele>1172.3333333333333</ele><time>2026-04-26T12:24:11.999Z</time></trkpt><trkpt lat="45.80362669676627" lon="9.940577242546446"><ele>1168.0</ele><time>2026-04-26T12:24:12.999Z</time></trkpt><trkpt lat="45.80355845751299" lon="9.940577302555349"><ele>1164.8333333333333</ele><time>2026-04-26T12:24:13.999Z</time></trkpt><trkpt lat="45.803491484704765" lon="9.940547312136784"><ele>1161.6666666666665</ele><time>2026-04-26T12:24:14.999Z</time></trkpt><trkpt lat="45.80345756488596" lon="9.940444242708653"><ele>1158.5</ele><time>2026-04-26T12:24:15.999Z</time></trkpt><trkpt lat="45.80340446146602" lon="9.94037891024336"><ele>1155.3333333333333</ele><time>2026-04-26T12:24:16.999Z</time></trkpt><trkpt lat="45.80334328747324" lon="9.940243647729766"><ele>1152.1666666666667</ele><time>2026-04-26T12:24:17.999Z</time></trkpt><trkpt lat="45.80327786629747" lon="9.94015457452377"><ele>1149.0</ele><time>2026-04-26T12:24:18.999Z</time></trkpt><trkpt lat="45.80319392697691" lon="9.940088585573893"><ele>1150.4285714285716</ele><time>2026-04-26T12:24:19.999Z</time></trkpt><trkpt lat="45.80312267305319" lon="9.940034819419354"><ele>1151.857142857143</ele><time>2026-04-26T12:24:20.999Z</time></trkpt><trkpt lat="45.803087092382306" lon="9.939957404177216"><ele>1153.2857142857142</ele><time>2026-04-26T12:24:21.999Z</time></trkpt><trkpt lat="45.80305902605516" lon="9.939865146756148"><ele>1154.7142857142858</ele><time>2026-04-26T12:24:23Z</time></trkpt><trkpt lat="45.80305454219772" lon="9.93976758120797"><ele>1156.142857142857</ele><time>2026-04-26T12:24:24Z</time></trkpt><trkpt lat="45.80304818169022" lon="9.939663028475637"><ele>1157.5714285714287</ele><time>2026-04-26T12:24:25Z</time></trkpt><trkpt lat="45.80302871985344" lon="9.939564342439931"><ele>1159.0</ele><time>2026-04-26T12:24:26Z</time></trkpt><trkpt lat="45.803028147392446" lon="9.939460788250072"><ele>1159.0</ele><time>2026-04-26T12:24:27Z</time></trkpt><trkpt lat="45.803036488355836" lon="9.93933914221843"><ele>1159.0</ele><time>2026-04-26T12:24:28Z</time></trkpt><trkpt lat="45.803028155685176" lon="9.939209408656362"><ele>1159.0</ele><time>2026-04-26T12:24:29Z</time></trkpt><trkpt lat="45.803011552196246" lon="9.93910745290319"><ele>1159.0</ele><time>2026-04-26T12:24:30Z</time></trkpt><trkpt lat="45.80300368839528" lon="9.938982071375587"><ele>1159.0</ele><time>2026-04-26T12:24:31Z</time></trkpt><trkpt lat="45.80300153195073" lon="9.93885593572338"><ele>1159.0</ele><time>2026-04-26T12:24:32Z</time></trkpt><trkpt lat="45.80299213039668" lon="9.938728538521913"><ele>1158.5</ele><time>2026-04-26T12:24:33Z</time></trkpt><trkpt lat="45.80298697232045" lon="9.938604479941308"><ele>1158.0</ele><time>2026-04-26T12:24:34Z</time></trkpt><trkpt lat="45.802989960096625" lon="9.938495031302677"><ele>1157.5</ele><time>2026-04-26T12:24:35Z</time></trkpt><trkpt lat="45.803004637300496" lon="9.938400109389516"><ele>1157.0</ele><time>2026-04-26T12:24:36Z</time></trkpt><trkpt lat="45.80303661427469" lon="9.938309266586227"><ele>1156.5</ele><time>2026-04-26T12:24:37Z</time></trkpt><trkpt lat="45.8030920109579" lon="9.938169290120102"><ele>1156.0</ele><time>2026-04-26T12:24:39Z</time></trkpt><trkpt lat="45.80309357806963" lon="9.938062585556894"><ele>1153.8333333333333</ele><time>2026-04-26T12:24:40Z</time></trkpt><trkpt lat="45.80308635107963" lon="9.937947328714001"><ele>1151.6666666666665</ele><time>2026-04-26T12:24:41Z</time></trkpt><trkpt lat="45.80309007805803" lon="9.937839359127482"><ele>1149.5</ele><time>2026-04-26T12:24:42Z</time></trkpt><trkpt lat="45.80310769036612" lon="9.937712279049702"><ele>1147.3333333333333</ele><time>2026-04-26T12:24:43Z</time></trkpt><trkpt lat="45.80312886447959" lon="9.937582893236357"><ele>1145.1666666666667</ele><time>2026-04-26T12:24:44Z</time></trkpt><trkpt lat="45.80315233179805" lon="9.937469043224091"><ele>1143.0</ele><time>2026-04-26T12:24:45Z</time></trkpt><trkpt lat="45.80318538462025" lon="9.937335748167921"><ele>1140.3333333333333</ele><time>2026-04-26T12:24:46Z</time></trkpt><trkpt lat="45.80321255217757" lon="9.93721454794712"><ele>1137.6666666666667</ele><time>2026-04-26T12:24:47Z</time></trkpt><trkpt lat="45.80323745979437" lon="9.937102724069932"><ele>1135.0</ele><time>2026-04-26T12:24:48Z</time></trkpt><trkpt lat="45.80325950107863" lon="9.937000582123913"><ele>1132.3333333333335</ele><time>2026-04-26T12:24:49Z</time></trkpt><trkpt lat="45.803259618749934" lon="9.936844536171181"><ele>1129.6666666666667</ele><time>2026-04-26T12:24:51Z</time></trkpt><trkpt lat="45.8032066548274" lon="9.936795096283195"><ele>1127.0</ele><time>2026-04-26T12:24:52Z</time></trkpt><trkpt lat="45.80313673585235" lon="9.93676619415082"><ele>1127.0</ele><time>2026-04-26T12:24:53Z</time></trkpt><trkpt lat="45.80305423759371" lon="9.936748768721376"><ele>1127.0</ele><time>2026-04-26T12:24:54Z</time></trkpt><trkpt lat="45.802969801468834" lon="9.936752347504287"><ele>1127.0</ele><time>2026-04-26T12:24:55Z</time></trkpt><trkpt lat="45.80289164118983" lon="9.936756625837628"><ele>1127.0</ele><time>2026-04-26T12:24:56Z</time></trkpt><trkpt lat="45.80281371946779" lon="9.936744354548749"><ele>1127.0</ele><time>2026-04-26T12:24:57Z</time></trkpt><trkpt lat="45.802739856225976" lon="9.936696875908474"><ele>1127.0</ele><time>2026-04-26T12:24:58Z</time></trkpt><trkpt lat="45.80266759298648" lon="9.936663252601535"><ele>1123.4</ele><time>2026-04-26T12:24:59Z</time></trkpt><trkpt lat="45.80258390109603" lon="9.93662026175452"><ele>1119.8000000000002</ele><time>2026-04-26T12:25:00Z</time></trkpt><trkpt lat="45.80249199026442" lon="9.936581007932547"><ele>1116.2</ele><time>2026-04-26T12:25:01Z</time></trkpt><trkpt lat="45.802418056364736" lon="9.936516062413645"><ele>1112.6000000000001</ele><time>2026-04-26T12:25:02Z</time></trkpt><trkpt lat="45.80229029178266" lon="9.936398969313606"><ele>1109.0</ele><time>2026-04-26T12:25:04Z</time></trkpt><trkpt lat="45.80221169127413" lon="9.936358424794689"><ele>1109.0</ele><time>2026-04-26T12:25:05Z</time></trkpt><trkpt lat="45.80211206694839" lon="9.936330447445663"><ele>1109.0</ele><time>2026-04-26T12:25:06Z</time></trkpt><trkpt lat="45.802026259381535" lon="9.93628036151934"><ele>1109.0</ele><time>2026-04-26T12:25:07Z</time></trkpt><trkpt lat="45.80193127066101" lon="9.936211243767747"><ele>1109.0</ele><time>2026-04-26T12:25:08Z</time></trkpt><trkpt lat="45.801852930998045" lon="9.93615008235633"><ele>1109.0</ele><time>2026-04-26T12:25:09Z</time></trkpt><trkpt lat="45.80177293017932" lon="9.936074705753656"><ele>1108.0</ele><time>2026-04-26T12:25:10Z</time></trkpt><trkpt lat="45.801718985116736" lon="9.935993956262356"><ele>1107.0</ele><time>2026-04-26T12:25:11Z</time></trkpt><trkpt lat="45.80167544933697" lon="9.935901688895347"><ele>1106.0</ele><time>2026-04-26T12:25:12Z</time></trkpt><trkpt lat="45.8016226969772" lon="9.935780074451051"><ele>1105.0</ele><time>2026-04-26T12:25:13Z</time></trkpt><trkpt lat="45.8015651256966" lon="9.935659200644452"><ele>1104.0</ele><time>2026-04-26T12:25:14Z</time></trkpt><trkpt lat="45.801512447051195" lon="9.935531688879598"><ele>1104.0</ele><time>2026-04-26T12:25:15Z</time></trkpt><trkpt lat="45.80146312769902" lon="9.93543202432776"><ele>1104.0</ele><time>2026-04-26T12:25:15.999Z</time></trkpt><trkpt lat="45.80143007465415" lon="9.935305929710616"><ele>1104.0</ele><time>2026-04-26T12:25:16.999Z</time></trkpt><trkpt lat="45.8013902254719" lon="9.935207959725442"><ele>1104.0</ele><time>2026-04-26T12:25:17.999Z</time></trkpt><trkpt lat="45.80134355593872" lon="9.935127907220526"><ele>1104.0</ele><time>2026-04-26T12:25:18.999Z</time></trkpt><trkpt lat="45.80128961744934" lon="9.935040197569801"><ele>1104.0</ele><time>2026-04-26T12:25:19.999Z</time></trkpt><trkpt lat="45.80123142473497" lon="9.93492408612037"><ele>1102.0</ele><time>2026-04-26T12:25:20.999Z</time></trkpt><trkpt lat="45.80115563888204" lon="9.934825207761063"><ele>1100.0</ele><time>2026-04-26T12:25:21.999Z</time></trkpt><trkpt lat="45.801043193483196" lon="9.934740997733838"><ele>1098.0</ele><time>2026-04-26T12:25:22.999Z</time></trkpt><trkpt lat="45.80095783068635" lon="9.934645045990157"><ele>1096.0</ele><time>2026-04-26T12:25:23.999Z</time></trkpt><trkpt lat="45.80086322797018" lon="9.93455983796818"><ele>1094.0</ele><time>2026-04-26T12:25:24.999Z</time></trkpt><trkpt lat="45.80077198917145" lon="9.934475837613585"><ele>1094.0</ele><time>2026-04-26T12:25:25.999Z</time></trkpt><trkpt lat="45.80070545060593" lon="9.934381301911591"><ele>1094.0</ele><time>2026-04-26T12:25:26.999Z</time></trkpt><trkpt lat="45.80063360348479" lon="9.934276167151134"><ele>1094.0</ele><time>2026-04-26T12:25:27.999Z</time></trkpt><trkpt lat="45.80056482424656" lon="9.934165804175874"><ele>1094.0</ele><time>2026-04-26T12:25:28.999Z</time></trkpt><trkpt lat="45.80049216764041" lon="9.934033118343274"><ele>1094.0</ele><time>2026-04-26T12:25:29.999Z</time></trkpt><trkpt lat="45.80043433344132" lon="9.93391801875408"><ele>1097.2</ele><time>2026-04-26T12:25:30.999Z</time></trkpt><trkpt lat="45.80038702292268" lon="9.933791782985855"><ele>1100.4</ele><time>2026-04-26T12:25:31.999Z</time></trkpt><trkpt lat="45.80034385239073" lon="9.93364942279522"><ele>1103.6</ele><time>2026-04-26T12:25:32.999Z</time></trkpt><trkpt lat="45.80030380055026" lon="9.933515897790972"><ele>1106.8</ele><time>2026-04-26T12:25:33.999Z</time></trkpt><trkpt lat="45.80024231292206" lon="9.933355897295785"><ele>1110.0</ele><time>2026-04-26T12:25:34.999Z</time></trkpt><trkpt lat="45.80018677381794" lon="9.933248527003762"><ele>1106.0</ele><time>2026-04-26T12:25:35.999Z</time></trkpt><trkpt lat="45.800126459380266" lon="9.933146107288813"><ele>1102.0</ele><time>2026-04-26T12:25:36.999Z</time></trkpt><trkpt lat="45.8000595976688" lon="9.93304780397931"><ele>1098.0</ele><time>2026-04-26T12:25:37.999Z</time></trkpt><trkpt lat="45.800004610821155" lon="9.932967603295145"><ele>1094.0</ele><time>2026-04-26T12:25:38.999Z</time></trkpt><trkpt lat="45.79993258413046" lon="9.932872764062887"><ele>1090.0</ele><time>2026-04-26T12:25:39.999Z</time></trkpt><trkpt lat="45.79985272793361" lon="9.932789620512882"><ele>1090.0</ele><time>2026-04-26T12:25:40.999Z</time></trkpt><trkpt lat="45.799807409932285" lon="9.932690819372125"><ele>1090.0</ele><time>2026-04-26T12:25:41.999Z</time></trkpt><trkpt lat="45.79974972269104" lon="9.932583483469562"><ele>1090.0</ele><time>2026-04-26T12:25:42.999Z</time></trkpt><trkpt lat="45.79970556852369" lon="9.932476457132779"><ele>1090.0</ele><time>2026-04-26T12:25:43.999Z</time></trkpt><trkpt lat="45.799680246722744" lon="9.932375375199792"><ele>1090.0</ele><time>2026-04-26T12:25:44.999Z</time></trkpt><trkpt lat="45.79965196281005" lon="9.932269726313793"><ele>1090.0</ele><time>2026-04-26T12:25:45.999Z</time></trkpt><trkpt lat="45.79962721578813" lon="9.932163496630578"><ele>1093.6666666666665</ele><time>2026-04-26T12:25:46.999Z</time></trkpt><trkpt lat="45.799610467775814" lon="9.932075890207757"><ele>1097.3333333333333</ele><time>2026-04-26T12:25:47.999Z</time></trkpt><trkpt lat="45.79958945660744" lon="9.931968546879931"><ele>1101.0</ele><time>2026-04-26T12:25:48.999Z</time></trkpt><trkpt lat="45.7995647283518" lon="9.93186146998807"><ele>1104.6666666666667</ele><time>2026-04-26T12:25:49.999Z</time></trkpt><trkpt lat="45.799532315801386" lon="9.931738974754463"><ele>1108.3333333333335</ele><time>2026-04-26T12:25:50.999Z</time></trkpt><trkpt lat="45.799499591573955" lon="9.931629723790751"><ele>1112.0</ele><time>2026-04-26T12:25:51.999Z</time></trkpt><trkpt lat="45.79945884343454" lon="9.931511191861949"><ele>1114.4</ele><time>2026-04-26T12:25:52.999Z</time></trkpt><trkpt lat="45.79942809177593" lon="9.931405334827692"><ele>1116.8000000000002</ele><time>2026-04-26T12:25:53.999Z</time></trkpt><trkpt lat="45.799375471860124" lon="9.931298696246003"><ele>1119.2</ele><time>2026-04-26T12:25:54.999Z</time></trkpt><trkpt lat="45.79934291761556" lon="9.931171261999033"><ele>1121.6000000000001</ele><time>2026-04-26T12:25:55.999Z</time></trkpt><trkpt lat="45.799319136120474" lon="9.931048111800918"><ele>1124.0</ele><time>2026-04-26T12:25:56.999Z</time></trkpt><trkpt lat="45.799297350110514" lon="9.930899912771299"><ele>1119.2</ele><time>2026-04-26T12:25:57.999Z</time></trkpt><trkpt lat="45.79927735960122" lon="9.93073913521044"><ele>1114.4</ele><time>2026-04-26T12:25:58.999Z</time></trkpt><trkpt lat="45.79926808093153" lon="9.930579108740078"><ele>1109.6</ele><time>2026-04-26T12:25:59.999Z</time></trkpt><trkpt lat="45.79926327659091" lon="9.930447257164902"><ele>1104.8</ele><time>2026-04-26T12:26:00.999Z</time></trkpt><trkpt lat="45.79921958180398" lon="9.930339883670985"><ele>1100.0</ele><time>2026-04-26T12:26:01.999Z</time></trkpt><trkpt lat="45.799180194523665" lon="9.93023163369628"><ele>1100.0</ele><time>2026-04-26T12:26:02.999Z</time></trkpt><trkpt lat="45.79915503418656" lon="9.930119111438996"><ele>1100.0</ele><time>2026-04-26T12:26:03.999Z</time></trkpt><trkpt lat="45.79912043970031" lon="9.93000139430828"><ele>1100.0</ele><time>2026-04-26T12:26:04.999Z</time></trkpt><trkpt lat="45.79908523661854" lon="9.929887015295817"><ele>1100.0</ele><time>2026-04-26T12:26:05.999Z</time></trkpt><trkpt lat="45.79904762836274" lon="9.929766274431534"><ele>1100.0</ele><time>2026-04-26T12:26:06.999Z</time></trkpt><trkpt lat="45.79901701227891" lon="9.929660827278223"><ele>1100.0</ele><time>2026-04-26T12:26:07.999Z</time></trkpt><trkpt lat="45.79898789062954" lon="9.929561771635429"><ele>1102.2</ele><time>2026-04-26T12:26:08.999Z</time></trkpt><trkpt lat="45.79895334094924" lon="9.929446159728347"><ele>1104.4</ele><time>2026-04-26T12:26:09.999Z</time></trkpt><trkpt lat="45.79891255930062" lon="9.929316818749133"><ele>1106.6</ele><time>2026-04-26T12:26:10.999Z</time></trkpt><trkpt lat="45.79886922459272" lon="9.929216977857024"><ele>1108.8</ele><time>2026-04-26T12:26:11.999Z</time></trkpt><trkpt lat="45.79882341328763" lon="9.929109233457403"><ele>1111.0</ele><time>2026-04-26T12:26:12.999Z</time></trkpt><trkpt lat="45.79878355002975" lon="9.928985851124871"><ele>1111.8333333333333</ele><time>2026-04-26T12:26:13.999Z</time></trkpt><trkpt lat="45.798718159477055" lon="9.928879799088515"><ele>1112.6666666666665</ele><time>2026-04-26T12:26:14.999Z</time></trkpt><trkpt lat="45.79865176922454" lon="9.928812833800212"><ele>1113.5</ele><time>2026-04-26T12:26:15.999Z</time></trkpt><trkpt lat="45.798553964532026" lon="9.928756176085438"><ele>1114.3333333333333</ele><time>2026-04-26T12:26:16.999Z</time></trkpt><trkpt lat="45.798494979406364" lon="9.928693895300938"><ele>1115.1666666666667</ele><time>2026-04-26T12:26:17.999Z</time></trkpt><trkpt lat="45.79842435163767" lon="9.928628199290115"><ele>1116.0</ele><time>2026-04-26T12:26:18.999Z</time></trkpt><trkpt lat="45.7983608758303" lon="9.928547908894533"><ele>1110.3333333333333</ele><time>2026-04-26T12:26:19.999Z</time></trkpt><trkpt lat="45.79828588245397" lon="9.928505685814974"><ele>1104.6666666666667</ele><time>2026-04-26T12:26:20.999Z</time></trkpt><trkpt lat="45.79821361640224" lon="9.928448809154295"><ele>1099.0</ele><time>2026-04-26T12:26:21.999Z</time></trkpt><trkpt lat="45.79815080504395" lon="9.928436429708684"><ele>1093.3333333333335</ele><time>2026-04-26T12:26:22.999Z</time></trkpt><trkpt lat="45.79803143742545" lon="9.928403103769945"><ele>1087.6666666666667</ele><time>2026-04-26T12:26:24.999Z</time></trkpt><trkpt lat="45.797969681608045" lon="9.92837802320208"><ele>1082.0</ele><time>2026-04-26T12:26:25.999Z</time></trkpt><trkpt lat="45.79790626983946" lon="9.92834754206448"><ele>1081.857142857143</ele><time>2026-04-26T12:26:26.999Z</time></trkpt><trkpt lat="45.79784289990396" lon="9.928310201483413"><ele>1081.7142857142858</ele><time>2026-04-26T12:26:27.999Z</time></trkpt><trkpt lat="45.79778298586408" lon="9.928266368602957"><ele>1081.5714285714284</ele><time>2026-04-26T12:26:29Z</time></trkpt><trkpt lat="45.797724461782515" lon="9.928212617458097"><ele>1081.4285714285716</ele><time>2026-04-26T12:26:30Z</time></trkpt><trkpt lat="45.797665080705976" lon="9.92814521481506"><ele>1081.2857142857142</ele><time>2026-04-26T12:26:31Z</time></trkpt><trkpt lat="45.79760783368153" lon="9.928063473060169"><ele>1081.142857142857</ele><time>2026-04-26T12:26:32Z</time></trkpt><trkpt lat="45.797566083088974" lon="9.92797623923643"><ele>1081.0</ele><time>2026-04-26T12:26:33Z</time></trkpt><trkpt lat="45.79753354691293" lon="9.927889981565386"><ele>1077.6</ele><time>2026-04-26T12:26:34Z</time></trkpt><trkpt lat="45.79750612600738" lon="9.927807453451862"><ele>1074.1999999999998</ele><time>2026-04-26T12:26:35Z</time></trkpt><trkpt lat="45.79743780709658" lon="9.92765510578796"><ele>1070.8000000000002</ele><time>2026-04-26T12:26:37Z</time></trkpt><trkpt lat="45.797366581077675" lon="9.927530150290542"><ele>1067.4</ele><time>2026-04-26T12:26:39Z</time></trkpt><trkpt lat="45.797319586443024" lon="9.92741388142243"><ele>1064.0</ele><time>2026-04-26T12:26:41Z</time></trkpt><trkpt lat="45.79725581368087" lon="9.927331490546623"><ele>1063.8</ele><time>2026-04-26T12:26:44Z</time></trkpt><trkpt lat="45.797170677162065" lon="9.927289163578449"><ele>1063.6000000000001</ele><time>2026-04-26T12:26:46Z</time></trkpt><trkpt lat="45.79707447570731" lon="9.9272034827279"><ele>1063.4</ele><time>2026-04-26T12:26:48Z</time></trkpt><trkpt lat="45.797005418246535" lon="9.927107702389751"><ele>1063.2</ele><time>2026-04-26T12:26:50Z</time></trkpt><trkpt lat="45.79692477619936" lon="9.926993047808734"><ele>1063.0</ele><time>2026-04-26T12:26:52Z</time></trkpt><trkpt lat="45.79683605428676" lon="9.92687728804844"><ele>1061.2</ele><time>2026-04-26T12:26:54Z</time></trkpt><trkpt lat="45.79676535921043" lon="9.926758533169505"><ele>1059.4</ele><time>2026-04-26T12:26:56Z</time></trkpt><trkpt lat="45.796751614260565" lon="9.926644379818613"><ele>1057.6000000000001</ele><time>2026-04-26T12:26:58Z</time></trkpt><trkpt lat="45.79674019385598" lon="9.926501292079994"><ele>1055.8</ele><time>2026-04-26T12:27:00Z</time></trkpt><trkpt lat="45.79672489517065" lon="9.926364951296732"><ele>1054.0</ele><time>2026-04-26T12:27:02Z</time></trkpt><trkpt lat="45.796714049028715" lon="9.926215647390862"><ele>1053.6000000000001</ele><time>2026-04-26T12:27:04Z</time></trkpt><trkpt lat="45.79674449976657" lon="9.926051094322075"><ele>1053.2</ele><time>2026-04-26T12:27:06Z</time></trkpt><trkpt lat="45.79676549131412" lon="9.925909236986538"><ele>1052.8000000000002</ele><time>2026-04-26T12:27:08Z</time></trkpt><trkpt lat="45.79682038523182" lon="9.92581570823542"><ele>1052.4</ele><time>2026-04-26T12:27:10Z</time></trkpt><trkpt lat="45.79688028744125" lon="9.925705546930963"><ele>1052.0</ele><time>2026-04-26T12:27:12Z</time></trkpt><trkpt lat="45.79692118938162" lon="9.92562186692901"><ele>1049.8</ele><time>2026-04-26T12:27:14Z</time></trkpt><trkpt lat="45.796998748648356" lon="9.925558360990351"><ele>1047.6</ele><time>2026-04-26T12:27:16Z</time></trkpt><trkpt lat="45.797028441849335" lon="9.925465397205556"><ele>1045.3999999999999</ele><time>2026-04-26T12:27:17.999Z</time></trkpt><trkpt lat="45.79698844095571" lon="9.925353186961136"><ele>1043.2</ele><time>2026-04-26T12:27:18.999Z</time></trkpt><trkpt lat="45.79690388457006" lon="9.92530776486533"><ele>1041.0</ele><time>2026-04-26T12:27:19.999Z</time></trkpt><trkpt lat="45.79677474699945" lon="9.92525902391496"><ele>1041.0</ele><time>2026-04-26T12:27:21.999Z</time></trkpt><trkpt lat="45.79667244783095" lon="9.925218730461854"><ele>1041.0</ele><time>2026-04-26T12:27:22.999Z</time></trkpt><trkpt lat="45.79659290179946" lon="9.925203184191483"><ele>1041.0</ele><time>2026-04-26T12:27:23.999Z</time></trkpt><trkpt lat="45.796514578526526" lon="9.92514522378821"><ele>1041.0</ele><time>2026-04-26T12:27:24.999Z</time></trkpt><trkpt lat="45.79644446818043" lon="9.925102743212372"><ele>1041.0</ele><time>2026-04-26T12:27:25.999Z</time></trkpt><trkpt lat="45.79637575320147" lon="9.925043195963724"><ele>1041.0</ele><time>2026-04-26T12:27:26.999Z</time></trkpt><trkpt lat="45.79627122473917" lon="9.924967228232854"><ele>1037.3999999999999</ele><time>2026-04-26T12:27:28.999Z</time></trkpt><trkpt lat="45.79617828747065" lon="9.924872086249447"><ele>1033.8</ele><time>2026-04-26T12:27:30.999Z</time></trkpt><trkpt lat="45.796116326956465" lon="9.92483136335278"><ele>1030.1999999999998</ele><time>2026-04-26T12:27:31.999Z</time></trkpt><trkpt lat="45.79599411853722" lon="9.924761785130853"><ele>1026.6</ele><time>2026-04-26T12:27:33.999Z</time></trkpt><trkpt lat="45.79590285731511" lon="9.924688993525812"><ele>1023.0</ele><time>2026-04-26T12:27:35.999Z</time></trkpt><trkpt lat="45.79582872863792" lon="9.92465162174964"><ele>1023.0</ele><time>2026-04-26T12:27:36.999Z</time></trkpt><trkpt lat="45.79577095679258" lon="9.924564881507775"><ele>1023.0</ele><time>2026-04-26T12:27:37.999Z</time></trkpt><trkpt lat="45.79571361490498" lon="9.924497007181701"><ele>1023.0</ele><time>2026-04-26T12:27:38.999Z</time></trkpt><trkpt lat="45.795665097164864" lon="9.92443776496375"><ele>1023.0</ele><time>2026-04-26T12:27:39.999Z</time></trkpt><trkpt lat="45.795610551795086" lon="9.924376986676192"><ele>1023.0</ele><time>2026-04-26T12:27:40.999Z</time></trkpt><trkpt lat="45.79554855108498" lon="9.924256981434533"><ele>1023.0</ele><time>2026-04-26T12:27:41.999Z</time></trkpt><trkpt lat="45.79547926408675" lon="9.924128977163011"><ele>1017.3333333333333</ele><time>2026-04-26T12:27:42.999Z</time></trkpt><trkpt lat="45.79541659843623" lon="9.923969899005376"><ele>1011.6666666666666</ele><time>2026-04-26T12:27:43.999Z</time></trkpt><trkpt lat="45.795322337161984" lon="9.923745527507899"><ele>1006.0</ele><time>2026-04-26T12:27:44.999Z</time></trkpt><trkpt lat="45.795245981208865" lon="9.923555890052405"><ele>1008.5</ele><time>2026-04-26T12:27:45.999Z</time></trkpt><trkpt lat="45.79517999215992" lon="9.923373058246272"><ele>1011.0</ele><time>2026-04-26T12:27:46.999Z</time></trkpt><trkpt lat="45.79511260225401" lon="9.923184690679177"><ele>1013.5</ele><time>2026-04-26T12:27:47.999Z</time></trkpt><trkpt lat="45.79504667523742" lon="9.923031197214609"><ele>1016.0</ele><time>2026-04-26T12:27:48.999Z</time></trkpt><trkpt lat="45.794970342693325" lon="9.922861643028062"><ele>1016.0</ele><time>2026-04-26T12:27:49.999Z</time></trkpt><trkpt lat="45.79489344648424" lon="9.9227096344438"><ele>1016.0</ele><time>2026-04-26T12:27:50.999Z</time></trkpt><trkpt lat="45.7948156125167" lon="9.922600464656869"><ele>1016.0</ele><time>2026-04-26T12:27:51.999Z</time></trkpt><trkpt lat="45.79471740895525" lon="9.922449922054982"><ele>1016.0</ele><time>2026-04-26T12:27:53.999Z</time></trkpt><trkpt lat="45.79461645223526" lon="9.922384535444943"><ele>1014.75</ele><time>2026-04-26T12:27:54.999Z</time></trkpt><trkpt lat="45.794514827423285" lon="9.922296113020334"><ele>1013.5</ele><time>2026-04-26T12:27:55.999Z</time></trkpt><trkpt lat="45.79439735800996" lon="9.922250254399678"><ele>1012.25</ele><time>2026-04-26T12:27:56.999Z</time></trkpt><trkpt lat="45.79428044227913" lon="9.922248834207931"><ele>1011.0</ele><time>2026-04-26T12:27:57.999Z</time></trkpt><trkpt lat="45.79416060472104" lon="9.922242594218993"><ele>1011.0</ele><time>2026-04-26T12:27:58.999Z</time></trkpt><trkpt lat="45.7940400026018" lon="9.922255305583906"><ele>1010.9999999999999</ele><time>2026-04-26T12:27:59.999Z</time></trkpt><trkpt lat="45.793933655318845" lon="9.92230206720086"><ele>1010.9999999999999</ele><time>2026-04-26T12:28:00.999Z</time></trkpt><trkpt lat="45.79383758985612" lon="9.922324900104405"><ele>1011.0</ele><time>2026-04-26T12:28:01.999Z</time></trkpt><trkpt lat="45.793760287325505" lon="9.92233978716247"><ele>1011.0</ele><time>2026-04-26T12:28:02.999Z</time></trkpt><trkpt lat="45.79368643150542" lon="9.922331284680917"><ele>1011.0</ele><time>2026-04-26T12:28:04.999Z</time></trkpt><trkpt lat="45.793783262141815" lon="9.922249016962905"><ele>1010.9999999999999</ele><time>2026-04-26T12:28:07.999Z</time></trkpt><trkpt lat="45.793854252769" lon="9.922166630925728"><ele>1010.9999999999999</ele><time>2026-04-26T12:28:08.999Z</time></trkpt><trkpt lat="45.79393669041086" lon="9.92206408286112"><ele>1011.0</ele><time>2026-04-26T12:28:09.999Z</time></trkpt><trkpt lat="45.79404277925779" lon="9.921970553739222"><ele>1011.0</ele><time>2026-04-26T12:28:10.999Z</time></trkpt><trkpt lat="45.7941394792638" lon="9.921887646332246"><ele>1011.0</ele><time>2026-04-26T12:28:11.999Z</time></trkpt><trkpt lat="45.79423323346843" lon="9.921797954950492"><ele>1011.0</ele><time>2026-04-26T12:28:12.999Z</time></trkpt><trkpt lat="45.794344742460915" lon="9.921735296127697"><ele>1011.0</ele><time>2026-04-26T12:28:13.999Z</time></trkpt><trkpt lat="45.79445451688551" lon="9.92167266315039"><ele>1011.0</ele><time>2026-04-26T12:28:14.999Z</time></trkpt><trkpt lat="45.794576129027774" lon="9.921626645267153"><ele>1004.5999999999999</ele><time>2026-04-26T12:28:15.999Z</time></trkpt><trkpt lat="45.794681059598936" lon="9.921601050568373"><ele>998.1999999999999</ele><time>2026-04-26T12:28:16.999Z</time></trkpt><trkpt lat="45.794786247002996" lon="9.921581989295486"><ele>991.8000000000001</ele><time>2026-04-26T12:28:17.999Z</time></trkpt><trkpt lat="45.79489156417033" lon="9.92155991070192"><ele>985.4000000000001</ele><time>2026-04-26T12:28:18.999Z</time></trkpt><trkpt lat="45.79497027833875" lon="9.921534919302852"><ele>979.0</ele><time>2026-04-26T12:28:19.999Z</time></trkpt><trkpt lat="45.79503329333296" lon="9.921514912687536"><ele>979.0</ele><time>2026-04-26T12:28:21.999Z</time></trkpt><trkpt lat="45.79508493434178" lon="9.92141148644657"><ele>979.0000000000001</ele><time>2026-04-26T12:28:23.999Z</time></trkpt><trkpt lat="45.79508311840281" lon="9.921296347603068"><ele>979.0000000000001</ele><time>2026-04-26T12:28:24.999Z</time></trkpt><trkpt lat="45.79495247256837" lon="9.92120919411683"><ele>979.0</ele><time>2026-04-26T12:28:25.999Z</time></trkpt><trkpt lat="45.794852908849705" lon="9.92121985557016"><ele>979.0</ele><time>2026-04-26T12:28:26.999Z</time></trkpt><trkpt lat="45.79476693395923" lon="9.921221283061179"><ele>979.0</ele><time>2026-04-26T12:28:27.999Z</time></trkpt><trkpt lat="45.794665513827695" lon="9.921232425658069"><ele>979.0</ele><time>2026-04-26T12:28:28.999Z</time></trkpt><trkpt lat="45.794565710549435" lon="9.921243258298196"><ele>979.0</ele><time>2026-04-26T12:28:29.999Z</time></trkpt><trkpt lat="45.79444604107358" lon="9.921259486992891"><ele>979.0</ele><time>2026-04-26T12:28:30.999Z</time></trkpt><trkpt lat="45.794314324481775" lon="9.921258874240461"><ele>980.0</ele><time>2026-04-26T12:28:31.999Z</time></trkpt><trkpt lat="45.79419792639402" lon="9.92126165574258"><ele>981.0</ele><time>2026-04-26T12:28:32.999Z</time></trkpt><trkpt lat="45.79408566252045" lon="9.921275770439955"><ele>982.0</ele><time>2026-04-26T12:28:33.999Z</time></trkpt><trkpt lat="45.7939756583826" lon="9.92131481223867"><ele>983.0</ele><time>2026-04-26T12:28:35Z</time></trkpt><trkpt lat="45.793852751385245" lon="9.921312542554375"><ele>983.0</ele><time>2026-04-26T12:28:36Z</time></trkpt><trkpt lat="45.793746050483314" lon="9.92133005267856"><ele>983.0</ele><time>2026-04-26T12:28:37Z</time></trkpt><trkpt lat="45.79363922946854" lon="9.921366491675121"><ele>983.0</ele><time>2026-04-26T12:28:38Z</time></trkpt><trkpt lat="45.79352341668404" lon="9.921375544694593"><ele>983.0</ele><time>2026-04-26T12:28:39Z</time></trkpt><trkpt lat="45.79343821310175" lon="9.921357523076093"><ele>983.0</ele><time>2026-04-26T12:28:40Z</time></trkpt><trkpt lat="45.793344635571515" lon="9.92135068916385"><ele>983.0</ele><time>2026-04-26T12:28:42Z</time></trkpt><trkpt lat="45.79339487522305" lon="9.921260434795121"><ele>983.0</ele><time>2026-04-26T12:28:44Z</time></trkpt><trkpt lat="45.79343462077378" lon="9.921381948907118"><ele>983.0</ele><time>2026-04-26T12:28:45Z</time></trkpt><trkpt lat="45.79350362037244" lon="9.921313865574247"><ele>983.0</ele><time>2026-04-26T12:28:46Z</time></trkpt><trkpt lat="45.793635810493186" lon="9.921227318683362"><ele>983.0</ele><time>2026-04-26T12:28:47Z</time></trkpt><trkpt lat="45.793796607028106" lon="9.921132237641332"><ele>983.0</ele><time>2026-04-26T12:28:48Z</time></trkpt><trkpt lat="45.793951126351445" lon="9.921043457412106"><ele>983.0</ele><time>2026-04-26T12:28:49Z</time></trkpt><trkpt lat="45.79409575734154" lon="9.920958919671293"><ele>983.0</ele><time>2026-04-26T12:28:50Z</time></trkpt><trkpt lat="45.794246438668644" lon="9.920869921714132"><ele>972.3333333333334</ele><time>2026-04-26T12:28:51Z</time></trkpt><trkpt lat="45.794389451095256" lon="9.920787992891107"><ele>961.6666666666667</ele><time>2026-04-26T12:28:52Z</time></trkpt><trkpt lat="45.79452785288638" lon="9.92070870536591"><ele>951.0</ele><time>2026-04-26T12:28:53Z</time></trkpt><trkpt lat="45.79467065428579" lon="9.92062740753991"><ele>951.0</ele><time>2026-04-26T12:28:54Z</time></trkpt><trkpt lat="45.794810486621834" lon="9.920548848423289"><ele>951.0</ele><time>2026-04-26T12:28:55Z</time></trkpt><trkpt lat="45.79494780137766" lon="9.920472744752464"><ele>951.0</ele><time>2026-04-26T12:28:56Z</time></trkpt><trkpt lat="45.79506623031705" lon="9.92040714309052"><ele>951.0</ele><time>2026-04-26T12:28:57Z</time></trkpt><trkpt lat="45.79517823101474" lon="9.920347454406775"><ele>948.6666666666666</ele><time>2026-04-26T12:28:58Z</time></trkpt><trkpt lat="45.795276574310556" lon="9.920300184697632"><ele>946.3333333333333</ele><time>2026-04-26T12:28:59Z</time></trkpt><trkpt lat="45.795362581673196" lon="9.920261277887773"><ele>944.0</ele><time>2026-04-26T12:29:00Z</time></trkpt><trkpt lat="45.79543606585999" lon="9.920227200426943"><ele>941.6666666666666</ele><time>2026-04-26T12:29:01Z</time></trkpt><trkpt lat="45.795504648364314" lon="9.920193936015322"><ele>939.3333333333333</ele><time>2026-04-26T12:29:02Z</time></trkpt><trkpt lat="45.79558637750673" lon="9.92014260273115"><ele>937.0</ele><time>2026-04-26T12:29:04Z</time></trkpt><trkpt lat="45.79560377165389" lon="9.919908568808156"><ele>932.0</ele><time>2026-04-26T12:29:07Z</time></trkpt><trkpt lat="45.795485824017135" lon="9.91983570108941"><ele>927.0</ele><time>2026-04-26T12:29:08Z</time></trkpt><trkpt lat="45.79535229852741" lon="9.919835702226539"><ele>922.0</ele><time>2026-04-26T12:29:09Z</time></trkpt><trkpt lat="45.79524230058427" lon="9.919843527678752"><ele>917.0</ele><time>2026-04-26T12:29:10Z</time></trkpt><trkpt lat="45.79512018260962" lon="9.91985488447827"><ele>917.0</ele><time>2026-04-26T12:29:11Z</time></trkpt><trkpt lat="45.795007905498984" lon="9.91986842679478"><ele>917.0</ele><time>2026-04-26T12:29:12Z</time></trkpt><trkpt lat="45.79487792738368" lon="9.919893768112646"><ele>917.0</ele><time>2026-04-26T12:29:13Z</time></trkpt><trkpt lat="45.79474664586289" lon="9.919903580669605"><ele>917.0</ele><time>2026-04-26T12:29:14Z</time></trkpt><trkpt lat="45.79463438237585" lon="9.919919640343704"><ele>917.0</ele><time>2026-04-26T12:29:15Z</time></trkpt><trkpt lat="45.79452011084045" lon="9.919955155332012"><ele>917.0</ele><time>2026-04-26T12:29:16Z</time></trkpt><trkpt lat="45.79439298909208" lon="9.919954833017966"><ele>917.0</ele><time>2026-04-26T12:29:17Z</time></trkpt><trkpt lat="45.79426008594939" lon="9.919976109762608"><ele>917.0</ele><time>2026-04-26T12:29:18Z</time></trkpt><trkpt lat="45.79414871337202" lon="9.919989007670173"><ele>913.75</ele><time>2026-04-26T12:29:19Z</time></trkpt><trkpt lat="45.79402243896682" lon="9.920008688180618"><ele>910.5</ele><time>2026-04-26T12:29:20Z</time></trkpt><trkpt lat="45.793894584210875" lon="9.920026815367137"><ele>907.25</ele><time>2026-04-26T12:29:21Z</time></trkpt><trkpt lat="45.793752904128496" lon="9.920049638690623"><ele>904.0</ele><time>2026-04-26T12:29:22Z</time></trkpt><trkpt lat="45.79361858387485" lon="9.920065782340265"><ele>910.0</ele><time>2026-04-26T12:29:23Z</time></trkpt><trkpt lat="45.793494420253054" lon="9.920094048223945"><ele>916.0</ele><time>2026-04-26T12:29:24Z</time></trkpt><trkpt lat="45.7933750044424" lon="9.920127158146459"><ele>922.0</ele><time>2026-04-26T12:29:25Z</time></trkpt><trkpt lat="45.79325264625755" lon="9.920167353343304"><ele>928.0</ele><time>2026-04-26T12:29:26Z</time></trkpt><trkpt lat="45.79318796669793" lon="9.920282364716149"><ele>927.9999999999999</ele><time>2026-04-26T12:29:27Z</time></trkpt><trkpt lat="45.7931101818936" lon="9.920366506051808"><ele>928.0</ele><time>2026-04-26T12:29:27.999Z</time></trkpt><trkpt lat="45.79303945158245" lon="9.9204330946305"><ele>928.0</ele><time>2026-04-26T12:29:28.999Z</time></trkpt><trkpt lat="45.793106609773005" lon="9.920367895166684"><ele>928.0</ele><time>2026-04-26T12:29:33.999Z</time></trkpt><trkpt lat="45.79307171851336" lon="9.920473667991356"><ele>927.9999999999999</ele><time>2026-04-26T12:29:36.999Z</time></trkpt><trkpt lat="45.79298949757082" lon="9.920492146776422"><ele>928.0</ele><time>2026-04-26T12:29:37.999Z</time></trkpt><trkpt lat="45.7929077676851" lon="9.920540046974697"><ele>928.0</ele><time>2026-04-26T12:29:38.999Z</time></trkpt><trkpt lat="45.792838039452" lon="9.920625128475228"><ele>928.0</ele><time>2026-04-26T12:29:39.999Z</time></trkpt><trkpt lat="45.792765559609855" lon="9.92070452135317"><ele>928.0</ele><time>2026-04-26T12:29:40.999Z</time></trkpt><trkpt lat="45.79267879425349" lon="9.920780250974685"><ele>928.0</ele><time>2026-04-26T12:29:41.999Z</time></trkpt><trkpt lat="45.7926061974002" lon="9.920863200969835"><ele>928.0</ele><time>2026-04-26T12:29:42.999Z</time></trkpt><trkpt lat="45.79250437233202" lon="9.920904750332845"><ele>933.75</ele><time>2026-04-26T12:29:43.999Z</time></trkpt><trkpt lat="45.792413178375114" lon="9.92099177294025"><ele>939.5</ele><time>2026-04-26T12:29:44.999Z</time></trkpt><trkpt lat="45.79231111479427" lon="9.921069363625273"><ele>945.25</ele><time>2026-04-26T12:29:45.999Z</time></trkpt><trkpt lat="45.79223236594589" lon="9.92119992535522"><ele>951.0</ele><time>2026-04-26T12:29:46.999Z</time></trkpt><trkpt lat="45.79214078876469" lon="9.921338902414213"><ele>951.0</ele><time>2026-04-26T12:29:47.999Z</time></trkpt><trkpt lat="45.79202752837149" lon="9.921426135130226"><ele>951.0</ele><time>2026-04-26T12:29:48.999Z</time></trkpt><trkpt lat="45.79192401334707" lon="9.921526891322058"><ele>951.0</ele><time>2026-04-26T12:29:49.999Z</time></trkpt><trkpt lat="45.79182070333714" lon="9.921640845071831"><ele>951.0</ele><time>2026-04-26T12:29:50.999Z</time></trkpt><trkpt lat="45.79171222159736" lon="9.921744988048486"><ele>955.75</ele><time>2026-04-26T12:29:51.999Z</time></trkpt><trkpt lat="45.79159855271838" lon="9.921840252372524"><ele>960.5</ele><time>2026-04-26T12:29:52.999Z</time></trkpt><trkpt lat="45.79148551672393" lon="9.921920038486086"><ele>965.25</ele><time>2026-04-26T12:29:53.999Z</time></trkpt><trkpt lat="45.79139227724864" lon="9.921980116414307"><ele>970.0</ele><time>2026-04-26T12:29:54.999Z</time></trkpt><trkpt lat="45.79129821246834" lon="9.922025139692147"><ele>970.0</ele><time>2026-04-26T12:29:55.999Z</time></trkpt><trkpt lat="45.79119829768668" lon="9.922082258593562"><ele>970.0</ele><time>2026-04-26T12:29:56.999Z</time></trkpt><trkpt lat="45.79110274067563" lon="9.922145087969456"><ele>970.0</ele><time>2026-04-26T12:29:57.999Z</time></trkpt><trkpt lat="45.791003280394214" lon="9.922220904351624"><ele>970.0</ele><time>2026-04-26T12:29:58.999Z</time></trkpt><trkpt lat="45.79090038320847" lon="9.922312555231047"><ele>970.0</ele><time>2026-04-26T12:29:59.999Z</time></trkpt><trkpt lat="45.79079155040092" lon="9.922394356464697"><ele>970.2</ele><time>2026-04-26T12:30:00.999Z</time></trkpt><trkpt lat="45.79068455356356" lon="9.92245851869108"><ele>970.4</ele><time>2026-04-26T12:30:01.999Z</time></trkpt><trkpt lat="45.79059284319897" lon="9.922492463664698"><ele>970.5999999999999</ele><time>2026-04-26T12:30:02.999Z</time></trkpt><trkpt lat="45.79051552796085" lon="9.922561901024242"><ele>970.8</ele><time>2026-04-26T12:30:03.999Z</time></trkpt><trkpt lat="45.7904646915733" lon="9.92265656246958"><ele>971.0</ele><time>2026-04-26T12:30:04.999Z</time></trkpt><trkpt lat="45.790421358151455" lon="9.922770826307843"><ele>971.0</ele><time>2026-04-26T12:30:05.999Z</time></trkpt><trkpt lat="45.79041496020029" lon="9.922925700146434"><ele>970.9999999999999</ele><time>2026-04-26T12:30:06.999Z</time></trkpt><trkpt lat="45.7903653104387" lon="9.923062351551774"><ele>970.9999999999999</ele><time>2026-04-26T12:30:07.999Z</time></trkpt><trkpt lat="45.7903119085776" lon="9.923200220715616"><ele>971.0</ele><time>2026-04-26T12:30:08.999Z</time></trkpt><trkpt lat="45.79025611068895" lon="9.92332710946063"><ele>971.0</ele><time>2026-04-26T12:30:09.999Z</time></trkpt><trkpt lat="45.79020727653994" lon="9.923466664524003"><ele>969.3333333333334</ele><time>2026-04-26T12:30:10.999Z</time></trkpt><trkpt lat="45.790137183120656" lon="9.923581541648959"><ele>967.6666666666667</ele><time>2026-04-26T12:30:11.999Z</time></trkpt><trkpt lat="45.79007482052254" lon="9.923666027108302"><ele>966.0</ele><time>2026-04-26T12:30:12.999Z</time></trkpt><trkpt lat="45.79002124128717" lon="9.923743444809473"><ele>964.3333333333333</ele><time>2026-04-26T12:30:13.999Z</time></trkpt><trkpt lat="45.789948113091384" lon="9.923845305828166"><ele>962.6666666666666</ele><time>2026-04-26T12:30:15.999Z</time></trkpt><trkpt lat="45.789912577901354" lon="9.923934580767973"><ele>961.0</ele><time>2026-04-26T12:30:16.999Z</time></trkpt><trkpt lat="45.7899148579286" lon="9.924061028839462"><ele>961.0</ele><time>2026-04-26T12:30:17.999Z</time></trkpt><trkpt lat="45.789986374500366" lon="9.9241941361182"><ele>960.9999999999999</ele><time>2026-04-26T12:30:18.999Z</time></trkpt><trkpt lat="45.790058498703274" lon="9.924288180439431"><ele>960.9999999999999</ele><time>2026-04-26T12:30:19.999Z</time></trkpt><trkpt lat="45.79012919186189" lon="9.924376052496246"><ele>961.0</ele><time>2026-04-26T12:30:20.999Z</time></trkpt><trkpt lat="45.790203740270826" lon="9.924492127598713"><ele>961.0</ele><time>2026-04-26T12:30:21.999Z</time></trkpt><trkpt lat="45.79028518749787" lon="9.924602705779456"><ele>958.75</ele><time>2026-04-26T12:30:22.999Z</time></trkpt><trkpt lat="45.79037446703729" lon="9.924718214216398"><ele>956.5</ele><time>2026-04-26T12:30:23.999Z</time></trkpt><trkpt lat="45.79046415126646" lon="9.924824984049879"><ele>954.25</ele><time>2026-04-26T12:30:24.999Z</time></trkpt><trkpt lat="45.7905701723883" lon="9.92492479343651"><ele>952.0</ele><time>2026-04-26T12:30:25.999Z</time></trkpt><trkpt lat="45.79067888674" lon="9.92502344950085"><ele>951.75</ele><time>2026-04-26T12:30:26.999Z</time></trkpt><trkpt lat="45.79077183384935" lon="9.92515265350771"><ele>951.5</ele><time>2026-04-26T12:30:27.999Z</time></trkpt><trkpt lat="45.79086969347368" lon="9.925268874169197"><ele>951.25</ele><time>2026-04-26T12:30:28.999Z</time></trkpt><trkpt lat="45.79096631378095" lon="9.925393165986113"><ele>951.0</ele><time>2026-04-26T12:30:29.999Z</time></trkpt><trkpt lat="45.79105854175081" lon="9.925517687202635"><ele>951.0</ele><time>2026-04-26T12:30:30.999Z</time></trkpt><trkpt lat="45.7911547850043" lon="9.925650699216748"><ele>951.0</ele><time>2026-04-26T12:30:31.999Z</time></trkpt><trkpt lat="45.79125312676046" lon="9.925789100817584"><ele>951.0</ele><time>2026-04-26T12:30:32.999Z</time></trkpt><trkpt lat="45.79135337096718" lon="9.925933657068745"><ele>951.0</ele><time>2026-04-26T12:30:33.999Z</time></trkpt><trkpt lat="45.791461724117525" lon="9.926071584788387"><ele>941.25</ele><time>2026-04-26T12:30:34.999Z</time></trkpt><trkpt lat="45.791555818580385" lon="9.926231101786916"><ele>931.5</ele><time>2026-04-26T12:30:35.999Z</time></trkpt><trkpt lat="45.791648741837214" lon="9.926393133417779"><ele>921.75</ele><time>2026-04-26T12:30:36.999Z</time></trkpt><trkpt lat="45.79173456027448" lon="9.92654399314302"><ele>912.0</ele><time>2026-04-26T12:30:37.999Z</time></trkpt><trkpt lat="45.791803698962426" lon="9.926687070386635"><ele>911.0</ele><time>2026-04-26T12:30:38.999Z</time></trkpt><trkpt lat="45.791871021181514" lon="9.926829066381195"><ele>910.0</ele><time>2026-04-26T12:30:39.999Z</time></trkpt><trkpt lat="45.79193303619683" lon="9.926945673709541"><ele>909.0</ele><time>2026-04-26T12:30:41Z</time></trkpt><trkpt lat="45.791999562555596" lon="9.92705545249048"><ele>908.0</ele><time>2026-04-26T12:30:42Z</time></trkpt><trkpt lat="45.79209094609974" lon="9.927165871230006"><ele>907.0</ele><time>2026-04-26T12:30:43Z</time></trkpt><trkpt lat="45.79217745516933" lon="9.927262043803026"><ele>907.0</ele><time>2026-04-26T12:30:44Z</time></trkpt><trkpt lat="45.79227666337688" lon="9.927378690804108"><ele>907.0</ele><time>2026-04-26T12:30:45Z</time></trkpt><trkpt lat="45.79235273560153" lon="9.927504084311161"><ele>907.0</ele><time>2026-04-26T12:30:46Z</time></trkpt><trkpt lat="45.792458926882574" lon="9.927589809558775"><ele>907.0</ele><time>2026-04-26T12:30:47Z</time></trkpt><trkpt lat="45.79257540648152" lon="9.927686775984661"><ele>905.25</ele><time>2026-04-26T12:30:48Z</time></trkpt><trkpt lat="45.79270410301247" lon="9.927795582608216"><ele>903.5</ele><time>2026-04-26T12:30:49Z</time></trkpt><trkpt lat="45.79283591138576" lon="9.927857755452028"><ele>901.75</ele><time>2026-04-26T12:30:50Z</time></trkpt><trkpt lat="45.79296262257524" lon="9.927939929676855"><ele>900.0</ele><time>2026-04-26T12:30:51Z</time></trkpt><trkpt lat="45.79308230093512" lon="9.92805094738558"><ele>900.0</ele><time>2026-04-26T12:30:52Z</time></trkpt><trkpt lat="45.793197043588435" lon="9.928171376988113"><ele>900.0</ele><time>2026-04-26T12:30:53Z</time></trkpt><trkpt lat="45.79332049778917" lon="9.9282844811264"><ele>900.0</ele><time>2026-04-26T12:30:54Z</time></trkpt><trkpt lat="45.79342395717318" lon="9.92842363256991"><ele>900.0</ele><time>2026-04-26T12:30:55Z</time></trkpt><trkpt lat="45.793537538771766" lon="9.928551942682581"><ele>898.25</ele><time>2026-04-26T12:30:56Z</time></trkpt><trkpt lat="45.793639176646664" lon="9.928689415860093"><ele>896.5</ele><time>2026-04-26T12:30:57Z</time></trkpt><trkpt lat="45.793736409859676" lon="9.928827556763803"><ele>894.75</ele><time>2026-04-26T12:30:58Z</time></trkpt><trkpt lat="45.79383803816841" lon="9.92896287631624"><ele>893.0</ele><time>2026-04-26T12:30:59Z</time></trkpt><trkpt lat="45.79393950257893" lon="9.929107506749943"><ele>881.6666666666667</ele><time>2026-04-26T12:31:00Z</time></trkpt><trkpt lat="45.79403639251531" lon="9.929264479160967"><ele>870.3333333333333</ele><time>2026-04-26T12:31:01Z</time></trkpt><trkpt lat="45.79413850338282" lon="9.929421573872743"><ele>859.0</ele><time>2026-04-26T12:31:02Z</time></trkpt><trkpt lat="45.79425428068146" lon="9.929608813044341"><ele>864.3333333333333</ele><time>2026-04-26T12:31:03Z</time></trkpt><trkpt lat="45.79435901753596" lon="9.929786521363859"><ele>869.6666666666667</ele><time>2026-04-26T12:31:04Z</time></trkpt><trkpt lat="45.79446530523326" lon="9.929963554807937"><ele>875.0</ele><time>2026-04-26T12:31:05Z</time></trkpt><trkpt lat="45.79455196811772" lon="9.930151088314304"><ele>875.0</ele><time>2026-04-26T12:31:06Z</time></trkpt><trkpt lat="45.794653404753646" lon="9.93032991891769"><ele>875.0</ele><time>2026-04-26T12:31:07Z</time></trkpt><trkpt lat="45.794744144238685" lon="9.930517936958553"><ele>875.0</ele><time>2026-04-26T12:31:08Z</time></trkpt><trkpt lat="45.79482437491903" lon="9.930707295045309"><ele>869.5</ele><time>2026-04-26T12:31:09Z</time></trkpt><trkpt lat="45.794904977897694" lon="9.930895790073292"><ele>864.0</ele><time>2026-04-26T12:31:10Z</time></trkpt><trkpt lat="45.79498751041916" lon="9.93107110311901"><ele>858.5</ele><time>2026-04-26T12:31:11Z</time></trkpt><trkpt lat="45.795059573398326" lon="9.931225157766843"><ele>853.0</ele><time>2026-04-26T12:31:12Z</time></trkpt><trkpt lat="45.79511712592947" lon="9.931372956941546"><ele>853.0</ele><time>2026-04-26T12:31:13Z</time></trkpt><trkpt lat="45.79514202754605" lon="9.931529134077955"><ele>853.0</ele><time>2026-04-26T12:31:14Z</time></trkpt><trkpt lat="45.79516674966121" lon="9.9317143665025"><ele>853.0</ele><time>2026-04-26T12:31:15Z</time></trkpt><trkpt lat="45.79520104972549" lon="9.93189229798549"><ele>853.0</ele><time>2026-04-26T12:31:16Z</time></trkpt><trkpt lat="45.795237947524626" lon="9.932065729540739"><ele>854.2</ele><time>2026-04-26T12:31:17Z</time></trkpt><trkpt lat="45.79528119835081" lon="9.93220672518068"><ele>855.4</ele><time>2026-04-26T12:31:18Z</time></trkpt><trkpt lat="45.79529588987494" lon="9.932361777677318"><ele>856.6000000000001</ele><time>2026-04-26T12:31:19Z</time></trkpt><trkpt lat="45.79529432207513" lon="9.932501163806656"><ele>857.8000000000001</ele><time>2026-04-26T12:31:20Z</time></trkpt><trkpt lat="45.79528903643728" lon="9.932616857790913"><ele>859.0</ele><time>2026-04-26T12:31:21Z</time></trkpt><trkpt lat="45.79529544716698" lon="9.932722096729023"><ele>859.0</ele><time>2026-04-26T12:31:22Z</time></trkpt><trkpt lat="45.79534412838732" lon="9.932842422358801"><ele>859.0</ele><time>2026-04-26T12:31:23Z</time></trkpt><trkpt lat="45.795419987508836" lon="9.932975871647717"><ele>859.0</ele><time>2026-04-26T12:31:24Z</time></trkpt><trkpt lat="45.79547966873197" lon="9.93312109875728"><ele>859.0</ele><time>2026-04-26T12:31:25Z</time></trkpt><trkpt lat="45.7954904104396" lon="9.933288929853981"><ele>852.5</ele><time>2026-04-26T12:31:26Z</time></trkpt><trkpt lat="45.79551951935294" lon="9.933443704744166"><ele>846.0</ele><time>2026-04-26T12:31:27Z</time></trkpt><trkpt lat="45.79560549389656" lon="9.933582419482622"><ele>839.5</ele><time>2026-04-26T12:31:28Z</time></trkpt><trkpt lat="45.795693850214136" lon="9.933714122205792"><ele>833.0</ele><time>2026-04-26T12:31:29Z</time></trkpt><trkpt lat="45.7957582883957" lon="9.933851870157888"><ele>833.0</ele><time>2026-04-26T12:31:30Z</time></trkpt><trkpt lat="45.79579683620146" lon="9.933988192669927"><ele>833.0</ele><time>2026-04-26T12:31:31Z</time></trkpt><trkpt lat="45.795812176194495" lon="9.93412073956447"><ele>833.0</ele><time>2026-04-26T12:31:32Z</time></trkpt><trkpt lat="45.79579834597158" lon="9.934237394496952"><ele>833.0</ele><time>2026-04-26T12:31:33Z</time></trkpt><trkpt lat="45.79575268843469" lon="9.934347740783744"><ele>833.0</ele><time>2026-04-26T12:31:34Z</time></trkpt><trkpt lat="45.79571152799807" lon="9.9344756409887"><ele>835.4</ele><time>2026-04-26T12:31:35Z</time></trkpt><trkpt lat="45.79572184656427" lon="9.934609157553982"><ele>837.8</ele><time>2026-04-26T12:31:36Z</time></trkpt><trkpt lat="45.79575958152219" lon="9.934711991706187"><ele>840.2</ele><time>2026-04-26T12:31:37Z</time></trkpt><trkpt lat="45.795820352517715" lon="9.934795457407438"><ele>842.6</ele><time>2026-04-26T12:31:37.999Z</time></trkpt><trkpt lat="45.795930240642356" lon="9.9348413520347"><ele>845.0</ele><time>2026-04-26T12:31:38.999Z</time></trkpt><trkpt lat="45.79605143703083" lon="9.934907535378146"><ele>845.0</ele><time>2026-04-26T12:31:39.999Z</time></trkpt><trkpt lat="45.79616338163106" lon="9.935047388283124"><ele>845.0</ele><time>2026-04-26T12:31:40.999Z</time></trkpt><trkpt lat="45.7962810369856" lon="9.93516081237383"><ele>845.0</ele><time>2026-04-26T12:31:41.999Z</time></trkpt><trkpt lat="45.79638263823269" lon="9.935299255071007"><ele>845.0</ele><time>2026-04-26T12:31:42.999Z</time></trkpt><trkpt lat="45.79646784400696" lon="9.935423922727704"><ele>839.8</ele><time>2026-04-26T12:31:43.999Z</time></trkpt><trkpt lat="45.796540702910114" lon="9.935514399489335"><ele>834.6</ele><time>2026-04-26T12:31:44.999Z</time></trkpt><trkpt lat="45.7966220754379" lon="9.935585023821787"><ele>829.4000000000001</ele><time>2026-04-26T12:31:45.999Z</time></trkpt><trkpt lat="45.79670429765869" lon="9.935653715930304"><ele>824.2</ele><time>2026-04-26T12:31:46.999Z</time></trkpt><trkpt lat="45.7967981749557" lon="9.935729288812388"><ele>819.0</ele><time>2026-04-26T12:31:48.999Z</time></trkpt><trkpt lat="45.79679176730785" lon="9.93589392967252"><ele>819.0</ele><time>2026-04-26T12:31:50.999Z</time></trkpt><trkpt lat="45.79667266363953" lon="9.935880137193891"><ele>819.0</ele><time>2026-04-26T12:31:51.999Z</time></trkpt><trkpt lat="45.7965917519904" lon="9.935921313199545"><ele>819.0</ele><time>2026-04-26T12:31:52.999Z</time></trkpt><trkpt lat="45.79651505565214" lon="9.935953520094406"><ele>819.0</ele><time>2026-04-26T12:31:53.999Z</time></trkpt><trkpt lat="45.79648161190107" lon="9.936034908521325"><ele>819.0</ele><time>2026-04-26T12:31:54.999Z</time></trkpt><trkpt lat="45.79642327665788" lon="9.936179486887209"><ele>814.5</ele><time>2026-04-26T12:31:55.999Z</time></trkpt><trkpt lat="45.79640759388486" lon="9.93630943778035"><ele>810.0</ele><time>2026-04-26T12:31:56.999Z</time></trkpt><trkpt lat="45.79642993208091" lon="9.936457370477674"><ele>805.5</ele><time>2026-04-26T12:31:57.999Z</time></trkpt><trkpt lat="45.79648928129195" lon="9.936613193698879"><ele>801.0</ele><time>2026-04-26T12:31:58.999Z</time></trkpt><trkpt lat="45.796501392020396" lon="9.936814313599722"><ele>797.5999999999999</ele><time>2026-04-26T12:31:59.999Z</time></trkpt><trkpt lat="45.796532288894845" lon="9.936988467142061"><ele>794.2</ele><time>2026-04-26T12:32:00.999Z</time></trkpt><trkpt lat="45.79654383103251" lon="9.937140593305532"><ele>790.8</ele><time>2026-04-26T12:32:01.999Z</time></trkpt><trkpt lat="45.796576788031594" lon="9.937265021317778"><ele>787.4000000000001</ele><time>2026-04-26T12:32:02.999Z</time></trkpt><trkpt lat="45.79662451731226" lon="9.937373639491389"><ele>784.0</ele><time>2026-04-26T12:32:03.999Z</time></trkpt><trkpt lat="45.79670898411954" lon="9.937477164271977"><ele>791.0</ele><time>2026-04-26T12:32:04.999Z</time></trkpt><trkpt lat="45.79680749024896" lon="9.937556994052525"><ele>798.0</ele><time>2026-04-26T12:32:05.999Z</time></trkpt><trkpt lat="45.79686392427195" lon="9.937697368495575"><ele>805.0</ele><time>2026-04-26T12:32:06.999Z</time></trkpt><trkpt lat="45.79692072087094" lon="9.9378492055553"><ele>812.0</ele><time>2026-04-26T12:32:07.999Z</time></trkpt><trkpt lat="45.79697150481573" lon="9.938022104545162"><ele>812.0</ele><time>2026-04-26T12:32:08.999Z</time></trkpt><trkpt lat="45.79702015085801" lon="9.938196776400169"><ele>812.0</ele><time>2026-04-26T12:32:09.999Z</time></trkpt><trkpt lat="45.797050457210844" lon="9.938384271130134"><ele>812.0</ele><time>2026-04-26T12:32:10.999Z</time></trkpt><trkpt lat="45.79707826769274" lon="9.938571730187212"><ele>812.0</ele><time>2026-04-26T12:32:11.999Z</time></trkpt><trkpt lat="45.79710951814041" lon="9.938768540429738"><ele>804.6666666666667</ele><time>2026-04-26T12:32:12.999Z</time></trkpt><trkpt lat="45.79712174540128" lon="9.938982036926683"><ele>797.3333333333333</ele><time>2026-04-26T12:32:13.999Z</time></trkpt><trkpt lat="45.79714320056142" lon="9.939207434579096"><ele>790.0</ele><time>2026-04-26T12:32:14.999Z</time></trkpt><trkpt lat="45.797165644516596" lon="9.939415987134396"><ele>786.5</ele><time>2026-04-26T12:32:15.999Z</time></trkpt><trkpt lat="45.79719141350132" lon="9.93962595872616"><ele>783.0</ele><time>2026-04-26T12:32:16.999Z</time></trkpt><trkpt lat="45.79721571549647" lon="9.939835617352957"><ele>779.5</ele><time>2026-04-26T12:32:17.999Z</time></trkpt><trkpt lat="45.79723152170387" lon="9.940028110407697"><ele>776.0</ele><time>2026-04-26T12:32:18.999Z</time></trkpt><trkpt lat="45.79723299013158" lon="9.940199438232012"><ele>774.25</ele><time>2026-04-26T12:32:19.999Z</time></trkpt><trkpt lat="45.7972035537806" lon="9.940360398169947"><ele>772.5</ele><time>2026-04-26T12:32:20.999Z</time></trkpt><trkpt lat="45.79719834563016" lon="9.940532717376806"><ele>770.75</ele><time>2026-04-26T12:32:21.999Z</time></trkpt><trkpt lat="45.797172233462916" lon="9.940715032064528"><ele>769.0</ele><time>2026-04-26T12:32:22.999Z</time></trkpt><trkpt lat="45.797172286112094" lon="9.940901190439396"><ele>764.5</ele><time>2026-04-26T12:32:23.999Z</time></trkpt><trkpt lat="45.79719475904819" lon="9.941091626880683"><ele>760.0</ele><time>2026-04-26T12:32:24.999Z</time></trkpt><trkpt lat="45.79720498687565" lon="9.941267659906112"><ele>755.5</ele><time>2026-04-26T12:32:25.999Z</time></trkpt><trkpt lat="45.79725030206052" lon="9.941420121258677"><ele>751.0</ele><time>2026-04-26T12:32:26.999Z</time></trkpt><trkpt lat="45.79727889254468" lon="9.941550110563265"><ele>751.0</ele><time>2026-04-26T12:32:27.999Z</time></trkpt><trkpt lat="45.79732697143889" lon="9.941633832066602"><ele>751.0</ele><time>2026-04-26T12:32:28.999Z</time></trkpt><trkpt lat="45.79732897746945" lon="9.941774047689698"><ele>751.0</ele><time>2026-04-26T12:32:30.999Z</time></trkpt><trkpt lat="45.79720903288674" lon="9.941703055414772"><ele>751.0</ele><time>2026-04-26T12:32:32.999Z</time></trkpt><trkpt lat="45.797155662931296" lon="9.941579013457803"><ele>751.0</ele><time>2026-04-26T12:32:33.999Z</time></trkpt><trkpt lat="45.797092734413575" lon="9.941411245800182"><ele>751.0</ele><time>2026-04-26T12:32:34.999Z</time></trkpt><trkpt lat="45.797028180580284" lon="9.941246902904043"><ele>751.0</ele><time>2026-04-26T12:32:35.999Z</time></trkpt><trkpt lat="45.79696607444355" lon="9.941095562517232"><ele>751.0</ele><time>2026-04-26T12:32:36.999Z</time></trkpt><trkpt lat="45.79691054050613" lon="9.940932113184552"><ele>751.0</ele><time>2026-04-26T12:32:37.999Z</time></trkpt><trkpt lat="45.79686363407417" lon="9.94076687609517"><ele>737.0</ele><time>2026-04-26T12:32:38.999Z</time></trkpt><trkpt lat="45.79682176954626" lon="9.940579593052426"><ele>723.0</ele><time>2026-04-26T12:32:39.999Z</time></trkpt><trkpt lat="45.79680068691622" lon="9.940357263555498"><ele>709.0</ele><time>2026-04-26T12:32:40.999Z</time></trkpt><trkpt lat="45.79674481782863" lon="9.94013596301057"><ele>712.6666666666667</ele><time>2026-04-26T12:32:41.999Z</time></trkpt><trkpt lat="45.7966648421133" lon="9.939930807759689"><ele>716.3333333333334</ele><time>2026-04-26T12:32:42.999Z</time></trkpt><trkpt lat="45.79657714939696" lon="9.939745580416242"><ele>720.0</ele><time>2026-04-26T12:32:43.999Z</time></trkpt><trkpt lat="45.79648486537312" lon="9.93956492408631"><ele>720.0</ele><time>2026-04-26T12:32:44.999Z</time></trkpt><trkpt lat="45.796393843578805" lon="9.9393924870152"><ele>720.0</ele><time>2026-04-26T12:32:45.999Z</time></trkpt><trkpt lat="45.79630248955098" lon="9.939213056284224"><ele>720.0</ele><time>2026-04-26T12:32:47Z</time></trkpt><trkpt lat="45.79622008639513" lon="9.939038868197894"><ele>723.2</ele><time>2026-04-26T12:32:48Z</time></trkpt><trkpt lat="45.7961453747376" lon="9.938871900775696"><ele>726.4</ele><time>2026-04-26T12:32:49Z</time></trkpt><trkpt lat="45.79608107897307" lon="9.93872491178228"><ele>729.5999999999999</ele><time>2026-04-26T12:32:50Z</time></trkpt><trkpt lat="45.79602817042969" lon="9.938594665843453"><ele>732.8</ele><time>2026-04-26T12:32:51Z</time></trkpt><trkpt lat="45.79599194578391" lon="9.938500508628055"><ele>736.0</ele><time>2026-04-26T12:32:52Z</time></trkpt><trkpt lat="45.79590626595848" lon="9.938432187133076"><ele>736.0</ele><time>2026-04-26T12:32:54Z</time></trkpt><trkpt lat="45.795834104168705" lon="9.938578106525647"><ele>736.0</ele><time>2026-04-26T12:32:56Z</time></trkpt><trkpt lat="45.79590063453925" lon="9.938691741004087"><ele>736.0</ele><time>2026-04-26T12:32:57Z</time></trkpt><trkpt lat="45.795976088605" lon="9.938834930972583"><ele>736.0</ele><time>2026-04-26T12:32:58Z</time></trkpt><trkpt lat="45.79601055508712" lon="9.939046194959985"><ele>730.6666666666667</ele><time>2026-04-26T12:32:59Z</time></trkpt><trkpt lat="45.796041114516456" lon="9.939297751990809"><ele>725.3333333333334</ele><time>2026-04-26T12:33:00Z</time></trkpt><trkpt lat="45.796107723246735" lon="9.939525282092527"><ele>720.0</ele><time>2026-04-26T12:33:01Z</time></trkpt><trkpt lat="45.796160870936156" lon="9.939746564030788"><ele>720.0</ele><time>2026-04-26T12:33:02Z</time></trkpt><trkpt lat="45.79620766811304" lon="9.939960937771893"><ele>720.0</ele><time>2026-04-26T12:33:03Z</time></trkpt><trkpt lat="45.79624032504931" lon="9.94017710801048"><ele>720.0</ele><time>2026-04-26T12:33:04Z</time></trkpt><trkpt lat="45.796264580685396" lon="9.940378044723486"><ele>717.25</ele><time>2026-04-26T12:33:05Z</time></trkpt><trkpt lat="45.796274190211214" lon="9.940560563616684"><ele>714.5</ele><time>2026-04-26T12:33:06Z</time></trkpt><trkpt lat="45.79626476952591" lon="9.940745889362946"><ele>711.75</ele><time>2026-04-26T12:33:07Z</time></trkpt><trkpt lat="45.796230274514066" lon="9.940929040611739"><ele>709.0</ele><time>2026-04-26T12:33:08Z</time></trkpt><trkpt lat="45.79619704461906" lon="9.94110319822618"><ele>706.75</ele><time>2026-04-26T12:33:09Z</time></trkpt><trkpt lat="45.79618418254218" lon="9.941272826310113"><ele>704.5</ele><time>2026-04-26T12:33:10Z</time></trkpt><trkpt lat="45.79619246520433" lon="9.941456755818939"><ele>702.25</ele><time>2026-04-26T12:33:11Z</time></trkpt><trkpt lat="45.7962177758156" lon="9.941663630438406"><ele>700.0</ele><time>2026-04-26T12:33:12Z</time></trkpt><trkpt lat="45.79623341605256" lon="9.941871630996191"><ele>694.75</ele><time>2026-04-26T12:33:13Z</time></trkpt><trkpt lat="45.7962571468751" lon="9.942072733072635"><ele>689.5</ele><time>2026-04-26T12:33:14Z</time></trkpt><trkpt lat="45.79630053796219" lon="9.942266708532332"><ele>684.25</ele><time>2026-04-26T12:33:15Z</time></trkpt><trkpt lat="45.796342947808036" lon="9.942429416347492"><ele>679.0</ele><time>2026-04-26T12:33:16Z</time></trkpt><trkpt lat="45.7964092534725" lon="9.942573813119704"><ele>677.2</ele><time>2026-04-26T12:33:17Z</time></trkpt><trkpt lat="45.796472372085745" lon="9.94269050199437"><ele>675.4000000000001</ele><time>2026-04-26T12:33:18Z</time></trkpt><trkpt lat="45.796502566775445" lon="9.942791820285269"><ele>673.6</ele><time>2026-04-26T12:33:19Z</time></trkpt><trkpt lat="45.79651006579394" lon="9.94293068923491"><ele>671.8</ele><time>2026-04-26T12:33:21Z</time></trkpt><trkpt lat="45.796382841370594" lon="9.942917580133875"><ele>670.0</ele><time>2026-04-26T12:33:23Z</time></trkpt><trkpt lat="45.79634740256807" lon="9.94272978445843"><ele>670.0</ele><time>2026-04-26T12:33:24Z</time></trkpt><trkpt lat="45.796279395774626" lon="9.94258068223793"><ele>670.0</ele><time>2026-04-26T12:33:25Z</time></trkpt><trkpt lat="45.796197388847055" lon="9.942441670352135"><ele>670.0</ele><time>2026-04-26T12:33:26Z</time></trkpt><trkpt lat="45.79613475771203" lon="9.942293565523647"><ele>670.0</ele><time>2026-04-26T12:33:27Z</time></trkpt><trkpt lat="45.79606910893761" lon="9.942153952337573"><ele>664.0</ele><time>2026-04-26T12:33:28Z</time></trkpt><trkpt lat="45.79599958209776" lon="9.942013968167487"><ele>658.0</ele><time>2026-04-26T12:33:29Z</time></trkpt><trkpt lat="45.795945120355" lon="9.941857029381346"><ele>652.0</ele><time>2026-04-26T12:33:30Z</time></trkpt><trkpt lat="45.79585898759791" lon="9.941727262815974"><ele>646.0</ele><time>2026-04-26T12:33:31Z</time></trkpt><trkpt lat="45.79579371680836" lon="9.941580395588167"><ele>646.0</ele><time>2026-04-26T12:33:32Z</time></trkpt><trkpt lat="45.79573167540479" lon="9.941463733301502"><ele>646.0</ele><time>2026-04-26T12:33:33Z</time></trkpt><trkpt lat="45.795692737308" lon="9.941364197307736"><ele>646.0</ele><time>2026-04-26T12:33:34Z</time></trkpt><trkpt lat="45.79569479106198" lon="9.941248700229647"><ele>646.0</ele><time>2026-04-26T12:33:35Z</time></trkpt><trkpt lat="45.795705430270594" lon="9.941045540047062"><ele>646.0</ele><time>2026-04-26T12:33:37Z</time></trkpt><trkpt lat="45.79569795938616" lon="9.940945213766783"><ele>647.0</ele><time>2026-04-26T12:33:37.999Z</time></trkpt><trkpt lat="45.79566961501545" lon="9.94083544239019"><ele>648.0</ele><time>2026-04-26T12:33:38.999Z</time></trkpt><trkpt lat="45.7956326142012" lon="9.94069029538348"><ele>649.0</ele><time>2026-04-26T12:33:40.999Z</time></trkpt><trkpt lat="45.795572040740666" lon="9.940541568533783"><ele>650.0</ele><time>2026-04-26T12:33:42.999Z</time></trkpt><trkpt lat="45.79547938540711" lon="9.940402321915325"><ele>651.0</ele><time>2026-04-26T12:33:44.999Z</time></trkpt><trkpt lat="45.79542786163947" lon="9.940333903712348"><ele>651.0</ele><time>2026-04-26T12:33:45.999Z</time></trkpt><trkpt lat="45.79537326149701" lon="9.940268143661784"><ele>651.0</ele><time>2026-04-26T12:33:46.999Z</time></trkpt><trkpt lat="45.79531393843794" lon="9.940206212240339"><ele>651.0</ele><time>2026-04-26T12:33:47.999Z</time></trkpt><trkpt lat="45.79524145579373" lon="9.940166295885716"><ele>651.0</ele><time>2026-04-26T12:33:48.999Z</time></trkpt><trkpt lat="45.795178740506245" lon="9.94010548506062"><ele>651.0</ele><time>2026-04-26T12:33:49.999Z</time></trkpt><trkpt lat="45.7951118705116" lon="9.940044175999912"><ele>651.0</ele><time>2026-04-26T12:33:50.999Z</time></trkpt><trkpt lat="45.79504246011815" lon="9.939981088646169"><ele>646.0</ele><time>2026-04-26T12:33:51.999Z</time></trkpt><trkpt lat="45.794984970009956" lon="9.939923013750194"><ele>641.0</ele><time>2026-04-26T12:33:52.999Z</time></trkpt><trkpt lat="45.79489488367329" lon="9.939820928211804"><ele>636.0</ele><time>2026-04-26T12:33:54.999Z</time></trkpt><trkpt lat="45.79482136238929" lon="9.939741875482612"><ele>631.0</ele><time>2026-04-26T12:33:56.999Z</time></trkpt><trkpt lat="45.79472811639291" lon="9.939675708015715"><ele>626.0</ele><time>2026-04-26T12:33:58.999Z</time></trkpt><trkpt lat="45.79461858660555" lon="9.939670950496751"><ele>626.0</ele><time>2026-04-26T12:34:00.999Z</time></trkpt><trkpt lat="45.794520103023366" lon="9.939708875531704"><ele>626.0</ele><time>2026-04-26T12:34:02.999Z</time></trkpt><trkpt lat="45.79444574109656" lon="9.939639259265823"><ele>626.0</ele><time>2026-04-26T12:34:04.999Z</time></trkpt><trkpt lat="45.79443864694152" lon="9.9394838072081"><ele>626.0</ele><time>2026-04-26T12:34:06.999Z</time></trkpt><trkpt lat="45.7944446920239" lon="9.939331490015704"><ele>626.0</ele><time>2026-04-26T12:34:08.999Z</time></trkpt><trkpt lat="45.7944493358737" lon="9.939178356472933"><ele>628.0</ele><time>2026-04-26T12:34:10.999Z</time></trkpt><trkpt lat="45.79445558502555" lon="9.939053905059291"><ele>630.0</ele><time>2026-04-26T12:34:12.999Z</time></trkpt><trkpt lat="45.7944697197722" lon="9.938935049772306"><ele>632.0</ele><time>2026-04-26T12:34:14.999Z</time></trkpt><trkpt lat="45.79449531322011" lon="9.938825722941065"><ele>634.0</ele><time>2026-04-26T12:34:16.999Z</time></trkpt><trkpt lat="45.7945272370158" lon="9.938729327222001"><ele>636.0</ele><time>2026-04-26T12:34:18.999Z</time></trkpt><trkpt lat="45.79454631723341" lon="9.938639817313787"><ele>638.0</ele><time>2026-04-26T12:34:20.999Z</time></trkpt><trkpt lat="45.79445902298484" lon="9.938520153000237"><ele>638.0</ele><time>2026-04-26T12:34:22.999Z</time></trkpt><trkpt lat="45.79438836749168" lon="9.938583448300289"><ele>638.0</ele><time>2026-04-26T12:34:23.999Z</time></trkpt><trkpt lat="45.79435677053734" lon="9.938761795426835"><ele>638.0</ele><time>2026-04-26T12:34:24.999Z</time></trkpt><trkpt lat="45.79431418773678" lon="9.938888690479617"><ele>638.0</ele><time>2026-04-26T12:34:25.999Z</time></trkpt><trkpt lat="45.79426391190102" lon="9.939040305361278"><ele>638.0</ele><time>2026-04-26T12:34:26.999Z</time></trkpt><trkpt lat="45.79422558859363" lon="9.939204401146483"><ele>625.75</ele><time>2026-04-26T12:34:27.999Z</time></trkpt><trkpt lat="45.7941680023249" lon="9.939359173385693"><ele>613.5</ele><time>2026-04-26T12:34:28.999Z</time></trkpt><trkpt lat="45.79411270065162" lon="9.939515330006893"><ele>601.25</ele><time>2026-04-26T12:34:29.999Z</time></trkpt><trkpt lat="45.79406859935594" lon="9.939674892547195"><ele>589.0</ele><time>2026-04-26T12:34:30.999Z</time></trkpt><trkpt lat="45.79403585934023" lon="9.939842674581023"><ele>589.0</ele><time>2026-04-26T12:34:31.999Z</time></trkpt><trkpt lat="45.7940231601758" lon="9.940010299894764"><ele>589.0</ele><time>2026-04-26T12:34:32.999Z</time></trkpt><trkpt lat="45.79403258512491" lon="9.940172980765528"><ele>589.0</ele><time>2026-04-26T12:34:33.999Z</time></trkpt><trkpt lat="45.79405550150198" lon="9.94031440526347"><ele>589.0</ele><time>2026-04-26T12:34:34.999Z</time></trkpt><trkpt lat="45.79407318371722" lon="9.940424827318301"><ele>589.0</ele><time>2026-04-26T12:34:35.999Z</time></trkpt><trkpt lat="45.7940764977714" lon="9.940520652747027"><ele>587.2</ele><time>2026-04-26T12:34:36.999Z</time></trkpt><trkpt lat="45.79403016033261" lon="9.940644416244416"><ele>585.4</ele><time>2026-04-26T12:34:38.999Z</time></trkpt><trkpt lat="45.793941835972824" lon="9.940535727775895"><ele>583.6</ele><time>2026-04-26T12:34:40.999Z</time></trkpt><trkpt lat="45.79395124511699" lon="9.940400185818891"><ele>581.8</ele><time>2026-04-26T12:34:41.999Z</time></trkpt><trkpt lat="45.79390982024726" lon="9.94026204587286"><ele>580.0</ele><time>2026-04-26T12:34:42.999Z</time></trkpt><trkpt lat="45.79389208648709" lon="9.940129963362908"><ele>581.8</ele><time>2026-04-26T12:34:43.999Z</time></trkpt><trkpt lat="45.793876559141204" lon="9.940001192316647"><ele>583.6</ele><time>2026-04-26T12:34:44.999Z</time></trkpt><trkpt lat="45.793860959300666" lon="9.939903357939793"><ele>585.4</ele><time>2026-04-26T12:34:45.999Z</time></trkpt><trkpt lat="45.79385605903395" lon="9.939750361319042"><ele>587.2</ele><time>2026-04-26T12:34:47.999Z</time></trkpt><trkpt lat="45.7938462807354" lon="9.93960894260282"><ele>589.0</ele><time>2026-04-26T12:34:49.999Z</time></trkpt><trkpt lat="45.79383791016599" lon="9.939440132265517"><ele>589.0</ele><time>2026-04-26T12:34:51.999Z</time></trkpt><trkpt lat="45.793833312402725" lon="9.939309201886886"><ele>589.0</ele><time>2026-04-26T12:34:54Z</time></trkpt><trkpt lat="45.79382070738081" lon="9.93915530889068"><ele>589.0</ele><time>2026-04-26T12:34:56Z</time></trkpt><trkpt lat="45.793788715056216" lon="9.93897865710694"><ele>589.0</ele><time>2026-04-26T12:34:58Z</time></trkpt><trkpt lat="45.79374619249002" lon="9.93887780750445"><ele>589.0</ele><time>2026-04-26T12:34:59Z</time></trkpt><trkpt lat="45.793690150402114" lon="9.938775862453399"><ele>589.0</ele><time>2026-04-26T12:35:00Z</time></trkpt><trkpt lat="45.79361032409462" lon="9.938667822703792"><ele>589.0</ele><time>2026-04-26T12:35:01Z</time></trkpt><trkpt lat="45.79352971206951" lon="9.93857378387619"><ele>589.0</ele><time>2026-04-26T12:35:02Z</time></trkpt><trkpt lat="45.79343711254163" lon="9.938461369253165"><ele>589.0</ele><time>2026-04-26T12:35:03Z</time></trkpt><trkpt lat="45.79337314381936" lon="9.938335317485807"><ele>589.0</ele><time>2026-04-26T12:35:04Z</time></trkpt><trkpt lat="45.793299218213214" lon="9.938216133511544"><ele>580.75</ele><time>2026-04-26T12:35:05Z</time></trkpt><trkpt lat="45.793223655334614" lon="9.938093531363764"><ele>572.5</ele><time>2026-04-26T12:35:06Z</time></trkpt><trkpt lat="45.79313991217396" lon="9.937975551790938"><ele>564.25</ele><time>2026-04-26T12:35:07Z</time></trkpt><trkpt lat="45.79306541627046" lon="9.937844688030246"><ele>556.0</ele><time>2026-04-26T12:35:08Z</time></trkpt><trkpt lat="45.792990012631215" lon="9.93770351268449"><ele>556.0</ele><time>2026-04-26T12:35:09Z</time></trkpt><trkpt lat="45.7928820408869" lon="9.937599548524169"><ele>556.0</ele><time>2026-04-26T12:35:10Z</time></trkpt><trkpt lat="45.79276828198481" lon="9.937516589628611"><ele>556.0</ele><time>2026-04-26T12:35:11Z</time></trkpt><trkpt lat="45.7926658236982" lon="9.937411005980856"><ele>556.0</ele><time>2026-04-26T12:35:12Z</time></trkpt><trkpt lat="45.79257024522672" lon="9.937310497293074"><ele>552.0</ele><time>2026-04-26T12:35:13Z</time></trkpt><trkpt lat="45.79246911249694" lon="9.93719877919192"><ele>548.0</ele><time>2026-04-26T12:35:14Z</time></trkpt><trkpt lat="45.792378716687395" lon="9.937075934546773"><ele>544.0</ele><time>2026-04-26T12:35:15Z</time></trkpt><trkpt lat="45.7922808180945" lon="9.936953923987547"><ele>540.0</ele><time>2026-04-26T12:35:16Z</time></trkpt><trkpt lat="45.79220955894749" lon="9.936833196489113"><ele>540.0</ele><time>2026-04-26T12:35:17Z</time></trkpt><trkpt lat="45.79212440663644" lon="9.936739993585347"><ele>540.0</ele><time>2026-04-26T12:35:18Z</time></trkpt><trkpt lat="45.792032523795264" lon="9.936688010203717"><ele>540.0</ele><time>2026-04-26T12:35:19Z</time></trkpt><trkpt lat="45.79193800829487" lon="9.93660572652079"><ele>540.0</ele><time>2026-04-26T12:35:20Z</time></trkpt><trkpt lat="45.79183368533253" lon="9.936598670542816"><ele>540.0</ele><time>2026-04-26T12:35:21Z</time></trkpt><trkpt lat="45.791759972907954" lon="9.936576953459712"><ele>537.8571428571429</ele><time>2026-04-26T12:35:22Z</time></trkpt><trkpt lat="45.791682284301395" lon="9.936555360518668"><ele>535.7142857142857</ele><time>2026-04-26T12:35:23Z</time></trkpt><trkpt lat="45.791618074884234" lon="9.936544056556096"><ele>533.5714285714286</ele><time>2026-04-26T12:35:24Z</time></trkpt><trkpt lat="45.7915355056018" lon="9.936534489909244"><ele>531.4285714285714</ele><time>2026-04-26T12:35:25Z</time></trkpt><trkpt lat="45.79146839893943" lon="9.936544701250066"><ele>529.2857142857142</ele><time>2026-04-26T12:35:26Z</time></trkpt><trkpt lat="45.7913919437506" lon="9.93653932870669"><ele>527.1428571428571</ele><time>2026-04-26T12:35:27Z</time></trkpt><trkpt lat="45.79132315592481" lon="9.936507438551669"><ele>525.0</ele><time>2026-04-26T12:35:28Z</time></trkpt><trkpt lat="45.79125878174316" lon="9.936463273140172"><ele>525.0</ele><time>2026-04-26T12:35:29Z</time></trkpt><trkpt lat="45.79119421991577" lon="9.936414155121819"><ele>525.0</ele><time>2026-04-26T12:35:30Z</time></trkpt><trkpt lat="45.79113031532162" lon="9.936363050642887"><ele>525.0</ele><time>2026-04-26T12:35:31Z</time></trkpt><trkpt lat="45.79105643559451" lon="9.936322690504664"><ele>525.0</ele><time>2026-04-26T12:35:32Z</time></trkpt><trkpt lat="45.790951331198436" lon="9.936312151322266"><ele>525.0</ele><time>2026-04-26T12:35:33Z</time></trkpt><trkpt lat="45.79086524127797" lon="9.93630883591999"><ele>525.0</ele><time>2026-04-26T12:35:34Z</time></trkpt><trkpt lat="45.79078758692266" lon="9.936306295454546"><ele>522.0</ele><time>2026-04-26T12:35:35Z</time></trkpt><trkpt lat="45.79071242729374" lon="9.93630423742113"><ele>519.0</ele><time>2026-04-26T12:35:36Z</time></trkpt><trkpt lat="45.79060215930997" lon="9.936302498370518"><ele>516.0</ele><time>2026-04-26T12:35:38Z</time></trkpt><trkpt lat="45.79046459039893" lon="9.936295527940903"><ele>513.0</ele><time>2026-04-26T12:35:40Z</time></trkpt><trkpt lat="45.79037180094337" lon="9.936237397881175"><ele>510.0</ele><time>2026-04-26T12:35:41Z</time></trkpt><trkpt lat="45.79029052823478" lon="9.936224417153216"><ele>510.0</ele><time>2026-04-26T12:35:42Z</time></trkpt><trkpt lat="45.790199409931255" lon="9.936200497302462"><ele>510.0</ele><time>2026-04-26T12:35:43Z</time></trkpt><trkpt lat="45.79011029677392" lon="9.936172139049342"><ele>510.0</ele><time>2026-04-26T12:35:44Z</time></trkpt><trkpt lat="45.7900272095422" lon="9.936147730321558"><ele>510.0</ele><time>2026-04-26T12:35:45Z</time></trkpt><trkpt lat="45.78995355178756" lon="9.936099566978486"><ele>510.0</ele><time>2026-04-26T12:35:45.999Z</time></trkpt><trkpt lat="45.78986569570648" lon="9.936077049648347"><ele>510.0</ele><time>2026-04-26T12:35:46.999Z</time></trkpt><trkpt lat="45.78978994980648" lon="9.936019689470148"><ele>509.8333333333333</ele><time>2026-04-26T12:35:47.999Z</time></trkpt><trkpt lat="45.789738258199264" lon="9.935924356274002"><ele>509.66666666666663</ele><time>2026-04-26T12:35:48.999Z</time></trkpt><trkpt lat="45.78967459609399" lon="9.935884805268024"><ele>509.5</ele><time>2026-04-26T12:35:49.999Z</time></trkpt><trkpt lat="45.78962288706686" lon="9.935809431785737"><ele>509.3333333333333</ele><time>2026-04-26T12:35:50.999Z</time></trkpt><trkpt lat="45.7895571989698" lon="9.935741899514246"><ele>509.16666666666663</ele><time>2026-04-26T12:35:52.999Z</time></trkpt><trkpt lat="45.789488829740755" lon="9.935646686576423"><ele>509.0</ele><time>2026-04-26T12:35:54.999Z</time></trkpt><trkpt lat="45.78943660601736" lon="9.935561156801386"><ele>509.0</ele><time>2026-04-26T12:35:55.999Z</time></trkpt><trkpt lat="45.78940741482475" lon="9.935464121745586"><ele>509.0</ele><time>2026-04-26T12:35:56.999Z</time></trkpt><trkpt lat="45.78933997455979" lon="9.935419620651746"><ele>509.0</ele><time>2026-04-26T12:35:58.999Z</time></trkpt><trkpt lat="45.789239257583645" lon="9.935516655340882"><ele>509.0</ele><time>2026-04-26T12:35:59.999Z</time></trkpt><trkpt lat="45.78914274813991" lon="9.935574796378226"><ele>509.0</ele><time>2026-04-26T12:36:00.999Z</time></trkpt><trkpt lat="45.78905998799393" lon="9.935605784960563"><ele>507.75</ele><time>2026-04-26T12:36:01.999Z</time></trkpt><trkpt lat="45.78894365890247" lon="9.935572727438606"><ele>506.5</ele><time>2026-04-26T12:36:02.999Z</time></trkpt><trkpt lat="45.78881408152397" lon="9.935599086629066"><ele>505.25</ele><time>2026-04-26T12:36:03.999Z</time></trkpt><trkpt lat="45.78867345839826" lon="9.93557345826125"><ele>504.0</ele><time>2026-04-26T12:36:04.999Z</time></trkpt><trkpt lat="45.78852124035566" lon="9.935607003045936"><ele>502.0</ele><time>2026-04-26T12:36:05.999Z</time></trkpt><trkpt lat="45.788384112181625" lon="9.935628636250097"><ele>500.0</ele><time>2026-04-26T12:36:06.999Z</time></trkpt><trkpt lat="45.78824159926036" lon="9.935636519066241"><ele>498.0</ele><time>2026-04-26T12:36:07.999Z</time></trkpt><trkpt lat="45.78811662337277" lon="9.935680857796475"><ele>496.0</ele><time>2026-04-26T12:36:08.999Z</time></trkpt><trkpt lat="45.787997672085666" lon="9.935671058460432"><ele>496.0</ele><time>2026-04-26T12:36:09.999Z</time></trkpt><trkpt lat="45.78787495454824" lon="9.935639438008295"><ele>496.0</ele><time>2026-04-26T12:36:10.999Z</time></trkpt><trkpt lat="45.787771746906124" lon="9.935579077912077"><ele>496.0</ele><time>2026-04-26T12:36:11.999Z</time></trkpt><trkpt lat="45.78768444618494" lon="9.935483907845862"><ele>496.0</ele><time>2026-04-26T12:36:12.999Z</time></trkpt><trkpt lat="45.78761928698235" lon="9.935350824873534"><ele>492.75</ele><time>2026-04-26T12:36:13.999Z</time></trkpt><trkpt lat="45.787565908279944" lon="9.93521112075662"><ele>489.5</ele><time>2026-04-26T12:36:14.999Z</time></trkpt><trkpt lat="45.7875080402915" lon="9.935081481271926"><ele>486.25</ele><time>2026-04-26T12:36:15.999Z</time></trkpt><trkpt lat="45.7874329137153" lon="9.934973692436591"><ele>483.0</ele><time>2026-04-26T12:36:16.999Z</time></trkpt><trkpt lat="45.78729483312503" lon="9.934963031206326"><ele>483.0</ele><time>2026-04-26T12:36:17.999Z</time></trkpt><trkpt lat="45.78717976460815" lon="9.93488295976357"><ele>483.0</ele><time>2026-04-26T12:36:18.999Z</time></trkpt><trkpt lat="45.78707337480387" lon="9.934819979506312"><ele>483.0</ele><time>2026-04-26T12:36:19.999Z</time></trkpt><trkpt lat="45.786973417754545" lon="9.934752863526226"><ele>483.0</ele><time>2026-04-26T12:36:20.999Z</time></trkpt><trkpt lat="45.78687327439384" lon="9.934711086946118"><ele>480.2</ele><time>2026-04-26T12:36:21.999Z</time></trkpt><trkpt lat="45.78677828698603" lon="9.934662878518811"><ele>477.4</ele><time>2026-04-26T12:36:22.999Z</time></trkpt><trkpt lat="45.786693763658256" lon="9.934606285515265"><ele>474.59999999999997</ele><time>2026-04-26T12:36:23.999Z</time></trkpt><trkpt lat="45.78661421672889" lon="9.934532469570469"><ele>471.79999999999995</ele><time>2026-04-26T12:36:24.999Z</time></trkpt><trkpt lat="45.78653494347481" lon="9.934435320563994"><ele>469.0</ele><time>2026-04-26T12:36:25.999Z</time></trkpt><trkpt lat="45.78645175086951" lon="9.93427797950277"><ele>471.5</ele><time>2026-04-26T12:36:26.999Z</time></trkpt><trkpt lat="45.7863387204753" lon="9.934129690859425"><ele>474.0</ele><time>2026-04-26T12:36:27.999Z</time></trkpt><trkpt lat="45.78625128276586" lon="9.933992785592675"><ele>476.5</ele><time>2026-04-26T12:36:28.999Z</time></trkpt><trkpt lat="45.786168694546205" lon="9.933867281270325"><ele>479.0</ele><time>2026-04-26T12:36:29.999Z</time></trkpt><trkpt lat="45.786094089379965" lon="9.933763574005468"><ele>478.99999999999994</ele><time>2026-04-26T12:36:30.999Z</time></trkpt><trkpt lat="45.786029590887715" lon="9.933672003874614"><ele>479.0</ele><time>2026-04-26T12:36:31.999Z</time></trkpt><trkpt lat="45.78597815247684" lon="9.933566626794557"><ele>479.0</ele><time>2026-04-26T12:36:32.999Z</time></trkpt><trkpt lat="45.78595097341723" lon="9.933443724782098"><ele>479.0</ele><time>2026-04-26T12:36:33.999Z</time></trkpt><trkpt lat="45.785940481669364" lon="9.933316168943506"><ele>478.99999999999994</ele><time>2026-04-26T12:36:34.999Z</time></trkpt><trkpt lat="45.785935108347616" lon="9.933192483625776"><ele>479.0</ele><time>2026-04-26T12:36:35.999Z</time></trkpt><trkpt lat="45.78592534259253" lon="9.933075060669408"><ele>476.4</ele><time>2026-04-26T12:36:36.999Z</time></trkpt><trkpt lat="45.78590780973518" lon="9.932965079612497"><ele>473.79999999999995</ele><time>2026-04-26T12:36:37.999Z</time></trkpt><trkpt lat="45.78587517493484" lon="9.932862930739871"><ele>471.20000000000005</ele><time>2026-04-26T12:36:38.999Z</time></trkpt><trkpt lat="45.78581377689507" lon="9.932769509144542"><ele>468.6</ele><time>2026-04-26T12:36:39.999Z</time></trkpt><trkpt lat="45.785720446753416" lon="9.932708571564184"><ele>466.0</ele><time>2026-04-26T12:36:40.999Z</time></trkpt><trkpt lat="45.78558318670375" lon="9.932668801211964"><ele>466.0</ele><time>2026-04-26T12:36:41.999Z</time></trkpt><trkpt lat="45.785398934568725" lon="9.93262765116756"><ele>466.0</ele><time>2026-04-26T12:36:42.999Z</time></trkpt><trkpt lat="45.785183701157706" lon="9.93259023140814"><ele>466.0</ele><time>2026-04-26T12:36:43.999Z</time></trkpt><trkpt lat="45.784981651685975" lon="9.93252733815122"><ele>465.33333333333337</ele><time>2026-04-26T12:36:44.999Z</time></trkpt><trkpt lat="45.78479656259145" lon="9.932488277071323"><ele>464.66666666666663</ele><time>2026-04-26T12:36:45.999Z</time></trkpt><trkpt lat="45.784622839924786" lon="9.932449349159699"><ele>464.0</ele><time>2026-04-26T12:36:46.999Z</time></trkpt><trkpt lat="45.784450965314115" lon="9.932419263217707"><ele>461.0</ele><time>2026-04-26T12:36:47.999Z</time></trkpt><trkpt lat="45.78428600668662" lon="9.932402494793068"><ele>458.0</ele><time>2026-04-26T12:36:48.999Z</time></trkpt><trkpt lat="45.784126790640784" lon="9.932396729148484"><ele>455.0</ele><time>2026-04-26T12:36:49.999Z</time></trkpt><trkpt lat="45.783971697875344" lon="9.932422631464261"><ele>455.0</ele><time>2026-04-26T12:36:50.999Z</time></trkpt><trkpt lat="45.78380451005867" lon="9.932437114848668"><ele>455.0</ele><time>2026-04-26T12:36:51.999Z</time></trkpt><trkpt lat="45.78364033203757" lon="9.932514641873258"><ele>455.0</ele><time>2026-04-26T12:36:52.999Z</time></trkpt><trkpt lat="45.78348207063704" lon="9.93254765364323"><ele>447.3333333333333</ele><time>2026-04-26T12:36:53.999Z</time></trkpt><trkpt lat="45.78333110142372" lon="9.932559905192637"><ele>439.66666666666663</ele><time>2026-04-26T12:36:54.999Z</time></trkpt><trkpt lat="45.78317601853972" lon="9.932572557999974"><ele>432.0</ele><time>2026-04-26T12:36:55.999Z</time></trkpt><trkpt lat="45.783019036353714" lon="9.932582794623386"><ele>432.0</ele><time>2026-04-26T12:36:56.999Z</time></trkpt><trkpt lat="45.78286238222453" lon="9.932602792579862"><ele>432.0</ele><time>2026-04-26T12:36:57.999Z</time></trkpt><trkpt lat="45.78271939316575" lon="9.932655260752707"><ele>432.0</ele><time>2026-04-26T12:36:59Z</time></trkpt><trkpt lat="45.78259306579159" lon="9.932716792522443"><ele>432.0</ele><time>2026-04-26T12:37:00Z</time></trkpt><trkpt lat="45.7824713294601" lon="9.932739215224444"><ele>432.0</ele><time>2026-04-26T12:37:01Z</time></trkpt><trkpt lat="45.78235061353548" lon="9.932718818881183"><ele>432.0</ele><time>2026-04-26T12:37:02Z</time></trkpt><trkpt lat="45.78223898633945" lon="9.932665183349318"><ele>432.0</ele><time>2026-04-26T12:37:03Z</time></trkpt><trkpt lat="45.78214584686763" lon="9.932545438279961"><ele>432.0</ele><time>2026-04-26T12:37:04Z</time></trkpt><trkpt lat="45.782022141745266" lon="9.932465454025346"><ele>434.66666666666663</ele><time>2026-04-26T12:37:05Z</time></trkpt><trkpt lat="45.78187999879296" lon="9.932392685247674"><ele>437.3333333333333</ele><time>2026-04-26T12:37:06Z</time></trkpt><trkpt lat="45.78171491410365" lon="9.932356273432493"><ele>440.0</ele><time>2026-04-26T12:37:07Z</time></trkpt><trkpt lat="45.781530353923" lon="9.932356039888836"><ele>440.0</ele><time>2026-04-26T12:37:08Z</time></trkpt><trkpt lat="45.781348310567324" lon="9.932366979533473"><ele>440.0</ele><time>2026-04-26T12:37:09Z</time></trkpt><trkpt lat="45.781172520656064" lon="9.932382062824127"><ele>440.0</ele><time>2026-04-26T12:37:10Z</time></trkpt><trkpt lat="45.781010383324265" lon="9.93241172384267"><ele>439.3333333333333</ele><time>2026-04-26T12:37:11Z</time></trkpt><trkpt lat="45.78085490696461" lon="9.932471484655455"><ele>438.66666666666663</ele><time>2026-04-26T12:37:12Z</time></trkpt><trkpt lat="45.78069833149493" lon="9.932464513345069"><ele>438.0</ele><time>2026-04-26T12:37:13Z</time></trkpt><trkpt lat="45.78054620175842" lon="9.932448010486446"><ele>438.0</ele><time>2026-04-26T12:37:14Z</time></trkpt><trkpt lat="45.7803816496443" lon="9.932458956292244"><ele>438.0</ele><time>2026-04-26T12:37:15Z</time></trkpt><trkpt lat="45.780213900757495" lon="9.932470636484629"><ele>438.0</ele><time>2026-04-26T12:37:16Z</time></trkpt><trkpt lat="45.78004527343824" lon="9.932469408644387"><ele>437.66666666666663</ele><time>2026-04-26T12:37:17Z</time></trkpt><trkpt lat="45.77987706713324" lon="9.932524199450855"><ele>437.3333333333333</ele><time>2026-04-26T12:37:18Z</time></trkpt><trkpt lat="45.77971209788234" lon="9.932542328720595"><ele>437.0</ele><time>2026-04-26T12:37:19Z</time></trkpt><trkpt lat="45.7795537033871" lon="9.932579214898036"><ele>430.0</ele><time>2026-04-26T12:37:20Z</time></trkpt><trkpt lat="45.77940050768353" lon="9.93259741557008"><ele>423.0</ele><time>2026-04-26T12:37:21Z</time></trkpt><trkpt lat="45.779256858278664" lon="9.932603873293978"><ele>416.0</ele><time>2026-04-26T12:37:22Z</time></trkpt><trkpt lat="45.77911473830041" lon="9.932605677638284"><ele>409.0</ele><time>2026-04-26T12:37:23Z</time></trkpt><trkpt lat="45.77898006763622" lon="9.932613344344142"><ele>409.0</ele><time>2026-04-26T12:37:24Z</time></trkpt><trkpt lat="45.778848063330756" lon="9.932619187491548"><ele>409.0</ele><time>2026-04-26T12:37:25Z</time></trkpt><trkpt lat="45.77871727533845" lon="9.932588475420474"><ele>409.0</ele><time>2026-04-26T12:37:26Z</time></trkpt><trkpt lat="45.778559082535985" lon="9.932568469220724"><ele>409.0</ele><time>2026-04-26T12:37:27Z</time></trkpt><trkpt lat="45.77838816875162" lon="9.932480556692958"><ele>412.0</ele><time>2026-04-26T12:37:28Z</time></trkpt><trkpt lat="45.7782191101909" lon="9.932420494790335"><ele>415.0</ele><time>2026-04-26T12:37:29Z</time></trkpt><trkpt lat="45.778087389748585" lon="9.932303076791957"><ele>418.0</ele><time>2026-04-26T12:37:30Z</time></trkpt><trkpt lat="45.77796121146211" lon="9.93219277508229"><ele>418.0</ele><time>2026-04-26T12:37:31Z</time></trkpt><trkpt lat="45.77784210746798" lon="9.93209841119585"><ele>418.0</ele><time>2026-04-26T12:37:32Z</time></trkpt><trkpt lat="45.777749273780636" lon="9.931994267398638"><ele>418.0</ele><time>2026-04-26T12:37:33Z</time></trkpt><trkpt lat="45.77767345931507" lon="9.931924521132569"><ele>418.0</ele><time>2026-04-26T12:37:34Z</time></trkpt><trkpt lat="45.777617288257105" lon="9.931882608122299"><ele>418.0</ele><time>2026-04-26T12:37:35Z</time></trkpt><trkpt lat="45.7775043528293" lon="9.931900596543555"><ele>418.0</ele><time>2026-04-26T12:37:37Z</time></trkpt><trkpt lat="45.77747134811141" lon="9.931992153179458"><ele>418.0</ele><time>2026-04-26T12:37:38Z</time></trkpt><trkpt lat="45.77756413350879" lon="9.932156641462559"><ele>418.0</ele><time>2026-04-26T12:37:39Z</time></trkpt><trkpt lat="45.77768012822349" lon="9.932244764739327"><ele>418.0</ele><time>2026-04-26T12:37:40Z</time></trkpt><trkpt lat="45.77780588246" lon="9.932367549063606"><ele>418.0</ele><time>2026-04-26T12:37:41Z</time></trkpt><trkpt lat="45.77791683784733" lon="9.932528240488068"><ele>418.0</ele><time>2026-04-26T12:37:42Z</time></trkpt><trkpt lat="45.77800367455234" lon="9.932684442636889"><ele>418.0</ele><time>2026-04-26T12:37:43Z</time></trkpt><trkpt lat="45.77808016725544" lon="9.932835417057106"><ele>418.0</ele><time>2026-04-26T12:37:44Z</time></trkpt><trkpt lat="45.77815744544026" lon="9.932986341205938"><ele>413.75</ele><time>2026-04-26T12:37:45Z</time></trkpt><trkpt lat="45.77823762982796" lon="9.933142249959092"><ele>409.5</ele><time>2026-04-26T12:37:46Z</time></trkpt><trkpt lat="45.77832217657166" lon="9.933288630754571"><ele>405.25</ele><time>2026-04-26T12:37:47Z</time></trkpt><trkpt lat="45.778411364513325" lon="9.933421454542897"><ele>401.0</ele><time>2026-04-26T12:37:48Z</time></trkpt><trkpt lat="45.778516376617915" lon="9.933515653914784"><ele>398.0</ele><time>2026-04-26T12:37:49Z</time></trkpt><trkpt lat="45.778634055937225" lon="9.933561429764925"><ele>395.0</ele><time>2026-04-26T12:37:50Z</time></trkpt><trkpt lat="45.77874244058927" lon="9.933567316095893"><ele>392.0</ele><time>2026-04-26T12:37:51Z</time></trkpt><trkpt lat="45.778816021602644" lon="9.933584103619486"><ele>389.0</ele><time>2026-04-26T12:37:52Z</time></trkpt><trkpt lat="45.77886808653832" lon="9.933675677991939"><ele>386.0</ele><time>2026-04-26T12:37:53.999Z</time></trkpt><trkpt lat="45.77883086423311" lon="9.933761511090404"><ele>386.0</ele><time>2026-04-26T12:37:54.999Z</time></trkpt><trkpt lat="45.778747064693384" lon="9.933797969993318"><ele>386.0</ele><time>2026-04-26T12:37:55.999Z</time></trkpt><trkpt lat="45.778626196069474" lon="9.933817008137233"><ele>386.0</ele><time>2026-04-26T12:37:56.999Z</time></trkpt><trkpt lat="45.77849129139069" lon="9.933827995934182"><ele>386.0</ele><time>2026-04-26T12:37:57.999Z</time></trkpt><trkpt lat="45.77835579461419" lon="9.9338188943981"><ele>385.5</ele><time>2026-04-26T12:37:58.999Z</time></trkpt><trkpt lat="45.778229030424725" lon="9.933761992329373"><ele>385.0</ele><time>2026-04-26T12:37:59.999Z</time></trkpt><trkpt lat="45.778124988737495" lon="9.933647836064724"><ele>384.5</ele><time>2026-04-26T12:38:00.999Z</time></trkpt><trkpt lat="45.778035403394206" lon="9.93352733265513"><ele>384.0</ele><time>2026-04-26T12:38:01.999Z</time></trkpt><trkpt lat="45.77794713658502" lon="9.933383477226593"><ele>384.66666666666663</ele><time>2026-04-26T12:38:02.999Z</time></trkpt><trkpt lat="45.77783396830309" lon="9.933245525959885"><ele>385.3333333333333</ele><time>2026-04-26T12:38:03.999Z</time></trkpt><trkpt lat="45.77770923022701" lon="9.933111756264932"><ele>386.0</ele><time>2026-04-26T12:38:04.999Z</time></trkpt><trkpt lat="45.777558711925856" lon="9.932997246952848"><ele>386.0</ele><time>2026-04-26T12:38:05.999Z</time></trkpt><trkpt lat="45.77740212579577" lon="9.932913771140948"><ele>386.0</ele><time>2026-04-26T12:38:06.999Z</time></trkpt><trkpt lat="45.777250914239204" lon="9.932859332953186"><ele>386.0</ele><time>2026-04-26T12:38:07.999Z</time></trkpt><trkpt lat="45.77710298320611" lon="9.932822960514095"><ele>386.0</ele><time>2026-04-26T12:38:08.999Z</time></trkpt><trkpt lat="45.77695246330283" lon="9.932785870664866"><ele>386.0</ele><time>2026-04-26T12:38:09.999Z</time></trkpt><trkpt lat="45.77681002831478" lon="9.932745973605206"><ele>386.0</ele><time>2026-04-26T12:38:10.999Z</time></trkpt><trkpt lat="45.77667626022235" lon="9.93271086288959"><ele>386.0</ele><time>2026-04-26T12:38:11.999Z</time></trkpt><trkpt lat="45.77654808697826" lon="9.93266067324018"><ele>386.8</ele><time>2026-04-26T12:38:12.999Z</time></trkpt><trkpt lat="45.77643094271739" lon="9.932592082199193"><ele>387.6</ele><time>2026-04-26T12:38:13.999Z</time></trkpt><trkpt lat="45.7763657342418" lon="9.932467753233984"><ele>388.4</ele><time>2026-04-26T12:38:14.999Z</time></trkpt><trkpt lat="45.77631338094668" lon="9.9323488116625"><ele>389.2</ele><time>2026-04-26T12:38:15.999Z</time></trkpt><trkpt lat="45.77625031527435" lon="9.932260685211217"><ele>390.0</ele><time>2026-04-26T12:38:16.999Z</time></trkpt><trkpt lat="45.77614694279157" lon="9.932156284111034"><ele>390.0</ele><time>2026-04-26T12:38:18.999Z</time></trkpt><trkpt lat="45.77606967278861" lon="9.93220780835464"><ele>390.0</ele><time>2026-04-26T12:38:19.999Z</time></trkpt><trkpt lat="45.776054508502895" lon="9.9323593369875"><ele>390.0</ele><time>2026-04-26T12:38:20.999Z</time></trkpt><trkpt lat="45.776078337170894" lon="9.932505681905614"><ele>390.0</ele><time>2026-04-26T12:38:21.999Z</time></trkpt><trkpt lat="45.776116961879175" lon="9.932657516737759"><ele>390.0</ele><time>2026-04-26T12:38:22.999Z</time></trkpt><trkpt lat="45.77615152367333" lon="9.932812734799889"><ele>387.1666666666667</ele><time>2026-04-26T12:38:23.999Z</time></trkpt><trkpt lat="45.776182349596134" lon="9.93295570951239"><ele>384.3333333333333</ele><time>2026-04-26T12:38:24.999Z</time></trkpt><trkpt lat="45.776219123716245" lon="9.933087527715497"><ele>381.5</ele><time>2026-04-26T12:38:25.999Z</time></trkpt><trkpt lat="45.776245435665516" lon="9.933199700425119"><ele>378.66666666666663</ele><time>2026-04-26T12:38:26.999Z</time></trkpt><trkpt lat="45.776233204116345" lon="9.933299382492097"><ele>375.8333333333333</ele><time>2026-04-26T12:38:27.999Z</time></trkpt><trkpt lat="45.77618487414791" lon="9.933377428991898"><ele>373.0</ele><time>2026-04-26T12:38:28.999Z</time></trkpt><trkpt lat="45.77609646216887" lon="9.933386835973206"><ele>373.0</ele><time>2026-04-26T12:38:29.999Z</time></trkpt><trkpt lat="45.77602077005385" lon="9.933291695719323"><ele>373.0</ele><time>2026-04-26T12:38:30.999Z</time></trkpt><trkpt lat="45.77591402449111" lon="9.933206443115996"><ele>373.0</ele><time>2026-04-26T12:38:31.999Z</time></trkpt><trkpt lat="45.77581974884807" lon="9.933020894854991"><ele>373.0</ele><time>2026-04-26T12:38:32.999Z</time></trkpt><trkpt lat="45.775686960569345" lon="9.932867664916776"><ele>372.0</ele><time>2026-04-26T12:38:33.999Z</time></trkpt><trkpt lat="45.77556628912252" lon="9.932714541537797"><ele>371.0</ele><time>2026-04-26T12:38:34.999Z</time></trkpt><trkpt lat="45.77544520193526" lon="9.932575525059024"><ele>370.0</ele><time>2026-04-26T12:38:35.999Z</time></trkpt><trkpt lat="45.775321049573286" lon="9.932452758766077"><ele>366.66666666666663</ele><time>2026-04-26T12:38:36.999Z</time></trkpt><trkpt lat="45.77518715093679" lon="9.932328882436208"><ele>363.3333333333333</ele><time>2026-04-26T12:38:37.999Z</time></trkpt><trkpt lat="45.77504710263001" lon="9.932204335846654"><ele>360.0</ele><time>2026-04-26T12:38:38.999Z</time></trkpt><trkpt lat="45.774908631396904" lon="9.932083504814846"><ele>360.0</ele><time>2026-04-26T12:38:39.999Z</time></trkpt><trkpt lat="45.77477009482167" lon="9.931976415681747"><ele>360.0</ele><time>2026-04-26T12:38:40.999Z</time></trkpt><trkpt lat="45.77462625885342" lon="9.931893372171112"><ele>360.0</ele><time>2026-04-26T12:38:41.999Z</time></trkpt><trkpt lat="45.77447134082796" lon="9.931852690258372"><ele>357.6666666666667</ele><time>2026-04-26T12:38:42.999Z</time></trkpt><trkpt lat="45.774312744445915" lon="9.9318389256802"><ele>355.33333333333337</ele><time>2026-04-26T12:38:43.999Z</time></trkpt><trkpt lat="45.77415215028877" lon="9.931847248400908"><ele>353.0</ele><time>2026-04-26T12:38:44.999Z</time></trkpt><trkpt lat="45.77398558417159" lon="9.931858071005077"><ele>353.0</ele><time>2026-04-26T12:38:45.999Z</time></trkpt><trkpt lat="45.773822836846456" lon="9.931860805852065"><ele>353.0</ele><time>2026-04-26T12:38:46.999Z</time></trkpt><trkpt lat="45.77366703007786" lon="9.931859467226602"><ele>353.0</ele><time>2026-04-26T12:38:47.999Z</time></trkpt><trkpt lat="45.77351583002274" lon="9.931859513697706"><ele>352.5</ele><time>2026-04-26T12:38:48.999Z</time></trkpt><trkpt lat="45.77336919725841" lon="9.931866455984316"><ele>352.0</ele><time>2026-04-26T12:38:49.999Z</time></trkpt><trkpt lat="45.7732201816045" lon="9.931886459576523"><ele>351.5</ele><time>2026-04-26T12:38:50.999Z</time></trkpt><trkpt lat="45.77306906871279" lon="9.931915924597261"><ele>351.0</ele><time>2026-04-26T12:38:51.999Z</time></trkpt><trkpt lat="45.772914754572525" lon="9.931952589467592"><ele>351.0</ele><time>2026-04-26T12:38:52.999Z</time></trkpt><trkpt lat="45.772760114487475" lon="9.931985913022965"><ele>351.0</ele><time>2026-04-26T12:38:53.999Z</time></trkpt><trkpt lat="45.77260487586611" lon="9.932001408265627"><ele>351.0</ele><time>2026-04-26T12:38:54.999Z</time></trkpt><trkpt lat="45.77246079650234" lon="9.931996280871413"><ele>349.75</ele><time>2026-04-26T12:38:55.999Z</time></trkpt><trkpt lat="45.77232770041099" lon="9.931958010711803"><ele>348.5</ele><time>2026-04-26T12:38:56.999Z</time></trkpt><trkpt lat="45.77220313607128" lon="9.931895741212658"><ele>347.25</ele><time>2026-04-26T12:38:57.999Z</time></trkpt><trkpt lat="45.7720734157474" lon="9.931811356943557"><ele>346.0</ele><time>2026-04-26T12:38:58.999Z</time></trkpt><trkpt lat="45.77193527298886" lon="9.93170350122809"><ele>347.66666666666663</ele><time>2026-04-26T12:38:59.999Z</time></trkpt><trkpt lat="45.77178036938109" lon="9.931568436764298"><ele>349.3333333333333</ele><time>2026-04-26T12:39:00.999Z</time></trkpt><trkpt lat="45.771630648710335" lon="9.931451780882309"><ele>351.0</ele><time>2026-04-26T12:39:01.999Z</time></trkpt><trkpt lat="45.77149052224213" lon="9.931332030399673"><ele>351.0</ele><time>2026-04-26T12:39:02.999Z</time></trkpt><trkpt lat="45.77135322476162" lon="9.931223250349982"><ele>351.0</ele><time>2026-04-26T12:39:03.999Z</time></trkpt><trkpt lat="45.7712103490111" lon="9.931099958925564"><ele>351.0</ele><time>2026-04-26T12:39:05Z</time></trkpt><trkpt lat="45.771065880995216" lon="9.930976245036266"><ele>349.0</ele><time>2026-04-26T12:39:06Z</time></trkpt><trkpt lat="45.770914661428954" lon="9.930849983259034"><ele>347.0</ele><time>2026-04-26T12:39:07Z</time></trkpt><trkpt lat="45.77076137870739" lon="9.930725505844748"><ele>345.0</ele><time>2026-04-26T12:39:08Z</time></trkpt><trkpt lat="45.77061287703128" lon="9.93060530430965"><ele>345.0</ele><time>2026-04-26T12:39:09Z</time></trkpt><trkpt lat="45.770469523297244" lon="9.930493793977444"><ele>345.0</ele><time>2026-04-26T12:39:10Z</time></trkpt><trkpt lat="45.77032325103411" lon="9.93038034777924"><ele>345.0</ele><time>2026-04-26T12:39:11Z</time></trkpt><trkpt lat="45.77018618391397" lon="9.930265126658165"><ele>344.0</ele><time>2026-04-26T12:39:12Z</time></trkpt><trkpt lat="45.77005839866844" lon="9.930144598416652"><ele>343.0</ele><time>2026-04-26T12:39:13Z</time></trkpt><trkpt lat="45.769947925794895" lon="9.930012412494436"><ele>342.0</ele><time>2026-04-26T12:39:14Z</time></trkpt><trkpt lat="45.769853737612024" lon="9.929893447533521"><ele>341.0</ele><time>2026-04-26T12:39:15Z</time></trkpt><trkpt lat="45.76977279103803" lon="9.929795088348916"><ele>341.0</ele><time>2026-04-26T12:39:16Z</time></trkpt><trkpt lat="45.769703564345" lon="9.92972010794891"><ele>341.0</ele><time>2026-04-26T12:39:17Z</time></trkpt><trkpt lat="45.76964710650825" lon="9.929667074903849"><ele>341.0</ele><time>2026-04-26T12:39:18Z</time></trkpt><trkpt lat="45.769579334052295" lon="9.929592151530777"><ele>341.0</ele><time>2026-04-26T12:39:19Z</time></trkpt><trkpt lat="45.76948033909351" lon="9.92943804269312"><ele>341.0</ele><time>2026-04-26T12:39:20Z</time></trkpt><trkpt lat="45.769373508965636" lon="9.92925654766778"><ele>340.0</ele><time>2026-04-26T12:39:21Z</time></trkpt><trkpt lat="45.769251889461884" lon="9.929067856263279"><ele>339.0</ele><time>2026-04-26T12:39:22Z</time></trkpt><trkpt lat="45.76912876960335" lon="9.928881865228798"><ele>338.0</ele><time>2026-04-26T12:39:23Z</time></trkpt><trkpt lat="45.769011843272615" lon="9.928704671919164"><ele>338.0</ele><time>2026-04-26T12:39:24Z</time></trkpt><trkpt lat="45.76889593640929" lon="9.92852579939402"><ele>338.0</ele><time>2026-04-26T12:39:25Z</time></trkpt><trkpt lat="45.7687804287911" lon="9.928345060540986"><ele>338.0</ele><time>2026-04-26T12:39:26Z</time></trkpt><trkpt lat="45.76866491461844" lon="9.928165083540202"><ele>337.0</ele><time>2026-04-26T12:39:27Z</time></trkpt><trkpt lat="45.76855309300776" lon="9.92800129146185"><ele>336.0</ele><time>2026-04-26T12:39:28Z</time></trkpt><trkpt lat="45.768443710687094" lon="9.927846345272242"><ele>335.0</ele><time>2026-04-26T12:39:29Z</time></trkpt><trkpt lat="45.768331742470444" lon="9.927710656676227"><ele>335.0</ele><time>2026-04-26T12:39:30Z</time></trkpt><trkpt lat="45.76821963474489" lon="9.927586836343751"><ele>335.0</ele><time>2026-04-26T12:39:31Z</time></trkpt><trkpt lat="45.76809236548202" lon="9.927475116746677"><ele>335.0</ele><time>2026-04-26T12:39:32Z</time></trkpt><trkpt lat="45.76794888076222" lon="9.927366721352538"><ele>336.0</ele><time>2026-04-26T12:39:33Z</time></trkpt><trkpt lat="45.767801361416296" lon="9.927268961703486"><ele>337.0</ele><time>2026-04-26T12:39:34Z</time></trkpt><trkpt lat="45.76764109467357" lon="9.927180700110268"><ele>338.0</ele><time>2026-04-26T12:39:35Z</time></trkpt><trkpt lat="45.76746801882816" lon="9.927087606604191"><ele>338.0</ele><time>2026-04-26T12:39:36Z</time></trkpt><trkpt lat="45.767303813715195" lon="9.92699806617531"><ele>338.0</ele><time>2026-04-26T12:39:37Z</time></trkpt><trkpt lat="45.76714632046874" lon="9.926904582252089"><ele>338.0</ele><time>2026-04-26T12:39:38Z</time></trkpt><trkpt lat="45.76699454250985" lon="9.926820480812896"><ele>338.6666666666667</ele><time>2026-04-26T12:39:39Z</time></trkpt><trkpt lat="45.76683167958944" lon="9.926732358998272"><ele>339.3333333333333</ele><time>2026-04-26T12:39:40Z</time></trkpt><trkpt lat="45.766676770938254" lon="9.926646246360955"><ele>340.0</ele><time>2026-04-26T12:39:41Z</time></trkpt><trkpt lat="45.7665358094761" lon="9.926570850450476"><ele>340.0</ele><time>2026-04-26T12:39:42Z</time></trkpt><trkpt lat="45.7663927983926" lon="9.926487577013386"><ele>340.0</ele><time>2026-04-26T12:39:43Z</time></trkpt><trkpt lat="45.76624782402877" lon="9.926388670343822"><ele>340.0</ele><time>2026-04-26T12:39:44Z</time></trkpt><trkpt lat="45.7661172540084" lon="9.926274905484785"><ele>339.66666666666663</ele><time>2026-04-26T12:39:45Z</time></trkpt><trkpt lat="45.76599406514855" lon="9.926135714641548"><ele>339.3333333333333</ele><time>2026-04-26T12:39:46Z</time></trkpt><trkpt lat="45.76589686644813" lon="9.925963210682259"><ele>339.0</ele><time>2026-04-26T12:39:47Z</time></trkpt><trkpt lat="45.765810477826435" lon="9.925781077278968"><ele>339.0</ele><time>2026-04-26T12:39:48Z</time></trkpt><trkpt lat="45.76574851151945" lon="9.925580636799936"><ele>339.0</ele><time>2026-04-26T12:39:49Z</time></trkpt><trkpt lat="45.765696847130236" lon="9.925361280650607"><ele>339.0</ele><time>2026-04-26T12:39:50Z</time></trkpt><trkpt lat="45.76564402055266" lon="9.925151563699936"><ele>339.5</ele><time>2026-04-26T12:39:51Z</time></trkpt><trkpt lat="45.76559509147654" lon="9.92496499470035"><ele>340.0</ele><time>2026-04-26T12:39:52Z</time></trkpt><trkpt lat="45.76553354702766" lon="9.92478839721277"><ele>340.5</ele><time>2026-04-26T12:39:53Z</time></trkpt><trkpt lat="45.76546199572207" lon="9.92463764156725"><ele>341.0</ele><time>2026-04-26T12:39:54Z</time></trkpt><trkpt lat="45.765381883219185" lon="9.924505768843144"><ele>341.0</ele><time>2026-04-26T12:39:55Z</time></trkpt><trkpt lat="45.76529954437797" lon="9.924382161450888"><ele>341.0</ele><time>2026-04-26T12:39:56Z</time></trkpt><trkpt lat="45.76522130851953" lon="9.924271361382067"><ele>341.0</ele><time>2026-04-26T12:39:57Z</time></trkpt><trkpt lat="45.76514603708737" lon="9.924168258622522"><ele>341.0</ele><time>2026-04-26T12:39:58Z</time></trkpt><trkpt lat="45.765075234240754" lon="9.924075245013787"><ele>341.0</ele><time>2026-04-26T12:39:58.999Z</time></trkpt><trkpt lat="45.76500671789578" lon="9.923979162169136"><ele>340.0</ele><time>2026-04-26T12:39:59.999Z</time></trkpt><trkpt lat="45.76492460923913" lon="9.923874105175967"><ele>339.0</ele><time>2026-04-26T12:40:00.999Z</time></trkpt><trkpt lat="45.76483240423697" lon="9.923758151575864"><ele>338.0</ele><time>2026-04-26T12:40:01.999Z</time></trkpt><trkpt lat="45.76474842068423" lon="9.923648219682715"><ele>337.0</ele><time>2026-04-26T12:40:02.999Z</time></trkpt><trkpt lat="45.76467298632272" lon="9.923549359202477"><ele>336.0</ele><time>2026-04-26T12:40:03.999Z</time></trkpt><trkpt lat="45.76460246456924" lon="9.923459284957595"><ele>336.6</ele><time>2026-04-26T12:40:04.999Z</time></trkpt><trkpt lat="45.764535612806974" lon="9.923377447484823"><ele>337.20000000000005</ele><time>2026-04-26T12:40:05.999Z</time></trkpt><trkpt lat="45.76447356166859" lon="9.9233020574261"><ele>337.79999999999995</ele><time>2026-04-26T12:40:06.999Z</time></trkpt><trkpt lat="45.7644042169884" lon="9.923217015580516"><ele>338.4</ele><time>2026-04-26T12:40:07.999Z</time></trkpt><trkpt lat="45.76432579090466" lon="9.923117407134452"><ele>339.0</ele><time>2026-04-26T12:40:08.999Z</time></trkpt><trkpt lat="45.76424687136139" lon="9.923013818158498"><ele>339.0</ele><time>2026-04-26T12:40:09.999Z</time></trkpt><trkpt lat="45.764160187024075" lon="9.922901741578219"><ele>339.0</ele><time>2026-04-26T12:40:10.999Z</time></trkpt><trkpt lat="45.76407972390218" lon="9.92279229921574"><ele>339.0</ele><time>2026-04-26T12:40:11.999Z</time></trkpt><trkpt lat="45.76402487695178" lon="9.922705151013025"><ele>339.0</ele><time>2026-04-26T12:40:12.999Z</time></trkpt><trkpt lat="45.76396452195037" lon="9.922628464480931"><ele>339.0</ele><time>2026-04-26T12:40:13.999Z</time></trkpt><trkpt lat="45.763893986244454" lon="9.922543130254335"><ele>339.0</ele><time>2026-04-26T12:40:14.999Z</time></trkpt><trkpt lat="45.763798337622354" lon="9.922428020685683"><ele>339.0</ele><time>2026-04-26T12:40:15.999Z</time></trkpt><trkpt lat="45.76369800393114" lon="9.9222871172929"><ele>339.0</ele><time>2026-04-26T12:40:16.999Z</time></trkpt><trkpt lat="45.7636039793712" lon="9.922156254275482"><ele>339.0</ele><time>2026-04-26T12:40:17.999Z</time></trkpt><trkpt lat="45.76350715660045" lon="9.922017544586499"><ele>339.0</ele><time>2026-04-26T12:40:18.999Z</time></trkpt><trkpt lat="45.76340572641383" lon="9.9218935956266"><ele>339.0</ele><time>2026-04-26T12:40:19.999Z</time></trkpt><trkpt lat="45.76331104536375" lon="9.921781727556422"><ele>339.0</ele><time>2026-04-26T12:40:20.999Z</time></trkpt><trkpt lat="45.763227702783176" lon="9.921669944069931"><ele>339.0</ele><time>2026-04-26T12:40:21.999Z</time></trkpt><trkpt lat="45.76314708065086" lon="9.921558973851743"><ele>339.6</ele><time>2026-04-26T12:40:22.999Z</time></trkpt><trkpt lat="45.76307106520151" lon="9.921448036060486"><ele>340.2</ele><time>2026-04-26T12:40:23.999Z</time></trkpt><trkpt lat="45.7629914786524" lon="9.921342454187627"><ele>340.8</ele><time>2026-04-26T12:40:24.999Z</time></trkpt><trkpt lat="45.76291371326108" lon="9.921240186601135"><ele>341.40000000000003</ele><time>2026-04-26T12:40:25.999Z</time></trkpt><trkpt lat="45.76283652777522" lon="9.921134197670193"><ele>342.0</ele><time>2026-04-26T12:40:26.999Z</time></trkpt><trkpt lat="45.76276103938376" lon="9.921028214539426"><ele>342.25</ele><time>2026-04-26T12:40:27.999Z</time></trkpt><trkpt lat="45.76268244951981" lon="9.92091324214723"><ele>342.5</ele><time>2026-04-26T12:40:28.999Z</time></trkpt><trkpt lat="45.76259775690204" lon="9.92078237242759"><ele>342.75</ele><time>2026-04-26T12:40:29.999Z</time></trkpt><trkpt lat="45.7625273567896" lon="9.920641777716497"><ele>343.0</ele><time>2026-04-26T12:40:30.999Z</time></trkpt><trkpt lat="45.76246185198015" lon="9.920500874371886"><ele>343.0</ele><time>2026-04-26T12:40:31.999Z</time></trkpt><trkpt lat="45.76238873570885" lon="9.920348372886908"><ele>343.0</ele><time>2026-04-26T12:40:32.999Z</time></trkpt><trkpt lat="45.76231897340713" lon="9.920198731343469"><ele>343.0</ele><time>2026-04-26T12:40:33.999Z</time></trkpt><trkpt lat="45.76225277898686" lon="9.920051707020052"><ele>343.0</ele><time>2026-04-26T12:40:34.999Z</time></trkpt><trkpt lat="45.76218277566943" lon="9.919899151046598"><ele>343.66666666666663</ele><time>2026-04-26T12:40:35.999Z</time></trkpt><trkpt lat="45.76210211987838" lon="9.91973715647589"><ele>344.3333333333333</ele><time>2026-04-26T12:40:36.999Z</time></trkpt><trkpt lat="45.762012851319675" lon="9.919558901608363"><ele>345.0</ele><time>2026-04-26T12:40:37.999Z</time></trkpt><trkpt lat="45.76190626929861" lon="9.919346306960147"><ele>344.3333333333333</ele><time>2026-04-26T12:40:38.999Z</time></trkpt><trkpt lat="45.761795681152456" lon="9.919144274443976"><ele>343.66666666666663</ele><time>2026-04-26T12:40:39.999Z</time></trkpt><trkpt lat="45.76169264602383" lon="9.918967441903002"><ele>343.0</ele><time>2026-04-26T12:40:40.999Z</time></trkpt><trkpt lat="45.761577093268635" lon="9.91883184451933"><ele>343.0</ele><time>2026-04-26T12:40:41.999Z</time></trkpt><trkpt lat="45.761462645722965" lon="9.91871883765236"><ele>343.0</ele><time>2026-04-26T12:40:42.999Z</time></trkpt><trkpt lat="45.761363801685505" lon="9.918630903440118"><ele>343.0</ele><time>2026-04-26T12:40:43.999Z</time></trkpt><trkpt lat="45.761283459199475" lon="9.918563044324383"><ele>343.0</ele><time>2026-04-26T12:40:44.999Z</time></trkpt><trkpt lat="45.761209576456665" lon="9.918503442426841"><ele>343.0</ele><time>2026-04-26T12:40:45.999Z</time></trkpt><trkpt lat="45.761139486552636" lon="9.918441488795438"><ele>342.8333333333333</ele><time>2026-04-26T12:40:46.999Z</time></trkpt><trkpt lat="45.76108482356278" lon="9.91836207916777"><ele>342.66666666666663</ele><time>2026-04-26T12:40:47.999Z</time></trkpt><trkpt lat="45.7610319132796" lon="9.918278589583077"><ele>342.5</ele><time>2026-04-26T12:40:48.999Z</time></trkpt><trkpt lat="45.760952377656785" lon="9.918232448383911"><ele>342.3333333333333</ele><time>2026-04-26T12:40:49.999Z</time></trkpt><trkpt lat="45.760851271559325" lon="9.918232504971662"><ele>342.1666666666667</ele><time>2026-04-26T12:40:50.999Z</time></trkpt><trkpt lat="45.7607469993562" lon="9.918231997031185"><ele>342.0</ele><time>2026-04-26T12:40:51.999Z</time></trkpt><trkpt lat="45.76063016321309" lon="9.918197777036509"><ele>342.0</ele><time>2026-04-26T12:40:52.999Z</time></trkpt><trkpt lat="45.76050452515442" lon="9.918135288713778"><ele>342.0</ele><time>2026-04-26T12:40:53.999Z</time></trkpt><trkpt lat="45.760376425606644" lon="9.918060151712481"><ele>342.0</ele><time>2026-04-26T12:40:54.999Z</time></trkpt><trkpt lat="45.76025139333047" lon="9.917992742995432"><ele>342.0</ele><time>2026-04-26T12:40:55.999Z</time></trkpt><trkpt lat="45.76013350596127" lon="9.917932982237435"><ele>342.25</ele><time>2026-04-26T12:40:56.999Z</time></trkpt><trkpt lat="45.76001275722177" lon="9.917865644165927"><ele>342.5</ele><time>2026-04-26T12:40:57.999Z</time></trkpt><trkpt lat="45.75989169757578" lon="9.917778988890218"><ele>342.75</ele><time>2026-04-26T12:40:58.999Z</time></trkpt><trkpt lat="45.75977059346582" lon="9.917661453214917"><ele>343.0</ele><time>2026-04-26T12:40:59.999Z</time></trkpt><trkpt lat="45.75964932136363" lon="9.917508551932105"><ele>342.3333333333333</ele><time>2026-04-26T12:41:00.999Z</time></trkpt><trkpt lat="45.75955003537192" lon="9.917321880341522"><ele>341.6666666666667</ele><time>2026-04-26T12:41:01.999Z</time></trkpt><trkpt lat="45.759469407467016" lon="9.917139799134752"><ele>341.0</ele><time>2026-04-26T12:41:02.999Z</time></trkpt><trkpt lat="45.75939619137645" lon="9.916937137012313"><ele>340.0</ele><time>2026-04-26T12:41:03.999Z</time></trkpt><trkpt lat="45.759311314091605" lon="9.916729618836285"><ele>339.0</ele><time>2026-04-26T12:41:04.999Z</time></trkpt><trkpt lat="45.75923304249486" lon="9.916527529149574"><ele>338.0</ele><time>2026-04-26T12:41:05.999Z</time></trkpt><trkpt lat="45.759157400924764" lon="9.916322767682459"><ele>338.0</ele><time>2026-04-26T12:41:06.999Z</time></trkpt><trkpt lat="45.75907910080642" lon="9.91612282637875"><ele>338.0</ele><time>2026-04-26T12:41:07.999Z</time></trkpt><trkpt lat="45.7590048278683" lon="9.915934276696154"><ele>338.0</ele><time>2026-04-26T12:41:08.999Z</time></trkpt><trkpt lat="45.75893600488367" lon="9.91576053831927"><ele>338.0</ele><time>2026-04-26T12:41:09.999Z</time></trkpt><trkpt lat="45.75886948272351" lon="9.915584209605726"><ele>338.0</ele><time>2026-04-26T12:41:11Z</time></trkpt><trkpt lat="45.75878662280348" lon="9.915393599240842"><ele>338.0</ele><time>2026-04-26T12:41:12Z</time></trkpt><trkpt lat="45.758706296341465" lon="9.915184996983319"><ele>337.6666666666667</ele><time>2026-04-26T12:41:13Z</time></trkpt><trkpt lat="45.758639985004685" lon="9.914980846437167"><ele>337.3333333333333</ele><time>2026-04-26T12:41:14Z</time></trkpt><trkpt lat="45.75855780539388" lon="9.914790729997126"><ele>337.0</ele><time>2026-04-26T12:41:15Z</time></trkpt><trkpt lat="45.758480162119646" lon="9.914611322469781"><ele>336.75</ele><time>2026-04-26T12:41:16Z</time></trkpt><trkpt lat="45.75839847731018" lon="9.914440714486533"><ele>336.5</ele><time>2026-04-26T12:41:17Z</time></trkpt><trkpt lat="45.758306299823026" lon="9.91427883035609"><ele>336.25</ele><time>2026-04-26T12:41:18Z</time></trkpt><trkpt lat="45.758210346877384" lon="9.91411564397574"><ele>336.0</ele><time>2026-04-26T12:41:19Z</time></trkpt><trkpt lat="45.75811117706882" lon="9.913957369475618"><ele>336.0</ele><time>2026-04-26T12:41:20Z</time></trkpt><trkpt lat="45.758011434605585" lon="9.91380585747934"><ele>336.0</ele><time>2026-04-26T12:41:21Z</time></trkpt><trkpt lat="45.75790955822498" lon="9.913663293693938"><ele>336.0</ele><time>2026-04-26T12:41:22Z</time></trkpt><trkpt lat="45.75781159181761" lon="9.91353329624552"><ele>336.0</ele><time>2026-04-26T12:41:23Z</time></trkpt><trkpt lat="45.75771057918476" lon="9.913410540904472"><ele>335.75</ele><time>2026-04-26T12:41:24Z</time></trkpt><trkpt lat="45.75760377578605" lon="9.913292253865578"><ele>335.5</ele><time>2026-04-26T12:41:25Z</time></trkpt><trkpt lat="45.75748927017657" lon="9.91317489079342"><ele>335.25</ele><time>2026-04-26T12:41:26Z</time></trkpt><trkpt lat="45.757370463040445" lon="9.91306652294663"><ele>335.0</ele><time>2026-04-26T12:41:27Z</time></trkpt><trkpt lat="45.75725892419637" lon="9.912964471481436"><ele>335.0</ele><time>2026-04-26T12:41:28Z</time></trkpt><trkpt lat="45.75713975873987" lon="9.912876808609841"><ele>335.0</ele><time>2026-04-26T12:41:29Z</time></trkpt><trkpt lat="45.75701874396334" lon="9.912791655194626"><ele>335.0</ele><time>2026-04-26T12:41:30Z</time></trkpt><trkpt lat="45.75689005601623" lon="9.912712810007276"><ele>335.0</ele><time>2026-04-26T12:41:31Z</time></trkpt><trkpt lat="45.75676384142087" lon="9.91263514962595"><ele>335.6666666666667</ele><time>2026-04-26T12:41:32Z</time></trkpt><trkpt lat="45.756628986913796" lon="9.912566410653303"><ele>336.3333333333333</ele><time>2026-04-26T12:41:33Z</time></trkpt><trkpt lat="45.75647247162627" lon="9.912520849955508"><ele>337.0</ele><time>2026-04-26T12:41:34Z</time></trkpt><trkpt lat="45.75630553282245" lon="9.91245959714237"><ele>337.0</ele><time>2026-04-26T12:41:35Z</time></trkpt><trkpt lat="45.756137722874634" lon="9.912403590779784"><ele>337.0</ele><time>2026-04-26T12:41:36Z</time></trkpt><trkpt lat="45.75598757760903" lon="9.912348256534026"><ele>337.0</ele><time>2026-04-26T12:41:37Z</time></trkpt><trkpt lat="45.7558453915909" lon="9.912291194015184"><ele>337.0</ele><time>2026-04-26T12:41:38Z</time></trkpt><trkpt lat="45.75571040156251" lon="9.912241236025343"><ele>337.0</ele><time>2026-04-26T12:41:39Z</time></trkpt><trkpt lat="45.75558153265904" lon="9.91219342649414"><ele>337.0</ele><time>2026-04-26T12:41:40Z</time></trkpt><trkpt lat="45.75546155634886" lon="9.912138619008164"><ele>337.0</ele><time>2026-04-26T12:41:41Z</time></trkpt><trkpt lat="45.75534460334281" lon="9.91207954590464"><ele>337.0</ele><time>2026-04-26T12:41:42Z</time></trkpt><trkpt lat="45.75523004022988" lon="9.912013927974929"><ele>337.0</ele><time>2026-04-26T12:41:43Z</time></trkpt><trkpt lat="45.75512164171425" lon="9.911952562908928"><ele>337.0</ele><time>2026-04-26T12:41:44Z</time></trkpt><trkpt lat="45.75502689758179" lon="9.911885053384086"><ele>337.0</ele><time>2026-04-26T12:41:45Z</time></trkpt><trkpt lat="45.75493973371419" lon="9.911812879273114"><ele>337.0</ele><time>2026-04-26T12:41:46Z</time></trkpt><trkpt lat="45.754862091732626" lon="9.911740955177013"><ele>337.20000000000005</ele><time>2026-04-26T12:41:47Z</time></trkpt><trkpt lat="45.754791735727075" lon="9.911673984756408"><ele>337.4</ele><time>2026-04-26T12:41:48Z</time></trkpt><trkpt lat="45.754710400147204" lon="9.911596163613426"><ele>337.6</ele><time>2026-04-26T12:41:49Z</time></trkpt><trkpt lat="45.7546267008994" lon="9.911512331782447"><ele>337.79999999999995</ele><time>2026-04-26T12:41:50Z</time></trkpt><trkpt lat="45.754532862558634" lon="9.911414548333655"><ele>338.0</ele><time>2026-04-26T12:41:51Z</time></trkpt><trkpt lat="45.75444062978348" lon="9.911309281331336"><ele>337.75</ele><time>2026-04-26T12:41:52Z</time></trkpt><trkpt lat="45.754346161098184" lon="9.911204527069797"><ele>337.5</ele><time>2026-04-26T12:41:53Z</time></trkpt><trkpt lat="45.754243474553576" lon="9.911089673775363"><ele>337.25</ele><time>2026-04-26T12:41:54Z</time></trkpt><trkpt lat="45.75412851026219" lon="9.910962163911421"><ele>337.0</ele><time>2026-04-26T12:41:55Z</time></trkpt><trkpt lat="45.75400859598748" lon="9.910823009175424"><ele>337.0</ele><time>2026-04-26T12:41:56Z</time></trkpt><trkpt lat="45.753888676046145" lon="9.910679413437846"><ele>337.0</ele><time>2026-04-26T12:41:57Z</time></trkpt><trkpt lat="45.7537739252481" lon="9.910556379454107"><ele>337.0</ele><time>2026-04-26T12:41:58Z</time></trkpt><trkpt lat="45.75367260746208" lon="9.910448513907518"><ele>337.0</ele><time>2026-04-26T12:41:59Z</time></trkpt><trkpt lat="45.753574728531916" lon="9.91034502062063"><ele>336.6</ele><time>2026-04-26T12:42:00Z</time></trkpt><trkpt lat="45.75348707493229" lon="9.910239853988559"><ele>336.20000000000005</ele><time>2026-04-26T12:42:01Z</time></trkpt><trkpt lat="45.753400011895266" lon="9.91014231005443"><ele>335.8</ele><time>2026-04-26T12:42:01.999Z</time></trkpt><trkpt lat="45.75331323342031" lon="9.910049153708238"><ele>335.4</ele><time>2026-04-26T12:42:02.999Z</time></trkpt><trkpt lat="45.75322338395686" lon="9.909951993757279"><ele>335.0</ele><time>2026-04-26T12:42:03.999Z</time></trkpt><trkpt lat="45.753128236458714" lon="9.909844868039066"><ele>335.0</ele><time>2026-04-26T12:42:04.999Z</time></trkpt><trkpt lat="45.75303141414156" lon="9.909744753402556"><ele>335.0</ele><time>2026-04-26T12:42:05.999Z</time></trkpt><trkpt lat="45.752930316302596" lon="9.909649818606773"><ele>335.0</ele><time>2026-04-26T12:42:06.999Z</time></trkpt><trkpt lat="45.75282184787083" lon="9.90955738190862"><ele>335.0</ele><time>2026-04-26T12:42:07.999Z</time></trkpt><trkpt lat="45.75270847766274" lon="9.90947629352223"><ele>335.25</ele><time>2026-04-26T12:42:08.999Z</time></trkpt><trkpt lat="45.7525880156376" lon="9.90940851863548"><ele>335.5</ele><time>2026-04-26T12:42:09.999Z</time></trkpt><trkpt lat="45.752466584339416" lon="9.909352836934774"><ele>335.75</ele><time>2026-04-26T12:42:10.999Z</time></trkpt><trkpt lat="45.75233996814784" lon="9.909302307468245"><ele>336.0</ele><time>2026-04-26T12:42:11.999Z</time></trkpt><trkpt lat="45.75222387429684" lon="9.909253428394901"><ele>336.0</ele><time>2026-04-26T12:42:12.999Z</time></trkpt><trkpt lat="45.752113171106295" lon="9.909216112190661"><ele>336.0</ele><time>2026-04-26T12:42:13.999Z</time></trkpt><trkpt lat="45.75200362296171" lon="9.909173899104974"><ele>336.0</ele><time>2026-04-26T12:42:14.999Z</time></trkpt><trkpt lat="45.75190401723721" lon="9.909134842947925"><ele>336.0</ele><time>2026-04-26T12:42:15.999Z</time></trkpt><trkpt lat="45.75179742775488" lon="9.909093648045722"><ele>336.0</ele><time>2026-04-26T12:42:16.999Z</time></trkpt><trkpt lat="45.75169339197052" lon="9.909049881985329"><ele>336.20000000000005</ele><time>2026-04-26T12:42:17.999Z</time></trkpt><trkpt lat="45.75159069733993" lon="9.909009355761057"><ele>336.40000000000003</ele><time>2026-04-26T12:42:18.999Z</time></trkpt><trkpt lat="45.751484259063716" lon="9.908966251111465"><ele>336.6</ele><time>2026-04-26T12:42:19.999Z</time></trkpt><trkpt lat="45.75136610242431" lon="9.908930345253372"><ele>336.8</ele><time>2026-04-26T12:42:20.999Z</time></trkpt><trkpt lat="45.751259590429044" lon="9.908890230330899"><ele>337.0</ele><time>2026-04-26T12:42:21.999Z</time></trkpt><trkpt lat="45.75117179402854" lon="9.908850068371263"><ele>337.0</ele><time>2026-04-26T12:42:22.999Z</time></trkpt><trkpt lat="45.751107720284196" lon="9.908818868208233"><ele>337.0</ele><time>2026-04-26T12:42:23.999Z</time></trkpt><trkpt lat="45.751044490511596" lon="9.908791161231806"><ele>337.0</ele><time>2026-04-26T12:42:24.999Z</time></trkpt><trkpt lat="45.75096290420383" lon="9.908748435442908"><ele>337.0</ele><time>2026-04-26T12:42:25.999Z</time></trkpt><trkpt lat="45.75084592919683" lon="9.908712430115164"><ele>337.0</ele><time>2026-04-26T12:42:26.999Z</time></trkpt><trkpt lat="45.75071651438367" lon="9.908678765333143"><ele>337.25</ele><time>2026-04-26T12:42:27.999Z</time></trkpt><trkpt lat="45.75058915969676" lon="9.908637685710426"><ele>337.5</ele><time>2026-04-26T12:42:28.999Z</time></trkpt><trkpt lat="45.75044068796375" lon="9.908586458451554"><ele>337.75</ele><time>2026-04-26T12:42:29.999Z</time></trkpt><trkpt lat="45.75028909146129" lon="9.908534360036919"><ele>338.0</ele><time>2026-04-26T12:42:30.999Z</time></trkpt><trkpt lat="45.75013068710028" lon="9.908475699271358"><ele>338.0</ele><time>2026-04-26T12:42:31.999Z</time></trkpt><trkpt lat="45.749966140237674" lon="9.908424354487073"><ele>338.0</ele><time>2026-04-26T12:42:32.999Z</time></trkpt><trkpt lat="45.74980132390271" lon="9.908360166892054"><ele>338.0</ele><time>2026-04-26T12:42:33.999Z</time></trkpt><trkpt lat="45.7496389727552" lon="9.90829177372705"><ele>338.33333333333337</ele><time>2026-04-26T12:42:34.999Z</time></trkpt><trkpt lat="45.74948471524299" lon="9.908239645693623"><ele>338.6666666666667</ele><time>2026-04-26T12:42:35.999Z</time></trkpt><trkpt lat="45.74932757033963" lon="9.908199637479314"><ele>339.0</ele><time>2026-04-26T12:42:36.999Z</time></trkpt><trkpt lat="45.74917652836505" lon="9.908176788033266"><ele>338.3333333333333</ele><time>2026-04-26T12:42:37.999Z</time></trkpt><trkpt lat="45.74901894439634" lon="9.90816253315048"><ele>337.66666666666663</ele><time>2026-04-26T12:42:38.999Z</time></trkpt><trkpt lat="45.748854314926284" lon="9.908158379213168"><ele>337.0</ele><time>2026-04-26T12:42:39.999Z</time></trkpt><trkpt lat="45.74868720888288" lon="9.908156872036994"><ele>336.3333333333333</ele><time>2026-04-26T12:42:40.999Z</time></trkpt><trkpt lat="45.74852516697492" lon="9.908158798943475"><ele>335.6666666666667</ele><time>2026-04-26T12:42:41.999Z</time></trkpt><trkpt lat="45.74834736335527" lon="9.908160522617656"><ele>335.0</ele><time>2026-04-26T12:42:42.999Z</time></trkpt><trkpt lat="45.748165181044335" lon="9.90815724918913"><ele>335.0</ele><time>2026-04-26T12:42:43.999Z</time></trkpt><trkpt lat="45.74800037127751" lon="9.908156421903696"><ele>335.0</ele><time>2026-04-26T12:42:44.999Z</time></trkpt><trkpt lat="45.7478463686313" lon="9.908147399479764"><ele>335.0</ele><time>2026-04-26T12:42:45.999Z</time></trkpt><trkpt lat="45.7476920219822" lon="9.908142493918374"><ele>334.33333333333337</ele><time>2026-04-26T12:42:46.999Z</time></trkpt><trkpt lat="45.747537109808995" lon="9.908149854690878"><ele>333.6666666666667</ele><time>2026-04-26T12:42:47.999Z</time></trkpt><trkpt lat="45.747376140443514" lon="9.908170208692827"><ele>333.0</ele><time>2026-04-26T12:42:48.999Z</time></trkpt><trkpt lat="45.747204740206286" lon="9.908208413447452"><ele>333.0</ele><time>2026-04-26T12:42:49.999Z</time></trkpt><trkpt lat="45.747019561154076" lon="9.90826912027107"><ele>333.0</ele><time>2026-04-26T12:42:50.999Z</time></trkpt><trkpt lat="45.74683575121491" lon="9.908347287928143"><ele>333.0</ele><time>2026-04-26T12:42:51.999Z</time></trkpt><trkpt lat="45.746642251750714" lon="9.908450366884379"><ele>332.3333333333333</ele><time>2026-04-26T12:42:52.999Z</time></trkpt><trkpt lat="45.746445885106134" lon="9.908546392616314"><ele>331.66666666666663</ele><time>2026-04-26T12:42:53.999Z</time></trkpt><trkpt lat="45.74626375731003" lon="9.908624671927223"><ele>331.0</ele><time>2026-04-26T12:42:54.999Z</time></trkpt><trkpt lat="45.74608280913997" lon="9.908702437624612"><ele>331.0</ele><time>2026-04-26T12:42:55.999Z</time></trkpt><trkpt lat="45.74590538142344" lon="9.90878934245857"><ele>331.0</ele><time>2026-04-26T12:42:56.999Z</time></trkpt><trkpt lat="45.74572712595231" lon="9.908869254943433"><ele>331.0</ele><time>2026-04-26T12:42:57.999Z</time></trkpt><trkpt lat="45.74554295964545" lon="9.90894616871673"><ele>331.0</ele><time>2026-04-26T12:42:58.999Z</time></trkpt><trkpt lat="45.74535433253543" lon="9.909011265445896"><ele>331.0</ele><time>2026-04-26T12:42:59.999Z</time></trkpt><trkpt lat="45.74516379661655" lon="9.909057002893208"><ele>331.0</ele><time>2026-04-26T12:43:00.999Z</time></trkpt><trkpt lat="45.744982582002095" lon="9.909079076951263"><ele>330.66666666666663</ele><time>2026-04-26T12:43:01.999Z</time></trkpt><trkpt lat="45.74480144448307" lon="9.909081507766972"><ele>330.3333333333333</ele><time>2026-04-26T12:43:02.999Z</time></trkpt><trkpt lat="45.744621550909336" lon="9.909069155003577"><ele>330.0</ele><time>2026-04-26T12:43:03.999Z</time></trkpt><trkpt lat="45.74443787786114" lon="9.909052513414881"><ele>329.0</ele><time>2026-04-26T12:43:04.999Z</time></trkpt><trkpt lat="45.74423924570671" lon="9.909016243891724"><ele>328.0</ele><time>2026-04-26T12:43:05.999Z</time></trkpt><trkpt lat="45.74402201787339" lon="9.908941083777698"><ele>327.0</ele><time>2026-04-26T12:43:06.999Z</time></trkpt><trkpt lat="45.74382210240581" lon="9.908854052350502"><ele>327.0</ele><time>2026-04-26T12:43:07.999Z</time></trkpt><trkpt lat="45.743639660391075" lon="9.908773894244229"><ele>327.0</ele><time>2026-04-26T12:43:08.999Z</time></trkpt><trkpt lat="45.74346107158255" lon="9.908706177096764"><ele>327.0</ele><time>2026-04-26T12:43:09.999Z</time></trkpt><trkpt lat="45.74329447330901" lon="9.908643233816793"><ele>327.0</ele><time>2026-04-26T12:43:10.999Z</time></trkpt><trkpt lat="45.743136732311136" lon="9.908586230459049"><ele>327.0</ele><time>2026-04-26T12:43:11.999Z</time></trkpt><trkpt lat="45.74297567093477" lon="9.908526637865045"><ele>327.0</ele><time>2026-04-26T12:43:12.999Z</time></trkpt><trkpt lat="45.74280354322289" lon="9.908465891833687"><ele>326.3333333333333</ele><time>2026-04-26T12:43:13.999Z</time></trkpt><trkpt lat="45.742642672361356" lon="9.908407240005264"><ele>325.66666666666663</ele><time>2026-04-26T12:43:14.999Z</time></trkpt><trkpt lat="45.742468497788394" lon="9.908342893037116"><ele>325.0</ele><time>2026-04-26T12:43:15.999Z</time></trkpt><trkpt lat="45.74229920958158" lon="9.90827248038509"><ele>325.0</ele><time>2026-04-26T12:43:17Z</time></trkpt><trkpt lat="45.74214598192985" lon="9.908219476327709"><ele>325.0</ele><time>2026-04-26T12:43:18Z</time></trkpt><trkpt lat="45.7419625044544" lon="9.908167504035019"><ele>325.0</ele><time>2026-04-26T12:43:19Z</time></trkpt><trkpt lat="45.741765163815145" lon="9.908084364043773"><ele>324.66666666666663</ele><time>2026-04-26T12:43:20Z</time></trkpt><trkpt lat="45.74156340858024" lon="9.90799023766198"><ele>324.3333333333333</ele><time>2026-04-26T12:43:21Z</time></trkpt><trkpt lat="45.741358797749115" lon="9.907901211093916"><ele>324.0</ele><time>2026-04-26T12:43:22Z</time></trkpt><trkpt lat="45.74117237882197" lon="9.907813650189905"><ele>323.6666666666667</ele><time>2026-04-26T12:43:23Z</time></trkpt><trkpt lat="45.74099737998374" lon="9.907715259501453"><ele>323.33333333333337</ele><time>2026-04-26T12:43:24Z</time></trkpt><trkpt lat="45.74083308246733" lon="9.90761744565819"><ele>323.0</ele><time>2026-04-26T12:43:25Z</time></trkpt><trkpt lat="45.740678855426964" lon="9.9075186521113"><ele>322.75</ele><time>2026-04-26T12:43:26Z</time></trkpt><trkpt lat="45.740533981009854" lon="9.907430172284885"><ele>322.5</ele><time>2026-04-26T12:43:27Z</time></trkpt><trkpt lat="45.740398339947326" lon="9.90734949170211"><ele>322.25</ele><time>2026-04-26T12:43:28Z</time></trkpt><trkpt lat="45.740274156587496" lon="9.907270633944995"><ele>322.0</ele><time>2026-04-26T12:43:29Z</time></trkpt><trkpt lat="45.74017125968154" lon="9.907198682797002"><ele>322.0</ele><time>2026-04-26T12:43:30Z</time></trkpt><trkpt lat="45.74008313871033" lon="9.907134312120451"><ele>322.0</ele><time>2026-04-26T12:43:31Z</time></trkpt><trkpt lat="45.74000044280672" lon="9.90706655477982"><ele>322.0</ele><time>2026-04-26T12:43:32Z</time></trkpt><trkpt lat="45.739937854781296" lon="9.906973236397613"><ele>322.0</ele><time>2026-04-26T12:43:33Z</time></trkpt><trkpt lat="45.73988432918394" lon="9.906873124565788"><ele>322.0</ele><time>2026-04-26T12:43:34Z</time></trkpt><trkpt lat="45.73981244910906" lon="9.906799582173736"><ele>322.0</ele><time>2026-04-26T12:43:35Z</time></trkpt><trkpt lat="45.739721307233985" lon="9.906782021524863"><ele>322.0</ele><time>2026-04-26T12:43:36Z</time></trkpt><trkpt lat="45.73962050045862" lon="9.906803481014268"><ele>322.0</ele><time>2026-04-26T12:43:37Z</time></trkpt><trkpt lat="45.73951730553451" lon="9.906806376514144"><ele>322.0</ele><time>2026-04-26T12:43:38Z</time></trkpt><trkpt lat="45.739409961616644" lon="9.906776176131586"><ele>322.0</ele><time>2026-04-26T12:43:39Z</time></trkpt><trkpt lat="45.7392867589211" lon="9.90669309281501"><ele>321.0</ele><time>2026-04-26T12:43:40Z</time></trkpt><trkpt lat="45.73913551745536" lon="9.906596610971532"><ele>320.0</ele><time>2026-04-26T12:43:41Z</time></trkpt><trkpt lat="45.73897064173409" lon="9.906505394146073"><ele>319.0</ele><time>2026-04-26T12:43:42Z</time></trkpt><trkpt lat="45.7388091926237" lon="9.906419834997838"><ele>319.0</ele><time>2026-04-26T12:43:43Z</time></trkpt><trkpt lat="45.73866741961921" lon="9.906331522245063"><ele>319.0</ele><time>2026-04-26T12:43:44Z</time></trkpt><trkpt lat="45.73851265467734" lon="9.90624340619574"><ele>319.0</ele><time>2026-04-26T12:43:45Z</time></trkpt><trkpt lat="45.738346590972085" lon="9.90617097424377"><ele>319.3333333333333</ele><time>2026-04-26T12:43:46Z</time></trkpt><trkpt lat="45.73816600891521" lon="9.90612701114837"><ele>319.6666666666667</ele><time>2026-04-26T12:43:47Z</time></trkpt><trkpt lat="45.737986129712255" lon="9.906105779880676"><ele>320.0</ele><time>2026-04-26T12:43:48Z</time></trkpt><trkpt lat="45.737808190098974" lon="9.906089437558785"><ele>319.33333333333337</ele><time>2026-04-26T12:43:49Z</time></trkpt><trkpt lat="45.73762283809953" lon="9.90607377730279"><ele>318.6666666666667</ele><time>2026-04-26T12:43:50Z</time></trkpt><trkpt lat="45.73743955514509" lon="9.906061672584093"><ele>318.0</ele><time>2026-04-26T12:43:51Z</time></trkpt><trkpt lat="45.737262037603735" lon="9.906052272064144"><ele>318.0</ele><time>2026-04-26T12:43:52Z</time></trkpt><trkpt lat="45.737032577726" lon="9.906046228098583"><ele>318.0</ele><time>2026-04-26T12:43:53Z</time></trkpt><trkpt lat="45.73683867863763" lon="9.90601758700461"><ele>318.0</ele><time>2026-04-26T12:43:54Z</time></trkpt><trkpt lat="45.736653850165865" lon="9.905988734675379"><ele>318.3333333333333</ele><time>2026-04-26T12:43:55Z</time></trkpt><trkpt lat="45.73647095543987" lon="9.90597171302936"><ele>318.66666666666663</ele><time>2026-04-26T12:43:56Z</time></trkpt><trkpt lat="45.73629436244974" lon="9.905963135116473"><ele>319.0</ele><time>2026-04-26T12:43:57Z</time></trkpt><trkpt lat="45.73611869604522" lon="9.905947126839195"><ele>318.66666666666663</ele><time>2026-04-26T12:43:58Z</time></trkpt><trkpt lat="45.73594462487912" lon="9.905935220436689"><ele>318.3333333333333</ele><time>2026-04-26T12:43:59Z</time></trkpt><trkpt lat="45.73577611927781" lon="9.905938835811174"><ele>318.0</ele><time>2026-04-26T12:44:00Z</time></trkpt><trkpt lat="45.735631391248916" lon="9.905987168430384"><ele>318.0</ele><time>2026-04-26T12:44:01Z</time></trkpt><trkpt lat="45.73548854571361" lon="9.906059371657978"><ele>318.0</ele><time>2026-04-26T12:44:02Z</time></trkpt><trkpt lat="45.735358711996874" lon="9.906151216609793"><ele>318.0</ele><time>2026-04-26T12:44:03Z</time></trkpt><trkpt lat="45.735237817159735" lon="9.906268230708108"><ele>318.0</ele><time>2026-04-26T12:44:04Z</time></trkpt><trkpt lat="45.73512226760832" lon="9.906398882293617"><ele>317.5</ele><time>2026-04-26T12:44:05Z</time></trkpt><trkpt lat="45.73501078077731" lon="9.906529446654734"><ele>317.0</ele><time>2026-04-26T12:44:06Z</time></trkpt><trkpt lat="45.73490046476249" lon="9.906651578495985"><ele>316.5</ele><time>2026-04-26T12:44:07Z</time></trkpt><trkpt lat="45.73479171099776" lon="9.90676314492762"><ele>316.0</ele><time>2026-04-26T12:44:08Z</time></trkpt><trkpt lat="45.73468994122188" lon="9.90686281055072"><ele>316.0</ele><time>2026-04-26T12:44:09Z</time></trkpt><trkpt lat="45.73458935257913" lon="9.906943857709187"><ele>316.0</ele><time>2026-04-26T12:44:09.999Z</time></trkpt><trkpt lat="45.73448953285202" lon="9.907012615202957"><ele>316.0</ele><time>2026-04-26T12:44:10.999Z</time></trkpt><trkpt lat="45.73438852930471" lon="9.907070729356796"><ele>316.0</ele><time>2026-04-26T12:44:11.999Z</time></trkpt><trkpt lat="45.73428573564254" lon="9.90711820827164"><ele>316.0</ele><time>2026-04-26T12:44:12.999Z</time></trkpt><trkpt lat="45.734180555063595" lon="9.90715726284599"><ele>316.0</ele><time>2026-04-26T12:44:13.999Z</time></trkpt><trkpt lat="45.734076145260275" lon="9.907182345783998"><ele>316.0</ele><time>2026-04-26T12:44:14.999Z</time></trkpt><trkpt lat="45.73396744316828" lon="9.907198669763762"><ele>316.0</ele><time>2026-04-26T12:44:15.999Z</time></trkpt><trkpt lat="45.733852815068005" lon="9.907213748554954"><ele>316.0</ele><time>2026-04-26T12:44:16.999Z</time></trkpt><trkpt lat="45.733734568114166" lon="9.907215716241485"><ele>316.0</ele><time>2026-04-26T12:44:17.999Z</time></trkpt><trkpt lat="45.73361499471253" lon="9.907207694264176"><ele>315.25</ele><time>2026-04-26T12:44:18.999Z</time></trkpt><trkpt lat="45.73349433331993" lon="9.907192157560191"><ele>314.5</ele><time>2026-04-26T12:44:19.999Z</time></trkpt><trkpt lat="45.73336886779195" lon="9.907176830568282"><ele>313.75</ele><time>2026-04-26T12:44:20.999Z</time></trkpt><trkpt lat="45.733245588795626" lon="9.9071615808637"><ele>313.0</ele><time>2026-04-26T12:44:21.999Z</time></trkpt><trkpt lat="45.73311575301539" lon="9.907145607050138"><ele>313.0</ele><time>2026-04-26T12:44:22.999Z</time></trkpt><trkpt lat="45.73297471858523" lon="9.907126498139009"><ele>313.0</ele><time>2026-04-26T12:44:23.999Z</time></trkpt><trkpt lat="45.73282674108163" lon="9.907105365503625"><ele>313.0</ele><time>2026-04-26T12:44:24.999Z</time></trkpt><trkpt lat="45.7326607977156" lon="9.907083477659539"><ele>312.66666666666663</ele><time>2026-04-26T12:44:25.999Z</time></trkpt><trkpt lat="45.732481559122576" lon="9.907065178628606"><ele>312.3333333333333</ele><time>2026-04-26T12:44:26.999Z</time></trkpt><trkpt lat="45.73230453367371" lon="9.907065122918734"><ele>312.0</ele><time>2026-04-26T12:44:27.999Z</time></trkpt><trkpt lat="45.73208120945948" lon="9.907035253599469"><ele>312.0</ele><time>2026-04-26T12:44:28.999Z</time></trkpt><trkpt lat="45.73188917906521" lon="9.90701700352048"><ele>312.0</ele><time>2026-04-26T12:44:29.999Z</time></trkpt><trkpt lat="45.731706384809584" lon="9.906991493181541"><ele>312.0</ele><time>2026-04-26T12:44:30.999Z</time></trkpt><trkpt lat="45.731529423365856" lon="9.906955265751616"><ele>312.0</ele><time>2026-04-26T12:44:31.999Z</time></trkpt><trkpt lat="45.73135561849221" lon="9.906908602847862"><ele>312.0</ele><time>2026-04-26T12:44:32.999Z</time></trkpt><trkpt lat="45.73118821230536" lon="9.906844704457365"><ele>312.0</ele><time>2026-04-26T12:44:33.999Z</time></trkpt><trkpt lat="45.73103718948462" lon="9.906757341227719"><ele>312.0</ele><time>2026-04-26T12:44:34.999Z</time></trkpt><trkpt lat="45.730885341322605" lon="9.906653890055523"><ele>312.0</ele><time>2026-04-26T12:44:35.999Z</time></trkpt><trkpt lat="45.73073792075792" lon="9.906530317350352"><ele>312.0</ele><time>2026-04-26T12:44:36.999Z</time></trkpt><trkpt lat="45.73060583685446" lon="9.906390732474616"><ele>312.0</ele><time>2026-04-26T12:44:37.999Z</time></trkpt><trkpt lat="45.7304888193778" lon="9.90623258094701"><ele>312.0</ele><time>2026-04-26T12:44:38.999Z</time></trkpt><trkpt lat="45.73036609551973" lon="9.906050019021944"><ele>312.0</ele><time>2026-04-26T12:44:39.999Z</time></trkpt><trkpt lat="45.7302471458347" lon="9.905862626783135"><ele>311.6666666666667</ele><time>2026-04-26T12:44:40.999Z</time></trkpt><trkpt lat="45.730132328889646" lon="9.905674724661774"><ele>311.33333333333337</ele><time>2026-04-26T12:44:41.999Z</time></trkpt><trkpt lat="45.7300116124125" lon="9.905488617156623"><ele>311.0</ele><time>2026-04-26T12:44:42.999Z</time></trkpt><trkpt lat="45.7298877345774" lon="9.905302829627358"><ele>311.0</ele><time>2026-04-26T12:44:43.999Z</time></trkpt><trkpt lat="45.72976599177262" lon="9.905100767477716"><ele>311.0</ele><time>2026-04-26T12:44:44.999Z</time></trkpt><trkpt lat="45.72965171107321" lon="9.904905645489213"><ele>311.0</ele><time>2026-04-26T12:44:45.999Z</time></trkpt><trkpt lat="45.72954035307425" lon="9.90472965061456"><ele>311.25</ele><time>2026-04-26T12:44:46.999Z</time></trkpt><trkpt lat="45.72943406402069" lon="9.90456121849393"><ele>311.5</ele><time>2026-04-26T12:44:47.999Z</time></trkpt><trkpt lat="45.72934011774202" lon="9.904407849000368"><ele>311.75</ele><time>2026-04-26T12:44:48.999Z</time></trkpt><trkpt lat="45.72924670971539" lon="9.904259787126737"><ele>312.0</ele><time>2026-04-26T12:44:49.999Z</time></trkpt><trkpt lat="45.72915209743585" lon="9.904113926665959"><ele>313.3333333333333</ele><time>2026-04-26T12:44:50.999Z</time></trkpt><trkpt lat="45.729051242717965" lon="9.903957718165056"><ele>314.66666666666663</ele><time>2026-04-26T12:44:51.999Z</time></trkpt><trkpt lat="45.7289466414772" lon="9.903787663840129"><ele>316.0</ele><time>2026-04-26T12:44:52.999Z</time></trkpt><trkpt lat="45.728830071801795" lon="9.903603491332294"><ele>316.0</ele><time>2026-04-26T12:44:53.999Z</time></trkpt><trkpt lat="45.7287080432669" lon="9.903415987467689"><ele>316.0</ele><time>2026-04-26T12:44:54.999Z</time></trkpt><trkpt lat="45.72857214011464" lon="9.903211646388176"><ele>316.0</ele><time>2026-04-26T12:44:55.999Z</time></trkpt><trkpt lat="45.72843958925895" lon="9.903030157053285"><ele>317.0</ele><time>2026-04-26T12:44:56.999Z</time></trkpt><trkpt lat="45.728293017744626" lon="9.902890854064363"><ele>318.0</ele><time>2026-04-26T12:44:57.999Z</time></trkpt><trkpt lat="45.72812811178819" lon="9.902762208446577"><ele>319.0</ele><time>2026-04-26T12:44:58.999Z</time></trkpt><trkpt lat="45.72797357295232" lon="9.902625750407084"><ele>317.3333333333333</ele><time>2026-04-26T12:44:59.999Z</time></trkpt><trkpt lat="45.72781928869869" lon="9.90248322976683"><ele>315.6666666666667</ele><time>2026-04-26T12:45:00.999Z</time></trkpt><trkpt lat="45.72766706503024" lon="9.902346564242047"><ele>314.0</ele><time>2026-04-26T12:45:01.999Z</time></trkpt><trkpt lat="45.7275179260887" lon="9.902214596122029"><ele>314.0</ele><time>2026-04-26T12:45:02.999Z</time></trkpt><trkpt lat="45.727364432832466" lon="9.902084960212354"><ele>314.0</ele><time>2026-04-26T12:45:03.999Z</time></trkpt><trkpt lat="45.72720290905802" lon="9.901955202356229"><ele>314.0</ele><time>2026-04-26T12:45:04.999Z</time></trkpt><trkpt lat="45.72703157354526" lon="9.90182428177239"><ele>314.33333333333337</ele><time>2026-04-26T12:45:05.999Z</time></trkpt><trkpt lat="45.7268564202479" lon="9.901705058501024"><ele>314.6666666666667</ele><time>2026-04-26T12:45:06.999Z</time></trkpt><trkpt lat="45.72668464354271" lon="9.901613301574708"><ele>315.0</ele><time>2026-04-26T12:45:07.999Z</time></trkpt><trkpt lat="45.72651378572292" lon="9.901556451931514"><ele>315.0</ele><time>2026-04-26T12:45:08.999Z</time></trkpt><trkpt lat="45.726345217701116" lon="9.90151227716329"><ele>315.0</ele><time>2026-04-26T12:45:09.999Z</time></trkpt><trkpt lat="45.72618645879876" lon="9.901460973992153"><ele>315.0</ele><time>2026-04-26T12:45:10.999Z</time></trkpt><trkpt lat="45.726032787639774" lon="9.901410582465534"><ele>313.0</ele><time>2026-04-26T12:45:11.999Z</time></trkpt><trkpt lat="45.725886317813874" lon="9.901350574649506"><ele>311.0</ele><time>2026-04-26T12:45:12.999Z</time></trkpt><trkpt lat="45.72573473410455" lon="9.901265298634238"><ele>309.0</ele><time>2026-04-26T12:45:13.999Z</time></trkpt><trkpt lat="45.72559010562719" lon="9.901155936654527"><ele>309.0</ele><time>2026-04-26T12:45:14.999Z</time></trkpt><trkpt lat="45.72545585093191" lon="9.901034316414199"><ele>309.0</ele><time>2026-04-26T12:45:15.999Z</time></trkpt><trkpt lat="45.725319746078426" lon="9.900910974374975"><ele>309.0</ele><time>2026-04-26T12:45:16.999Z</time></trkpt><trkpt lat="45.72517443657747" lon="9.900786799377583"><ele>308.0</ele><time>2026-04-26T12:45:17.999Z</time></trkpt><trkpt lat="45.725018483261124" lon="9.900654100793316"><ele>307.0</ele><time>2026-04-26T12:45:18.999Z</time></trkpt><trkpt lat="45.72485328612965" lon="9.900518694794249"><ele>306.0</ele><time>2026-04-26T12:45:19.999Z</time></trkpt><trkpt lat="45.72468914600393" lon="9.900384141561906"><ele>306.0</ele><time>2026-04-26T12:45:20.999Z</time></trkpt><trkpt lat="45.724520491434475" lon="9.900241752708974"><ele>306.0</ele><time>2026-04-26T12:45:21.999Z</time></trkpt><trkpt lat="45.72435942678421" lon="9.900107013030542"><ele>306.0</ele><time>2026-04-26T12:45:23Z</time></trkpt><trkpt lat="45.72420084221257" lon="9.899944960213748"><ele>305.3333333333333</ele><time>2026-04-26T12:45:24Z</time></trkpt><trkpt lat="45.724015009313916" lon="9.899786005034256"><ele>304.66666666666663</ele><time>2026-04-26T12:45:25Z</time></trkpt><trkpt lat="45.72384385920523" lon="9.899639763988363"><ele>304.0</ele><time>2026-04-26T12:45:26Z</time></trkpt><trkpt lat="45.72366971070807" lon="9.899521466258708"><ele>303.66666666666663</ele><time>2026-04-26T12:45:27Z</time></trkpt><trkpt lat="45.723507143641015" lon="9.899374001753207"><ele>303.3333333333333</ele><time>2026-04-26T12:45:28Z</time></trkpt><trkpt lat="45.72334817878953" lon="9.89923400970974"><ele>303.0</ele><time>2026-04-26T12:45:29Z</time></trkpt><trkpt lat="45.72319331423091" lon="9.89910167976751"><ele>303.0</ele><time>2026-04-26T12:45:30Z</time></trkpt><trkpt lat="45.72303614674088" lon="9.898965344142834"><ele>303.0</ele><time>2026-04-26T12:45:31Z</time></trkpt><trkpt lat="45.72288820900011" lon="9.89883214838303"><ele>303.0</ele><time>2026-04-26T12:45:32Z</time></trkpt><trkpt lat="45.72274574524332" lon="9.898699294530937"><ele>302.75</ele><time>2026-04-26T12:45:33Z</time></trkpt><trkpt lat="45.7226106173312" lon="9.898588229984524"><ele>302.5</ele><time>2026-04-26T12:45:34Z</time></trkpt><trkpt lat="45.72248750691029" lon="9.898482825285871"><ele>302.25</ele><time>2026-04-26T12:45:35Z</time></trkpt><trkpt lat="45.7223710809162" lon="9.89837202641109"><ele>302.0</ele><time>2026-04-26T12:45:36Z</time></trkpt><trkpt lat="45.72226315535006" lon="9.89825318334219"><ele>302.0</ele><time>2026-04-26T12:45:37Z</time></trkpt><trkpt lat="45.72215695922751" lon="9.898122275597778"><ele>302.0</ele><time>2026-04-26T12:45:38Z</time></trkpt><trkpt lat="45.7220549073551" lon="9.89798174414901"><ele>302.0</ele><time>2026-04-26T12:45:39Z</time></trkpt><trkpt lat="45.72194849988259" lon="9.897827217098337"><ele>302.0</ele><time>2026-04-26T12:45:40Z</time></trkpt><trkpt lat="45.721846360899086" lon="9.89765734226348"><ele>302.75</ele><time>2026-04-26T12:45:41Z</time></trkpt><trkpt lat="45.72175237802654" lon="9.897478925374314"><ele>303.5</ele><time>2026-04-26T12:45:42Z</time></trkpt><trkpt lat="45.72167030745158" lon="9.897303914514936"><ele>304.25</ele><time>2026-04-26T12:45:43Z</time></trkpt><trkpt lat="45.72159308598972" lon="9.89713073210997"><ele>305.0</ele><time>2026-04-26T12:45:44Z</time></trkpt><trkpt lat="45.721526233191575" lon="9.89696312064578"><ele>305.0</ele><time>2026-04-26T12:45:45Z</time></trkpt><trkpt lat="45.72147026308434" lon="9.89679283286293"><ele>305.0</ele><time>2026-04-26T12:45:46Z</time></trkpt><trkpt lat="45.72142403110955" lon="9.89662155281088"><ele>305.0</ele><time>2026-04-26T12:45:47Z</time></trkpt><trkpt lat="45.72138215259671" lon="9.89644473719783"><ele>305.0</ele><time>2026-04-26T12:45:48Z</time></trkpt><trkpt lat="45.72134457541747" lon="9.896265010559983"><ele>304.25</ele><time>2026-04-26T12:45:49Z</time></trkpt><trkpt lat="45.7213146204117" lon="9.896083127323106"><ele>303.5</ele><time>2026-04-26T12:45:50Z</time></trkpt><trkpt lat="45.72128736542378" lon="9.895897322696499"><ele>302.75</ele><time>2026-04-26T12:45:51Z</time></trkpt><trkpt lat="45.72126287870352" lon="9.89570710343456"><ele>302.0</ele><time>2026-04-26T12:45:52Z</time></trkpt><trkpt lat="45.72124098842541" lon="9.89551260228654"><ele>302.0</ele><time>2026-04-26T12:45:53Z</time></trkpt><trkpt lat="45.72121785348955" lon="9.895324127972454"><ele>302.0</ele><time>2026-04-26T12:45:54Z</time></trkpt><trkpt lat="45.7211936441229" lon="9.89513802894787"><ele>302.0</ele><time>2026-04-26T12:45:55Z</time></trkpt><trkpt lat="45.72117136244843" lon="9.894962001895522"><ele>302.0</ele><time>2026-04-26T12:45:56Z</time></trkpt><trkpt lat="45.72114506552864" lon="9.894790121457575"><ele>301.75</ele><time>2026-04-26T12:45:57Z</time></trkpt><trkpt lat="45.721108940436906" lon="9.894610557128024"><ele>301.5</ele><time>2026-04-26T12:45:58Z</time></trkpt><trkpt lat="45.72106187565636" lon="9.894421158291621"><ele>301.25</ele><time>2026-04-26T12:45:59Z</time></trkpt><trkpt lat="45.720995019648" lon="9.894214711760693"><ele>301.0</ele><time>2026-04-26T12:46:00Z</time></trkpt><trkpt lat="45.72092606485283" lon="9.893992628436855"><ele>301.0</ele><time>2026-04-26T12:46:01Z</time></trkpt><trkpt lat="45.72086445957166" lon="9.893790465631396"><ele>301.0</ele><time>2026-04-26T12:46:02Z</time></trkpt><trkpt lat="45.72079857635211" lon="9.893597798588939"><ele>301.0</ele><time>2026-04-26T12:46:03Z</time></trkpt><trkpt lat="45.72072800861968" lon="9.893383988547011"><ele>301.0</ele><time>2026-04-26T12:46:04Z</time></trkpt><trkpt lat="45.72065613121776" lon="9.893161518023911"><ele>301.0</ele><time>2026-04-26T12:46:05Z</time></trkpt><trkpt lat="45.72059302113194" lon="9.892892970468251"><ele>301.0</ele><time>2026-04-26T12:46:06Z</time></trkpt><trkpt lat="45.720511374537764" lon="9.892645687853499"><ele>302.0</ele><time>2026-04-26T12:46:07Z</time></trkpt><trkpt lat="45.72045288918228" lon="9.892418913880427"><ele>303.0</ele><time>2026-04-26T12:46:08Z</time></trkpt><trkpt lat="45.72039465464326" lon="9.892206633007751"><ele>304.0</ele><time>2026-04-26T12:46:09Z</time></trkpt><trkpt lat="45.72033823507057" lon="9.891997580029923"><ele>304.0</ele><time>2026-04-26T12:46:10Z</time></trkpt><trkpt lat="45.72028260440267" lon="9.891780844075544"><ele>304.0</ele><time>2026-04-26T12:46:11Z</time></trkpt><trkpt lat="45.72022358978156" lon="9.89157484634596"><ele>304.0</ele><time>2026-04-26T12:46:12Z</time></trkpt><trkpt lat="45.7201649044587" lon="9.891377291108792"><ele>302.0</ele><time>2026-04-26T12:46:13Z</time></trkpt><trkpt lat="45.72010465830093" lon="9.891181578004645"><ele>300.0</ele><time>2026-04-26T12:46:14Z</time></trkpt><trkpt lat="45.72003895233824" lon="9.890995172693263"><ele>298.0</ele><time>2026-04-26T12:46:14.999Z</time></trkpt><trkpt lat="45.71996295403112" lon="9.89081998780647"><ele>296.0</ele><time>2026-04-26T12:46:15.999Z</time></trkpt><trkpt lat="45.71987832797269" lon="9.890643232253076"><ele>296.0</ele><time>2026-04-26T12:46:16.999Z</time></trkpt><trkpt lat="45.719767228344054" lon="9.890446546359437"><ele>296.0</ele><time>2026-04-26T12:46:17.999Z</time></trkpt><trkpt lat="45.71965915030149" lon="9.890269320699865"><ele>296.0</ele><time>2026-04-26T12:46:18.999Z</time></trkpt><trkpt lat="45.71955530304333" lon="9.890109640925548"><ele>297.0</ele><time>2026-04-26T12:46:19.999Z</time></trkpt><trkpt lat="45.71944761811141" lon="9.889983176043087"><ele>298.0</ele><time>2026-04-26T12:46:20.999Z</time></trkpt><trkpt lat="45.71935496222454" lon="9.889842606657977"><ele>299.0</ele><time>2026-04-26T12:46:21.999Z</time></trkpt><trkpt lat="45.71928578451298" lon="9.889736736901698"><ele>300.0</ele><time>2026-04-26T12:46:22.999Z</time></trkpt><trkpt lat="45.719227907954256" lon="9.889652837535296"><ele>299.1666666666667</ele><time>2026-04-26T12:46:23.999Z</time></trkpt><trkpt lat="45.71917213038941" lon="9.889578986014849"><ele>298.3333333333333</ele><time>2026-04-26T12:46:24.999Z</time></trkpt><trkpt lat="45.71912015452338" lon="9.88951384663943"><ele>297.5</ele><time>2026-04-26T12:46:25.999Z</time></trkpt><trkpt lat="45.71907365361511" lon="9.88944597183549"><ele>296.66666666666663</ele><time>2026-04-26T12:46:26.999Z</time></trkpt><trkpt lat="45.719029453812475" lon="9.889354292047884"><ele>295.8333333333333</ele><time>2026-04-26T12:46:27.999Z</time></trkpt><trkpt lat="45.718973081436225" lon="9.889247362074439"><ele>295.0</ele><time>2026-04-26T12:46:28.999Z</time></trkpt><trkpt lat="45.718903305670075" lon="9.889142864999721"><ele>295.0</ele><time>2026-04-26T12:46:29.999Z</time></trkpt><trkpt lat="45.71882334458177" lon="9.889041213632554"><ele>295.0</ele><time>2026-04-26T12:46:30.999Z</time></trkpt><trkpt lat="45.71874316941461" lon="9.888926781736222"><ele>295.0</ele><time>2026-04-26T12:46:31.999Z</time></trkpt><trkpt lat="45.7186598377437" lon="9.888798002019266"><ele>295.0</ele><time>2026-04-26T12:46:32.999Z</time></trkpt><trkpt lat="45.71856763314" lon="9.888661870238309"><ele>294.25</ele><time>2026-04-26T12:46:33.999Z</time></trkpt><trkpt lat="45.718480677714446" lon="9.888528468274405"><ele>293.5</ele><time>2026-04-26T12:46:34.999Z</time></trkpt><trkpt lat="45.718399027667296" lon="9.88840191963385"><ele>292.75</ele><time>2026-04-26T12:46:35.999Z</time></trkpt><trkpt lat="45.71831954131117" lon="9.888283828776162"><ele>292.0</ele><time>2026-04-26T12:46:36.999Z</time></trkpt><trkpt lat="45.71823970091405" lon="9.888165767763969"><ele>292.0</ele><time>2026-04-26T12:46:37.999Z</time></trkpt><trkpt lat="45.71815108990574" lon="9.88803960027379"><ele>292.0</ele><time>2026-04-26T12:46:38.999Z</time></trkpt><trkpt lat="45.71805702455996" lon="9.887895316633708"><ele>292.0</ele><time>2026-04-26T12:46:39.999Z</time></trkpt><trkpt lat="45.717963623243065" lon="9.887744522272714"><ele>292.0</ele><time>2026-04-26T12:46:40.999Z</time></trkpt><trkpt lat="45.717864992899756" lon="9.887589407084981"><ele>293.0</ele><time>2026-04-26T12:46:41.999Z</time></trkpt><trkpt lat="45.71776328381947" lon="9.887429564246421"><ele>294.0</ele><time>2026-04-26T12:46:42.999Z</time></trkpt><trkpt lat="45.717662318180835" lon="9.887270337846767"><ele>295.0</ele><time>2026-04-26T12:46:43.999Z</time></trkpt><trkpt lat="45.71756184019508" lon="9.887111054086802"><ele>294.25</ele><time>2026-04-26T12:46:44.999Z</time></trkpt><trkpt lat="45.71746282400839" lon="9.886957144925198"><ele>293.5</ele><time>2026-04-26T12:46:45.999Z</time></trkpt><trkpt lat="45.71736248246018" lon="9.886802310569987"><ele>292.75</ele><time>2026-04-26T12:46:46.999Z</time></trkpt><trkpt lat="45.71726442219845" lon="9.886650721346902"><ele>292.0</ele><time>2026-04-26T12:46:47.999Z</time></trkpt><trkpt lat="45.717169866534526" lon="9.886499723948221"><ele>292.0</ele><time>2026-04-26T12:46:48.999Z</time></trkpt><trkpt lat="45.717077353515094" lon="9.886348623322151"><ele>292.0</ele><time>2026-04-26T12:46:49.999Z</time></trkpt><trkpt lat="45.71699001281543" lon="9.886208468592809"><ele>292.0</ele><time>2026-04-26T12:46:50.999Z</time></trkpt><trkpt lat="45.71690753833454" lon="9.88607584258965"><ele>292.0</ele><time>2026-04-26T12:46:51.999Z</time></trkpt><trkpt lat="45.716829613706075" lon="9.885946754821797"><ele>291.25</ele><time>2026-04-26T12:46:52.999Z</time></trkpt><trkpt lat="45.716752838330265" lon="9.885820916197618"><ele>290.5</ele><time>2026-04-26T12:46:53.999Z</time></trkpt><trkpt lat="45.71667427185561" lon="9.885691020311425"><ele>289.75</ele><time>2026-04-26T12:46:54.999Z</time></trkpt><trkpt lat="45.71659435679707" lon="9.885560462895306"><ele>289.0</ele><time>2026-04-26T12:46:55.999Z</time></trkpt><trkpt lat="45.71651794940512" lon="9.885436117116999"><ele>289.0</ele><time>2026-04-26T12:46:56.999Z</time></trkpt><trkpt lat="45.716448594249705" lon="9.885317637782299"><ele>289.0</ele><time>2026-04-26T12:46:57.999Z</time></trkpt><trkpt lat="45.716399098520604" lon="9.88521711005392"><ele>289.0</ele><time>2026-04-26T12:46:58.999Z</time></trkpt><trkpt lat="45.7163588795196" lon="9.885104600485372"><ele>289.0</ele><time>2026-04-26T12:47:00.999Z</time></trkpt><trkpt lat="45.71639596498032" lon="9.885015587830155"><ele>289.0</ele><time>2026-04-26T12:47:03.999Z</time></trkpt><trkpt lat="45.71646416810268" lon="9.885029472444332"><ele>289.0</ele><time>2026-04-26T12:47:06.999Z</time></trkpt><trkpt lat="45.716508457182776" lon="9.885113116470723"><ele>289.0</ele><time>2026-04-26T12:47:08.999Z</time></trkpt><trkpt lat="45.71654083370107" lon="9.885016894084643"><ele>289.0</ele><time>2026-04-26T12:51:22.999Z</time></trkpt><trkpt lat="45.716517031224726" lon="9.88510296584501"><ele>289.0</ele><time>2026-04-26T13:10:08.999Z</time></trkpt><trkpt lat="45.71646178102788" lon="9.885045301101496"><ele>289.0</ele><time>2026-04-26T13:12:40Z</time></trkpt><trkpt lat="45.716398273190656" lon="9.884964826647336"><ele>289.0</ele><time>2026-04-26T13:12:42Z</time></trkpt><trkpt lat="45.7163314219444" lon="9.884842403945811"><ele>289.0</ele><time>2026-04-26T13:12:44Z</time></trkpt><trkpt lat="45.71628475456213" lon="9.88477896279411"><ele>289.3333333333333</ele><time>2026-04-26T13:12:45Z</time></trkpt><trkpt lat="45.716231868997575" lon="9.884711778673353"><ele>289.66666666666663</ele><time>2026-04-26T13:12:46Z</time></trkpt><trkpt lat="45.71617209971306" lon="9.88464020594582"><ele>290.0</ele><time>2026-04-26T13:12:47Z</time></trkpt><trkpt lat="45.71612103476939" lon="9.884577239056327"><ele>290.3333333333333</ele><time>2026-04-26T13:12:48Z</time></trkpt><trkpt lat="45.71607095934478" lon="9.88451531186588"><ele>290.6666666666667</ele><time>2026-04-26T13:12:49Z</time></trkpt><trkpt lat="45.71598737095575" lon="9.884425852243247"><ele>291.0</ele><time>2026-04-26T13:12:51Z</time></trkpt><trkpt lat="45.71593660641776" lon="9.884367103705863"><ele>290.2</ele><time>2026-04-26T13:12:53Z</time></trkpt><trkpt lat="45.71582718532766" lon="9.884271038016216"><ele>289.40000000000003</ele><time>2026-04-26T13:17:56.999Z</time></trkpt><trkpt lat="45.715771570729736" lon="9.884210962928254"><ele>288.6</ele><time>2026-04-26T13:17:57.999Z</time></trkpt><trkpt lat="45.71571756888709" lon="9.884126725348745"><ele>287.8</ele><time>2026-04-26T13:17:58.999Z</time></trkpt><trkpt lat="45.71564932576165" lon="9.884019666891913"><ele>287.0</ele><time>2026-04-26T13:17:59.999Z</time></trkpt><trkpt lat="45.715570388423814" lon="9.883906868568273"><ele>287.0</ele><time>2026-04-26T13:18:00.999Z</time></trkpt><trkpt lat="45.71548678690387" lon="9.883791894657216"><ele>287.0</ele><time>2026-04-26T13:18:01.999Z</time></trkpt><trkpt lat="45.71543130436539" lon="9.883669943364506"><ele>287.0</ele><time>2026-04-26T13:18:02.999Z</time></trkpt><trkpt lat="45.715360566085245" lon="9.883581083640403"><ele>287.0</ele><time>2026-04-26T13:18:03.999Z</time></trkpt><trkpt lat="45.71529515266669" lon="9.883483755114964"><ele>287.0</ele><time>2026-04-26T13:18:04.999Z</time></trkpt><trkpt lat="45.71523698853659" lon="9.88339255490801"><ele>286.1666666666667</ele><time>2026-04-26T13:18:05.999Z</time></trkpt><trkpt lat="45.71518229258955" lon="9.883300713427362"><ele>285.33333333333337</ele><time>2026-04-26T13:18:06.999Z</time></trkpt><trkpt lat="45.71512530258694" lon="9.883208699082509"><ele>284.5</ele><time>2026-04-26T13:18:07.999Z</time></trkpt><trkpt lat="45.71506748126113" lon="9.883117325654164"><ele>283.6666666666667</ele><time>2026-04-26T13:18:08.999Z</time></trkpt><trkpt lat="45.71502315101331" lon="9.883010426092355"><ele>282.8333333333333</ele><time>2026-04-26T13:18:09.999Z</time></trkpt><trkpt lat="45.71496721051265" lon="9.88291989506893"><ele>282.0</ele><time>2026-04-26T13:18:10.999Z</time></trkpt><trkpt lat="45.714904536072396" lon="9.882844659576733"><ele>282.0</ele><time>2026-04-26T13:18:11.999Z</time></trkpt><trkpt lat="45.71485412306159" lon="9.882758063902637"><ele>282.0</ele><time>2026-04-26T13:18:12.999Z</time></trkpt><trkpt lat="45.71478689702616" lon="9.882658430346327"><ele>282.0</ele><time>2026-04-26T13:18:13.999Z</time></trkpt><trkpt lat="45.714725100160116" lon="9.88252797287468"><ele>282.0</ele><time>2026-04-26T13:18:14.999Z</time></trkpt><trkpt lat="45.71464797081629" lon="9.882403836546976"><ele>282.0</ele><time>2026-04-26T13:18:15.999Z</time></trkpt><trkpt lat="45.71455341549589" lon="9.88228576851158"><ele>281.75</ele><time>2026-04-26T13:18:16.999Z</time></trkpt><trkpt lat="45.71448163874734" lon="9.882172359503246"><ele>281.5</ele><time>2026-04-26T13:18:17.999Z</time></trkpt><trkpt lat="45.714409718638606" lon="9.88206352405403"><ele>281.25</ele><time>2026-04-26T13:18:18.999Z</time></trkpt><trkpt lat="45.714332445596696" lon="9.881938297810287"><ele>281.0</ele><time>2026-04-26T13:18:19.999Z</time></trkpt><trkpt lat="45.714246484486566" lon="9.88179583584101"><ele>281.33333333333337</ele><time>2026-04-26T13:18:20.999Z</time></trkpt><trkpt lat="45.71414833494644" lon="9.881634763193173"><ele>281.6666666666667</ele><time>2026-04-26T13:18:21.999Z</time></trkpt><trkpt lat="45.71405815415562" lon="9.881458517813575"><ele>282.0</ele><time>2026-04-26T13:18:22.999Z</time></trkpt><trkpt lat="45.713946412912485" lon="9.881303498813168"><ele>282.0</ele><time>2026-04-26T13:18:23.999Z</time></trkpt><trkpt lat="45.713854629520675" lon="9.88113392145377"><ele>282.0</ele><time>2026-04-26T13:18:24.999Z</time></trkpt><trkpt lat="45.71376762857605" lon="9.880974872153251"><ele>282.0</ele><time>2026-04-26T13:18:25.999Z</time></trkpt><trkpt lat="45.713675442516866" lon="9.880816298920404"><ele>282.0</ele><time>2026-04-26T13:18:26.999Z</time></trkpt><trkpt lat="45.7135849346739" lon="9.88065384535526"><ele>282.0</ele><time>2026-04-26T13:18:27.999Z</time></trkpt><trkpt lat="45.71349750262777" lon="9.880485160751569"><ele>282.0</ele><time>2026-04-26T13:18:28.999Z</time></trkpt><trkpt lat="45.71340560874134" lon="9.880315163314739"><ele>282.0</ele><time>2026-04-26T13:18:29.999Z</time></trkpt><trkpt lat="45.713311418384244" lon="9.880148574222046"><ele>282.0</ele><time>2026-04-26T13:18:30.999Z</time></trkpt><trkpt lat="45.71321885786814" lon="9.879981320697976"><ele>282.0</ele><time>2026-04-26T13:18:31.999Z</time></trkpt><trkpt lat="45.713127553344435" lon="9.879814709355953"><ele>282.0</ele><time>2026-04-26T13:18:32.999Z</time></trkpt><trkpt lat="45.71303582285098" lon="9.879652094218796"><ele>282.0</ele><time>2026-04-26T13:18:33.999Z</time></trkpt><trkpt lat="45.71295141393152" lon="9.87949301882287"><ele>282.0</ele><time>2026-04-26T13:18:34.999Z</time></trkpt><trkpt lat="45.71286868485854" lon="9.879336005261665"><ele>282.25</ele><time>2026-04-26T13:18:35.999Z</time></trkpt><trkpt lat="45.71278367260674" lon="9.879174033433888"><ele>282.5</ele><time>2026-04-26T13:18:36.999Z</time></trkpt><trkpt lat="45.71269799338365" lon="9.879011162108005"><ele>282.75</ele><time>2026-04-26T13:18:37.999Z</time></trkpt><trkpt lat="45.7126050710582" lon="9.878843228234937"><ele>283.0</ele><time>2026-04-26T13:18:38.999Z</time></trkpt><trkpt lat="45.71250741138067" lon="9.878668778112567"><ele>282.3333333333333</ele><time>2026-04-26T13:18:39.999Z</time></trkpt><trkpt lat="45.712409925099095" lon="9.878489115327474"><ele>281.6666666666667</ele><time>2026-04-26T13:18:40.999Z</time></trkpt><trkpt lat="45.71230146876924" lon="9.87829332960902"><ele>281.0</ele><time>2026-04-26T13:18:41.999Z</time></trkpt><trkpt lat="45.71219133226252" lon="9.87809259341134"><ele>281.0</ele><time>2026-04-26T13:18:42.999Z</time></trkpt><trkpt lat="45.71208476214814" lon="9.87790294970295"><ele>281.0</ele><time>2026-04-26T13:18:43.999Z</time></trkpt><trkpt lat="45.71198567014537" lon="9.877723028680304"><ele>281.0</ele><time>2026-04-26T13:18:44.999Z</time></trkpt><trkpt lat="45.71188917932723" lon="9.877549098589546"><ele>279.0</ele><time>2026-04-26T13:18:45.999Z</time></trkpt><trkpt lat="45.711791590675816" lon="9.877371196442882"><ele>277.0</ele><time>2026-04-26T13:18:46.999Z</time></trkpt><trkpt lat="45.711693555549886" lon="9.877198674157444"><ele>275.0</ele><time>2026-04-26T13:18:47.999Z</time></trkpt><trkpt lat="45.71159524946526" lon="9.877024035731859"><ele>275.0</ele><time>2026-04-26T13:18:48.999Z</time></trkpt><trkpt lat="45.71149717728904" lon="9.876851991515705"><ele>275.0</ele><time>2026-04-26T13:18:49.999Z</time></trkpt><trkpt lat="45.71139538478996" lon="9.876684866989835"><ele>275.0</ele><time>2026-04-26T13:18:50.999Z</time></trkpt><trkpt lat="45.71128849357569" lon="9.876532057852247"><ele>275.0</ele><time>2026-04-26T13:18:51.999Z</time></trkpt><trkpt lat="45.7111761454744" lon="9.8763815061135"><ele>275.0</ele><time>2026-04-26T13:18:52.999Z</time></trkpt><trkpt lat="45.71106453524509" lon="9.876237850782324"><ele>275.0</ele><time>2026-04-26T13:18:53.999Z</time></trkpt><trkpt lat="45.71095485378899" lon="9.8760995438413"><ele>275.0</ele><time>2026-04-26T13:18:54.999Z</time></trkpt><trkpt lat="45.71084444653834" lon="9.875963630924906"><ele>275.0</ele><time>2026-04-26T13:18:55.999Z</time></trkpt><trkpt lat="45.71073432226638" lon="9.875831880678128"><ele>275.0</ele><time>2026-04-26T13:18:56.999Z</time></trkpt><trkpt lat="45.7106280292014" lon="9.875711085076338"><ele>275.0</ele><time>2026-04-26T13:18:58Z</time></trkpt><trkpt lat="45.71052387063631" lon="9.875577235684252"><ele>275.0</ele><time>2026-04-26T13:18:59Z</time></trkpt><trkpt lat="45.71042330242861" lon="9.875443761484016"><ele>275.0</ele><time>2026-04-26T13:19:00Z</time></trkpt><trkpt lat="45.71032789965007" lon="9.875305569183748"><ele>275.0</ele><time>2026-04-26T13:19:01Z</time></trkpt><trkpt lat="45.7102335119401" lon="9.875150015418669"><ele>275.0</ele><time>2026-04-26T13:19:02Z</time></trkpt><trkpt lat="45.71013517119467" lon="9.874985386160596"><ele>275.0</ele><time>2026-04-26T13:19:03Z</time></trkpt><trkpt lat="45.710049409155694" lon="9.874838162065238"><ele>275.0</ele><time>2026-04-26T13:19:04Z</time></trkpt><trkpt lat="45.70997179868382" lon="9.874693568423714"><ele>275.0</ele><time>2026-04-26T13:19:05Z</time></trkpt><trkpt lat="45.709900365279125" lon="9.874556362507318"><ele>275.0</ele><time>2026-04-26T13:19:06Z</time></trkpt><trkpt lat="45.70982216306444" lon="9.874425675418292"><ele>275.0</ele><time>2026-04-26T13:19:07Z</time></trkpt><trkpt lat="45.709757550228964" lon="9.874279927142297"><ele>275.0</ele><time>2026-04-26T13:19:08Z</time></trkpt><trkpt lat="45.709682311060995" lon="9.874145329817937"><ele>275.0</ele><time>2026-04-26T13:19:09Z</time></trkpt><trkpt lat="45.70960795848839" lon="9.874011325498111"><ele>275.0</ele><time>2026-04-26T13:19:10Z</time></trkpt><trkpt lat="45.70953315356626" lon="9.87387575238694"><ele>275.0</ele><time>2026-04-26T13:19:11Z</time></trkpt><trkpt lat="45.70944526924249" lon="9.873753856999878"><ele>275.0</ele><time>2026-04-26T13:19:12Z</time></trkpt><trkpt lat="45.70938491787229" lon="9.873603584773265"><ele>275.0</ele><time>2026-04-26T13:19:13Z</time></trkpt><trkpt lat="45.709315380302414" lon="9.873474913409915"><ele>275.0</ele><time>2026-04-26T13:19:14Z</time></trkpt><trkpt lat="45.70924661945035" lon="9.873347888212002"><ele>275.0</ele><time>2026-04-26T13:19:15Z</time></trkpt><trkpt lat="45.709171010299485" lon="9.873208152589248"><ele>275.0</ele><time>2026-04-26T13:19:16Z</time></trkpt><trkpt lat="45.7090845925818" lon="9.87304902048647"><ele>275.0</ele><time>2026-04-26T13:19:17Z</time></trkpt><trkpt lat="45.708993525913705" lon="9.872888676468152"><ele>275.0</ele><time>2026-04-26T13:19:18Z</time></trkpt><trkpt lat="45.70889073982378" lon="9.872711627150998"><ele>274.6666666666667</ele><time>2026-04-26T13:19:19Z</time></trkpt><trkpt lat="45.70877500555405" lon="9.872517964954744"><ele>274.3333333333333</ele><time>2026-04-26T13:19:20Z</time></trkpt><trkpt lat="45.708641989894915" lon="9.872322139677912"><ele>274.0</ele><time>2026-04-26T13:19:21Z</time></trkpt><trkpt lat="45.708486820503786" lon="9.87212815672445"><ele>274.0</ele><time>2026-04-26T13:19:22Z</time></trkpt><trkpt lat="45.70834307050265" lon="9.87195236658998"><ele>274.0</ele><time>2026-04-26T13:19:23Z</time></trkpt><trkpt lat="45.70821041861777" lon="9.871788745896428"><ele>274.0</ele><time>2026-04-26T13:19:24Z</time></trkpt><trkpt lat="45.708085695798545" lon="9.87163395837997"><ele>274.0</ele><time>2026-04-26T13:19:25Z</time></trkpt><trkpt lat="45.707962842265786" lon="9.871494693703982"><ele>274.0</ele><time>2026-04-26T13:19:26Z</time></trkpt><trkpt lat="45.707863045698154" lon="9.871343509359642"><ele>274.0</ele><time>2026-04-26T13:19:27Z</time></trkpt><trkpt lat="45.70777251706946" lon="9.8711953734298"><ele>274.0</ele><time>2026-04-26T13:19:28Z</time></trkpt><trkpt lat="45.707690346349956" lon="9.87104247791255"><ele>274.0</ele><time>2026-04-26T13:19:29Z</time></trkpt><trkpt lat="45.7076122372975" lon="9.870885156044471"><ele>274.0</ele><time>2026-04-26T13:19:30Z</time></trkpt><trkpt lat="45.7075372003701" lon="9.870725499384829"><ele>274.0</ele><time>2026-04-26T13:19:31Z</time></trkpt><trkpt lat="45.70746430684449" lon="9.870567427259088"><ele>274.0</ele><time>2026-04-26T13:19:32Z</time></trkpt><trkpt lat="45.70740314984016" lon="9.870413893362674"><ele>274.0</ele><time>2026-04-26T13:19:33Z</time></trkpt><trkpt lat="45.70734670208798" lon="9.870254392938289"><ele>274.0</ele><time>2026-04-26T13:19:34Z</time></trkpt><trkpt lat="45.707295128581606" lon="9.870099476924931"><ele>274.0</ele><time>2026-04-26T13:19:35Z</time></trkpt><trkpt lat="45.70724871243129" lon="9.869955422732128"><ele>274.0</ele><time>2026-04-26T13:19:36Z</time></trkpt><trkpt lat="45.70720705902585" lon="9.869816164824329"><ele>273.8</ele><time>2026-04-26T13:19:37Z</time></trkpt><trkpt lat="45.707185417205835" lon="9.869668335079869"><ele>273.59999999999997</ele><time>2026-04-26T13:19:38Z</time></trkpt><trkpt lat="45.70715718716833" lon="9.869532627263123"><ele>273.4</ele><time>2026-04-26T13:19:39Z</time></trkpt><trkpt lat="45.70713211547452" lon="9.869403314352743"><ele>273.2</ele><time>2026-04-26T13:19:40Z</time></trkpt><trkpt lat="45.70709777121468" lon="9.869279745499767"><ele>273.0</ele><time>2026-04-26T13:19:41Z</time></trkpt><trkpt lat="45.707077573317" lon="9.869148661713487"><ele>273.4</ele><time>2026-04-26T13:19:42Z</time></trkpt><trkpt lat="45.70704963766761" lon="9.868999708646836"><ele>273.8</ele><time>2026-04-26T13:19:43Z</time></trkpt><trkpt lat="45.70702034869165" lon="9.868864519804696"><ele>274.2</ele><time>2026-04-26T13:19:44Z</time></trkpt><trkpt lat="45.70700416298846" lon="9.868713734034511"><ele>274.6</ele><time>2026-04-26T13:19:45Z</time></trkpt><trkpt lat="45.706978084557875" lon="9.868571557704465"><ele>275.0</ele><time>2026-04-26T13:19:46Z</time></trkpt><trkpt lat="45.70695373298111" lon="9.868445568659899"><ele>275.2</ele><time>2026-04-26T13:19:47Z</time></trkpt><trkpt lat="45.706930885859165" lon="9.86833110724593"><ele>275.4</ele><time>2026-04-26T13:19:48Z</time></trkpt><trkpt lat="45.706912283409345" lon="9.868237840951345"><ele>275.6</ele><time>2026-04-26T13:19:49Z</time></trkpt><trkpt lat="45.706890038512284" lon="9.868126141659609"><ele>275.8</ele><time>2026-04-26T13:19:51Z</time></trkpt><trkpt lat="45.70687068180089" lon="9.868028944964179"><ele>276.0</ele><time>2026-04-26T13:19:53Z</time></trkpt><trkpt lat="45.706637226781325" lon="9.86802291564727"><ele>274.8</ele><time>2026-04-26T13:19:55Z</time></trkpt><trkpt lat="45.70651995903609" lon="9.868068732899212"><ele>273.6</ele><time>2026-04-26T13:19:57Z</time></trkpt><trkpt lat="45.70645374117082" lon="9.868094821838143"><ele>272.4</ele><time>2026-04-26T13:19:58Z</time></trkpt><trkpt lat="45.706394618189336" lon="9.86814030655912"><ele>271.2</ele><time>2026-04-26T13:19:59Z</time></trkpt><trkpt lat="45.70628255555267" lon="9.86818703532498"><ele>270.0</ele><time>2026-04-26T13:20:00.999Z</time></trkpt><trkpt lat="45.706151772242364" lon="9.868234699173065"><ele>269.6</ele><time>2026-04-26T13:20:02.999Z</time></trkpt><trkpt lat="45.706063048051796" lon="9.86827080528009"><ele>269.2</ele><time>2026-04-26T13:20:03.999Z</time></trkpt><trkpt lat="45.70596809710335" lon="9.8683114158472"><ele>268.8</ele><time>2026-04-26T13:20:04.999Z</time></trkpt><trkpt lat="45.70587448499557" lon="9.86834852939398"><ele>268.4</ele><time>2026-04-26T13:20:05.999Z</time></trkpt><trkpt lat="45.70577610486045" lon="9.868385545334863"><ele>268.0</ele><time>2026-04-26T13:20:06.999Z</time></trkpt><trkpt lat="45.705666452176175" lon="9.868422297898297"><ele>267.8</ele><time>2026-04-26T13:20:07.999Z</time></trkpt><trkpt lat="45.705555907857246" lon="9.868460988430076"><ele>267.6</ele><time>2026-04-26T13:20:08.999Z</time></trkpt><trkpt lat="45.70545339179351" lon="9.868504430635621"><ele>267.4</ele><time>2026-04-26T13:20:09.999Z</time></trkpt><trkpt lat="45.70536302677932" lon="9.868528934950284"><ele>267.2</ele><time>2026-04-26T13:20:10.999Z</time></trkpt><trkpt lat="45.70527367459937" lon="9.86852831959841"><ele>267.0</ele><time>2026-04-26T13:20:11.999Z</time></trkpt><trkpt lat="45.70517511569696" lon="9.868523344088702"><ele>267.8</ele><time>2026-04-26T13:20:12.999Z</time></trkpt><trkpt lat="45.705080682468335" lon="9.868552473812686"><ele>268.6</ele><time>2026-04-26T13:20:13.999Z</time></trkpt><trkpt lat="45.70499936548857" lon="9.868668084974168"><ele>269.40000000000003</ele><time>2026-04-26T13:20:14.999Z</time></trkpt><trkpt lat="45.704896291167934" lon="9.868740442913815"><ele>270.2</ele><time>2026-04-26T13:20:15.999Z</time></trkpt><trkpt lat="45.70480480382318" lon="9.868826781603016"><ele>271.0</ele><time>2026-04-26T13:20:16.999Z</time></trkpt><trkpt lat="45.70475467184606" lon="9.868936243262349"><ele>271.0</ele><time>2026-04-26T13:20:17.999Z</time></trkpt><trkpt lat="45.70472148787044" lon="9.869088791597958"><ele>271.0</ele><time>2026-04-26T13:20:18.999Z</time></trkpt><trkpt lat="45.70472411808527" lon="9.869274576695444"><ele>271.0</ele><time>2026-04-26T13:20:19.999Z</time></trkpt><trkpt lat="45.70474424999206" lon="9.869467731176913"><ele>271.0</ele><time>2026-04-26T13:20:20.999Z</time></trkpt><trkpt lat="45.70476008814072" lon="9.869664410475245"><ele>271.0</ele><time>2026-04-26T13:20:21.999Z</time></trkpt><trkpt lat="45.704777119482294" lon="9.869871021214413"><ele>271.0</ele><time>2026-04-26T13:20:22.999Z</time></trkpt><trkpt lat="45.704789050599295" lon="9.870099479653662"><ele>271.0</ele><time>2026-04-26T13:20:23.999Z</time></trkpt><trkpt lat="45.7047874021236" lon="9.870286711829383"><ele>271.0</ele><time>2026-04-26T13:20:24.999Z</time></trkpt><trkpt lat="45.70475871982873" lon="9.870471067451689"><ele>271.0</ele><time>2026-04-26T13:20:25.999Z</time></trkpt><trkpt lat="45.704719540124664" lon="9.870640986139366"><ele>271.0</ele><time>2026-04-26T13:20:26.999Z</time></trkpt><trkpt lat="45.70466249941622" lon="9.870802560282774"><ele>271.0</ele><time>2026-04-26T13:20:27.999Z</time></trkpt><trkpt lat="45.704590727743174" lon="9.870962885359766"><ele>271.0</ele><time>2026-04-26T13:20:28.999Z</time></trkpt><trkpt lat="45.704529439796595" lon="9.871128966957386"><ele>272.0</ele><time>2026-04-26T13:20:29.999Z</time></trkpt><trkpt lat="45.70447049040485" lon="9.87131304870522"><ele>273.0</ele><time>2026-04-26T13:20:30.999Z</time></trkpt><trkpt lat="45.7044119324435" lon="9.871493682770815"><ele>274.0</ele><time>2026-04-26T13:20:31.999Z</time></trkpt><trkpt lat="45.704348342189604" lon="9.871672281236389"><ele>275.0</ele><time>2026-04-26T13:20:32.999Z</time></trkpt><trkpt lat="45.70427593372889" lon="9.871872238658376"><ele>279.5</ele><time>2026-04-26T13:20:33.999Z</time></trkpt><trkpt lat="45.704203372637096" lon="9.872066438943932"><ele>284.0</ele><time>2026-04-26T13:20:34.999Z</time></trkpt><trkpt lat="45.70414053645332" lon="9.872253454503388"><ele>288.5</ele><time>2026-04-26T13:20:35.999Z</time></trkpt><trkpt lat="45.70408657299528" lon="9.872420265850526"><ele>293.0</ele><time>2026-04-26T13:20:36.999Z</time></trkpt><trkpt lat="45.70404244519459" lon="9.87258104021558"><ele>293.5</ele><time>2026-04-26T13:20:37.999Z</time></trkpt><trkpt lat="45.7040231417421" lon="9.872756094494134"><ele>294.0</ele><time>2026-04-26T13:20:38.999Z</time></trkpt><trkpt lat="45.704053991986896" lon="9.87294320222689"><ele>294.5</ele><time>2026-04-26T13:20:39.999Z</time></trkpt><trkpt lat="45.70414078074859" lon="9.87311568915702"><ele>295.0</ele><time>2026-04-26T13:20:40.999Z</time></trkpt><trkpt lat="45.704211756833814" lon="9.873282894512688"><ele>295.66666666666663</ele><time>2026-04-26T13:20:41.999Z</time></trkpt><trkpt lat="45.70429157794635" lon="9.873486613721159"><ele>296.3333333333333</ele><time>2026-04-26T13:20:42.999Z</time></trkpt><trkpt lat="45.70435544017876" lon="9.873724775605051"><ele>297.0</ele><time>2026-04-26T13:20:43.999Z</time></trkpt><trkpt lat="45.70442159252631" lon="9.873932379508902"><ele>297.75</ele><time>2026-04-26T13:20:44.999Z</time></trkpt><trkpt lat="45.70447567174744" lon="9.87411229586691"><ele>298.5</ele><time>2026-04-26T13:20:45.999Z</time></trkpt><trkpt lat="45.70453003012259" lon="9.874271442165227"><ele>299.25</ele><time>2026-04-26T13:20:46.999Z</time></trkpt><trkpt lat="45.7045795982023" lon="9.874423124912001"><ele>300.0</ele><time>2026-04-26T13:20:47.999Z</time></trkpt><trkpt lat="45.704602003853225" lon="9.874571853083216"><ele>300.1666666666667</ele><time>2026-04-26T13:20:48.999Z</time></trkpt><trkpt lat="45.70458334534496" lon="9.874675972225363"><ele>300.3333333333333</ele><time>2026-04-26T13:20:49.999Z</time></trkpt><trkpt lat="45.704497706378945" lon="9.87471072081028"><ele>300.5</ele><time>2026-04-26T13:20:50.999Z</time></trkpt><trkpt lat="45.704433732087544" lon="9.874802078218632"><ele>300.66666666666663</ele><time>2026-04-26T13:20:51.999Z</time></trkpt><trkpt lat="45.704348416895094" lon="9.874885801880083"><ele>300.8333333333333</ele><time>2026-04-26T13:20:52.999Z</time></trkpt><trkpt lat="45.704298208372826" lon="9.874993079329991"><ele>301.0</ele><time>2026-04-26T13:20:53.999Z</time></trkpt><trkpt lat="45.704275921680164" lon="9.875101126321292"><ele>302.16666666666663</ele><time>2026-04-26T13:20:54.999Z</time></trkpt><trkpt lat="45.704245342340236" lon="9.875199576137332"><ele>303.3333333333333</ele><time>2026-04-26T13:20:55.999Z</time></trkpt><trkpt lat="45.70418692662413" lon="9.875245058734158"><ele>304.5</ele><time>2026-04-26T13:20:56.999Z</time></trkpt><trkpt lat="45.70411169749705" lon="9.875247587760935"><ele>305.6666666666667</ele><time>2026-04-26T13:20:57.999Z</time></trkpt><trkpt lat="45.70401698896295" lon="9.875221044634992"><ele>306.83333333333337</ele><time>2026-04-26T13:20:58.999Z</time></trkpt><trkpt lat="45.70391133427696" lon="9.875193470362388"><ele>308.0</ele><time>2026-04-26T13:20:59.999Z</time></trkpt><trkpt lat="45.70380895711952" lon="9.875178379629878"><ele>308.0</ele><time>2026-04-26T13:21:00.999Z</time></trkpt><trkpt lat="45.70371863410696" lon="9.875181850819134"><ele>308.0</ele><time>2026-04-26T13:21:01.999Z</time></trkpt><trkpt lat="45.70362687182505" lon="9.875222532957709"><ele>308.0</ele><time>2026-04-26T13:21:02.999Z</time></trkpt><trkpt lat="45.7035254105263" lon="9.875295683442394"><ele>308.0</ele><time>2026-04-26T13:21:04Z</time></trkpt><trkpt lat="45.703439218407404" lon="9.875408807059465"><ele>308.0</ele><time>2026-04-26T13:21:05Z</time></trkpt><trkpt lat="45.70336929186169" lon="9.875548313939444"><ele>308.8</ele><time>2026-04-26T13:21:06Z</time></trkpt><trkpt lat="45.70329101839281" lon="9.87567778348214"><ele>309.6</ele><time>2026-04-26T13:21:07Z</time></trkpt><trkpt lat="45.703231096041876" lon="9.875800813121618"><ele>310.4</ele><time>2026-04-26T13:21:08Z</time></trkpt><trkpt lat="45.70317360175088" lon="9.875882503511928"><ele>311.2</ele><time>2026-04-26T13:21:09Z</time></trkpt><trkpt lat="45.703138991402646" lon="9.875964902689972"><ele>312.0</ele><time>2026-04-26T13:21:10Z</time></trkpt><trkpt lat="45.70309709033004" lon="9.876081800666757"><ele>312.0</ele><time>2026-04-26T13:21:12Z</time></trkpt><trkpt lat="45.7029206417" lon="9.875967385158464"><ele>312.0</ele><time>2026-04-26T13:21:15Z</time></trkpt><trkpt lat="45.70289955698744" lon="9.875782033932083"><ele>312.0</ele><time>2026-04-26T13:21:17Z</time></trkpt><trkpt lat="45.70287537925745" lon="9.875696641704167"><ele>312.0</ele><time>2026-04-26T13:21:20Z</time></trkpt><trkpt lat="45.702819481187014" lon="9.875797309205026"><ele>310.6666666666667</ele><time>2026-04-26T13:21:23Z</time></trkpt><trkpt lat="45.70274824968747" lon="9.875839575612826"><ele>309.3333333333333</ele><time>2026-04-26T13:21:25Z</time></trkpt><trkpt lat="45.702677427547194" lon="9.87581589707843"><ele>308.0</ele><time>2026-04-26T13:21:27Z</time></trkpt><trkpt lat="45.70260394918206" lon="9.875686656481154"><ele>306.66666666666663</ele><time>2026-04-26T13:21:29Z</time></trkpt><trkpt lat="45.702576678381845" lon="9.875598481711107"><ele>305.3333333333333</ele><time>2026-04-26T13:21:30Z</time></trkpt><trkpt lat="45.70251695175323" lon="9.875471960901926"><ele>304.0</ele><time>2026-04-26T13:21:32Z</time></trkpt><trkpt lat="45.70245593377647" lon="9.875419842729285"><ele>304.0</ele><time>2026-04-26T13:21:33Z</time></trkpt><trkpt lat="45.702394993937546" lon="9.875374021435258"><ele>304.0</ele><time>2026-04-26T13:21:34Z</time></trkpt><trkpt lat="45.70232724218347" lon="9.87531075993294"><ele>304.0</ele><time>2026-04-26T13:21:36Z</time></trkpt><trkpt lat="45.702285318624114" lon="9.875226534373445"><ele>304.0</ele><time>2026-04-26T13:21:39Z</time></trkpt><trkpt lat="45.70232325727006" lon="9.87510571802075"><ele>304.0</ele><time>2026-04-26T13:21:41Z</time></trkpt><trkpt lat="45.70229411869266" lon="9.875021929908627"><ele>304.0</ele><time>2026-04-26T13:21:43Z</time></trkpt><trkpt lat="45.70223904198498" lon="9.874961298392948"><ele>304.0</ele><time>2026-04-26T13:21:44Z</time></trkpt><trkpt lat="45.70217512313545" lon="9.874900869565293"><ele>303.85714285714283</ele><time>2026-04-26T13:21:45Z</time></trkpt><trkpt lat="45.70212283951231" lon="9.874844244051728"><ele>303.7142857142857</ele><time>2026-04-26T13:21:46Z</time></trkpt><trkpt lat="45.70204893843252" lon="9.874749387462609"><ele>303.57142857142856</ele><time>2026-04-26T13:21:48Z</time></trkpt><trkpt lat="45.70205886847381" lon="9.874653636282499"><ele>303.42857142857144</ele><time>2026-04-26T13:21:50Z</time></trkpt><trkpt lat="45.70210460826648" lon="9.87458588162088"><ele>303.2857142857143</ele><time>2026-04-26T13:21:52Z</time></trkpt><trkpt lat="45.70215337413392" lon="9.874520487487164"><ele>303.14285714285717</ele><time>2026-04-26T13:21:53.999Z</time></trkpt><trkpt lat="45.70220248251244" lon="9.874424870911685"><ele>303.0</ele><time>2026-04-26T13:21:55.999Z</time></trkpt><trkpt lat="45.702262928961524" lon="9.874298387208006"><ele>303.5</ele><time>2026-04-26T13:21:57.999Z</time></trkpt><trkpt lat="45.70231588361088" lon="9.874217836759938"><ele>304.0</ele><time>2026-04-26T13:21:59.999Z</time></trkpt><trkpt lat="45.702377626677546" lon="9.874078397233472"><ele>304.5</ele><time>2026-04-26T13:22:02.999Z</time></trkpt><trkpt lat="45.702445572868996" lon="9.874011585117072"><ele>305.0</ele><time>2026-04-26T13:22:04.999Z</time></trkpt><trkpt lat="45.70249356973321" lon="9.873901967552255"><ele>305.5</ele><time>2026-04-26T13:22:06.999Z</time></trkpt><trkpt lat="45.70253872441202" lon="9.873830556162291"><ele>306.0</ele><time>2026-04-26T13:22:08.999Z</time></trkpt><trkpt lat="45.70255038838608" lon="9.873703927198164"><ele>306.0</ele><time>2026-04-26T13:22:11.999Z</time></trkpt><trkpt lat="45.70258624123105" lon="9.873559375217996"><ele>306.0</ele><time>2026-04-26T13:22:13.999Z</time></trkpt><trkpt lat="45.70263414564851" lon="9.873419941578012"><ele>306.0</ele><time>2026-04-26T13:22:15.999Z</time></trkpt><trkpt lat="45.70268074804642" lon="9.873245110594711"><ele>306.0</ele><time>2026-04-26T13:22:17.999Z</time></trkpt><trkpt lat="45.702751045498296" lon="9.873155377785462"><ele>306.0</ele><time>2026-04-26T13:22:19.999Z</time></trkpt><trkpt lat="45.70282228070786" lon="9.873083002477081"><ele>304.1666666666667</ele><time>2026-04-26T13:22:21.999Z</time></trkpt><trkpt lat="45.70282989968715" lon="9.872984175883138"><ele>302.3333333333333</ele><time>2026-04-26T13:22:22.999Z</time></trkpt><trkpt lat="45.70283492122646" lon="9.87288473364506"><ele>300.5</ele><time>2026-04-26T13:22:23.999Z</time></trkpt><trkpt lat="45.70285885287576" lon="9.872740377742668"><ele>298.66666666666663</ele><time>2026-04-26T13:22:25.999Z</time></trkpt><trkpt lat="45.702880250759485" lon="9.872649354425935"><ele>296.8333333333333</ele><time>2026-04-26T13:22:28.999Z</time></trkpt><trkpt lat="45.702884794765865" lon="9.872521053465904"><ele>295.0</ele><time>2026-04-26T13:22:30.999Z</time></trkpt><trkpt lat="45.70291508020372" lon="9.872384812056376"><ele>294.8333333333333</ele><time>2026-04-26T13:22:35.999Z</time></trkpt><trkpt lat="45.70291737492724" lon="9.872271059514711"><ele>294.66666666666663</ele><time>2026-04-26T13:22:38.999Z</time></trkpt><trkpt lat="45.70291838242526" lon="9.872149872008295"><ele>294.5</ele><time>2026-04-26T13:22:40.999Z</time></trkpt><trkpt lat="45.702939449508726" lon="9.872054572720367"><ele>294.3333333333333</ele><time>2026-04-26T13:22:42.999Z</time></trkpt><trkpt lat="45.70295618695514" lon="9.871933276098824"><ele>294.1666666666667</ele><time>2026-04-26T13:22:43.999Z</time></trkpt><trkpt lat="45.702985621965716" lon="9.871808968560252"><ele>294.0</ele><time>2026-04-26T13:22:45.999Z</time></trkpt><trkpt lat="45.70292579116024" lon="9.87175969940693"><ele>294.0</ele><time>2026-04-26T13:22:48.999Z</time></trkpt><trkpt lat="45.70286556771646" lon="9.87186429735511"><ele>294.0</ele><time>2026-04-26T13:22:52.999Z</time></trkpt><trkpt lat="45.70270797249932" lon="9.872006346460442"><ele>294.0</ele><time>2026-04-26T13:22:53.999Z</time></trkpt><trkpt lat="45.702590183114594" lon="9.872121495656172"><ele>294.0</ele><time>2026-04-26T13:22:55.999Z</time></trkpt><trkpt lat="45.702494922409954" lon="9.872198515737084"><ele>299.3333333333333</ele><time>2026-04-26T13:22:56.999Z</time></trkpt><trkpt lat="45.70242817652549" lon="9.872281160197684"><ele>304.6666666666667</ele><time>2026-04-26T13:22:58.999Z</time></trkpt><trkpt lat="45.702349927000796" lon="9.872309080566948"><ele>310.0</ele><time>2026-04-26T13:22:59.999Z</time></trkpt><trkpt lat="45.70229526561359" lon="9.872361231087977"><ele>315.33333333333337</ele><time>2026-04-26T13:23:00.999Z</time></trkpt><trkpt lat="45.70218111592107" lon="9.872409803280926"><ele>320.6666666666667</ele><time>2026-04-26T13:23:02.999Z</time></trkpt><trkpt lat="45.70211870573458" lon="9.872466802251957"><ele>326.0</ele><time>2026-04-26T13:23:03.999Z</time></trkpt><trkpt lat="45.70203128790601" lon="9.872479689081718"><ele>326.0</ele><time>2026-04-26T13:23:05.999Z</time></trkpt><trkpt lat="45.70204821438379" lon="9.87235977293505"><ele>326.0</ele><time>2026-04-26T13:23:06.999Z</time></trkpt><trkpt lat="45.70203720872462" lon="9.872216019081991"><ele>326.0</ele><time>2026-04-26T13:23:08.999Z</time></trkpt><trkpt lat="45.70206325623642" lon="9.872115128897088"><ele>326.0</ele><time>2026-04-26T13:23:11Z</time></trkpt><trkpt lat="45.702044460512745" lon="9.872001295425523"><ele>326.0</ele><time>2026-04-26T13:23:14Z</time></trkpt><trkpt lat="45.70203407608847" lon="9.871613845145408"><ele>328.6</ele><time>2026-04-26T13:23:17Z</time></trkpt><trkpt lat="45.70194136647648" lon="9.871636286370052"><ele>331.20000000000005</ele><time>2026-04-26T13:23:21Z</time></trkpt><trkpt lat="45.70183047154413" lon="9.871764868355696"><ele>333.79999999999995</ele><time>2026-04-26T13:23:23Z</time></trkpt><trkpt lat="45.70178572304433" lon="9.871832956455622"><ele>336.4</ele><time>2026-04-26T13:23:24Z</time></trkpt><trkpt lat="45.70172835445484" lon="9.87193256578167"><ele>339.0</ele><time>2026-04-26T13:23:25Z</time></trkpt><trkpt lat="45.70167774974661" lon="9.872041771916384"><ele>344.75</ele><time>2026-04-26T13:23:26Z</time></trkpt><trkpt lat="45.70154697898155" lon="9.872201379204991"><ele>350.5</ele><time>2026-04-26T13:23:27Z</time></trkpt><trkpt lat="45.70145601035944" lon="9.872304902504535"><ele>356.25</ele><time>2026-04-26T13:23:28Z</time></trkpt><trkpt lat="45.701372463091275" lon="9.872415566389147"><ele>362.0</ele><time>2026-04-26T13:23:29Z</time></trkpt><trkpt lat="45.70129484241954" lon="9.872485612814963"><ele>362.0</ele><time>2026-04-26T13:23:30Z</time></trkpt><trkpt lat="45.701238155156005" lon="9.872547676818925"><ele>362.0</ele><time>2026-04-26T13:23:31Z</time></trkpt><trkpt lat="45.70116505871134" lon="9.872635074432026"><ele>362.0</ele><time>2026-04-26T13:23:33Z</time></trkpt><trkpt lat="45.70112027565899" lon="9.872708920163467"><ele>362.0</ele><time>2026-04-26T13:23:34Z</time></trkpt><trkpt lat="45.701040276004335" lon="9.872776875268295"><ele>362.0</ele><time>2026-04-26T13:23:36Z</time></trkpt><trkpt lat="45.700915061614936" lon="9.872795863679954"><ele>363.6666666666667</ele><time>2026-04-26T13:23:38Z</time></trkpt><trkpt lat="45.700858274168965" lon="9.872874766001948"><ele>365.33333333333337</ele><time>2026-04-26T13:23:39Z</time></trkpt><trkpt lat="45.700810566573104" lon="9.872936894038704"><ele>367.0</ele><time>2026-04-26T13:23:40Z</time></trkpt><trkpt lat="45.70071988526091" lon="9.873015946233899"><ele>368.6666666666667</ele><time>2026-04-26T13:23:42Z</time></trkpt><trkpt lat="45.70064723125749" lon="9.873028827702832"><ele>370.3333333333333</ele><time>2026-04-26T13:23:43Z</time></trkpt><trkpt lat="45.70056282761652" lon="9.873064746591377"><ele>372.0</ele><time>2026-04-26T13:23:44Z</time></trkpt><trkpt lat="45.70049401279459" lon="9.87306902081418"><ele>372.0</ele><time>2026-04-26T13:23:45Z</time></trkpt><trkpt lat="45.700402735299754" lon="9.873097458972014"><ele>372.0</ele><time>2026-04-26T13:23:46Z</time></trkpt><trkpt lat="45.70032933229007" lon="9.873129804242573"><ele>372.0</ele><time>2026-04-26T13:23:47Z</time></trkpt><trkpt lat="45.700256778173056" lon="9.873179336989988"><ele>372.0</ele><time>2026-04-26T13:23:48Z</time></trkpt><trkpt lat="45.700158857193415" lon="9.873248029036526"><ele>372.0</ele><time>2026-04-26T13:23:49Z</time></trkpt><trkpt lat="45.70007445946206" lon="9.873335280924557"><ele>374.0</ele><time>2026-04-26T13:23:50Z</time></trkpt><trkpt lat="45.69999542355781" lon="9.873397902668348"><ele>376.0</ele><time>2026-04-26T13:23:51Z</time></trkpt><trkpt lat="45.69991179270525" lon="9.873452496959322"><ele>378.0</ele><time>2026-04-26T13:23:52Z</time></trkpt><trkpt lat="45.69984632598448" lon="9.87351818320801"><ele>380.0</ele><time>2026-04-26T13:23:53Z</time></trkpt><trkpt lat="45.699783768498726" lon="9.873571790649708"><ele>382.0</ele><time>2026-04-26T13:23:54Z</time></trkpt><trkpt lat="45.69969542936075" lon="9.873604076201294"><ele>384.0</ele><time>2026-04-26T13:23:55Z</time></trkpt><trkpt lat="45.69963517680998" lon="9.873634502853804"><ele>384.0</ele><time>2026-04-26T13:23:56Z</time></trkpt><trkpt lat="45.6995686257997" lon="9.873552063603887"><ele>384.0</ele><time>2026-04-26T13:24:00Z</time></trkpt><trkpt lat="45.69960478909112" lon="9.873388456974462"><ele>384.0</ele><time>2026-04-26T13:24:02Z</time></trkpt><trkpt lat="45.699643854170425" lon="9.873267264117986"><ele>384.0</ele><time>2026-04-26T13:24:03Z</time></trkpt><trkpt lat="45.6996852470273" lon="9.873173555376098"><ele>384.0</ele><time>2026-04-26T13:24:04Z</time></trkpt><trkpt lat="45.69972959030562" lon="9.873089271459019"><ele>386.1666666666667</ele><time>2026-04-26T13:24:04.999Z</time></trkpt><trkpt lat="45.699743956233895" lon="9.87298345774862"><ele>388.33333333333337</ele><time>2026-04-26T13:24:05.999Z</time></trkpt><trkpt lat="45.69974462695563" lon="9.872866437951117"><ele>390.5</ele><time>2026-04-26T13:24:06.999Z</time></trkpt><trkpt lat="45.69974288574725" lon="9.872737031444508"><ele>392.6666666666667</ele><time>2026-04-26T13:24:07.999Z</time></trkpt><trkpt lat="45.699727265635346" lon="9.872633843875358"><ele>394.83333333333337</ele><time>2026-04-26T13:24:08.999Z</time></trkpt><trkpt lat="45.699708974748845" lon="9.872515553226833"><ele>397.0</ele><time>2026-04-26T13:24:09.999Z</time></trkpt><trkpt lat="45.69967890947426" lon="9.872369578936787"><ele>399.20000000000005</ele><time>2026-04-26T13:24:11.999Z</time></trkpt><trkpt lat="45.69960489994213" lon="9.87223558146819"><ele>401.4</ele><time>2026-04-26T13:24:13.999Z</time></trkpt><trkpt lat="45.69954093582375" lon="9.872195413299318"><ele>403.6</ele><time>2026-04-26T13:24:15.999Z</time></trkpt><trkpt lat="45.699489163471966" lon="9.872108978181625"><ele>405.79999999999995</ele><time>2026-04-26T13:24:18.999Z</time></trkpt><trkpt lat="45.69940051304194" lon="9.8721136564823"><ele>408.0</ele><time>2026-04-26T13:24:21.999Z</time></trkpt><trkpt lat="45.69919289365141" lon="9.872150291769955"><ele>411.0</ele><time>2026-04-26T13:24:23.999Z</time></trkpt><trkpt lat="45.69901727723594" lon="9.872194400543544"><ele>414.0</ele><time>2026-04-26T13:24:24.999Z</time></trkpt><trkpt lat="45.6989056780181" lon="9.872127828130568"><ele>417.0</ele><time>2026-04-26T13:24:25.999Z</time></trkpt><trkpt lat="45.69878487123032" lon="9.872146732852526"><ele>420.0</ele><time>2026-04-26T13:24:26.999Z</time></trkpt><trkpt lat="45.69865177669652" lon="9.872135993350916"><ele>422.5</ele><time>2026-04-26T13:24:27.999Z</time></trkpt><trkpt lat="45.698580786858756" lon="9.872171697179033"><ele>425.0</ele><time>2026-04-26T13:24:28.999Z</time></trkpt><trkpt lat="45.69849891272799" lon="9.872220590600048"><ele>427.5</ele><time>2026-04-26T13:24:29.999Z</time></trkpt><trkpt lat="45.6984320998935" lon="9.872321001027107"><ele>430.0</ele><time>2026-04-26T13:24:31.999Z</time></trkpt><trkpt lat="45.69835038377223" lon="9.872419093426341"><ele>432.5</ele><time>2026-04-26T13:24:47.999Z</time></trkpt><trkpt lat="45.69830386372632" lon="9.872500823538024"><ele>435.0</ele><time>2026-04-26T13:24:49.999Z</time></trkpt><trkpt lat="45.69823620743611" lon="9.872589674475387"><ele>435.4</ele><time>2026-04-26T13:24:56.999Z</time></trkpt><trkpt lat="45.698156113957474" lon="9.872718007565519"><ele>435.8</ele><time>2026-04-26T13:24:58.999Z</time></trkpt><trkpt lat="45.69810715296062" lon="9.872802895366535"><ele>436.20000000000005</ele><time>2026-04-26T13:24:59.999Z</time></trkpt><trkpt lat="45.69804825901293" lon="9.872888716377368"><ele>436.6</ele><time>2026-04-26T13:25:00.999Z</time></trkpt><trkpt lat="45.69798005761875" lon="9.87299362327391"><ele>437.0</ele><time>2026-04-26T13:25:01.999Z</time></trkpt><trkpt lat="45.69790384905759" lon="9.87311343889023"><ele>437.0</ele><time>2026-04-26T13:25:02.999Z</time></trkpt><trkpt lat="45.697805768470815" lon="9.873259990503684"><ele>437.0</ele><time>2026-04-26T13:25:03.999Z</time></trkpt><trkpt lat="45.697686124039656" lon="9.873423013140888"><ele>437.0</ele><time>2026-04-26T13:25:04.999Z</time></trkpt><trkpt lat="45.69757677470195" lon="9.873569731663126"><ele>438.75</ele><time>2026-04-26T13:25:05.999Z</time></trkpt><trkpt lat="45.697475995722655" lon="9.873682569527563"><ele>440.5</ele><time>2026-04-26T13:25:06.999Z</time></trkpt><trkpt lat="45.69737070868135" lon="9.873794182854187"><ele>442.25</ele><time>2026-04-26T13:25:07.999Z</time></trkpt><trkpt lat="45.697258434715756" lon="9.87391518992008"><ele>444.0</ele><time>2026-04-26T13:25:08.999Z</time></trkpt><trkpt lat="45.69714569349106" lon="9.874013570286511"><ele>444.0</ele><time>2026-04-26T13:25:09.999Z</time></trkpt><trkpt lat="45.69703392854609" lon="9.874112103949516"><ele>444.0</ele><time>2026-04-26T13:25:10.999Z</time></trkpt><trkpt lat="45.696920805826785" lon="9.87422734250477"><ele>444.0</ele><time>2026-04-26T13:25:11.999Z</time></trkpt><trkpt lat="45.696801470133494" lon="9.874342452420947"><ele>444.0</ele><time>2026-04-26T13:25:12.999Z</time></trkpt><trkpt lat="45.69667926515979" lon="9.874441572841443"><ele>447.5</ele><time>2026-04-26T13:25:13.999Z</time></trkpt><trkpt lat="45.69656103163262" lon="9.874521348023785"><ele>451.0</ele><time>2026-04-26T13:25:14.999Z</time></trkpt><trkpt lat="45.69645493010151" lon="9.874577240537443"><ele>454.5</ele><time>2026-04-26T13:25:16Z</time></trkpt><trkpt lat="45.69635044311896" lon="9.874637804752604"><ele>458.0</ele><time>2026-04-26T13:25:17Z</time></trkpt><trkpt lat="45.696257606221025" lon="9.874696367020954"><ele>458.0</ele><time>2026-04-26T13:25:18Z</time></trkpt><trkpt lat="45.69618209772949" lon="9.874743191925619"><ele>457.99999999999994</ele><time>2026-04-26T13:25:19Z</time></trkpt><trkpt lat="45.696092573819364" lon="9.87477510849449"><ele>457.99999999999994</ele><time>2026-04-26T13:25:20Z</time></trkpt><trkpt lat="45.69598658264731" lon="9.874777790987105"><ele>458.0</ele><time>2026-04-26T13:25:21Z</time></trkpt><trkpt lat="45.69588663550126" lon="9.874733120969058"><ele>458.0</ele><time>2026-04-26T13:25:22Z</time></trkpt><trkpt lat="45.695811590860814" lon="9.874624540545174"><ele>462.0</ele><time>2026-04-26T13:25:23Z</time></trkpt><trkpt lat="45.695742077424406" lon="9.874513521051647"><ele>466.0</ele><time>2026-04-26T13:25:24Z</time></trkpt><trkpt lat="45.69571979986539" lon="9.874357158512781"><ele>470.0</ele><time>2026-04-26T13:25:25Z</time></trkpt><trkpt lat="45.695676602262765" lon="9.874167833464778"><ele>474.0</ele><time>2026-04-26T13:25:26Z</time></trkpt><trkpt lat="45.6956345381912" lon="9.873964387158583"><ele>474.0</ele><time>2026-04-26T13:25:27Z</time></trkpt><trkpt lat="45.695592461317105" lon="9.873760120710223"><ele>474.0</ele><time>2026-04-26T13:25:28Z</time></trkpt><trkpt lat="45.695556500585646" lon="9.87358554568804"><ele>474.0</ele><time>2026-04-26T13:25:29Z</time></trkpt><trkpt lat="45.69552192263072" lon="9.873427291220457"><ele>474.0</ele><time>2026-04-26T13:25:30Z</time></trkpt><trkpt lat="45.69547194893477" lon="9.873290925218392"><ele>474.0</ele><time>2026-04-26T13:25:31Z</time></trkpt><trkpt lat="45.695408593270336" lon="9.873196137276885"><ele>474.0</ele><time>2026-04-26T13:25:32Z</time></trkpt><trkpt lat="45.69532862786871" lon="9.873156633350828"><ele>474.0</ele><time>2026-04-26T13:25:33Z</time></trkpt><trkpt lat="45.69522005138841" lon="9.873217500908513"><ele>474.0</ele><time>2026-04-26T13:25:34Z</time></trkpt><trkpt lat="45.69510998221877" lon="9.873284751222048"><ele>474.0</ele><time>2026-04-26T13:25:35Z</time></trkpt><trkpt lat="45.69499054553298" lon="9.873354666129208"><ele>476.5</ele><time>2026-04-26T13:25:36Z</time></trkpt><trkpt lat="45.69485967574778" lon="9.873422541588683"><ele>479.0</ele><time>2026-04-26T13:25:37Z</time></trkpt><trkpt lat="45.69472399779741" lon="9.873484584771372"><ele>481.5</ele><time>2026-04-26T13:25:38Z</time></trkpt><trkpt lat="45.69458341427288" lon="9.87355883138752"><ele>484.0</ele><time>2026-04-26T13:25:39Z</time></trkpt><trkpt lat="45.694449417017566" lon="9.87365964301775"><ele>490.5</ele><time>2026-04-26T13:25:40Z</time></trkpt><trkpt lat="45.69433962130069" lon="9.873780262497592"><ele>497.0</ele><time>2026-04-26T13:25:41Z</time></trkpt><trkpt lat="45.69425612230049" lon="9.873926507567603"><ele>503.5</ele><time>2026-04-26T13:25:42Z</time></trkpt><trkpt lat="45.694197695339874" lon="9.874091339421108"><ele>510.0</ele><time>2026-04-26T13:25:43Z</time></trkpt><trkpt lat="45.69416031236188" lon="9.874256515066106"><ele>510.0</ele><time>2026-04-26T13:25:44Z</time></trkpt><trkpt lat="45.69413375102486" lon="9.874410481393816"><ele>510.0</ele><time>2026-04-26T13:25:45Z</time></trkpt><trkpt lat="45.6941119152893" lon="9.874604149840406"><ele>510.0</ele><time>2026-04-26T13:25:46Z</time></trkpt><trkpt lat="45.69406325020745" lon="9.874761230657668"><ele>510.0</ele><time>2026-04-26T13:25:47Z</time></trkpt><trkpt lat="45.69398158729578" lon="9.874911064252101"><ele>510.0</ele><time>2026-04-26T13:25:48Z</time></trkpt><trkpt lat="45.69389367173105" lon="9.875066092989654"><ele>510.0</ele><time>2026-04-26T13:25:49Z</time></trkpt><trkpt lat="45.6937966270731" lon="9.875187015009708"><ele>510.0</ele><time>2026-04-26T13:25:50Z</time></trkpt><trkpt lat="45.69369796487647" lon="9.875291338264626"><ele>510.0</ele><time>2026-04-26T13:25:51Z</time></trkpt><trkpt lat="45.69357425544885" lon="9.875393960166893"><ele>512.5</ele><time>2026-04-26T13:25:52Z</time></trkpt><trkpt lat="45.69347071437043" lon="9.875512513722759"><ele>515.0</ele><time>2026-04-26T13:25:53Z</time></trkpt><trkpt lat="45.69335688918095" lon="9.875636365035467"><ele>517.5</ele><time>2026-04-26T13:25:54Z</time></trkpt><trkpt lat="45.69324877583087" lon="9.875790012250256"><ele>520.0</ele><time>2026-04-26T13:25:55Z</time></trkpt><trkpt lat="45.69314727989005" lon="9.875973044190145"><ele>520.75</ele><time>2026-04-26T13:25:56Z</time></trkpt><trkpt lat="45.69306159755191" lon="9.87616352979606"><ele>521.5</ele><time>2026-04-26T13:25:57Z</time></trkpt><trkpt lat="45.6929788092559" lon="9.87634172995895"><ele>522.25</ele><time>2026-04-26T13:25:58Z</time></trkpt><trkpt lat="45.69291044939863" lon="9.87650334104201"><ele>523.0</ele><time>2026-04-26T13:25:59Z</time></trkpt><trkpt lat="45.69284664937407" lon="9.876670134292935"><ele>522.75</ele><time>2026-04-26T13:26:00Z</time></trkpt><trkpt lat="45.69278682550775" lon="9.876853034024638"><ele>522.5</ele><time>2026-04-26T13:26:01Z</time></trkpt><trkpt lat="45.6927303938186" lon="9.877045897855647"><ele>522.25</ele><time>2026-04-26T13:26:02Z</time></trkpt><trkpt lat="45.69268330495133" lon="9.877234148592127"><ele>522.0</ele><time>2026-04-26T13:26:03Z</time></trkpt><trkpt lat="45.692647770367124" lon="9.877408425847797"><ele>522.0</ele><time>2026-04-26T13:26:04Z</time></trkpt><trkpt lat="45.692620861198215" lon="9.877568489090232"><ele>522.0</ele><time>2026-04-26T13:26:05Z</time></trkpt><trkpt lat="45.692601621431855" lon="9.877740797974901"><ele>522.0</ele><time>2026-04-26T13:26:06Z</time></trkpt><trkpt lat="45.69261112109216" lon="9.877931056820612"><ele>522.0</ele><time>2026-04-26T13:26:07Z</time></trkpt><trkpt lat="45.69262518233746" lon="9.878126609039246"><ele>521.75</ele><time>2026-04-26T13:26:08Z</time></trkpt><trkpt lat="45.69263932332321" lon="9.878326894987158"><ele>521.5</ele><time>2026-04-26T13:26:09Z</time></trkpt><trkpt lat="45.69261912767953" lon="9.878525115987296"><ele>521.25</ele><time>2026-04-26T13:26:10Z</time></trkpt><trkpt lat="45.69256021283167" lon="9.878701565998657"><ele>521.0</ele><time>2026-04-26T13:26:11Z</time></trkpt><trkpt lat="45.69246874950889" lon="9.878875072817674"><ele>520.6666666666666</ele><time>2026-04-26T13:26:12Z</time></trkpt><trkpt lat="45.692370621007576" lon="9.879051441798756"><ele>520.3333333333334</ele><time>2026-04-26T13:26:12.999Z</time></trkpt><trkpt lat="45.692282968039606" lon="9.879226506205875"><ele>520.0</ele><time>2026-04-26T13:26:13.999Z</time></trkpt><trkpt lat="45.692199462748796" lon="9.879395539498706"><ele>520.0</ele><time>2026-04-26T13:26:14.999Z</time></trkpt><trkpt lat="45.692123414665836" lon="9.879541643976369"><ele>520.0</ele><time>2026-04-26T13:26:15.999Z</time></trkpt><trkpt lat="45.69205104352203" lon="9.879641027104437"><ele>520.0</ele><time>2026-04-26T13:26:16.999Z</time></trkpt><trkpt lat="45.691976521506966" lon="9.879678336922858"><ele>520.0</ele><time>2026-04-26T13:26:17.999Z</time></trkpt><trkpt lat="45.69187050965632" lon="9.879638088319366"><ele>520.0</ele><time>2026-04-26T13:26:18.999Z</time></trkpt><trkpt lat="45.69174263301991" lon="9.879662099562918"><ele>522.0</ele><time>2026-04-26T13:26:19.999Z</time></trkpt><trkpt lat="45.69159947228797" lon="9.879643876392661"><ele>524.0</ele><time>2026-04-26T13:26:20.999Z</time></trkpt><trkpt lat="45.691461052505716" lon="9.879652044293934"><ele>526.0</ele><time>2026-04-26T13:26:21.999Z</time></trkpt><trkpt lat="45.69133935698944" lon="9.879643104468114"><ele>528.0</ele><time>2026-04-26T13:26:22.999Z</time></trkpt><trkpt lat="45.69123409673442" lon="9.879590226834978"><ele>528.0</ele><time>2026-04-26T13:26:23.999Z</time></trkpt><trkpt lat="45.691124264094604" lon="9.879506716357142"><ele>528.0</ele><time>2026-04-26T13:26:24.999Z</time></trkpt><trkpt lat="45.691008534843135" lon="9.87939369404879"><ele>528.0</ele><time>2026-04-26T13:26:25.999Z</time></trkpt><trkpt lat="45.6908891503038" lon="9.879252757183904"><ele>528.0</ele><time>2026-04-26T13:26:26.999Z</time></trkpt><trkpt lat="45.69079434580323" lon="9.87907018083556"><ele>531.0</ele><time>2026-04-26T13:26:27.999Z</time></trkpt><trkpt lat="45.69068391652569" lon="9.878952610504042"><ele>534.0</ele><time>2026-04-26T13:26:28.999Z</time></trkpt><trkpt lat="45.69059986308759" lon="9.878852667239526"><ele>537.0</ele><time>2026-04-26T13:26:29.999Z</time></trkpt><trkpt lat="45.6904945770917" lon="9.878800775781286"><ele>540.0</ele><time>2026-04-26T13:26:30.999Z</time></trkpt><trkpt lat="45.69037902472532" lon="9.878705826277207"><ele>540.0</ele><time>2026-04-26T13:26:31.999Z</time></trkpt><trkpt lat="45.69029471273936" lon="9.878645196156963"><ele>540.0</ele><time>2026-04-26T13:26:32.999Z</time></trkpt><trkpt lat="45.690183491968526" lon="9.87860171255482"><ele>540.0</ele><time>2026-04-26T13:26:34.999Z</time></trkpt><trkpt lat="45.690116278224735" lon="9.878649039980818"><ele>540.0</ele><time>2026-04-26T13:26:35.999Z</time></trkpt><trkpt lat="45.6900963756352" lon="9.878797035460972"><ele>540.0</ele><time>2026-04-26T13:26:36.999Z</time></trkpt><trkpt lat="45.69015288316981" lon="9.87895135640999"><ele>541.25</ele><time>2026-04-26T13:26:37.999Z</time></trkpt><trkpt lat="45.69016369984726" lon="9.879133740742631"><ele>542.5</ele><time>2026-04-26T13:26:38.999Z</time></trkpt><trkpt lat="45.69014737436296" lon="9.879297723361539"><ele>543.75</ele><time>2026-04-26T13:26:39.999Z</time></trkpt><trkpt lat="45.69009673182822" lon="9.879477730706727"><ele>545.0</ele><time>2026-04-26T13:26:40.999Z</time></trkpt><trkpt lat="45.690030341980744" lon="9.879664538154518"><ele>548.0</ele><time>2026-04-26T13:26:41.999Z</time></trkpt><trkpt lat="45.68993515280955" lon="9.879836406898587"><ele>551.0</ele><time>2026-04-26T13:26:42.999Z</time></trkpt><trkpt lat="45.68983702694604" lon="9.879998856222983"><ele>554.0</ele><time>2026-04-26T13:26:43.999Z</time></trkpt><trkpt lat="45.68974065936554" lon="9.880138705197842"><ele>557.0</ele><time>2026-04-26T13:26:44.999Z</time></trkpt><trkpt lat="45.68967875693711" lon="9.88028149250038"><ele>557.2</ele><time>2026-04-26T13:26:45.999Z</time></trkpt><trkpt lat="45.689651323155346" lon="9.880432786212602"><ele>557.4000000000001</ele><time>2026-04-26T13:26:46.999Z</time></trkpt><trkpt lat="45.68965931318236" lon="9.88057645115128"><ele>557.5999999999999</ele><time>2026-04-26T13:26:47.999Z</time></trkpt><trkpt lat="45.6896849047618" lon="9.880731425544976"><ele>557.8</ele><time>2026-04-26T13:26:48.999Z</time></trkpt><trkpt lat="45.689732512297454" lon="9.880894239039208"><ele>558.0</ele><time>2026-04-26T13:26:49.999Z</time></trkpt><trkpt lat="45.68977548408162" lon="9.88102559030723"><ele>558.0</ele><time>2026-04-26T13:26:50.999Z</time></trkpt><trkpt lat="45.689803963043225" lon="9.8811542304558"><ele>558.0</ele><time>2026-04-26T13:26:51.999Z</time></trkpt><trkpt lat="45.68988134578502" lon="9.881327440397834"><ele>558.0</ele><time>2026-04-26T13:26:53.999Z</time></trkpt><trkpt lat="45.689944761201744" lon="9.88146389203888"><ele>558.0</ele><time>2026-04-26T13:26:54.999Z</time></trkpt><trkpt lat="45.69000659684529" lon="9.881630445358343"><ele>558.6</ele><time>2026-04-26T13:26:55.999Z</time></trkpt><trkpt lat="45.690048209276874" lon="9.881793034711983"><ele>559.1999999999999</ele><time>2026-04-26T13:26:56.999Z</time></trkpt><trkpt lat="45.69007689136265" lon="9.881941554783854"><ele>559.8</ele><time>2026-04-26T13:26:57.999Z</time></trkpt><trkpt lat="45.690111578667626" lon="9.882052736093542"><ele>560.4</ele><time>2026-04-26T13:26:58.999Z</time></trkpt><trkpt lat="45.69017570148789" lon="9.882127689684301"><ele>561.0</ele><time>2026-04-26T13:26:59.999Z</time></trkpt><trkpt lat="45.690209710591496" lon="9.882217009125357"><ele>561.0</ele><time>2026-04-26T13:27:00.999Z</time></trkpt><trkpt lat="45.690241654963586" lon="9.882333114496694"><ele>561.0</ele><time>2026-04-26T13:27:01.999Z</time></trkpt><trkpt lat="45.69022331071967" lon="9.882475870236707"><ele>561.0</ele><time>2026-04-26T13:27:02.999Z</time></trkpt><trkpt lat="45.6902044604918" lon="9.882593883621684"><ele>561.0</ele><time>2026-04-26T13:27:03.999Z</time></trkpt><trkpt lat="45.69020528150158" lon="9.882723637935447"><ele>561.0</ele><time>2026-04-26T13:27:04.999Z</time></trkpt><trkpt lat="45.69022733738435" lon="9.882837659927523"><ele>561.0</ele><time>2026-04-26T13:27:05.999Z</time></trkpt><trkpt lat="45.690253992761264" lon="9.882957291692101"><ele>566.3333333333334</ele><time>2026-04-26T13:27:06.999Z</time></trkpt><trkpt lat="45.69029161256297" lon="9.88308239090387"><ele>571.6666666666666</ele><time>2026-04-26T13:27:07.999Z</time></trkpt><trkpt lat="45.69032693286625" lon="9.883205141636605"><ele>577.0</ele><time>2026-04-26T13:27:08.999Z</time></trkpt><trkpt lat="45.690402879005724" lon="9.883256063847778"><ele>582.3333333333333</ele><time>2026-04-26T13:27:09.999Z</time></trkpt><trkpt lat="45.69046818737824" lon="9.883338985978284"><ele>587.6666666666666</ele><time>2026-04-26T13:27:10.999Z</time></trkpt><trkpt lat="45.69053472869254" lon="9.883393399993887"><ele>593.0</ele><time>2026-04-26T13:27:11.999Z</time></trkpt><trkpt lat="45.69060103658187" lon="9.883524047386354"><ele>595.0</ele><time>2026-04-26T13:27:13.999Z</time></trkpt><trkpt lat="45.690588602582054" lon="9.883666296585385"><ele>597.0</ele><time>2026-04-26T13:27:14.999Z</time></trkpt><trkpt lat="45.69051793129224" lon="9.883779315822853"><ele>599.0</ele><time>2026-04-26T13:27:15.999Z</time></trkpt><trkpt lat="45.69044855717717" lon="9.883917186784283"><ele>601.0</ele><time>2026-04-26T13:27:16.999Z</time></trkpt><trkpt lat="45.69037042895156" lon="9.884045028501845"><ele>603.0</ele><time>2026-04-26T13:27:17.999Z</time></trkpt><trkpt lat="45.69030668378256" lon="9.884191489491089"><ele>599.8</ele><time>2026-04-26T13:27:18.999Z</time></trkpt><trkpt lat="45.69024210364249" lon="9.88431998513774"><ele>596.5999999999999</ele><time>2026-04-26T13:27:19.999Z</time></trkpt><trkpt lat="45.690185984885524" lon="9.884435860094083"><ele>593.4000000000001</ele><time>2026-04-26T13:27:20.999Z</time></trkpt><trkpt lat="45.690122054588706" lon="9.88454640062186"><ele>590.2</ele><time>2026-04-26T13:27:22Z</time></trkpt><trkpt lat="45.69006119838412" lon="9.884654707122406"><ele>587.0</ele><time>2026-04-26T13:27:23Z</time></trkpt><trkpt lat="45.69000856280789" lon="9.884767756468795"><ele>587.0</ele><time>2026-04-26T13:27:24Z</time></trkpt><trkpt lat="45.68998667310906" lon="9.884884950205091"><ele>587.0</ele><time>2026-04-26T13:27:25Z</time></trkpt><trkpt lat="45.68998148257363" lon="9.884998238186745"><ele>587.0</ele><time>2026-04-26T13:27:26Z</time></trkpt><trkpt lat="45.68999906542029" lon="9.885101120310377"><ele>587.0</ele><time>2026-04-26T13:27:27Z</time></trkpt><trkpt lat="45.690110283577" lon="9.885183349637543"><ele>587.0</ele><time>2026-04-26T13:27:28Z</time></trkpt><trkpt lat="45.69010863420744" lon="9.885354706085073"><ele>587.8333333333333</ele><time>2026-04-26T13:27:29Z</time></trkpt><trkpt lat="45.69008637015377" lon="9.885481155027549"><ele>588.6666666666666</ele><time>2026-04-26T13:27:30Z</time></trkpt><trkpt lat="45.69006641912004" lon="9.88558538235725"><ele>589.5</ele><time>2026-04-26T13:27:31Z</time></trkpt><trkpt lat="45.69004526884012" lon="9.885695876187741"><ele>590.3333333333334</ele><time>2026-04-26T13:27:32Z</time></trkpt><trkpt lat="45.69004240463118" lon="9.885794220519902"><ele>591.1666666666667</ele><time>2026-04-26T13:27:33Z</time></trkpt><trkpt lat="45.69004685002413" lon="9.885894247961883"><ele>592.0</ele><time>2026-04-26T13:27:34Z</time></trkpt><trkpt lat="45.69004051943653" lon="9.886013265049256"><ele>594.5</ele><time>2026-04-26T13:27:35Z</time></trkpt><trkpt lat="45.69007640076151" lon="9.886155821767515"><ele>597.0</ele><time>2026-04-26T13:27:36Z</time></trkpt><trkpt lat="45.68941925463102" lon="9.886125983964346"><ele>594.4</ele><time>2026-04-26T13:27:38Z</time></trkpt><trkpt lat="45.689353270172255" lon="9.886203701260866"><ele>591.8000000000001</ele><time>2026-04-26T13:27:39Z</time></trkpt><trkpt lat="45.68930591611811" lon="9.886303494691635"><ele>589.2</ele><time>2026-04-26T13:27:40Z</time></trkpt><trkpt lat="45.68927473375036" lon="9.886417060596441"><ele>586.6</ele><time>2026-04-26T13:27:41Z</time></trkpt><trkpt lat="45.68925229565293" lon="9.886517878815301"><ele>584.0</ele><time>2026-04-26T13:27:42Z</time></trkpt><trkpt lat="45.68925007906404" lon="9.886703794228133"><ele>583.3333333333333</ele><time>2026-04-26T13:27:44Z</time></trkpt><trkpt lat="45.68925998603316" lon="9.886807437292697"><ele>582.6666666666666</ele><time>2026-04-26T13:27:45Z</time></trkpt><trkpt lat="45.68928642104816" lon="9.886911315076782"><ele>582.0</ele><time>2026-04-26T13:27:46Z</time></trkpt><trkpt lat="45.68930053705244" lon="9.887014776564184"><ele>581.3333333333334</ele><time>2026-04-26T13:27:47Z</time></trkpt><trkpt lat="45.68927917691529" lon="9.887185236052195"><ele>580.6666666666667</ele><time>2026-04-26T13:27:49Z</time></trkpt><trkpt lat="45.689278601555976" lon="9.88728049100032"><ele>580.0</ele><time>2026-04-26T13:27:50Z</time></trkpt><trkpt lat="45.68927955903602" lon="9.887387260226896"><ele>580.0</ele><time>2026-04-26T13:27:51Z</time></trkpt><trkpt lat="45.68928003450633" lon="9.887503415901847"><ele>580.0</ele><time>2026-04-26T13:27:52Z</time></trkpt><trkpt lat="45.68927732479767" lon="9.887607002826792"><ele>580.0</ele><time>2026-04-26T13:27:53Z</time></trkpt><trkpt lat="45.68928007192071" lon="9.887746612795713"><ele>580.0</ele><time>2026-04-26T13:27:55Z</time></trkpt><trkpt lat="45.689228290341106" lon="9.887805949946054"><ele>580.0</ele><time>2026-04-26T13:27:59Z</time></trkpt><trkpt lat="45.6891637922623" lon="9.887833263350966"><ele>580.0</ele><time>2026-04-26T13:28:01Z</time></trkpt><trkpt lat="45.689101466622496" lon="9.887862383884222"><ele>580.2</ele><time>2026-04-26T13:28:03Z</time></trkpt><trkpt lat="45.6890023685379" lon="9.88786546901855"><ele>580.4</ele><time>2026-04-26T13:28:05Z</time></trkpt><trkpt lat="45.68894485162325" lon="9.888037131876166"><ele>580.6</ele><time>2026-04-26T13:28:07Z</time></trkpt><trkpt lat="45.68893428396727" lon="9.888147817147104"><ele>580.8</ele><time>2026-04-26T13:28:08Z</time></trkpt><trkpt lat="45.688933628465676" lon="9.888261748970514"><ele>581.0</ele><time>2026-04-26T13:28:09Z</time></trkpt><trkpt lat="45.688908633017014" lon="9.888367323904214"><ele>581.4</ele><time>2026-04-26T13:28:10Z</time></trkpt><trkpt lat="45.68889286916561" lon="9.888481021044807"><ele>581.8</ele><time>2026-04-26T13:28:11Z</time></trkpt><trkpt lat="45.68886154313918" lon="9.888592130754823"><ele>582.1999999999999</ele><time>2026-04-26T13:28:12Z</time></trkpt><trkpt lat="45.6888309722428" lon="9.888792658292624"><ele>582.6</ele><time>2026-04-26T13:28:14Z</time></trkpt><trkpt lat="45.68883675541734" lon="9.888922032018371"><ele>583.0</ele><time>2026-04-26T13:28:15Z</time></trkpt><trkpt lat="45.688845087592924" lon="9.889036766557227"><ele>583.0</ele><time>2026-04-26T13:28:16Z</time></trkpt><trkpt lat="45.6888383085755" lon="9.889127741072532"><ele>583.0</ele><time>2026-04-26T13:28:17Z</time></trkpt><trkpt lat="45.68880189950948" lon="9.889258719475487"><ele>583.0</ele><time>2026-04-26T13:28:19Z</time></trkpt><trkpt lat="45.68869810973036" lon="9.889365159809536"><ele>583.0</ele><time>2026-04-26T13:28:20.999Z</time></trkpt><trkpt lat="45.68864504483224" lon="9.889433302687603"><ele>583.0</ele><time>2026-04-26T13:28:21.999Z</time></trkpt><trkpt lat="45.688600962626516" lon="9.889517603528628"><ele>583.0</ele><time>2026-04-26T13:28:22.999Z</time></trkpt><trkpt lat="45.68854946875871" lon="9.889663847888405"><ele>578.5</ele><time>2026-04-26T13:28:24.999Z</time></trkpt><trkpt lat="45.68851386904182" lon="9.889749258995067"><ele>574.0</ele><time>2026-04-26T13:28:25.999Z</time></trkpt><trkpt lat="45.688459863666786" lon="9.889896092586515"><ele>569.5</ele><time>2026-04-26T13:28:27.999Z</time></trkpt><trkpt lat="45.688421659983376" lon="9.890068068992552"><ele>565.0</ele><time>2026-04-26T13:28:29.999Z</time></trkpt><trkpt lat="45.68840020856223" lon="9.890156810094641"><ele>560.5</ele><time>2026-04-26T13:28:30.999Z</time></trkpt><trkpt lat="45.68837098011817" lon="9.89025061882516"><ele>556.0</ele><time>2026-04-26T13:28:31.999Z</time></trkpt><trkpt lat="45.68834577178642" lon="9.890334322905595"><ele>556.0</ele><time>2026-04-26T13:28:32.999Z</time></trkpt><trkpt lat="45.68829074771951" lon="9.890492937544726"><ele>556.0</ele><time>2026-04-26T13:28:34.999Z</time></trkpt><trkpt lat="45.688257631309384" lon="9.89058451007752"><ele>556.0</ele><time>2026-04-26T13:28:36.999Z</time></trkpt><trkpt lat="45.68826506765291" lon="9.890714573945045"><ele>556.0</ele><time>2026-04-26T13:28:38.999Z</time></trkpt><trkpt lat="45.68822399011573" lon="9.890838439456852"><ele>556.0</ele><time>2026-04-26T13:28:40.999Z</time></trkpt><trkpt lat="45.68819181093805" lon="9.8909181605989"><ele>556.0</ele><time>2026-04-26T13:28:43.999Z</time></trkpt><trkpt lat="45.68817807441527" lon="9.891017020781595"><ele>558.3333333333334</ele><time>2026-04-26T13:28:44.999Z</time></trkpt><trkpt lat="45.6881486376068" lon="9.89110779874164"><ele>560.6666666666667</ele><time>2026-04-26T13:28:46.999Z</time></trkpt><trkpt lat="45.6881722192499" lon="9.891207470545707"><ele>563.0</ele><time>2026-04-26T13:29:03.999Z</time></trkpt><trkpt lat="45.68819544519504" lon="9.891313112958537"><ele>565.3333333333334</ele><time>2026-04-26T13:29:07.999Z</time></trkpt><trkpt lat="45.68819334833844" lon="9.891406544615753"><ele>567.6666666666666</ele><time>2026-04-26T13:29:10.999Z</time></trkpt><trkpt lat="45.68814658406155" lon="9.891545262941914"><ele>570.0</ele><time>2026-04-26T13:29:13.999Z</time></trkpt><trkpt lat="45.68812176300636" lon="9.89165234960544"><ele>572.2</ele><time>2026-04-26T13:29:15.999Z</time></trkpt><trkpt lat="45.688129039918095" lon="9.89182901926297"><ele>574.4</ele><time>2026-04-26T13:29:17.999Z</time></trkpt><trkpt lat="45.68811557442863" lon="9.891943829996567"><ele>576.6</ele><time>2026-04-26T13:29:19.999Z</time></trkpt><trkpt lat="45.68809736602405" lon="9.892130033012341"><ele>578.8</ele><time>2026-04-26T13:29:21.999Z</time></trkpt><trkpt lat="45.68810026845849" lon="9.892225194058813"><ele>581.0</ele><time>2026-04-26T13:29:22.999Z</time></trkpt><trkpt lat="45.6881103954126" lon="9.89231857850358"><ele>581.0</ele><time>2026-04-26T13:29:24.999Z</time></trkpt><trkpt lat="45.68812730107161" lon="9.892434580081904"><ele>581.0</ele><time>2026-04-26T13:29:26.999Z</time></trkpt><trkpt lat="45.6881708152862" lon="9.892773079637577"><ele>581.0</ele><time>2026-04-26T13:29:29Z</time></trkpt><trkpt lat="45.688130200274365" lon="9.892893318620674"><ele>581.0</ele><time>2026-04-26T13:29:31Z</time></trkpt><trkpt lat="45.68808225761314" lon="9.892965554248468"><ele>583.0</ele><time>2026-04-26T13:29:34Z</time></trkpt><trkpt lat="45.688093547349524" lon="9.893095386718068"><ele>585.0</ele><time>2026-04-26T13:29:36Z</time></trkpt><trkpt lat="45.68806730388869" lon="9.893184444668968"><ele>587.0</ele><time>2026-04-26T13:29:37Z</time></trkpt><trkpt lat="45.68804300419774" lon="9.893294533907218"><ele>589.0</ele><time>2026-04-26T13:29:38Z</time></trkpt><trkpt lat="45.687983814451435" lon="9.893332829319627"><ele>591.0</ele><time>2026-04-26T13:29:40Z</time></trkpt><trkpt lat="45.68789453903229" lon="9.893370007045888"><ele>593.0</ele><time>2026-04-26T13:29:42Z</time></trkpt><trkpt lat="45.68785299371413" lon="9.89346474012086"><ele>596.4</ele><time>2026-04-26T13:29:44Z</time></trkpt><trkpt lat="45.687797780862695" lon="9.893574942910183"><ele>599.8</ele><time>2026-04-26T13:29:46Z</time></trkpt><trkpt lat="45.68781720957485" lon="9.893710225021074"><ele>603.2</ele><time>2026-04-26T13:29:48Z</time></trkpt><trkpt lat="45.68783130806176" lon="9.89384585247258"><ele>606.6</ele><time>2026-04-26T13:29:50Z</time></trkpt><trkpt lat="45.68784034832622" lon="9.89397436043487"><ele>610.0</ele><time>2026-04-26T13:29:52Z</time></trkpt><trkpt lat="45.687844690085846" lon="9.894110582703188"><ele>610.0</ele><time>2026-04-26T13:29:54Z</time></trkpt><trkpt lat="45.68780812069799" lon="9.894211781390183"><ele>610.0</ele><time>2026-04-26T13:29:56Z</time></trkpt><trkpt lat="45.68778253662592" lon="9.894309234271649"><ele>610.0</ele><time>2026-04-26T13:29:58Z</time></trkpt><trkpt lat="45.68771540007252" lon="9.894435418195073"><ele>610.0</ele><time>2026-04-26T13:30:00Z</time></trkpt><trkpt lat="45.68765219372737" lon="9.894540217453143"><ele>610.0</ele><time>2026-04-26T13:30:02Z</time></trkpt><trkpt lat="45.687664060818015" lon="9.894688168107391"><ele>602.6</ele><time>2026-04-26T13:30:04Z</time></trkpt><trkpt lat="45.6876883174261" lon="9.894843240727807"><ele>595.2</ele><time>2026-04-26T13:30:06Z</time></trkpt><trkpt lat="45.687677938388404" lon="9.895013776106431"><ele>587.8</ele><time>2026-04-26T13:30:08Z</time></trkpt><trkpt lat="45.68766718240327" lon="9.895111884246953"><ele>580.4</ele><time>2026-04-26T13:30:09Z</time></trkpt><trkpt lat="45.68768703255359" lon="9.895298293394681"><ele>573.0</ele><time>2026-04-26T13:30:11Z</time></trkpt><trkpt lat="45.687702046100405" lon="9.895441082132582"><ele>573.0</ele><time>2026-04-26T13:30:12Z</time></trkpt><trkpt lat="45.6877045862978" lon="9.895576628260926"><ele>573.0</ele><time>2026-04-26T13:30:13Z</time></trkpt><trkpt lat="45.68769602972359" lon="9.89568780716437"><ele>573.0</ele><time>2026-04-26T13:30:14Z</time></trkpt><trkpt lat="45.68769204656031" lon="9.895796451177977"><ele>573.0</ele><time>2026-04-26T13:30:15Z</time></trkpt><trkpt lat="45.687685056192684" lon="9.895893783804965"><ele>573.0</ele><time>2026-04-26T13:30:16Z</time></trkpt><trkpt lat="45.68766409182485" lon="9.895982489508395"><ele>573.0</ele><time>2026-04-26T13:30:17Z</time></trkpt><trkpt lat="45.68761036838377" lon="9.896109967910842"><ele>574.25</ele><time>2026-04-26T13:30:19Z</time></trkpt><trkpt lat="45.68741199098038" lon="9.896172300416014"><ele>575.5</ele><time>2026-04-26T13:30:21Z</time></trkpt><trkpt lat="45.68738143270181" lon="9.896272267894306"><ele>576.75</ele><time>2026-04-26T13:30:23Z</time></trkpt><trkpt lat="45.687314333384556" lon="9.89640742733442"><ele>578.0</ele><time>2026-04-26T13:30:25Z</time></trkpt><trkpt lat="45.68727494239332" lon="9.896622499239356"><ele>578.0</ele><time>2026-04-26T13:30:26.999Z</time></trkpt><trkpt lat="45.687496377143134" lon="9.896869163223371"><ele>578.0</ele><time>2026-04-26T13:30:27.999Z</time></trkpt><trkpt lat="45.68755072094252" lon="9.896960397650748"><ele>578.0</ele><time>2026-04-26T13:30:29.999Z</time></trkpt><trkpt lat="45.68754626483725" lon="9.897083911285867"><ele>578.0</ele><time>2026-04-26T13:30:33.999Z</time></trkpt><trkpt lat="45.687488639144306" lon="9.897246912449681"><ele>578.0</ele><time>2026-04-26T13:30:35.999Z</time></trkpt><trkpt lat="45.687472354879375" lon="9.897349518268607"><ele>578.0</ele><time>2026-04-26T13:30:36.999Z</time></trkpt><trkpt lat="45.687437046189" lon="9.897426565163777"><ele>578.0</ele><time>2026-04-26T13:30:37.999Z</time></trkpt><trkpt lat="45.68742749771837" lon="9.897518333672538"><ele>578.0</ele><time>2026-04-26T13:30:39.999Z</time></trkpt><trkpt lat="45.68747038707429" lon="9.89765959845135"><ele>578.0</ele><time>2026-04-26T13:30:41.999Z</time></trkpt><trkpt lat="45.68747494028979" lon="9.897820053280679"><ele>575.4</ele><time>2026-04-26T13:30:43.999Z</time></trkpt><trkpt lat="45.687465229950554" lon="9.897993875438656"><ele>572.8</ele><time>2026-04-26T13:30:45.999Z</time></trkpt><trkpt lat="45.68741639048832" lon="9.898071382195397"><ele>570.2</ele><time>2026-04-26T13:30:46.999Z</time></trkpt><trkpt lat="45.68736890343677" lon="9.89813706623932"><ele>567.6</ele><time>2026-04-26T13:30:47.999Z</time></trkpt><trkpt lat="45.6872655292387" lon="9.898227533580123"><ele>565.0</ele><time>2026-04-26T13:30:49.999Z</time></trkpt><trkpt lat="45.687196030340324" lon="9.898247549317874"><ele>565.0</ele><time>2026-04-26T13:30:50.999Z</time></trkpt><trkpt lat="45.68712414462273" lon="9.898239925181821"><ele>565.0</ele><time>2026-04-26T13:30:51.999Z</time></trkpt><trkpt lat="45.68705717594344" lon="9.898239829807103"><ele>565.0</ele><time>2026-04-26T13:30:52.999Z</time></trkpt><trkpt lat="45.686972852156224" lon="9.898343890467633"><ele>565.0</ele><time>2026-04-26T13:30:54.999Z</time></trkpt><trkpt lat="45.68686912300127" lon="9.89840108828938"><ele>565.0</ele><time>2026-04-26T13:30:56.999Z</time></trkpt><trkpt lat="45.68680451707864" lon="9.898400293898776"><ele>565.0</ele><time>2026-04-26T13:30:57.999Z</time></trkpt><trkpt lat="45.686687237526755" lon="9.898358712509957"><ele>564.1666666666667</ele><time>2026-04-26T13:30:59.999Z</time></trkpt><trkpt lat="45.68662231070007" lon="9.898361588689259"><ele>563.3333333333334</ele><time>2026-04-26T13:31:00.999Z</time></trkpt><trkpt lat="45.68655499139702" lon="9.898407129010591"><ele>562.5</ele><time>2026-04-26T13:31:01.999Z</time></trkpt><trkpt lat="45.686475207052204" lon="9.898483226225416"><ele>561.6666666666666</ele><time>2026-04-26T13:31:02.999Z</time></trkpt><trkpt lat="45.68639692068978" lon="9.898544247766996"><ele>560.8333333333333</ele><time>2026-04-26T13:31:03.999Z</time></trkpt><trkpt lat="45.6863186421602" lon="9.898603219787502"><ele>560.0</ele><time>2026-04-26T13:31:04.999Z</time></trkpt><trkpt lat="45.68624592028521" lon="9.898658556063076"><ele>559.4</ele><time>2026-04-26T13:31:05.999Z</time></trkpt><trkpt lat="45.686171314427064" lon="9.898709309098255"><ele>558.8</ele><time>2026-04-26T13:31:06.999Z</time></trkpt><trkpt lat="45.68609402453324" lon="9.898760277789757"><ele>558.2</ele><time>2026-04-26T13:31:08.999Z</time></trkpt><trkpt lat="45.68609934610878" lon="9.898943197094146"><ele>557.6</ele><time>2026-04-26T13:31:10.999Z</time></trkpt><trkpt lat="45.68611166308109" lon="9.899087338132963"><ele>557.0</ele><time>2026-04-26T13:31:11.999Z</time></trkpt><trkpt lat="45.68609223950531" lon="9.899210225309389"><ele>555.6</ele><time>2026-04-26T13:31:12.999Z</time></trkpt><trkpt lat="45.68606662303815" lon="9.899344701143693"><ele>554.2</ele><time>2026-04-26T13:31:13.999Z</time></trkpt><trkpt lat="45.68604145830092" lon="9.89947232816629"><ele>552.8</ele><time>2026-04-26T13:31:14.999Z</time></trkpt><trkpt lat="45.68600029266579" lon="9.899572726048577"><ele>551.4</ele><time>2026-04-26T13:31:15.999Z</time></trkpt><trkpt lat="45.68592900133932" lon="9.899654590198692"><ele>550.0</ele><time>2026-04-26T13:31:16.999Z</time></trkpt><trkpt lat="45.685849782500036" lon="9.899711966673415"><ele>550.0</ele><time>2026-04-26T13:31:17.999Z</time></trkpt><trkpt lat="45.685778078805114" lon="9.899727215381224"><ele>550.0</ele><time>2026-04-26T13:31:18.999Z</time></trkpt><trkpt lat="45.68570878403766" lon="9.899730092225479"><ele>550.0</ele><time>2026-04-26T13:31:19.999Z</time></trkpt><trkpt lat="45.68564290620541" lon="9.899704240580247"><ele>550.0</ele><time>2026-04-26T13:31:20.999Z</time></trkpt><trkpt lat="45.6855764075067" lon="9.899719572940418"><ele>550.0</ele><time>2026-04-26T13:31:21.999Z</time></trkpt><trkpt lat="45.68550672403157" lon="9.899760485115825"><ele>550.0</ele><time>2026-04-26T13:31:22.999Z</time></trkpt><trkpt lat="45.685445576260605" lon="9.899812473287676"><ele>550.0</ele><time>2026-04-26T13:31:23.999Z</time></trkpt><trkpt lat="45.685372845915914" lon="9.899856622993893"><ele>550.0</ele><time>2026-04-26T13:31:24.999Z</time></trkpt><trkpt lat="45.68530491736222" lon="9.899903811153244"><ele>550.0</ele><time>2026-04-26T13:31:25.999Z</time></trkpt><trkpt lat="45.68525259311165" lon="9.899988428110003"><ele>550.0</ele><time>2026-04-26T13:31:26.999Z</time></trkpt><trkpt lat="45.68521171708904" lon="9.900071051931366"><ele>550.0</ele><time>2026-04-26T13:31:27.999Z</time></trkpt><trkpt lat="45.68514521567444" lon="9.900204557765127"><ele>550.0</ele><time>2026-04-26T13:31:29.999Z</time></trkpt><trkpt lat="45.68509599749448" lon="9.90026804662586"><ele>550.0</ele><time>2026-04-26T13:31:30.999Z</time></trkpt><trkpt lat="45.68502763112129" lon="9.900321608834867"><ele>545.5</ele><time>2026-04-26T13:31:31.999Z</time></trkpt><trkpt lat="45.684948739507035" lon="9.90036020012635"><ele>541.0</ele><time>2026-04-26T13:31:32.999Z</time></trkpt><trkpt lat="45.68487788472652" lon="9.900402660595997"><ele>536.5</ele><time>2026-04-26T13:31:34Z</time></trkpt><trkpt lat="45.68481083721461" lon="9.900446298929728"><ele>532.0</ele><time>2026-04-26T13:31:35Z</time></trkpt><trkpt lat="45.68474693632686" lon="9.900488696205306"><ele>527.5</ele><time>2026-04-26T13:31:36Z</time></trkpt><trkpt lat="45.684681669728754" lon="9.900532506621557"><ele>523.0</ele><time>2026-04-26T13:31:37Z</time></trkpt><trkpt lat="45.68462231792282" lon="9.900594448335207"><ele>523.0</ele><time>2026-04-26T13:31:38Z</time></trkpt><trkpt lat="45.68456568775552" lon="9.900680389555559"><ele>523.0</ele><time>2026-04-26T13:31:39Z</time></trkpt><trkpt lat="45.684526308382594" lon="9.900784336134626"><ele>523.0</ele><time>2026-04-26T13:31:40Z</time></trkpt><trkpt lat="45.684485901483804" lon="9.900890203408714"><ele>523.0</ele><time>2026-04-26T13:31:41Z</time></trkpt><trkpt lat="45.68443763982108" lon="9.900997163704409"><ele>523.0</ele><time>2026-04-26T13:31:42Z</time></trkpt><trkpt lat="45.68436609755473" lon="9.901105405408906"><ele>523.0</ele><time>2026-04-26T13:31:43Z</time></trkpt><trkpt lat="45.68428836384149" lon="9.901205059080755"><ele>519.8333333333334</ele><time>2026-04-26T13:31:44Z</time></trkpt><trkpt lat="45.68423104706868" lon="9.90130583138866"><ele>516.6666666666667</ele><time>2026-04-26T13:31:45Z</time></trkpt><trkpt lat="45.684169238241466" lon="9.901391190736138"><ele>513.5</ele><time>2026-04-26T13:31:46Z</time></trkpt><trkpt lat="45.684096221178024" lon="9.901465211122874"><ele>510.33333333333337</ele><time>2026-04-26T13:31:47Z</time></trkpt><trkpt lat="45.68401399800742" lon="9.901527805024832"><ele>507.1666666666667</ele><time>2026-04-26T13:31:48Z</time></trkpt><trkpt lat="45.683931396803004" lon="9.901574955180624"><ele>504.0</ele><time>2026-04-26T13:31:49Z</time></trkpt><trkpt lat="45.68385759559732" lon="9.90161570227558"><ele>504.0</ele><time>2026-04-26T13:31:50Z</time></trkpt><trkpt lat="45.683763127198496" lon="9.901691718583876"><ele>504.0</ele><time>2026-04-26T13:31:52Z</time></trkpt><trkpt lat="45.683653417371765" lon="9.901663972932907"><ele>504.0</ele><time>2026-04-26T13:31:53Z</time></trkpt><trkpt lat="45.683622986030606" lon="9.901752405977936"><ele>504.0</ele><time>2026-04-26T13:31:56Z</time></trkpt><trkpt lat="45.68356311475317" lon="9.901786288596506"><ele>504.0</ele><time>2026-04-26T13:31:58Z</time></trkpt><trkpt lat="45.683484576025755" lon="9.901888076358931"><ele>503.4</ele><time>2026-04-26T13:33:12.999Z</time></trkpt><trkpt lat="45.683406413007845" lon="9.901970039748328"><ele>502.79999999999995</ele><time>2026-04-26T13:33:13.999Z</time></trkpt><trkpt lat="45.68331295627273" lon="9.902060733158974"><ele>502.20000000000005</ele><time>2026-04-26T13:33:14.999Z</time></trkpt><trkpt lat="45.68322009268277" lon="9.902146830997438"><ele>501.6</ele><time>2026-04-26T13:33:15.999Z</time></trkpt><trkpt lat="45.683132859985214" lon="9.902217346717169"><ele>501.0</ele><time>2026-04-26T13:33:16.999Z</time></trkpt><trkpt lat="45.683042158826936" lon="9.90226175535958"><ele>501.0</ele><time>2026-04-26T13:33:17.999Z</time></trkpt><trkpt lat="45.68294654575797" lon="9.902285543891756"><ele>501.0</ele><time>2026-04-26T13:33:18.999Z</time></trkpt><trkpt lat="45.68284030835144" lon="9.902292793776297"><ele>501.0</ele><time>2026-04-26T13:33:19.999Z</time></trkpt><trkpt lat="45.682746972447866" lon="9.90230847836674"><ele>501.0</ele><time>2026-04-26T13:33:20.999Z</time></trkpt><trkpt lat="45.68265420304027" lon="9.902343430352985"><ele>501.0</ele><time>2026-04-26T13:33:21.999Z</time></trkpt><trkpt lat="45.68256868892199" lon="9.902405759655082"><ele>500.20000000000005</ele><time>2026-04-26T13:33:22.999Z</time></trkpt><trkpt lat="45.682500257195464" lon="9.902499425538021"><ele>499.40000000000003</ele><time>2026-04-26T13:33:23.999Z</time></trkpt><trkpt lat="45.682448002540966" lon="9.902629261124034"><ele>498.6</ele><time>2026-04-26T13:33:24.999Z</time></trkpt><trkpt lat="45.68240147713634" lon="9.902766602052088"><ele>497.8</ele><time>2026-04-26T13:33:25.999Z</time></trkpt><trkpt lat="45.682361584467515" lon="9.90290651477379"><ele>497.0</ele><time>2026-04-26T13:33:26.999Z</time></trkpt><trkpt lat="45.68233033768513" lon="9.903007767756568"><ele>499.8</ele><time>2026-04-26T13:33:27.999Z</time></trkpt><trkpt lat="45.682267144170225" lon="9.903081931101404"><ele>502.6</ele><time>2026-04-26T13:33:29.999Z</time></trkpt><trkpt lat="45.68218985107963" lon="9.903203688821419"><ele>505.40000000000003</ele><time>2026-04-26T13:33:31.999Z</time></trkpt><trkpt lat="45.68209431866242" lon="9.903266526839694"><ele>508.20000000000005</ele><time>2026-04-26T13:33:33.999Z</time></trkpt><trkpt lat="45.68200887492891" lon="9.90332795577973"><ele>511.0</ele><time>2026-04-26T13:33:34.999Z</time></trkpt><trkpt lat="45.68194337904242" lon="9.90342462272593"><ele>516.8</ele><time>2026-04-26T13:33:35.999Z</time></trkpt><trkpt lat="45.68188975861996" lon="9.90356922475843"><ele>522.6</ele><time>2026-04-26T13:33:36.999Z</time></trkpt><trkpt lat="45.68182387554528" lon="9.9036448179502"><ele>528.4</ele><time>2026-04-26T13:33:37.999Z</time></trkpt><trkpt lat="45.68173062177432" lon="9.90372669725513"><ele>534.2</ele><time>2026-04-26T13:33:40Z</time></trkpt><trkpt lat="45.68162423941508" lon="9.903810561811706"><ele>540.0</ele><time>2026-04-26T13:33:42Z</time></trkpt><trkpt lat="45.68153998363954" lon="9.903869991146392"><ele>540.0</ele><time>2026-04-26T13:33:43Z</time></trkpt><trkpt lat="45.681464480615745" lon="9.903926307622156"><ele>540.0</ele><time>2026-04-26T13:33:44Z</time></trkpt><trkpt lat="45.68140462039185" lon="9.903977521206263"><ele>540.0</ele><time>2026-04-26T13:33:45Z</time></trkpt><trkpt lat="45.68132366349735" lon="9.904076249709759"><ele>540.0</ele><time>2026-04-26T13:33:47Z</time></trkpt><trkpt lat="45.68127270310319" lon="9.904192456798693"><ele>540.0</ele><time>2026-04-26T13:33:49Z</time></trkpt><trkpt lat="45.68122498997111" lon="9.904274617235505"><ele>540.0</ele><time>2026-04-26T13:33:50Z</time></trkpt><trkpt lat="45.68097225399708" lon="9.904099790086738"><ele>537.1666666666666</ele><time>2026-04-26T13:33:51Z</time></trkpt><trkpt lat="45.680903217312625" lon="9.904161928186905"><ele>534.3333333333334</ele><time>2026-04-26T13:33:52Z</time></trkpt><trkpt lat="45.680846984987866" lon="9.904231691073042"><ele>531.5</ele><time>2026-04-26T13:33:53Z</time></trkpt><trkpt lat="45.68080680028356" lon="9.904302708800488"><ele>528.6666666666667</ele><time>2026-04-26T13:33:54Z</time></trkpt><trkpt lat="45.68071221777298" lon="9.904284320383486"><ele>525.8333333333334</ele><time>2026-04-26T13:33:56Z</time></trkpt><trkpt lat="45.68062892874639" lon="9.904243101131117"><ele>523.0</ele><time>2026-04-26T13:33:57Z</time></trkpt><trkpt lat="45.6805058204226" lon="9.904256025224402"><ele>528.0</ele><time>2026-04-26T13:33:59Z</time></trkpt><trkpt lat="45.68039978959405" lon="9.904345971041419"><ele>533.0</ele><time>2026-04-26T13:34:01Z</time></trkpt><trkpt lat="45.680341039148566" lon="9.904398814825024"><ele>538.0</ele><time>2026-04-26T13:34:02Z</time></trkpt><trkpt lat="45.68028336192964" lon="9.904463489466313"><ele>543.0</ele><time>2026-04-26T13:34:03Z</time></trkpt><trkpt lat="45.68024300551205" lon="9.904535688846641"><ele>548.0</ele><time>2026-04-26T13:34:04Z</time></trkpt><trkpt lat="45.680161772051875" lon="9.904627320734894"><ele>553.0</ele><time>2026-04-26T13:34:06Z</time></trkpt><trkpt lat="45.68011713654978" lon="9.90469346719017"><ele>553.0</ele><time>2026-04-26T13:34:08Z</time></trkpt><trkpt lat="45.68003829038507" lon="9.904638758337347"><ele>553.0</ele><time>2026-04-26T13:34:10Z</time></trkpt><trkpt lat="45.67995568588531" lon="9.904612789825016"><ele>553.0</ele><time>2026-04-26T13:34:13Z</time></trkpt><trkpt lat="45.679847342485154" lon="9.904657136301818"><ele>553.0</ele><time>2026-04-26T13:34:15Z</time></trkpt><trkpt lat="45.67975845086462" lon="9.904688717032204"><ele>553.0</ele><time>2026-04-26T13:34:16Z</time></trkpt><trkpt lat="45.679650955010366" lon="9.904750629103585"><ele>553.0</ele><time>2026-04-26T13:34:18Z</time></trkpt><trkpt lat="45.67958970135198" lon="9.904776817537156"><ele>553.0</ele><time>2026-04-26T13:34:19Z</time></trkpt><trkpt lat="45.679472031687716" lon="9.904832889322146"><ele>553.0</ele><time>2026-04-26T13:34:21Z</time></trkpt><trkpt lat="45.679389973701745" lon="9.904907833287059"><ele>553.0</ele><time>2026-04-26T13:34:23Z</time></trkpt><trkpt lat="45.67931944517983" lon="9.904885260292367"><ele>553.0</ele><time>2026-04-26T13:34:27Z</time></trkpt><trkpt lat="45.67925377468109" lon="9.90488460341992"><ele>553.0</ele><time>2026-04-26T13:34:28Z</time></trkpt><trkpt lat="45.67918695022527" lon="9.904811839580075"><ele>552.4</ele><time>2026-04-26T13:34:31Z</time></trkpt><trkpt lat="45.67908772010759" lon="9.904786474890212"><ele>551.8</ele><time>2026-04-26T13:34:33Z</time></trkpt><trkpt lat="45.67900230298832" lon="9.904729187697555"><ele>551.2</ele><time>2026-04-26T13:34:35Z</time></trkpt><trkpt lat="45.67887457779376" lon="9.904725444091369"><ele>550.6</ele><time>2026-04-26T13:34:36.999Z</time></trkpt><trkpt lat="45.67880092334629" lon="9.904709628038518"><ele>550.0</ele><time>2026-04-26T13:34:37.999Z</time></trkpt><trkpt lat="45.678689128605626" lon="9.904655084995932"><ele>552.6</ele><time>2026-04-26T13:34:39.999Z</time></trkpt><trkpt lat="45.67855961161964" lon="9.90465595113323"><ele>555.2</ele><time>2026-04-26T13:34:41.999Z</time></trkpt><trkpt lat="45.67846470524383" lon="9.904683838842022"><ele>557.8</ele><time>2026-04-26T13:34:43.999Z</time></trkpt><trkpt lat="45.67840802152358" lon="9.904606192182671"><ele>560.4</ele><time>2026-04-26T13:34:47.999Z</time></trkpt><trkpt lat="45.678378516647804" lon="9.904477689249914"><ele>563.0</ele><time>2026-04-26T13:34:49.999Z</time></trkpt><trkpt lat="45.67829227531676" lon="9.904400596212042"><ele>563.0</ele><time>2026-04-26T13:34:51.999Z</time></trkpt><trkpt lat="45.67820243006434" lon="9.904360650343403"><ele>563.0</ele><time>2026-04-26T13:34:53.999Z</time></trkpt><trkpt lat="45.67813739645645" lon="9.90432930114611"><ele>563.0</ele><time>2026-04-26T13:34:54.999Z</time></trkpt><trkpt lat="45.67802365596187" lon="9.904249776619233"><ele>563.0</ele><time>2026-04-26T13:34:56.999Z</time></trkpt><trkpt lat="45.67792297731889" lon="9.9041359943905"><ele>563.0</ele><time>2026-04-26T13:34:58.999Z</time></trkpt><trkpt lat="45.677860917679645" lon="9.904084808747037"><ele>561.0</ele><time>2026-04-26T13:34:59.999Z</time></trkpt><trkpt lat="45.67779808871787" lon="9.904012655308264"><ele>559.0</ele><time>2026-04-26T13:35:00.999Z</time></trkpt><trkpt lat="45.67771213285351" lon="9.903958896948946"><ele>557.0</ele><time>2026-04-26T13:35:01.999Z</time></trkpt><trkpt lat="45.67763756712897" lon="9.903892217699308"><ele>555.0</ele><time>2026-04-26T13:35:02.999Z</time></trkpt><trkpt lat="45.6775721903375" lon="9.90383381327667"><ele>553.0</ele><time>2026-04-26T13:35:03.999Z</time></trkpt><trkpt lat="45.67748447888459" lon="9.903723353843935"><ele>553.0</ele><time>2026-04-26T13:35:05.999Z</time></trkpt><trkpt lat="45.677427715137945" lon="9.903676279068426"><ele>553.0</ele><time>2026-04-26T13:35:06.999Z</time></trkpt><trkpt lat="45.67733519656822" lon="9.903599573387485"><ele>553.0</ele><time>2026-04-26T13:35:08.999Z</time></trkpt><trkpt lat="45.677280455618224" lon="9.903552330180048"><ele>553.0</ele><time>2026-04-26T13:35:09.999Z</time></trkpt><trkpt lat="45.67721424157018" lon="9.903519928506057"><ele>553.0</ele><time>2026-04-26T13:35:10.999Z</time></trkpt><trkpt lat="45.677112631524366" lon="9.903435722293315"><ele>553.0</ele><time>2026-04-26T13:35:12.999Z</time></trkpt><trkpt lat="45.677050949858355" lon="9.90339912169002"><ele>550.3333333333334</ele><time>2026-04-26T13:35:13.999Z</time></trkpt><trkpt lat="45.67698618072187" lon="9.903347914096695"><ele>547.6666666666667</ele><time>2026-04-26T13:35:14.999Z</time></trkpt><trkpt lat="45.67691660109135" lon="9.903303915365706"><ele>545.0</ele><time>2026-04-26T13:35:15.999Z</time></trkpt><trkpt lat="45.676843923424606" lon="9.903261011798243"><ele>542.3333333333334</ele><time>2026-04-26T13:35:16.999Z</time></trkpt><trkpt lat="45.676763305599906" lon="9.903223807653749"><ele>539.6666666666666</ele><time>2026-04-26T13:35:17.999Z</time></trkpt><trkpt lat="45.67669562487191" lon="9.903189168092885"><ele>537.0</ele><time>2026-04-26T13:35:18.999Z</time></trkpt><trkpt lat="45.67659534587973" lon="9.903161799522161"><ele>537.0</ele><time>2026-04-26T13:35:20.999Z</time></trkpt><trkpt lat="45.67654942961503" lon="9.90308430138782"><ele>537.0</ele><time>2026-04-26T13:35:21.999Z</time></trkpt><trkpt lat="45.676474131705916" lon="9.902945242941183"><ele>537.0</ele><time>2026-04-26T13:35:22.999Z</time></trkpt><trkpt lat="45.676402446839944" lon="9.902833965056212"><ele>537.0</ele><time>2026-04-26T13:35:23.999Z</time></trkpt><trkpt lat="45.6763452666869" lon="9.90275778850804"><ele>537.0</ele><time>2026-04-26T13:35:24.999Z</time></trkpt><trkpt lat="45.67626725835968" lon="9.90263837317267"><ele>534.8333333333334</ele><time>2026-04-26T13:35:26.999Z</time></trkpt><trkpt lat="45.67619190708754" lon="9.90248220064182"><ele>532.6666666666666</ele><time>2026-04-26T13:35:28.999Z</time></trkpt><trkpt lat="45.676145327309506" lon="9.902390213173065"><ele>530.5</ele><time>2026-04-26T13:35:29.999Z</time></trkpt><trkpt lat="45.67610289445113" lon="9.902307585574471"><ele>528.3333333333333</ele><time>2026-04-26T13:35:30.999Z</time></trkpt><trkpt lat="45.67607632777795" lon="9.902225109154655"><ele>526.1666666666666</ele><time>2026-04-26T13:35:31.999Z</time></trkpt><trkpt lat="45.67606352012625" lon="9.902085183348865"><ele>524.0</ele><time>2026-04-26T13:35:33.999Z</time></trkpt><trkpt lat="45.67606592721468" lon="9.901933098235926"><ele>524.0</ele><time>2026-04-26T13:35:35.999Z</time></trkpt><trkpt lat="45.67603672480449" lon="9.901834533069355"><ele>524.0</ele><time>2026-04-26T13:35:36.999Z</time></trkpt><trkpt lat="45.67597822467657" lon="9.90174201529618"><ele>524.0</ele><time>2026-04-26T13:35:37.999Z</time></trkpt><trkpt lat="45.67592531416643" lon="9.901629304379998"><ele>524.0</ele><time>2026-04-26T13:35:38.999Z</time></trkpt><trkpt lat="45.675868118596455" lon="9.901500309414653"><ele>524.0</ele><time>2026-04-26T13:35:39.999Z</time></trkpt><trkpt lat="45.67580772196967" lon="9.901372426156302"><ele>524.0</ele><time>2026-04-26T13:35:40.999Z</time></trkpt><trkpt lat="45.67573967252818" lon="9.901244365838062"><ele>524.0</ele><time>2026-04-26T13:35:41.999Z</time></trkpt><trkpt lat="45.67567459484147" lon="9.901131259076376"><ele>524.0</ele><time>2026-04-26T13:35:42.999Z</time></trkpt><trkpt lat="45.675609899728585" lon="9.901023728750262"><ele>524.0</ele><time>2026-04-26T13:35:43.999Z</time></trkpt><trkpt lat="45.67555367195022" lon="9.900941163455263"><ele>524.0</ele><time>2026-04-26T13:35:44.999Z</time></trkpt><trkpt lat="45.675502965117104" lon="9.900881138664808"><ele>524.0</ele><time>2026-04-26T13:35:46Z</time></trkpt><trkpt lat="45.675445228077045" lon="9.900837569452591"><ele>524.0</ele><time>2026-04-26T13:35:47Z</time></trkpt><trkpt lat="45.67539186968262" lon="9.900684336878788"><ele>524.0</ele><time>2026-04-26T13:35:49Z</time></trkpt><trkpt lat="45.675385763917006" lon="9.900564821059588"><ele>524.0</ele><time>2026-04-26T13:35:50Z</time></trkpt><trkpt lat="45.67537830172903" lon="9.90046851135962"><ele>524.0</ele><time>2026-04-26T13:35:51Z</time></trkpt><trkpt lat="45.675366391330016" lon="9.900371536076122"><ele>524.0</ele><time>2026-04-26T13:35:52Z</time></trkpt><trkpt lat="45.6753367411423" lon="9.900275315046114"><ele>524.0</ele><time>2026-04-26T13:35:53Z</time></trkpt><trkpt lat="45.67530966502183" lon="9.90018213935846"><ele>524.0</ele><time>2026-04-26T13:35:54Z</time></trkpt><trkpt lat="45.675278054198934" lon="9.900082184177835"><ele>524.0</ele><time>2026-04-26T13:35:55Z</time></trkpt><trkpt lat="45.67523581157124" lon="9.899986836459698"><ele>524.0</ele><time>2026-04-26T13:35:56Z</time></trkpt><trkpt lat="45.675193063574994" lon="9.899880040804774"><ele>524.0</ele><time>2026-04-26T13:35:57Z</time></trkpt><trkpt lat="45.675152266128755" lon="9.899757247752337"><ele>524.0</ele><time>2026-04-26T13:35:58Z</time></trkpt><trkpt lat="45.67509903838115" lon="9.89963609299245"><ele>523.5</ele><time>2026-04-26T13:35:59Z</time></trkpt><trkpt lat="45.675045268613594" lon="9.899530909607495"><ele>523.0</ele><time>2026-04-26T13:36:00Z</time></trkpt><trkpt lat="45.674988039434126" lon="9.899447828684298"><ele>522.5</ele><time>2026-04-26T13:36:01Z</time></trkpt><trkpt lat="45.67493859173638" lon="9.89936561765835"><ele>522.0</ele><time>2026-04-26T13:36:02Z</time></trkpt><trkpt lat="45.674871663705304" lon="9.899309383756211"><ele>521.5</ele><time>2026-04-26T13:36:03Z</time></trkpt><trkpt lat="45.67477580521561" lon="9.899226693605815"><ele>521.0</ele><time>2026-04-26T13:36:05Z</time></trkpt><trkpt lat="45.67474716705876" lon="9.899116932344256"><ele>521.0</ele><time>2026-04-26T13:36:07Z</time></trkpt><trkpt lat="45.67472463093297" lon="9.898944263099516"><ele>521.0</ele><time>2026-04-26T13:36:09Z</time></trkpt><trkpt lat="45.67470757956685" lon="9.898838072696975"><ele>521.0</ele><time>2026-04-26T13:36:10Z</time></trkpt><trkpt lat="45.67468330178646" lon="9.898707384291976"><ele>521.0</ele><time>2026-04-26T13:36:11Z</time></trkpt><trkpt lat="45.674671489001724" lon="9.898581729354452"><ele>521.0</ele><time>2026-04-26T13:36:12Z</time></trkpt><trkpt lat="45.674676516941176" lon="9.898467155064338"><ele>521.1666666666666</ele><time>2026-04-26T13:36:13Z</time></trkpt><trkpt lat="45.67467899855145" lon="9.898366624846934"><ele>521.3333333333333</ele><time>2026-04-26T13:36:14Z</time></trkpt><trkpt lat="45.67466713014816" lon="9.898257796086757"><ele>521.5</ele><time>2026-04-26T13:36:15Z</time></trkpt><trkpt lat="45.67464074581106" lon="9.898149233885073"><ele>521.6666666666666</ele><time>2026-04-26T13:36:16Z</time></trkpt><trkpt lat="45.67459877060063" lon="9.897998225704864"><ele>521.8333333333334</ele><time>2026-04-26T13:36:18Z</time></trkpt><trkpt lat="45.67455723147297" lon="9.89789237926618"><ele>522.0</ele><time>2026-04-26T13:36:20Z</time></trkpt><trkpt lat="45.67452474260531" lon="9.897762294637616"><ele>522.0</ele><time>2026-04-26T13:36:22Z</time></trkpt><trkpt lat="45.674510286422944" lon="9.897638537927195"><ele>522.0</ele><time>2026-04-26T13:36:24Z</time></trkpt><trkpt lat="45.67448980823251" lon="9.897551992541333"><ele>522.0</ele><time>2026-04-26T13:36:25Z</time></trkpt><trkpt lat="45.67445909859801" lon="9.897437744829949"><ele>522.0</ele><time>2026-04-26T13:36:27Z</time></trkpt><trkpt lat="45.674460375294586" lon="9.897265907275143"><ele>522.0</ele><time>2026-04-26T13:36:29Z</time></trkpt><trkpt lat="45.674439183038864" lon="9.897094595396135"><ele>521.0</ele><time>2026-04-26T13:36:31Z</time></trkpt><trkpt lat="45.67441082539204" lon="9.897001856000287"><ele>520.0</ele><time>2026-04-26T13:36:32Z</time></trkpt><trkpt lat="45.67439237317099" lon="9.896906342647773"><ele>519.0</ele><time>2026-04-26T13:36:33Z</time></trkpt><trkpt lat="45.674370718006806" lon="9.896800042408364"><ele>518.0</ele><time>2026-04-26T13:36:34Z</time></trkpt><trkpt lat="45.67433791479476" lon="9.89671973735539"><ele>517.0</ele><time>2026-04-26T13:36:35Z</time></trkpt><trkpt lat="45.67429917444092" lon="9.896634608592409"><ele>516.0</ele><time>2026-04-26T13:36:36Z</time></trkpt><trkpt lat="45.67427239200564" lon="9.896531482390968"><ele>515.0</ele><time>2026-04-26T13:36:37Z</time></trkpt><trkpt lat="45.674247424638494" lon="9.896435550287876"><ele>515.0</ele><time>2026-04-26T13:36:38Z</time></trkpt><trkpt lat="45.674220102258396" lon="9.896352779360623"><ele>515.0</ele><time>2026-04-26T13:36:39Z</time></trkpt><trkpt lat="45.67418393527584" lon="9.896271317301938"><ele>515.0</ele><time>2026-04-26T13:36:40Z</time></trkpt><trkpt lat="45.674146253958426" lon="9.896174620647818"><ele>515.0</ele><time>2026-04-26T13:36:41Z</time></trkpt><trkpt lat="45.67410778852604" lon="9.896057650162318"><ele>515.0</ele><time>2026-04-26T13:36:42Z</time></trkpt><trkpt lat="45.6740749767381" lon="9.895933633431484"><ele>515.0</ele><time>2026-04-26T13:36:42.999Z</time></trkpt><trkpt lat="45.67404784486965" lon="9.895819806408683"><ele>516.8333333333333</ele><time>2026-04-26T13:36:43.999Z</time></trkpt><trkpt lat="45.67401446184678" lon="9.895716925539938"><ele>518.6666666666666</ele><time>2026-04-26T13:36:44.999Z</time></trkpt><trkpt lat="45.673974832157406" lon="9.895625959121297"><ele>520.5</ele><time>2026-04-26T13:36:45.999Z</time></trkpt><trkpt lat="45.673935595524064" lon="9.895529111024828"><ele>522.3333333333334</ele><time>2026-04-26T13:36:46.999Z</time></trkpt><trkpt lat="45.673898661743046" lon="9.895396346072296"><ele>524.1666666666667</ele><time>2026-04-26T13:36:47.999Z</time></trkpt><trkpt lat="45.67386216895442" lon="9.895269920419846"><ele>526.0</ele><time>2026-04-26T13:36:48.999Z</time></trkpt><trkpt lat="45.67381996130796" lon="9.895163728578435"><ele>526.6666666666667</ele><time>2026-04-26T13:36:49.999Z</time></trkpt><trkpt lat="45.673761334675945" lon="9.895072741470281"><ele>527.3333333333334</ele><time>2026-04-26T13:36:50.999Z</time></trkpt><trkpt lat="45.67371494046949" lon="9.894980407540436"><ele>528.0</ele><time>2026-04-26T13:36:51.999Z</time></trkpt><trkpt lat="45.67368238853706" lon="9.894865941426085"><ele>528.6666666666666</ele><time>2026-04-26T13:36:52.999Z</time></trkpt><trkpt lat="45.673647996177294" lon="9.89474021367381"><ele>529.3333333333333</ele><time>2026-04-26T13:36:53.999Z</time></trkpt><trkpt lat="45.67361732535754" lon="9.894628450527822"><ele>530.0</ele><time>2026-04-26T13:36:54.999Z</time></trkpt><trkpt lat="45.67360412716434" lon="9.8945281923057"><ele>523.5</ele><time>2026-04-26T13:36:55.999Z</time></trkpt><trkpt lat="45.6735678253413" lon="9.894401950101907"><ele>517.0</ele><time>2026-04-26T13:36:57.999Z</time></trkpt><trkpt lat="45.67352750448602" lon="9.894245742769245"><ele>510.5</ele><time>2026-04-26T13:36:59.999Z</time></trkpt><trkpt lat="45.67351966862431" lon="9.894062994031353"><ele>504.0</ele><time>2026-04-26T13:37:01.999Z</time></trkpt><trkpt lat="45.67349903832909" lon="9.89389815536927"><ele>504.0</ele><time>2026-04-26T13:37:03.999Z</time></trkpt><trkpt lat="45.673444014981335" lon="9.89373628176957"><ele>504.0</ele><time>2026-04-26T13:37:05.999Z</time></trkpt><trkpt lat="45.67341018496894" lon="9.89365031012545"><ele>504.0</ele><time>2026-04-26T13:37:06.999Z</time></trkpt><trkpt lat="45.67338813166175" lon="9.893549536858435"><ele>504.0</ele><time>2026-04-26T13:37:07.999Z</time></trkpt><trkpt lat="45.673362537392805" lon="9.893438139689463"><ele>504.0</ele><time>2026-04-26T13:37:08.999Z</time></trkpt><trkpt lat="45.6733262814236" lon="9.893335546541325"><ele>504.0</ele><time>2026-04-26T13:37:09.999Z</time></trkpt><trkpt lat="45.67323508986796" lon="9.893223676282105"><ele>505.5</ele><time>2026-04-26T13:37:11.999Z</time></trkpt><trkpt lat="45.67313507086092" lon="9.893139372705468"><ele>507.0</ele><time>2026-04-26T13:37:13.999Z</time></trkpt><trkpt lat="45.67304533499328" lon="9.893103200551801"><ele>508.5</ele><time>2026-04-26T13:37:15.999Z</time></trkpt><trkpt lat="45.67300275190106" lon="9.893017655128961"><ele>510.0</ele><time>2026-04-26T13:37:16.999Z</time></trkpt><trkpt lat="45.672942413960044" lon="9.892918231652004"><ele>511.5</ele><time>2026-04-26T13:37:17.999Z</time></trkpt><trkpt lat="45.67289448448687" lon="9.892836440919734"><ele>513.0</ele><time>2026-04-26T13:37:18.999Z</time></trkpt><trkpt lat="45.672833591997" lon="9.892711071729671"><ele>510.0</ele><time>2026-04-26T13:37:20.999Z</time></trkpt><trkpt lat="45.67276459234047" lon="9.892624364098493"><ele>506.99999999999994</ele><time>2026-04-26T13:37:22.999Z</time></trkpt><trkpt lat="45.672695358811126" lon="9.892538131419522"><ele>503.99999999999994</ele><time>2026-04-26T13:37:24.999Z</time></trkpt><trkpt lat="45.6726357086945" lon="9.892383813478197"><ele>501.0</ele><time>2026-04-26T13:37:27.999Z</time></trkpt><trkpt lat="45.67258961736886" lon="9.892299116487075"><ele>498.0</ele><time>2026-04-26T13:37:28.999Z</time></trkpt><trkpt lat="45.67249604259064" lon="9.892216969881378"><ele>498.0</ele><time>2026-04-26T13:37:30.999Z</time></trkpt><trkpt lat="45.67238042837201" lon="9.89216838125248"><ele>497.99999999999994</ele><time>2026-04-26T13:37:32.999Z</time></trkpt><trkpt lat="45.672304098564375" lon="9.892144911520402"><ele>497.99999999999994</ele><time>2026-04-26T13:37:33.999Z</time></trkpt><trkpt lat="45.67223060102713" lon="9.892090720011058"><ele>498.0</ele><time>2026-04-26T13:37:34.999Z</time></trkpt><trkpt lat="45.672129236962114" lon="9.891962154130344"><ele>498.0</ele><time>2026-04-26T13:37:35.999Z</time></trkpt><trkpt lat="45.67204903630392" lon="9.8918923277381"><ele>498.0</ele><time>2026-04-26T13:37:36.999Z</time></trkpt><trkpt lat="45.671974447089326" lon="9.891800276782163"><ele>497.99999999999994</ele><time>2026-04-26T13:37:37.999Z</time></trkpt><trkpt lat="45.67186565643651" lon="9.891758259365748"><ele>497.99999999999994</ele><time>2026-04-26T13:37:39.999Z</time></trkpt><trkpt lat="45.671821765776535" lon="9.891686464536674"><ele>498.0</ele><time>2026-04-26T13:37:40.999Z</time></trkpt><trkpt lat="45.67174141063362" lon="9.891574322953936"><ele>498.0</ele><time>2026-04-26T13:37:42.999Z</time></trkpt><trkpt lat="45.67166906593232" lon="9.891535199437845"><ele>500.8333333333333</ele><time>2026-04-26T13:37:43.999Z</time></trkpt><trkpt lat="45.67159550928487" lon="9.891438243704354"><ele>503.66666666666663</ele><time>2026-04-26T13:37:44.999Z</time></trkpt><trkpt lat="45.671529553954" lon="9.891362343707758"><ele>506.5</ele><time>2026-04-26T13:37:45.999Z</time></trkpt><trkpt lat="45.67147708889845" lon="9.89129119069064"><ele>509.3333333333333</ele><time>2026-04-26T13:37:46.999Z</time></trkpt><trkpt lat="45.67144496167397" lon="9.891205573754407"><ele>512.1666666666666</ele><time>2026-04-26T13:37:48.999Z</time></trkpt><trkpt lat="45.671480785911655" lon="9.891123070231167"><ele>515.0</ele><time>2026-04-26T13:37:50.999Z</time></trkpt><trkpt lat="45.67148837225992" lon="9.891015678479265"><ele>512.4</ele><time>2026-04-26T13:37:53Z</time></trkpt><trkpt lat="45.67148638659949" lon="9.890905186907785"><ele>509.8</ele><time>2026-04-26T13:37:55Z</time></trkpt><trkpt lat="45.67146346048876" lon="9.890804239317369"><ele>507.20000000000005</ele><time>2026-04-26T13:37:58Z</time></trkpt><trkpt lat="45.671420542397925" lon="9.890582654478575"><ele>504.6</ele><time>2026-04-26T13:38:00Z</time></trkpt><trkpt lat="45.671363314147214" lon="9.890467144268648"><ele>502.0</ele><time>2026-04-26T13:38:02Z</time></trkpt><trkpt lat="45.67128595772883" lon="9.8903872649782"><ele>502.00000000000006</ele><time>2026-04-26T13:38:04Z</time></trkpt><trkpt lat="45.67122919575083" lon="9.890309803619516"><ele>502.0</ele><time>2026-04-26T13:38:06Z</time></trkpt><trkpt lat="45.67113888339543" lon="9.890224718487213"><ele>502.0</ele><time>2026-04-26T13:38:08Z</time></trkpt><trkpt lat="45.67108175362839" lon="9.890125660653712"><ele>502.0</ele><time>2026-04-26T13:38:09Z</time></trkpt><trkpt lat="45.671028692168505" lon="9.890038519978296"><ele>502.00000000000006</ele><time>2026-04-26T13:38:10Z</time></trkpt><trkpt lat="45.67100016639289" lon="9.889952268548322"><ele>502.0</ele><time>2026-04-26T13:38:11Z</time></trkpt><trkpt lat="45.6710471600858" lon="9.889866363470915"><ele>507.33333333333337</ele><time>2026-04-26T13:38:12Z</time></trkpt><trkpt lat="45.67106358964184" lon="9.889712201595795"><ele>512.6666666666667</ele><time>2026-04-26T13:38:14Z</time></trkpt><trkpt lat="45.67104188027111" lon="9.889625013212635"><ele>518.0</ele><time>2026-04-26T13:38:16Z</time></trkpt><trkpt lat="45.67098970411659" lon="9.889562681590292"><ele>523.3333333333334</ele><time>2026-04-26T13:38:18Z</time></trkpt><trkpt lat="45.67092069960589" lon="9.88950786161083"><ele>528.6666666666666</ele><time>2026-04-26T13:38:19Z</time></trkpt><trkpt lat="45.670815362791316" lon="9.889423721476312"><ele>534.0</ele><time>2026-04-26T13:38:20Z</time></trkpt><trkpt lat="45.670707807753146" lon="9.88934641201357"><ele>534.0</ele><time>2026-04-26T13:38:22Z</time></trkpt><trkpt lat="45.670656124010996" lon="9.889286454351678"><ele>534.0</ele><time>2026-04-26T13:38:25Z</time></trkpt><trkpt lat="45.67057563685736" lon="9.889198357555784"><ele>534.0</ele><time>2026-04-26T13:38:27Z</time></trkpt><trkpt lat="45.67048218905861" lon="9.889119016985713"><ele>534.0</ele><time>2026-04-26T13:38:29Z</time></trkpt><trkpt lat="45.67041863896164" lon="9.889064445944504"><ele>534.0</ele><time>2026-04-26T13:38:30Z</time></trkpt><trkpt lat="45.67034975128287" lon="9.889018331065166"><ele>534.0</ele><time>2026-04-26T13:38:31Z</time></trkpt><trkpt lat="45.670283366655" lon="9.888963452887621"><ele>529.2</ele><time>2026-04-26T13:38:32Z</time></trkpt><trkpt lat="45.670218123982764" lon="9.888898009334723"><ele>524.4</ele><time>2026-04-26T13:38:33Z</time></trkpt><trkpt lat="45.670178157286905" lon="9.888798402986133"><ele>519.6</ele><time>2026-04-26T13:38:34Z</time></trkpt><trkpt lat="45.67015441423686" lon="9.888660959871265"><ele>514.8</ele><time>2026-04-26T13:38:35Z</time></trkpt><trkpt lat="45.67012939066928" lon="9.888545536328097"><ele>510.0</ele><time>2026-04-26T13:38:36Z</time></trkpt><trkpt lat="45.670050269354405" lon="9.888440636008475"><ele>509.6666666666667</ele><time>2026-04-26T13:38:38Z</time></trkpt><trkpt lat="45.66994813089596" lon="9.88840277689141"><ele>509.33333333333337</ele><time>2026-04-26T13:38:40Z</time></trkpt><trkpt lat="45.66989269639894" lon="9.888258122622027"><ele>509.0</ele><time>2026-04-26T13:38:42Z</time></trkpt><trkpt lat="45.669849332216856" lon="9.888172462268331"><ele>508.6666666666667</ele><time>2026-04-26T13:38:43Z</time></trkpt><trkpt lat="45.66980251871934" lon="9.888076577705046"><ele>508.33333333333337</ele><time>2026-04-26T13:38:44Z</time></trkpt><trkpt lat="45.66975775051349" lon="9.887998564043622"><ele>508.0</ele><time>2026-04-26T13:38:45Z</time></trkpt><trkpt lat="45.669720310792215" lon="9.887916078221261"><ele>508.00000000000006</ele><time>2026-04-26T13:38:46Z</time></trkpt><trkpt lat="45.66967123174126" lon="9.887824551485268"><ele>508.0</ele><time>2026-04-26T13:38:47Z</time></trkpt><trkpt lat="45.669623487721985" lon="9.887730664590151"><ele>508.0</ele><time>2026-04-26T13:38:48Z</time></trkpt><trkpt lat="45.66956520447971" lon="9.88763096453629"><ele>508.0</ele><time>2026-04-26T13:38:48.999Z</time></trkpt><trkpt lat="45.66952695823592" lon="9.887535125128213"><ele>508.00000000000006</ele><time>2026-04-26T13:38:49.999Z</time></trkpt><trkpt lat="45.66949163159709" lon="9.887447224651561"><ele>508.0</ele><time>2026-04-26T13:38:50.999Z</time></trkpt><trkpt lat="45.66946208946582" lon="9.887366921898659"><ele>504.33333333333337</ele><time>2026-04-26T13:38:51.999Z</time></trkpt><trkpt lat="45.66939327396746" lon="9.887285695133066"><ele>500.6666666666667</ele><time>2026-04-26T13:38:53.999Z</time></trkpt><trkpt lat="45.66935946759997" lon="9.887172540235985"><ele>497.0</ele><time>2026-04-26T13:38:55.999Z</time></trkpt><trkpt lat="45.66934840798539" lon="9.887064836239304"><ele>493.33333333333337</ele><time>2026-04-26T13:38:56.999Z</time></trkpt><trkpt lat="45.66932340441737" lon="9.886965780592497"><ele>489.6666666666667</ele><time>2026-04-26T13:38:57.999Z</time></trkpt><trkpt lat="45.669300557341415" lon="9.886854476021421"><ele>486.0</ele><time>2026-04-26T13:38:58.999Z</time></trkpt><trkpt lat="45.66928934927996" lon="9.88672710321869"><ele>486.0</ele><time>2026-04-26T13:38:59.999Z</time></trkpt><trkpt lat="45.66927847077286" lon="9.886616311750666"><ele>486.0</ele><time>2026-04-26T13:39:00.999Z</time></trkpt><trkpt lat="45.669265497036044" lon="9.886524375348836"><ele>486.0</ele><time>2026-04-26T13:39:01.999Z</time></trkpt><trkpt lat="45.66922486474159" lon="9.886425338767632"><ele>486.0</ele><time>2026-04-26T13:39:02.999Z</time></trkpt><trkpt lat="45.66916420180083" lon="9.8863431005535"><ele>486.0</ele><time>2026-04-26T13:39:03.999Z</time></trkpt><trkpt lat="45.6691365469979" lon="9.88624706296134"><ele>486.0</ele><time>2026-04-26T13:39:04.999Z</time></trkpt><trkpt lat="45.669097263547464" lon="9.886110906540402"><ele>486.0</ele><time>2026-04-26T13:39:05.999Z</time></trkpt><trkpt lat="45.669059597601986" lon="9.88597865962413"><ele>486.0</ele><time>2026-04-26T13:39:06.999Z</time></trkpt><trkpt lat="45.66903455672076" lon="9.88586728006011"><ele>486.0</ele><time>2026-04-26T13:39:07.999Z</time></trkpt><trkpt lat="45.66901634646947" lon="9.885748833655775"><ele>486.0</ele><time>2026-04-26T13:39:08.999Z</time></trkpt><trkpt lat="45.669000634192756" lon="9.88562427550263"><ele>486.0</ele><time>2026-04-26T13:39:09.999Z</time></trkpt><trkpt lat="45.66900389553036" lon="9.885502460959101"><ele>486.0</ele><time>2026-04-26T13:39:10.999Z</time></trkpt><trkpt lat="45.66898224298402" lon="9.885393693389398"><ele>486.8333333333333</ele><time>2026-04-26T13:39:11.999Z</time></trkpt><trkpt lat="45.66893436836251" lon="9.88526919453902"><ele>487.66666666666663</ele><time>2026-04-26T13:39:12.999Z</time></trkpt><trkpt lat="45.66888942156611" lon="9.88513426781092"><ele>488.5</ele><time>2026-04-26T13:39:13.999Z</time></trkpt><trkpt lat="45.668858900128775" lon="9.885023801354668"><ele>489.3333333333333</ele><time>2026-04-26T13:39:14.999Z</time></trkpt><trkpt lat="45.668841459509466" lon="9.884927464661368"><ele>490.16666666666663</ele><time>2026-04-26T13:39:15.999Z</time></trkpt><trkpt lat="45.66885385232628" lon="9.884818062977326"><ele>491.0</ele><time>2026-04-26T13:39:16.999Z</time></trkpt><trkpt lat="45.66881520169934" lon="9.884663589769842"><ele>492.0</ele><time>2026-04-26T13:39:18.999Z</time></trkpt><trkpt lat="45.66872520355352" lon="9.88451464671686"><ele>493.0</ele><time>2026-04-26T13:39:20.999Z</time></trkpt><trkpt lat="45.668650380570675" lon="9.884459584854632"><ele>494.0</ele><time>2026-04-26T13:39:21.999Z</time></trkpt><trkpt lat="45.668578524436136" lon="9.88443213482338"><ele>495.0</ele><time>2026-04-26T13:39:22.999Z</time></trkpt><trkpt lat="45.66846757570573" lon="9.884535820544654"><ele>496.0</ele><time>2026-04-26T13:39:24.999Z</time></trkpt><trkpt lat="45.668379648009484" lon="9.884603941648377"><ele>496.0</ele><time>2026-04-26T13:39:25.999Z</time></trkpt><trkpt lat="45.668279403046576" lon="9.884664573490321"><ele>496.0</ele><time>2026-04-26T13:39:26.999Z</time></trkpt><trkpt lat="45.66816509780717" lon="9.88469404558931"><ele>496.0</ele><time>2026-04-26T13:39:27.999Z</time></trkpt><trkpt lat="45.66806473347597" lon="9.884753873763362"><ele>496.0</ele><time>2026-04-26T13:39:28.999Z</time></trkpt><trkpt lat="45.66798000667838" lon="9.884769774147856"><ele>496.0</ele><time>2026-04-26T13:39:29.999Z</time></trkpt><trkpt lat="45.667903203180636" lon="9.884781818587356"><ele>496.0</ele><time>2026-04-26T13:39:30.999Z</time></trkpt><trkpt lat="45.66781049937265" lon="9.884758820984114"><ele>496.0</ele><time>2026-04-26T13:39:32.999Z</time></trkpt><trkpt lat="45.66772815551541" lon="9.884764667547758"><ele>496.0</ele><time>2026-04-26T13:40:26Z</time></trkpt><trkpt lat="45.66761020930422" lon="9.88474631879601"><ele>496.0</ele><time>2026-04-26T13:40:28Z</time></trkpt><trkpt lat="45.667537347888974" lon="9.884718653385995"><ele>496.0</ele><time>2026-04-26T13:40:29Z</time></trkpt><trkpt lat="45.66746687261983" lon="9.8846422314536"><ele>496.8</ele><time>2026-04-26T13:40:30Z</time></trkpt><trkpt lat="45.66737981305858" lon="9.884599108847905"><ele>497.6</ele><time>2026-04-26T13:40:31Z</time></trkpt><trkpt lat="45.667283650695175" lon="9.884581490176716"><ele>498.4</ele><time>2026-04-26T13:40:32Z</time></trkpt><trkpt lat="45.667163897657645" lon="9.884618880857824"><ele>499.2</ele><time>2026-04-26T13:40:33Z</time></trkpt><trkpt lat="45.66705778182859" lon="9.884657703685358"><ele>500.0</ele><time>2026-04-26T13:40:34Z</time></trkpt><trkpt lat="45.666953436673005" lon="9.884676722331601"><ele>498.4</ele><time>2026-04-26T13:40:35Z</time></trkpt><trkpt lat="45.66684096775999" lon="9.884678374528555"><ele>496.8</ele><time>2026-04-26T13:40:36Z</time></trkpt><trkpt lat="45.66673148803597" lon="9.88468314989286"><ele>495.20000000000005</ele><time>2026-04-26T13:40:37Z</time></trkpt><trkpt lat="45.66663290240802" lon="9.884693156649393"><ele>493.6</ele><time>2026-04-26T13:40:38Z</time></trkpt><trkpt lat="45.66653676169932" lon="9.884717812477348"><ele>492.0</ele><time>2026-04-26T13:40:39Z</time></trkpt><trkpt lat="45.66645261748258" lon="9.884782443477027"><ele>492.0</ele><time>2026-04-26T13:40:40Z</time></trkpt><trkpt lat="45.66636699332131" lon="9.884813417168628"><ele>492.00000000000006</ele><time>2026-04-26T13:40:41Z</time></trkpt><trkpt lat="45.66625897538887" lon="9.884848446156928"><ele>492.00000000000006</ele><time>2026-04-26T13:40:43Z</time></trkpt><trkpt lat="45.66617731635642" lon="9.884899944142322"><ele>492.0</ele><time>2026-04-26T13:41:18.999Z</time></trkpt><trkpt lat="45.6660665384587" lon="9.884913592097908"><ele>492.0</ele><time>2026-04-26T13:41:20.999Z</time></trkpt><trkpt lat="45.66598664111391" lon="9.884907675089044"><ele>493.1666666666667</ele><time>2026-04-26T13:41:21.999Z</time></trkpt><trkpt lat="45.665900801871246" lon="9.884915068860188"><ele>494.33333333333337</ele><time>2026-04-26T13:41:22.999Z</time></trkpt><trkpt lat="45.665812486075104" lon="9.88493995298415"><ele>495.5</ele><time>2026-04-26T13:41:23.999Z</time></trkpt><trkpt lat="45.66572657375242" lon="9.884982903668137"><ele>496.6666666666667</ele><time>2026-04-26T13:41:24.999Z</time></trkpt><trkpt lat="45.665643612923894" lon="9.884958569770212"><ele>497.83333333333337</ele><time>2026-04-26T13:41:25.999Z</time></trkpt><trkpt lat="45.66557635515157" lon="9.88496068636162"><ele>499.0</ele><time>2026-04-26T13:41:26.999Z</time></trkpt><trkpt lat="45.665507756968815" lon="9.884912131117593"><ele>499.00000000000006</ele><time>2026-04-26T13:41:27.999Z</time></trkpt><trkpt lat="45.66544049273649" lon="9.88489511244178"><ele>499.0</ele><time>2026-04-26T13:41:28.999Z</time></trkpt><trkpt lat="45.665359901647186" lon="9.8849053359761"><ele>499.0</ele><time>2026-04-26T13:41:30.999Z</time></trkpt><trkpt lat="45.665269159087394" lon="9.88496622553989"><ele>499.0</ele><time>2026-04-26T13:41:32.999Z</time></trkpt><trkpt lat="45.66520391180024" lon="9.884986033927142"><ele>499.00000000000006</ele><time>2026-04-26T13:41:33.999Z</time></trkpt><trkpt lat="45.66513322820839" lon="9.884980960807127"><ele>499.0</ele><time>2026-04-26T13:41:34.999Z</time></trkpt><trkpt lat="45.66504941835795" lon="9.884978536437336"><ele>499.79999999999995</ele><time>2026-04-26T13:41:35.999Z</time></trkpt><trkpt lat="45.66496113497276" lon="9.884987383237975"><ele>500.59999999999997</ele><time>2026-04-26T13:41:36.999Z</time></trkpt><trkpt lat="45.66486950158723" lon="9.88501917787253"><ele>501.4</ele><time>2026-04-26T13:41:37.999Z</time></trkpt><trkpt lat="45.664787616255666" lon="9.885116964266809"><ele>502.2</ele><time>2026-04-26T13:41:38.999Z</time></trkpt><trkpt lat="45.66470005234904" lon="9.885205342932753"><ele>503.0</ele><time>2026-04-26T13:41:39.999Z</time></trkpt><trkpt lat="45.66459406951531" lon="9.88527810179674"><ele>500.25</ele><time>2026-04-26T13:41:40.999Z</time></trkpt><trkpt lat="45.664495033355955" lon="9.885364140916849"><ele>497.5</ele><time>2026-04-26T13:41:41.999Z</time></trkpt><trkpt lat="45.664398269421675" lon="9.885442814315864"><ele>494.75</ele><time>2026-04-26T13:41:42.999Z</time></trkpt><trkpt lat="45.66429296361591" lon="9.885526135088075"><ele>492.0</ele><time>2026-04-26T13:41:43.999Z</time></trkpt><trkpt lat="45.66418228166545" lon="9.88561487049792"><ele>492.0</ele><time>2026-04-26T13:41:44.999Z</time></trkpt><trkpt lat="45.66408102503191" lon="9.885687706062516"><ele>492.00000000000006</ele><time>2026-04-26T13:41:45.999Z</time></trkpt><trkpt lat="45.663994056392404" lon="9.885768667619837"><ele>492.00000000000006</ele><time>2026-04-26T13:41:46.999Z</time></trkpt><trkpt lat="45.66390402167129" lon="9.885815940579821"><ele>492.0</ele><time>2026-04-26T13:41:47.999Z</time></trkpt><trkpt lat="45.66384066216337" lon="9.885879955673147"><ele>492.0</ele><time>2026-04-26T13:41:48.999Z</time></trkpt><trkpt lat="45.66379216961433" lon="9.885955210331927"><ele>492.20000000000005</ele><time>2026-04-26T13:41:49.999Z</time></trkpt><trkpt lat="45.663761723490964" lon="9.886088296107918"><ele>492.40000000000003</ele><time>2026-04-26T13:41:50.999Z</time></trkpt><trkpt lat="45.663720965645304" lon="9.88621343758884"><ele>492.59999999999997</ele><time>2026-04-26T13:41:51.999Z</time></trkpt><trkpt lat="45.663663186543886" lon="9.886346549638574"><ele>492.79999999999995</ele><time>2026-04-26T13:41:52.999Z</time></trkpt><trkpt lat="45.66360248139282" lon="9.886472817736744"><ele>493.0</ele><time>2026-04-26T13:41:53.999Z</time></trkpt><trkpt lat="45.66353855322463" lon="9.886593483904072"><ele>493.0</ele><time>2026-04-26T13:41:54.999Z</time></trkpt><trkpt lat="45.66347343398069" lon="9.886720311278108"><ele>492.99999999999994</ele><time>2026-04-26T13:41:55.999Z</time></trkpt><trkpt lat="45.66340699092459" lon="9.886842707435234"><ele>492.99999999999994</ele><time>2026-04-26T13:41:56.999Z</time></trkpt><trkpt lat="45.663328810759104" lon="9.886942567491435"><ele>493.0</ele><time>2026-04-26T13:41:57.999Z</time></trkpt><trkpt lat="45.66324702298368" lon="9.887039418554584"><ele>493.0</ele><time>2026-04-26T13:41:58.999Z</time></trkpt><trkpt lat="45.663167796111374" lon="9.887130072786329"><ele>491.6666666666667</ele><time>2026-04-26T13:41:59.999Z</time></trkpt><trkpt lat="45.66309078652451" lon="9.887209167110532"><ele>490.33333333333337</ele><time>2026-04-26T13:42:00.999Z</time></trkpt><trkpt lat="45.66302243169326" lon="9.887274205416553"><ele>489.0</ele><time>2026-04-26T13:42:01.999Z</time></trkpt><trkpt lat="45.66294551324555" lon="9.887324231839592"><ele>487.66666666666663</ele><time>2026-04-26T13:42:02.999Z</time></trkpt><trkpt lat="45.66287039149657" lon="9.887361932130267"><ele>486.3333333333333</ele><time>2026-04-26T13:42:04Z</time></trkpt><trkpt lat="45.662806407184426" lon="9.887382016077416"><ele>485.0</ele><time>2026-04-26T13:42:05Z</time></trkpt><trkpt lat="45.662737933196546" lon="9.887292301047093"><ele>485.0</ele><time>2026-04-26T13:42:06Z</time></trkpt><trkpt lat="45.66263680345702" lon="9.887258364162308"><ele>485.0</ele><time>2026-04-26T13:42:07Z</time></trkpt><trkpt lat="45.6625273129581" lon="9.887244234481845"><ele>485.0</ele><time>2026-04-26T13:42:08Z</time></trkpt><trkpt lat="45.662407043061684" lon="9.88724708133779"><ele>485.0</ele><time>2026-04-26T13:42:09Z</time></trkpt><trkpt lat="45.6622917761097" lon="9.887285067359606"><ele>485.0</ele><time>2026-04-26T13:42:10Z</time></trkpt><trkpt lat="45.662184196881206" lon="9.88734477639135"><ele>485.0</ele><time>2026-04-26T13:42:11Z</time></trkpt><trkpt lat="45.66207709204137" lon="9.887375098425403"><ele>485.0</ele><time>2026-04-26T13:42:12Z</time></trkpt><trkpt lat="45.661970584851154" lon="9.887404261527438"><ele>485.0</ele><time>2026-04-26T13:42:13Z</time></trkpt><trkpt lat="45.66185395018965" lon="9.887428681423762"><ele>484.5</ele><time>2026-04-26T13:42:14Z</time></trkpt><trkpt lat="45.661732694316925" lon="9.887449559566578"><ele>484.0</ele><time>2026-04-26T13:42:15Z</time></trkpt><trkpt lat="45.66160771327599" lon="9.88746602634282"><ele>483.5</ele><time>2026-04-26T13:42:16Z</time></trkpt><trkpt lat="45.6614861782758" lon="9.887480521860121"><ele>483.0</ele><time>2026-04-26T13:42:17Z</time></trkpt><trkpt lat="45.661368272709254" lon="9.887494694326348"><ele>483.0</ele><time>2026-04-26T13:42:18Z</time></trkpt><trkpt lat="45.66125095272754" lon="9.887508814778256"><ele>483.0</ele><time>2026-04-26T13:42:19Z</time></trkpt><trkpt lat="45.66113336348917" lon="9.887548912784691"><ele>483.0</ele><time>2026-04-26T13:42:20Z</time></trkpt><trkpt lat="45.66100827438365" lon="9.887563997882872"><ele>483.0</ele><time>2026-04-26T13:42:21Z</time></trkpt><trkpt lat="45.66088133559327" lon="9.887596312734049"><ele>477.2</ele><time>2026-04-26T13:42:22Z</time></trkpt><trkpt lat="45.66076312227044" lon="9.887633531660898"><ele>471.4</ele><time>2026-04-26T13:42:23Z</time></trkpt><trkpt lat="45.660651184296064" lon="9.887657802858937"><ele>465.59999999999997</ele><time>2026-04-26T13:42:24Z</time></trkpt><trkpt lat="45.6605483355014" lon="9.887682616521523"><ele>459.79999999999995</ele><time>2026-04-26T13:42:25Z</time></trkpt><trkpt lat="45.66044682390292" lon="9.887712128778064"><ele>454.0</ele><time>2026-04-26T13:42:26Z</time></trkpt><trkpt lat="45.660354170076886" lon="9.887747795419497"><ele>455.8571428571429</ele><time>2026-04-26T13:42:27Z</time></trkpt><trkpt lat="45.66026973428108" lon="9.887777794597579"><ele>457.7142857142858</ele><time>2026-04-26T13:42:28Z</time></trkpt><trkpt lat="45.66018784640259" lon="9.887810269529163"><ele>459.57142857142856</ele><time>2026-04-26T13:42:29Z</time></trkpt><trkpt lat="45.6601212073404" lon="9.887846483735496"><ele>461.42857142857144</ele><time>2026-04-26T13:42:30Z</time></trkpt><trkpt lat="45.66005877418598" lon="9.88788390969905"><ele>463.2857142857143</ele><time>2026-04-26T13:42:31Z</time></trkpt><trkpt lat="45.65999567446572" lon="9.887917310059926"><ele>465.1428571428571</ele><time>2026-04-26T13:42:32Z</time></trkpt><trkpt lat="45.65993018724388" lon="9.887948752731866"><ele>466.99999999999994</ele><time>2026-04-26T13:42:33Z</time></trkpt><trkpt lat="45.659863853627435" lon="9.887974064583949"><ele>466.99999999999994</ele><time>2026-04-26T13:42:34Z</time></trkpt><trkpt lat="45.659783454074756" lon="9.88799887942626"><ele>467.0</ele><time>2026-04-26T13:42:35Z</time></trkpt><trkpt lat="45.65970040022638" lon="9.88798435866747"><ele>467.0</ele><time>2026-04-26T13:42:36Z</time></trkpt><trkpt lat="45.65963502566763" lon="9.888037839172764"><ele>467.0</ele><time>2026-04-26T13:42:37Z</time></trkpt><trkpt lat="45.65956838057561" lon="9.888068687331357"><ele>466.99999999999994</ele><time>2026-04-26T13:42:38Z</time></trkpt><trkpt lat="45.659500186513554" lon="9.888113214635595"><ele>467.0</ele><time>2026-04-26T13:42:39Z</time></trkpt><trkpt lat="45.65942624884892" lon="9.88816234484225"><ele>468.16666666666663</ele><time>2026-04-26T13:42:40Z</time></trkpt><trkpt lat="45.659352496238284" lon="9.888203779632436"><ele>469.3333333333333</ele><time>2026-04-26T13:42:41Z</time></trkpt><trkpt lat="45.65928007748195" lon="9.888241218055594"><ele>470.5</ele><time>2026-04-26T13:42:42Z</time></trkpt><trkpt lat="45.65920347360633" lon="9.888291818534736"><ele>471.66666666666663</ele><time>2026-04-26T13:42:43Z</time></trkpt><trkpt lat="45.65912497269343" lon="9.888334178951528"><ele>472.8333333333333</ele><time>2026-04-26T13:42:44Z</time></trkpt><trkpt lat="45.65904875566572" lon="9.888360986992659"><ele>474.0</ele><time>2026-04-26T13:42:45Z</time></trkpt><trkpt lat="45.65896201931653" lon="9.888368036096006"><ele>474.0</ele><time>2026-04-26T13:42:46Z</time></trkpt><trkpt lat="45.65887092561625" lon="9.88835861324557"><ele>474.0</ele><time>2026-04-26T13:42:47Z</time></trkpt><trkpt lat="45.65878362571129" lon="9.888340081623848"><ele>474.0</ele><time>2026-04-26T13:42:48Z</time></trkpt><trkpt lat="45.658698373834355" lon="9.888328615825598"><ele>474.0</ele><time>2026-04-26T13:42:49Z</time></trkpt><trkpt lat="45.65861349357002" lon="9.88832478105724"><ele>474.0</ele><time>2026-04-26T13:42:50Z</time></trkpt><trkpt lat="45.65852609004697" lon="9.88832433323942"><ele>474.0</ele><time>2026-04-26T13:42:51Z</time></trkpt><trkpt lat="45.65843668190128" lon="9.888327000574007"><ele>472.5</ele><time>2026-04-26T13:42:52Z</time></trkpt><trkpt lat="45.65835472906532" lon="9.888362872326505"><ele>471.0</ele><time>2026-04-26T13:42:53Z</time></trkpt><trkpt lat="45.65827003890192" lon="9.888426469096979"><ele>469.5</ele><time>2026-04-26T13:42:54Z</time></trkpt><trkpt lat="45.65817317241369" lon="9.88853701150297"><ele>468.0</ele><time>2026-04-26T13:42:55Z</time></trkpt><trkpt lat="45.658055345960136" lon="9.888691982319267"><ele>468.0</ele><time>2026-04-26T13:42:56Z</time></trkpt><trkpt lat="45.65793035693936" lon="9.888853538423772"><ele>468.0</ele><time>2026-04-26T13:42:57Z</time></trkpt><trkpt lat="45.657801200582654" lon="9.889030474297984"><ele>468.0</ele><time>2026-04-26T13:42:58Z</time></trkpt><trkpt lat="45.65766812506426" lon="9.88919081008811"><ele>468.33333333333337</ele><time>2026-04-26T13:42:59Z</time></trkpt><trkpt lat="45.65752287979462" lon="9.889324144128345"><ele>468.6666666666667</ele><time>2026-04-26T13:43:00Z</time></trkpt><trkpt lat="45.65737331225276" lon="9.88944632013996"><ele>469.0</ele><time>2026-04-26T13:43:01Z</time></trkpt><trkpt lat="45.657229642900674" lon="9.889559692816661"><ele>469.0</ele><time>2026-04-26T13:43:01.999Z</time></trkpt><trkpt lat="45.657105854524744" lon="9.889691467948362"><ele>469.0</ele><time>2026-04-26T13:43:02.999Z</time></trkpt><trkpt lat="45.65700095065422" lon="9.889852575561942"><ele>469.0</ele><time>2026-04-26T13:43:03.999Z</time></trkpt><trkpt lat="45.656902376545176" lon="9.890037298628057"><ele>472.6666666666667</ele><time>2026-04-26T13:43:04.999Z</time></trkpt><trkpt lat="45.65680029922753" lon="9.890241116781189"><ele>476.33333333333337</ele><time>2026-04-26T13:43:05.999Z</time></trkpt><trkpt lat="45.656711728046766" lon="9.890449385883224"><ele>480.0</ele><time>2026-04-26T13:43:06.999Z</time></trkpt><trkpt lat="45.656612252833824" lon="9.89063129021615"><ele>480.0</ele><time>2026-04-26T13:43:07.999Z</time></trkpt><trkpt lat="45.65652706079267" lon="9.890837106137976"><ele>480.0</ele><time>2026-04-26T13:43:08.999Z</time></trkpt><trkpt lat="45.65643320430534" lon="9.891023176403731"><ele>480.0</ele><time>2026-04-26T13:43:09.999Z</time></trkpt><trkpt lat="45.65633818873919" lon="9.891203965777585"><ele>478.75</ele><time>2026-04-26T13:43:10.999Z</time></trkpt><trkpt lat="45.656252269911484" lon="9.891371033870225"><ele>477.5</ele><time>2026-04-26T13:43:11.999Z</time></trkpt><trkpt lat="45.656169286688325" lon="9.891538265441332"><ele>476.25</ele><time>2026-04-26T13:43:12.999Z</time></trkpt><trkpt lat="45.65607820987393" lon="9.891715466347648"><ele>475.0</ele><time>2026-04-26T13:43:13.999Z</time></trkpt><trkpt lat="45.65598736974064" lon="9.891891540736568"><ele>475.0</ele><time>2026-04-26T13:43:14.999Z</time></trkpt><trkpt lat="45.65589124078744" lon="9.892066148005911"><ele>475.0</ele><time>2026-04-26T13:43:15.999Z</time></trkpt><trkpt lat="45.65578569787867" lon="9.892221411886812"><ele>475.0</ele><time>2026-04-26T13:43:16.999Z</time></trkpt><trkpt lat="45.65567204677902" lon="9.89235658802218"><ele>475.0</ele><time>2026-04-26T13:43:17.999Z</time></trkpt><trkpt lat="45.65555153070778" lon="9.892477374018505"><ele>475.0</ele><time>2026-04-26T13:43:18.999Z</time></trkpt><trkpt lat="45.655422052377425" lon="9.892581995729735"><ele>475.0</ele><time>2026-04-26T13:43:19.999Z</time></trkpt><trkpt lat="45.65528044045834" lon="9.892670949650283"><ele>474.33333333333337</ele><time>2026-04-26T13:43:20.999Z</time></trkpt><trkpt lat="45.65514491421996" lon="9.892772065239843"><ele>473.66666666666663</ele><time>2026-04-26T13:43:21.999Z</time></trkpt><trkpt lat="45.655007714041254" lon="9.892879436608803"><ele>473.0</ele><time>2026-04-26T13:43:22.999Z</time></trkpt><trkpt lat="45.65486025840364" lon="9.893001503597857"><ele>473.0</ele><time>2026-04-26T13:43:23.999Z</time></trkpt><trkpt lat="45.6547195943555" lon="9.89313178090552"><ele>473.0</ele><time>2026-04-26T13:43:24.999Z</time></trkpt><trkpt lat="45.654581587955136" lon="9.893273828087905"><ele>473.0</ele><time>2026-04-26T13:43:25.999Z</time></trkpt><trkpt lat="45.654450870334514" lon="9.893415445116682"><ele>472.0</ele><time>2026-04-26T13:43:26.999Z</time></trkpt><trkpt lat="45.65433538338947" lon="9.893562335493426"><ele>471.0</ele><time>2026-04-26T13:43:27.999Z</time></trkpt><trkpt lat="45.65422752166191" lon="9.893694977787453"><ele>470.0</ele><time>2026-04-26T13:43:28.999Z</time></trkpt><trkpt lat="45.65412102510772" lon="9.893818262621561"><ele>469.0</ele><time>2026-04-26T13:43:29.999Z</time></trkpt><trkpt lat="45.65402601092553" lon="9.893947543577628"><ele>469.0</ele><time>2026-04-26T13:43:30.999Z</time></trkpt><trkpt lat="45.65393520797661" lon="9.894071260251067"><ele>469.0</ele><time>2026-04-26T13:43:31.999Z</time></trkpt><trkpt lat="45.65385245787763" lon="9.894167024013912"><ele>469.0</ele><time>2026-04-26T13:43:32.999Z</time></trkpt><trkpt lat="45.65378466494475" lon="9.89424151725902"><ele>469.0</ele><time>2026-04-26T13:43:33.999Z</time></trkpt><trkpt lat="45.65370196879554" lon="9.894288861624393"><ele>469.0</ele><time>2026-04-26T13:43:35.999Z</time></trkpt><trkpt lat="45.653632530682025" lon="9.894281070826034"><ele>468.1666666666667</ele><time>2026-04-26T13:43:37.999Z</time></trkpt><trkpt lat="45.65363326192836" lon="9.894473047903125"><ele>467.33333333333337</ele><time>2026-04-26T13:43:38.999Z</time></trkpt><trkpt lat="45.6536413990751" lon="9.894579408511131"><ele>466.5</ele><time>2026-04-26T13:43:39.999Z</time></trkpt><trkpt lat="45.65362726047916" lon="9.894692385161969"><ele>465.66666666666663</ele><time>2026-04-26T13:43:40.999Z</time></trkpt><trkpt lat="45.65363623922183" lon="9.894783874592024"><ele>464.8333333333333</ele><time>2026-04-26T13:43:41.999Z</time></trkpt><trkpt lat="45.65364345486417" lon="9.894874864178215"><ele>464.0</ele><time>2026-04-26T13:43:42.999Z</time></trkpt><trkpt lat="45.65365212602331" lon="9.894984208833296"><ele>464.16666666666663</ele><time>2026-04-26T13:43:43.999Z</time></trkpt><trkpt lat="45.653664319813295" lon="9.895094622038759"><ele>464.3333333333333</ele><time>2026-04-26T13:43:44.999Z</time></trkpt><trkpt lat="45.65367368104775" lon="9.895188234933313"><ele>464.5</ele><time>2026-04-26T13:43:45.999Z</time></trkpt><trkpt lat="45.65369161671122" lon="9.89530755755282"><ele>464.66666666666663</ele><time>2026-04-26T13:43:47.999Z</time></trkpt><trkpt lat="45.65370925749434" lon="9.895433371833615"><ele>464.8333333333333</ele><time>2026-04-26T13:43:49.999Z</time></trkpt><trkpt lat="45.65372741001761" lon="9.895562835963009"><ele>465.0</ele><time>2026-04-26T13:43:52.999Z</time></trkpt><trkpt lat="45.65374057128287" lon="9.895653118118185"><ele>465.25</ele><time>2026-04-26T13:43:57.999Z</time></trkpt><trkpt lat="45.65357139626465" lon="9.8956990089003"><ele>465.5</ele><time>2026-04-26T13:44:07.999Z</time></trkpt><trkpt lat="45.6535697616207" lon="9.89587890522955"><ele>465.75</ele><time>2026-04-26T13:49:39.999Z</time></trkpt><trkpt lat="45.65357420528348" lon="9.896020492843757"><ele>466.0</ele><time>2026-04-26T13:49:40.999Z</time></trkpt><trkpt lat="45.6535813639987" lon="9.896162427810912"><ele>467.0</ele><time>2026-04-26T13:49:41.999Z</time></trkpt><trkpt lat="45.65359405930703" lon="9.896313861168252"><ele>468.0</ele><time>2026-04-26T13:49:42.999Z</time></trkpt><trkpt lat="45.65359255598607" lon="9.896460911723503"><ele>469.0</ele><time>2026-04-26T13:49:43.999Z</time></trkpt><trkpt lat="45.65357853106143" lon="9.896621899589787"><ele>470.0</ele><time>2026-04-26T13:49:44.999Z</time></trkpt><trkpt lat="45.653566720726786" lon="9.896743173687108"><ele>471.0</ele><time>2026-04-26T13:49:45.999Z</time></trkpt><trkpt lat="45.65355259861487" lon="9.896842942667577"><ele>472.4</ele><time>2026-04-26T13:49:46.999Z</time></trkpt><trkpt lat="45.65351311575184" lon="9.896961267328862"><ele>473.8</ele><time>2026-04-26T13:49:47.999Z</time></trkpt><trkpt lat="45.653492902760064" lon="9.897094891555938"><ele>475.19999999999993</ele><time>2026-04-26T13:49:48.999Z</time></trkpt><trkpt lat="45.65349092057438" lon="9.897257174702414"><ele>476.59999999999997</ele><time>2026-04-26T13:49:49.999Z</time></trkpt><trkpt lat="45.65347144183659" lon="9.89742061592951"><ele>478.0</ele><time>2026-04-26T13:49:50.999Z</time></trkpt><trkpt lat="45.65348020511307" lon="9.897584058555912"><ele>479.59999999999997</ele><time>2026-04-26T13:49:51.999Z</time></trkpt><trkpt lat="45.653459672132044" lon="9.897736914327147"><ele>481.19999999999993</ele><time>2026-04-26T13:49:52.999Z</time></trkpt><trkpt lat="45.653418307656864" lon="9.897841851274718"><ele>482.8</ele><time>2026-04-26T13:49:53.999Z</time></trkpt><trkpt lat="45.653369582412445" lon="9.897950460560153"><ele>484.4</ele><time>2026-04-26T13:49:54.999Z</time></trkpt><trkpt lat="45.653314972696016" lon="9.89811467286792"><ele>486.0</ele><time>2026-04-26T13:49:55.999Z</time></trkpt><trkpt lat="45.65328107222076" lon="9.898249431553038"><ele>486.0</ele><time>2026-04-26T13:49:56.999Z</time></trkpt><trkpt lat="45.65324367244485" lon="9.898395161566404"><ele>486.0</ele><time>2026-04-26T13:49:57.999Z</time></trkpt><trkpt lat="45.6532034553308" lon="9.898544521841421"><ele>486.0</ele><time>2026-04-26T13:49:58.999Z</time></trkpt><trkpt lat="45.65317295362448" lon="9.898690924597274"><ele>486.0</ele><time>2026-04-26T13:49:59.999Z</time></trkpt><trkpt lat="45.65308788907293" lon="9.898844300838903"><ele>486.0</ele><time>2026-04-26T13:50:00.999Z</time></trkpt><trkpt lat="45.65301335446386" lon="9.899041228850942"><ele>486.0</ele><time>2026-04-26T13:50:01.999Z</time></trkpt><trkpt lat="45.65297968999032" lon="9.899208387274061"><ele>486.0</ele><time>2026-04-26T13:50:02.999Z</time></trkpt><trkpt lat="45.65292795267018" lon="9.89938697923524"><ele>486.0</ele><time>2026-04-26T13:50:03.999Z</time></trkpt><trkpt lat="45.652899404359985" lon="9.899581431839414"><ele>485.5</ele><time>2026-04-26T13:50:04.999Z</time></trkpt><trkpt lat="45.65285688805746" lon="9.899774523628077"><ele>485.0</ele><time>2026-04-26T13:50:05.999Z</time></trkpt><trkpt lat="45.652809686726904" lon="9.899994698133792"><ele>484.5</ele><time>2026-04-26T13:50:06.999Z</time></trkpt><trkpt lat="45.65276374915692" lon="9.900188021805874"><ele>484.0</ele><time>2026-04-26T13:50:07.999Z</time></trkpt><trkpt lat="45.65271311884965" lon="9.900344591047029"><ele>484.25</ele><time>2026-04-26T13:50:08.999Z</time></trkpt><trkpt lat="45.65265424500225" lon="9.90049825336325"><ele>484.5</ele><time>2026-04-26T13:50:09.999Z</time></trkpt><trkpt lat="45.65259253631779" lon="9.900679075288187"><ele>484.75</ele><time>2026-04-26T13:50:10.999Z</time></trkpt><trkpt lat="45.65254646672339" lon="9.900828923337588"><ele>485.0</ele><time>2026-04-26T13:50:11.999Z</time></trkpt><trkpt lat="45.65249967104329" lon="9.900954234075986"><ele>484.99999999999994</ele><time>2026-04-26T13:50:12.999Z</time></trkpt><trkpt lat="45.652442449896895" lon="9.901055612906859"><ele>485.0</ele><time>2026-04-26T13:50:13.999Z</time></trkpt><trkpt lat="45.65240476775746" lon="9.901145443776016"><ele>485.0</ele><time>2026-04-26T13:50:14.999Z</time></trkpt><trkpt lat="45.65230643383246" lon="9.90125090965897"><ele>485.0</ele><time>2026-04-26T13:50:16.999Z</time></trkpt><trkpt lat="45.65224707392429" lon="9.901305980335868"><ele>484.99999999999994</ele><time>2026-04-26T13:50:17.999Z</time></trkpt><trkpt lat="45.65216888329893" lon="9.901362109064719"><ele>485.0</ele><time>2026-04-26T13:50:18.999Z</time></trkpt><trkpt lat="45.65210545724744" lon="9.901402877938722"><ele>485.0</ele><time>2026-04-26T13:50:19.999Z</time></trkpt><trkpt lat="45.652026683894654" lon="9.901451401268572"><ele>485.0</ele><time>2026-04-26T13:50:20.999Z</time></trkpt><trkpt lat="45.6519506568445" lon="9.901497810057656"><ele>485.0</ele><time>2026-04-26T13:50:21.999Z</time></trkpt><trkpt lat="45.65187975191578" lon="9.901534575315852"><ele>485.0</ele><time>2026-04-26T13:50:22.999Z</time></trkpt><trkpt lat="45.65181404425628" lon="9.901567602883896"><ele>485.0</ele><time>2026-04-26T13:50:23.999Z</time></trkpt><trkpt lat="45.65189838245884" lon="9.901973230678374"><ele>483.3333333333333</ele><time>2026-04-26T13:50:25.999Z</time></trkpt><trkpt lat="45.65196643104182" lon="9.902024103593579"><ele>481.66666666666663</ele><time>2026-04-26T13:50:26.999Z</time></trkpt><trkpt lat="45.65203935166037" lon="9.902041799742017"><ele>480.0</ele><time>2026-04-26T13:50:27.999Z</time></trkpt><trkpt lat="45.652093222541495" lon="9.902204602929613"><ele>478.33333333333337</ele><time>2026-04-26T13:50:29.999Z</time></trkpt><trkpt lat="45.652119110921674" lon="9.902309584063659"><ele>476.6666666666667</ele><time>2026-04-26T13:50:30.999Z</time></trkpt><trkpt lat="45.652139214167185" lon="9.902416295740355"><ele>475.0</ele><time>2026-04-26T13:50:31.999Z</time></trkpt><trkpt lat="45.65214936826656" lon="9.90252970751522"><ele>473.83333333333337</ele><time>2026-04-26T13:50:32.999Z</time></trkpt><trkpt lat="45.65213644373342" lon="9.902658958575413"><ele>472.6666666666667</ele><time>2026-04-26T13:50:33.999Z</time></trkpt><trkpt lat="45.65213195039118" lon="9.902788728180871"><ele>471.5</ele><time>2026-04-26T13:50:34.999Z</time></trkpt><trkpt lat="45.65213010244091" lon="9.902907467397798"><ele>470.33333333333337</ele><time>2026-04-26T13:50:35.999Z</time></trkpt><trkpt lat="45.652118720158036" lon="9.903012872317818"><ele>469.1666666666667</ele><time>2026-04-26T13:50:36.999Z</time></trkpt><trkpt lat="45.65208934906599" lon="9.903120961604612"><ele>468.0</ele><time>2026-04-26T13:50:37.999Z</time></trkpt><trkpt lat="45.65205106928972" lon="9.903213837435057"><ele>468.0</ele><time>2026-04-26T13:50:38.999Z</time></trkpt><trkpt lat="45.65201753480871" lon="9.903296061729643"><ele>468.00000000000006</ele><time>2026-04-26T13:50:39.999Z</time></trkpt><trkpt lat="45.65195466330454" lon="9.90334272490903"><ele>468.0</ele><time>2026-04-26T13:50:40.999Z</time></trkpt><trkpt lat="45.65187401586564" lon="9.903381687861822"><ele>468.0</ele><time>2026-04-26T13:50:41.999Z</time></trkpt><trkpt lat="45.651813888921666" lon="9.903438311614703"><ele>468.00000000000006</ele><time>2026-04-26T13:50:42.999Z</time></trkpt><trkpt lat="45.65179785098737" lon="9.903529579944696"><ele>468.0</ele><time>2026-04-26T13:50:43.999Z</time></trkpt><trkpt lat="45.651821857845626" lon="9.903640159454495"><ele>468.0</ele><time>2026-04-26T13:50:44.999Z</time></trkpt><trkpt lat="45.651878545355956" lon="9.903725448306524"><ele>466.79999999999995</ele><time>2026-04-26T13:50:45.999Z</time></trkpt><trkpt lat="45.65195388012473" lon="9.903752338107235"><ele>465.59999999999997</ele><time>2026-04-26T13:50:46.999Z</time></trkpt><trkpt lat="45.65203240093661" lon="9.903754294845442"><ele>464.40000000000003</ele><time>2026-04-26T13:50:47.999Z</time></trkpt><trkpt lat="45.65210504813079" lon="9.90375287008144"><ele>463.20000000000005</ele><time>2026-04-26T13:50:48.999Z</time></trkpt><trkpt lat="45.65220635379851" lon="9.903668588211888"><ele>462.0</ele><time>2026-04-26T13:50:50.999Z</time></trkpt><trkpt lat="45.652325657855144" lon="9.903679217119967"><ele>462.0</ele><time>2026-04-26T13:50:52.999Z</time></trkpt><trkpt lat="45.65239467833754" lon="9.903690005976532"><ele>462.0</ele><time>2026-04-26T13:50:53.999Z</time></trkpt><trkpt lat="45.652495521355085" lon="9.903733730289778"><ele>462.0</ele><time>2026-04-26T13:50:55.999Z</time></trkpt><trkpt lat="45.652547326939235" lon="9.903819406654602"><ele>462.0</ele><time>2026-04-26T13:50:56.999Z</time></trkpt><trkpt lat="45.652597247891684" lon="9.90392206002671"><ele>462.0</ele><time>2026-04-26T13:50:57.999Z</time></trkpt><trkpt lat="45.652653360568515" lon="9.903999774802726"><ele>462.0</ele><time>2026-04-26T13:50:58.999Z</time></trkpt><trkpt lat="45.652720992476524" lon="9.904064417909042"><ele>462.0</ele><time>2026-04-26T13:50:59.999Z</time></trkpt><trkpt lat="45.65278585010257" lon="9.904136796484885"><ele>462.0</ele><time>2026-04-26T13:51:00.999Z</time></trkpt><trkpt lat="45.65282631546784" lon="9.904209915947346"><ele>462.0</ele><time>2026-04-26T13:51:01.999Z</time></trkpt><trkpt lat="45.65288030677961" lon="9.90428485457001"><ele>462.0</ele><time>2026-04-26T13:51:03.999Z</time></trkpt><trkpt lat="45.65297050526991" lon="9.904243323385485"><ele>462.0</ele><time>2026-04-26T13:51:05.999Z</time></trkpt><trkpt lat="45.653004495653" lon="9.904133316982675"><ele>462.0</ele><time>2026-04-26T13:51:07.999Z</time></trkpt><trkpt lat="45.65303708146305" lon="9.904054115009338"><ele>458.8</ele><time>2026-04-26T13:51:08.999Z</time></trkpt><trkpt lat="45.6531455380088" lon="9.90391388793897"><ele>455.6</ele><time>2026-04-26T13:51:09.999Z</time></trkpt><trkpt lat="45.653190708966356" lon="9.903849031307951"><ele>452.40000000000003</ele><time>2026-04-26T13:51:10.999Z</time></trkpt><trkpt lat="45.653184885263826" lon="9.90368198342281"><ele>449.20000000000005</ele><time>2026-04-26T13:51:12.999Z</time></trkpt><trkpt lat="45.65326319921217" lon="9.903654011784843"><ele>446.0</ele><time>2026-04-26T13:51:14.999Z</time></trkpt><trkpt lat="45.653319218640625" lon="9.903732837663863"><ele>446.0</ele><time>2026-04-26T13:51:15.999Z</time></trkpt><trkpt lat="45.653399181643294" lon="9.903780325551804"><ele>446.0</ele><time>2026-04-26T13:51:16.999Z</time></trkpt><trkpt lat="45.65345290500838" lon="9.903849585196895"><ele>446.0</ele><time>2026-04-26T13:51:17.999Z</time></trkpt><trkpt lat="45.653496902869776" lon="9.903932142322418"><ele>446.0</ele><time>2026-04-26T13:51:18.999Z</time></trkpt><trkpt lat="45.65353977514245" lon="9.904013275749616"><ele>446.0</ele><time>2026-04-26T13:51:19.999Z</time></trkpt><trkpt lat="45.65355375055224" lon="9.904117926401193"><ele>446.0</ele><time>2026-04-26T13:51:20.999Z</time></trkpt><trkpt lat="45.6535793121657" lon="9.904211893803383"><ele>446.0</ele><time>2026-04-26T13:51:21.999Z</time></trkpt><trkpt lat="45.653584751842345" lon="9.904305716843378"><ele>445.4</ele><time>2026-04-26T13:51:22.999Z</time></trkpt><trkpt lat="45.65350849444467" lon="9.904461831302802"><ele>444.8</ele><time>2026-04-26T13:51:24.999Z</time></trkpt><trkpt lat="45.65350065318506" lon="9.904572530246364"><ele>444.19999999999993</ele><time>2026-04-26T13:51:25.999Z</time></trkpt><trkpt lat="45.653492264769355" lon="9.904712486230704"><ele>443.59999999999997</ele><time>2026-04-26T13:51:26.999Z</time></trkpt><trkpt lat="45.653459304093516" lon="9.9048325328309"><ele>443.0</ele><time>2026-04-26T13:51:27.999Z</time></trkpt><trkpt lat="45.653459424659026" lon="9.904932142291232"><ele>442.99999999999994</ele><time>2026-04-26T13:51:28.999Z</time></trkpt><trkpt lat="45.65349469752919" lon="9.905032603843093"><ele>443.0</ele><time>2026-04-26T13:51:29.999Z</time></trkpt><trkpt lat="45.65349867327903" lon="9.905134957106352"><ele>443.0</ele><time>2026-04-26T13:51:30.999Z</time></trkpt><trkpt lat="45.65347545942666" lon="9.90524579069832"><ele>443.0</ele><time>2026-04-26T13:51:33.999Z</time></trkpt><trkpt lat="45.653449184873566" lon="9.905389993129626"><ele>442.99999999999994</ele><time>2026-04-26T13:51:35.999Z</time></trkpt><trkpt lat="45.653406953555994" lon="9.90550310884202"><ele>443.0</ele><time>2026-04-26T13:51:37.999Z</time></trkpt><trkpt lat="45.65335449561489" lon="9.905620080650843"><ele>440.99999999999994</ele><time>2026-04-26T13:51:40.999Z</time></trkpt><trkpt lat="45.65332660664364" lon="9.905760978339515"><ele>439.0</ele><time>2026-04-26T13:51:42.999Z</time></trkpt><trkpt lat="45.65327739084417" lon="9.905817177345963"><ele>437.0</ele><time>2026-04-26T13:51:43.999Z</time></trkpt><trkpt lat="45.653200819878585" lon="9.905900464321025"><ele>435.0</ele><time>2026-04-26T13:51:44.999Z</time></trkpt><trkpt lat="45.65312348174259" lon="9.90599571884902"><ele>432.99999999999994</ele><time>2026-04-26T13:51:45.999Z</time></trkpt><trkpt lat="45.65306578787303" lon="9.906048525340628"><ele>431.0</ele><time>2026-04-26T13:51:46.999Z</time></trkpt><trkpt lat="45.653000698330644" lon="9.906117971638237"><ele>427.75</ele><time>2026-04-26T13:51:47.999Z</time></trkpt><trkpt lat="45.65295592315682" lon="9.906225714601318"><ele>424.5</ele><time>2026-04-26T13:51:49.999Z</time></trkpt><trkpt lat="45.653031091062104" lon="9.906352675151027"><ele>421.25</ele><time>2026-04-26T13:51:51.999Z</time></trkpt><trkpt lat="45.65314678598008" lon="9.906411403325375"><ele>418.0</ele><time>2026-04-26T13:51:53.999Z</time></trkpt><trkpt lat="45.653241345148935" lon="9.90652609629806"><ele>418.0</ele><time>2026-04-26T13:51:55.999Z</time></trkpt><trkpt lat="45.653326080565456" lon="9.906607219068992"><ele>418.0</ele><time>2026-04-26T13:51:57.999Z</time></trkpt><trkpt lat="45.653397823574444" lon="9.90664019310568"><ele>418.0</ele><time>2026-04-26T13:51:59.999Z</time></trkpt><trkpt lat="45.65349535565734" lon="9.90667499081599"><ele>418.0</ele><time>2026-04-26T13:52:01.999Z</time></trkpt><trkpt lat="45.65366106507792" lon="9.906734953914244"><ele>418.0</ele><time>2026-04-26T13:52:04.999Z</time></trkpt><trkpt lat="45.653766840115935" lon="9.906667650964792"><ele>415.83333333333337</ele><time>2026-04-26T13:52:06.999Z</time></trkpt><trkpt lat="45.65382816910013" lon="9.906697497976392"><ele>413.6666666666667</ele><time>2026-04-26T13:52:07.999Z</time></trkpt><trkpt lat="45.65391051561085" lon="9.906748441669007"><ele>411.5</ele><time>2026-04-26T13:52:09.999Z</time></trkpt><trkpt lat="45.653932450119854" lon="9.906641155945755"><ele>409.33333333333337</ele><time>2026-04-26T13:52:10.999Z</time></trkpt><trkpt lat="45.65400276679414" lon="9.906660466688692"><ele>407.1666666666667</ele><time>2026-04-26T13:52:12.999Z</time></trkpt><trkpt lat="45.65406475847751" lon="9.906744090565574"><ele>405.0</ele><time>2026-04-26T13:52:13.999Z</time></trkpt><trkpt lat="45.65408968851559" lon="9.906881446936957"><ele>405.0</ele><time>2026-04-26T13:52:15.999Z</time></trkpt><trkpt lat="45.65416808905945" lon="9.906974498082501"><ele>405.0</ele><time>2026-04-26T13:52:17.999Z</time></trkpt><trkpt lat="45.654261548054514" lon="9.907060094422476"><ele>405.0</ele><time>2026-04-26T13:52:19.999Z</time></trkpt><trkpt lat="45.654367387075425" lon="9.907103113457964"><ele>405.0</ele><time>2026-04-26T13:52:21.999Z</time></trkpt><trkpt lat="45.654429345876494" lon="9.907079731097879"><ele>405.0</ele><time>2026-04-26T13:52:25.999Z</time></trkpt><trkpt lat="45.65451585950104" lon="9.90715803902539"><ele>400.8</ele><time>2026-04-26T13:52:27.999Z</time></trkpt><trkpt lat="45.65462164752819" lon="9.907267550767502"><ele>396.6</ele><time>2026-04-26T13:52:29.999Z</time></trkpt><trkpt lat="45.654705045489585" lon="9.907352099143434"><ele>392.4</ele><time>2026-04-26T13:52:31.999Z</time></trkpt><trkpt lat="45.65479821189485" lon="9.907434868762788"><ele>388.2</ele><time>2026-04-26T13:52:34Z</time></trkpt><trkpt lat="45.65486257891682" lon="9.907472452614115"><ele>384.0</ele><time>2026-04-26T13:52:35Z</time></trkpt><trkpt lat="45.65497554901972" lon="9.907622821478835"><ele>384.0</ele><time>2026-04-26T13:52:37Z</time></trkpt><trkpt lat="45.655030241444344" lon="9.90773394300493"><ele>384.0</ele><time>2026-04-26T13:52:38Z</time></trkpt><trkpt lat="45.65508808882263" lon="9.907848623826183"><ele>384.0</ele><time>2026-04-26T13:52:39Z</time></trkpt><trkpt lat="45.655142169488556" lon="9.907962379754094"><ele>384.0</ele><time>2026-04-26T13:52:40Z</time></trkpt><trkpt lat="45.6551995000176" lon="9.908054534959302"><ele>384.0</ele><time>2026-04-26T13:52:41Z</time></trkpt><trkpt lat="45.65524267224757" lon="9.908133758651363"><ele>384.0</ele><time>2026-04-26T13:52:42Z</time></trkpt><trkpt lat="45.65527143276194" lon="9.908225590900232"><ele>379.1666666666667</ele><time>2026-04-26T13:52:43Z</time></trkpt><trkpt lat="45.65530091527153" lon="9.908319324531817"><ele>374.3333333333333</ele><time>2026-04-26T13:52:44Z</time></trkpt><trkpt lat="45.65533453909323" lon="9.908415609084896"><ele>369.5</ele><time>2026-04-26T13:52:45Z</time></trkpt><trkpt lat="45.65537050062305" lon="9.908525114374662"><ele>364.66666666666663</ele><time>2026-04-26T13:52:46Z</time></trkpt><trkpt lat="45.65540264565366" lon="9.908649324325442"><ele>359.8333333333333</ele><time>2026-04-26T13:52:47Z</time></trkpt><trkpt lat="45.65543641325589" lon="9.908764600450235"><ele>355.0</ele><time>2026-04-26T13:52:48Z</time></trkpt><trkpt lat="45.655477239066904" lon="9.908855749902052"><ele>355.0</ele><time>2026-04-26T13:52:49Z</time></trkpt><trkpt lat="45.6555051860509" lon="9.908957645933482"><ele>355.0</ele><time>2026-04-26T13:52:50Z</time></trkpt><trkpt lat="45.655510078403964" lon="9.909060408144981"><ele>355.0</ele><time>2026-04-26T13:52:51Z</time></trkpt><trkpt lat="45.65549522456945" lon="9.909178995427357"><ele>355.0</ele><time>2026-04-26T13:52:52Z</time></trkpt><trkpt lat="45.655462199705596" lon="9.909294025558795"><ele>355.0</ele><time>2026-04-26T13:52:53Z</time></trkpt><trkpt lat="45.65545494686905" lon="9.909384527180118"><ele>355.0</ele><time>2026-04-26T13:52:54Z</time></trkpt><trkpt lat="45.65547550377379" lon="9.909474533175684"><ele>355.0</ele><time>2026-04-26T13:52:55Z</time></trkpt><trkpt lat="45.65552744817292" lon="9.909567726684534"><ele>354.66666666666663</ele><time>2026-04-26T13:52:56Z</time></trkpt><trkpt lat="45.655562814027626" lon="9.909670064048985"><ele>354.3333333333333</ele><time>2026-04-26T13:52:57Z</time></trkpt><trkpt lat="45.655566019081476" lon="9.909765801473363"><ele>354.0</ele><time>2026-04-26T13:52:58Z</time></trkpt><trkpt lat="45.65557846726836" lon="9.909883768056378"><ele>353.6666666666667</ele><time>2026-04-26T13:52:59Z</time></trkpt><trkpt lat="45.655585983420025" lon="9.910010962942561"><ele>353.33333333333337</ele><time>2026-04-26T13:53:00Z</time></trkpt><trkpt lat="45.655568422012166" lon="9.910102039483359"><ele>353.0</ele><time>2026-04-26T13:53:01Z</time></trkpt><trkpt lat="45.65564281871984" lon="9.910091993559782"><ele>353.0</ele><time>2026-04-26T13:53:05Z</time></trkpt><trkpt lat="45.655676982018974" lon="9.909946242331085"><ele>353.0</ele><time>2026-04-26T13:53:06Z</time></trkpt><trkpt lat="45.65566337625766" lon="9.909768265971918"><ele>353.0</ele><time>2026-04-26T13:53:07Z</time></trkpt><trkpt lat="45.65563653888388" lon="9.90963869616537"><ele>353.0</ele><time>2026-04-26T13:53:08Z</time></trkpt><trkpt lat="45.6556305263007" lon="9.90949311148478"><ele>353.0</ele><time>2026-04-26T13:53:09Z</time></trkpt><trkpt lat="45.65564547260119" lon="9.909405445541351"><ele>353.0</ele><time>2026-04-26T13:53:10Z</time></trkpt><trkpt lat="45.655639322663134" lon="9.909312154909784"><ele>353.0</ele><time>2026-04-26T13:53:12Z</time></trkpt><trkpt lat="45.655681987685355" lon="9.909229730040757"><ele>353.0</ele><time>2026-04-26T13:53:14Z</time></trkpt><trkpt lat="45.65568686182558" lon="9.909093952821406"><ele>353.0</ele><time>2026-04-26T13:53:16Z</time></trkpt><trkpt lat="45.65573384713395" lon="9.908928862962888"><ele>353.0</ele><time>2026-04-26T13:53:19Z</time></trkpt><trkpt lat="45.65578993554343" lon="9.908834963280325"><ele>353.0</ele><time>2026-04-26T13:53:21Z</time></trkpt><trkpt lat="45.655855196041266" lon="9.908706497504044"><ele>353.0</ele><time>2026-04-26T13:53:23Z</time></trkpt><trkpt lat="45.655941183022335" lon="9.908561498764392"><ele>353.0</ele><time>2026-04-26T13:53:25Z</time></trkpt><trkpt lat="45.65595012080478" lon="9.908453910210522"><ele>353.0</ele><time>2026-04-26T13:53:26Z</time></trkpt><trkpt lat="45.6559399158092" lon="9.908347820320817"><ele>353.0</ele><time>2026-04-26T13:53:27Z</time></trkpt><trkpt lat="45.65591999998" lon="9.908244676769383"><ele>353.0</ele><time>2026-04-26T13:53:28Z</time></trkpt><trkpt lat="45.655908223407444" lon="9.90814484835479"><ele>353.0</ele><time>2026-04-26T13:53:29Z</time></trkpt><trkpt lat="45.6558992390812" lon="9.908046372081172"><ele>353.0</ele><time>2026-04-26T13:53:30Z</time></trkpt><trkpt lat="45.65588591590548" lon="9.907951488371108"><ele>353.0</ele><time>2026-04-26T13:53:31Z</time></trkpt><trkpt lat="45.655825550139085" lon="9.907855100223802"><ele>353.0</ele><time>2026-04-26T13:53:32Z</time></trkpt><trkpt lat="45.655710229784404" lon="9.907762853923087"><ele>353.0</ele><time>2026-04-26T13:53:34Z</time></trkpt><trkpt lat="45.65565768402878" lon="9.907684648927274"><ele>353.0</ele><time>2026-04-26T13:53:35Z</time></trkpt><trkpt lat="45.65570860451873" lon="9.907505037878158"><ele>351.6666666666667</ele><time>2026-04-26T13:53:37Z</time></trkpt><trkpt lat="45.65573387071568" lon="9.907404462133933"><ele>350.33333333333337</ele><time>2026-04-26T13:53:38Z</time></trkpt><trkpt lat="45.655715783355284" lon="9.907308903656277"><ele>349.0</ele><time>2026-04-26T13:53:39Z</time></trkpt><trkpt lat="45.65564030567073" lon="9.90724420561291"><ele>347.6666666666667</ele><time>2026-04-26T13:53:40Z</time></trkpt><trkpt lat="45.65558741267293" lon="9.907101099551053"><ele>346.3333333333333</ele><time>2026-04-26T13:53:42Z</time></trkpt><trkpt lat="45.65563197581327" lon="9.907013574546719"><ele>345.0</ele><time>2026-04-26T13:53:44Z</time></trkpt><trkpt lat="45.6557248063135" lon="9.906985764253305"><ele>345.0</ele><time>2026-04-26T13:53:46Z</time></trkpt><trkpt lat="45.65582295489048" lon="9.906898930132968"><ele>345.0</ele><time>2026-04-26T13:53:48Z</time></trkpt><trkpt lat="45.65590608126415" lon="9.906794879368787"><ele>345.0</ele><time>2026-04-26T13:53:50Z</time></trkpt><trkpt lat="45.6559660846281" lon="9.906764283645513"><ele>345.0</ele><time>2026-04-26T13:53:51Z</time></trkpt><trkpt lat="45.65603210065125" lon="9.906723090362922"><ele>345.0</ele><time>2026-04-26T13:53:52Z</time></trkpt><trkpt lat="45.65608531690113" lon="9.906666038454587"><ele>345.0</ele><time>2026-04-26T13:53:53Z</time></trkpt><trkpt lat="45.656136646066074" lon="9.906564540344327"><ele>343.3333333333333</ele><time>2026-04-26T13:53:54Z</time></trkpt><trkpt lat="45.656183379315" lon="9.906492009780736"><ele>341.6666666666667</ele><time>2026-04-26T13:53:55Z</time></trkpt><trkpt lat="45.65625951243174" lon="9.90636544634856"><ele>340.0</ele><time>2026-04-26T13:53:57Z</time></trkpt><trkpt lat="45.65633336481806" lon="9.906289530051584"><ele>338.33333333333337</ele><time>2026-04-26T13:53:59Z</time></trkpt><trkpt lat="45.65642733619104" lon="9.906245926323713"><ele>336.6666666666667</ele><time>2026-04-26T13:54:01Z</time></trkpt><trkpt lat="45.656495606248214" lon="9.90620564190129"><ele>335.0</ele><time>2026-04-26T13:54:04Z</time></trkpt><trkpt lat="45.65663074090631" lon="9.906134061489832"><ele>335.0</ele><time>2026-04-26T13:54:05Z</time></trkpt><trkpt lat="45.65674628598942" lon="9.906093519311199"><ele>335.0</ele><time>2026-04-26T13:54:07Z</time></trkpt><trkpt lat="45.65685214908845" lon="9.906024197657567"><ele>335.0</ele><time>2026-04-26T13:54:09Z</time></trkpt><trkpt lat="45.65696464235195" lon="9.906008658375324"><ele>335.0</ele><time>2026-04-26T13:54:11Z</time></trkpt><trkpt lat="45.65708834710468" lon="9.906041615965812"><ele>329.4</ele><time>2026-04-26T13:54:13Z</time></trkpt><trkpt lat="45.657176394627186" lon="9.906116911669427"><ele>323.8</ele><time>2026-04-26T13:54:15Z</time></trkpt><trkpt lat="45.65721838880663" lon="9.906266771380476"><ele>318.2</ele><time>2026-04-26T13:54:17Z</time></trkpt><trkpt lat="45.65715227499492" lon="9.906441516256098"><ele>312.6</ele><time>2026-04-26T13:54:18Z</time></trkpt><trkpt lat="45.657167613302676" lon="9.906543233354919"><ele>307.0</ele><time>2026-04-26T13:54:19Z</time></trkpt><trkpt lat="45.657123735879445" lon="9.90668850115173"><ele>307.0</ele><time>2026-04-26T13:54:21Z</time></trkpt><trkpt lat="45.65721320914736" lon="9.90677419022198"><ele>307.0</ele><time>2026-04-26T13:54:23Z</time></trkpt><trkpt lat="45.65727573228248" lon="9.906697192991157"><ele>307.0</ele><time>2026-04-26T13:54:25Z</time></trkpt><trkpt lat="45.65738682883433" lon="9.906640785179114"><ele>307.0</ele><time>2026-04-26T13:54:27Z</time></trkpt><trkpt lat="45.65749653186358" lon="9.906628312877348"><ele>307.0</ele><time>2026-04-26T13:54:29Z</time></trkpt><trkpt lat="45.657581262860404" lon="9.906633487803449"><ele>307.0</ele><time>2026-04-26T13:54:31Z</time></trkpt><trkpt lat="45.65772306146508" lon="9.906633263856962"><ele>307.0</ele><time>2026-04-26T13:54:34.999Z</time></trkpt><trkpt lat="45.65780123453447" lon="9.906604454534259"><ele>307.0</ele><time>2026-04-26T13:54:36.999Z</time></trkpt><trkpt lat="45.65789502362633" lon="9.90665573787386"><ele>307.0</ele><time>2026-04-26T13:54:38.999Z</time></trkpt><trkpt lat="45.65795761716703" lon="9.906692451455113"><ele>307.0</ele><time>2026-04-26T13:54:40.001Z</time></trkpt><trkpt lat="45.65807271766755" lon="9.90671082580554"><ele>302.0</ele><time>2026-04-26T13:54:42.001Z</time></trkpt><trkpt lat="45.65815619465482" lon="9.906688436885426"><ele>297.0</ele><time>2026-04-26T13:54:44.001Z</time></trkpt><trkpt lat="45.658235657847996" lon="9.906753048451566"><ele>292.0</ele><time>2026-04-26T13:54:46.001Z</time></trkpt><trkpt lat="45.658318447925126" lon="9.906831357991738"><ele>287.0</ele><time>2026-04-26T13:54:48.001Z</time></trkpt><trkpt lat="45.658412946189614" lon="9.906904268854879"><ele>282.0</ele><time>2026-04-26T13:54:50.001Z</time></trkpt><trkpt lat="45.65853562939788" lon="9.9069017551329"><ele>278.8333333333333</ele><time>2026-04-26T13:54:52.001Z</time></trkpt><trkpt lat="45.65862262579089" lon="9.906858518144084"><ele>275.6666666666667</ele><time>2026-04-26T13:54:54.001Z</time></trkpt><trkpt lat="45.658721565126356" lon="9.906872213431113"><ele>272.5</ele><time>2026-04-26T13:54:56.001Z</time></trkpt><trkpt lat="45.658790003417934" lon="9.906896736180668"><ele>269.33333333333337</ele><time>2026-04-26T13:54:58Z</time></trkpt><trkpt lat="45.658840491664385" lon="9.906955062655504"><ele>266.1666666666667</ele><time>2026-04-26T13:55:02Z</time></trkpt><trkpt lat="45.65890334891342" lon="9.906999971948535"><ele>263.0</ele><time>2026-04-26T13:55:05Z</time></trkpt><trkpt lat="45.658960369789774" lon="9.907069711742178"><ele>263.0</ele><time>2026-04-26T13:55:08Z</time></trkpt><trkpt lat="45.65900351250705" lon="9.907146212658018"><ele>263.0</ele><time>2026-04-26T13:55:11Z</time></trkpt><trkpt lat="45.659092491620754" lon="9.907290710233106"><ele>263.0</ele><time>2026-04-26T13:55:13Z</time></trkpt><trkpt lat="45.65916931551047" lon="9.907364140361539"><ele>263.0</ele><time>2026-04-26T13:55:15Z</time></trkpt><trkpt lat="45.659241532059475" lon="9.907387733224883"><ele>263.0</ele><time>2026-04-26T13:55:17Z</time></trkpt><trkpt lat="45.65932818537561" lon="9.90736774611941"><ele>263.0</ele><time>2026-04-26T13:55:19Z</time></trkpt><trkpt lat="45.6593596869351" lon="9.907265135553063"><ele>263.0</ele><time>2026-04-26T13:55:22Z</time></trkpt><trkpt lat="45.659360244531115" lon="9.907170748563217"><ele>263.0</ele><time>2026-04-26T13:55:23Z</time></trkpt><trkpt lat="45.65936288438493" lon="9.906949460911138"><ele>263.0</ele><time>2026-04-26T13:55:25Z</time></trkpt><trkpt lat="45.65931818501009" lon="9.906872386647974"><ele>263.0</ele><time>2026-04-26T13:55:26Z</time></trkpt><trkpt lat="45.659268683208936" lon="9.9067395120099"><ele>262.6666666666667</ele><time>2026-04-26T13:55:28Z</time></trkpt><trkpt lat="45.65939400059061" lon="9.906684355427394"><ele>262.33333333333337</ele><time>2026-04-26T13:55:30Z</time></trkpt><trkpt lat="45.65945496259806" lon="9.906661106984778"><ele>262.0</ele><time>2026-04-26T13:55:31Z</time></trkpt><trkpt lat="45.65952545540612" lon="9.906648717201605"><ele>261.6666666666667</ele><time>2026-04-26T13:55:32Z</time></trkpt><trkpt lat="45.6595901217902" lon="9.906625331671696"><ele>261.3333333333333</ele><time>2026-04-26T13:55:33Z</time></trkpt><trkpt lat="45.65964563395094" lon="9.906581913265391"><ele>261.0</ele><time>2026-04-26T13:55:34Z</time></trkpt><trkpt lat="45.65970585179431" lon="9.90653169710028"><ele>258.0</ele><time>2026-04-26T13:55:35Z</time></trkpt><trkpt lat="45.659828367268915" lon="9.9065111954527"><ele>255.0</ele><time>2026-04-26T13:55:37Z</time></trkpt><trkpt lat="45.65988447450154" lon="9.90656127491491"><ele>252.0</ele><time>2026-04-26T13:55:38Z</time></trkpt><trkpt lat="45.65996226643542" lon="9.906642161668488"><ele>249.0</ele><time>2026-04-26T13:55:39Z</time></trkpt><trkpt lat="45.66011877815832" lon="9.90675473371118"><ele>248.25</ele><time>2026-04-26T13:55:40Z</time></trkpt><trkpt lat="45.660257095038816" lon="9.906820076790416"><ele>247.5</ele><time>2026-04-26T13:55:41Z</time></trkpt><trkpt lat="45.66037663993255" lon="9.906909210097492"><ele>246.75</ele><time>2026-04-26T13:55:42Z</time></trkpt><trkpt lat="45.66049453681213" lon="9.90700407241085"><ele>246.0</ele><time>2026-04-26T13:55:43Z</time></trkpt><trkpt lat="45.66061186244075" lon="9.907076360052173"><ele>245.0</ele><time>2026-04-26T13:55:44Z</time></trkpt><trkpt lat="45.66071026153328" lon="9.907131776881974"><ele>244.0</ele><time>2026-04-26T13:55:45Z</time></trkpt><trkpt lat="45.660822309751325" lon="9.907203999953149"><ele>243.0</ele><time>2026-04-26T13:55:46Z</time></trkpt><trkpt lat="45.660926462722834" lon="9.907268640494726"><ele>242.0</ele><time>2026-04-26T13:55:47Z</time></trkpt><trkpt lat="45.66102784922737" lon="9.907327084934316"><ele>241.83333333333334</ele><time>2026-04-26T13:55:48Z</time></trkpt><trkpt lat="45.66113035967456" lon="9.907376951061046"><ele>241.66666666666669</ele><time>2026-04-26T13:55:49Z</time></trkpt><trkpt lat="45.66122496163951" lon="9.907430641506977"><ele>241.5</ele><time>2026-04-26T13:55:50Z</time></trkpt><trkpt lat="45.6613058286543" lon="9.907477550218019"><ele>241.33333333333331</ele><time>2026-04-26T13:55:51Z</time></trkpt><trkpt lat="45.661378211535634" lon="9.907514969568272"><ele>241.16666666666666</ele><time>2026-04-26T13:55:52Z</time></trkpt><trkpt lat="45.66144244998004" lon="9.907535734593516"><ele>241.0</ele><time>2026-04-26T13:55:53Z</time></trkpt><trkpt lat="45.66155655054013" lon="9.90752827153197"><ele>240.99999999999997</ele><time>2026-04-26T13:55:55Z</time></trkpt><trkpt lat="45.66160640543567" lon="9.90743365880297"><ele>241.0</ele><time>2026-04-26T13:55:56Z</time></trkpt><trkpt lat="45.66164037616311" lon="9.907336474016349"><ele>241.0</ele><time>2026-04-26T13:55:57Z</time></trkpt><trkpt lat="45.66167826313489" lon="9.907245158747557"><ele>241.0</ele><time>2026-04-26T13:55:58Z</time></trkpt><trkpt lat="45.66172397787844" lon="9.907166959753017"><ele>240.99999999999997</ele><time>2026-04-26T13:55:59Z</time></trkpt><trkpt lat="45.661770269768674" lon="9.907103085674025"><ele>241.0</ele><time>2026-04-26T13:56:00Z</time></trkpt><trkpt lat="45.661871874891844" lon="9.907083468005618"><ele>241.0</ele><time>2026-04-26T13:56:02Z</time></trkpt><trkpt lat="45.66192826468071" lon="9.907143613493773"><ele>241.00000000000003</ele><time>2026-04-26T13:56:03Z</time></trkpt><trkpt lat="45.66198578654683" lon="9.907214165169721"><ele>241.0</ele><time>2026-04-26T13:56:04Z</time></trkpt><trkpt lat="45.662041188770935" lon="9.907290394629648"><ele>241.0</ele><time>2026-04-26T13:56:05Z</time></trkpt><trkpt lat="45.66209809313405" lon="9.907367176285526"><ele>241.00000000000003</ele><time>2026-04-26T13:56:06Z</time></trkpt><trkpt lat="45.662148898318534" lon="9.907449445011377"><ele>241.0</ele><time>2026-04-26T13:56:07Z</time></trkpt><trkpt lat="45.662185381412634" lon="9.907535055860857"><ele>241.0</ele><time>2026-04-26T13:56:08Z</time></trkpt><trkpt lat="45.662209332621636" lon="9.907625094622343"><ele>240.99999999999997</ele><time>2026-04-26T13:56:09Z</time></trkpt><trkpt lat="45.66222460700194" lon="9.907723998654117"><ele>241.0</ele><time>2026-04-26T13:56:10Z</time></trkpt><trkpt lat="45.66222907580824" lon="9.907834984919546"><ele>241.0</ele><time>2026-04-26T13:56:11Z</time></trkpt><trkpt lat="45.662242873054495" lon="9.907939751417018"><ele>241.0</ele><time>2026-04-26T13:56:12Z</time></trkpt><trkpt lat="45.66228183566631" lon="9.90803231397609"><ele>240.99999999999997</ele><time>2026-04-26T13:56:13Z</time></trkpt><trkpt lat="45.66234070269957" lon="9.908103611694541"><ele>241.0</ele><time>2026-04-26T13:56:14Z</time></trkpt><trkpt lat="45.662409841268435" lon="9.908155274596687"><ele>240.99999999999997</ele><time>2026-04-26T13:56:15Z</time></trkpt><trkpt lat="45.66248698507186" lon="9.908179840709197"><ele>241.0</ele><time>2026-04-26T13:56:16Z</time></trkpt><trkpt lat="45.66256370522307" lon="9.908176490189216"><ele>241.0</ele><time>2026-04-26T13:56:17Z</time></trkpt><trkpt lat="45.66263724423115" lon="9.908161300040593"><ele>241.0</ele><time>2026-04-26T13:56:18Z</time></trkpt><trkpt lat="45.66270356993338" lon="9.908172036626008"><ele>240.99999999999997</ele><time>2026-04-26T13:56:19Z</time></trkpt><trkpt lat="45.662815560434844" lon="9.908181503677298"><ele>241.0</ele><time>2026-04-26T13:56:21Z</time></trkpt><trkpt lat="45.66289971811133" lon="9.908245896850982"><ele>241.0</ele><time>2026-04-26T13:56:23Z</time></trkpt><trkpt lat="45.66286722027058" lon="9.908386160250593"><ele>241.00000000000003</ele><time>2026-04-26T13:56:24Z</time></trkpt><trkpt lat="45.662867324708564" lon="9.908502231364357"><ele>241.00000000000003</ele><time>2026-04-26T13:56:25Z</time></trkpt><trkpt lat="45.662820927149504" lon="9.908611739736271"><ele>241.0</ele><time>2026-04-26T13:56:26Z</time></trkpt><trkpt lat="45.66275332077228" lon="9.908699254127871"><ele>241.0</ele><time>2026-04-26T13:56:27Z</time></trkpt><trkpt lat="45.66267215493748" lon="9.908737413933142"><ele>240.99999999999997</ele><time>2026-04-26T13:56:28Z</time></trkpt><trkpt lat="45.66259301645007" lon="9.908767335135929"><ele>241.0</ele><time>2026-04-26T13:56:29Z</time></trkpt><trkpt lat="45.66253897408158" lon="9.908842940342677"><ele>241.0</ele><time>2026-04-26T13:56:30Z</time></trkpt><trkpt lat="45.66251787968784" lon="9.908958328986548"><ele>241.0</ele><time>2026-04-26T13:56:31Z</time></trkpt><trkpt lat="45.66252312702645" lon="9.909086677200076"><ele>240.99999999999997</ele><time>2026-04-26T13:56:32Z</time></trkpt><trkpt lat="45.66254689815531" lon="9.909211700977783"><ele>241.0</ele><time>2026-04-26T13:56:33Z</time></trkpt><trkpt lat="45.662584948257965" lon="9.909340723661575"><ele>241.0</ele><time>2026-04-26T13:56:34Z</time></trkpt><trkpt lat="45.66264384893206" lon="9.909439470416066"><ele>241.00000000000003</ele><time>2026-04-26T13:56:35Z</time></trkpt><trkpt lat="45.662721954527015" lon="9.90950062093146"><ele>241.00000000000003</ele><time>2026-04-26T13:56:36Z</time></trkpt><trkpt lat="45.662807629960014" lon="9.909540024071392"><ele>241.0</ele><time>2026-04-26T13:56:37Z</time></trkpt><trkpt lat="45.662912879762374" lon="9.909466870035121"><ele>241.0</ele><time>2026-04-26T13:56:38Z</time></trkpt><trkpt lat="45.66300906463008" lon="9.909401535119596"><ele>241.0</ele><time>2026-04-26T13:56:39Z</time></trkpt><trkpt lat="45.6631055128005" lon="9.909314130418924"><ele>241.00000000000003</ele><time>2026-04-26T13:56:40Z</time></trkpt><trkpt lat="45.663193179912035" lon="9.909219880388358"><ele>241.00000000000003</ele><time>2026-04-26T13:56:41Z</time></trkpt><trkpt lat="45.6632813569025" lon="9.909120977353146"><ele>241.0</ele><time>2026-04-26T13:56:42Z</time></trkpt><trkpt lat="45.66336798117329" lon="9.909018185414649"><ele>241.0</ele><time>2026-04-26T13:56:43Z</time></trkpt><trkpt lat="45.663455872720085" lon="9.90890681884464"><ele>241.0</ele><time>2026-04-26T13:56:44Z</time></trkpt><trkpt lat="45.6635380959969" lon="9.908783762043427"><ele>241.00000000000003</ele><time>2026-04-26T13:56:45Z</time></trkpt><trkpt lat="45.66363047706511" lon="9.908693119914604"><ele>241.00000000000003</ele><time>2026-04-26T13:56:46.001Z</time></trkpt><trkpt lat="45.66369801975209" lon="9.908613979392918"><ele>241.0</ele><time>2026-04-26T13:56:47.001Z</time></trkpt><trkpt lat="45.66377385285093" lon="9.908529505983875"><ele>241.0</ele><time>2026-04-26T13:56:48.001Z</time></trkpt><trkpt lat="45.663866975352306" lon="9.908516941461166"><ele>242.4</ele><time>2026-04-26T13:56:49.001Z</time></trkpt><trkpt lat="45.66395634978936" lon="9.908526150414382"><ele>243.8</ele><time>2026-04-26T13:56:50.001Z</time></trkpt><trkpt lat="45.664058332646285" lon="9.908517359692881"><ele>245.20000000000002</ele><time>2026-04-26T13:56:51.001Z</time></trkpt><trkpt lat="45.66415918464169" lon="9.908533950205582"><ele>246.60000000000002</ele><time>2026-04-26T13:56:52.001Z</time></trkpt><trkpt lat="45.66424874731874" lon="9.908549260431414"><ele>248.0</ele><time>2026-04-26T13:56:53.001Z</time></trkpt><trkpt lat="45.66432578893288" lon="9.90853943253933"><ele>248.00000000000003</ele><time>2026-04-26T13:56:54.001Z</time></trkpt><trkpt lat="45.66439536559843" lon="9.908501356911295"><ele>248.0</ele><time>2026-04-26T13:56:55.001Z</time></trkpt><trkpt lat="45.66446080023345" lon="9.908439385208094"><ele>248.0</ele><time>2026-04-26T13:56:56.001Z</time></trkpt><trkpt lat="45.66452703522262" lon="9.908367614331986"><ele>248.0</ele><time>2026-04-26T13:56:57.001Z</time></trkpt><trkpt lat="45.66459076721944" lon="9.90828100728724"><ele>248.00000000000003</ele><time>2026-04-26T13:56:58.001Z</time></trkpt><trkpt lat="45.66465860387338" lon="9.90818167973431"><ele>248.0</ele><time>2026-04-26T13:56:59.001Z</time></trkpt><trkpt lat="45.66473654154837" lon="9.908114712785315"><ele>248.00000000000003</ele><time>2026-04-26T13:57:00.001Z</time></trkpt><trkpt lat="45.66481609602046" lon="9.908083753985274"><ele>248.0</ele><time>2026-04-26T13:57:01.001Z</time></trkpt><trkpt lat="45.664903256597306" lon="9.908076841678886"><ele>248.0</ele><time>2026-04-26T13:57:02.001Z</time></trkpt><trkpt lat="45.66499019339807" lon="9.908081840362694"><ele>248.0</ele><time>2026-04-26T13:57:03.001Z</time></trkpt><trkpt lat="45.665066174405396" lon="9.908082686052524"><ele>248.00000000000003</ele><time>2026-04-26T13:57:04.001Z</time></trkpt><trkpt lat="45.66513962127888" lon="9.908073012735926"><ele>248.0</ele><time>2026-04-26T13:57:05.001Z</time></trkpt><trkpt lat="45.665232354007586" lon="9.908046578004399"><ele>247.5</ele><time>2026-04-26T13:57:07Z</time></trkpt><trkpt lat="45.66532311417568" lon="9.908249452015173"><ele>247.0</ele><time>2026-04-26T13:57:11Z</time></trkpt><trkpt lat="45.66538173336558" lon="9.908389237585125"><ele>246.5</ele><time>2026-04-26T13:57:12Z</time></trkpt><trkpt lat="45.6654602018355" lon="9.908542002786895"><ele>246.0</ele><time>2026-04-26T13:57:13Z</time></trkpt><trkpt lat="45.66555735145969" lon="9.908709132403846"><ele>245.0</ele><time>2026-04-26T13:57:14Z</time></trkpt><trkpt lat="45.66565893885285" lon="9.908889838153678"><ele>244.0</ele><time>2026-04-26T13:57:15Z</time></trkpt><trkpt lat="45.66576185720952" lon="9.909069974256926"><ele>243.0</ele><time>2026-04-26T13:57:16Z</time></trkpt><trkpt lat="45.665868454361295" lon="9.909264932897004"><ele>243.0</ele><time>2026-04-26T13:57:17Z</time></trkpt><trkpt lat="45.665978043637935" lon="9.909458069002344"><ele>243.0</ele><time>2026-04-26T13:57:18Z</time></trkpt><trkpt lat="45.666088854564954" lon="9.90965068075256"><ele>243.0</ele><time>2026-04-26T13:57:19Z</time></trkpt><trkpt lat="45.66619198125546" lon="9.90984149973177"><ele>244.33333333333331</ele><time>2026-04-26T13:57:20Z</time></trkpt><trkpt lat="45.66629437029887" lon="9.910044573595346"><ele>245.66666666666666</ele><time>2026-04-26T13:57:21Z</time></trkpt><trkpt lat="45.666390475219764" lon="9.910253919223932"><ele>247.0</ele><time>2026-04-26T13:57:22Z</time></trkpt><trkpt lat="45.666481608898415" lon="9.910467158532933"><ele>247.66666666666666</ele><time>2026-04-26T13:57:23Z</time></trkpt><trkpt lat="45.666566883017715" lon="9.910678711769691"><ele>248.33333333333331</ele><time>2026-04-26T13:57:24Z</time></trkpt><trkpt lat="45.66665473564322" lon="9.910879102647147"><ele>249.0</ele><time>2026-04-26T13:57:25Z</time></trkpt><trkpt lat="45.66673334581965" lon="9.911074558549947"><ele>250.33333333333331</ele><time>2026-04-26T13:57:26Z</time></trkpt><trkpt lat="45.66679281493332" lon="9.911277782805263"><ele>251.66666666666666</ele><time>2026-04-26T13:57:27Z</time></trkpt><trkpt lat="45.66683293925247" lon="9.911501587753326"><ele>253.0</ele><time>2026-04-26T13:57:28Z</time></trkpt><trkpt lat="45.66686092532699" lon="9.911730686865537"><ele>253.0</ele><time>2026-04-26T13:57:29Z</time></trkpt><trkpt lat="45.66689376565004" lon="9.911949294646345"><ele>253.0</ele><time>2026-04-26T13:57:30Z</time></trkpt><trkpt lat="45.666924174737275" lon="9.912155053260584"><ele>253.0</ele><time>2026-04-26T13:57:31Z</time></trkpt><trkpt lat="45.66694892468441" lon="9.912368784365343"><ele>253.0</ele><time>2026-04-26T13:57:32Z</time></trkpt><trkpt lat="45.66693182881554" lon="9.912565324327131"><ele>253.0</ele><time>2026-04-26T13:57:33Z</time></trkpt><trkpt lat="45.66693706046525" lon="9.912763380555376"><ele>253.0</ele><time>2026-04-26T13:57:34Z</time></trkpt><trkpt lat="45.66692275692093" lon="9.912959832520611"><ele>253.0</ele><time>2026-04-26T13:57:35Z</time></trkpt><trkpt lat="45.66692034773216" lon="9.913152492069367"><ele>252.75</ele><time>2026-04-26T13:57:36Z</time></trkpt><trkpt lat="45.666925349810924" lon="9.913352445696642"><ele>252.5</ele><time>2026-04-26T13:57:37Z</time></trkpt><trkpt lat="45.66693687282023" lon="9.913558738177107"><ele>252.25</ele><time>2026-04-26T13:57:38Z</time></trkpt><trkpt lat="45.66695518073665" lon="9.91377739149223"><ele>252.0</ele><time>2026-04-26T13:57:39Z</time></trkpt><trkpt lat="45.666975470372265" lon="9.914000591266271"><ele>251.75</ele><time>2026-04-26T13:57:40Z</time></trkpt><trkpt lat="45.66699346503205" lon="9.914205202552242"><ele>251.5</ele><time>2026-04-26T13:57:41Z</time></trkpt><trkpt lat="45.66700953921969" lon="9.914412467813493"><ele>251.25</ele><time>2026-04-26T13:57:42Z</time></trkpt><trkpt lat="45.66702998501363" lon="9.914615450753095"><ele>251.0</ele><time>2026-04-26T13:57:43Z</time></trkpt><trkpt lat="45.66705156986099" lon="9.914806000806479"><ele>249.75</ele><time>2026-04-26T13:57:44Z</time></trkpt><trkpt lat="45.66706883222461" lon="9.914992849225102"><ele>248.5</ele><time>2026-04-26T13:57:45Z</time></trkpt><trkpt lat="45.667070170272716" lon="9.915171698412603"><ele>247.25</ele><time>2026-04-26T13:57:46Z</time></trkpt><trkpt lat="45.66702514392129" lon="9.91534909951163"><ele>246.0</ele><time>2026-04-26T13:57:47Z</time></trkpt><trkpt lat="45.6669489823662" lon="9.915529189449986"><ele>244.5</ele><time>2026-04-26T13:57:48Z</time></trkpt><trkpt lat="45.66686694714654" lon="9.915705784346006"><ele>243.0</ele><time>2026-04-26T13:57:49Z</time></trkpt><trkpt lat="45.6668210205873" lon="9.915899632431048"><ele>241.5</ele><time>2026-04-26T13:57:50Z</time></trkpt><trkpt lat="45.666813387206325" lon="9.916111478773065"><ele>240.0</ele><time>2026-04-26T13:57:51Z</time></trkpt><trkpt lat="45.66684450763222" lon="9.916333877509107"><ele>239.66666666666669</ele><time>2026-04-26T13:57:52Z</time></trkpt><trkpt lat="45.66688727317001" lon="9.916553641928274"><ele>239.33333333333334</ele><time>2026-04-26T13:57:53Z</time></trkpt><trkpt lat="45.66693501714333" lon="9.916774894142671"><ele>239.0</ele><time>2026-04-26T13:57:54Z</time></trkpt><trkpt lat="45.6669889532903" lon="9.917000055308673"><ele>238.33333333333334</ele><time>2026-04-26T13:57:55Z</time></trkpt><trkpt lat="45.66703876230856" lon="9.917228802588232"><ele>237.66666666666669</ele><time>2026-04-26T13:57:56Z</time></trkpt><trkpt lat="45.66708449503277" lon="9.917450636204862"><ele>237.0</ele><time>2026-04-26T13:57:57Z</time></trkpt><trkpt lat="45.667125632493644" lon="9.917662387106962"><ele>236.5</ele><time>2026-04-26T13:57:58Z</time></trkpt><trkpt lat="45.667151227800844" lon="9.917862096928783"><ele>236.0</ele><time>2026-04-26T13:57:59Z</time></trkpt><trkpt lat="45.66715336593313" lon="9.91805667049719"><ele>235.5</ele><time>2026-04-26T13:58:00Z</time></trkpt><trkpt lat="45.66711725041399" lon="9.918240794931144"><ele>235.0</ele><time>2026-04-26T13:58:01Z</time></trkpt><trkpt lat="45.667069938118665" lon="9.91842897250115"><ele>234.33333333333331</ele><time>2026-04-26T13:58:02Z</time></trkpt><trkpt lat="45.66701251577327" lon="9.91862181228274"><ele>233.66666666666669</ele><time>2026-04-26T13:58:03Z</time></trkpt><trkpt lat="45.66695422182937" lon="9.918822779206492"><ele>233.0</ele><time>2026-04-26T13:58:04Z</time></trkpt><trkpt lat="45.66690385764354" lon="9.91902793770044"><ele>231.66666666666669</ele><time>2026-04-26T13:58:05Z</time></trkpt><trkpt lat="45.66685950007978" lon="9.919235618975405"><ele>230.33333333333331</ele><time>2026-04-26T13:58:06Z</time></trkpt><trkpt lat="45.66682683933241" lon="9.919457255567812"><ele>229.0</ele><time>2026-04-26T13:58:07Z</time></trkpt><trkpt lat="45.66680254982044" lon="9.919674839145104"><ele>229.0</ele><time>2026-04-26T13:58:08Z</time></trkpt><trkpt lat="45.66679096797685" lon="9.919894139301231"><ele>229.0</ele><time>2026-04-26T13:58:09Z</time></trkpt><trkpt lat="45.66678960926734" lon="9.920119623127087"><ele>229.0</ele><time>2026-04-26T13:58:10Z</time></trkpt><trkpt lat="45.66678724849237" lon="9.920340914993112"><ele>229.33333333333331</ele><time>2026-04-26T13:58:11Z</time></trkpt><trkpt lat="45.66678527954486" lon="9.92056055855452"><ele>229.66666666666669</ele><time>2026-04-26T13:58:12Z</time></trkpt><trkpt lat="45.666790110588416" lon="9.920777168191817"><ele>230.0</ele><time>2026-04-26T13:58:13Z</time></trkpt><trkpt lat="45.66679789036149" lon="9.921000609057092"><ele>228.66666666666669</ele><time>2026-04-26T13:58:14Z</time></trkpt><trkpt lat="45.66680547472839" lon="9.921226935950955"><ele>227.33333333333331</ele><time>2026-04-26T13:58:15Z</time></trkpt><trkpt lat="45.66681445571129" lon="9.921442738347912"><ele>226.0</ele><time>2026-04-26T13:58:16Z</time></trkpt><trkpt lat="45.66682585397394" lon="9.921656351714791"><ele>225.5</ele><time>2026-04-26T13:58:17Z</time></trkpt><trkpt lat="45.666833215755865" lon="9.921853390881111"><ele>225.0</ele><time>2026-04-26T13:58:18Z</time></trkpt><trkpt lat="45.66683917298201" lon="9.92204457173929"><ele>224.5</ele><time>2026-04-26T13:58:19Z</time></trkpt><trkpt lat="45.66684477536638" lon="9.922229145300584"><ele>224.0</ele><time>2026-04-26T13:58:20Z</time></trkpt><trkpt lat="45.66684545106945" lon="9.92241631579488"><ele>224.0</ele><time>2026-04-26T13:58:21Z</time></trkpt><trkpt lat="45.66682487902029" lon="9.922607636262956"><ele>224.0</ele><time>2026-04-26T13:58:22Z</time></trkpt><trkpt lat="45.66679423768554" lon="9.922809651146798"><ele>224.0</ele><time>2026-04-26T13:58:23Z</time></trkpt><trkpt lat="45.666753344696644" lon="9.92300413860473"><ele>224.0</ele><time>2026-04-26T13:58:24Z</time></trkpt><trkpt lat="45.66670130609353" lon="9.923174289393135"><ele>224.0</ele><time>2026-04-26T13:58:25Z</time></trkpt><trkpt lat="45.666646791193635" lon="9.92332146602607"><ele>224.0</ele><time>2026-04-26T13:58:26Z</time></trkpt><trkpt lat="45.666597572840274" lon="9.92342363625098"><ele>224.0</ele><time>2026-04-26T13:58:27Z</time></trkpt><trkpt lat="45.66649410023773" lon="9.923569159100854"><ele>224.0</ele><time>2026-04-26T13:58:29Z</time></trkpt><trkpt lat="45.66640459433699" lon="9.923678832201404"><ele>224.0</ele><time>2026-04-26T13:58:30Z</time></trkpt><trkpt lat="45.666302567505426" lon="9.923812478765957"><ele>224.0</ele><time>2026-04-26T13:58:30.999Z</time></trkpt><trkpt lat="45.66619184138309" lon="9.923941255279436"><ele>224.0</ele><time>2026-04-26T13:58:31.999Z</time></trkpt><trkpt lat="45.66605623307616" lon="9.924065226072916"><ele>224.0</ele><time>2026-04-26T13:58:32.999Z</time></trkpt><trkpt lat="45.665910158557715" lon="9.924185577999014"><ele>223.33333333333334</ele><time>2026-04-26T13:58:33.999Z</time></trkpt><trkpt lat="45.665764464015254" lon="9.924303612589416"><ele>222.66666666666669</ele><time>2026-04-26T13:58:34.999Z</time></trkpt><trkpt lat="45.665624591097" lon="9.924405459783948"><ele>222.0</ele><time>2026-04-26T13:58:35.999Z</time></trkpt><trkpt lat="45.66547644347864" lon="9.92450052780995"><ele>222.0</ele><time>2026-04-26T13:58:36.999Z</time></trkpt><trkpt lat="45.66532766395447" lon="9.924589010981652"><ele>222.0</ele><time>2026-04-26T13:58:37.999Z</time></trkpt><trkpt lat="45.665178094055285" lon="9.924673988225422"><ele>222.0</ele><time>2026-04-26T13:58:38.999Z</time></trkpt><trkpt lat="45.66502424357733" lon="9.924757533246117"><ele>221.66666666666669</ele><time>2026-04-26T13:58:39.999Z</time></trkpt><trkpt lat="45.66486469267342" lon="9.924843329285082"><ele>221.33333333333334</ele><time>2026-04-26T13:58:40.999Z</time></trkpt><trkpt lat="45.66471219407058" lon="9.92494680659522"><ele>221.0</ele><time>2026-04-26T13:58:41.999Z</time></trkpt><trkpt lat="45.66456715505849" lon="9.925079965267196"><ele>222.0</ele><time>2026-04-26T13:58:42.999Z</time></trkpt><trkpt lat="45.664429901896966" lon="9.925231019974632"><ele>223.0</ele><time>2026-04-26T13:58:43.999Z</time></trkpt><trkpt lat="45.66430015423354" lon="9.925388359529032"><ele>224.0</ele><time>2026-04-26T13:58:44.999Z</time></trkpt><trkpt lat="45.6641787748295" lon="9.92553523692578"><ele>224.0</ele><time>2026-04-26T13:58:45.999Z</time></trkpt><trkpt lat="45.664069031740944" lon="9.925662439531548"><ele>224.0</ele><time>2026-04-26T13:58:46.999Z</time></trkpt><trkpt lat="45.663968937197595" lon="9.92577265217993"><ele>224.0</ele><time>2026-04-26T13:58:47.999Z</time></trkpt><trkpt lat="45.66390912591261" lon="9.925910131319318"><ele>224.0</ele><time>2026-04-26T13:58:48.999Z</time></trkpt><trkpt lat="45.663867136019306" lon="9.926053519288534"><ele>224.0</ele><time>2026-04-26T13:58:49.999Z</time></trkpt><trkpt lat="45.663865085394775" lon="9.926237325687161"><ele>224.0</ele><time>2026-04-26T13:58:50.999Z</time></trkpt><trkpt lat="45.66388399651968" lon="9.926437342858987"><ele>224.0</ele><time>2026-04-26T13:58:52Z</time></trkpt><trkpt lat="45.663885725977565" lon="9.926666157960822"><ele>224.0</ele><time>2026-04-26T13:58:53Z</time></trkpt><trkpt lat="45.66388397307923" lon="9.926894458266325"><ele>224.0</ele><time>2026-04-26T13:58:54Z</time></trkpt><trkpt lat="45.663878516474504" lon="9.927135457227282"><ele>224.0</ele><time>2026-04-26T13:58:55Z</time></trkpt><trkpt lat="45.66387500498963" lon="9.927378667895736"><ele>224.0</ele><time>2026-04-26T13:58:56Z</time></trkpt><trkpt lat="45.663865998664676" lon="9.927607628849131"><ele>224.0</ele><time>2026-04-26T13:58:57Z</time></trkpt><trkpt lat="45.66385985539967" lon="9.9278314542562"><ele>224.0</ele><time>2026-04-26T13:58:58Z</time></trkpt><trkpt lat="45.663858749276145" lon="9.928052888772914"><ele>224.0</ele><time>2026-04-26T13:58:59Z</time></trkpt><trkpt lat="45.66386091863187" lon="9.928271504968265"><ele>224.33333333333334</ele><time>2026-04-26T13:59:00Z</time></trkpt><trkpt lat="45.663863967107126" lon="9.928484421620558"><ele>224.66666666666669</ele><time>2026-04-26T13:59:01Z</time></trkpt><trkpt lat="45.66386845733048" lon="9.928706861706981"><ele>225.0</ele><time>2026-04-26T13:59:02Z</time></trkpt><trkpt lat="45.663875488744466" lon="9.928931946980816"><ele>225.0</ele><time>2026-04-26T13:59:03Z</time></trkpt><trkpt lat="45.66387942494897" lon="9.9291595608082"><ele>225.0</ele><time>2026-04-26T13:59:04Z</time></trkpt><trkpt lat="45.66387922785144" lon="9.929386089849277"><ele>225.0</ele><time>2026-04-26T13:59:05Z</time></trkpt><trkpt lat="45.66387628334059" lon="9.929615779378025"><ele>225.5</ele><time>2026-04-26T13:59:06Z</time></trkpt><trkpt lat="45.66386864495042" lon="9.929826011495143"><ele>226.0</ele><time>2026-04-26T13:59:07Z</time></trkpt><trkpt lat="45.663858787199764" lon="9.930021717251206"><ele>226.5</ele><time>2026-04-26T13:59:08Z</time></trkpt><trkpt lat="45.663846151239724" lon="9.930199114342225"><ele>227.0</ele><time>2026-04-26T13:59:09Z</time></trkpt><trkpt lat="45.66383945464756" lon="9.930364143452081"><ele>227.6</ele><time>2026-04-26T13:59:10Z</time></trkpt><trkpt lat="45.66383512439934" lon="9.930521391943548"><ele>228.2</ele><time>2026-04-26T13:59:11Z</time></trkpt><trkpt lat="45.6638370382753" lon="9.930653021943336"><ele>228.8</ele><time>2026-04-26T13:59:12Z</time></trkpt><trkpt lat="45.663837786729395" lon="9.93078810897754"><ele>229.4</ele><time>2026-04-26T13:59:14Z</time></trkpt><trkpt lat="45.66385858259934" lon="9.930909956361074"><ele>230.0</ele><time>2026-04-26T13:59:17Z</time></trkpt><trkpt lat="45.66397761250554" lon="9.930925058778692"><ele>230.00000000000003</ele><time>2026-04-26T13:59:18Z</time></trkpt><trkpt lat="45.664062183188825" lon="9.930971147641031"><ele>230.0</ele><time>2026-04-26T13:59:20Z</time></trkpt><trkpt lat="45.664174788897235" lon="9.930997894398098"><ele>230.0</ele><time>2026-04-26T13:59:22Z</time></trkpt><trkpt lat="45.66424517824982" lon="9.93100781587585"><ele>230.0</ele><time>2026-04-26T13:59:23Z</time></trkpt><trkpt lat="45.66432825586794" lon="9.931016681240816"><ele>230.00000000000003</ele><time>2026-04-26T13:59:24Z</time></trkpt><trkpt lat="45.66440472435291" lon="9.93104361604284"><ele>230.0</ele><time>2026-04-26T13:59:25Z</time></trkpt><trkpt lat="45.66446694323458" lon="9.931075612924069"><ele>230.00000000000003</ele><time>2026-04-26T13:59:26Z</time></trkpt><trkpt lat="45.664540882129" lon="9.931117599296298"><ele>230.0</ele><time>2026-04-26T13:59:28Z</time></trkpt><trkpt lat="45.664619607364344" lon="9.931166491910627"><ele>230.0</ele><time>2026-04-26T13:59:30Z</time></trkpt><trkpt lat="45.66468253219117" lon="9.931216958129593"><ele>230.0</ele><time>2026-04-26T13:59:32Z</time></trkpt><trkpt lat="45.664758000230975" lon="9.931343984009215"><ele>230.00000000000003</ele><time>2026-04-26T13:59:35Z</time></trkpt><trkpt lat="45.664795074167834" lon="9.931418726094952"><ele>230.0</ele><time>2026-04-26T13:59:36Z</time></trkpt><trkpt lat="45.66490805742802" lon="9.931511407474021"><ele>230.00000000000003</ele><time>2026-04-26T13:59:38Z</time></trkpt><trkpt lat="45.664982452993165" lon="9.931533598607007"><ele>230.0</ele><time>2026-04-26T13:59:39Z</time></trkpt><trkpt lat="45.66504924388861" lon="9.93144747165109"><ele>230.0</ele><time>2026-04-26T13:59:40Z</time></trkpt><trkpt lat="45.66509169554066" lon="9.93135003010394"><ele>230.0</ele><time>2026-04-26T13:59:41Z</time></trkpt><trkpt lat="45.66509824296595" lon="9.931225055263498"><ele>230.00000000000003</ele><time>2026-04-26T13:59:42Z</time></trkpt><trkpt lat="45.6650594927376" lon="9.93110321948318"><ele>230.0</ele><time>2026-04-26T13:59:43Z</time></trkpt><trkpt lat="45.66498629105405" lon="9.931026901715478"><ele>230.0</ele><time>2026-04-26T13:59:44Z</time></trkpt><trkpt lat="45.66489906939819" lon="9.93101163822919"><ele>230.0</ele><time>2026-04-26T13:59:45Z</time></trkpt><trkpt lat="45.66481125871612" lon="9.931042049782027"><ele>230.0</ele><time>2026-04-26T13:59:46Z</time></trkpt><trkpt lat="45.66472884937727" lon="9.931122028259336"><ele>230.0</ele><time>2026-04-26T13:59:47Z</time></trkpt><trkpt lat="45.66465402548652" lon="9.931192001699548"><ele>230.0</ele><time>2026-04-26T13:59:48Z</time></trkpt><trkpt lat="45.66450801615183" lon="9.931059398887585"><ele>230.0</ele><time>2026-04-26T13:59:49Z</time></trkpt><trkpt lat="45.664356169317074" lon="9.931002407057003"><ele>230.0</ele><time>2026-04-26T13:59:50Z</time></trkpt><trkpt lat="45.66414847999602" lon="9.930953136072324"><ele>230.0</ele><time>2026-04-26T13:59:51Z</time></trkpt><trkpt lat="45.66396155204629" lon="9.930873593661591"><ele>230.0</ele><time>2026-04-26T13:59:52Z</time></trkpt><trkpt lat="45.66379675109168" lon="9.930817580590748"><ele>230.0</ele><time>2026-04-26T13:59:53Z</time></trkpt><trkpt lat="45.663625756713536" lon="9.930730611983073"><ele>230.0</ele><time>2026-04-26T13:59:54Z</time></trkpt><trkpt lat="45.6634626571309" lon="9.930607102538593"><ele>233.66666666666669</ele><time>2026-04-26T13:59:55Z</time></trkpt><trkpt lat="45.66330802231644" lon="9.930478020256206"><ele>237.33333333333331</ele><time>2026-04-26T13:59:56Z</time></trkpt><trkpt lat="45.663181594902134" lon="9.930330118423024"><ele>241.0</ele><time>2026-04-26T13:59:57Z</time></trkpt><trkpt lat="45.66304844369632" lon="9.930227680184043"><ele>241.0</ele><time>2026-04-26T13:59:58Z</time></trkpt><trkpt lat="45.66294387763219" lon="9.930098072509004"><ele>241.0</ele><time>2026-04-26T13:59:59Z</time></trkpt><trkpt lat="45.6628142217976" lon="9.929970781680991"><ele>241.0</ele><time>2026-04-26T14:00:00Z</time></trkpt><trkpt lat="45.6626948790227" lon="9.929853615779589"><ele>241.0</ele><time>2026-04-26T14:00:01Z</time></trkpt><trkpt lat="45.66259522248896" lon="9.929782714723329"><ele>240.16666666666666</ele><time>2026-04-26T14:00:02Z</time></trkpt><trkpt lat="45.662529232968346" lon="9.929691066877442"><ele>239.33333333333331</ele><time>2026-04-26T14:00:03Z</time></trkpt><trkpt lat="45.66246203288307" lon="9.929625714806509"><ele>238.5</ele><time>2026-04-26T14:00:04Z</time></trkpt><trkpt lat="45.66239352407487" lon="9.92958153962913"><ele>237.66666666666669</ele><time>2026-04-26T14:00:05Z</time></trkpt><trkpt lat="45.66234293361395" lon="9.929519383751256"><ele>236.83333333333334</ele><time>2026-04-26T14:00:05.999Z</time></trkpt><trkpt lat="45.66229114300806" lon="9.92945504140152"><ele>236.0</ele><time>2026-04-26T14:00:06.999Z</time></trkpt><trkpt lat="45.662238705760245" lon="9.929379045147552"><ele>236.0</ele><time>2026-04-26T14:00:07.999Z</time></trkpt><trkpt lat="45.662149317330204" lon="9.929246248872488"><ele>236.00000000000003</ele><time>2026-04-26T14:00:09.999Z</time></trkpt><trkpt lat="45.662101206264055" lon="9.929182085810439"><ele>236.00000000000003</ele><time>2026-04-26T14:00:10.999Z</time></trkpt><trkpt lat="45.662035368983176" lon="9.929085780835562"><ele>236.0</ele><time>2026-04-26T14:00:12.999Z</time></trkpt><trkpt lat="45.66198390667709" lon="9.929006764211964"><ele>236.0</ele><time>2026-04-26T14:00:14.999Z</time></trkpt><trkpt lat="45.661940157878234" lon="9.928882115803146"><ele>234.0</ele><time>2026-04-26T14:00:16.999Z</time></trkpt><trkpt lat="45.661926092760275" lon="9.928724118627564"><ele>232.00000000000003</ele><time>2026-04-26T14:00:18.999Z</time></trkpt><trkpt lat="45.66186357769634" lon="9.928667365804307"><ele>230.00000000000003</ele><time>2026-04-26T14:00:20.999Z</time></trkpt><trkpt lat="45.66173323343348" lon="9.928643082876436"><ele>228.0</ele><time>2026-04-26T14:00:22.999Z</time></trkpt><trkpt lat="45.66163641167723" lon="9.928591062849085"><ele>226.0</ele><time>2026-04-26T14:00:23.999Z</time></trkpt><trkpt lat="45.661521650400445" lon="9.928480551967908"><ele>225.66666666666666</ele><time>2026-04-26T14:00:24.999Z</time></trkpt><trkpt lat="45.66137223215711" lon="9.928390889459678"><ele>225.33333333333331</ele><time>2026-04-26T14:00:25.999Z</time></trkpt><trkpt lat="45.66121523595491" lon="9.928311125798658"><ele>225.0</ele><time>2026-04-26T14:00:26.999Z</time></trkpt><trkpt lat="45.66106678934429" lon="9.928245685285502"><ele>224.75</ele><time>2026-04-26T14:00:27.999Z</time></trkpt><trkpt lat="45.66094562059829" lon="9.928167023095039"><ele>224.5</ele><time>2026-04-26T14:00:28.999Z</time></trkpt><trkpt lat="45.660828264964884" lon="9.928095784691548"><ele>224.25</ele><time>2026-04-26T14:00:29.999Z</time></trkpt><trkpt lat="45.66073352535627" lon="9.928001710152776"><ele>224.0</ele><time>2026-04-26T14:00:30.999Z</time></trkpt><trkpt lat="45.66063373071589" lon="9.927923927118242"><ele>224.0</ele><time>2026-04-26T14:00:31.999Z</time></trkpt><trkpt lat="45.660545783145885" lon="9.927851463315564"><ele>223.99999999999997</ele><time>2026-04-26T14:00:32.999Z</time></trkpt><trkpt lat="45.66046436937237" lon="9.927776397099583"><ele>223.99999999999997</ele><time>2026-04-26T14:00:33.999Z</time></trkpt><trkpt lat="45.66037996099119" lon="9.92771936899793"><ele>224.0</ele><time>2026-04-26T14:00:34.999Z</time></trkpt><trkpt lat="45.66030560955902" lon="9.92763594196966"><ele>224.0</ele><time>2026-04-26T14:00:35.999Z</time></trkpt><trkpt lat="45.66022006119406" lon="9.927545162020296"><ele>222.75</ele><time>2026-04-26T14:00:36.999Z</time></trkpt><trkpt lat="45.66013448042953" lon="9.927451581988649"><ele>221.5</ele><time>2026-04-26T14:00:37.999Z</time></trkpt><trkpt lat="45.660046222265414" lon="9.927354636989811"><ele>220.25</ele><time>2026-04-26T14:00:38.999Z</time></trkpt><trkpt lat="45.65995857827388" lon="9.927237063472088"><ele>219.0</ele><time>2026-04-26T14:00:39.999Z</time></trkpt><trkpt lat="45.65988772328398" lon="9.92708970014318"><ele>219.0</ele><time>2026-04-26T14:00:40.999Z</time></trkpt><trkpt lat="45.659826184066425" lon="9.926931694474176"><ele>219.0</ele><time>2026-04-26T14:00:41.999Z</time></trkpt><trkpt lat="45.65976686311211" lon="9.92676672081263"><ele>219.0</ele><time>2026-04-26T14:00:42.999Z</time></trkpt><trkpt lat="45.65968005073087" lon="9.926619775621939"><ele>219.0</ele><time>2026-04-26T14:00:43.999Z</time></trkpt><trkpt lat="45.6595859467676" lon="9.926489996074414"><ele>218.5</ele><time>2026-04-26T14:00:44.999Z</time></trkpt><trkpt lat="45.65947930981637" lon="9.92638973173183"><ele>218.0</ele><time>2026-04-26T14:00:45.999Z</time></trkpt><trkpt lat="45.65936409544146" lon="9.926280996453121"><ele>217.5</ele><time>2026-04-26T14:00:46.999Z</time></trkpt><trkpt lat="45.659233204712926" lon="9.926173874951717"><ele>217.0</ele><time>2026-04-26T14:00:47.999Z</time></trkpt><trkpt lat="45.65909467554851" lon="9.926064246162893"><ele>217.0</ele><time>2026-04-26T14:00:48.999Z</time></trkpt><trkpt lat="45.658962827322064" lon="9.925944286906706"><ele>217.0</ele><time>2026-04-26T14:00:49.999Z</time></trkpt><trkpt lat="45.65883286265171" lon="9.925823644722788"><ele>217.0</ele><time>2026-04-26T14:00:50.999Z</time></trkpt><trkpt lat="45.65869601404935" lon="9.925713677305511"><ele>217.33333333333331</ele><time>2026-04-26T14:00:51.999Z</time></trkpt><trkpt lat="45.65855775033508" lon="9.925589181603206"><ele>217.66666666666669</ele><time>2026-04-26T14:00:52.999Z</time></trkpt><trkpt lat="45.658405798447774" lon="9.925450838534456"><ele>218.0</ele><time>2026-04-26T14:00:53.999Z</time></trkpt><trkpt lat="45.65824574512131" lon="9.925307072549618"><ele>218.0</ele><time>2026-04-26T14:00:54.999Z</time></trkpt><trkpt lat="45.65809554445192" lon="9.925174147938067"><ele>218.0</ele><time>2026-04-26T14:00:55.999Z</time></trkpt><trkpt lat="45.657948864299804" lon="9.92504623037879"><ele>218.0</ele><time>2026-04-26T14:00:56.999Z</time></trkpt><trkpt lat="45.65780487933697" lon="9.924916303102307"><ele>219.0</ele><time>2026-04-26T14:00:58Z</time></trkpt><trkpt lat="45.65767604740462" lon="9.92479395300884"><ele>220.0</ele><time>2026-04-26T14:00:59Z</time></trkpt><trkpt lat="45.657560125897405" lon="9.924669926621526"><ele>221.0</ele><time>2026-04-26T14:01:00Z</time></trkpt><trkpt lat="45.65744546014305" lon="9.92453699522511"><ele>222.0</ele><time>2026-04-26T14:01:01Z</time></trkpt><trkpt lat="45.657336637699515" lon="9.92439517082368"><ele>222.0</ele><time>2026-04-26T14:01:02Z</time></trkpt><trkpt lat="45.65723528027492" lon="9.924250799741603"><ele>222.0</ele><time>2026-04-26T14:01:03Z</time></trkpt><trkpt lat="45.657138807094825" lon="9.924111581922302"><ele>222.0</ele><time>2026-04-26T14:01:04Z</time></trkpt><trkpt lat="45.65704310604867" lon="9.923976094804637"><ele>222.0</ele><time>2026-04-26T14:01:05Z</time></trkpt><trkpt lat="45.65695609077865" lon="9.923850565288808"><ele>222.0</ele><time>2026-04-26T14:01:06Z</time></trkpt><trkpt lat="45.65687433568994" lon="9.923727222329747"><ele>222.0</ele><time>2026-04-26T14:01:07Z</time></trkpt><trkpt lat="45.656795990675036" lon="9.92361920493866"><ele>222.0</ele><time>2026-04-26T14:01:08Z</time></trkpt><trkpt lat="45.6567316005459" lon="9.923520205335562"><ele>222.0</ele><time>2026-04-26T14:01:09Z</time></trkpt><trkpt lat="45.65668175736673" lon="9.923430367024165"><ele>222.0</ele><time>2026-04-26T14:01:10Z</time></trkpt><trkpt lat="45.65664360111694" lon="9.923325132013337"><ele>223.14285714285714</ele><time>2026-04-26T14:01:11Z</time></trkpt><trkpt lat="45.65661044618752" lon="9.923217031816053"><ele>224.28571428571428</ele><time>2026-04-26T14:01:12Z</time></trkpt><trkpt lat="45.65659124505145" lon="9.923105271562608"><ele>225.42857142857142</ele><time>2026-04-26T14:01:13Z</time></trkpt><trkpt lat="45.656567746152575" lon="9.923013038540716"><ele>226.57142857142856</ele><time>2026-04-26T14:01:14Z</time></trkpt><trkpt lat="45.65652172526695" lon="9.922949893140238"><ele>227.71428571428572</ele><time>2026-04-26T14:01:15Z</time></trkpt><trkpt lat="45.65644502911958" lon="9.922912593162076"><ele>228.85714285714283</ele><time>2026-04-26T14:01:16Z</time></trkpt><trkpt lat="45.656375987657164" lon="9.922939426959681"><ele>229.99999999999997</ele><time>2026-04-26T14:01:17Z</time></trkpt><trkpt lat="45.656330916112424" lon="9.92301953472031"><ele>230.0</ele><time>2026-04-26T14:01:18Z</time></trkpt><trkpt lat="45.65632928539409" lon="9.923138061218372"><ele>230.0</ele><time>2026-04-26T14:01:19Z</time></trkpt><trkpt lat="45.65637171450235" lon="9.9232484933489"><ele>230.0</ele><time>2026-04-26T14:01:20Z</time></trkpt><trkpt lat="45.656452135508" lon="9.923315557120475"><ele>230.0</ele><time>2026-04-26T14:01:21Z</time></trkpt><trkpt lat="45.65654076712265" lon="9.92337202517795"><ele>230.0</ele><time>2026-04-26T14:01:22Z</time></trkpt><trkpt lat="45.656621681515205" lon="9.923442809295532"><ele>230.8</ele><time>2026-04-26T14:01:23Z</time></trkpt><trkpt lat="45.656694855863314" lon="9.92353290781954"><ele>231.6</ele><time>2026-04-26T14:01:24Z</time></trkpt><trkpt lat="45.65676514011937" lon="9.923627635775812"><ele>232.39999999999998</ele><time>2026-04-26T14:01:25Z</time></trkpt><trkpt lat="45.65683375785797" lon="9.923725879611158"><ele>233.2</ele><time>2026-04-26T14:01:26Z</time></trkpt><trkpt lat="45.65690501335303" lon="9.923829064992296"><ele>234.0</ele><time>2026-04-26T14:01:27Z</time></trkpt><trkpt lat="45.65697906507745" lon="9.92393802166415"><ele>234.0</ele><time>2026-04-26T14:01:28Z</time></trkpt><trkpt lat="45.657050738946" lon="9.924044492825436"><ele>233.99999999999997</ele><time>2026-04-26T14:01:29Z</time></trkpt><trkpt lat="45.657117693879165" lon="9.924144368580949"><ele>233.99999999999997</ele><time>2026-04-26T14:01:30Z</time></trkpt><trkpt lat="45.65718200706236" lon="9.924238113446119"><ele>234.0</ele><time>2026-04-26T14:01:31Z</time></trkpt><trkpt lat="45.65724630431567" lon="9.92432253658605"><ele>234.0</ele><time>2026-04-26T14:01:32Z</time></trkpt><trkpt lat="45.657312448153384" lon="9.924413297299987"><ele>231.6</ele><time>2026-04-26T14:01:33Z</time></trkpt><trkpt lat="45.65738662224887" lon="9.924517548496715"><ele>229.2</ele><time>2026-04-26T14:01:34Z</time></trkpt><trkpt lat="45.657471990380095" lon="9.924628147299657"><ele>226.79999999999998</ele><time>2026-04-26T14:01:35Z</time></trkpt><trkpt lat="45.65756585516767" lon="9.924728776815604"><ele>224.39999999999998</ele><time>2026-04-26T14:01:36Z</time></trkpt><trkpt lat="45.65765384489654" lon="9.9248175459408"><ele>222.0</ele><time>2026-04-26T14:01:37Z</time></trkpt><trkpt lat="45.6577376770015" lon="9.924896588956925"><ele>221.2</ele><time>2026-04-26T14:01:38Z</time></trkpt><trkpt lat="45.657820434172386" lon="9.92498016768465"><ele>220.39999999999998</ele><time>2026-04-26T14:01:39Z</time></trkpt><trkpt lat="45.65790972128252" lon="9.925063732621231"><ele>219.60000000000002</ele><time>2026-04-26T14:01:40Z</time></trkpt><trkpt lat="45.65799834287413" lon="9.92514212004461"><ele>218.8</ele><time>2026-04-26T14:01:41Z</time></trkpt><trkpt lat="45.65808742498859" lon="9.925217893489762"><ele>218.0</ele><time>2026-04-26T14:01:42Z</time></trkpt><trkpt lat="45.65817588854488" lon="9.925295725086993"><ele>218.00000000000003</ele><time>2026-04-26T14:01:43Z</time></trkpt><trkpt lat="45.658262590803744" lon="9.925372416403066"><ele>218.0</ele><time>2026-04-26T14:01:44Z</time></trkpt><trkpt lat="45.65834481580613" lon="9.925435763526329"><ele>218.0</ele><time>2026-04-26T14:01:45Z</time></trkpt><trkpt lat="45.65841441357579" lon="9.925499240374855"><ele>218.0</ele><time>2026-04-26T14:01:46Z</time></trkpt><trkpt lat="45.65848226285728" lon="9.925561494498778"><ele>218.00000000000003</ele><time>2026-04-26T14:01:47Z</time></trkpt><trkpt lat="45.6585495654367" lon="9.925635694482189"><ele>218.0</ele><time>2026-04-26T14:01:48Z</time></trkpt><trkpt lat="45.658627128516336" lon="9.92570244583246"><ele>217.83333333333334</ele><time>2026-04-26T14:01:49Z</time></trkpt><trkpt lat="45.658700904305434" lon="9.92577078133175"><ele>217.66666666666669</ele><time>2026-04-26T14:01:50Z</time></trkpt><trkpt lat="45.65876976419998" lon="9.92583863174108"><ele>217.5</ele><time>2026-04-26T14:01:51Z</time></trkpt><trkpt lat="45.65884303465879" lon="9.92589932695983"><ele>217.33333333333331</ele><time>2026-04-26T14:01:52Z</time></trkpt><trkpt lat="45.6589213733091" lon="9.925963735662192"><ele>217.16666666666666</ele><time>2026-04-26T14:01:53Z</time></trkpt><trkpt lat="45.65900268071714" lon="9.926029866045322"><ele>217.0</ele><time>2026-04-26T14:01:54Z</time></trkpt><trkpt lat="45.65908331400868" lon="9.926101159294495"><ele>217.0</ele><time>2026-04-26T14:01:55Z</time></trkpt><trkpt lat="45.65916579336807" lon="9.926177592105711"><ele>217.0</ele><time>2026-04-26T14:01:56Z</time></trkpt><trkpt lat="45.6592493644921" lon="9.926253276103576"><ele>217.0</ele><time>2026-04-26T14:01:57Z</time></trkpt><trkpt lat="45.65933823186406" lon="9.926323770113566"><ele>217.0</ele><time>2026-04-26T14:01:58Z</time></trkpt><trkpt lat="45.659425032591756" lon="9.926410308961533"><ele>217.0</ele><time>2026-04-26T14:01:59Z</time></trkpt><trkpt lat="45.659514800206686" lon="9.92649579972958"><ele>217.0</ele><time>2026-04-26T14:02:00Z</time></trkpt><trkpt lat="45.659595642891254" lon="9.926598398624956"><ele>217.0</ele><time>2026-04-26T14:02:01Z</time></trkpt><trkpt lat="45.65966231714784" lon="9.926704584970173"><ele>217.0</ele><time>2026-04-26T14:02:02Z</time></trkpt><trkpt lat="45.659721159729266" lon="9.92681769694614"><ele>217.0</ele><time>2026-04-26T14:02:03Z</time></trkpt><trkpt lat="45.659770196718625" lon="9.926936989369805"><ele>217.0</ele><time>2026-04-26T14:02:03.999Z</time></trkpt><trkpt lat="45.65982009281823" lon="9.927068046069266"><ele>217.39999999999998</ele><time>2026-04-26T14:02:04.999Z</time></trkpt><trkpt lat="45.65986878491538" lon="9.927204935059175"><ele>217.79999999999998</ele><time>2026-04-26T14:02:05.999Z</time></trkpt><trkpt lat="45.65993066809105" lon="9.92732024693576"><ele>218.2</ele><time>2026-04-26T14:02:06.999Z</time></trkpt><trkpt lat="45.66001744267682" lon="9.92741304195446"><ele>218.6</ele><time>2026-04-26T14:02:07.999Z</time></trkpt><trkpt lat="45.66011098455907" lon="9.927493094724438"><ele>219.0</ele><time>2026-04-26T14:02:08.999Z</time></trkpt><trkpt lat="45.66021194248808" lon="9.92757469854859"><ele>220.25</ele><time>2026-04-26T14:02:09.999Z</time></trkpt><trkpt lat="45.66032031878826" lon="9.927692191121038"><ele>221.5</ele><time>2026-04-26T14:02:10.999Z</time></trkpt><trkpt lat="45.66042577542356" lon="9.927809252824536"><ele>222.75</ele><time>2026-04-26T14:02:11.999Z</time></trkpt><trkpt lat="45.66052552294197" lon="9.927885304394787"><ele>224.0</ele><time>2026-04-26T14:02:12.999Z</time></trkpt><trkpt lat="45.66063050069944" lon="9.927961732404706"><ele>224.0</ele><time>2026-04-26T14:02:13.999Z</time></trkpt><trkpt lat="45.66073834425616" lon="9.928058914164655"><ele>223.99999999999997</ele><time>2026-04-26T14:02:14.999Z</time></trkpt><trkpt lat="45.66084570554585" lon="9.928135148182763"><ele>223.99999999999997</ele><time>2026-04-26T14:02:15.999Z</time></trkpt><trkpt lat="45.660934012938554" lon="9.928193227565764"><ele>224.0</ele><time>2026-04-26T14:02:16.999Z</time></trkpt><trkpt lat="45.66102279018176" lon="9.928247984005422"><ele>224.0</ele><time>2026-04-26T14:02:17.999Z</time></trkpt><trkpt lat="45.66111590570083" lon="9.928304067744474"><ele>224.2</ele><time>2026-04-26T14:02:18.999Z</time></trkpt><trkpt lat="45.66120788445869" lon="9.928337116710953"><ele>224.39999999999998</ele><time>2026-04-26T14:02:19.999Z</time></trkpt><trkpt lat="45.66128390743185" lon="9.928400832298163"><ele>224.6</ele><time>2026-04-26T14:02:20.999Z</time></trkpt><trkpt lat="45.661362369248145" lon="9.928446280301918"><ele>224.8</ele><time>2026-04-26T14:02:21.999Z</time></trkpt><trkpt lat="45.66145749932476" lon="9.928503396787791"><ele>225.0</ele><time>2026-04-26T14:02:22.999Z</time></trkpt><trkpt lat="45.66155161006762" lon="9.928567519018632"><ele>225.2</ele><time>2026-04-26T14:02:23.999Z</time></trkpt><trkpt lat="45.661622529979965" lon="9.928646494438944"><ele>225.4</ele><time>2026-04-26T14:02:24.999Z</time></trkpt><trkpt lat="45.66169243387094" lon="9.928731066588794"><ele>225.60000000000002</ele><time>2026-04-26T14:02:25.999Z</time></trkpt><trkpt lat="45.6617734639631" lon="9.928819341328817"><ele>225.8</ele><time>2026-04-26T14:02:26.999Z</time></trkpt><trkpt lat="45.66183271199742" lon="9.928941623684052"><ele>226.0</ele><time>2026-04-26T14:02:27.999Z</time></trkpt><trkpt lat="45.66189562205652" lon="9.9290347087412"><ele>225.99999999999997</ele><time>2026-04-26T14:02:28.999Z</time></trkpt><trkpt lat="45.66196307339466" lon="9.929138619415316"><ele>226.0</ele><time>2026-04-26T14:02:29.999Z</time></trkpt><trkpt lat="45.662036834282915" lon="9.929236958498961"><ele>226.0</ele><time>2026-04-26T14:02:30.999Z</time></trkpt><trkpt lat="45.66209618850969" lon="9.929314314908266"><ele>226.0</ele><time>2026-04-26T14:02:31.999Z</time></trkpt><trkpt lat="45.66215121842287" lon="9.92938798346443"><ele>225.99999999999997</ele><time>2026-04-26T14:02:32.999Z</time></trkpt><trkpt lat="45.66220489745243" lon="9.929455145415893"><ele>226.0</ele><time>2026-04-26T14:02:33.999Z</time></trkpt><trkpt lat="45.66226524305727" lon="9.929525034551043"><ele>227.66666666666666</ele><time>2026-04-26T14:02:34.999Z</time></trkpt><trkpt lat="45.66233297332451" lon="9.929595502220426"><ele>229.33333333333331</ele><time>2026-04-26T14:02:35.999Z</time></trkpt><trkpt lat="45.662392465736836" lon="9.929654398107713"><ele>231.0</ele><time>2026-04-26T14:02:36.999Z</time></trkpt><trkpt lat="45.66244791663937" lon="9.92970577029736"><ele>232.66666666666669</ele><time>2026-04-26T14:02:37.999Z</time></trkpt><trkpt lat="45.66254886754384" lon="9.929797973425329"><ele>234.33333333333334</ele><time>2026-04-26T14:02:39.999Z</time></trkpt><trkpt lat="45.66260236563052" lon="9.92985074586596"><ele>236.0</ele><time>2026-04-26T14:02:40.999Z</time></trkpt><trkpt lat="45.662674099970786" lon="9.929917131379382"><ele>236.0</ele><time>2026-04-26T14:02:41.999Z</time></trkpt><trkpt lat="45.66277289317837" lon="9.930014712571916"><ele>236.0</ele><time>2026-04-26T14:02:42.999Z</time></trkpt><trkpt lat="45.66288661899444" lon="9.930134640372772"><ele>236.0</ele><time>2026-04-26T14:02:43.999Z</time></trkpt><trkpt lat="45.66300442743898" lon="9.930248967922168"><ele>236.0</ele><time>2026-04-26T14:02:44.999Z</time></trkpt><trkpt lat="45.663113111370215" lon="9.930346185209462"><ele>237.25</ele><time>2026-04-26T14:02:45.999Z</time></trkpt><trkpt lat="45.66324275296079" lon="9.930450027580218"><ele>238.5</ele><time>2026-04-26T14:02:46.999Z</time></trkpt><trkpt lat="45.66338120103275" lon="9.930583572429406"><ele>239.75</ele><time>2026-04-26T14:02:47.999Z</time></trkpt><trkpt lat="45.66348715762808" lon="9.930679848530087"><ele>241.0</ele><time>2026-04-26T14:02:48.999Z</time></trkpt><trkpt lat="45.663584033086316" lon="9.930757986595083"><ele>240.0</ele><time>2026-04-26T14:02:49.999Z</time></trkpt><trkpt lat="45.66369720699813" lon="9.930838960008881"><ele>239.0</ele><time>2026-04-26T14:02:50.999Z</time></trkpt><trkpt lat="45.663802550552916" lon="9.930893105893798"><ele>238.0</ele><time>2026-04-26T14:02:51.999Z</time></trkpt><trkpt lat="45.663898219342755" lon="9.930930366718163"><ele>237.0</ele><time>2026-04-26T14:02:52.999Z</time></trkpt><trkpt lat="45.66402091334796" lon="9.93097515310051"><ele>237.0</ele><time>2026-04-26T14:02:53.999Z</time></trkpt><trkpt lat="45.6641579009766" lon="9.931027966237"><ele>237.0</ele><time>2026-04-26T14:02:54.999Z</time></trkpt><trkpt lat="45.66428646134058" lon="9.93105158966052"><ele>237.0</ele><time>2026-04-26T14:02:55.999Z</time></trkpt><trkpt lat="45.66439883006665" lon="9.931065532572855"><ele>237.0</ele><time>2026-04-26T14:02:56.999Z</time></trkpt><trkpt lat="45.664482460474396" lon="9.931094515671672"><ele>235.83333333333334</ele><time>2026-04-26T14:02:57.999Z</time></trkpt><trkpt lat="45.664553777223006" lon="9.931126302474201"><ele>234.66666666666669</ele><time>2026-04-26T14:02:58.999Z</time></trkpt><trkpt lat="45.664615345638666" lon="9.93116116967894"><ele>233.5</ele><time>2026-04-26T14:02:59.999Z</time></trkpt><trkpt lat="45.66470583856891" lon="9.93124741624939"><ele>232.33333333333334</ele><time>2026-04-26T14:03:01.999Z</time></trkpt><trkpt lat="45.66474554846483" lon="9.931327586744489"><ele>231.16666666666669</ele><time>2026-04-26T14:03:02.999Z</time></trkpt><trkpt lat="45.664788362868855" lon="9.931417861253198"><ele>230.0</ele><time>2026-04-26T14:03:04Z</time></trkpt><trkpt lat="45.66484889618464" lon="9.931500993188868"><ele>230.0</ele><time>2026-04-26T14:03:05Z</time></trkpt><trkpt lat="45.66493737064696" lon="9.931584400703873"><ele>230.0</ele><time>2026-04-26T14:03:06Z</time></trkpt><trkpt lat="45.66504933602612" lon="9.931706411589506"><ele>230.0</ele><time>2026-04-26T14:03:07Z</time></trkpt><trkpt lat="45.665157243504154" lon="9.931876693423412"><ele>230.0</ele><time>2026-04-26T14:03:08Z</time></trkpt><trkpt lat="45.66529330580002" lon="9.932097335352967"><ele>229.5</ele><time>2026-04-26T14:03:09Z</time></trkpt><trkpt lat="45.66544475036756" lon="9.93233604721602"><ele>229.0</ele><time>2026-04-26T14:03:10Z</time></trkpt><trkpt lat="45.665599491806994" lon="9.93259212345332"><ele>229.0</ele><time>2026-04-26T14:03:11Z</time></trkpt><trkpt lat="45.665774691178534" lon="9.932872192753889"><ele>229.0</ele><time>2026-04-26T14:03:12Z</time></trkpt><trkpt lat="45.66595539553932" lon="9.933157290589783"><ele>230.0</ele><time>2026-04-26T14:03:13Z</time></trkpt><trkpt lat="45.666124213962746" lon="9.933419713146485"><ele>231.0</ele><time>2026-04-26T14:03:14Z</time></trkpt><trkpt lat="45.66628015840927" lon="9.933657354184747"><ele>231.0</ele><time>2026-04-26T14:03:15Z</time></trkpt><trkpt lat="45.66643471805721" lon="9.93389812711003"><ele>231.0</ele><time>2026-04-26T14:03:16Z</time></trkpt><trkpt lat="45.66658586894942" lon="9.934136214511739"><ele>231.0</ele><time>2026-04-26T14:03:17Z</time></trkpt><trkpt lat="45.66672934399156" lon="9.934362776593778"><ele>231.0</ele><time>2026-04-26T14:03:18Z</time></trkpt><trkpt lat="45.66686987420801" lon="9.934578230324528"><ele>231.0</ele><time>2026-04-26T14:03:19Z</time></trkpt><trkpt lat="45.66700575281789" lon="9.934789611971485"><ele>231.33333333333331</ele><time>2026-04-26T14:03:20Z</time></trkpt><trkpt lat="45.66712739828165" lon="9.934986137803383"><ele>231.66666666666666</ele><time>2026-04-26T14:03:21Z</time></trkpt><trkpt lat="45.667244735126026" lon="9.935172878495594"><ele>232.0</ele><time>2026-04-26T14:03:22Z</time></trkpt><trkpt lat="45.667360013551004" lon="9.935345208269977"><ele>232.0</ele><time>2026-04-26T14:03:23Z</time></trkpt><trkpt lat="45.66746985168272" lon="9.93549969140802"><ele>232.0</ele><time>2026-04-26T14:03:24Z</time></trkpt><trkpt lat="45.66756702482392" lon="9.93562401767519"><ele>232.0</ele><time>2026-04-26T14:03:25Z</time></trkpt><trkpt lat="45.667623657541576" lon="9.935764753916013"><ele>232.0</ele><time>2026-04-26T14:03:26Z</time></trkpt><trkpt lat="45.66767589590852" lon="9.935894720323972"><ele>231.75</ele><time>2026-04-26T14:03:27Z</time></trkpt><trkpt lat="45.66772973518514" lon="9.936045794043624"><ele>231.5</ele><time>2026-04-26T14:03:28Z</time></trkpt><trkpt lat="45.66775517119667" lon="9.936238762111135"><ele>231.25</ele><time>2026-04-26T14:03:29Z</time></trkpt><trkpt lat="45.66780311236277" lon="9.936422320282853"><ele>231.0</ele><time>2026-04-26T14:03:30Z</time></trkpt><trkpt lat="45.66786617860994" lon="9.936585853919784"><ele>232.0</ele><time>2026-04-26T14:03:31Z</time></trkpt><trkpt lat="45.667928604498925" lon="9.93676167838891"><ele>233.0</ele><time>2026-04-26T14:03:32Z</time></trkpt><trkpt lat="45.66800376254589" lon="9.936989493185864"><ele>234.0</ele><time>2026-04-26T14:03:33Z</time></trkpt><trkpt lat="45.66809599135276" lon="9.937261340548275"><ele>234.0</ele><time>2026-04-26T14:03:34Z</time></trkpt><trkpt lat="45.6681810363339" lon="9.937525813727751"><ele>234.0</ele><time>2026-04-26T14:03:35Z</time></trkpt><trkpt lat="45.66825675384305" lon="9.937750815495487"><ele>234.0</ele><time>2026-04-26T14:03:36Z</time></trkpt><trkpt lat="45.66833193800873" lon="9.937984353410636"><ele>233.66666666666669</ele><time>2026-04-26T14:03:37Z</time></trkpt><trkpt lat="45.668404702924555" lon="9.93820054546091"><ele>233.33333333333334</ele><time>2026-04-26T14:03:38Z</time></trkpt><trkpt lat="45.66847107271999" lon="9.93839956328231"><ele>233.0</ele><time>2026-04-26T14:03:39Z</time></trkpt><trkpt lat="45.6685371707304" lon="9.938594188491683"><ele>233.0</ele><time>2026-04-26T14:03:40Z</time></trkpt><trkpt lat="45.668602404189215" lon="9.938783529586152"><ele>233.0</ele><time>2026-04-26T14:03:41Z</time></trkpt><trkpt lat="45.66866434889147" lon="9.938958972262775"><ele>233.0</ele><time>2026-04-26T14:03:42Z</time></trkpt><trkpt lat="45.66871620043322" lon="9.939112694186289"><ele>233.0</ele><time>2026-04-26T14:03:43Z</time></trkpt><trkpt lat="45.668758274467855" lon="9.93923009583398"><ele>232.85714285714286</ele><time>2026-04-26T14:03:44Z</time></trkpt><trkpt lat="45.66878787844732" lon="9.939328772108071"><ele>232.71428571428572</ele><time>2026-04-26T14:03:45Z</time></trkpt><trkpt lat="45.668813684407326" lon="9.939457989673318"><ele>232.57142857142858</ele><time>2026-04-26T14:03:47Z</time></trkpt><trkpt lat="45.66883822435184" lon="9.939544888573412"><ele>232.42857142857144</ele><time>2026-04-26T14:03:53Z</time></trkpt><trkpt lat="45.668857701662915" lon="9.939636099681417"><ele>232.28571428571428</ele><time>2026-04-26T14:03:56Z</time></trkpt><trkpt lat="45.66887315128641" lon="9.939728737750505"><ele>232.14285714285717</ele><time>2026-04-26T14:03:58Z</time></trkpt><trkpt lat="45.668898058222254" lon="9.939838631869474"><ele>232.00000000000003</ele><time>2026-04-26T14:04:00Z</time></trkpt><trkpt lat="45.66894592153522" lon="9.939944732552583"><ele>231.99999999999997</ele><time>2026-04-26T14:04:02Z</time></trkpt><trkpt lat="45.669037941984016" lon="9.940021232343078"><ele>232.0</ele><time>2026-04-26T14:04:08Z</time></trkpt><trkpt lat="45.66910026247292" lon="9.939930197633688"><ele>232.0</ele><time>2026-04-26T14:04:09Z</time></trkpt><trkpt lat="45.66921474586215" lon="9.93988529947282"><ele>232.0</ele><time>2026-04-26T14:04:10.999Z</time></trkpt><trkpt lat="45.66928133034796" lon="9.939892741888787"><ele>231.99999999999997</ele><time>2026-04-26T14:04:11.999Z</time></trkpt><trkpt lat="45.66934357701722" lon="9.93991987564321"><ele>232.0</ele><time>2026-04-26T14:04:12.999Z</time></trkpt><trkpt lat="45.66941727670666" lon="9.93995864711666"><ele>232.0</ele><time>2026-04-26T14:04:13.999Z</time></trkpt><trkpt lat="45.66952786991394" lon="9.940021867990716"><ele>232.0</ele><time>2026-04-26T14:04:14.999Z</time></trkpt><trkpt lat="45.66968533853362" lon="9.940104352554036"><ele>232.0</ele><time>2026-04-26T14:04:15.999Z</time></trkpt><trkpt lat="45.66988442250932" lon="9.940171499828871"><ele>231.66666666666666</ele><time>2026-04-26T14:04:16.999Z</time></trkpt><trkpt lat="45.6700929331871" lon="9.940201670508612"><ele>231.33333333333331</ele><time>2026-04-26T14:04:17.999Z</time></trkpt><trkpt lat="45.67029866161071" lon="9.940214447965502"><ele>231.0</ele><time>2026-04-26T14:04:18.999Z</time></trkpt><trkpt lat="45.67050513072695" lon="9.940217124336948"><ele>231.0</ele><time>2026-04-26T14:04:19.999Z</time></trkpt><trkpt lat="45.67073391472615" lon="9.94022159473499"><ele>231.0</ele><time>2026-04-26T14:04:20.999Z</time></trkpt><trkpt lat="45.670946660925075" lon="9.940223564436023"><ele>231.0</ele><time>2026-04-26T14:04:21.999Z</time></trkpt><trkpt lat="45.67114475511395" lon="9.940223984952604"><ele>230.5</ele><time>2026-04-26T14:04:22.999Z</time></trkpt><trkpt lat="45.67131179077747" lon="9.94023029320383"><ele>230.0</ele><time>2026-04-26T14:04:23.999Z</time></trkpt><trkpt lat="45.671448349305365" lon="9.940237132242835"><ele>229.5</ele><time>2026-04-26T14:04:24.999Z</time></trkpt><trkpt lat="45.67157073849802" lon="9.940236738503305"><ele>229.0</ele><time>2026-04-26T14:04:25.999Z</time></trkpt><trkpt lat="45.67167970138795" lon="9.94023150505244"><ele>229.0</ele><time>2026-04-26T14:04:26.999Z</time></trkpt><trkpt lat="45.671780887056954" lon="9.940253090591195"><ele>229.0</ele><time>2026-04-26T14:04:27.999Z</time></trkpt><trkpt lat="45.67191713457566" lon="9.940256247152506"><ele>229.0</ele><time>2026-04-26T14:04:28.999Z</time></trkpt><trkpt lat="45.672111157034685" lon="9.940240279722971"><ele>229.0</ele><time>2026-04-26T14:04:29.999Z</time></trkpt><trkpt lat="45.6723243835006" lon="9.940276527863816"><ele>229.33333333333331</ele><time>2026-04-26T14:04:30.999Z</time></trkpt><trkpt lat="45.67254215296654" lon="9.94033379664764"><ele>229.66666666666669</ele><time>2026-04-26T14:04:31.999Z</time></trkpt><trkpt lat="45.672742756384466" lon="9.94040669865518"><ele>230.0</ele><time>2026-04-26T14:04:32.999Z</time></trkpt><trkpt lat="45.67294163530211" lon="9.940504133678273"><ele>231.66666666666669</ele><time>2026-04-26T14:04:33.999Z</time></trkpt><trkpt lat="45.67313125847871" lon="9.94060326939755"><ele>233.33333333333331</ele><time>2026-04-26T14:04:34.999Z</time></trkpt><trkpt lat="45.67330689295392" lon="9.9407012413881"><ele>235.0</ele><time>2026-04-26T14:04:35.999Z</time></trkpt><trkpt lat="45.67346663288308" lon="9.940782730002509"><ele>235.5</ele><time>2026-04-26T14:04:36.999Z</time></trkpt><trkpt lat="45.67360891111797" lon="9.9408597367337"><ele>236.0</ele><time>2026-04-26T14:04:37.999Z</time></trkpt><trkpt lat="45.67374009902012" lon="9.94092702773189"><ele>236.5</ele><time>2026-04-26T14:04:38.999Z</time></trkpt><trkpt lat="45.67386123625805" lon="9.940988817508806"><ele>237.0</ele><time>2026-04-26T14:04:39.999Z</time></trkpt><trkpt lat="45.673977456225224" lon="9.94104720898906"><ele>236.2</ele><time>2026-04-26T14:04:40.999Z</time></trkpt><trkpt lat="45.674086920326204" lon="9.94109547637648"><ele>235.39999999999998</ele><time>2026-04-26T14:04:41.999Z</time></trkpt><trkpt lat="45.67418822817527" lon="9.941134279041396"><ele>234.60000000000002</ele><time>2026-04-26T14:04:42.999Z</time></trkpt><trkpt lat="45.67428539485249" lon="9.941165231242564"><ele>233.8</ele><time>2026-04-26T14:04:43.999Z</time></trkpt><trkpt lat="45.67437622339393" lon="9.941182250694201"><ele>233.0</ele><time>2026-04-26T14:04:44.999Z</time></trkpt><trkpt lat="45.674461850854115" lon="9.941199659514584"><ele>231.75</ele><time>2026-04-26T14:04:45.999Z</time></trkpt><trkpt lat="45.67455329433104" lon="9.941218264990004"><ele>230.5</ele><time>2026-04-26T14:04:46.999Z</time></trkpt><trkpt lat="45.674696545358834" lon="9.941277216856168"><ele>229.25</ele><time>2026-04-26T14:04:47.999Z</time></trkpt><trkpt lat="45.67487528304703" lon="9.941308906513257"><ele>228.0</ele><time>2026-04-26T14:04:48.999Z</time></trkpt><trkpt lat="45.675068623219474" lon="9.941330189484377"><ele>228.0</ele><time>2026-04-26T14:04:49.999Z</time></trkpt><trkpt lat="45.675245166267864" lon="9.941361733241592"><ele>228.0</ele><time>2026-04-26T14:04:50.999Z</time></trkpt><trkpt lat="45.675423013528786" lon="9.941397733608415"><ele>228.0</ele><time>2026-04-26T14:04:51.999Z</time></trkpt><trkpt lat="45.675594380648896" lon="9.941425766292472"><ele>227.33333333333331</ele><time>2026-04-26T14:04:52.999Z</time></trkpt><trkpt lat="45.67576149370313" lon="9.94147492345703"><ele>226.66666666666666</ele><time>2026-04-26T14:04:53.999Z</time></trkpt><trkpt lat="45.675926786978025" lon="9.941564399779207"><ele>226.0</ele><time>2026-04-26T14:04:54.999Z</time></trkpt><trkpt lat="45.67608064484188" lon="9.941707619381704"><ele>225.66666666666666</ele><time>2026-04-26T14:04:55.999Z</time></trkpt><trkpt lat="45.67624793521006" lon="9.941886770022489"><ele>225.33333333333331</ele><time>2026-04-26T14:04:56.999Z</time></trkpt><trkpt lat="45.67643378920739" lon="9.942082498494743"><ele>225.0</ele><time>2026-04-26T14:04:57.999Z</time></trkpt><trkpt lat="45.67660740585663" lon="9.942257387514132"><ele>225.0</ele><time>2026-04-26T14:04:58.999Z</time></trkpt><trkpt lat="45.67676302221379" lon="9.942418049106882"><ele>225.0</ele><time>2026-04-26T14:04:59.999Z</time></trkpt><trkpt lat="45.67689902938791" lon="9.942558500460244"><ele>225.0</ele><time>2026-04-26T14:05:00.999Z</time></trkpt><trkpt lat="45.67702117770887" lon="9.942677750170082"><ele>226.25</ele><time>2026-04-26T14:05:01.999Z</time></trkpt><trkpt lat="45.677133255859225" lon="9.942780038073064"><ele>227.5</ele><time>2026-04-26T14:05:02.999Z</time></trkpt><trkpt lat="45.67724298315792" lon="9.94287774155374"><ele>228.75</ele><time>2026-04-26T14:05:03.999Z</time></trkpt><trkpt lat="45.677351656734636" lon="9.942982909834505"><ele>230.0</ele><time>2026-04-26T14:05:04.999Z</time></trkpt><trkpt lat="45.67746245260243" lon="9.943108093075491"><ele>230.0</ele><time>2026-04-26T14:05:05.999Z</time></trkpt><trkpt lat="45.67756189931801" lon="9.94326079318638"><ele>230.0</ele><time>2026-04-26T14:05:06.999Z</time></trkpt><trkpt lat="45.67765329448631" lon="9.943440996260211"><ele>230.0</ele><time>2026-04-26T14:05:07.999Z</time></trkpt><trkpt lat="45.67774103906049" lon="9.943633052820736"><ele>230.75</ele><time>2026-04-26T14:05:08.999Z</time></trkpt><trkpt lat="45.677820806622265" lon="9.943813211010733"><ele>231.5</ele><time>2026-04-26T14:05:10Z</time></trkpt><trkpt lat="45.67790494392165" lon="9.943977771544498"><ele>232.25</ele><time>2026-04-26T14:05:11Z</time></trkpt><trkpt lat="45.67799193978869" lon="9.94414661422861"><ele>233.0</ele><time>2026-04-26T14:05:12Z</time></trkpt><trkpt lat="45.67808462296554" lon="9.944320617072645"><ele>230.33333333333334</ele><time>2026-04-26T14:05:13Z</time></trkpt><trkpt lat="45.67819238217545" lon="9.944487989149854"><ele>227.66666666666669</ele><time>2026-04-26T14:05:14Z</time></trkpt><trkpt lat="45.67832356193356" lon="9.94464956223379"><ele>225.0</ele><time>2026-04-26T14:05:15Z</time></trkpt><trkpt lat="45.6784733645101" lon="9.944850047336743"><ele>225.5</ele><time>2026-04-26T14:05:16Z</time></trkpt><trkpt lat="45.678660920321846" lon="9.945054069088913"><ele>226.0</ele><time>2026-04-26T14:05:17Z</time></trkpt><trkpt lat="45.67886397671992" lon="9.945254238616748"><ele>226.0</ele><time>2026-04-26T14:05:18Z</time></trkpt><trkpt lat="45.6790735313785" lon="9.945499305089768"><ele>226.0</ele><time>2026-04-26T14:05:19Z</time></trkpt><trkpt lat="45.67927762778868" lon="9.945723810729161"><ele>226.33333333333331</ele><time>2026-04-26T14:05:20Z</time></trkpt><trkpt lat="45.679458155301944" lon="9.945921250587899"><ele>226.66666666666669</ele><time>2026-04-26T14:05:21Z</time></trkpt><trkpt lat="45.679617877342054" lon="9.946101650280326"><ele>227.0</ele><time>2026-04-26T14:05:22Z</time></trkpt><trkpt lat="45.67977107004656" lon="9.946274217589696"><ele>227.0</ele><time>2026-04-26T14:05:23Z</time></trkpt><trkpt lat="45.67992080763397" lon="9.946440401050355"><ele>227.0</ele><time>2026-04-26T14:05:24Z</time></trkpt><trkpt lat="45.68006662535387" lon="9.946592028762439"><ele>227.0</ele><time>2026-04-26T14:05:25Z</time></trkpt><trkpt lat="45.680220466142266" lon="9.946734366198635"><ele>227.33333333333334</ele><time>2026-04-26T14:05:26Z</time></trkpt><trkpt lat="45.68039704276576" lon="9.946870339022283"><ele>227.66666666666669</ele><time>2026-04-26T14:05:27Z</time></trkpt><trkpt lat="45.68059425731917" lon="9.946987683621286"><ele>228.0</ele><time>2026-04-26T14:05:28Z</time></trkpt><trkpt lat="45.68080609400922" lon="9.947087077480656"><ele>228.0</ele><time>2026-04-26T14:05:29Z</time></trkpt><trkpt lat="45.68102466965249" lon="9.947179553089502"><ele>228.0</ele><time>2026-04-26T14:05:30Z</time></trkpt><trkpt lat="45.68124691483743" lon="9.947263061552722"><ele>231.0</ele><time>2026-04-26T14:05:31Z</time></trkpt><trkpt lat="45.68147305171175" lon="9.947348223193643"><ele>234.0</ele><time>2026-04-26T14:05:32Z</time></trkpt><trkpt lat="45.681698644585936" lon="9.947442033661629"><ele>234.0</ele><time>2026-04-26T14:05:33Z</time></trkpt><trkpt lat="45.68190268531196" lon="9.94752771290277"><ele>234.0</ele><time>2026-04-26T14:05:34Z</time></trkpt><trkpt lat="45.68208729226603" lon="9.94759966228459"><ele>234.0</ele><time>2026-04-26T14:05:35Z</time></trkpt><trkpt lat="45.6822554069816" lon="9.947669092070006"><ele>234.75</ele><time>2026-04-26T14:05:36Z</time></trkpt><trkpt lat="45.68240265818595" lon="9.947744550599603"><ele>235.5</ele><time>2026-04-26T14:05:37Z</time></trkpt><trkpt lat="45.68251700567152" lon="9.947840502536007"><ele>236.25</ele><time>2026-04-26T14:05:38Z</time></trkpt><trkpt lat="45.68259602638344" lon="9.947962880227237"><ele>237.0</ele><time>2026-04-26T14:05:39Z</time></trkpt><trkpt lat="45.68264679267145" lon="9.948118487964013"><ele>237.0</ele><time>2026-04-26T14:05:40Z</time></trkpt><trkpt lat="45.68268014476453" lon="9.94831156301148"><ele>237.0</ele><time>2026-04-26T14:05:41Z</time></trkpt><trkpt lat="45.68270793949136" lon="9.948529669803754"><ele>237.0</ele><time>2026-04-26T14:05:42Z</time></trkpt><trkpt lat="45.68275620941967" lon="9.948764907906458"><ele>239.33333333333331</ele><time>2026-04-26T14:05:43Z</time></trkpt><trkpt lat="45.68284119786052" lon="9.949005402015093"><ele>241.66666666666666</ele><time>2026-04-26T14:05:44Z</time></trkpt><trkpt lat="45.682958246383585" lon="9.949240232806591"><ele>244.0</ele><time>2026-04-26T14:05:45Z</time></trkpt><trkpt lat="45.68308667223375" lon="9.949455176536095"><ele>244.0</ele><time>2026-04-26T14:05:46Z</time></trkpt><trkpt lat="45.683214893413854" lon="9.949622121727629"><ele>244.0</ele><time>2026-04-26T14:05:47Z</time></trkpt><trkpt lat="45.68334391366134" lon="9.949758400661343"><ele>244.0</ele><time>2026-04-26T14:05:48Z</time></trkpt><trkpt lat="45.68347740177278" lon="9.949855010285445"><ele>244.75</ele><time>2026-04-26T14:05:49Z</time></trkpt><trkpt lat="45.68360059360071" lon="9.949938254227618"><ele>245.5</ele><time>2026-04-26T14:05:50Z</time></trkpt><trkpt lat="45.6837178872821" lon="9.950019610489269"><ele>246.25</ele><time>2026-04-26T14:05:51Z</time></trkpt><trkpt lat="45.683826584115984" lon="9.950089630516814"><ele>247.0</ele><time>2026-04-26T14:05:52Z</time></trkpt><trkpt lat="45.68393159320358" lon="9.950147561650585"><ele>247.0</ele><time>2026-04-26T14:05:53Z</time></trkpt><trkpt lat="45.68403285520077" lon="9.950214891173335"><ele>247.0</ele><time>2026-04-26T14:05:54Z</time></trkpt><trkpt lat="45.68414359592913" lon="9.95027989046531"><ele>247.0</ele><time>2026-04-26T14:05:55Z</time></trkpt><trkpt lat="45.68424386544343" lon="9.950357617698225"><ele>247.0</ele><time>2026-04-26T14:05:56Z</time></trkpt><trkpt lat="45.68433379725034" lon="9.950463745742622"><ele>247.0</ele><time>2026-04-26T14:05:57Z</time></trkpt><trkpt lat="45.68442250081249" lon="9.950591086398628"><ele>247.0</ele><time>2026-04-26T14:05:58Z</time></trkpt><trkpt lat="45.68450564208581" lon="9.950737347379395"><ele>247.0</ele><time>2026-04-26T14:05:59Z</time></trkpt><trkpt lat="45.68459000781165" lon="9.95089455327559"><ele>247.0</ele><time>2026-04-26T14:06:00Z</time></trkpt><trkpt lat="45.68468918281479" lon="9.951041759729316"><ele>250.0</ele><time>2026-04-26T14:06:01Z</time></trkpt><trkpt lat="45.68480123027803" lon="9.951180112878149"><ele>253.0</ele><time>2026-04-26T14:06:02Z</time></trkpt><trkpt lat="45.68493779410394" lon="9.951306666945484"><ele>256.0</ele><time>2026-04-26T14:06:03Z</time></trkpt><trkpt lat="45.68507877357253" lon="9.95142963835372"><ele>256.0</ele><time>2026-04-26T14:06:04Z</time></trkpt><trkpt lat="45.685225361865186" lon="9.951553683813628"><ele>256.0</ele><time>2026-04-26T14:06:04.999Z</time></trkpt><trkpt lat="45.685375384007074" lon="9.951664138531548"><ele>256.0</ele><time>2026-04-26T14:06:05.999Z</time></trkpt><trkpt lat="45.68552838343066" lon="9.95174719154093"><ele>255.0</ele><time>2026-04-26T14:06:06.999Z</time></trkpt><trkpt lat="45.68569300305295" lon="9.951795856729868"><ele>254.0</ele><time>2026-04-26T14:06:07.999Z</time></trkpt><trkpt lat="45.68586973260063" lon="9.951826330106538"><ele>253.0</ele><time>2026-04-26T14:06:08.999Z</time></trkpt><trkpt lat="45.68604790493999" lon="9.951850106653229"><ele>256.66666666666663</ele><time>2026-04-26T14:06:09.999Z</time></trkpt><trkpt lat="45.686224740455714" lon="9.951878224756314"><ele>260.3333333333333</ele><time>2026-04-26T14:06:10.999Z</time></trkpt><trkpt lat="45.686406176564915" lon="9.951909246839252"><ele>264.0</ele><time>2026-04-26T14:06:11.999Z</time></trkpt><trkpt lat="45.68658347259192" lon="9.951934824956075"><ele>264.0</ele><time>2026-04-26T14:06:12.999Z</time></trkpt><trkpt lat="45.686745105852324" lon="9.951958567010339"><ele>264.0</ele><time>2026-04-26T14:06:13.999Z</time></trkpt><trkpt lat="45.68690700330805" lon="9.951961332321074"><ele>264.0</ele><time>2026-04-26T14:06:14.999Z</time></trkpt><trkpt lat="45.687062249871346" lon="9.951940067441972"><ele>264.5</ele><time>2026-04-26T14:06:15.999Z</time></trkpt><trkpt lat="45.68720381866496" lon="9.951909043519537"><ele>265.0</ele><time>2026-04-26T14:06:16.999Z</time></trkpt><trkpt lat="45.68734083359807" lon="9.951871463557797"><ele>265.5</ele><time>2026-04-26T14:06:17.999Z</time></trkpt><trkpt lat="45.68747610832414" lon="9.951833914551933"><ele>266.0</ele><time>2026-04-26T14:06:18.999Z</time></trkpt><trkpt lat="45.68760855203438" lon="9.951799960436777"><ele>266.0</ele><time>2026-04-26T14:06:19.999Z</time></trkpt><trkpt lat="45.68773535863828" lon="9.951767956509608"><ele>266.0</ele><time>2026-04-26T14:06:20.999Z</time></trkpt><trkpt lat="45.687843807039044" lon="9.951740442115753"><ele>266.0</ele><time>2026-04-26T14:06:21.999Z</time></trkpt><trkpt lat="45.68794621200489" lon="9.951712725503382"><ele>266.0</ele><time>2026-04-26T14:06:22.999Z</time></trkpt><trkpt lat="45.68805584597947" lon="9.95168200183818"><ele>270.75</ele><time>2026-04-26T14:06:23.999Z</time></trkpt><trkpt lat="45.68817983446272" lon="9.951648093857015"><ele>275.5</ele><time>2026-04-26T14:06:24.999Z</time></trkpt><trkpt lat="45.688316963544786" lon="9.951613571405522"><ele>280.25</ele><time>2026-04-26T14:06:25.999Z</time></trkpt><trkpt lat="45.688453756540625" lon="9.951575998205904"><ele>285.0</ele><time>2026-04-26T14:06:26.999Z</time></trkpt><trkpt lat="45.688599030563466" lon="9.951530369295265"><ele>285.0</ele><time>2026-04-26T14:06:27.999Z</time></trkpt><trkpt lat="45.68875053715776" lon="9.951478980891752"><ele>285.0</ele><time>2026-04-26T14:06:28.999Z</time></trkpt><trkpt lat="45.68891121854861" lon="9.951423610129199"><ele>285.0</ele><time>2026-04-26T14:06:29.999Z</time></trkpt><trkpt lat="45.6890643364037" lon="9.951367741032811"><ele>285.0</ele><time>2026-04-26T14:06:30.999Z</time></trkpt><trkpt lat="45.68920228369338" lon="9.951317087643657"><ele>285.0</ele><time>2026-04-26T14:06:31.999Z</time></trkpt><trkpt lat="45.68933396262094" lon="9.951268478012663"><ele>285.0</ele><time>2026-04-26T14:06:32.999Z</time></trkpt><trkpt lat="45.6894496630793" lon="9.951226144152601"><ele>285.0</ele><time>2026-04-26T14:06:33.999Z</time></trkpt><trkpt lat="45.68958159761679" lon="9.95118782003152"><ele>282.3333333333333</ele><time>2026-04-26T14:06:34.999Z</time></trkpt><trkpt lat="45.68972556339211" lon="9.951134377473918"><ele>279.66666666666663</ele><time>2026-04-26T14:06:35.999Z</time></trkpt><trkpt lat="45.68987672690966" lon="9.951089094396321"><ele>277.0</ele><time>2026-04-26T14:06:36.999Z</time></trkpt><trkpt lat="45.690025511302544" lon="9.951056960890377"><ele>277.0</ele><time>2026-04-26T14:06:37.999Z</time></trkpt><trkpt lat="45.690173394791536" lon="9.951032316721497"><ele>277.0</ele><time>2026-04-26T14:06:38.999Z</time></trkpt><trkpt lat="45.69032940301629" lon="9.951013751943247"><ele>277.0</ele><time>2026-04-26T14:06:39.999Z</time></trkpt><trkpt lat="45.69048653851804" lon="9.950993918466816"><ele>278.0</ele><time>2026-04-26T14:06:40.999Z</time></trkpt><trkpt lat="45.69064525258176" lon="9.95097608243829"><ele>279.0</ele><time>2026-04-26T14:06:41.999Z</time></trkpt><trkpt lat="45.690807604196564" lon="9.950951587585312"><ele>280.0</ele><time>2026-04-26T14:06:42.999Z</time></trkpt><trkpt lat="45.69097528872171" lon="9.95092478500565"><ele>282.0</ele><time>2026-04-26T14:06:43.999Z</time></trkpt><trkpt lat="45.69114632387539" lon="9.950895272756055"><ele>284.0</ele><time>2026-04-26T14:06:44.999Z</time></trkpt><trkpt lat="45.691319025412305" lon="9.95086915959697"><ele>286.0</ele><time>2026-04-26T14:06:45.999Z</time></trkpt><trkpt lat="45.691488930239686" lon="9.950837874621255"><ele>286.0</ele><time>2026-04-26T14:06:46.999Z</time></trkpt><trkpt lat="45.691650530595076" lon="9.950826248153929"><ele>286.0</ele><time>2026-04-26T14:06:47.999Z</time></trkpt><trkpt lat="45.691803656113315" lon="9.950841641678274"><ele>286.0</ele><time>2026-04-26T14:06:48.999Z</time></trkpt><trkpt lat="45.691954274474035" lon="9.950878972713145"><ele>282.66666666666663</ele><time>2026-04-26T14:06:49.999Z</time></trkpt><trkpt lat="45.692107205638074" lon="9.950933044314509"><ele>279.3333333333333</ele><time>2026-04-26T14:06:50.999Z</time></trkpt><trkpt lat="45.69226287975932" lon="9.951000202737024"><ele>276.0</ele><time>2026-04-26T14:06:51.999Z</time></trkpt><trkpt lat="45.69242093600884" lon="9.951060110289022"><ele>276.0</ele><time>2026-04-26T14:06:52.999Z</time></trkpt><trkpt lat="45.69257015326347" lon="9.951114718453631"><ele>276.0</ele><time>2026-04-26T14:06:53.999Z</time></trkpt><trkpt lat="45.6927095437117" lon="9.951162210529699"><ele>276.0</ele><time>2026-04-26T14:06:54.999Z</time></trkpt><trkpt lat="45.692846265321464" lon="9.951200525410497"><ele>276.0</ele><time>2026-04-26T14:06:55.999Z</time></trkpt><trkpt lat="45.69297509938296" lon="9.951237358099148"><ele>276.75</ele><time>2026-04-26T14:06:56.999Z</time></trkpt><trkpt lat="45.69310950323563" lon="9.95126456001239"><ele>277.5</ele><time>2026-04-26T14:06:57.999Z</time></trkpt><trkpt lat="45.693236143117964" lon="9.951272169227844"><ele>278.25</ele><time>2026-04-26T14:06:58.999Z</time></trkpt><trkpt lat="45.69336540773163" lon="9.951251787794007"><ele>279.0</ele><time>2026-04-26T14:06:59.999Z</time></trkpt><trkpt lat="45.69348851956422" lon="9.951182264256264"><ele>279.25</ele><time>2026-04-26T14:07:00.999Z</time></trkpt><trkpt lat="45.693613545065695" lon="9.95111704939166"><ele>279.5</ele><time>2026-04-26T14:07:01.999Z</time></trkpt><trkpt lat="45.69373446637892" lon="9.951045428363221"><ele>279.75</ele><time>2026-04-26T14:07:02.999Z</time></trkpt><trkpt lat="45.69385256970263" lon="9.950980088709496"><ele>280.0</ele><time>2026-04-26T14:07:03.999Z</time></trkpt><trkpt lat="45.69397723542571" lon="9.950906518452221"><ele>280.5</ele><time>2026-04-26T14:07:04.999Z</time></trkpt><trkpt lat="45.694102620208255" lon="9.95082048289095"><ele>281.0</ele><time>2026-04-26T14:07:05.999Z</time></trkpt><trkpt lat="45.69422247050791" lon="9.950711329003656"><ele>281.5</ele><time>2026-04-26T14:07:06.999Z</time></trkpt><trkpt lat="45.69432898544055" lon="9.950579375567253"><ele>282.0</ele><time>2026-04-26T14:07:07.999Z</time></trkpt><trkpt lat="45.69443917799084" lon="9.950470866464196"><ele>283.5</ele><time>2026-04-26T14:07:08.999Z</time></trkpt><trkpt lat="45.694534963830144" lon="9.950340008564979"><ele>285.0</ele><time>2026-04-26T14:07:09.999Z</time></trkpt><trkpt lat="45.69459099629526" lon="9.95016833072154"><ele>286.5</ele><time>2026-04-26T14:07:10.999Z</time></trkpt><trkpt lat="45.69462610676806" lon="9.95001937074962"><ele>288.0</ele><time>2026-04-26T14:07:11.999Z</time></trkpt><trkpt lat="45.69464289205984" lon="9.9498726745864"><ele>289.0</ele><time>2026-04-26T14:07:12.999Z</time></trkpt><trkpt lat="45.6946662029541" lon="9.94974358612613"><ele>290.0</ele><time>2026-04-26T14:07:13.999Z</time></trkpt><trkpt lat="45.69466544760314" lon="9.949628127154153"><ele>291.0</ele><time>2026-04-26T14:07:14.999Z</time></trkpt><trkpt lat="45.69470071541633" lon="9.949537225359025"><ele>292.0</ele><time>2026-04-26T14:07:16Z</time></trkpt><trkpt lat="45.69475530683551" lon="9.949485170657853"><ele>293.0</ele><time>2026-04-26T14:07:17Z</time></trkpt><trkpt lat="45.694822638266416" lon="9.94947256510009"><ele>294.0</ele><time>2026-04-26T14:07:18Z</time></trkpt><trkpt lat="45.694888169118954" lon="9.94952064804315"><ele>294.0</ele><time>2026-04-26T14:07:19Z</time></trkpt><trkpt lat="45.69493632686761" lon="9.949612981614752"><ele>294.0</ele><time>2026-04-26T14:07:20Z</time></trkpt><trkpt lat="45.69497932930259" lon="9.949730570590136"><ele>294.0</ele><time>2026-04-26T14:07:21Z</time></trkpt><trkpt lat="45.69502711217611" lon="9.949843969188832"><ele>294.0</ele><time>2026-04-26T14:07:22Z</time></trkpt><trkpt lat="45.69507259819927" lon="9.949938358476775"><ele>294.0</ele><time>2026-04-26T14:07:23Z</time></trkpt><trkpt lat="45.695130098536524" lon="9.95000795971855"><ele>294.0</ele><time>2026-04-26T14:07:24Z</time></trkpt><trkpt lat="45.6952008483115" lon="9.950042326678311"><ele>296.1666666666667</ele><time>2026-04-26T14:07:25Z</time></trkpt><trkpt lat="45.69527663906822" lon="9.950039577037282"><ele>298.3333333333333</ele><time>2026-04-26T14:07:26Z</time></trkpt><trkpt lat="45.69534973334955" lon="9.94999501070289"><ele>300.5</ele><time>2026-04-26T14:07:27Z</time></trkpt><trkpt lat="45.69540714462733" lon="9.949922330658758"><ele>302.66666666666663</ele><time>2026-04-26T14:07:28Z</time></trkpt><trkpt lat="45.69545006477356" lon="9.949819130669116"><ele>304.8333333333333</ele><time>2026-04-26T14:07:29Z</time></trkpt><trkpt lat="45.69547244863173" lon="9.949706958335371"><ele>307.0</ele><time>2026-04-26T14:07:30Z</time></trkpt><trkpt lat="45.69546789007306" lon="9.949588755702113"><ele>307.0</ele><time>2026-04-26T14:07:31Z</time></trkpt><trkpt lat="45.69543159226171" lon="9.949481794454593"><ele>307.0</ele><time>2026-04-26T14:07:32Z</time></trkpt><trkpt lat="45.69537910783234" lon="9.949385209780885"><ele>307.0</ele><time>2026-04-26T14:07:33Z</time></trkpt><trkpt lat="45.69534817201479" lon="9.949276561022105"><ele>307.0</ele><time>2026-04-26T14:07:34Z</time></trkpt><trkpt lat="45.69536668900052" lon="9.949148917174153"><ele>307.0</ele><time>2026-04-26T14:07:35Z</time></trkpt><trkpt lat="45.69539370420424" lon="9.949021329464271"><ele>307.0</ele><time>2026-04-26T14:07:36Z</time></trkpt><trkpt lat="45.69544299546989" lon="9.948905740972883"><ele>308.0</ele><time>2026-04-26T14:07:37Z</time></trkpt><trkpt lat="45.695501818963024" lon="9.948790424884356"><ele>309.0</ele><time>2026-04-26T14:07:38Z</time></trkpt><trkpt lat="45.69555583119843" lon="9.94865901437181"><ele>310.0</ele><time>2026-04-26T14:07:39Z</time></trkpt><trkpt lat="45.69562055211975" lon="9.94855838570874"><ele>311.0</ele><time>2026-04-26T14:07:40Z</time></trkpt><trkpt lat="45.69568741594978" lon="9.948463495417109"><ele>312.0</ele><time>2026-04-26T14:07:41Z</time></trkpt><trkpt lat="45.69576420119155" lon="9.948363809490177"><ele>312.6</ele><time>2026-04-26T14:07:42Z</time></trkpt><trkpt lat="45.69583939357296" lon="9.948271363592347"><ele>313.2</ele><time>2026-04-26T14:07:43Z</time></trkpt><trkpt lat="45.695908275483305" lon="9.948192324461692"><ele>313.8</ele><time>2026-04-26T14:07:44Z</time></trkpt><trkpt lat="45.69597665618035" lon="9.948106035705557"><ele>314.4</ele><time>2026-04-26T14:07:45Z</time></trkpt><trkpt lat="45.69604688071103" lon="9.948012240013679"><ele>315.0</ele><time>2026-04-26T14:07:46Z</time></trkpt><trkpt lat="45.696117147542026" lon="9.947918498447315"><ele>315.6666666666667</ele><time>2026-04-26T14:07:47Z</time></trkpt><trkpt lat="45.69618314456165" lon="9.947829909893121"><ele>316.3333333333333</ele><time>2026-04-26T14:07:48Z</time></trkpt><trkpt lat="45.696247106341275" lon="9.947745271628605"><ele>317.0</ele><time>2026-04-26T14:07:49Z</time></trkpt><trkpt lat="45.696303118475576" lon="9.94766231222751"><ele>317.66666666666663</ele><time>2026-04-26T14:07:50Z</time></trkpt><trkpt lat="45.69635683254346" lon="9.947576708013665"><ele>318.3333333333333</ele><time>2026-04-26T14:07:51Z</time></trkpt><trkpt lat="45.69640822754011" lon="9.947474033361553"><ele>319.0</ele><time>2026-04-26T14:07:52Z</time></trkpt><trkpt lat="45.69645354554319" lon="9.947363219264272"><ele>320.0</ele><time>2026-04-26T14:07:53Z</time></trkpt><trkpt lat="45.69649685790107" lon="9.947258232652121"><ele>321.0</ele><time>2026-04-26T14:07:54Z</time></trkpt><trkpt lat="45.69654149377091" lon="9.947159301304154"><ele>322.0</ele><time>2026-04-26T14:07:55Z</time></trkpt><trkpt lat="45.69658682604574" lon="9.947073139250335"><ele>323.0</ele><time>2026-04-26T14:07:56Z</time></trkpt><trkpt lat="45.69663880323011" lon="9.946969971209251"><ele>324.0</ele><time>2026-04-26T14:07:57Z</time></trkpt><trkpt lat="45.696708466035616" lon="9.946894260254101"><ele>325.0</ele><time>2026-04-26T14:07:58Z</time></trkpt><trkpt lat="45.69678574688168" lon="9.946804753522567"><ele>325.0</ele><time>2026-04-26T14:07:59Z</time></trkpt><trkpt lat="45.69690167479648" lon="9.946711462370388"><ele>325.0</ele><time>2026-04-26T14:08:00Z</time></trkpt><trkpt lat="45.69703883182755" lon="9.946636082886355"><ele>325.0</ele><time>2026-04-26T14:08:01Z</time></trkpt><trkpt lat="45.69719678969864" lon="9.946585170328731"><ele>325.0</ele><time>2026-04-26T14:08:02Z</time></trkpt><trkpt lat="45.69738492384257" lon="9.946581311194828"><ele>329.5</ele><time>2026-04-26T14:08:03Z</time></trkpt><trkpt lat="45.697616224531366" lon="9.94657493432262"><ele>334.0</ele><time>2026-04-26T14:08:04Z</time></trkpt><trkpt lat="45.69785844615839" lon="9.946545357818167"><ele>335.5</ele><time>2026-04-26T14:08:05Z</time></trkpt><trkpt lat="45.69812347864995" lon="9.946522848763383"><ele>337.0</ele><time>2026-04-26T14:08:06Z</time></trkpt><trkpt lat="45.69835708884159" lon="9.946496472218076"><ele>337.0</ele><time>2026-04-26T14:08:07Z</time></trkpt><trkpt lat="45.69854671706738" lon="9.946443335281396"><ele>337.0</ele><time>2026-04-26T14:08:08Z</time></trkpt><trkpt lat="45.69871044233436" lon="9.946422924363887"><ele>337.0</ele><time>2026-04-26T14:08:08.999Z</time></trkpt><trkpt lat="45.69888616750584" lon="9.94640109270974"><ele>338.40000000000003</ele><time>2026-04-26T14:08:09.999Z</time></trkpt><trkpt lat="45.699038629175405" lon="9.946383140565215"><ele>339.8</ele><time>2026-04-26T14:08:10.999Z</time></trkpt><trkpt lat="45.69915860441583" lon="9.94633438730283"><ele>341.2</ele><time>2026-04-26T14:08:11.999Z</time></trkpt><trkpt lat="45.69924549174888" lon="9.946294267703783"><ele>342.6</ele><time>2026-04-26T14:08:12.999Z</time></trkpt><trkpt lat="45.699311285660364" lon="9.946259452872257"><ele>344.0</ele><time>2026-04-26T14:08:13.999Z</time></trkpt><trkpt lat="45.69940467365543" lon="9.946205256144736"><ele>344.0</ele><time>2026-04-26T14:08:15.999Z</time></trkpt><trkpt lat="45.69935428128855" lon="9.945965756694006"><ele>344.0</ele><time>2026-04-26T14:08:17.999Z</time></trkpt><trkpt lat="45.699313032244795" lon="9.945834640260207"><ele>344.0</ele><time>2026-04-26T14:08:18.999Z</time></trkpt><trkpt lat="45.699273801586116" lon="9.945682096228234"><ele>344.0</ele><time>2026-04-26T14:08:19.999Z</time></trkpt><trkpt lat="45.69922745465093" lon="9.945534295518923"><ele>345.1666666666667</ele><time>2026-04-26T14:08:20.999Z</time></trkpt><trkpt lat="45.69918078341684" lon="9.945418880615943"><ele>346.33333333333337</ele><time>2026-04-26T14:08:21.999Z</time></trkpt><trkpt lat="45.69915202658253" lon="9.945332517229817"><ele>347.5</ele><time>2026-04-26T14:08:22.999Z</time></trkpt><trkpt lat="45.69911628905247" lon="9.945223733394867"><ele>348.6666666666667</ele><time>2026-04-26T14:08:24.999Z</time></trkpt><trkpt lat="45.699081015277606" lon="9.945142781824687"><ele>349.8333333333333</ele><time>2026-04-26T14:08:47.999Z</time></trkpt><trkpt lat="45.69916530734678" lon="9.945026288362133"><ele>351.0</ele><time>2026-04-26T14:13:49Z</time></trkpt><trkpt lat="45.69922876767812" lon="9.94493540096791"><ele>351.25</ele><time>2026-04-26T14:13:50Z</time></trkpt><trkpt lat="45.69932047029932" lon="9.944816398797299"><ele>351.5</ele><time>2026-04-26T14:13:51Z</time></trkpt><trkpt lat="45.6994256908029" lon="9.944720613947693"><ele>351.75</ele><time>2026-04-26T14:13:52Z</time></trkpt><trkpt lat="45.699542546238646" lon="9.94466452302342"><ele>352.0</ele><time>2026-04-26T14:13:53Z</time></trkpt><trkpt lat="45.6996611825884" lon="9.94458626677692"><ele>352.8</ele><time>2026-04-26T14:13:54Z</time></trkpt><trkpt lat="45.69977842700739" lon="9.944491521393356"><ele>353.6</ele><time>2026-04-26T14:13:55Z</time></trkpt><trkpt lat="45.69986647050898" lon="9.944408751440474"><ele>354.40000000000003</ele><time>2026-04-26T14:13:56Z</time></trkpt><trkpt lat="45.69992565065744" lon="9.944327656437022"><ele>355.20000000000005</ele><time>2026-04-26T14:13:57Z</time></trkpt><trkpt lat="45.69995397627938" lon="9.94421660491703"><ele>356.0</ele><time>2026-04-26T14:13:58Z</time></trkpt><trkpt lat="45.69995252382492" lon="9.944085111303167"><ele>356.0</ele><time>2026-04-26T14:13:59Z</time></trkpt><trkpt lat="45.69992425508778" lon="9.943957204539663"><ele>356.0</ele><time>2026-04-26T14:14:00Z</time></trkpt><trkpt lat="45.69989157715516" lon="9.943822098732726"><ele>356.0</ele><time>2026-04-26T14:14:01Z</time></trkpt><trkpt lat="45.69986200149515" lon="9.943691502123006"><ele>356.0</ele><time>2026-04-26T14:14:02Z</time></trkpt><trkpt lat="45.69985783893533" lon="9.943561833608205"><ele>356.0</ele><time>2026-04-26T14:14:03Z</time></trkpt><trkpt lat="45.699897357212684" lon="9.943392563851623"><ele>357.0</ele><time>2026-04-26T14:14:04Z</time></trkpt><trkpt lat="45.69994858725387" lon="9.943216703058749"><ele>358.0</ele><time>2026-04-26T14:14:05Z</time></trkpt><trkpt lat="45.70000968088027" lon="9.943073029816885"><ele>359.0</ele><time>2026-04-26T14:14:06Z</time></trkpt><trkpt lat="45.70011407323684" lon="9.942972316739743"><ele>360.0</ele><time>2026-04-26T14:14:07Z</time></trkpt><trkpt lat="45.700192394379464" lon="9.942839210963392"><ele>364.5</ele><time>2026-04-26T14:14:08Z</time></trkpt><trkpt lat="45.70027031543804" lon="9.942664937498407"><ele>369.0</ele><time>2026-04-26T14:14:09Z</time></trkpt><trkpt lat="45.70034409657131" lon="9.942491726849319"><ele>373.5</ele><time>2026-04-26T14:14:10Z</time></trkpt><trkpt lat="45.70040906386263" lon="9.942347377631652"><ele>378.0</ele><time>2026-04-26T14:14:11Z</time></trkpt><trkpt lat="45.700481269657004" lon="9.942221047747203"><ele>378.0</ele><time>2026-04-26T14:14:12Z</time></trkpt><trkpt lat="45.70054177909738" lon="9.942113460883027"><ele>378.0</ele><time>2026-04-26T14:14:13Z</time></trkpt><trkpt lat="45.70059762349689" lon="9.942035891905451"><ele>378.0</ele><time>2026-04-26T14:14:14Z</time></trkpt><trkpt lat="45.70062672474919" lon="9.941955736857297"><ele>378.0</ele><time>2026-04-26T14:14:15Z</time></trkpt><trkpt lat="45.700710851982265" lon="9.94188014740907"><ele>378.0</ele><time>2026-04-26T14:14:17Z</time></trkpt><trkpt lat="45.70075726566298" lon="9.941800664355995"><ele>378.0</ele><time>2026-04-26T14:14:19Z</time></trkpt><trkpt lat="45.70089218057918" lon="9.941938696764803"><ele>378.0</ele><time>2026-04-26T14:14:20Z</time></trkpt><trkpt lat="45.70096429157507" lon="9.941967657853315"><ele>378.0</ele><time>2026-04-26T14:14:32.999Z</time></trkpt></trkseg></trk></gpx>